<?xml version='1.0' encoding='UTF-8'?><gpx version="1.1" creator="JPX - https://github.com/jenetics/jpx" xmlns="http://www.topografix.com/GPX/1/1"><trk><trkseg><trkpt lat="45.5081817" lon="10.4631283"><ele>188.0</ele><time>2026-03-29T06:51:13.419Z</time></trkpt><trkpt lat="45.5081583" lon="10.4632467"><ele>188.0</ele><time>2026-03-29T06:51:15.419Z</time></trkpt><trkpt lat="45.5080867" lon="10.4633167"><ele>188.0</ele><time>2026-03-29T06:51:18.419Z</time></trkpt><trkpt lat="45.50802" lon="10.46335"><ele>188.0</ele><time>2026-03-29T06:51:20.419Z</time></trkpt><trkpt lat="45.5079567" lon="10.4633833"><ele>188.0</ele><time>2026-03-29T06:51:22.419Z</time></trkpt><trkpt lat="45.5078583" lon="10.46339"><ele>188.0</ele><time>2026-03-29T06:51:24.419Z</time></trkpt><trkpt lat="45.50779" lon="10.4633967"><ele>187.0</ele><time>2026-03-29T06:51:25.419Z</time></trkpt><trkpt lat="45.5077183" lon="10.4634"><ele>186.0</ele><time>2026-03-29T06:51:26.42Z</time></trkpt><trkpt lat="45.507645" lon="10.4633983"><ele>185.0</ele><time>2026-03-29T06:51:27.419Z</time></trkpt><trkpt lat="45.5075317" lon="10.4633983"><ele>184.0</ele><time>2026-03-29T06:51:29.419Z</time></trkpt><trkpt lat="45.5074333" lon="10.4633533"><ele>183.0</ele><time>2026-03-29T06:51:31.419Z</time></trkpt><trkpt lat="45.507365" lon="10.4633333"><ele>182.0</ele><time>2026-03-29T06:51:33.42Z</time></trkpt><trkpt lat="45.507425" lon="10.4634067"><ele>182.0</ele><time>2026-03-29T06:51:54.42Z</time></trkpt><trkpt lat="45.5075367" lon="10.463435"><ele>182.0</ele><time>2026-03-29T06:54:03.419Z</time></trkpt><trkpt lat="45.5076283" lon="10.463445"><ele>182.0</ele><time>2026-03-29T06:54:13.419Z</time></trkpt><trkpt lat="45.5077817" lon="10.4634367"><ele>182.0</ele><time>2026-03-29T06:54:16.419Z</time></trkpt><trkpt lat="45.507865" lon="10.463435"><ele>182.0</ele><time>2026-03-29T06:54:18.419Z</time></trkpt><trkpt lat="45.5079483" lon="10.4634483"><ele>182.85714285714286</ele><time>2026-03-29T06:54:20.419Z</time></trkpt><trkpt lat="45.5080217" lon="10.4634533"><ele>183.71428571428572</ele><time>2026-03-29T06:54:24.419Z</time></trkpt><trkpt lat="45.5080867" lon="10.46343"><ele>184.57142857142856</ele><time>2026-03-29T06:54:26.419Z</time></trkpt><trkpt lat="45.5081683" lon="10.4633933"><ele>185.42857142857144</ele><time>2026-03-29T06:54:29.419Z</time></trkpt><trkpt lat="45.5082317" lon="10.46338"><ele>186.28571428571428</ele><time>2026-03-29T06:54:33.419Z</time></trkpt><trkpt lat="45.5082883" lon="10.4634667"><ele>187.14285714285714</ele><time>2026-03-29T06:54:42.419Z</time></trkpt><trkpt lat="45.5083333" lon="10.4635367"><ele>188.0</ele><time>2026-03-29T06:54:44.419Z</time></trkpt><trkpt lat="45.5083867" lon="10.4636283"><ele>188.0</ele><time>2026-03-29T06:54:49.419Z</time></trkpt><trkpt lat="45.508455" lon="10.4636233"><ele>188.0</ele><time>2026-03-29T06:54:52.419Z</time></trkpt><trkpt lat="45.5085283" lon="10.4636083"><ele>188.0</ele><time>2026-03-29T06:54:54.419Z</time></trkpt><trkpt lat="45.5086517" lon="10.4635867"><ele>188.0</ele><time>2026-03-29T06:54:56.419Z</time></trkpt><trkpt lat="45.5087317" lon="10.4635717"><ele>188.0</ele><time>2026-03-29T06:54:57.419Z</time></trkpt><trkpt lat="45.5088233" lon="10.4635483"><ele>188.0</ele><time>2026-03-29T06:54:58.419Z</time></trkpt><trkpt lat="45.50892" lon="10.4635217"><ele>187.5</ele><time>2026-03-29T06:54:59.419Z</time></trkpt><trkpt lat="45.5090267" lon="10.463495"><ele>187.0</ele><time>2026-03-29T06:55:00.419Z</time></trkpt><trkpt lat="45.509135" lon="10.463455"><ele>186.5</ele><time>2026-03-29T06:55:01.42Z</time></trkpt><trkpt lat="45.5092483" lon="10.4634167"><ele>186.0</ele><time>2026-03-29T06:55:02.419Z</time></trkpt><trkpt lat="45.5093683" lon="10.46338"><ele>186.0</ele><time>2026-03-29T06:55:03.419Z</time></trkpt><trkpt lat="45.5094967" lon="10.46334"><ele>186.0</ele><time>2026-03-29T06:55:04.419Z</time></trkpt><trkpt lat="45.509625" lon="10.463295"><ele>186.0</ele><time>2026-03-29T06:55:05.419Z</time></trkpt><trkpt lat="45.5097517" lon="10.46325"><ele>186.0</ele><time>2026-03-29T06:55:06.419Z</time></trkpt><trkpt lat="45.5098917" lon="10.463205"><ele>186.25</ele><time>2026-03-29T06:55:07.42Z</time></trkpt><trkpt lat="45.5100283" lon="10.4631583"><ele>186.5</ele><time>2026-03-29T06:55:08.419Z</time></trkpt><trkpt lat="45.5101733" lon="10.4631133"><ele>186.75</ele><time>2026-03-29T06:55:09.419Z</time></trkpt><trkpt lat="45.51032" lon="10.463055"><ele>187.0</ele><time>2026-03-29T06:55:10.42Z</time></trkpt><trkpt lat="45.5104683" lon="10.4629983"><ele>187.0</ele><time>2026-03-29T06:55:11.42Z</time></trkpt><trkpt lat="45.5106117" lon="10.4629533"><ele>187.0</ele><time>2026-03-29T06:55:12.419Z</time></trkpt><trkpt lat="45.5107567" lon="10.4629017"><ele>187.0</ele><time>2026-03-29T06:55:13.42Z</time></trkpt><trkpt lat="45.5109033" lon="10.462855"><ele>187.0</ele><time>2026-03-29T06:55:14.419Z</time></trkpt><trkpt lat="45.5110583" lon="10.4628067"><ele>187.33333333333334</ele><time>2026-03-29T06:55:15.419Z</time></trkpt><trkpt lat="45.51121" lon="10.4627483"><ele>187.66666666666666</ele><time>2026-03-29T06:55:16.419Z</time></trkpt><trkpt lat="45.511365" lon="10.462685"><ele>188.0</ele><time>2026-03-29T06:55:17.419Z</time></trkpt><trkpt lat="45.5115267" lon="10.4626233"><ele>188.33333333333331</ele><time>2026-03-29T06:55:18.419Z</time></trkpt><trkpt lat="45.51169" lon="10.462565"><ele>188.66666666666666</ele><time>2026-03-29T06:55:19.419Z</time></trkpt><trkpt lat="45.5118583" lon="10.4625117"><ele>189.0</ele><time>2026-03-29T06:55:20.42Z</time></trkpt><trkpt lat="45.5120283" lon="10.4624617"><ele>189.66666666666666</ele><time>2026-03-29T06:55:21.42Z</time></trkpt><trkpt lat="45.512205" lon="10.4624167"><ele>190.33333333333331</ele><time>2026-03-29T06:55:22.419Z</time></trkpt><trkpt lat="45.5123817" lon="10.4623967"><ele>191.0</ele><time>2026-03-29T06:55:23.419Z</time></trkpt><trkpt lat="45.51256" lon="10.4623833"><ele>191.0</ele><time>2026-03-29T06:55:24.419Z</time></trkpt><trkpt lat="45.5127283" lon="10.4623767"><ele>191.0</ele><time>2026-03-29T06:55:25.419Z</time></trkpt><trkpt lat="45.5128983" lon="10.4623533"><ele>191.0</ele><time>2026-03-29T06:55:26.419Z</time></trkpt><trkpt lat="45.5130633" lon="10.4623417"><ele>191.66666666666666</ele><time>2026-03-29T06:55:27.42Z</time></trkpt><trkpt lat="45.513225" lon="10.4623333"><ele>192.33333333333331</ele><time>2026-03-29T06:55:28.419Z</time></trkpt><trkpt lat="45.5133883" lon="10.46232"><ele>193.0</ele><time>2026-03-29T06:55:29.419Z</time></trkpt><trkpt lat="45.5135417" lon="10.4623117"><ele>193.0</ele><time>2026-03-29T06:55:30.419Z</time></trkpt><trkpt lat="45.5136933" lon="10.4623033"><ele>193.0</ele><time>2026-03-29T06:55:31.419Z</time></trkpt><trkpt lat="45.513835" lon="10.4623017"><ele>193.0</ele><time>2026-03-29T06:55:32.42Z</time></trkpt><trkpt lat="45.513965" lon="10.4623"><ele>193.0</ele><time>2026-03-29T06:55:33.419Z</time></trkpt><trkpt lat="45.514075" lon="10.462295"><ele>193.16666666666666</ele><time>2026-03-29T06:55:34.419Z</time></trkpt><trkpt lat="45.5141667" lon="10.462295"><ele>193.33333333333331</ele><time>2026-03-29T06:55:35.419Z</time></trkpt><trkpt lat="45.5142383" lon="10.4623033"><ele>193.5</ele><time>2026-03-29T06:55:36.419Z</time></trkpt><trkpt lat="45.5143333" lon="10.4623017"><ele>193.66666666666669</ele><time>2026-03-29T06:55:38.419Z</time></trkpt><trkpt lat="45.514385" lon="10.46238"><ele>193.83333333333334</ele><time>2026-03-29T06:55:41.419Z</time></trkpt><trkpt lat="45.514385" lon="10.4624867"><ele>194.0</ele><time>2026-03-29T06:55:43.419Z</time></trkpt><trkpt lat="45.5143767" lon="10.462635"><ele>194.00000000000003</ele><time>2026-03-29T06:55:45.419Z</time></trkpt><trkpt lat="45.5143617" lon="10.4627983"><ele>194.0</ele><time>2026-03-29T06:55:47.419Z</time></trkpt><trkpt lat="45.514355" lon="10.46289"><ele>194.0</ele><time>2026-03-29T06:55:48.42Z</time></trkpt><trkpt lat="45.5143483" lon="10.4629917"><ele>194.0</ele><time>2026-03-29T06:55:49.419Z</time></trkpt><trkpt lat="45.5143367" lon="10.46311"><ele>194.00000000000003</ele><time>2026-03-29T06:55:50.42Z</time></trkpt><trkpt lat="45.5143267" lon="10.463235"><ele>194.0</ele><time>2026-03-29T06:55:51.419Z</time></trkpt><trkpt lat="45.51432" lon="10.4633667"><ele>194.00000000000003</ele><time>2026-03-29T06:55:52.419Z</time></trkpt><trkpt lat="45.514315" lon="10.4635017"><ele>194.0</ele><time>2026-03-29T06:55:53.42Z</time></trkpt><trkpt lat="45.5143033" lon="10.4636283"><ele>194.0</ele><time>2026-03-29T06:55:54.42Z</time></trkpt><trkpt lat="45.5142983" lon="10.4637417"><ele>194.0</ele><time>2026-03-29T06:55:55.42Z</time></trkpt><trkpt lat="45.5142917" lon="10.4638367"><ele>194.00000000000003</ele><time>2026-03-29T06:55:56.419Z</time></trkpt><trkpt lat="45.5142767" lon="10.4639717"><ele>194.0</ele><time>2026-03-29T06:55:58.42Z</time></trkpt><trkpt lat="45.5142733" lon="10.464095"><ele>193.79999999999998</ele><time>2026-03-29T06:56:00.419Z</time></trkpt><trkpt lat="45.51427" lon="10.464225"><ele>193.6</ele><time>2026-03-29T06:56:02.419Z</time></trkpt><trkpt lat="45.5142633" lon="10.4643817"><ele>193.4</ele><time>2026-03-29T06:56:04.419Z</time></trkpt><trkpt lat="45.5142517" lon="10.4644783"><ele>193.2</ele><time>2026-03-29T06:56:05.419Z</time></trkpt><trkpt lat="45.5142467" lon="10.4645933"><ele>193.0</ele><time>2026-03-29T06:56:06.42Z</time></trkpt><trkpt lat="45.5142383" lon="10.4647417"><ele>193.0</ele><time>2026-03-29T06:56:07.419Z</time></trkpt><trkpt lat="45.514225" lon="10.464915"><ele>193.0</ele><time>2026-03-29T06:56:08.419Z</time></trkpt><trkpt lat="45.514215" lon="10.4651167"><ele>193.0</ele><time>2026-03-29T06:56:09.419Z</time></trkpt><trkpt lat="45.514205" lon="10.4653283"><ele>193.0</ele><time>2026-03-29T06:56:10.42Z</time></trkpt><trkpt lat="45.5142017" lon="10.4655483"><ele>193.5</ele><time>2026-03-29T06:56:11.419Z</time></trkpt><trkpt lat="45.51419" lon="10.465765"><ele>194.0</ele><time>2026-03-29T06:56:12.419Z</time></trkpt><trkpt lat="45.514185" lon="10.465965"><ele>194.5</ele><time>2026-03-29T06:56:13.42Z</time></trkpt><trkpt lat="45.5141817" lon="10.466155"><ele>195.0</ele><time>2026-03-29T06:56:14.419Z</time></trkpt><trkpt lat="45.5141767" lon="10.4663317"><ele>195.25</ele><time>2026-03-29T06:56:15.42Z</time></trkpt><trkpt lat="45.5141783" lon="10.4665117"><ele>195.5</ele><time>2026-03-29T06:56:16.42Z</time></trkpt><trkpt lat="45.5141717" lon="10.46669"><ele>195.75</ele><time>2026-03-29T06:56:17.419Z</time></trkpt><trkpt lat="45.514165" lon="10.4668667"><ele>196.0</ele><time>2026-03-29T06:56:18.419Z</time></trkpt><trkpt lat="45.5141583" lon="10.467045"><ele>196.75</ele><time>2026-03-29T06:56:19.419Z</time></trkpt><trkpt lat="45.5141517" lon="10.4672217"><ele>197.5</ele><time>2026-03-29T06:56:20.419Z</time></trkpt><trkpt lat="45.5141467" lon="10.4673917"><ele>198.25</ele><time>2026-03-29T06:56:21.419Z</time></trkpt><trkpt lat="45.5141433" lon="10.4675433"><ele>199.0</ele><time>2026-03-29T06:56:22.419Z</time></trkpt><trkpt lat="45.5141383" lon="10.4676917"><ele>199.0</ele><time>2026-03-29T06:56:23.419Z</time></trkpt><trkpt lat="45.5141333" lon="10.4678433"><ele>199.0</ele><time>2026-03-29T06:56:24.419Z</time></trkpt><trkpt lat="45.5141267" lon="10.4679967"><ele>199.0</ele><time>2026-03-29T06:56:25.419Z</time></trkpt><trkpt lat="45.5141217" lon="10.4681483"><ele>199.0</ele><time>2026-03-29T06:56:26.419Z</time></trkpt><trkpt lat="45.5141133" lon="10.4682983"><ele>199.0</ele><time>2026-03-29T06:56:27.419Z</time></trkpt><trkpt lat="45.5141067" lon="10.468445"><ele>199.16666666666666</ele><time>2026-03-29T06:56:28.419Z</time></trkpt><trkpt lat="45.5140967" lon="10.46859"><ele>199.33333333333331</ele><time>2026-03-29T06:56:29.419Z</time></trkpt><trkpt lat="45.51409" lon="10.468735"><ele>199.5</ele><time>2026-03-29T06:56:30.419Z</time></trkpt><trkpt lat="45.5140867" lon="10.468875"><ele>199.66666666666669</ele><time>2026-03-29T06:56:31.42Z</time></trkpt><trkpt lat="45.5140817" lon="10.46899"><ele>199.83333333333334</ele><time>2026-03-29T06:56:32.419Z</time></trkpt><trkpt lat="45.514085" lon="10.4690833"><ele>200.0</ele><time>2026-03-29T06:56:33.419Z</time></trkpt><trkpt lat="45.5140767" lon="10.4692083"><ele>200.0</ele><time>2026-03-29T06:56:35.419Z</time></trkpt><trkpt lat="45.51416" lon="10.4692683"><ele>200.0</ele><time>2026-03-29T06:56:38.419Z</time></trkpt><trkpt lat="45.51424" lon="10.4692633"><ele>200.0</ele><time>2026-03-29T06:56:39.42Z</time></trkpt><trkpt lat="45.5143417" lon="10.469265"><ele>200.0</ele><time>2026-03-29T06:56:40.42Z</time></trkpt><trkpt lat="45.5144533" lon="10.4692667"><ele>200.0</ele><time>2026-03-29T06:56:41.419Z</time></trkpt><trkpt lat="45.5145633" lon="10.4692633"><ele>200.0</ele><time>2026-03-29T06:56:42.419Z</time></trkpt><trkpt lat="45.5146717" lon="10.4692583"><ele>200.0</ele><time>2026-03-29T06:56:43.419Z</time></trkpt><trkpt lat="45.514785" lon="10.469255"><ele>200.0</ele><time>2026-03-29T06:56:44.42Z</time></trkpt><trkpt lat="45.5149067" lon="10.469255"><ele>200.0</ele><time>2026-03-29T06:56:45.419Z</time></trkpt><trkpt lat="45.5150317" lon="10.46926"><ele>200.0</ele><time>2026-03-29T06:56:46.419Z</time></trkpt><trkpt lat="45.515155" lon="10.4692717"><ele>200.0</ele><time>2026-03-29T06:56:47.419Z</time></trkpt><trkpt lat="45.5152767" lon="10.4692867"><ele>200.0</ele><time>2026-03-29T06:56:48.419Z</time></trkpt><trkpt lat="45.5154" lon="10.4693083"><ele>200.0</ele><time>2026-03-29T06:56:49.419Z</time></trkpt><trkpt lat="45.5155183" lon="10.4693217"><ele>200.4</ele><time>2026-03-29T06:56:50.419Z</time></trkpt><trkpt lat="45.51563" lon="10.4693333"><ele>200.8</ele><time>2026-03-29T06:56:51.419Z</time></trkpt><trkpt lat="45.5157383" lon="10.469335"><ele>201.2</ele><time>2026-03-29T06:56:52.419Z</time></trkpt><trkpt lat="45.515845" lon="10.4693483"><ele>201.6</ele><time>2026-03-29T06:56:53.419Z</time></trkpt><trkpt lat="45.5159517" lon="10.469365"><ele>202.0</ele><time>2026-03-29T06:56:54.419Z</time></trkpt><trkpt lat="45.51607" lon="10.4693817"><ele>202.0</ele><time>2026-03-29T06:56:55.419Z</time></trkpt><trkpt lat="45.5161917" lon="10.4694"><ele>202.0</ele><time>2026-03-29T06:56:56.419Z</time></trkpt><trkpt lat="45.51631" lon="10.4694"><ele>202.0</ele><time>2026-03-29T06:56:57.419Z</time></trkpt><trkpt lat="45.5164333" lon="10.4694"><ele>202.0</ele><time>2026-03-29T06:56:58.419Z</time></trkpt><trkpt lat="45.5165517" lon="10.4694033"><ele>202.75</ele><time>2026-03-29T06:56:59.419Z</time></trkpt><trkpt lat="45.516675" lon="10.4694083"><ele>203.5</ele><time>2026-03-29T06:57:00.419Z</time></trkpt><trkpt lat="45.516795" lon="10.4694067"><ele>204.25</ele><time>2026-03-29T06:57:01.42Z</time></trkpt><trkpt lat="45.5169167" lon="10.4694033"><ele>205.0</ele><time>2026-03-29T06:57:02.419Z</time></trkpt><trkpt lat="45.51703" lon="10.4694083"><ele>204.83333333333331</ele><time>2026-03-29T06:57:03.419Z</time></trkpt><trkpt lat="45.51713" lon="10.4694083"><ele>204.66666666666666</ele><time>2026-03-29T06:57:04.419Z</time></trkpt><trkpt lat="45.517215" lon="10.469415"><ele>204.5</ele><time>2026-03-29T06:57:05.419Z</time></trkpt><trkpt lat="45.517285" lon="10.4694267"><ele>204.33333333333331</ele><time>2026-03-29T06:57:06.419Z</time></trkpt><trkpt lat="45.5173583" lon="10.469505"><ele>204.16666666666666</ele><time>2026-03-29T06:57:08.419Z</time></trkpt><trkpt lat="45.5173317" lon="10.4696017"><ele>204.0</ele><time>2026-03-29T06:57:09.419Z</time></trkpt><trkpt lat="45.5172867" lon="10.4697283"><ele>204.75</ele><time>2026-03-29T06:57:10.419Z</time></trkpt><trkpt lat="45.51724" lon="10.4698683"><ele>205.5</ele><time>2026-03-29T06:57:11.42Z</time></trkpt><trkpt lat="45.5171983" lon="10.4700233"><ele>206.25</ele><time>2026-03-29T06:57:12.419Z</time></trkpt><trkpt lat="45.5171583" lon="10.4701783"><ele>207.0</ele><time>2026-03-29T06:57:13.42Z</time></trkpt><trkpt lat="45.5171133" lon="10.47035"><ele>207.25</ele><time>2026-03-29T06:57:14.419Z</time></trkpt><trkpt lat="45.51706" lon="10.4705283"><ele>207.5</ele><time>2026-03-29T06:57:15.419Z</time></trkpt><trkpt lat="45.5169983" lon="10.4706917"><ele>207.75</ele><time>2026-03-29T06:57:16.419Z</time></trkpt><trkpt lat="45.516935" lon="10.4708467"><ele>208.0</ele><time>2026-03-29T06:57:17.419Z</time></trkpt><trkpt lat="45.5168617" lon="10.4709783"><ele>208.0</ele><time>2026-03-29T06:57:18.419Z</time></trkpt><trkpt lat="45.5167833" lon="10.4711167"><ele>208.0</ele><time>2026-03-29T06:57:19.419Z</time></trkpt><trkpt lat="45.5167017" lon="10.4712517"><ele>208.0</ele><time>2026-03-29T06:57:20.42Z</time></trkpt><trkpt lat="45.5166167" lon="10.4713883"><ele>208.0</ele><time>2026-03-29T06:57:21.419Z</time></trkpt><trkpt lat="45.516535" lon="10.4715283"><ele>208.75</ele><time>2026-03-29T06:57:22.42Z</time></trkpt><trkpt lat="45.5164633" lon="10.4716717"><ele>209.5</ele><time>2026-03-29T06:57:23.419Z</time></trkpt><trkpt lat="45.5164067" lon="10.4718217"><ele>210.25</ele><time>2026-03-29T06:57:24.419Z</time></trkpt><trkpt lat="45.51636" lon="10.4719833"><ele>211.0</ele><time>2026-03-29T06:57:25.419Z</time></trkpt><trkpt lat="45.5163333" lon="10.472155"><ele>212.0</ele><time>2026-03-29T06:57:26.419Z</time></trkpt><trkpt lat="45.51631" lon="10.4723483"><ele>213.0</ele><time>2026-03-29T06:57:27.419Z</time></trkpt><trkpt lat="45.5162917" lon="10.472525"><ele>214.0</ele><time>2026-03-29T06:57:28.419Z</time></trkpt><trkpt lat="45.5162683" lon="10.4726683"><ele>215.0</ele><time>2026-03-29T06:57:29.419Z</time></trkpt><trkpt lat="45.516245" lon="10.472785"><ele>215.83333333333334</ele><time>2026-03-29T06:57:30.42Z</time></trkpt><trkpt lat="45.5162267" lon="10.472885"><ele>216.66666666666669</ele><time>2026-03-29T06:57:31.419Z</time></trkpt><trkpt lat="45.5162383" lon="10.47302"><ele>217.5</ele><time>2026-03-29T06:57:33.419Z</time></trkpt><trkpt lat="45.51628" lon="10.4730883"><ele>218.33333333333331</ele><time>2026-03-29T06:57:34.419Z</time></trkpt><trkpt lat="45.5163467" lon="10.4731583"><ele>219.16666666666666</ele><time>2026-03-29T06:57:35.42Z</time></trkpt><trkpt lat="45.5164417" lon="10.473235"><ele>220.0</ele><time>2026-03-29T06:57:36.419Z</time></trkpt><trkpt lat="45.5165583" lon="10.4733017"><ele>220.0</ele><time>2026-03-29T06:57:37.419Z</time></trkpt><trkpt lat="45.5167" lon="10.473345"><ele>220.0</ele><time>2026-03-29T06:57:38.419Z</time></trkpt><trkpt lat="45.516845" lon="10.4733683"><ele>220.0</ele><time>2026-03-29T06:57:39.419Z</time></trkpt><trkpt lat="45.5169833" lon="10.4733733"><ele>220.0</ele><time>2026-03-29T06:57:40.419Z</time></trkpt><trkpt lat="45.5171217" lon="10.47336"><ele>220.0</ele><time>2026-03-29T06:57:41.419Z</time></trkpt><trkpt lat="45.5172617" lon="10.4733383"><ele>220.0</ele><time>2026-03-29T06:57:42.419Z</time></trkpt><trkpt lat="45.5174067" lon="10.4733267"><ele>220.0</ele><time>2026-03-29T06:57:43.42Z</time></trkpt><trkpt lat="45.5175533" lon="10.4733017"><ele>220.0</ele><time>2026-03-29T06:57:44.419Z</time></trkpt><trkpt lat="45.5177" lon="10.4732583"><ele>220.0</ele><time>2026-03-29T06:57:45.419Z</time></trkpt><trkpt lat="45.5178467" lon="10.4732183"><ele>220.0</ele><time>2026-03-29T06:57:46.419Z</time></trkpt><trkpt lat="45.5179917" lon="10.4731533"><ele>220.0</ele><time>2026-03-29T06:57:47.419Z</time></trkpt><trkpt lat="45.5181283" lon="10.4730867"><ele>220.0</ele><time>2026-03-29T06:57:48.42Z</time></trkpt><trkpt lat="45.5182783" lon="10.47298"><ele>219.33333333333331</ele><time>2026-03-29T06:57:49.419Z</time></trkpt><trkpt lat="45.5184267" lon="10.4728567"><ele>218.66666666666669</ele><time>2026-03-29T06:57:50.419Z</time></trkpt><trkpt lat="45.5185817" lon="10.47271"><ele>218.0</ele><time>2026-03-29T06:57:51.419Z</time></trkpt><trkpt lat="45.5187233" lon="10.47257"><ele>218.66666666666669</ele><time>2026-03-29T06:57:52.419Z</time></trkpt><trkpt lat="45.5188783" lon="10.4724383"><ele>219.33333333333331</ele><time>2026-03-29T06:57:53.419Z</time></trkpt><trkpt lat="45.51903" lon="10.4723117"><ele>220.0</ele><time>2026-03-29T06:57:54.419Z</time></trkpt><trkpt lat="45.519185" lon="10.47219"><ele>219.66666666666666</ele><time>2026-03-29T06:57:55.419Z</time></trkpt><trkpt lat="45.51934" lon="10.472075"><ele>219.33333333333331</ele><time>2026-03-29T06:57:56.419Z</time></trkpt><trkpt lat="45.5194867" lon="10.4719367"><ele>219.0</ele><time>2026-03-29T06:57:57.419Z</time></trkpt><trkpt lat="45.5196183" lon="10.4718133"><ele>219.0</ele><time>2026-03-29T06:57:58.419Z</time></trkpt><trkpt lat="45.519735" lon="10.471695"><ele>219.0</ele><time>2026-03-29T06:57:59.419Z</time></trkpt><trkpt lat="45.51984" lon="10.4715883"><ele>219.0</ele><time>2026-03-29T06:58:00.419Z</time></trkpt><trkpt lat="45.5199333" lon="10.4714933"><ele>219.0</ele><time>2026-03-29T06:58:01.419Z</time></trkpt><trkpt lat="45.5200267" lon="10.471425"><ele>219.0</ele><time>2026-03-29T06:58:02.419Z</time></trkpt><trkpt lat="45.5201267" lon="10.4713667"><ele>218.99999999999997</ele><time>2026-03-29T06:58:03.419Z</time></trkpt><trkpt lat="45.5202217" lon="10.4713233"><ele>218.99999999999997</ele><time>2026-03-29T06:58:04.419Z</time></trkpt><trkpt lat="45.5203183" lon="10.4712867"><ele>219.0</ele><time>2026-03-29T06:58:05.419Z</time></trkpt><trkpt lat="45.520405" lon="10.4712617"><ele>219.0</ele><time>2026-03-29T06:58:06.42Z</time></trkpt><trkpt lat="45.5204733" lon="10.4712433"><ele>219.16666666666666</ele><time>2026-03-29T06:58:07.42Z</time></trkpt><trkpt lat="45.5205617" lon="10.47121"><ele>219.33333333333331</ele><time>2026-03-29T06:58:09.419Z</time></trkpt><trkpt lat="45.5206267" lon="10.4712583"><ele>219.5</ele><time>2026-03-29T06:58:13.419Z</time></trkpt><trkpt lat="45.52065" lon="10.4713867"><ele>219.66666666666666</ele><time>2026-03-29T06:58:15.419Z</time></trkpt><trkpt lat="45.5206417" lon="10.4714983"><ele>219.83333333333331</ele><time>2026-03-29T06:58:16.419Z</time></trkpt><trkpt lat="45.520635" lon="10.471635"><ele>220.0</ele><time>2026-03-29T06:58:17.419Z</time></trkpt><trkpt lat="45.52064" lon="10.4717983"><ele>220.0</ele><time>2026-03-29T06:58:18.42Z</time></trkpt><trkpt lat="45.5206467" lon="10.471985"><ele>220.0</ele><time>2026-03-29T06:58:19.42Z</time></trkpt><trkpt lat="45.5206583" lon="10.47218"><ele>220.0</ele><time>2026-03-29T06:58:20.419Z</time></trkpt><trkpt lat="45.5206583" lon="10.4723867"><ele>220.0</ele><time>2026-03-29T06:58:21.419Z</time></trkpt><trkpt lat="45.5206383" lon="10.4726033"><ele>222.0</ele><time>2026-03-29T06:58:22.419Z</time></trkpt><trkpt lat="45.5206" lon="10.472815"><ele>224.0</ele><time>2026-03-29T06:58:23.419Z</time></trkpt><trkpt lat="45.52053" lon="10.4730267"><ele>226.0</ele><time>2026-03-29T06:58:24.419Z</time></trkpt><trkpt lat="45.520455" lon="10.4732417"><ele>229.33333333333331</ele><time>2026-03-29T06:58:25.419Z</time></trkpt><trkpt lat="45.52038" lon="10.4734633"><ele>232.66666666666669</ele><time>2026-03-29T06:58:26.419Z</time></trkpt><trkpt lat="45.5203" lon="10.473695"><ele>236.0</ele><time>2026-03-29T06:58:27.42Z</time></trkpt><trkpt lat="45.5202383" lon="10.47395"><ele>237.0</ele><time>2026-03-29T06:58:28.419Z</time></trkpt><trkpt lat="45.5201817" lon="10.47421"><ele>238.0</ele><time>2026-03-29T06:58:29.419Z</time></trkpt><trkpt lat="45.52012" lon="10.474485"><ele>239.0</ele><time>2026-03-29T06:58:30.419Z</time></trkpt><trkpt lat="45.5200783" lon="10.474765"><ele>239.0</ele><time>2026-03-29T06:58:31.419Z</time></trkpt><trkpt lat="45.5200383" lon="10.4750567"><ele>239.0</ele><time>2026-03-29T06:58:32.419Z</time></trkpt><trkpt lat="45.52" lon="10.4753433"><ele>239.0</ele><time>2026-03-29T06:58:33.419Z</time></trkpt><trkpt lat="45.5199567" lon="10.4756133"><ele>239.0</ele><time>2026-03-29T06:58:34.42Z</time></trkpt><trkpt lat="45.5199117" lon="10.47588"><ele>239.0</ele><time>2026-03-29T06:58:35.42Z</time></trkpt><trkpt lat="45.5198683" lon="10.4761433"><ele>239.0</ele><time>2026-03-29T06:58:36.419Z</time></trkpt><trkpt lat="45.519825" lon="10.4764133"><ele>238.66666666666669</ele><time>2026-03-29T06:58:37.42Z</time></trkpt><trkpt lat="45.5197833" lon="10.4766883"><ele>238.33333333333331</ele><time>2026-03-29T06:58:38.42Z</time></trkpt><trkpt lat="45.5197383" lon="10.4769567"><ele>238.0</ele><time>2026-03-29T06:58:39.419Z</time></trkpt><trkpt lat="45.5196933" lon="10.4772283"><ele>240.33333333333331</ele><time>2026-03-29T06:58:40.419Z</time></trkpt><trkpt lat="45.5196617" lon="10.4774833"><ele>242.66666666666669</ele><time>2026-03-29T06:58:41.419Z</time></trkpt><trkpt lat="45.5196367" lon="10.4777517"><ele>245.0</ele><time>2026-03-29T06:58:42.419Z</time></trkpt><trkpt lat="45.519635" lon="10.4780267"><ele>246.66666666666669</ele><time>2026-03-29T06:58:43.419Z</time></trkpt><trkpt lat="45.5196567" lon="10.4782867"><ele>248.33333333333331</ele><time>2026-03-29T06:58:44.419Z</time></trkpt><trkpt lat="45.5196917" lon="10.4785267"><ele>250.0</ele><time>2026-03-29T06:58:45.419Z</time></trkpt><trkpt lat="45.5197333" lon="10.4787383"><ele>251.0</ele><time>2026-03-29T06:58:46.419Z</time></trkpt><trkpt lat="45.51976" lon="10.4789217"><ele>252.0</ele><time>2026-03-29T06:58:47.419Z</time></trkpt><trkpt lat="45.5197667" lon="10.4790833"><ele>253.0</ele><time>2026-03-29T06:58:48.419Z</time></trkpt><trkpt lat="45.5197483" lon="10.4792217"><ele>254.0</ele><time>2026-03-29T06:58:49.419Z</time></trkpt><trkpt lat="45.51971" lon="10.47935"><ele>255.0</ele><time>2026-03-29T06:58:50.419Z</time></trkpt><trkpt lat="45.519645" lon="10.47948"><ele>254.0</ele><time>2026-03-29T06:58:51.419Z</time></trkpt><trkpt lat="45.519565" lon="10.4796183"><ele>253.0</ele><time>2026-03-29T06:58:52.419Z</time></trkpt><trkpt lat="45.5194717" lon="10.47976"><ele>252.0</ele><time>2026-03-29T06:58:53.419Z</time></trkpt><trkpt lat="45.5193833" lon="10.4799217"><ele>251.0</ele><time>2026-03-29T06:58:54.419Z</time></trkpt><trkpt lat="45.5192883" lon="10.4801017"><ele>251.0</ele><time>2026-03-29T06:58:55.419Z</time></trkpt><trkpt lat="45.5192117" lon="10.48029"><ele>251.0</ele><time>2026-03-29T06:58:56.42Z</time></trkpt><trkpt lat="45.5191567" lon="10.480495"><ele>251.0</ele><time>2026-03-29T06:58:57.42Z</time></trkpt><trkpt lat="45.5191283" lon="10.4807183"><ele>250.0</ele><time>2026-03-29T06:58:58.42Z</time></trkpt><trkpt lat="45.5191167" lon="10.4809567"><ele>249.0</ele><time>2026-03-29T06:58:59.419Z</time></trkpt><trkpt lat="45.5190967" lon="10.4811833"><ele>248.0</ele><time>2026-03-29T06:59:00.419Z</time></trkpt><trkpt lat="45.5190917" lon="10.4813883"><ele>246.25</ele><time>2026-03-29T06:59:01.419Z</time></trkpt><trkpt lat="45.51912" lon="10.48158"><ele>244.5</ele><time>2026-03-29T06:59:02.419Z</time></trkpt><trkpt lat="45.519185" lon="10.4817617"><ele>242.75</ele><time>2026-03-29T06:59:03.42Z</time></trkpt><trkpt lat="45.5192667" lon="10.481945"><ele>241.0</ele><time>2026-03-29T06:59:04.419Z</time></trkpt><trkpt lat="45.5193617" lon="10.4821267"><ele>240.66666666666666</ele><time>2026-03-29T06:59:05.419Z</time></trkpt><trkpt lat="45.5194667" lon="10.4823233"><ele>240.33333333333331</ele><time>2026-03-29T06:59:06.419Z</time></trkpt><trkpt lat="45.51957" lon="10.4825233"><ele>240.0</ele><time>2026-03-29T06:59:07.419Z</time></trkpt><trkpt lat="45.51969" lon="10.4827233"><ele>240.0</ele><time>2026-03-29T06:59:08.42Z</time></trkpt><trkpt lat="45.5198167" lon="10.4829317"><ele>240.0</ele><time>2026-03-29T06:59:09.42Z</time></trkpt><trkpt lat="45.5199333" lon="10.4831483"><ele>240.0</ele><time>2026-03-29T06:59:10.419Z</time></trkpt><trkpt lat="45.5200383" lon="10.4833367"><ele>240.0</ele><time>2026-03-29T06:59:11.419Z</time></trkpt><trkpt lat="45.520155" lon="10.4835183"><ele>240.0</ele><time>2026-03-29T06:59:12.419Z</time></trkpt><trkpt lat="45.5202867" lon="10.4837"><ele>240.0</ele><time>2026-03-29T06:59:13.419Z</time></trkpt><trkpt lat="45.52044" lon="10.4838933"><ele>240.66666666666669</ele><time>2026-03-29T06:59:14.419Z</time></trkpt><trkpt lat="45.5205883" lon="10.4840817"><ele>241.33333333333334</ele><time>2026-03-29T06:59:15.419Z</time></trkpt><trkpt lat="45.5207367" lon="10.48427"><ele>242.0</ele><time>2026-03-29T06:59:16.419Z</time></trkpt><trkpt lat="45.52088" lon="10.48445"><ele>242.0</ele><time>2026-03-29T06:59:17.42Z</time></trkpt><trkpt lat="45.52103" lon="10.4846083"><ele>242.0</ele><time>2026-03-29T06:59:18.419Z</time></trkpt><trkpt lat="45.5211667" lon="10.4847667"><ele>242.0</ele><time>2026-03-29T06:59:19.419Z</time></trkpt><trkpt lat="45.5212967" lon="10.4849533"><ele>242.0</ele><time>2026-03-29T06:59:20.42Z</time></trkpt><trkpt lat="45.5213717" lon="10.4851283"><ele>242.0</ele><time>2026-03-29T06:59:21.419Z</time></trkpt><trkpt lat="45.5214183" lon="10.4853267"><ele>242.0</ele><time>2026-03-29T06:59:22.419Z</time></trkpt><trkpt lat="45.5214467" lon="10.4855483"><ele>242.0</ele><time>2026-03-29T06:59:23.419Z</time></trkpt><trkpt lat="45.5214717" lon="10.4857883"><ele>239.0</ele><time>2026-03-29T06:59:24.419Z</time></trkpt><trkpt lat="45.5214833" lon="10.4860517"><ele>236.0</ele><time>2026-03-29T06:59:25.419Z</time></trkpt><trkpt lat="45.52149" lon="10.4863117"><ele>233.0</ele><time>2026-03-29T06:59:26.42Z</time></trkpt><trkpt lat="45.52149" lon="10.4865583"><ele>231.33333333333334</ele><time>2026-03-29T06:59:27.419Z</time></trkpt><trkpt lat="45.5214533" lon="10.4867967"><ele>229.66666666666669</ele><time>2026-03-29T06:59:28.419Z</time></trkpt><trkpt lat="45.5214" lon="10.4870333"><ele>228.0</ele><time>2026-03-29T06:59:29.419Z</time></trkpt><trkpt lat="45.5213317" lon="10.487255"><ele>226.66666666666669</ele><time>2026-03-29T06:59:30.42Z</time></trkpt><trkpt lat="45.5212683" lon="10.4874883"><ele>225.33333333333334</ele><time>2026-03-29T06:59:31.419Z</time></trkpt><trkpt lat="45.52121" lon="10.4877083"><ele>224.0</ele><time>2026-03-29T06:59:32.419Z</time></trkpt><trkpt lat="45.52114" lon="10.48795"><ele>223.0</ele><time>2026-03-29T06:59:33.42Z</time></trkpt><trkpt lat="45.5210783" lon="10.4881867"><ele>222.0</ele><time>2026-03-29T06:59:34.419Z</time></trkpt><trkpt lat="45.521005" lon="10.4884183"><ele>221.0</ele><time>2026-03-29T06:59:35.419Z</time></trkpt><trkpt lat="45.520945" lon="10.48864"><ele>220.75</ele><time>2026-03-29T06:59:36.419Z</time></trkpt><trkpt lat="45.5209017" lon="10.4888583"><ele>220.5</ele><time>2026-03-29T06:59:37.419Z</time></trkpt><trkpt lat="45.5208633" lon="10.4890367"><ele>220.25</ele><time>2026-03-29T06:59:38.419Z</time></trkpt><trkpt lat="45.5208517" lon="10.4891933"><ele>220.0</ele><time>2026-03-29T06:59:39.42Z</time></trkpt><trkpt lat="45.52088" lon="10.4893583"><ele>220.0</ele><time>2026-03-29T06:59:40.419Z</time></trkpt><trkpt lat="45.5209233" lon="10.4895067"><ele>220.0</ele><time>2026-03-29T06:59:41.42Z</time></trkpt><trkpt lat="45.520985" lon="10.4896433"><ele>220.0</ele><time>2026-03-29T06:59:42.419Z</time></trkpt><trkpt lat="45.5210483" lon="10.4897633"><ele>220.0</ele><time>2026-03-29T06:59:43.42Z</time></trkpt><trkpt lat="45.5211" lon="10.4898767"><ele>220.0</ele><time>2026-03-29T06:59:44.419Z</time></trkpt><trkpt lat="45.5211417" lon="10.4899733"><ele>219.83333333333331</ele><time>2026-03-29T06:59:45.419Z</time></trkpt><trkpt lat="45.5211717" lon="10.4900683"><ele>219.66666666666666</ele><time>2026-03-29T06:59:46.419Z</time></trkpt><trkpt lat="45.5212033" lon="10.4901517"><ele>219.5</ele><time>2026-03-29T06:59:47.42Z</time></trkpt><trkpt lat="45.521215" lon="10.490285"><ele>219.33333333333331</ele><time>2026-03-29T06:59:49.419Z</time></trkpt><trkpt lat="45.521245" lon="10.49039"><ele>219.16666666666666</ele><time>2026-03-29T06:59:52.419Z</time></trkpt><trkpt lat="45.52128" lon="10.49028"><ele>219.0</ele><time>2026-03-29T06:59:56.419Z</time></trkpt><trkpt lat="45.5212583" lon="10.49018"><ele>219.0</ele><time>2026-03-29T06:59:57.419Z</time></trkpt><trkpt lat="45.5212217" lon="10.490055"><ele>219.0</ele><time>2026-03-29T06:59:58.419Z</time></trkpt><trkpt lat="45.521165" lon="10.4899067"><ele>219.0</ele><time>2026-03-29T06:59:59.419Z</time></trkpt><trkpt lat="45.52109" lon="10.4897417"><ele>219.0</ele><time>2026-03-29T07:00:00.42Z</time></trkpt><trkpt lat="45.521015" lon="10.48958"><ele>219.2</ele><time>2026-03-29T07:00:01.42Z</time></trkpt><trkpt lat="45.52096" lon="10.4894317"><ele>219.39999999999998</ele><time>2026-03-29T07:00:02.419Z</time></trkpt><trkpt lat="45.5209267" lon="10.4893217"><ele>219.6</ele><time>2026-03-29T07:00:03.419Z</time></trkpt><trkpt lat="45.5210217" lon="10.4893433"><ele>219.8</ele><time>2026-03-29T07:00:08.419Z</time></trkpt><trkpt lat="45.5210867" lon="10.489415"><ele>220.0</ele><time>2026-03-29T07:00:09.419Z</time></trkpt><trkpt lat="45.521165" lon="10.4895"><ele>219.8</ele><time>2026-03-29T07:00:10.419Z</time></trkpt><trkpt lat="45.5212433" lon="10.4895783"><ele>219.6</ele><time>2026-03-29T07:00:11.419Z</time></trkpt><trkpt lat="45.5213133" lon="10.4896617"><ele>219.39999999999998</ele><time>2026-03-29T07:00:12.419Z</time></trkpt><trkpt lat="45.5213917" lon="10.4897483"><ele>219.2</ele><time>2026-03-29T07:00:13.42Z</time></trkpt><trkpt lat="45.5214717" lon="10.4898333"><ele>219.0</ele><time>2026-03-29T07:00:14.419Z</time></trkpt><trkpt lat="45.5215583" lon="10.48991"><ele>219.2</ele><time>2026-03-29T07:00:15.419Z</time></trkpt><trkpt lat="45.52165" lon="10.48997"><ele>219.39999999999998</ele><time>2026-03-29T07:00:16.419Z</time></trkpt><trkpt lat="45.521755" lon="10.4900217"><ele>219.6</ele><time>2026-03-29T07:00:17.419Z</time></trkpt><trkpt lat="45.5218667" lon="10.4900633"><ele>219.8</ele><time>2026-03-29T07:00:18.42Z</time></trkpt><trkpt lat="45.52198" lon="10.4901217"><ele>220.0</ele><time>2026-03-29T07:00:19.419Z</time></trkpt><trkpt lat="45.5220933" lon="10.4901933"><ele>220.0</ele><time>2026-03-29T07:00:20.42Z</time></trkpt><trkpt lat="45.52219" lon="10.4902817"><ele>220.0</ele><time>2026-03-29T07:00:21.419Z</time></trkpt><trkpt lat="45.5222867" lon="10.4903583"><ele>220.0</ele><time>2026-03-29T07:00:22.42Z</time></trkpt><trkpt lat="45.5223833" lon="10.490395"><ele>220.0</ele><time>2026-03-29T07:00:23.419Z</time></trkpt><trkpt lat="45.5224833" lon="10.4904017"><ele>220.0</ele><time>2026-03-29T07:00:24.419Z</time></trkpt><trkpt lat="45.52258" lon="10.4904183"><ele>220.0</ele><time>2026-03-29T07:00:25.419Z</time></trkpt><trkpt lat="45.5226633" lon="10.4904467"><ele>220.0</ele><time>2026-03-29T07:00:26.419Z</time></trkpt><trkpt lat="45.5227683" lon="10.490485"><ele>220.0</ele><time>2026-03-29T07:00:28.419Z</time></trkpt><trkpt lat="45.5228483" lon="10.490435"><ele>220.0</ele><time>2026-03-29T07:00:30.419Z</time></trkpt><trkpt lat="45.5228883" lon="10.4903183"><ele>220.0</ele><time>2026-03-29T07:00:31.419Z</time></trkpt><trkpt lat="45.5229283" lon="10.49017"><ele>221.25</ele><time>2026-03-29T07:00:32.419Z</time></trkpt><trkpt lat="45.5229617" lon="10.4900017"><ele>222.5</ele><time>2026-03-29T07:00:33.419Z</time></trkpt><trkpt lat="45.5230083" lon="10.4898233"><ele>223.75</ele><time>2026-03-29T07:00:34.419Z</time></trkpt><trkpt lat="45.523065" lon="10.48964"><ele>225.0</ele><time>2026-03-29T07:00:35.419Z</time></trkpt><trkpt lat="45.5231333" lon="10.4894367"><ele>225.75</ele><time>2026-03-29T07:00:36.419Z</time></trkpt><trkpt lat="45.5232" lon="10.4892333"><ele>226.5</ele><time>2026-03-29T07:00:37.419Z</time></trkpt><trkpt lat="45.5232467" lon="10.4890317"><ele>227.25</ele><time>2026-03-29T07:00:38.419Z</time></trkpt><trkpt lat="45.5232933" lon="10.4888617"><ele>228.0</ele><time>2026-03-29T07:00:39.419Z</time></trkpt><trkpt lat="45.5233333" lon="10.488735"><ele>228.0</ele><time>2026-03-29T07:00:40.419Z</time></trkpt><trkpt lat="45.52337" lon="10.4886533"><ele>228.0</ele><time>2026-03-29T07:00:41.419Z</time></trkpt><trkpt lat="45.52347" lon="10.4885467"><ele>228.0</ele><time>2026-03-29T07:00:43.42Z</time></trkpt><trkpt lat="45.5235483" lon="10.4885067"><ele>228.0</ele><time>2026-03-29T07:00:44.419Z</time></trkpt><trkpt lat="45.5236483" lon="10.4884783"><ele>228.0</ele><time>2026-03-29T07:00:45.419Z</time></trkpt><trkpt lat="45.5237683" lon="10.4884433"><ele>229.5</ele><time>2026-03-29T07:00:46.419Z</time></trkpt><trkpt lat="45.5239" lon="10.4884217"><ele>231.0</ele><time>2026-03-29T07:00:47.419Z</time></trkpt><trkpt lat="45.524035" lon="10.4884183"><ele>232.5</ele><time>2026-03-29T07:00:48.419Z</time></trkpt><trkpt lat="45.5241583" lon="10.48842"><ele>234.0</ele><time>2026-03-29T07:00:49.419Z</time></trkpt><trkpt lat="45.5242717" lon="10.4883983"><ele>234.0</ele><time>2026-03-29T07:00:50.419Z</time></trkpt><trkpt lat="45.5243783" lon="10.4884"><ele>233.99999999999997</ele><time>2026-03-29T07:00:51.419Z</time></trkpt><trkpt lat="45.5244583" lon="10.48842"><ele>233.99999999999997</ele><time>2026-03-29T07:00:52.419Z</time></trkpt><trkpt lat="45.5245333" lon="10.48845"><ele>234.0</ele><time>2026-03-29T07:00:53.42Z</time></trkpt><trkpt lat="45.5246183" lon="10.4885167"><ele>234.0</ele><time>2026-03-29T07:00:54.419Z</time></trkpt><trkpt lat="45.5247167" lon="10.4885867"><ele>234.5</ele><time>2026-03-29T07:00:55.419Z</time></trkpt><trkpt lat="45.5248317" lon="10.4886417"><ele>235.0</ele><time>2026-03-29T07:00:56.419Z</time></trkpt><trkpt lat="45.524955" lon="10.4886717"><ele>235.5</ele><time>2026-03-29T07:00:57.42Z</time></trkpt><trkpt lat="45.5250917" lon="10.48871"><ele>236.0</ele><time>2026-03-29T07:00:58.419Z</time></trkpt><trkpt lat="45.52524" lon="10.4887433"><ele>237.0</ele><time>2026-03-29T07:00:59.42Z</time></trkpt><trkpt lat="45.5253867" lon="10.488785"><ele>238.0</ele><time>2026-03-29T07:01:00.42Z</time></trkpt><trkpt lat="45.5255283" lon="10.4888233"><ele>239.0</ele><time>2026-03-29T07:01:01.419Z</time></trkpt><trkpt lat="45.5256517" lon="10.4888283"><ele>240.0</ele><time>2026-03-29T07:01:02.419Z</time></trkpt><trkpt lat="45.52576" lon="10.4888467"><ele>240.0</ele><time>2026-03-29T07:01:03.42Z</time></trkpt><trkpt lat="45.5258667" lon="10.488855"><ele>240.0</ele><time>2026-03-29T07:01:04.419Z</time></trkpt><trkpt lat="45.52596" lon="10.4888583"><ele>240.0</ele><time>2026-03-29T07:01:05.419Z</time></trkpt><trkpt lat="45.5260533" lon="10.4888433"><ele>240.0</ele><time>2026-03-29T07:01:06.419Z</time></trkpt><trkpt lat="45.52615" lon="10.48884"><ele>240.0</ele><time>2026-03-29T07:01:07.42Z</time></trkpt><trkpt lat="45.5262533" lon="10.4888167"><ele>240.2</ele><time>2026-03-29T07:01:08.419Z</time></trkpt><trkpt lat="45.5263533" lon="10.4888067"><ele>240.4</ele><time>2026-03-29T07:01:09.419Z</time></trkpt><trkpt lat="45.526465" lon="10.4888033"><ele>240.60000000000002</ele><time>2026-03-29T07:01:10.419Z</time></trkpt><trkpt lat="45.5265567" lon="10.48881"><ele>240.8</ele><time>2026-03-29T07:01:11.419Z</time></trkpt><trkpt lat="45.526655" lon="10.4888217"><ele>241.0</ele><time>2026-03-29T07:01:12.419Z</time></trkpt><trkpt lat="45.526745" lon="10.4888267"><ele>240.99999999999997</ele><time>2026-03-29T07:01:13.419Z</time></trkpt><trkpt lat="45.52682" lon="10.4888317"><ele>241.0</ele><time>2026-03-29T07:01:14.419Z</time></trkpt><trkpt lat="45.5268933" lon="10.488855"><ele>241.0</ele><time>2026-03-29T07:01:15.419Z</time></trkpt><trkpt lat="45.5269567" lon="10.4888983"><ele>241.0</ele><time>2026-03-29T07:01:16.419Z</time></trkpt><trkpt lat="45.5270283" lon="10.488965"><ele>240.99999999999997</ele><time>2026-03-29T07:01:17.419Z</time></trkpt><trkpt lat="45.52711" lon="10.48903"><ele>241.0</ele><time>2026-03-29T07:01:18.419Z</time></trkpt><trkpt lat="45.5272083" lon="10.4890933"><ele>241.4</ele><time>2026-03-29T07:01:19.419Z</time></trkpt><trkpt lat="45.5273083" lon="10.48913"><ele>241.8</ele><time>2026-03-29T07:01:20.419Z</time></trkpt><trkpt lat="45.5274167" lon="10.489145"><ele>242.20000000000002</ele><time>2026-03-29T07:01:21.42Z</time></trkpt><trkpt lat="45.52752" lon="10.4891267"><ele>242.60000000000002</ele><time>2026-03-29T07:01:22.419Z</time></trkpt><trkpt lat="45.5276467" lon="10.4890967"><ele>243.0</ele><time>2026-03-29T07:01:23.419Z</time></trkpt><trkpt lat="45.527765" lon="10.4890667"><ele>243.0</ele><time>2026-03-29T07:01:24.419Z</time></trkpt><trkpt lat="45.5278533" lon="10.4890517"><ele>243.0</ele><time>2026-03-29T07:01:25.419Z</time></trkpt><trkpt lat="45.5279383" lon="10.489045"><ele>243.0</ele><time>2026-03-29T07:01:26.419Z</time></trkpt><trkpt lat="45.5280133" lon="10.48906"><ele>243.0</ele><time>2026-03-29T07:01:27.42Z</time></trkpt><trkpt lat="45.5280867" lon="10.4890917"><ele>243.0</ele><time>2026-03-29T07:01:28.419Z</time></trkpt><trkpt lat="45.5281533" lon="10.4891483"><ele>243.0</ele><time>2026-03-29T07:01:29.42Z</time></trkpt><trkpt lat="45.5282117" lon="10.4892117"><ele>244.2</ele><time>2026-03-29T07:01:30.419Z</time></trkpt><trkpt lat="45.528265" lon="10.48935"><ele>245.4</ele><time>2026-03-29T07:01:32.419Z</time></trkpt><trkpt lat="45.5282833" lon="10.4895067"><ele>246.59999999999997</ele><time>2026-03-29T07:01:34.419Z</time></trkpt><trkpt lat="45.5282967" lon="10.4896483"><ele>247.79999999999998</ele><time>2026-03-29T07:01:36.419Z</time></trkpt><trkpt lat="45.528375" lon="10.4897217"><ele>249.0</ele><time>2026-03-29T07:01:38.42Z</time></trkpt><trkpt lat="45.5284483" lon="10.4897517"><ele>250.0</ele><time>2026-03-29T07:01:39.419Z</time></trkpt><trkpt lat="45.5285517" lon="10.4897967"><ele>251.0</ele><time>2026-03-29T07:01:40.419Z</time></trkpt><trkpt lat="45.5286683" lon="10.4898567"><ele>252.0</ele><time>2026-03-29T07:01:41.419Z</time></trkpt><trkpt lat="45.528805" lon="10.4899233"><ele>253.0</ele><time>2026-03-29T07:01:42.419Z</time></trkpt><trkpt lat="45.5289267" lon="10.4900017"><ele>253.60000000000002</ele><time>2026-03-29T07:01:43.419Z</time></trkpt><trkpt lat="45.5290383" lon="10.49005"><ele>254.20000000000002</ele><time>2026-03-29T07:01:44.419Z</time></trkpt><trkpt lat="45.5291283" lon="10.4900917"><ele>254.8</ele><time>2026-03-29T07:01:45.42Z</time></trkpt><trkpt lat="45.5291917" lon="10.4901267"><ele>255.4</ele><time>2026-03-29T07:01:46.419Z</time></trkpt><trkpt lat="45.5292867" lon="10.49013"><ele>256.0</ele><time>2026-03-29T07:01:48.419Z</time></trkpt><trkpt lat="45.529375" lon="10.49005"><ele>256.0</ele><time>2026-03-29T07:01:50.419Z</time></trkpt><trkpt lat="45.5294967" lon="10.49004"><ele>256.0</ele><time>2026-03-29T07:01:52.419Z</time></trkpt><trkpt lat="45.5295733" lon="10.4900633"><ele>256.0</ele><time>2026-03-29T07:01:53.419Z</time></trkpt><trkpt lat="45.5296633" lon="10.4900967"><ele>256.0</ele><time>2026-03-29T07:01:54.419Z</time></trkpt><trkpt lat="45.5297617" lon="10.4901633"><ele>256.0</ele><time>2026-03-29T07:01:55.419Z</time></trkpt><trkpt lat="45.5298533" lon="10.4902467"><ele>255.99999999999997</ele><time>2026-03-29T07:01:56.419Z</time></trkpt><trkpt lat="45.5299383" lon="10.4903233"><ele>256.0</ele><time>2026-03-29T07:01:57.419Z</time></trkpt><trkpt lat="45.5300167" lon="10.4904033"><ele>256.0</ele><time>2026-03-29T07:01:58.419Z</time></trkpt><trkpt lat="45.530075" lon="10.4904767"><ele>256.0</ele><time>2026-03-29T07:01:59.419Z</time></trkpt><trkpt lat="45.5301317" lon="10.490535"><ele>255.99999999999997</ele><time>2026-03-29T07:02:00.419Z</time></trkpt><trkpt lat="45.5301867" lon="10.4905933"><ele>256.0</ele><time>2026-03-29T07:02:01.419Z</time></trkpt><trkpt lat="45.5302417" lon="10.4906567"><ele>255.99999999999997</ele><time>2026-03-29T07:02:02.419Z</time></trkpt><trkpt lat="45.5302983" lon="10.4907333"><ele>256.0</ele><time>2026-03-29T07:02:03.419Z</time></trkpt><trkpt lat="45.5303533" lon="10.4908267"><ele>256.0</ele><time>2026-03-29T07:02:04.419Z</time></trkpt><trkpt lat="45.5303983" lon="10.4909333"><ele>256.0</ele><time>2026-03-29T07:02:05.419Z</time></trkpt><trkpt lat="45.5304483" lon="10.491045"><ele>255.99999999999997</ele><time>2026-03-29T07:02:06.419Z</time></trkpt><trkpt lat="45.5305017" lon="10.4911483"><ele>256.0</ele><time>2026-03-29T07:02:07.42Z</time></trkpt><trkpt lat="45.5305633" lon="10.4912433"><ele>255.8</ele><time>2026-03-29T07:02:08.42Z</time></trkpt><trkpt lat="45.5306267" lon="10.491345"><ele>255.60000000000002</ele><time>2026-03-29T07:02:09.419Z</time></trkpt><trkpt lat="45.5306933" lon="10.4914467"><ele>255.4</ele><time>2026-03-29T07:02:10.419Z</time></trkpt><trkpt lat="45.53076" lon="10.4915667"><ele>255.2</ele><time>2026-03-29T07:02:11.419Z</time></trkpt><trkpt lat="45.53082" lon="10.4916817"><ele>255.0</ele><time>2026-03-29T07:02:12.419Z</time></trkpt><trkpt lat="45.5308717" lon="10.4918"><ele>255.0</ele><time>2026-03-29T07:02:13.419Z</time></trkpt><trkpt lat="45.53093" lon="10.4919083"><ele>255.0</ele><time>2026-03-29T07:02:14.419Z</time></trkpt><trkpt lat="45.5309717" lon="10.492015"><ele>255.0</ele><time>2026-03-29T07:02:15.419Z</time></trkpt><trkpt lat="45.530995" lon="10.4921183"><ele>255.0</ele><time>2026-03-29T07:02:16.419Z</time></trkpt><trkpt lat="45.53101" lon="10.4922267"><ele>255.0</ele><time>2026-03-29T07:02:17.419Z</time></trkpt><trkpt lat="45.5310233" lon="10.4923483"><ele>255.0</ele><time>2026-03-29T07:02:18.419Z</time></trkpt><trkpt lat="45.5310383" lon="10.492475"><ele>255.8</ele><time>2026-03-29T07:02:19.419Z</time></trkpt><trkpt lat="45.5310667" lon="10.49259"><ele>256.6</ele><time>2026-03-29T07:02:20.419Z</time></trkpt><trkpt lat="45.53112" lon="10.4926733"><ele>257.4</ele><time>2026-03-29T07:02:21.419Z</time></trkpt><trkpt lat="45.5312" lon="10.4927517"><ele>258.2</ele><time>2026-03-29T07:02:22.419Z</time></trkpt><trkpt lat="45.531295" lon="10.492845"><ele>259.0</ele><time>2026-03-29T07:02:23.419Z</time></trkpt><trkpt lat="45.5313967" lon="10.4929217"><ele>255.5</ele><time>2026-03-29T07:02:24.419Z</time></trkpt><trkpt lat="45.53152" lon="10.4930267"><ele>252.0</ele><time>2026-03-29T07:02:25.42Z</time></trkpt><trkpt lat="45.5316383" lon="10.4931083"><ele>248.5</ele><time>2026-03-29T07:02:26.42Z</time></trkpt><trkpt lat="45.531755" lon="10.493195"><ele>245.0</ele><time>2026-03-29T07:02:27.419Z</time></trkpt><trkpt lat="45.5318733" lon="10.4932933"><ele>245.0</ele><time>2026-03-29T07:02:28.419Z</time></trkpt><trkpt lat="45.53198" lon="10.4933633"><ele>245.0</ele><time>2026-03-29T07:02:29.419Z</time></trkpt><trkpt lat="45.532095" lon="10.4934317"><ele>245.0</ele><time>2026-03-29T07:02:30.419Z</time></trkpt><trkpt lat="45.5321967" lon="10.4935"><ele>245.0</ele><time>2026-03-29T07:02:31.42Z</time></trkpt><trkpt lat="45.5322767" lon="10.49357"><ele>245.0</ele><time>2026-03-29T07:02:32.42Z</time></trkpt><trkpt lat="45.532345" lon="10.493655"><ele>245.0</ele><time>2026-03-29T07:02:33.419Z</time></trkpt><trkpt lat="45.5324083" lon="10.4937517"><ele>245.0</ele><time>2026-03-29T07:02:34.419Z</time></trkpt><trkpt lat="45.5324817" lon="10.49384"><ele>245.0</ele><time>2026-03-29T07:02:35.419Z</time></trkpt><trkpt lat="45.532565" lon="10.493915"><ele>245.0</ele><time>2026-03-29T07:02:36.419Z</time></trkpt><trkpt lat="45.5326633" lon="10.493985"><ele>245.0</ele><time>2026-03-29T07:02:37.419Z</time></trkpt><trkpt lat="45.5327533" lon="10.4940417"><ele>245.00000000000003</ele><time>2026-03-29T07:02:38.42Z</time></trkpt><trkpt lat="45.5328367" lon="10.4940717"><ele>245.0</ele><time>2026-03-29T07:02:39.419Z</time></trkpt><trkpt lat="45.5329233" lon="10.4940933"><ele>245.0</ele><time>2026-03-29T07:02:40.419Z</time></trkpt><trkpt lat="45.53301" lon="10.4941"><ele>245.0</ele><time>2026-03-29T07:02:41.419Z</time></trkpt><trkpt lat="45.5330883" lon="10.494105"><ele>245.00000000000003</ele><time>2026-03-29T07:02:42.419Z</time></trkpt><trkpt lat="45.5331617" lon="10.494125"><ele>245.0</ele><time>2026-03-29T07:02:43.419Z</time></trkpt><trkpt lat="45.5332333" lon="10.4942033"><ele>244.75</ele><time>2026-03-29T07:02:44.419Z</time></trkpt><trkpt lat="45.5333117" lon="10.4943183"><ele>244.5</ele><time>2026-03-29T07:02:45.419Z</time></trkpt><trkpt lat="45.5334033" lon="10.4944083"><ele>244.25</ele><time>2026-03-29T07:02:46.42Z</time></trkpt><trkpt lat="45.5335133" lon="10.4944817"><ele>244.0</ele><time>2026-03-29T07:02:47.419Z</time></trkpt><trkpt lat="45.533635" lon="10.4945367"><ele>243.25</ele><time>2026-03-29T07:02:48.419Z</time></trkpt><trkpt lat="45.53376" lon="10.4945767"><ele>242.5</ele><time>2026-03-29T07:02:49.419Z</time></trkpt><trkpt lat="45.5338883" lon="10.494595"><ele>241.75</ele><time>2026-03-29T07:02:50.419Z</time></trkpt><trkpt lat="45.5340267" lon="10.49462"><ele>241.0</ele><time>2026-03-29T07:02:51.42Z</time></trkpt><trkpt lat="45.5341383" lon="10.4946567"><ele>240.0</ele><time>2026-03-29T07:02:52.419Z</time></trkpt><trkpt lat="45.5342567" lon="10.49469"><ele>239.00000000000003</ele><time>2026-03-29T07:02:53.419Z</time></trkpt><trkpt lat="45.5343667" lon="10.494735"><ele>238.00000000000003</ele><time>2026-03-29T07:02:54.419Z</time></trkpt><trkpt lat="45.5344617" lon="10.4947667"><ele>237.0</ele><time>2026-03-29T07:02:55.419Z</time></trkpt><trkpt lat="45.5345533" lon="10.4948067"><ele>236.0</ele><time>2026-03-29T07:02:56.419Z</time></trkpt><trkpt lat="45.5346567" lon="10.4948533"><ele>235.75</ele><time>2026-03-29T07:02:57.419Z</time></trkpt><trkpt lat="45.5347683" lon="10.4949167"><ele>235.5</ele><time>2026-03-29T07:02:58.419Z</time></trkpt><trkpt lat="45.534885" lon="10.4950017"><ele>235.25</ele><time>2026-03-29T07:02:59.419Z</time></trkpt><trkpt lat="45.53501" lon="10.4950817"><ele>235.0</ele><time>2026-03-29T07:03:00.42Z</time></trkpt><trkpt lat="45.5351383" lon="10.4951233"><ele>235.0</ele><time>2026-03-29T07:03:01.42Z</time></trkpt><trkpt lat="45.5352733" lon="10.4951367"><ele>235.0</ele><time>2026-03-29T07:03:02.419Z</time></trkpt><trkpt lat="45.535395" lon="10.4951533"><ele>235.0</ele><time>2026-03-29T07:03:03.419Z</time></trkpt><trkpt lat="45.5355183" lon="10.4951633"><ele>235.0</ele><time>2026-03-29T07:03:04.419Z</time></trkpt><trkpt lat="45.53562" lon="10.4951767"><ele>234.75</ele><time>2026-03-29T07:03:05.419Z</time></trkpt><trkpt lat="45.5357133" lon="10.4952133"><ele>234.5</ele><time>2026-03-29T07:03:06.419Z</time></trkpt><trkpt lat="45.5358183" lon="10.4952833"><ele>234.25</ele><time>2026-03-29T07:03:07.419Z</time></trkpt><trkpt lat="45.53592" lon="10.4953817"><ele>234.0</ele><time>2026-03-29T07:03:08.419Z</time></trkpt><trkpt lat="45.53604" lon="10.4954817"><ele>235.0</ele><time>2026-03-29T07:03:09.42Z</time></trkpt><trkpt lat="45.5361533" lon="10.495575"><ele>236.0</ele><time>2026-03-29T07:03:10.419Z</time></trkpt><trkpt lat="45.53625" lon="10.495665"><ele>237.0</ele><time>2026-03-29T07:03:11.419Z</time></trkpt><trkpt lat="45.5363417" lon="10.4957567"><ele>238.0</ele><time>2026-03-29T07:03:12.419Z</time></trkpt><trkpt lat="45.53641" lon="10.4958633"><ele>238.0</ele><time>2026-03-29T07:03:13.419Z</time></trkpt><trkpt lat="45.5364667" lon="10.4959883"><ele>238.0</ele><time>2026-03-29T07:03:14.419Z</time></trkpt><trkpt lat="45.5365267" lon="10.4961083"><ele>238.0</ele><time>2026-03-29T07:03:15.419Z</time></trkpt><trkpt lat="45.536595" lon="10.4961983"><ele>238.0</ele><time>2026-03-29T07:03:16.419Z</time></trkpt><trkpt lat="45.53667" lon="10.496265"><ele>238.0</ele><time>2026-03-29T07:03:17.419Z</time></trkpt><trkpt lat="45.5367583" lon="10.49631"><ele>237.4</ele><time>2026-03-29T07:03:18.419Z</time></trkpt><trkpt lat="45.5368517" lon="10.49632"><ele>236.8</ele><time>2026-03-29T07:03:19.419Z</time></trkpt><trkpt lat="45.536935" lon="10.4963433"><ele>236.2</ele><time>2026-03-29T07:03:20.419Z</time></trkpt><trkpt lat="45.53701" lon="10.4963733"><ele>235.6</ele><time>2026-03-29T07:03:21.419Z</time></trkpt><trkpt lat="45.5371017" lon="10.4964233"><ele>235.0</ele><time>2026-03-29T07:03:22.42Z</time></trkpt><trkpt lat="45.537215" lon="10.4964583"><ele>235.0</ele><time>2026-03-29T07:03:23.419Z</time></trkpt><trkpt lat="45.53736" lon="10.4964633"><ele>235.0</ele><time>2026-03-29T07:03:24.419Z</time></trkpt><trkpt lat="45.537505" lon="10.496425"><ele>235.0</ele><time>2026-03-29T07:03:25.419Z</time></trkpt><trkpt lat="45.5376533" lon="10.496395"><ele>235.0</ele><time>2026-03-29T07:03:26.42Z</time></trkpt><trkpt lat="45.5378017" lon="10.496345"><ele>234.75</ele><time>2026-03-29T07:03:27.419Z</time></trkpt><trkpt lat="45.53795" lon="10.4962967"><ele>234.5</ele><time>2026-03-29T07:03:28.42Z</time></trkpt><trkpt lat="45.5380883" lon="10.4962533"><ele>234.25</ele><time>2026-03-29T07:03:29.419Z</time></trkpt><trkpt lat="45.53823" lon="10.4962167"><ele>234.0</ele><time>2026-03-29T07:03:30.419Z</time></trkpt><trkpt lat="45.5383717" lon="10.496165"><ele>234.75</ele><time>2026-03-29T07:03:31.419Z</time></trkpt><trkpt lat="45.5385117" lon="10.4961317"><ele>235.5</ele><time>2026-03-29T07:03:32.419Z</time></trkpt><trkpt lat="45.53865" lon="10.4961133"><ele>236.25</ele><time>2026-03-29T07:03:33.419Z</time></trkpt><trkpt lat="45.53879" lon="10.4961033"><ele>237.0</ele><time>2026-03-29T07:03:34.419Z</time></trkpt><trkpt lat="45.5389367" lon="10.49608"><ele>237.0</ele><time>2026-03-29T07:03:35.42Z</time></trkpt><trkpt lat="45.5390917" lon="10.4960583"><ele>237.0</ele><time>2026-03-29T07:03:36.419Z</time></trkpt><trkpt lat="45.5392417" lon="10.49603"><ele>237.0</ele><time>2026-03-29T07:03:37.419Z</time></trkpt><trkpt lat="45.5393917" lon="10.495995"><ele>237.0</ele><time>2026-03-29T07:03:38.419Z</time></trkpt><trkpt lat="45.5395383" lon="10.49594"><ele>237.0</ele><time>2026-03-29T07:03:39.419Z</time></trkpt><trkpt lat="45.53967" lon="10.49587"><ele>237.0</ele><time>2026-03-29T07:03:40.42Z</time></trkpt><trkpt lat="45.539815" lon="10.495805"><ele>237.0</ele><time>2026-03-29T07:03:41.42Z</time></trkpt><trkpt lat="45.5399633" lon="10.4957583"><ele>238.33333333333331</ele><time>2026-03-29T07:03:42.419Z</time></trkpt><trkpt lat="45.54012" lon="10.4957067"><ele>239.66666666666666</ele><time>2026-03-29T07:03:43.419Z</time></trkpt><trkpt lat="45.540275" lon="10.495675"><ele>241.0</ele><time>2026-03-29T07:03:44.419Z</time></trkpt><trkpt lat="45.5404417" lon="10.4956983"><ele>241.33333333333331</ele><time>2026-03-29T07:03:45.419Z</time></trkpt><trkpt lat="45.540615" lon="10.4957167"><ele>241.66666666666669</ele><time>2026-03-29T07:03:46.419Z</time></trkpt><trkpt lat="45.54079" lon="10.4957333"><ele>242.0</ele><time>2026-03-29T07:03:47.419Z</time></trkpt><trkpt lat="45.5409667" lon="10.49575"><ele>242.0</ele><time>2026-03-29T07:03:48.42Z</time></trkpt><trkpt lat="45.5411217" lon="10.49578"><ele>242.0</ele><time>2026-03-29T07:03:49.419Z</time></trkpt><trkpt lat="45.5412633" lon="10.4958133"><ele>242.0</ele><time>2026-03-29T07:03:50.419Z</time></trkpt><trkpt lat="45.541385" lon="10.4958483"><ele>242.0</ele><time>2026-03-29T07:03:51.419Z</time></trkpt><trkpt lat="45.5415017" lon="10.4958733"><ele>242.0</ele><time>2026-03-29T07:03:52.419Z</time></trkpt><trkpt lat="45.5416117" lon="10.4959133"><ele>242.0</ele><time>2026-03-29T07:03:53.42Z</time></trkpt><trkpt lat="45.5416933" lon="10.4959683"><ele>242.0</ele><time>2026-03-29T07:03:54.419Z</time></trkpt><trkpt lat="45.5417433" lon="10.4960667"><ele>242.0</ele><time>2026-03-29T07:03:55.419Z</time></trkpt><trkpt lat="45.5417833" lon="10.496195"><ele>242.0</ele><time>2026-03-29T07:03:56.419Z</time></trkpt><trkpt lat="45.54184" lon="10.49633"><ele>241.25</ele><time>2026-03-29T07:03:57.419Z</time></trkpt><trkpt lat="45.5419333" lon="10.4964283"><ele>240.5</ele><time>2026-03-29T07:03:58.419Z</time></trkpt><trkpt lat="45.5420583" lon="10.4964867"><ele>239.75</ele><time>2026-03-29T07:03:59.419Z</time></trkpt><trkpt lat="45.5421917" lon="10.4965267"><ele>239.0</ele><time>2026-03-29T07:04:00.42Z</time></trkpt><trkpt lat="45.5423483" lon="10.49655"><ele>239.0</ele><time>2026-03-29T07:04:01.419Z</time></trkpt><trkpt lat="45.542505" lon="10.496575"><ele>239.0</ele><time>2026-03-29T07:04:02.419Z</time></trkpt><trkpt lat="45.5426733" lon="10.496605"><ele>239.0</ele><time>2026-03-29T07:04:03.419Z</time></trkpt><trkpt lat="45.5428417" lon="10.4966283"><ele>240.66666666666669</ele><time>2026-03-29T07:04:04.419Z</time></trkpt><trkpt lat="45.5430117" lon="10.49663"><ele>242.33333333333331</ele><time>2026-03-29T07:04:05.419Z</time></trkpt><trkpt lat="45.5431867" lon="10.4966317"><ele>244.0</ele><time>2026-03-29T07:04:06.419Z</time></trkpt><trkpt lat="45.54335" lon="10.49663"><ele>244.0</ele><time>2026-03-29T07:04:07.419Z</time></trkpt><trkpt lat="45.5435317" lon="10.49662"><ele>244.0</ele><time>2026-03-29T07:04:08.419Z</time></trkpt><trkpt lat="45.5437217" lon="10.4966283"><ele>244.0</ele><time>2026-03-29T07:04:09.419Z</time></trkpt><trkpt lat="45.5439033" lon="10.4966617"><ele>243.66666666666666</ele><time>2026-03-29T07:04:10.419Z</time></trkpt><trkpt lat="45.5440983" lon="10.4967033"><ele>243.33333333333331</ele><time>2026-03-29T07:04:11.419Z</time></trkpt><trkpt lat="45.5442917" lon="10.49677"><ele>243.0</ele><time>2026-03-29T07:04:12.42Z</time></trkpt><trkpt lat="45.544475" lon="10.4968417"><ele>246.0</ele><time>2026-03-29T07:04:13.419Z</time></trkpt><trkpt lat="45.544655" lon="10.4969167"><ele>249.0</ele><time>2026-03-29T07:04:14.419Z</time></trkpt><trkpt lat="45.5448217" lon="10.4969767"><ele>252.0</ele><time>2026-03-29T07:04:15.419Z</time></trkpt><trkpt lat="45.5449667" lon="10.497035"><ele>252.0</ele><time>2026-03-29T07:04:16.419Z</time></trkpt><trkpt lat="45.54511" lon="10.4970767"><ele>252.0</ele><time>2026-03-29T07:04:17.419Z</time></trkpt><trkpt lat="45.545245" lon="10.4971383"><ele>252.0</ele><time>2026-03-29T07:04:18.419Z</time></trkpt><trkpt lat="45.545375" lon="10.4972233"><ele>252.0</ele><time>2026-03-29T07:04:19.419Z</time></trkpt><trkpt lat="45.5455" lon="10.497325"><ele>252.75</ele><time>2026-03-29T07:04:20.419Z</time></trkpt><trkpt lat="45.545615" lon="10.4974717"><ele>253.5</ele><time>2026-03-29T07:04:21.42Z</time></trkpt><trkpt lat="45.5457167" lon="10.4976017"><ele>254.25</ele><time>2026-03-29T07:04:22.419Z</time></trkpt><trkpt lat="45.5457967" lon="10.497725"><ele>255.0</ele><time>2026-03-29T07:04:23.42Z</time></trkpt><trkpt lat="45.5458683" lon="10.4978233"><ele>253.2</ele><time>2026-03-29T07:04:24.419Z</time></trkpt><trkpt lat="45.5459367" lon="10.497935"><ele>251.4</ele><time>2026-03-29T07:04:25.419Z</time></trkpt><trkpt lat="45.5460033" lon="10.49804"><ele>249.60000000000002</ele><time>2026-03-29T07:04:26.419Z</time></trkpt><trkpt lat="45.546055" lon="10.4981217"><ele>247.8</ele><time>2026-03-29T07:04:27.419Z</time></trkpt><trkpt lat="45.5461217" lon="10.498215"><ele>246.0</ele><time>2026-03-29T07:04:29.419Z</time></trkpt><trkpt lat="45.5461467" lon="10.498095"><ele>246.0</ele><time>2026-03-29T07:04:34.419Z</time></trkpt><trkpt lat="45.5461133" lon="10.4979917"><ele>246.00000000000003</ele><time>2026-03-29T07:04:35.419Z</time></trkpt><trkpt lat="45.5460683" lon="10.4978633"><ele>246.00000000000003</ele><time>2026-03-29T07:04:36.42Z</time></trkpt><trkpt lat="45.5460117" lon="10.4977117"><ele>246.0</ele><time>2026-03-29T07:04:37.419Z</time></trkpt><trkpt lat="45.545955" lon="10.497535"><ele>246.0</ele><time>2026-03-29T07:04:38.419Z</time></trkpt><trkpt lat="45.5459" lon="10.4973567"><ele>248.25</ele><time>2026-03-29T07:04:39.419Z</time></trkpt><trkpt lat="45.5458267" lon="10.4971733"><ele>250.5</ele><time>2026-03-29T07:04:40.419Z</time></trkpt><trkpt lat="45.5457667" lon="10.497"><ele>252.75</ele><time>2026-03-29T07:04:41.42Z</time></trkpt><trkpt lat="45.5457133" lon="10.4968533"><ele>255.0</ele><time>2026-03-29T07:04:42.419Z</time></trkpt><trkpt lat="45.5456683" lon="10.496735"><ele>255.33333333333334</ele><time>2026-03-29T07:04:43.419Z</time></trkpt><trkpt lat="45.5456433" lon="10.4966317"><ele>255.66666666666669</ele><time>2026-03-29T07:04:44.42Z</time></trkpt><trkpt lat="45.5456267" lon="10.496535"><ele>256.0</ele><time>2026-03-29T07:04:45.419Z</time></trkpt><trkpt lat="45.5456333" lon="10.4964233"><ele>256.33333333333337</ele><time>2026-03-29T07:04:47.419Z</time></trkpt><trkpt lat="45.545725" lon="10.4963983"><ele>256.6666666666667</ele><time>2026-03-29T07:04:50.42Z</time></trkpt><trkpt lat="45.545795" lon="10.49641"><ele>257.0</ele><time>2026-03-29T07:04:51.419Z</time></trkpt><trkpt lat="45.5458817" lon="10.49642"><ele>257.0</ele><time>2026-03-29T07:04:52.42Z</time></trkpt><trkpt lat="45.5459817" lon="10.4964267"><ele>257.0</ele><time>2026-03-29T07:04:53.419Z</time></trkpt><trkpt lat="45.5460867" lon="10.4964317"><ele>257.0</ele><time>2026-03-29T07:04:54.419Z</time></trkpt><trkpt lat="45.5461933" lon="10.496435"><ele>257.0</ele><time>2026-03-29T07:04:55.419Z</time></trkpt><trkpt lat="45.546295" lon="10.49643"><ele>257.0</ele><time>2026-03-29T07:04:56.419Z</time></trkpt><trkpt lat="45.546385" lon="10.49642"><ele>256.83333333333337</ele><time>2026-03-29T07:04:57.419Z</time></trkpt><trkpt lat="45.54646" lon="10.4963967"><ele>256.6666666666667</ele><time>2026-03-29T07:04:58.42Z</time></trkpt><trkpt lat="45.54653" lon="10.4963633"><ele>256.5</ele><time>2026-03-29T07:04:59.419Z</time></trkpt><trkpt lat="45.5465933" lon="10.4963117"><ele>256.3333333333333</ele><time>2026-03-29T07:05:00.419Z</time></trkpt><trkpt lat="45.5466633" lon="10.49624"><ele>256.16666666666663</ele><time>2026-03-29T07:05:01.419Z</time></trkpt><trkpt lat="45.5467333" lon="10.496135"><ele>256.0</ele><time>2026-03-29T07:05:02.419Z</time></trkpt><trkpt lat="45.5467983" lon="10.495985"><ele>256.0</ele><time>2026-03-29T07:05:03.419Z</time></trkpt><trkpt lat="45.5468483" lon="10.4958233"><ele>256.0</ele><time>2026-03-29T07:05:04.419Z</time></trkpt><trkpt lat="45.54688" lon="10.495675"><ele>256.0</ele><time>2026-03-29T07:05:05.419Z</time></trkpt><trkpt lat="45.5468917" lon="10.4955367"><ele>256.0</ele><time>2026-03-29T07:05:06.419Z</time></trkpt><trkpt lat="45.546895" lon="10.495425"><ele>256.0</ele><time>2026-03-29T07:05:07.42Z</time></trkpt><trkpt lat="45.5468817" lon="10.4953317"><ele>255.60000000000002</ele><time>2026-03-29T07:05:08.42Z</time></trkpt><trkpt lat="45.54684" lon="10.4952483"><ele>255.20000000000002</ele><time>2026-03-29T07:05:09.419Z</time></trkpt><trkpt lat="45.546775" lon="10.495155"><ele>254.79999999999998</ele><time>2026-03-29T07:05:10.419Z</time></trkpt><trkpt lat="45.5466967" lon="10.49504"><ele>254.39999999999998</ele><time>2026-03-29T07:05:11.419Z</time></trkpt><trkpt lat="45.5466217" lon="10.4949117"><ele>254.0</ele><time>2026-03-29T07:05:12.419Z</time></trkpt><trkpt lat="45.5465667" lon="10.494775"><ele>254.0</ele><time>2026-03-29T07:05:13.419Z</time></trkpt><trkpt lat="45.546535" lon="10.494645"><ele>253.99999999999997</ele><time>2026-03-29T07:05:14.42Z</time></trkpt><trkpt lat="45.5465183" lon="10.494525"><ele>253.99999999999997</ele><time>2026-03-29T07:05:15.419Z</time></trkpt><trkpt lat="45.54653" lon="10.4943933"><ele>254.0</ele><time>2026-03-29T07:05:16.419Z</time></trkpt><trkpt lat="45.5465683" lon="10.49425"><ele>254.0</ele><time>2026-03-29T07:05:17.419Z</time></trkpt><trkpt lat="45.546615" lon="10.4940917"><ele>253.75</ele><time>2026-03-29T07:05:18.419Z</time></trkpt><trkpt lat="45.5466683" lon="10.4939183"><ele>253.5</ele><time>2026-03-29T07:05:19.419Z</time></trkpt><trkpt lat="45.5467333" lon="10.493725"><ele>253.25</ele><time>2026-03-29T07:05:20.419Z</time></trkpt><trkpt lat="45.5467983" lon="10.493525"><ele>253.0</ele><time>2026-03-29T07:05:21.42Z</time></trkpt><trkpt lat="45.5468717" lon="10.4933567"><ele>253.0</ele><time>2026-03-29T07:05:22.419Z</time></trkpt><trkpt lat="45.5469567" lon="10.4931933"><ele>253.0</ele><time>2026-03-29T07:05:23.419Z</time></trkpt><trkpt lat="45.547055" lon="10.4930433"><ele>253.0</ele><time>2026-03-29T07:05:24.42Z</time></trkpt><trkpt lat="45.54715" lon="10.4928917"><ele>253.0</ele><time>2026-03-29T07:05:25.42Z</time></trkpt><trkpt lat="45.54723" lon="10.49275"><ele>252.75</ele><time>2026-03-29T07:05:26.42Z</time></trkpt><trkpt lat="45.54729" lon="10.4926017"><ele>252.5</ele><time>2026-03-29T07:05:27.419Z</time></trkpt><trkpt lat="45.5473433" lon="10.4924433"><ele>252.25</ele><time>2026-03-29T07:05:28.419Z</time></trkpt><trkpt lat="45.5473883" lon="10.4922983"><ele>252.0</ele><time>2026-03-29T07:05:29.419Z</time></trkpt><trkpt lat="45.5474217" lon="10.49216"><ele>251.8</ele><time>2026-03-29T07:05:30.419Z</time></trkpt><trkpt lat="45.5474517" lon="10.4920267"><ele>251.6</ele><time>2026-03-29T07:05:31.419Z</time></trkpt><trkpt lat="45.5474683" lon="10.4918817"><ele>251.40000000000003</ele><time>2026-03-29T07:05:32.419Z</time></trkpt><trkpt lat="45.5475033" lon="10.4917283"><ele>251.20000000000002</ele><time>2026-03-29T07:05:33.419Z</time></trkpt><trkpt lat="45.5475383" lon="10.4915533"><ele>251.0</ele><time>2026-03-29T07:05:34.419Z</time></trkpt><trkpt lat="45.5475767" lon="10.491395"><ele>251.0</ele><time>2026-03-29T07:05:35.419Z</time></trkpt><trkpt lat="45.547635" lon="10.4912633"><ele>251.0</ele><time>2026-03-29T07:05:36.419Z</time></trkpt><trkpt lat="45.5477117" lon="10.4911333"><ele>251.0</ele><time>2026-03-29T07:05:37.419Z</time></trkpt><trkpt lat="45.5478" lon="10.4909983"><ele>251.0</ele><time>2026-03-29T07:05:38.419Z</time></trkpt><trkpt lat="45.547885" lon="10.4908683"><ele>250.75</ele><time>2026-03-29T07:05:39.419Z</time></trkpt><trkpt lat="45.54796" lon="10.4907183"><ele>250.5</ele><time>2026-03-29T07:05:40.419Z</time></trkpt><trkpt lat="45.5480317" lon="10.4905717"><ele>250.25</ele><time>2026-03-29T07:05:41.419Z</time></trkpt><trkpt lat="45.5480767" lon="10.4904117"><ele>250.0</ele><time>2026-03-29T07:05:42.419Z</time></trkpt><trkpt lat="45.5481217" lon="10.4902417"><ele>250.0</ele><time>2026-03-29T07:05:43.42Z</time></trkpt><trkpt lat="45.548165" lon="10.4900833"><ele>250.0</ele><time>2026-03-29T07:05:44.419Z</time></trkpt><trkpt lat="45.5482033" lon="10.4899433"><ele>250.0</ele><time>2026-03-29T07:05:45.419Z</time></trkpt><trkpt lat="45.5482467" lon="10.4898217"><ele>250.0</ele><time>2026-03-29T07:05:46.419Z</time></trkpt><trkpt lat="45.5482983" lon="10.489725"><ele>250.0</ele><time>2026-03-29T07:05:47.42Z</time></trkpt><trkpt lat="45.5483567" lon="10.4896267"><ele>250.0</ele><time>2026-03-29T07:05:48.419Z</time></trkpt><trkpt lat="45.54843" lon="10.4895383"><ele>250.0</ele><time>2026-03-29T07:05:49.419Z</time></trkpt><trkpt lat="45.5485117" lon="10.4894517"><ele>250.0</ele><time>2026-03-29T07:05:50.419Z</time></trkpt><trkpt lat="45.548605" lon="10.4893683"><ele>250.0</ele><time>2026-03-29T07:05:51.419Z</time></trkpt><trkpt lat="45.5486917" lon="10.489275"><ele>250.0</ele><time>2026-03-29T07:05:52.419Z</time></trkpt><trkpt lat="45.5487683" lon="10.489175"><ele>250.0</ele><time>2026-03-29T07:05:53.419Z</time></trkpt><trkpt lat="45.5488217" lon="10.4890583"><ele>250.0</ele><time>2026-03-29T07:05:54.42Z</time></trkpt><trkpt lat="45.5488567" lon="10.4889083"><ele>250.0</ele><time>2026-03-29T07:05:55.419Z</time></trkpt><trkpt lat="45.5489033" lon="10.4887483"><ele>250.0</ele><time>2026-03-29T07:05:56.419Z</time></trkpt><trkpt lat="45.5489467" lon="10.4885817"><ele>249.75</ele><time>2026-03-29T07:05:57.419Z</time></trkpt><trkpt lat="45.5489883" lon="10.4884217"><ele>249.5</ele><time>2026-03-29T07:05:58.419Z</time></trkpt><trkpt lat="45.54903" lon="10.4882517"><ele>249.25</ele><time>2026-03-29T07:05:59.419Z</time></trkpt><trkpt lat="45.5490583" lon="10.4880783"><ele>249.0</ele><time>2026-03-29T07:06:00.42Z</time></trkpt><trkpt lat="45.5490767" lon="10.4879017"><ele>249.0</ele><time>2026-03-29T07:06:01.419Z</time></trkpt><trkpt lat="45.5490883" lon="10.487725"><ele>249.0</ele><time>2026-03-29T07:06:02.419Z</time></trkpt><trkpt lat="45.5491067" lon="10.48756"><ele>249.0</ele><time>2026-03-29T07:06:03.419Z</time></trkpt><trkpt lat="45.549125" lon="10.487405"><ele>249.0</ele><time>2026-03-29T07:06:04.419Z</time></trkpt><trkpt lat="45.5491417" lon="10.4872533"><ele>249.0</ele><time>2026-03-29T07:06:05.42Z</time></trkpt><trkpt lat="45.5491633" lon="10.4871117"><ele>248.99999999999997</ele><time>2026-03-29T07:06:06.419Z</time></trkpt><trkpt lat="45.5491917" lon="10.4869717"><ele>248.99999999999997</ele><time>2026-03-29T07:06:07.419Z</time></trkpt><trkpt lat="45.549235" lon="10.4868217"><ele>249.0</ele><time>2026-03-29T07:06:08.42Z</time></trkpt><trkpt lat="45.549285" lon="10.4866833"><ele>249.0</ele><time>2026-03-29T07:06:09.419Z</time></trkpt><trkpt lat="45.54935" lon="10.4865667"><ele>249.0</ele><time>2026-03-29T07:06:10.419Z</time></trkpt><trkpt lat="45.5494333" lon="10.486465"><ele>248.99999999999997</ele><time>2026-03-29T07:06:11.419Z</time></trkpt><trkpt lat="45.5495183" lon="10.4863667"><ele>248.99999999999997</ele><time>2026-03-29T07:06:12.419Z</time></trkpt><trkpt lat="45.5495983" lon="10.4862917"><ele>249.0</ele><time>2026-03-29T07:06:13.419Z</time></trkpt><trkpt lat="45.5496467" lon="10.4862183"><ele>249.0</ele><time>2026-03-29T07:06:14.419Z</time></trkpt><trkpt lat="45.549625" lon="10.4860367"><ele>249.0</ele><time>2026-03-29T07:06:16.419Z</time></trkpt><trkpt lat="45.5495667" lon="10.4859367"><ele>248.99999999999997</ele><time>2026-03-29T07:06:17.42Z</time></trkpt><trkpt lat="45.5494733" lon="10.485815"><ele>248.99999999999997</ele><time>2026-03-29T07:06:18.419Z</time></trkpt><trkpt lat="45.5493883" lon="10.485695"><ele>249.0</ele><time>2026-03-29T07:06:19.419Z</time></trkpt><trkpt lat="45.5493333" lon="10.485585"><ele>249.0</ele><time>2026-03-29T07:06:20.419Z</time></trkpt><trkpt lat="45.5492983" lon="10.4854967"><ele>249.6</ele><time>2026-03-29T07:06:21.419Z</time></trkpt><trkpt lat="45.5493083" lon="10.4853433"><ele>250.2</ele><time>2026-03-29T07:06:23.42Z</time></trkpt><trkpt lat="45.5493517" lon="10.4852617"><ele>250.79999999999998</ele><time>2026-03-29T07:06:24.419Z</time></trkpt><trkpt lat="45.5494083" lon="10.485165"><ele>251.39999999999998</ele><time>2026-03-29T07:06:25.42Z</time></trkpt><trkpt lat="45.54949" lon="10.4850733"><ele>252.0</ele><time>2026-03-29T07:06:26.419Z</time></trkpt><trkpt lat="45.5495917" lon="10.4849817"><ele>252.0</ele><time>2026-03-29T07:06:27.419Z</time></trkpt><trkpt lat="45.54971" lon="10.4848933"><ele>252.0</ele><time>2026-03-29T07:06:28.419Z</time></trkpt><trkpt lat="45.54983" lon="10.4848017"><ele>252.0</ele><time>2026-03-29T07:06:29.419Z</time></trkpt><trkpt lat="45.549945" lon="10.4846917"><ele>252.0</ele><time>2026-03-29T07:06:30.419Z</time></trkpt><trkpt lat="45.5500483" lon="10.48457"><ele>253.66666666666669</ele><time>2026-03-29T07:06:31.419Z</time></trkpt><trkpt lat="45.5501567" lon="10.4844433"><ele>255.33333333333334</ele><time>2026-03-29T07:06:32.419Z</time></trkpt><trkpt lat="45.5502933" lon="10.4843417"><ele>257.0</ele><time>2026-03-29T07:06:33.419Z</time></trkpt><trkpt lat="45.5504417" lon="10.4842517"><ele>257.0</ele><time>2026-03-29T07:06:34.419Z</time></trkpt><trkpt lat="45.550575" lon="10.4841583"><ele>257.0</ele><time>2026-03-29T07:06:35.419Z</time></trkpt><trkpt lat="45.55067" lon="10.484115"><ele>257.0</ele><time>2026-03-29T07:06:36.419Z</time></trkpt><trkpt lat="45.55077" lon="10.484095"><ele>257.0</ele><time>2026-03-29T07:06:37.419Z</time></trkpt><trkpt lat="45.55087" lon="10.4841267"><ele>257.0</ele><time>2026-03-29T07:06:38.419Z</time></trkpt><trkpt lat="45.5509767" lon="10.4841967"><ele>257.0</ele><time>2026-03-29T07:06:39.419Z</time></trkpt><trkpt lat="45.5510967" lon="10.4842683"><ele>257.0</ele><time>2026-03-29T07:06:40.419Z</time></trkpt><trkpt lat="45.55124" lon="10.4843283"><ele>257.0</ele><time>2026-03-29T07:06:41.419Z</time></trkpt><trkpt lat="45.5513867" lon="10.48438"><ele>259.0</ele><time>2026-03-29T07:06:42.42Z</time></trkpt><trkpt lat="45.55153" lon="10.48442"><ele>261.0</ele><time>2026-03-29T07:06:43.419Z</time></trkpt><trkpt lat="45.5516567" lon="10.4844617"><ele>263.0</ele><time>2026-03-29T07:06:44.419Z</time></trkpt><trkpt lat="45.5517567" lon="10.4845067"><ele>265.0</ele><time>2026-03-29T07:06:45.42Z</time></trkpt><trkpt lat="45.5518367" lon="10.48454"><ele>265.0</ele><time>2026-03-29T07:06:46.419Z</time></trkpt><trkpt lat="45.55191" lon="10.4845883"><ele>265.0</ele><time>2026-03-29T07:06:47.419Z</time></trkpt><trkpt lat="45.55199" lon="10.48464"><ele>265.0</ele><time>2026-03-29T07:06:48.419Z</time></trkpt><trkpt lat="45.552075" lon="10.4846867"><ele>265.0</ele><time>2026-03-29T07:06:49.419Z</time></trkpt><trkpt lat="45.5521617" lon="10.4847333"><ele>265.0</ele><time>2026-03-29T07:06:50.42Z</time></trkpt><trkpt lat="45.552255" lon="10.4847967"><ele>264.4</ele><time>2026-03-29T07:06:51.419Z</time></trkpt><trkpt lat="45.552355" lon="10.4848483"><ele>263.8</ele><time>2026-03-29T07:06:52.419Z</time></trkpt><trkpt lat="45.5524633" lon="10.4848967"><ele>263.2</ele><time>2026-03-29T07:06:53.419Z</time></trkpt><trkpt lat="45.5525583" lon="10.48493"><ele>262.6</ele><time>2026-03-29T07:06:54.419Z</time></trkpt><trkpt lat="45.5526317" lon="10.484955"><ele>262.0</ele><time>2026-03-29T07:06:55.419Z</time></trkpt><trkpt lat="45.552725" lon="10.4849467"><ele>262.0</ele><time>2026-03-29T07:06:57.419Z</time></trkpt><trkpt lat="45.5527783" lon="10.4848817"><ele>262.0</ele><time>2026-03-29T07:06:59.419Z</time></trkpt><trkpt lat="45.552745" lon="10.484785"><ele>262.0</ele><time>2026-03-29T07:07:02.419Z</time></trkpt><trkpt lat="45.5526517" lon="10.4847333"><ele>262.0</ele><time>2026-03-29T07:07:04.419Z</time></trkpt><trkpt lat="45.552585" lon="10.4847017"><ele>262.0</ele><time>2026-03-29T07:07:05.419Z</time></trkpt><trkpt lat="45.5525017" lon="10.4846667"><ele>262.0</ele><time>2026-03-29T07:07:06.42Z</time></trkpt><trkpt lat="45.5524167" lon="10.4846283"><ele>262.6</ele><time>2026-03-29T07:07:07.419Z</time></trkpt><trkpt lat="45.5523317" lon="10.4845833"><ele>263.2</ele><time>2026-03-29T07:07:08.419Z</time></trkpt><trkpt lat="45.5522583" lon="10.4845183"><ele>263.8</ele><time>2026-03-29T07:07:09.419Z</time></trkpt><trkpt lat="45.5521833" lon="10.48446"><ele>264.4</ele><time>2026-03-29T07:07:10.419Z</time></trkpt><trkpt lat="45.5521083" lon="10.48438"><ele>265.0</ele><time>2026-03-29T07:07:11.419Z</time></trkpt><trkpt lat="45.5520183" lon="10.4842717"><ele>265.0</ele><time>2026-03-29T07:07:12.419Z</time></trkpt><trkpt lat="45.5519333" lon="10.4841633"><ele>265.0</ele><time>2026-03-29T07:07:13.419Z</time></trkpt><trkpt lat="45.551855" lon="10.4840633"><ele>265.0</ele><time>2026-03-29T07:07:14.419Z</time></trkpt><trkpt lat="45.55179" lon="10.483975"><ele>265.0</ele><time>2026-03-29T07:07:15.419Z</time></trkpt><trkpt lat="45.551735" lon="10.48389"><ele>265.0</ele><time>2026-03-29T07:07:16.42Z</time></trkpt><trkpt lat="45.5516933" lon="10.4837883"><ele>266.5</ele><time>2026-03-29T07:07:17.419Z</time></trkpt><trkpt lat="45.5516517" lon="10.483675"><ele>268.0</ele><time>2026-03-29T07:07:18.419Z</time></trkpt><trkpt lat="45.5516067" lon="10.4835383"><ele>269.5</ele><time>2026-03-29T07:07:19.42Z</time></trkpt><trkpt lat="45.55155" lon="10.48336"><ele>271.0</ele><time>2026-03-29T07:07:20.419Z</time></trkpt><trkpt lat="45.5514917" lon="10.48318"><ele>271.0</ele><time>2026-03-29T07:07:21.419Z</time></trkpt><trkpt lat="45.5514267" lon="10.483"><ele>271.0</ele><time>2026-03-29T07:07:22.419Z</time></trkpt><trkpt lat="45.5513667" lon="10.482825"><ele>271.0</ele><time>2026-03-29T07:07:23.419Z</time></trkpt><trkpt lat="45.551305" lon="10.4826517"><ele>271.0</ele><time>2026-03-29T07:07:24.419Z</time></trkpt><trkpt lat="45.5512517" lon="10.4825033"><ele>270.75</ele><time>2026-03-29T07:07:25.419Z</time></trkpt><trkpt lat="45.5511883" lon="10.4823617"><ele>270.5</ele><time>2026-03-29T07:07:26.419Z</time></trkpt><trkpt lat="45.5511033" lon="10.48221"><ele>270.25</ele><time>2026-03-29T07:07:27.419Z</time></trkpt><trkpt lat="45.5510067" lon="10.4820667"><ele>270.0</ele><time>2026-03-29T07:07:28.419Z</time></trkpt><trkpt lat="45.55089" lon="10.4819183"><ele>270.0</ele><time>2026-03-29T07:07:29.419Z</time></trkpt><trkpt lat="45.5507433" lon="10.4817767"><ele>270.0</ele><time>2026-03-29T07:07:30.419Z</time></trkpt><trkpt lat="45.550605" lon="10.4816333"><ele>270.0</ele><time>2026-03-29T07:07:31.419Z</time></trkpt><trkpt lat="45.550475" lon="10.481515"><ele>270.0</ele><time>2026-03-29T07:07:32.419Z</time></trkpt><trkpt lat="45.5503433" lon="10.4813933"><ele>270.0</ele><time>2026-03-29T07:07:33.42Z</time></trkpt><trkpt lat="45.5502183" lon="10.481265"><ele>270.0</ele><time>2026-03-29T07:07:34.419Z</time></trkpt><trkpt lat="45.550095" lon="10.4811383"><ele>270.0</ele><time>2026-03-29T07:07:35.42Z</time></trkpt><trkpt lat="45.5499717" lon="10.48102"><ele>270.0</ele><time>2026-03-29T07:07:36.42Z</time></trkpt><trkpt lat="45.549845" lon="10.4809317"><ele>270.0</ele><time>2026-03-29T07:07:37.419Z</time></trkpt><trkpt lat="45.5497133" lon="10.4808683"><ele>270.0</ele><time>2026-03-29T07:07:38.419Z</time></trkpt><trkpt lat="45.549555" lon="10.4808083"><ele>269.3333333333333</ele><time>2026-03-29T07:07:39.42Z</time></trkpt><trkpt lat="45.549395" lon="10.4807383"><ele>268.66666666666663</ele><time>2026-03-29T07:07:40.419Z</time></trkpt><trkpt lat="45.5492267" lon="10.4806667"><ele>268.0</ele><time>2026-03-29T07:07:41.42Z</time></trkpt><trkpt lat="45.5490633" lon="10.4806067"><ele>268.0</ele><time>2026-03-29T07:07:42.419Z</time></trkpt><trkpt lat="45.5489267" lon="10.4805533"><ele>268.0</ele><time>2026-03-29T07:07:43.419Z</time></trkpt><trkpt lat="45.5488267" lon="10.48052"><ele>268.0</ele><time>2026-03-29T07:07:44.42Z</time></trkpt><trkpt lat="45.5487567" lon="10.480475"><ele>268.0</ele><time>2026-03-29T07:07:46.419Z</time></trkpt><trkpt lat="45.5488133" lon="10.4803833"><ele>268.0</ele><time>2026-03-29T07:07:51.419Z</time></trkpt><trkpt lat="45.54889" lon="10.4804683"><ele>268.6</ele><time>2026-03-29T07:07:54.419Z</time></trkpt><trkpt lat="45.5489667" lon="10.4804183"><ele>269.20000000000005</ele><time>2026-03-29T07:07:57.419Z</time></trkpt><trkpt lat="45.5489567" lon="10.4802533"><ele>269.8</ele><time>2026-03-29T07:07:59.419Z</time></trkpt><trkpt lat="45.5489167" lon="10.4801583"><ele>270.40000000000003</ele><time>2026-03-29T07:08:00.419Z</time></trkpt><trkpt lat="45.5488617" lon="10.48007"><ele>271.0</ele><time>2026-03-29T07:08:01.42Z</time></trkpt><trkpt lat="45.548795" lon="10.4799767"><ele>271.0</ele><time>2026-03-29T07:08:02.42Z</time></trkpt><trkpt lat="45.5487267" lon="10.47987"><ele>271.0</ele><time>2026-03-29T07:08:03.42Z</time></trkpt><trkpt lat="45.5486617" lon="10.4797483"><ele>271.0</ele><time>2026-03-29T07:08:04.419Z</time></trkpt><trkpt lat="45.548605" lon="10.4795983"><ele>271.0</ele><time>2026-03-29T07:08:05.42Z</time></trkpt><trkpt lat="45.5485483" lon="10.4794483"><ele>271.0</ele><time>2026-03-29T07:08:06.419Z</time></trkpt><trkpt lat="45.5485183" lon="10.4792717"><ele>270.25</ele><time>2026-03-29T07:08:07.419Z</time></trkpt><trkpt lat="45.5484583" lon="10.479105"><ele>269.5</ele><time>2026-03-29T07:08:08.419Z</time></trkpt><trkpt lat="45.548395" lon="10.47892"><ele>268.75</ele><time>2026-03-29T07:08:09.419Z</time></trkpt><trkpt lat="45.54834" lon="10.47873"><ele>268.0</ele><time>2026-03-29T07:08:10.419Z</time></trkpt><trkpt lat="45.54828" lon="10.4785367"><ele>268.0</ele><time>2026-03-29T07:08:11.419Z</time></trkpt><trkpt lat="45.548215" lon="10.4783683"><ele>268.0</ele><time>2026-03-29T07:08:12.419Z</time></trkpt><trkpt lat="45.5481433" lon="10.47821"><ele>268.0</ele><time>2026-03-29T07:08:13.419Z</time></trkpt><trkpt lat="45.5480583" lon="10.47803"><ele>268.0</ele><time>2026-03-29T07:08:14.42Z</time></trkpt><trkpt lat="45.5479767" lon="10.4778483"><ele>269.0</ele><time>2026-03-29T07:08:15.419Z</time></trkpt><trkpt lat="45.5478967" lon="10.477655"><ele>270.0</ele><time>2026-03-29T07:08:16.42Z</time></trkpt><trkpt lat="45.547825" lon="10.4774567"><ele>271.0</ele><time>2026-03-29T07:08:17.419Z</time></trkpt><trkpt lat="45.54775" lon="10.4772583"><ele>273.5</ele><time>2026-03-29T07:08:18.419Z</time></trkpt><trkpt lat="45.5476883" lon="10.47707"><ele>276.0</ele><time>2026-03-29T07:08:19.42Z</time></trkpt><trkpt lat="45.547625" lon="10.4769117"><ele>278.5</ele><time>2026-03-29T07:08:20.419Z</time></trkpt><trkpt lat="45.5475667" lon="10.4767767"><ele>281.0</ele><time>2026-03-29T07:08:21.419Z</time></trkpt><trkpt lat="45.5475267" lon="10.4766817"><ele>281.0</ele><time>2026-03-29T07:08:22.419Z</time></trkpt><trkpt lat="45.5474817" lon="10.47661"><ele>281.0</ele><time>2026-03-29T07:08:23.419Z</time></trkpt><trkpt lat="45.5473917" lon="10.4764917"><ele>281.0</ele><time>2026-03-29T07:08:25.419Z</time></trkpt><trkpt lat="45.5473117" lon="10.476375"><ele>281.0</ele><time>2026-03-29T07:08:27.419Z</time></trkpt><trkpt lat="45.5472583" lon="10.4763133"><ele>281.0</ele><time>2026-03-29T07:08:28.419Z</time></trkpt><trkpt lat="45.5472033" lon="10.4762383"><ele>281.0</ele><time>2026-03-29T07:08:29.419Z</time></trkpt><trkpt lat="45.5471467" lon="10.4761467"><ele>282.0</ele><time>2026-03-29T07:08:30.419Z</time></trkpt><trkpt lat="45.5470867" lon="10.4760367"><ele>283.0</ele><time>2026-03-29T07:08:31.419Z</time></trkpt><trkpt lat="45.5470267" lon="10.4759267"><ele>284.0</ele><time>2026-03-29T07:08:32.419Z</time></trkpt><trkpt lat="45.546955" lon="10.4757967"><ele>285.0</ele><time>2026-03-29T07:08:33.419Z</time></trkpt><trkpt lat="45.54688" lon="10.475655"><ele>286.0</ele><time>2026-03-29T07:08:34.419Z</time></trkpt><trkpt lat="45.5467967" lon="10.4755267"><ele>285.75</ele><time>2026-03-29T07:08:35.419Z</time></trkpt><trkpt lat="45.54671" lon="10.4754183"><ele>285.5</ele><time>2026-03-29T07:08:36.419Z</time></trkpt><trkpt lat="45.5466133" lon="10.4753183"><ele>285.25</ele><time>2026-03-29T07:08:37.419Z</time></trkpt><trkpt lat="45.54652" lon="10.4752317"><ele>285.0</ele><time>2026-03-29T07:08:38.419Z</time></trkpt><trkpt lat="45.546435" lon="10.4751283"><ele>285.0</ele><time>2026-03-29T07:08:39.42Z</time></trkpt><trkpt lat="45.5463533" lon="10.4750333"><ele>285.0</ele><time>2026-03-29T07:08:40.419Z</time></trkpt><trkpt lat="45.5462867" lon="10.4749333"><ele>285.0</ele><time>2026-03-29T07:08:41.42Z</time></trkpt><trkpt lat="45.5462283" lon="10.4748383"><ele>285.0</ele><time>2026-03-29T07:08:42.419Z</time></trkpt><trkpt lat="45.5461717" lon="10.4746783"><ele>285.0</ele><time>2026-03-29T07:08:44.419Z</time></trkpt><trkpt lat="45.5461667" lon="10.474585"><ele>284.75</ele><time>2026-03-29T07:08:45.42Z</time></trkpt><trkpt lat="45.546205" lon="10.474385"><ele>284.5</ele><time>2026-03-29T07:08:47.42Z</time></trkpt><trkpt lat="45.5462567" lon="10.47423"><ele>284.25</ele><time>2026-03-29T07:08:48.419Z</time></trkpt><trkpt lat="45.54632" lon="10.4740783"><ele>284.0</ele><time>2026-03-29T07:08:49.419Z</time></trkpt><trkpt lat="45.5463967" lon="10.4738917"><ele>281.0</ele><time>2026-03-29T07:08:50.42Z</time></trkpt><trkpt lat="45.5464933" lon="10.47369"><ele>278.0</ele><time>2026-03-29T07:08:51.419Z</time></trkpt><trkpt lat="45.5465983" lon="10.4734783"><ele>275.0</ele><time>2026-03-29T07:08:52.419Z</time></trkpt><trkpt lat="45.5466917" lon="10.4732533"><ele>275.0</ele><time>2026-03-29T07:08:53.42Z</time></trkpt><trkpt lat="45.5467767" lon="10.4730583"><ele>275.0</ele><time>2026-03-29T07:08:54.419Z</time></trkpt><trkpt lat="45.5468483" lon="10.4728683"><ele>275.0</ele><time>2026-03-29T07:08:55.419Z</time></trkpt><trkpt lat="45.5469133" lon="10.4727067"><ele>275.0</ele><time>2026-03-29T07:08:56.419Z</time></trkpt><trkpt lat="45.5469783" lon="10.472575"><ele>274.2</ele><time>2026-03-29T07:08:57.419Z</time></trkpt><trkpt lat="45.547055" lon="10.4724783"><ele>273.4</ele><time>2026-03-29T07:08:58.419Z</time></trkpt><trkpt lat="45.5471317" lon="10.4724083"><ele>272.6</ele><time>2026-03-29T07:08:59.419Z</time></trkpt><trkpt lat="45.5472167" lon="10.4723667"><ele>271.8</ele><time>2026-03-29T07:09:00.419Z</time></trkpt><trkpt lat="45.54729" lon="10.47236"><ele>271.0</ele><time>2026-03-29T07:09:01.419Z</time></trkpt><trkpt lat="45.5473967" lon="10.472425"><ele>271.0</ele><time>2026-03-29T07:09:03.419Z</time></trkpt><trkpt lat="45.5474667" lon="10.4724817"><ele>271.0</ele><time>2026-03-29T07:09:04.419Z</time></trkpt><trkpt lat="45.5475417" lon="10.47255"><ele>271.0</ele><time>2026-03-29T07:09:05.419Z</time></trkpt><trkpt lat="45.5476267" lon="10.4726233"><ele>271.0</ele><time>2026-03-29T07:09:06.419Z</time></trkpt><trkpt lat="45.5477167" lon="10.4726783"><ele>271.0</ele><time>2026-03-29T07:09:07.419Z</time></trkpt><trkpt lat="45.5478217" lon="10.47275"><ele>271.66666666666663</ele><time>2026-03-29T07:09:08.419Z</time></trkpt><trkpt lat="45.5479433" lon="10.4728383"><ele>272.3333333333333</ele><time>2026-03-29T07:09:09.419Z</time></trkpt><trkpt lat="45.5480833" lon="10.4729233"><ele>273.0</ele><time>2026-03-29T07:09:10.419Z</time></trkpt><trkpt lat="45.54823" lon="10.47302"><ele>276.0</ele><time>2026-03-29T07:09:11.419Z</time></trkpt><trkpt lat="45.5483783" lon="10.4731417"><ele>279.0</ele><time>2026-03-29T07:09:12.42Z</time></trkpt><trkpt lat="45.5485283" lon="10.4732667"><ele>282.0</ele><time>2026-03-29T07:09:13.419Z</time></trkpt><trkpt lat="45.5486683" lon="10.4733867"><ele>282.0</ele><time>2026-03-29T07:09:14.419Z</time></trkpt><trkpt lat="45.5488083" lon="10.4735133"><ele>282.0</ele><time>2026-03-29T07:09:15.419Z</time></trkpt><trkpt lat="45.5489383" lon="10.4736367"><ele>282.0</ele><time>2026-03-29T07:09:16.419Z</time></trkpt><trkpt lat="45.5490733" lon="10.4737383"><ele>284.0</ele><time>2026-03-29T07:09:17.419Z</time></trkpt><trkpt lat="45.5492" lon="10.4738433"><ele>286.0</ele><time>2026-03-29T07:09:18.419Z</time></trkpt><trkpt lat="45.54932" lon="10.4739583"><ele>288.0</ele><time>2026-03-29T07:09:19.419Z</time></trkpt><trkpt lat="45.5494233" lon="10.4740733"><ele>290.0</ele><time>2026-03-29T07:09:20.419Z</time></trkpt><trkpt lat="45.5495017" lon="10.474175"><ele>289.0</ele><time>2026-03-29T07:09:21.42Z</time></trkpt><trkpt lat="45.5495783" lon="10.4742767"><ele>288.0</ele><time>2026-03-29T07:09:22.419Z</time></trkpt><trkpt lat="45.54967" lon="10.4743917"><ele>287.0</ele><time>2026-03-29T07:09:23.419Z</time></trkpt><trkpt lat="45.549765" lon="10.4744983"><ele>286.0</ele><time>2026-03-29T07:09:24.419Z</time></trkpt><trkpt lat="45.54988" lon="10.4746067"><ele>288.5</ele><time>2026-03-29T07:09:25.42Z</time></trkpt><trkpt lat="45.5499983" lon="10.4747117"><ele>291.0</ele><time>2026-03-29T07:09:26.419Z</time></trkpt><trkpt lat="45.5501317" lon="10.4748333"><ele>293.5</ele><time>2026-03-29T07:09:27.419Z</time></trkpt><trkpt lat="45.5502467" lon="10.4749467"><ele>296.0</ele><time>2026-03-29T07:09:28.419Z</time></trkpt><trkpt lat="45.550365" lon="10.4750833"><ele>296.6666666666667</ele><time>2026-03-29T07:09:29.42Z</time></trkpt><trkpt lat="45.5504917" lon="10.4752283"><ele>297.3333333333333</ele><time>2026-03-29T07:09:30.42Z</time></trkpt><trkpt lat="45.5506133" lon="10.4753883"><ele>298.0</ele><time>2026-03-29T07:09:31.42Z</time></trkpt><trkpt lat="45.5507383" lon="10.47556"><ele>298.0</ele><time>2026-03-29T07:09:32.419Z</time></trkpt><trkpt lat="45.55087" lon="10.4757233"><ele>298.0</ele><time>2026-03-29T07:09:33.419Z</time></trkpt><trkpt lat="45.5510267" lon="10.4758767"><ele>298.0</ele><time>2026-03-29T07:09:34.42Z</time></trkpt><trkpt lat="45.551195" lon="10.4760367"><ele>299.0</ele><time>2026-03-29T07:09:35.419Z</time></trkpt><trkpt lat="45.551375" lon="10.4761667"><ele>300.0</ele><time>2026-03-29T07:09:36.419Z</time></trkpt><trkpt lat="45.5515683" lon="10.4762783"><ele>301.0</ele><time>2026-03-29T07:09:37.419Z</time></trkpt><trkpt lat="45.5517667" lon="10.4764033"><ele>301.0</ele><time>2026-03-29T07:09:38.419Z</time></trkpt><trkpt lat="45.55196" lon="10.4765367"><ele>301.0</ele><time>2026-03-29T07:09:39.419Z</time></trkpt><trkpt lat="45.5521367" lon="10.476675"><ele>301.0</ele><time>2026-03-29T07:09:40.42Z</time></trkpt><trkpt lat="45.5523017" lon="10.476825"><ele>300.66666666666663</ele><time>2026-03-29T07:09:41.419Z</time></trkpt><trkpt lat="45.55245" lon="10.4769733"><ele>300.3333333333333</ele><time>2026-03-29T07:09:42.419Z</time></trkpt><trkpt lat="45.55261" lon="10.4771317"><ele>300.0</ele><time>2026-03-29T07:09:43.419Z</time></trkpt><trkpt lat="45.5527333" lon="10.4772933"><ele>301.6666666666667</ele><time>2026-03-29T07:09:44.419Z</time></trkpt><trkpt lat="45.5528717" lon="10.477455"><ele>303.33333333333337</ele><time>2026-03-29T07:09:45.42Z</time></trkpt><trkpt lat="45.553015" lon="10.4776183"><ele>305.0</ele><time>2026-03-29T07:09:46.419Z</time></trkpt><trkpt lat="45.5531483" lon="10.4777717"><ele>305.0</ele><time>2026-03-29T07:09:47.419Z</time></trkpt><trkpt lat="45.5532717" lon="10.4779217"><ele>305.0</ele><time>2026-03-29T07:09:48.419Z</time></trkpt><trkpt lat="45.5533967" lon="10.478085"><ele>305.0</ele><time>2026-03-29T07:09:49.42Z</time></trkpt><trkpt lat="45.5534967" lon="10.4782433"><ele>305.25</ele><time>2026-03-29T07:09:50.419Z</time></trkpt><trkpt lat="45.553595" lon="10.4784083"><ele>305.5</ele><time>2026-03-29T07:09:51.419Z</time></trkpt><trkpt lat="45.5536767" lon="10.478555"><ele>305.75</ele><time>2026-03-29T07:09:52.42Z</time></trkpt><trkpt lat="45.553755" lon="10.478705"><ele>306.0</ele><time>2026-03-29T07:09:53.419Z</time></trkpt><trkpt lat="45.5538183" lon="10.4788667"><ele>307.75</ele><time>2026-03-29T07:09:54.419Z</time></trkpt><trkpt lat="45.5538767" lon="10.4790317"><ele>309.5</ele><time>2026-03-29T07:09:55.419Z</time></trkpt><trkpt lat="45.5539083" lon="10.4792017"><ele>311.25</ele><time>2026-03-29T07:09:56.419Z</time></trkpt><trkpt lat="45.553925" lon="10.47943"><ele>313.0</ele><time>2026-03-29T07:09:57.419Z</time></trkpt><trkpt lat="45.55394" lon="10.4796233"><ele>314.0</ele><time>2026-03-29T07:09:58.419Z</time></trkpt><trkpt lat="45.5539533" lon="10.4798233"><ele>315.0</ele><time>2026-03-29T07:09:59.419Z</time></trkpt><trkpt lat="45.5539767" lon="10.4800467"><ele>316.0</ele><time>2026-03-29T07:10:00.419Z</time></trkpt><trkpt lat="45.5540133" lon="10.4802533"><ele>317.0</ele><time>2026-03-29T07:10:01.419Z</time></trkpt><trkpt lat="45.55408" lon="10.48045"><ele>318.0</ele><time>2026-03-29T07:10:02.419Z</time></trkpt><trkpt lat="45.5541467" lon="10.480635"><ele>319.0</ele><time>2026-03-29T07:10:03.419Z</time></trkpt><trkpt lat="45.5542117" lon="10.4808"><ele>320.0</ele><time>2026-03-29T07:10:04.419Z</time></trkpt><trkpt lat="45.5542417" lon="10.4809567"><ele>321.0</ele><time>2026-03-29T07:10:05.42Z</time></trkpt><trkpt lat="45.554265" lon="10.4810883"><ele>321.0</ele><time>2026-03-29T07:10:06.419Z</time></trkpt><trkpt lat="45.5542767" lon="10.481195"><ele>321.0</ele><time>2026-03-29T07:10:07.42Z</time></trkpt><trkpt lat="45.5543017" lon="10.4812917"><ele>321.0</ele><time>2026-03-29T07:10:08.419Z</time></trkpt><trkpt lat="45.5543383" lon="10.481365"><ele>321.0</ele><time>2026-03-29T07:10:09.419Z</time></trkpt><trkpt lat="45.5544433" lon="10.4814633"><ele>321.0</ele><time>2026-03-29T07:10:11.419Z</time></trkpt><trkpt lat="45.5545233" lon="10.48153"><ele>321.0</ele><time>2026-03-29T07:10:12.42Z</time></trkpt><trkpt lat="45.554615" lon="10.481605"><ele>320.8</ele><time>2026-03-29T07:10:13.419Z</time></trkpt><trkpt lat="45.5547117" lon="10.481685"><ele>320.6</ele><time>2026-03-29T07:10:14.42Z</time></trkpt><trkpt lat="45.554805" lon="10.48176"><ele>320.4</ele><time>2026-03-29T07:10:15.42Z</time></trkpt><trkpt lat="45.5549017" lon="10.4818483"><ele>320.2</ele><time>2026-03-29T07:10:16.419Z</time></trkpt><trkpt lat="45.5549833" lon="10.4819533"><ele>320.0</ele><time>2026-03-29T07:10:17.419Z</time></trkpt><trkpt lat="45.5550733" lon="10.48206"><ele>321.25</ele><time>2026-03-29T07:10:18.42Z</time></trkpt><trkpt lat="45.555175" lon="10.48218"><ele>322.5</ele><time>2026-03-29T07:10:19.419Z</time></trkpt><trkpt lat="45.5552983" lon="10.4822917"><ele>323.75</ele><time>2026-03-29T07:10:20.419Z</time></trkpt><trkpt lat="45.555415" lon="10.4823967"><ele>325.0</ele><time>2026-03-29T07:10:21.419Z</time></trkpt><trkpt lat="45.5555333" lon="10.4824783"><ele>325.0</ele><time>2026-03-29T07:10:22.419Z</time></trkpt><trkpt lat="45.5556583" lon="10.4825567"><ele>325.0</ele><time>2026-03-29T07:10:23.419Z</time></trkpt><trkpt lat="45.555795" lon="10.4826233"><ele>325.0</ele><time>2026-03-29T07:10:24.42Z</time></trkpt><trkpt lat="45.555945" lon="10.4826883"><ele>325.0</ele><time>2026-03-29T07:10:25.42Z</time></trkpt><trkpt lat="45.5561067" lon="10.4827567"><ele>326.0</ele><time>2026-03-29T07:10:26.419Z</time></trkpt><trkpt lat="45.5562483" lon="10.482825"><ele>327.0</ele><time>2026-03-29T07:10:27.419Z</time></trkpt><trkpt lat="45.5563817" lon="10.4828917"><ele>328.0</ele><time>2026-03-29T07:10:28.419Z</time></trkpt><trkpt lat="45.55653" lon="10.4829517"><ele>329.0</ele><time>2026-03-29T07:10:29.419Z</time></trkpt><trkpt lat="45.5566517" lon="10.4830033"><ele>329.75</ele><time>2026-03-29T07:10:30.419Z</time></trkpt><trkpt lat="45.55678" lon="10.4830533"><ele>330.5</ele><time>2026-03-29T07:10:31.42Z</time></trkpt><trkpt lat="45.5569183" lon="10.483085"><ele>331.25</ele><time>2026-03-29T07:10:32.419Z</time></trkpt><trkpt lat="45.5570483" lon="10.4831017"><ele>332.0</ele><time>2026-03-29T07:10:33.419Z</time></trkpt><trkpt lat="45.5571833" lon="10.4831133"><ele>332.0</ele><time>2026-03-29T07:10:34.42Z</time></trkpt><trkpt lat="45.5573083" lon="10.4831333"><ele>332.0</ele><time>2026-03-29T07:10:35.419Z</time></trkpt><trkpt lat="45.5574383" lon="10.483145"><ele>332.0</ele><time>2026-03-29T07:10:36.419Z</time></trkpt><trkpt lat="45.557565" lon="10.4831567"><ele>332.0</ele><time>2026-03-29T07:10:37.42Z</time></trkpt><trkpt lat="45.5576933" lon="10.4831733"><ele>332.0</ele><time>2026-03-29T07:10:38.419Z</time></trkpt><trkpt lat="45.5578267" lon="10.4831933"><ele>332.0</ele><time>2026-03-29T07:10:39.419Z</time></trkpt><trkpt lat="45.5579617" lon="10.4832133"><ele>332.0</ele><time>2026-03-29T07:10:40.42Z</time></trkpt><trkpt lat="45.558105" lon="10.4832317"><ele>332.0</ele><time>2026-03-29T07:10:41.419Z</time></trkpt><trkpt lat="45.5582633" lon="10.48325"><ele>331.33333333333337</ele><time>2026-03-29T07:10:42.419Z</time></trkpt><trkpt lat="45.558425" lon="10.4832817"><ele>330.6666666666667</ele><time>2026-03-29T07:10:43.42Z</time></trkpt><trkpt lat="45.55859" lon="10.483315"><ele>330.0</ele><time>2026-03-29T07:10:44.419Z</time></trkpt><trkpt lat="45.5587633" lon="10.4833383"><ele>329.6666666666667</ele><time>2026-03-29T07:10:45.419Z</time></trkpt><trkpt lat="45.5589283" lon="10.4833667"><ele>329.33333333333337</ele><time>2026-03-29T07:10:46.419Z</time></trkpt><trkpt lat="45.5590967" lon="10.4834017"><ele>329.0</ele><time>2026-03-29T07:10:47.419Z</time></trkpt><trkpt lat="45.5592667" lon="10.4834333"><ele>329.0</ele><time>2026-03-29T07:10:48.419Z</time></trkpt><trkpt lat="45.5594417" lon="10.4834633"><ele>329.0</ele><time>2026-03-29T07:10:49.419Z</time></trkpt><trkpt lat="45.5596117" lon="10.4834983"><ele>329.0</ele><time>2026-03-29T07:10:50.419Z</time></trkpt><trkpt lat="45.5597767" lon="10.4835133"><ele>328.0</ele><time>2026-03-29T07:10:51.419Z</time></trkpt><trkpt lat="45.5599317" lon="10.483515"><ele>327.0</ele><time>2026-03-29T07:10:52.419Z</time></trkpt><trkpt lat="45.5600867" lon="10.4835083"><ele>326.0</ele><time>2026-03-29T07:10:53.419Z</time></trkpt><trkpt lat="45.5602383" lon="10.4834883"><ele>325.33333333333337</ele><time>2026-03-29T07:10:54.419Z</time></trkpt><trkpt lat="45.56039" lon="10.4834433"><ele>324.6666666666667</ele><time>2026-03-29T07:10:55.419Z</time></trkpt><trkpt lat="45.5605417" lon="10.4833867"><ele>324.0</ele><time>2026-03-29T07:10:56.419Z</time></trkpt><trkpt lat="45.5606783" lon="10.4833083"><ele>324.0</ele><time>2026-03-29T07:10:57.42Z</time></trkpt><trkpt lat="45.5607967" lon="10.4832283"><ele>324.0</ele><time>2026-03-29T07:10:58.419Z</time></trkpt><trkpt lat="45.5609067" lon="10.483165"><ele>324.0</ele><time>2026-03-29T07:10:59.419Z</time></trkpt><trkpt lat="45.5610133" lon="10.4830983"><ele>324.0</ele><time>2026-03-29T07:11:00.419Z</time></trkpt><trkpt lat="45.5611183" lon="10.4830367"><ele>324.0</ele><time>2026-03-29T07:11:01.419Z</time></trkpt><trkpt lat="45.5612083" lon="10.4830033"><ele>324.0</ele><time>2026-03-29T07:11:02.419Z</time></trkpt><trkpt lat="45.5612883" lon="10.4829667"><ele>324.0</ele><time>2026-03-29T07:11:03.42Z</time></trkpt><trkpt lat="45.5613517" lon="10.482925"><ele>324.0</ele><time>2026-03-29T07:11:04.419Z</time></trkpt><trkpt lat="45.5614067" lon="10.4828483"><ele>324.0</ele><time>2026-03-29T07:11:06.42Z</time></trkpt><trkpt lat="45.5613717" lon="10.4827217"><ele>324.0</ele><time>2026-03-29T07:11:08.419Z</time></trkpt><trkpt lat="45.5613183" lon="10.48263"><ele>324.0</ele><time>2026-03-29T07:11:09.419Z</time></trkpt><trkpt lat="45.5612517" lon="10.4825033"><ele>324.0</ele><time>2026-03-29T07:11:10.419Z</time></trkpt><trkpt lat="45.5611767" lon="10.482335"><ele>324.0</ele><time>2026-03-29T07:11:11.419Z</time></trkpt><trkpt lat="45.5611017" lon="10.4821367"><ele>324.0</ele><time>2026-03-29T07:11:12.419Z</time></trkpt><trkpt lat="45.5610283" lon="10.4819217"><ele>323.6666666666667</ele><time>2026-03-29T07:11:13.42Z</time></trkpt><trkpt lat="45.5609433" lon="10.4817067"><ele>323.33333333333337</ele><time>2026-03-29T07:11:14.419Z</time></trkpt><trkpt lat="45.56085" lon="10.4815083"><ele>323.0</ele><time>2026-03-29T07:11:15.419Z</time></trkpt><trkpt lat="45.5607217" lon="10.48132"><ele>325.6666666666667</ele><time>2026-03-29T07:11:16.419Z</time></trkpt><trkpt lat="45.5605667" lon="10.48118"><ele>328.3333333333333</ele><time>2026-03-29T07:11:17.419Z</time></trkpt><trkpt lat="45.5603833" lon="10.4810733"><ele>331.0</ele><time>2026-03-29T07:11:18.419Z</time></trkpt><trkpt lat="45.5602" lon="10.481"><ele>333.0</ele><time>2026-03-29T07:11:19.419Z</time></trkpt><trkpt lat="45.5600233" lon="10.4809333"><ele>335.0</ele><time>2026-03-29T07:11:20.419Z</time></trkpt><trkpt lat="45.5598917" lon="10.4808417"><ele>337.0</ele><time>2026-03-29T07:11:21.419Z</time></trkpt><trkpt lat="45.5597917" lon="10.4807233"><ele>337.0</ele><time>2026-03-29T07:11:22.419Z</time></trkpt><trkpt lat="45.5597333" lon="10.48059"><ele>337.0</ele><time>2026-03-29T07:11:23.419Z</time></trkpt><trkpt lat="45.559695" lon="10.4804333"><ele>337.0</ele><time>2026-03-29T07:11:24.419Z</time></trkpt><trkpt lat="45.559675" lon="10.48026"><ele>337.0</ele><time>2026-03-29T07:11:25.42Z</time></trkpt><trkpt lat="45.55966" lon="10.480085"><ele>338.25</ele><time>2026-03-29T07:11:26.419Z</time></trkpt><trkpt lat="45.5596567" lon="10.4799017"><ele>339.5</ele><time>2026-03-29T07:11:27.419Z</time></trkpt><trkpt lat="45.55966" lon="10.4797017"><ele>340.75</ele><time>2026-03-29T07:11:28.419Z</time></trkpt><trkpt lat="45.5596733" lon="10.4795"><ele>342.0</ele><time>2026-03-29T07:11:29.419Z</time></trkpt><trkpt lat="45.5597117" lon="10.4793033"><ele>342.0</ele><time>2026-03-29T07:11:30.419Z</time></trkpt><trkpt lat="45.5597733" lon="10.4791067"><ele>342.0</ele><time>2026-03-29T07:11:31.419Z</time></trkpt><trkpt lat="45.5598467" lon="10.4788783"><ele>342.0</ele><time>2026-03-29T07:11:32.42Z</time></trkpt><trkpt lat="45.5599183" lon="10.4786483"><ele>340.6666666666667</ele><time>2026-03-29T07:11:33.419Z</time></trkpt><trkpt lat="45.5599733" lon="10.47841"><ele>339.33333333333337</ele><time>2026-03-29T07:11:34.419Z</time></trkpt><trkpt lat="45.5600183" lon="10.47815"><ele>338.0</ele><time>2026-03-29T07:11:35.419Z</time></trkpt><trkpt lat="45.56004" lon="10.47789"><ele>337.33333333333337</ele><time>2026-03-29T07:11:36.419Z</time></trkpt><trkpt lat="45.56004" lon="10.477625"><ele>336.6666666666667</ele><time>2026-03-29T07:11:37.419Z</time></trkpt><trkpt lat="45.5600267" lon="10.4773733"><ele>336.0</ele><time>2026-03-29T07:11:38.419Z</time></trkpt><trkpt lat="45.56001" lon="10.4771467"><ele>334.25</ele><time>2026-03-29T07:11:39.419Z</time></trkpt><trkpt lat="45.5600017" lon="10.4769433"><ele>332.5</ele><time>2026-03-29T07:11:40.419Z</time></trkpt><trkpt lat="45.5600133" lon="10.4767667"><ele>330.75</ele><time>2026-03-29T07:11:41.42Z</time></trkpt><trkpt lat="45.5600683" lon="10.47659"><ele>329.0</ele><time>2026-03-29T07:11:42.42Z</time></trkpt><trkpt lat="45.5601167" lon="10.4764317"><ele>326.0</ele><time>2026-03-29T07:11:43.419Z</time></trkpt><trkpt lat="45.5601867" lon="10.4762683"><ele>323.0</ele><time>2026-03-29T07:11:44.419Z</time></trkpt><trkpt lat="45.5602767" lon="10.47608"><ele>320.0</ele><time>2026-03-29T07:11:45.42Z</time></trkpt><trkpt lat="45.5603833" lon="10.4758917"><ele>320.0</ele><time>2026-03-29T07:11:46.42Z</time></trkpt><trkpt lat="45.5604817" lon="10.4757267"><ele>320.0</ele><time>2026-03-29T07:11:47.419Z</time></trkpt><trkpt lat="45.5605617" lon="10.4756033"><ele>320.0</ele><time>2026-03-29T07:11:48.419Z</time></trkpt><trkpt lat="45.5606167" lon="10.4754767"><ele>320.0</ele><time>2026-03-29T07:11:50.42Z</time></trkpt><trkpt lat="45.5606383" lon="10.47539"><ele>320.0</ele><time>2026-03-29T07:11:52.419Z</time></trkpt><trkpt lat="45.5605617" lon="10.4755183"><ele>320.0</ele><time>2026-03-29T07:12:08.419Z</time></trkpt><trkpt lat="45.560535" lon="10.47563"><ele>320.0</ele><time>2026-03-29T07:12:10.419Z</time></trkpt><trkpt lat="45.5605967" lon="10.4757117"><ele>320.0</ele><time>2026-03-29T07:12:12.419Z</time></trkpt><trkpt lat="45.5606583" lon="10.475755"><ele>320.0</ele><time>2026-03-29T07:12:13.419Z</time></trkpt><trkpt lat="45.560735" lon="10.4757933"><ele>320.0</ele><time>2026-03-29T07:12:14.42Z</time></trkpt><trkpt lat="45.5608283" lon="10.4758283"><ele>320.0</ele><time>2026-03-29T07:12:15.419Z</time></trkpt><trkpt lat="45.5609567" lon="10.47587"><ele>320.0</ele><time>2026-03-29T07:12:16.419Z</time></trkpt><trkpt lat="45.56109" lon="10.475925"><ele>320.0</ele><time>2026-03-29T07:12:17.419Z</time></trkpt><trkpt lat="45.5612217" lon="10.4759967"><ele>320.0</ele><time>2026-03-29T07:12:18.419Z</time></trkpt><trkpt lat="45.5613417" lon="10.4760717"><ele>320.0</ele><time>2026-03-29T07:12:19.419Z</time></trkpt><trkpt lat="45.5614533" lon="10.4761483"><ele>319.5</ele><time>2026-03-29T07:12:20.419Z</time></trkpt><trkpt lat="45.56154" lon="10.4762317"><ele>319.0</ele><time>2026-03-29T07:12:21.419Z</time></trkpt><trkpt lat="45.56162" lon="10.4763433"><ele>318.5</ele><time>2026-03-29T07:12:22.419Z</time></trkpt><trkpt lat="45.5617033" lon="10.47647"><ele>318.0</ele><time>2026-03-29T07:12:23.419Z</time></trkpt><trkpt lat="45.5618033" lon="10.476605"><ele>322.75</ele><time>2026-03-29T07:12:24.419Z</time></trkpt><trkpt lat="45.561905" lon="10.4767233"><ele>327.5</ele><time>2026-03-29T07:12:25.42Z</time></trkpt><trkpt lat="45.56202" lon="10.4768167"><ele>332.25</ele><time>2026-03-29T07:12:26.419Z</time></trkpt><trkpt lat="45.56214" lon="10.476895"><ele>337.0</ele><time>2026-03-29T07:12:27.42Z</time></trkpt><trkpt lat="45.56224" lon="10.4769383"><ele>337.75</ele><time>2026-03-29T07:12:28.42Z</time></trkpt><trkpt lat="45.5623367" lon="10.4769517"><ele>338.5</ele><time>2026-03-29T07:12:29.419Z</time></trkpt><trkpt lat="45.56243" lon="10.4769117"><ele>339.25</ele><time>2026-03-29T07:12:30.419Z</time></trkpt><trkpt lat="45.5625367" lon="10.4768167"><ele>340.0</ele><time>2026-03-29T07:12:31.419Z</time></trkpt><trkpt lat="45.5626417" lon="10.4767067"><ele>340.0</ele><time>2026-03-29T07:12:32.419Z</time></trkpt><trkpt lat="45.56275" lon="10.4765983"><ele>340.0</ele><time>2026-03-29T07:12:33.419Z</time></trkpt><trkpt lat="45.562865" lon="10.47647"><ele>340.0</ele><time>2026-03-29T07:12:34.419Z</time></trkpt><trkpt lat="45.5629867" lon="10.476365"><ele>340.0</ele><time>2026-03-29T07:12:35.419Z</time></trkpt><trkpt lat="45.56312" lon="10.476255"><ele>338.75</ele><time>2026-03-29T07:12:36.419Z</time></trkpt><trkpt lat="45.563255" lon="10.476145"><ele>337.5</ele><time>2026-03-29T07:12:37.419Z</time></trkpt><trkpt lat="45.5633833" lon="10.4760417"><ele>336.25</ele><time>2026-03-29T07:12:38.42Z</time></trkpt><trkpt lat="45.5635033" lon="10.47595"><ele>335.0</ele><time>2026-03-29T07:12:39.419Z</time></trkpt><trkpt lat="45.56362" lon="10.4758433"><ele>335.0</ele><time>2026-03-29T07:12:40.419Z</time></trkpt><trkpt lat="45.5637217" lon="10.4757533"><ele>335.0</ele><time>2026-03-29T07:12:41.419Z</time></trkpt><trkpt lat="45.5638167" lon="10.47568"><ele>335.0</ele><time>2026-03-29T07:12:42.419Z</time></trkpt><trkpt lat="45.563885" lon="10.4756133"><ele>335.0</ele><time>2026-03-29T07:12:43.419Z</time></trkpt><trkpt lat="45.5639383" lon="10.4755467"><ele>335.0</ele><time>2026-03-29T07:12:44.419Z</time></trkpt><trkpt lat="45.56402" lon="10.4754667"><ele>335.0</ele><time>2026-03-29T07:12:46.419Z</time></trkpt><trkpt lat="45.56411" lon="10.4755033"><ele>335.0</ele><time>2026-03-29T07:12:48.42Z</time></trkpt><trkpt lat="45.5641783" lon="10.4756617"><ele>335.0</ele><time>2026-03-29T07:12:50.419Z</time></trkpt><trkpt lat="45.5642167" lon="10.47578"><ele>335.0</ele><time>2026-03-29T07:12:51.419Z</time></trkpt><trkpt lat="45.5642517" lon="10.475905"><ele>335.0</ele><time>2026-03-29T07:12:52.42Z</time></trkpt><trkpt lat="45.56429" lon="10.476015"><ele>335.0</ele><time>2026-03-29T07:12:53.419Z</time></trkpt><trkpt lat="45.5643283" lon="10.4760967"><ele>335.0</ele><time>2026-03-29T07:12:54.419Z</time></trkpt><trkpt lat="45.564395" lon="10.4762217"><ele>335.0</ele><time>2026-03-29T07:12:56.419Z</time></trkpt><trkpt lat="45.5644533" lon="10.4763833"><ele>335.0</ele><time>2026-03-29T07:12:58.419Z</time></trkpt><trkpt lat="45.5644983" lon="10.4765067"><ele>335.0</ele><time>2026-03-29T07:12:59.42Z</time></trkpt><trkpt lat="45.56455" lon="10.47666"><ele>335.2</ele><time>2026-03-29T07:13:00.42Z</time></trkpt><trkpt lat="45.5645917" lon="10.4768067"><ele>335.4</ele><time>2026-03-29T07:13:01.419Z</time></trkpt><trkpt lat="45.5646283" lon="10.4769533"><ele>335.6</ele><time>2026-03-29T07:13:02.419Z</time></trkpt><trkpt lat="45.5646533" lon="10.47711"><ele>335.8</ele><time>2026-03-29T07:13:03.42Z</time></trkpt><trkpt lat="45.5646633" lon="10.4772433"><ele>336.0</ele><time>2026-03-29T07:13:04.419Z</time></trkpt><trkpt lat="45.5646767" lon="10.4773617"><ele>336.0</ele><time>2026-03-29T07:13:05.42Z</time></trkpt><trkpt lat="45.5646783" lon="10.47748"><ele>336.0</ele><time>2026-03-29T07:13:06.419Z</time></trkpt><trkpt lat="45.5646767" lon="10.4775883"><ele>336.0</ele><time>2026-03-29T07:13:07.419Z</time></trkpt><trkpt lat="45.5646483" lon="10.47769"><ele>336.0</ele><time>2026-03-29T07:13:08.419Z</time></trkpt><trkpt lat="45.5645967" lon="10.4777783"><ele>336.0</ele><time>2026-03-29T07:13:09.419Z</time></trkpt><trkpt lat="45.5645167" lon="10.4778567"><ele>336.0</ele><time>2026-03-29T07:13:10.419Z</time></trkpt><trkpt lat="45.5644333" lon="10.4779267"><ele>337.20000000000005</ele><time>2026-03-29T07:13:11.419Z</time></trkpt><trkpt lat="45.5643683" lon="10.4780283"><ele>338.40000000000003</ele><time>2026-03-29T07:13:12.419Z</time></trkpt><trkpt lat="45.564305" lon="10.4781367"><ele>339.6</ele><time>2026-03-29T07:13:13.419Z</time></trkpt><trkpt lat="45.564295" lon="10.4782517"><ele>340.8</ele><time>2026-03-29T07:13:14.42Z</time></trkpt><trkpt lat="45.5643133" lon="10.478375"><ele>342.0</ele><time>2026-03-29T07:13:15.42Z</time></trkpt><trkpt lat="45.5643833" lon="10.4785033"><ele>342.0</ele><time>2026-03-29T07:13:16.42Z</time></trkpt><trkpt lat="45.5644917" lon="10.4786117"><ele>342.0</ele><time>2026-03-29T07:13:17.419Z</time></trkpt><trkpt lat="45.5646217" lon="10.478725"><ele>342.0</ele><time>2026-03-29T07:13:18.419Z</time></trkpt><trkpt lat="45.56477" lon="10.4788417"><ele>342.5</ele><time>2026-03-29T07:13:19.419Z</time></trkpt><trkpt lat="45.5649067" lon="10.4789533"><ele>343.0</ele><time>2026-03-29T07:13:20.419Z</time></trkpt><trkpt lat="45.5650267" lon="10.479045"><ele>343.5</ele><time>2026-03-29T07:13:21.419Z</time></trkpt><trkpt lat="45.56514" lon="10.479085"><ele>344.0</ele><time>2026-03-29T07:13:22.419Z</time></trkpt><trkpt lat="45.5652433" lon="10.4791017"><ele>344.0</ele><time>2026-03-29T07:13:23.419Z</time></trkpt><trkpt lat="45.5653517" lon="10.4791033"><ele>344.0</ele><time>2026-03-29T07:13:24.42Z</time></trkpt><trkpt lat="45.56546" lon="10.4791"><ele>344.0</ele><time>2026-03-29T07:13:25.419Z</time></trkpt><trkpt lat="45.5655867" lon="10.4790867"><ele>344.0</ele><time>2026-03-29T07:13:26.419Z</time></trkpt><trkpt lat="45.5657217" lon="10.4790583"><ele>344.4</ele><time>2026-03-29T07:13:27.419Z</time></trkpt><trkpt lat="45.5658533" lon="10.4790267"><ele>344.79999999999995</ele><time>2026-03-29T07:13:28.419Z</time></trkpt><trkpt lat="45.565965" lon="10.479"><ele>345.20000000000005</ele><time>2026-03-29T07:13:29.419Z</time></trkpt><trkpt lat="45.5660517" lon="10.47897"><ele>345.6</ele><time>2026-03-29T07:13:30.419Z</time></trkpt><trkpt lat="45.5661267" lon="10.4789483"><ele>346.0</ele><time>2026-03-29T07:13:31.42Z</time></trkpt><trkpt lat="45.5662083" lon="10.4789383"><ele>346.66666666666663</ele><time>2026-03-29T07:13:33.419Z</time></trkpt><trkpt lat="45.56627" lon="10.4789117"><ele>347.3333333333333</ele><time>2026-03-29T07:13:38.419Z</time></trkpt><trkpt lat="45.566365" lon="10.4788867"><ele>348.0</ele><time>2026-03-29T07:13:41.419Z</time></trkpt><trkpt lat="45.5664383" lon="10.4788683"><ele>348.6666666666667</ele><time>2026-03-29T07:13:42.419Z</time></trkpt><trkpt lat="45.5665183" lon="10.478845"><ele>349.33333333333337</ele><time>2026-03-29T07:13:43.419Z</time></trkpt><trkpt lat="45.5665933" lon="10.4788267"><ele>350.0</ele><time>2026-03-29T07:13:44.419Z</time></trkpt><trkpt lat="45.5666883" lon="10.4788083"><ele>350.0</ele><time>2026-03-29T07:13:45.419Z</time></trkpt><trkpt lat="45.5667867" lon="10.4787933"><ele>350.0</ele><time>2026-03-29T07:13:46.419Z</time></trkpt><trkpt lat="45.566885" lon="10.4787717"><ele>350.0</ele><time>2026-03-29T07:13:47.419Z</time></trkpt><trkpt lat="45.5669833" lon="10.4787417"><ele>350.0</ele><time>2026-03-29T07:13:48.419Z</time></trkpt><trkpt lat="45.567085" lon="10.4787167"><ele>350.0</ele><time>2026-03-29T07:13:49.419Z</time></trkpt><trkpt lat="45.5671667" lon="10.4786933"><ele>349.6666666666667</ele><time>2026-03-29T07:13:50.42Z</time></trkpt><trkpt lat="45.567245" lon="10.4786833"><ele>349.33333333333337</ele><time>2026-03-29T07:13:51.42Z</time></trkpt><trkpt lat="45.567325" lon="10.47867"><ele>349.0</ele><time>2026-03-29T07:13:52.42Z</time></trkpt><trkpt lat="45.5674067" lon="10.47866"><ele>348.6666666666667</ele><time>2026-03-29T07:13:53.419Z</time></trkpt><trkpt lat="45.567495" lon="10.478655"><ele>348.3333333333333</ele><time>2026-03-29T07:13:54.419Z</time></trkpt><trkpt lat="45.567585" lon="10.4786483"><ele>348.0</ele><time>2026-03-29T07:13:55.419Z</time></trkpt><trkpt lat="45.5676767" lon="10.4786567"><ele>348.0</ele><time>2026-03-29T07:13:56.419Z</time></trkpt><trkpt lat="45.5677733" lon="10.4786717"><ele>348.0</ele><time>2026-03-29T07:13:57.419Z</time></trkpt><trkpt lat="45.5678683" lon="10.4786917"><ele>348.0</ele><time>2026-03-29T07:13:58.419Z</time></trkpt><trkpt lat="45.5679667" lon="10.4786983"><ele>348.0</ele><time>2026-03-29T07:13:59.419Z</time></trkpt><trkpt lat="45.568065" lon="10.4787033"><ele>348.0</ele><time>2026-03-29T07:14:00.419Z</time></trkpt><trkpt lat="45.56816" lon="10.4787117"><ele>348.5</ele><time>2026-03-29T07:14:01.419Z</time></trkpt><trkpt lat="45.5682533" lon="10.4787133"><ele>349.0</ele><time>2026-03-29T07:14:02.419Z</time></trkpt><trkpt lat="45.568345" lon="10.4787167"><ele>349.5</ele><time>2026-03-29T07:14:03.419Z</time></trkpt><trkpt lat="45.568425" lon="10.4787167"><ele>350.0</ele><time>2026-03-29T07:14:04.419Z</time></trkpt><trkpt lat="45.5685017" lon="10.4787183"><ele>350.5</ele><time>2026-03-29T07:14:05.42Z</time></trkpt><trkpt lat="45.5685967" lon="10.4787217"><ele>351.0</ele><time>2026-03-29T07:14:06.42Z</time></trkpt><trkpt lat="45.5686733" lon="10.4787183"><ele>351.20000000000005</ele><time>2026-03-29T07:14:07.419Z</time></trkpt><trkpt lat="45.5687683" lon="10.4787267"><ele>351.40000000000003</ele><time>2026-03-29T07:14:09.419Z</time></trkpt><trkpt lat="45.568835" lon="10.4787883"><ele>351.6</ele><time>2026-03-29T07:14:13.419Z</time></trkpt><trkpt lat="45.56887" lon="10.4789167"><ele>351.8</ele><time>2026-03-29T07:14:15.419Z</time></trkpt><trkpt lat="45.56889" lon="10.47905"><ele>352.0</ele><time>2026-03-29T07:14:17.419Z</time></trkpt><trkpt lat="45.568925" lon="10.4792067"><ele>352.0</ele><time>2026-03-29T07:14:19.419Z</time></trkpt><trkpt lat="45.56897" lon="10.479355"><ele>352.0</ele><time>2026-03-29T07:14:21.419Z</time></trkpt><trkpt lat="45.5690317" lon="10.47945"><ele>352.0</ele><time>2026-03-29T07:14:23.42Z</time></trkpt><trkpt lat="45.569125" lon="10.4795317"><ele>352.0</ele><time>2026-03-29T07:14:25.419Z</time></trkpt><trkpt lat="45.569205" lon="10.4796067"><ele>352.0</ele><time>2026-03-29T07:14:27.42Z</time></trkpt><trkpt lat="45.5692667" lon="10.479715"><ele>350.20000000000005</ele><time>2026-03-29T07:14:29.419Z</time></trkpt><trkpt lat="45.5693033" lon="10.47979"><ele>348.4</ele><time>2026-03-29T07:14:30.419Z</time></trkpt><trkpt lat="45.5693767" lon="10.4799217"><ele>346.6</ele><time>2026-03-29T07:14:32.419Z</time></trkpt><trkpt lat="45.5694567" lon="10.4800367"><ele>344.79999999999995</ele><time>2026-03-29T07:14:34.419Z</time></trkpt><trkpt lat="45.5695583" lon="10.4801383"><ele>343.0</ele><time>2026-03-29T07:14:36.42Z</time></trkpt><trkpt lat="45.5696167" lon="10.48018"><ele>342.5</ele><time>2026-03-29T07:14:37.419Z</time></trkpt><trkpt lat="45.569685" lon="10.48023"><ele>342.0</ele><time>2026-03-29T07:14:38.42Z</time></trkpt><trkpt lat="45.56976" lon="10.4802833"><ele>341.5</ele><time>2026-03-29T07:14:39.419Z</time></trkpt><trkpt lat="45.569835" lon="10.4803267"><ele>341.0</ele><time>2026-03-29T07:14:40.42Z</time></trkpt><trkpt lat="45.56992" lon="10.4803667"><ele>340.5</ele><time>2026-03-29T07:14:41.42Z</time></trkpt><trkpt lat="45.5699983" lon="10.4803917"><ele>340.0</ele><time>2026-03-29T07:14:42.419Z</time></trkpt><trkpt lat="45.5700767" lon="10.4804117"><ele>337.16666666666663</ele><time>2026-03-29T07:14:43.419Z</time></trkpt><trkpt lat="45.5701483" lon="10.480435"><ele>334.3333333333333</ele><time>2026-03-29T07:14:44.419Z</time></trkpt><trkpt lat="45.5702183" lon="10.4804567"><ele>331.5</ele><time>2026-03-29T07:14:45.42Z</time></trkpt><trkpt lat="45.5702933" lon="10.480465"><ele>328.6666666666667</ele><time>2026-03-29T07:14:46.42Z</time></trkpt><trkpt lat="45.570365" lon="10.4804667"><ele>325.83333333333337</ele><time>2026-03-29T07:14:47.419Z</time></trkpt><trkpt lat="45.5704383" lon="10.4804933"><ele>323.0</ele><time>2026-03-29T07:14:48.42Z</time></trkpt><trkpt lat="45.57052" lon="10.480525"><ele>322.5</ele><time>2026-03-29T07:14:49.419Z</time></trkpt><trkpt lat="45.570595" lon="10.48057"><ele>322.0</ele><time>2026-03-29T07:14:50.419Z</time></trkpt><trkpt lat="45.5706767" lon="10.4806083"><ele>321.5</ele><time>2026-03-29T07:14:51.42Z</time></trkpt><trkpt lat="45.5707483" lon="10.4806467"><ele>321.0</ele><time>2026-03-29T07:14:52.42Z</time></trkpt><trkpt lat="45.570815" lon="10.4806933"><ele>320.5</ele><time>2026-03-29T07:14:53.42Z</time></trkpt><trkpt lat="45.5708717" lon="10.4807433"><ele>320.0</ele><time>2026-03-29T07:14:54.419Z</time></trkpt><trkpt lat="45.57093" lon="10.4807967"><ele>320.0</ele><time>2026-03-29T07:14:55.419Z</time></trkpt><trkpt lat="45.5709867" lon="10.4808433"><ele>320.0</ele><time>2026-03-29T07:14:56.419Z</time></trkpt><trkpt lat="45.571055" lon="10.48096"><ele>320.0</ele><time>2026-03-29T07:14:58.42Z</time></trkpt><trkpt lat="45.5710617" lon="10.4810983"><ele>320.0</ele><time>2026-03-29T07:15:00.419Z</time></trkpt><trkpt lat="45.57099" lon="10.48125"><ele>320.0</ele><time>2026-03-29T07:15:02.419Z</time></trkpt><trkpt lat="45.57091" lon="10.481305"><ele>317.4</ele><time>2026-03-29T07:15:03.419Z</time></trkpt><trkpt lat="45.5708183" lon="10.481335"><ele>314.8</ele><time>2026-03-29T07:15:04.419Z</time></trkpt><trkpt lat="45.5707183" lon="10.48138"><ele>312.2</ele><time>2026-03-29T07:15:05.42Z</time></trkpt><trkpt lat="45.5706467" lon="10.48145"><ele>309.6</ele><time>2026-03-29T07:15:06.419Z</time></trkpt><trkpt lat="45.5705817" lon="10.48154"><ele>307.0</ele><time>2026-03-29T07:15:07.419Z</time></trkpt><trkpt lat="45.570555" lon="10.481645"><ele>307.0</ele><time>2026-03-29T07:15:08.419Z</time></trkpt><trkpt lat="45.5705383" lon="10.481795"><ele>307.0</ele><time>2026-03-29T07:15:09.419Z</time></trkpt><trkpt lat="45.5705233" lon="10.481955"><ele>307.0</ele><time>2026-03-29T07:15:10.419Z</time></trkpt><trkpt lat="45.570515" lon="10.482105"><ele>307.0</ele><time>2026-03-29T07:15:11.419Z</time></trkpt><trkpt lat="45.57052" lon="10.482225"><ele>307.0</ele><time>2026-03-29T07:15:12.419Z</time></trkpt><trkpt lat="45.570525" lon="10.48236"><ele>306.6</ele><time>2026-03-29T07:15:14.419Z</time></trkpt><trkpt lat="45.5705767" lon="10.482415"><ele>306.2</ele><time>2026-03-29T07:15:16.419Z</time></trkpt><trkpt lat="45.5706467" lon="10.4824367"><ele>305.8</ele><time>2026-03-29T07:15:17.419Z</time></trkpt><trkpt lat="45.570745" lon="10.4824517"><ele>305.4</ele><time>2026-03-29T07:15:18.419Z</time></trkpt><trkpt lat="45.57086" lon="10.482465"><ele>305.0</ele><time>2026-03-29T07:15:19.419Z</time></trkpt><trkpt lat="45.5709883" lon="10.48248"><ele>305.0</ele><time>2026-03-29T07:15:20.419Z</time></trkpt><trkpt lat="45.5711317" lon="10.482495"><ele>305.0</ele><time>2026-03-29T07:15:21.419Z</time></trkpt><trkpt lat="45.571275" lon="10.482515"><ele>305.0</ele><time>2026-03-29T07:15:22.419Z</time></trkpt><trkpt lat="45.571425" lon="10.482535"><ele>305.0</ele><time>2026-03-29T07:15:23.419Z</time></trkpt><trkpt lat="45.57157" lon="10.4825467"><ele>303.75</ele><time>2026-03-29T07:15:24.42Z</time></trkpt><trkpt lat="45.57171" lon="10.4825467"><ele>302.5</ele><time>2026-03-29T07:15:25.419Z</time></trkpt><trkpt lat="45.5718417" lon="10.4825433"><ele>301.25</ele><time>2026-03-29T07:15:26.419Z</time></trkpt><trkpt lat="45.5719733" lon="10.4825367"><ele>300.0</ele><time>2026-03-29T07:15:27.42Z</time></trkpt><trkpt lat="45.5720967" lon="10.4825483"><ele>299.5</ele><time>2026-03-29T07:15:28.419Z</time></trkpt><trkpt lat="45.5722233" lon="10.482555"><ele>299.0</ele><time>2026-03-29T07:15:29.419Z</time></trkpt><trkpt lat="45.5723533" lon="10.4825667"><ele>298.5</ele><time>2026-03-29T07:15:30.419Z</time></trkpt><trkpt lat="45.5724883" lon="10.4825533"><ele>298.0</ele><time>2026-03-29T07:15:31.42Z</time></trkpt><trkpt lat="45.572615" lon="10.4825733"><ele>298.0</ele><time>2026-03-29T07:15:32.419Z</time></trkpt><trkpt lat="45.572745" lon="10.48258"><ele>298.0</ele><time>2026-03-29T07:15:33.419Z</time></trkpt><trkpt lat="45.572885" lon="10.4825867"><ele>298.0</ele><time>2026-03-29T07:15:34.419Z</time></trkpt><trkpt lat="45.573025" lon="10.4825983"><ele>298.0</ele><time>2026-03-29T07:15:35.42Z</time></trkpt><trkpt lat="45.5731683" lon="10.482615"><ele>296.0</ele><time>2026-03-29T07:15:36.42Z</time></trkpt><trkpt lat="45.57332" lon="10.4826133"><ele>294.0</ele><time>2026-03-29T07:15:37.419Z</time></trkpt><trkpt lat="45.5734967" lon="10.4826117"><ele>292.0</ele><time>2026-03-29T07:15:38.419Z</time></trkpt><trkpt lat="45.5736617" lon="10.4826283"><ele>290.66666666666663</ele><time>2026-03-29T07:15:39.419Z</time></trkpt><trkpt lat="45.573835" lon="10.4826467"><ele>289.3333333333333</ele><time>2026-03-29T07:15:40.419Z</time></trkpt><trkpt lat="45.5740183" lon="10.4826333"><ele>288.0</ele><time>2026-03-29T07:15:41.42Z</time></trkpt><trkpt lat="45.5741933" lon="10.48264"><ele>288.0</ele><time>2026-03-29T07:15:42.419Z</time></trkpt><trkpt lat="45.5743767" lon="10.4826533"><ele>288.0</ele><time>2026-03-29T07:15:43.419Z</time></trkpt><trkpt lat="45.5745617" lon="10.4826717"><ele>288.0</ele><time>2026-03-29T07:15:44.419Z</time></trkpt><trkpt lat="45.574745" lon="10.4826817"><ele>288.6666666666667</ele><time>2026-03-29T07:15:45.419Z</time></trkpt><trkpt lat="45.574925" lon="10.4826833"><ele>289.33333333333337</ele><time>2026-03-29T07:15:46.419Z</time></trkpt><trkpt lat="45.5750983" lon="10.48266"><ele>290.0</ele><time>2026-03-29T07:15:47.419Z</time></trkpt><trkpt lat="45.5752667" lon="10.48261"><ele>288.6666666666667</ele><time>2026-03-29T07:15:48.42Z</time></trkpt><trkpt lat="45.5754283" lon="10.4825633"><ele>287.3333333333333</ele><time>2026-03-29T07:15:49.419Z</time></trkpt><trkpt lat="45.575575" lon="10.4825217"><ele>286.0</ele><time>2026-03-29T07:15:50.419Z</time></trkpt><trkpt lat="45.5757133" lon="10.48249"><ele>286.0</ele><time>2026-03-29T07:15:51.419Z</time></trkpt><trkpt lat="45.5758483" lon="10.482465"><ele>286.0</ele><time>2026-03-29T07:15:52.419Z</time></trkpt><trkpt lat="45.5759833" lon="10.48243"><ele>286.0</ele><time>2026-03-29T07:15:53.419Z</time></trkpt><trkpt lat="45.5761317" lon="10.482405"><ele>286.0</ele><time>2026-03-29T07:15:54.42Z</time></trkpt><trkpt lat="45.5762933" lon="10.4824"><ele>285.3333333333333</ele><time>2026-03-29T07:15:55.419Z</time></trkpt><trkpt lat="45.5764517" lon="10.4823817"><ele>284.6666666666667</ele><time>2026-03-29T07:15:56.419Z</time></trkpt><trkpt lat="45.5766117" lon="10.4823567"><ele>284.0</ele><time>2026-03-29T07:15:57.419Z</time></trkpt><trkpt lat="45.5767683" lon="10.48234"><ele>284.0</ele><time>2026-03-29T07:15:58.42Z</time></trkpt><trkpt lat="45.57693" lon="10.482325"><ele>284.0</ele><time>2026-03-29T07:15:59.42Z</time></trkpt><trkpt lat="45.5770867" lon="10.4823033"><ele>284.0</ele><time>2026-03-29T07:16:00.42Z</time></trkpt><trkpt lat="45.57724" lon="10.482295"><ele>283.33333333333337</ele><time>2026-03-29T07:16:01.419Z</time></trkpt><trkpt lat="45.5774017" lon="10.4822833"><ele>282.6666666666667</ele><time>2026-03-29T07:16:02.419Z</time></trkpt><trkpt lat="45.57757" lon="10.4822783"><ele>282.0</ele><time>2026-03-29T07:16:03.419Z</time></trkpt><trkpt lat="45.5777483" lon="10.482275"><ele>280.6666666666667</ele><time>2026-03-29T07:16:04.419Z</time></trkpt><trkpt lat="45.57793" lon="10.4822683"><ele>279.33333333333337</ele><time>2026-03-29T07:16:05.419Z</time></trkpt><trkpt lat="45.5781067" lon="10.4822767"><ele>278.0</ele><time>2026-03-29T07:16:06.419Z</time></trkpt><trkpt lat="45.578285" lon="10.4822767"><ele>278.0</ele><time>2026-03-29T07:16:07.419Z</time></trkpt><trkpt lat="45.5784633" lon="10.4822817"><ele>278.0</ele><time>2026-03-29T07:16:08.419Z</time></trkpt><trkpt lat="45.5786467" lon="10.4822867"><ele>278.0</ele><time>2026-03-29T07:16:09.42Z</time></trkpt><trkpt lat="45.5788333" lon="10.4822967"><ele>277.0</ele><time>2026-03-29T07:16:10.419Z</time></trkpt><trkpt lat="45.579025" lon="10.482295"><ele>276.0</ele><time>2026-03-29T07:16:11.419Z</time></trkpt><trkpt lat="45.5792183" lon="10.48231"><ele>275.0</ele><time>2026-03-29T07:16:12.419Z</time></trkpt><trkpt lat="45.5794067" lon="10.4823383"><ele>274.0</ele><time>2026-03-29T07:16:13.419Z</time></trkpt><trkpt lat="45.57959" lon="10.482385"><ele>273.0</ele><time>2026-03-29T07:16:14.419Z</time></trkpt><trkpt lat="45.5797583" lon="10.4824433"><ele>272.0</ele><time>2026-03-29T07:16:15.42Z</time></trkpt><trkpt lat="45.5799333" lon="10.4825283"><ele>272.0</ele><time>2026-03-29T07:16:16.419Z</time></trkpt><trkpt lat="45.5801067" lon="10.482615"><ele>272.0</ele><time>2026-03-29T07:16:17.419Z</time></trkpt><trkpt lat="45.5803" lon="10.4827033"><ele>272.0</ele><time>2026-03-29T07:16:18.419Z</time></trkpt><trkpt lat="45.5804783" lon="10.4827917"><ele>272.0</ele><time>2026-03-29T07:16:19.419Z</time></trkpt><trkpt lat="45.58065" lon="10.482865"><ele>272.0</ele><time>2026-03-29T07:16:20.419Z</time></trkpt><trkpt lat="45.5808133" lon="10.4829433"><ele>272.0</ele><time>2026-03-29T07:16:21.419Z</time></trkpt><trkpt lat="45.5809717" lon="10.4830133"><ele>272.4</ele><time>2026-03-29T07:16:22.419Z</time></trkpt><trkpt lat="45.58111" lon="10.4830767"><ele>272.79999999999995</ele><time>2026-03-29T07:16:23.419Z</time></trkpt><trkpt lat="45.5812283" lon="10.48312"><ele>273.2</ele><time>2026-03-29T07:16:24.419Z</time></trkpt><trkpt lat="45.58132" lon="10.4831567"><ele>273.59999999999997</ele><time>2026-03-29T07:16:25.419Z</time></trkpt><trkpt lat="45.581395" lon="10.48318"><ele>274.0</ele><time>2026-03-29T07:16:26.419Z</time></trkpt><trkpt lat="45.581485" lon="10.4831717"><ele>274.2</ele><time>2026-03-29T07:16:28.419Z</time></trkpt><trkpt lat="45.5815383" lon="10.4830533"><ele>274.4</ele><time>2026-03-29T07:16:30.419Z</time></trkpt><trkpt lat="45.5815433" lon="10.4829367"><ele>274.6</ele><time>2026-03-29T07:16:31.419Z</time></trkpt><trkpt lat="45.5815583" lon="10.4828133"><ele>274.8</ele><time>2026-03-29T07:16:32.419Z</time></trkpt><trkpt lat="45.5815783" lon="10.4826833"><ele>275.0</ele><time>2026-03-29T07:16:33.419Z</time></trkpt><trkpt lat="45.5816083" lon="10.4825483"><ele>274.5</ele><time>2026-03-29T07:16:34.419Z</time></trkpt><trkpt lat="45.58165" lon="10.4824133"><ele>274.0</ele><time>2026-03-29T07:16:35.419Z</time></trkpt><trkpt lat="45.5817" lon="10.4822633"><ele>273.5</ele><time>2026-03-29T07:16:36.419Z</time></trkpt><trkpt lat="45.5817533" lon="10.4820783"><ele>273.0</ele><time>2026-03-29T07:16:37.42Z</time></trkpt><trkpt lat="45.58181" lon="10.4818733"><ele>273.0</ele><time>2026-03-29T07:16:38.419Z</time></trkpt><trkpt lat="45.5818767" lon="10.4816317"><ele>273.0</ele><time>2026-03-29T07:16:39.419Z</time></trkpt><trkpt lat="45.5819567" lon="10.4813617"><ele>273.0</ele><time>2026-03-29T07:16:40.419Z</time></trkpt><trkpt lat="45.58204" lon="10.4810833"><ele>275.5</ele><time>2026-03-29T07:16:41.419Z</time></trkpt><trkpt lat="45.5821333" lon="10.480775"><ele>278.0</ele><time>2026-03-29T07:16:42.419Z</time></trkpt><trkpt lat="45.5822283" lon="10.480465"><ele>277.6666666666667</ele><time>2026-03-29T07:16:43.42Z</time></trkpt><trkpt lat="45.5823183" lon="10.4801867"><ele>277.3333333333333</ele><time>2026-03-29T07:16:44.419Z</time></trkpt><trkpt lat="45.582385" lon="10.4799033"><ele>277.0</ele><time>2026-03-29T07:16:45.419Z</time></trkpt><trkpt lat="45.582415" lon="10.4796283"><ele>277.0</ele><time>2026-03-29T07:16:46.42Z</time></trkpt><trkpt lat="45.5824033" lon="10.4793733"><ele>277.0</ele><time>2026-03-29T07:16:47.419Z</time></trkpt><trkpt lat="45.582365" lon="10.4791217"><ele>277.0</ele><time>2026-03-29T07:16:48.419Z</time></trkpt><trkpt lat="45.582305" lon="10.4788617"><ele>278.66666666666663</ele><time>2026-03-29T07:16:49.42Z</time></trkpt><trkpt lat="45.5822267" lon="10.478585"><ele>280.3333333333333</ele><time>2026-03-29T07:16:50.42Z</time></trkpt><trkpt lat="45.5821283" lon="10.4783083"><ele>282.0</ele><time>2026-03-29T07:16:51.419Z</time></trkpt><trkpt lat="45.582005" lon="10.4780583"><ele>279.6666666666667</ele><time>2026-03-29T07:16:52.42Z</time></trkpt><trkpt lat="45.5818517" lon="10.4778417"><ele>277.33333333333337</ele><time>2026-03-29T07:16:53.419Z</time></trkpt><trkpt lat="45.5816983" lon="10.4776633"><ele>275.0</ele><time>2026-03-29T07:16:54.419Z</time></trkpt><trkpt lat="45.5815383" lon="10.4775483"><ele>275.0</ele><time>2026-03-29T07:16:55.419Z</time></trkpt><trkpt lat="45.5814" lon="10.4774433"><ele>275.0</ele><time>2026-03-29T07:16:56.42Z</time></trkpt><trkpt lat="45.5812833" lon="10.47733"><ele>275.0</ele><time>2026-03-29T07:16:57.419Z</time></trkpt><trkpt lat="45.5811917" lon="10.4772183"><ele>275.0</ele><time>2026-03-29T07:16:58.419Z</time></trkpt><trkpt lat="45.5811333" lon="10.4770983"><ele>272.75</ele><time>2026-03-29T07:16:59.419Z</time></trkpt><trkpt lat="45.58112" lon="10.4769517"><ele>270.5</ele><time>2026-03-29T07:17:00.419Z</time></trkpt><trkpt lat="45.58112" lon="10.4767767"><ele>268.25</ele><time>2026-03-29T07:17:01.419Z</time></trkpt><trkpt lat="45.5811317" lon="10.476585"><ele>266.0</ele><time>2026-03-29T07:17:02.419Z</time></trkpt><trkpt lat="45.5811367" lon="10.476375"><ele>266.33333333333337</ele><time>2026-03-29T07:17:03.419Z</time></trkpt><trkpt lat="45.58114" lon="10.4761533"><ele>266.6666666666667</ele><time>2026-03-29T07:17:04.419Z</time></trkpt><trkpt lat="45.581135" lon="10.4759183"><ele>267.0</ele><time>2026-03-29T07:17:05.42Z</time></trkpt><trkpt lat="45.5811433" lon="10.47569"><ele>267.0</ele><time>2026-03-29T07:17:06.419Z</time></trkpt><trkpt lat="45.5811567" lon="10.4754567"><ele>267.0</ele><time>2026-03-29T07:17:07.42Z</time></trkpt><trkpt lat="45.581185" lon="10.4752467"><ele>267.0</ele><time>2026-03-29T07:17:08.419Z</time></trkpt><trkpt lat="45.581215" lon="10.47504"><ele>267.0</ele><time>2026-03-29T07:17:09.419Z</time></trkpt><trkpt lat="45.5812483" lon="10.47484"><ele>267.0</ele><time>2026-03-29T07:17:10.419Z</time></trkpt><trkpt lat="45.58127" lon="10.47464"><ele>267.0</ele><time>2026-03-29T07:17:11.419Z</time></trkpt><trkpt lat="45.5812783" lon="10.474435"><ele>267.0</ele><time>2026-03-29T07:17:12.42Z</time></trkpt><trkpt lat="45.58128" lon="10.4742433"><ele>267.0</ele><time>2026-03-29T07:17:13.42Z</time></trkpt><trkpt lat="45.58128" lon="10.4740633"><ele>267.0</ele><time>2026-03-29T07:17:14.419Z</time></trkpt><trkpt lat="45.58129" lon="10.4738883"><ele>267.0</ele><time>2026-03-29T07:17:15.419Z</time></trkpt><trkpt lat="45.5813167" lon="10.473685"><ele>267.0</ele><time>2026-03-29T07:17:16.419Z</time></trkpt><trkpt lat="45.5813667" lon="10.4734933"><ele>265.0</ele><time>2026-03-29T07:17:17.419Z</time></trkpt><trkpt lat="45.581445" lon="10.4733083"><ele>263.0</ele><time>2026-03-29T07:17:18.42Z</time></trkpt><trkpt lat="45.5815367" lon="10.4731283"><ele>261.0</ele><time>2026-03-29T07:17:19.42Z</time></trkpt><trkpt lat="45.5816433" lon="10.4729683"><ele>261.6666666666667</ele><time>2026-03-29T07:17:20.419Z</time></trkpt><trkpt lat="45.581775" lon="10.47281"><ele>262.33333333333337</ele><time>2026-03-29T07:17:21.419Z</time></trkpt><trkpt lat="45.581935" lon="10.472655"><ele>263.0</ele><time>2026-03-29T07:17:22.42Z</time></trkpt><trkpt lat="45.58209" lon="10.47251"><ele>263.0</ele><time>2026-03-29T07:17:23.42Z</time></trkpt><trkpt lat="45.5822533" lon="10.4723667"><ele>263.0</ele><time>2026-03-29T07:17:24.419Z</time></trkpt><trkpt lat="45.582415" lon="10.4722233"><ele>263.0</ele><time>2026-03-29T07:17:25.419Z</time></trkpt><trkpt lat="45.5825833" lon="10.4720833"><ele>261.0</ele><time>2026-03-29T07:17:26.419Z</time></trkpt><trkpt lat="45.582745" lon="10.4719383"><ele>259.0</ele><time>2026-03-29T07:17:27.419Z</time></trkpt><trkpt lat="45.582895" lon="10.4717783"><ele>257.0</ele><time>2026-03-29T07:17:28.419Z</time></trkpt><trkpt lat="45.5830233" lon="10.4715833"><ele>258.0</ele><time>2026-03-29T07:17:29.419Z</time></trkpt><trkpt lat="45.5831367" lon="10.4713883"><ele>259.0</ele><time>2026-03-29T07:17:30.419Z</time></trkpt><trkpt lat="45.583235" lon="10.471185"><ele>260.0</ele><time>2026-03-29T07:17:31.419Z</time></trkpt><trkpt lat="45.5833383" lon="10.471005"><ele>260.0</ele><time>2026-03-29T07:17:32.419Z</time></trkpt><trkpt lat="45.5834467" lon="10.4708217"><ele>260.0</ele><time>2026-03-29T07:17:33.419Z</time></trkpt><trkpt lat="45.5835567" lon="10.4706483"><ele>260.0</ele><time>2026-03-29T07:17:34.419Z</time></trkpt><trkpt lat="45.5836767" lon="10.470505"><ele>259.0</ele><time>2026-03-29T07:17:35.419Z</time></trkpt><trkpt lat="45.5838183" lon="10.4703867"><ele>258.0</ele><time>2026-03-29T07:17:36.42Z</time></trkpt><trkpt lat="45.58398" lon="10.4702733"><ele>257.0</ele><time>2026-03-29T07:17:37.419Z</time></trkpt><trkpt lat="45.5841483" lon="10.4701667"><ele>257.0</ele><time>2026-03-29T07:17:38.42Z</time></trkpt><trkpt lat="45.5843217" lon="10.47006"><ele>257.0</ele><time>2026-03-29T07:17:39.419Z</time></trkpt><trkpt lat="45.58448" lon="10.4699483"><ele>257.0</ele><time>2026-03-29T07:17:40.419Z</time></trkpt><trkpt lat="45.58464" lon="10.4698283"><ele>257.33333333333337</ele><time>2026-03-29T07:17:41.419Z</time></trkpt><trkpt lat="45.58478" lon="10.4696917"><ele>257.6666666666667</ele><time>2026-03-29T07:17:42.42Z</time></trkpt><trkpt lat="45.5849" lon="10.4695367"><ele>258.0</ele><time>2026-03-29T07:17:43.419Z</time></trkpt><trkpt lat="45.585025" lon="10.46938"><ele>257.0</ele><time>2026-03-29T07:17:44.419Z</time></trkpt><trkpt lat="45.58514" lon="10.4691833"><ele>256.0</ele><time>2026-03-29T07:17:45.419Z</time></trkpt><trkpt lat="45.5852567" lon="10.4689583"><ele>255.0</ele><time>2026-03-29T07:17:46.419Z</time></trkpt><trkpt lat="45.585365" lon="10.4687133"><ele>252.66666666666669</ele><time>2026-03-29T07:17:47.419Z</time></trkpt><trkpt lat="45.5854767" lon="10.4684483"><ele>250.33333333333334</ele><time>2026-03-29T07:17:48.419Z</time></trkpt><trkpt lat="45.5855917" lon="10.4681783"><ele>248.0</ele><time>2026-03-29T07:17:49.419Z</time></trkpt><trkpt lat="45.58571" lon="10.467915"><ele>248.0</ele><time>2026-03-29T07:17:50.42Z</time></trkpt><trkpt lat="45.5858217" lon="10.467665"><ele>248.0</ele><time>2026-03-29T07:17:51.419Z</time></trkpt><trkpt lat="45.5859267" lon="10.46744"><ele>248.0</ele><time>2026-03-29T07:17:52.419Z</time></trkpt><trkpt lat="45.58604" lon="10.4672317"><ele>249.0</ele><time>2026-03-29T07:17:53.419Z</time></trkpt><trkpt lat="45.5861683" lon="10.467045"><ele>250.0</ele><time>2026-03-29T07:17:54.42Z</time></trkpt><trkpt lat="45.5863017" lon="10.466855"><ele>251.0</ele><time>2026-03-29T07:17:55.419Z</time></trkpt><trkpt lat="45.5864383" lon="10.4666683"><ele>252.33333333333334</ele><time>2026-03-29T07:17:56.419Z</time></trkpt><trkpt lat="45.5865867" lon="10.4664733"><ele>253.66666666666669</ele><time>2026-03-29T07:17:57.419Z</time></trkpt><trkpt lat="45.58674" lon="10.4662717"><ele>255.0</ele><time>2026-03-29T07:17:58.419Z</time></trkpt><trkpt lat="45.5868867" lon="10.4660667"><ele>256.6666666666667</ele><time>2026-03-29T07:17:59.419Z</time></trkpt><trkpt lat="45.587035" lon="10.4658767"><ele>258.33333333333337</ele><time>2026-03-29T07:18:00.419Z</time></trkpt><trkpt lat="45.5871633" lon="10.4656917"><ele>260.0</ele><time>2026-03-29T07:18:01.419Z</time></trkpt><trkpt lat="45.5872717" lon="10.4655283"><ele>260.25</ele><time>2026-03-29T07:18:02.419Z</time></trkpt><trkpt lat="45.5873817" lon="10.465395"><ele>260.5</ele><time>2026-03-29T07:18:03.419Z</time></trkpt><trkpt lat="45.5874783" lon="10.4652467"><ele>260.75</ele><time>2026-03-29T07:18:04.419Z</time></trkpt><trkpt lat="45.587585" lon="10.4651117"><ele>261.0</ele><time>2026-03-29T07:18:05.419Z</time></trkpt><trkpt lat="45.58768" lon="10.4649917"><ele>261.0</ele><time>2026-03-29T07:18:06.42Z</time></trkpt><trkpt lat="45.5877567" lon="10.464895"><ele>261.0</ele><time>2026-03-29T07:18:07.419Z</time></trkpt><trkpt lat="45.587815" lon="10.4648567"><ele>261.0</ele><time>2026-03-29T07:18:08.42Z</time></trkpt><trkpt lat="45.58788" lon="10.46491"><ele>261.0</ele><time>2026-03-29T07:18:10.419Z</time></trkpt><trkpt lat="45.58794" lon="10.4650783"><ele>261.0</ele><time>2026-03-29T07:18:12.419Z</time></trkpt><trkpt lat="45.5879883" lon="10.4651833"><ele>261.8333333333333</ele><time>2026-03-29T07:18:13.419Z</time></trkpt><trkpt lat="45.5880417" lon="10.4652783"><ele>262.6666666666667</ele><time>2026-03-29T07:18:14.419Z</time></trkpt><trkpt lat="45.5880867" lon="10.4653667"><ele>263.5</ele><time>2026-03-29T07:18:15.419Z</time></trkpt><trkpt lat="45.5881367" lon="10.4654717"><ele>264.33333333333337</ele><time>2026-03-29T07:18:17.419Z</time></trkpt><trkpt lat="45.5881167" lon="10.4655667"><ele>265.1666666666667</ele><time>2026-03-29T07:18:19.42Z</time></trkpt><trkpt lat="45.588075" lon="10.4656483"><ele>266.0</ele><time>2026-03-29T07:18:20.42Z</time></trkpt><trkpt lat="45.5880183" lon="10.46575"><ele>266.5</ele><time>2026-03-29T07:18:21.419Z</time></trkpt><trkpt lat="45.58796" lon="10.4658667"><ele>267.0</ele><time>2026-03-29T07:18:22.419Z</time></trkpt><trkpt lat="45.5878917" lon="10.46599"><ele>267.5</ele><time>2026-03-29T07:18:23.42Z</time></trkpt><trkpt lat="45.5878183" lon="10.46613"><ele>268.0</ele><time>2026-03-29T07:18:24.419Z</time></trkpt><trkpt lat="45.5877333" lon="10.4662783"><ele>266.75</ele><time>2026-03-29T07:18:25.419Z</time></trkpt><trkpt lat="45.5876533" lon="10.4664417"><ele>265.5</ele><time>2026-03-29T07:18:26.419Z</time></trkpt><trkpt lat="45.5875817" lon="10.466635"><ele>264.25</ele><time>2026-03-29T07:18:27.42Z</time></trkpt><trkpt lat="45.587525" lon="10.46682"><ele>263.0</ele><time>2026-03-29T07:18:28.419Z</time></trkpt><trkpt lat="45.5874933" lon="10.4669883"><ele>263.5</ele><time>2026-03-29T07:18:29.42Z</time></trkpt><trkpt lat="45.5874783" lon="10.4671633"><ele>264.0</ele><time>2026-03-29T07:18:30.419Z</time></trkpt><trkpt lat="45.58748" lon="10.4673483"><ele>264.5</ele><time>2026-03-29T07:18:31.419Z</time></trkpt><trkpt lat="45.5874983" lon="10.46752"><ele>265.0</ele><time>2026-03-29T07:18:32.419Z</time></trkpt><trkpt lat="45.5875267" lon="10.4676817"><ele>265.0</ele><time>2026-03-29T07:18:33.419Z</time></trkpt><trkpt lat="45.58758" lon="10.4678267"><ele>265.0</ele><time>2026-03-29T07:18:34.42Z</time></trkpt><trkpt lat="45.587655" lon="10.4679617"><ele>265.0</ele><time>2026-03-29T07:18:35.419Z</time></trkpt><trkpt lat="45.5877617" lon="10.4680733"><ele>265.0</ele><time>2026-03-29T07:18:36.419Z</time></trkpt><trkpt lat="45.5878733" lon="10.4681517"><ele>265.0</ele><time>2026-03-29T07:18:37.419Z</time></trkpt><trkpt lat="45.5879617" lon="10.4682133"><ele>265.0</ele><time>2026-03-29T07:18:38.419Z</time></trkpt><trkpt lat="45.588035" lon="10.4682783"><ele>265.0</ele><time>2026-03-29T07:18:39.42Z</time></trkpt><trkpt lat="45.5881017" lon="10.4683767"><ele>265.0</ele><time>2026-03-29T07:18:40.419Z</time></trkpt><trkpt lat="45.588155" lon="10.46849"><ele>265.0</ele><time>2026-03-29T07:18:41.42Z</time></trkpt><trkpt lat="45.58822" lon="10.4686267"><ele>265.0</ele><time>2026-03-29T07:18:42.42Z</time></trkpt><trkpt lat="45.5882867" lon="10.4687717"><ele>265.0</ele><time>2026-03-29T07:18:43.42Z</time></trkpt><trkpt lat="45.58834" lon="10.4689317"><ele>265.0</ele><time>2026-03-29T07:18:44.419Z</time></trkpt><trkpt lat="45.588405" lon="10.4691067"><ele>265.0</ele><time>2026-03-29T07:18:45.419Z</time></trkpt><trkpt lat="45.5884533" lon="10.469285"><ele>263.5</ele><time>2026-03-29T07:18:46.42Z</time></trkpt><trkpt lat="45.5885017" lon="10.46946"><ele>262.0</ele><time>2026-03-29T07:18:47.419Z</time></trkpt><trkpt lat="45.5885417" lon="10.4696217"><ele>260.5</ele><time>2026-03-29T07:18:48.419Z</time></trkpt><trkpt lat="45.5885867" lon="10.46976"><ele>259.0</ele><time>2026-03-29T07:18:49.42Z</time></trkpt><trkpt lat="45.5886367" lon="10.469885"><ele>258.66666666666663</ele><time>2026-03-29T07:18:50.419Z</time></trkpt><trkpt lat="45.58867" lon="10.469975"><ele>258.3333333333333</ele><time>2026-03-29T07:18:51.419Z</time></trkpt><trkpt lat="45.58869" lon="10.4701233"><ele>258.0</ele><time>2026-03-29T07:18:53.419Z</time></trkpt><trkpt lat="45.5886967" lon="10.47022"><ele>257.6666666666667</ele><time>2026-03-29T07:18:54.419Z</time></trkpt><trkpt lat="45.588705" lon="10.4703317"><ele>257.33333333333337</ele><time>2026-03-29T07:18:55.419Z</time></trkpt><trkpt lat="45.5887167" lon="10.4704617"><ele>257.0</ele><time>2026-03-29T07:18:56.419Z</time></trkpt><trkpt lat="45.5887217" lon="10.4705933"><ele>258.0</ele><time>2026-03-29T07:18:57.42Z</time></trkpt><trkpt lat="45.58873" lon="10.4707083"><ele>259.0</ele><time>2026-03-29T07:18:58.419Z</time></trkpt><trkpt lat="45.588755" lon="10.47087"><ele>260.0</ele><time>2026-03-29T07:19:00.419Z</time></trkpt><trkpt lat="45.5887617" lon="10.47096"><ele>261.0</ele><time>2026-03-29T07:19:01.419Z</time></trkpt><trkpt lat="45.5887617" lon="10.4710733"><ele>262.0</ele><time>2026-03-29T07:19:02.419Z</time></trkpt><trkpt lat="45.5887667" lon="10.4712"><ele>263.0</ele><time>2026-03-29T07:19:03.419Z</time></trkpt><trkpt lat="45.58876" lon="10.4713617"><ele>263.25</ele><time>2026-03-29T07:19:04.419Z</time></trkpt><trkpt lat="45.5887533" lon="10.4715417"><ele>263.5</ele><time>2026-03-29T07:19:05.419Z</time></trkpt><trkpt lat="45.5887533" lon="10.4717417"><ele>263.75</ele><time>2026-03-29T07:19:06.419Z</time></trkpt><trkpt lat="45.5887617" lon="10.4719433"><ele>264.0</ele><time>2026-03-29T07:19:07.419Z</time></trkpt><trkpt lat="45.588775" lon="10.47213"><ele>264.5</ele><time>2026-03-29T07:19:08.419Z</time></trkpt><trkpt lat="45.5887933" lon="10.4723083"><ele>265.0</ele><time>2026-03-29T07:19:09.419Z</time></trkpt><trkpt lat="45.58881" lon="10.4724717"><ele>265.5</ele><time>2026-03-29T07:19:10.419Z</time></trkpt><trkpt lat="45.5888383" lon="10.472645"><ele>266.0</ele><time>2026-03-29T07:19:11.419Z</time></trkpt><trkpt lat="45.5888617" lon="10.4728233"><ele>266.25</ele><time>2026-03-29T07:19:12.419Z</time></trkpt><trkpt lat="45.5888917" lon="10.4730017"><ele>266.5</ele><time>2026-03-29T07:19:13.419Z</time></trkpt><trkpt lat="45.5889167" lon="10.4731683"><ele>266.75</ele><time>2026-03-29T07:19:14.419Z</time></trkpt><trkpt lat="45.5889483" lon="10.4733433"><ele>267.0</ele><time>2026-03-29T07:19:15.419Z</time></trkpt><trkpt lat="45.5889733" lon="10.47352"><ele>267.0</ele><time>2026-03-29T07:19:16.419Z</time></trkpt><trkpt lat="45.588985" lon="10.47367"><ele>267.0</ele><time>2026-03-29T07:19:17.419Z</time></trkpt><trkpt lat="45.5889883" lon="10.4738217"><ele>267.0</ele><time>2026-03-29T07:19:18.419Z</time></trkpt><trkpt lat="45.5889917" lon="10.4739933"><ele>267.0</ele><time>2026-03-29T07:19:19.419Z</time></trkpt><trkpt lat="45.588955" lon="10.4741317"><ele>267.0</ele><time>2026-03-29T07:19:20.419Z</time></trkpt><trkpt lat="45.5889267" lon="10.4742933"><ele>266.75</ele><time>2026-03-29T07:19:21.42Z</time></trkpt><trkpt lat="45.5889" lon="10.4744583"><ele>266.5</ele><time>2026-03-29T07:19:22.42Z</time></trkpt><trkpt lat="45.5888767" lon="10.4746317"><ele>266.25</ele><time>2026-03-29T07:19:23.419Z</time></trkpt><trkpt lat="45.588865" lon="10.4747883"><ele>266.0</ele><time>2026-03-29T07:19:24.419Z</time></trkpt><trkpt lat="45.58887" lon="10.47495"><ele>265.8</ele><time>2026-03-29T07:19:25.419Z</time></trkpt><trkpt lat="45.5888817" lon="10.4751067"><ele>265.6</ele><time>2026-03-29T07:19:26.419Z</time></trkpt><trkpt lat="45.588885" lon="10.4752617"><ele>265.4</ele><time>2026-03-29T07:19:27.419Z</time></trkpt><trkpt lat="45.5888683" lon="10.475415"><ele>265.2</ele><time>2026-03-29T07:19:28.419Z</time></trkpt><trkpt lat="45.5888433" lon="10.4755633"><ele>265.0</ele><time>2026-03-29T07:19:29.419Z</time></trkpt><trkpt lat="45.5888183" lon="10.4757183"><ele>265.0</ele><time>2026-03-29T07:19:30.419Z</time></trkpt><trkpt lat="45.5888117" lon="10.475845"><ele>265.0</ele><time>2026-03-29T07:19:31.419Z</time></trkpt><trkpt lat="45.5888117" lon="10.47595"><ele>265.0</ele><time>2026-03-29T07:19:32.419Z</time></trkpt><trkpt lat="45.5888267" lon="10.47605"><ele>265.0</ele><time>2026-03-29T07:19:33.419Z</time></trkpt><trkpt lat="45.58886" lon="10.4761883"><ele>265.0</ele><time>2026-03-29T07:19:34.419Z</time></trkpt><trkpt lat="45.5889033" lon="10.4763217"><ele>265.0</ele><time>2026-03-29T07:19:35.419Z</time></trkpt><trkpt lat="45.5889367" lon="10.4764767"><ele>265.25</ele><time>2026-03-29T07:19:36.419Z</time></trkpt><trkpt lat="45.5889517" lon="10.4766533"><ele>265.5</ele><time>2026-03-29T07:19:37.42Z</time></trkpt><trkpt lat="45.5889633" lon="10.4768333"><ele>265.75</ele><time>2026-03-29T07:19:38.419Z</time></trkpt><trkpt lat="45.5889683" lon="10.4770133"><ele>266.0</ele><time>2026-03-29T07:19:39.419Z</time></trkpt><trkpt lat="45.58898" lon="10.4771883"><ele>267.5</ele><time>2026-03-29T07:19:40.42Z</time></trkpt><trkpt lat="45.5889833" lon="10.4773767"><ele>269.0</ele><time>2026-03-29T07:19:41.419Z</time></trkpt><trkpt lat="45.5889933" lon="10.4775517"><ele>270.5</ele><time>2026-03-29T07:19:42.419Z</time></trkpt><trkpt lat="45.5890033" lon="10.4777117"><ele>272.0</ele><time>2026-03-29T07:19:43.419Z</time></trkpt><trkpt lat="45.58901" lon="10.4778517"><ele>272.5</ele><time>2026-03-29T07:19:44.419Z</time></trkpt><trkpt lat="45.58901" lon="10.4779817"><ele>273.0</ele><time>2026-03-29T07:19:45.42Z</time></trkpt><trkpt lat="45.5890167" lon="10.4780833"><ele>273.5</ele><time>2026-03-29T07:19:46.419Z</time></trkpt><trkpt lat="45.58908" lon="10.4782"><ele>274.0</ele><time>2026-03-29T07:19:48.419Z</time></trkpt><trkpt lat="45.5891567" lon="10.4782117"><ele>274.5</ele><time>2026-03-29T07:19:49.42Z</time></trkpt><trkpt lat="45.5892617" lon="10.478225"><ele>275.0</ele><time>2026-03-29T07:19:50.42Z</time></trkpt><trkpt lat="45.589385" lon="10.4782583"><ele>275.5</ele><time>2026-03-29T07:19:51.419Z</time></trkpt><trkpt lat="45.5895133" lon="10.4783"><ele>276.0</ele><time>2026-03-29T07:19:52.42Z</time></trkpt><trkpt lat="45.589645" lon="10.4783617"><ele>276.5</ele><time>2026-03-29T07:19:53.419Z</time></trkpt><trkpt lat="45.5897683" lon="10.4784283"><ele>277.0</ele><time>2026-03-29T07:19:54.419Z</time></trkpt><trkpt lat="45.5898867" lon="10.4785133"><ele>277.0</ele><time>2026-03-29T07:19:55.42Z</time></trkpt><trkpt lat="45.59001" lon="10.4786183"><ele>277.0</ele><time>2026-03-29T07:19:56.42Z</time></trkpt><trkpt lat="45.590125" lon="10.47872"><ele>277.0</ele><time>2026-03-29T07:19:57.419Z</time></trkpt><trkpt lat="45.5902467" lon="10.4788133"><ele>277.0</ele><time>2026-03-29T07:19:58.419Z</time></trkpt><trkpt lat="45.59037" lon="10.4789117"><ele>278.0</ele><time>2026-03-29T07:19:59.419Z</time></trkpt><trkpt lat="45.59049" lon="10.4789867"><ele>279.0</ele><time>2026-03-29T07:20:00.42Z</time></trkpt><trkpt lat="45.5906133" lon="10.4790483"><ele>280.0</ele><time>2026-03-29T07:20:01.419Z</time></trkpt><trkpt lat="45.5907367" lon="10.4791217"><ele>281.0</ele><time>2026-03-29T07:20:02.419Z</time></trkpt><trkpt lat="45.5908483" lon="10.4792133"><ele>281.0</ele><time>2026-03-29T07:20:03.419Z</time></trkpt><trkpt lat="45.5909533" lon="10.4792917"><ele>281.0</ele><time>2026-03-29T07:20:04.419Z</time></trkpt><trkpt lat="45.5910467" lon="10.4793683"><ele>281.0</ele><time>2026-03-29T07:20:05.419Z</time></trkpt><trkpt lat="45.5911333" lon="10.4794183"><ele>281.0</ele><time>2026-03-29T07:20:06.42Z</time></trkpt><trkpt lat="45.591225" lon="10.47945"><ele>281.0</ele><time>2026-03-29T07:20:07.42Z</time></trkpt><trkpt lat="45.591325" lon="10.47948"><ele>281.25</ele><time>2026-03-29T07:20:08.419Z</time></trkpt><trkpt lat="45.5914433" lon="10.479515"><ele>281.5</ele><time>2026-03-29T07:20:09.419Z</time></trkpt><trkpt lat="45.59158" lon="10.479545"><ele>281.75</ele><time>2026-03-29T07:20:10.419Z</time></trkpt><trkpt lat="45.59171" lon="10.4795767"><ele>282.0</ele><time>2026-03-29T07:20:11.419Z</time></trkpt><trkpt lat="45.591845" lon="10.4796117"><ele>283.25</ele><time>2026-03-29T07:20:12.419Z</time></trkpt><trkpt lat="45.5919717" lon="10.4796483"><ele>284.5</ele><time>2026-03-29T07:20:13.42Z</time></trkpt><trkpt lat="45.5920917" lon="10.4796967"><ele>285.75</ele><time>2026-03-29T07:20:14.42Z</time></trkpt><trkpt lat="45.592195" lon="10.4797717"><ele>287.0</ele><time>2026-03-29T07:20:15.419Z</time></trkpt><trkpt lat="45.5923233" lon="10.479835"><ele>287.75</ele><time>2026-03-29T07:20:16.419Z</time></trkpt><trkpt lat="45.592435" lon="10.4799133"><ele>288.5</ele><time>2026-03-29T07:20:17.419Z</time></trkpt><trkpt lat="45.5925383" lon="10.4799833"><ele>289.25</ele><time>2026-03-29T07:20:18.42Z</time></trkpt><trkpt lat="45.5926533" lon="10.4800317"><ele>290.0</ele><time>2026-03-29T07:20:19.419Z</time></trkpt><trkpt lat="45.592765" lon="10.4800517"><ele>290.2</ele><time>2026-03-29T07:20:20.419Z</time></trkpt><trkpt lat="45.5928567" lon="10.4800733"><ele>290.4</ele><time>2026-03-29T07:20:21.419Z</time></trkpt><trkpt lat="45.5929317" lon="10.4800933"><ele>290.6</ele><time>2026-03-29T07:20:22.419Z</time></trkpt><trkpt lat="45.5930267" lon="10.4800933"><ele>290.8</ele><time>2026-03-29T07:20:24.42Z</time></trkpt><trkpt lat="45.5931117" lon="10.48008"><ele>291.0</ele><time>2026-03-29T07:20:35.419Z</time></trkpt><trkpt lat="45.593215" lon="10.480065"><ele>291.0</ele><time>2026-03-29T07:20:37.419Z</time></trkpt><trkpt lat="45.593325" lon="10.4800333"><ele>291.0</ele><time>2026-03-29T07:20:39.419Z</time></trkpt><trkpt lat="45.59342" lon="10.4799783"><ele>291.0</ele><time>2026-03-29T07:20:41.419Z</time></trkpt><trkpt lat="45.593505" lon="10.4799267"><ele>291.0</ele><time>2026-03-29T07:20:43.419Z</time></trkpt><trkpt lat="45.5936083" lon="10.4799217"><ele>291.0</ele><time>2026-03-29T07:20:45.419Z</time></trkpt><trkpt lat="45.5937183" lon="10.4799433"><ele>291.42857142857144</ele><time>2026-03-29T07:20:47.42Z</time></trkpt><trkpt lat="45.5937817" lon="10.47996"><ele>291.85714285714283</ele><time>2026-03-29T07:20:48.419Z</time></trkpt><trkpt lat="45.5938483" lon="10.47998"><ele>292.2857142857143</ele><time>2026-03-29T07:20:49.419Z</time></trkpt><trkpt lat="45.5939167" lon="10.4799967"><ele>292.7142857142857</ele><time>2026-03-29T07:20:50.419Z</time></trkpt><trkpt lat="45.5939783" lon="10.4800167"><ele>293.1428571428571</ele><time>2026-03-29T07:20:51.419Z</time></trkpt><trkpt lat="45.5940433" lon="10.4800283"><ele>293.57142857142856</ele><time>2026-03-29T07:20:52.42Z</time></trkpt><trkpt lat="45.594145" lon="10.48004"><ele>294.0</ele><time>2026-03-29T07:20:54.419Z</time></trkpt><trkpt lat="45.5942333" lon="10.48003"><ele>294.0</ele><time>2026-03-29T07:20:57.419Z</time></trkpt><trkpt lat="45.5942967" lon="10.4799883"><ele>294.0</ele><time>2026-03-29T07:20:59.419Z</time></trkpt><trkpt lat="45.5943367" lon="10.479915"><ele>294.0</ele><time>2026-03-29T07:21:00.419Z</time></trkpt><trkpt lat="45.594375" lon="10.4798083"><ele>294.0</ele><time>2026-03-29T07:21:01.419Z</time></trkpt><trkpt lat="45.59442" lon="10.4796617"><ele>294.0</ele><time>2026-03-29T07:21:02.419Z</time></trkpt><trkpt lat="45.5944717" lon="10.4794883"><ele>295.0</ele><time>2026-03-29T07:21:03.42Z</time></trkpt><trkpt lat="45.5944983" lon="10.4793083"><ele>296.0</ele><time>2026-03-29T07:21:04.419Z</time></trkpt><trkpt lat="45.5945067" lon="10.4791267"><ele>297.0</ele><time>2026-03-29T07:21:05.419Z</time></trkpt><trkpt lat="45.5944767" lon="10.4789517"><ele>298.0</ele><time>2026-03-29T07:21:06.419Z</time></trkpt><trkpt lat="45.5944167" lon="10.47879"><ele>300.5</ele><time>2026-03-29T07:21:07.42Z</time></trkpt><trkpt lat="45.5943367" lon="10.4786283"><ele>303.0</ele><time>2026-03-29T07:21:08.419Z</time></trkpt><trkpt lat="45.5942467" lon="10.47846"><ele>305.5</ele><time>2026-03-29T07:21:09.419Z</time></trkpt><trkpt lat="45.5941483" lon="10.4782833"><ele>308.0</ele><time>2026-03-29T07:21:10.42Z</time></trkpt><trkpt lat="45.59404" lon="10.47811"><ele>308.0</ele><time>2026-03-29T07:21:11.42Z</time></trkpt><trkpt lat="45.593935" lon="10.47796"><ele>308.0</ele><time>2026-03-29T07:21:12.419Z</time></trkpt><trkpt lat="45.5938483" lon="10.4778167"><ele>308.0</ele><time>2026-03-29T07:21:13.419Z</time></trkpt><trkpt lat="45.593765" lon="10.4776583"><ele>308.0</ele><time>2026-03-29T07:21:14.419Z</time></trkpt><trkpt lat="45.5936983" lon="10.47749"><ele>308.6666666666667</ele><time>2026-03-29T07:21:15.419Z</time></trkpt><trkpt lat="45.5936283" lon="10.4773133"><ele>309.3333333333333</ele><time>2026-03-29T07:21:16.419Z</time></trkpt><trkpt lat="45.59355" lon="10.4771183"><ele>310.0</ele><time>2026-03-29T07:21:17.419Z</time></trkpt><trkpt lat="45.59348" lon="10.4769067"><ele>311.3333333333333</ele><time>2026-03-29T07:21:18.419Z</time></trkpt><trkpt lat="45.5934117" lon="10.4766833"><ele>312.6666666666667</ele><time>2026-03-29T07:21:19.419Z</time></trkpt><trkpt lat="45.59336" lon="10.4764217"><ele>314.0</ele><time>2026-03-29T07:21:20.419Z</time></trkpt><trkpt lat="45.5933133" lon="10.47614"><ele>318.0</ele><time>2026-03-29T07:21:21.419Z</time></trkpt><trkpt lat="45.59326" lon="10.4758517"><ele>322.0</ele><time>2026-03-29T07:21:22.419Z</time></trkpt><trkpt lat="45.5932117" lon="10.4755617"><ele>326.0</ele><time>2026-03-29T07:21:23.419Z</time></trkpt><trkpt lat="45.59316" lon="10.4752817"><ele>327.6666666666667</ele><time>2026-03-29T07:21:24.419Z</time></trkpt><trkpt lat="45.593115" lon="10.4749967"><ele>329.3333333333333</ele><time>2026-03-29T07:21:25.42Z</time></trkpt><trkpt lat="45.5930817" lon="10.474735"><ele>331.0</ele><time>2026-03-29T07:21:26.419Z</time></trkpt><trkpt lat="45.593055" lon="10.4745"><ele>332.25</ele><time>2026-03-29T07:21:27.419Z</time></trkpt><trkpt lat="45.5930317" lon="10.474295"><ele>333.5</ele><time>2026-03-29T07:21:28.419Z</time></trkpt><trkpt lat="45.5930117" lon="10.474125"><ele>334.75</ele><time>2026-03-29T07:21:29.419Z</time></trkpt><trkpt lat="45.592995" lon="10.4739767"><ele>336.0</ele><time>2026-03-29T07:21:30.419Z</time></trkpt><trkpt lat="45.59301" lon="10.4738133"><ele>335.8</ele><time>2026-03-29T07:21:31.419Z</time></trkpt><trkpt lat="45.593005" lon="10.4736817"><ele>335.6</ele><time>2026-03-29T07:21:32.419Z</time></trkpt><trkpt lat="45.592995" lon="10.473545"><ele>335.4</ele><time>2026-03-29T07:21:33.419Z</time></trkpt><trkpt lat="45.5929783" lon="10.4733933"><ele>335.2</ele><time>2026-03-29T07:21:34.419Z</time></trkpt><trkpt lat="45.5929467" lon="10.473245"><ele>335.0</ele><time>2026-03-29T07:21:35.419Z</time></trkpt><trkpt lat="45.5929167" lon="10.4731117"><ele>335.0</ele><time>2026-03-29T07:21:36.419Z</time></trkpt><trkpt lat="45.5928867" lon="10.47299"><ele>335.0</ele><time>2026-03-29T07:21:37.419Z</time></trkpt><trkpt lat="45.59286" lon="10.4728667"><ele>335.0</ele><time>2026-03-29T07:21:38.42Z</time></trkpt><trkpt lat="45.5928233" lon="10.4727567"><ele>335.0</ele><time>2026-03-29T07:21:39.42Z</time></trkpt><trkpt lat="45.5927833" lon="10.47262"><ele>335.0</ele><time>2026-03-29T07:21:40.419Z</time></trkpt><trkpt lat="45.5927217" lon="10.4724483"><ele>330.75</ele><time>2026-03-29T07:21:41.42Z</time></trkpt><trkpt lat="45.5926533" lon="10.4722717"><ele>326.5</ele><time>2026-03-29T07:21:42.419Z</time></trkpt><trkpt lat="45.5925817" lon="10.4720783"><ele>322.25</ele><time>2026-03-29T07:21:43.419Z</time></trkpt><trkpt lat="45.5925117" lon="10.4718917"><ele>318.0</ele><time>2026-03-29T07:21:44.419Z</time></trkpt><trkpt lat="45.592445" lon="10.4717083"><ele>318.0</ele><time>2026-03-29T07:21:45.419Z</time></trkpt><trkpt lat="45.5923733" lon="10.4715033"><ele>318.0</ele><time>2026-03-29T07:21:46.419Z</time></trkpt><trkpt lat="45.5922933" lon="10.4713033"><ele>318.0</ele><time>2026-03-29T07:21:47.42Z</time></trkpt><trkpt lat="45.5922117" lon="10.4710983"><ele>318.75</ele><time>2026-03-29T07:21:48.419Z</time></trkpt><trkpt lat="45.592145" lon="10.47091"><ele>319.5</ele><time>2026-03-29T07:21:49.419Z</time></trkpt><trkpt lat="45.5920867" lon="10.4707133"><ele>320.25</ele><time>2026-03-29T07:21:50.419Z</time></trkpt><trkpt lat="45.59205" lon="10.4705367"><ele>321.0</ele><time>2026-03-29T07:21:51.419Z</time></trkpt><trkpt lat="45.59203" lon="10.4703967"><ele>321.8333333333333</ele><time>2026-03-29T07:21:52.419Z</time></trkpt><trkpt lat="45.59201" lon="10.4702967"><ele>322.6666666666667</ele><time>2026-03-29T07:21:53.419Z</time></trkpt><trkpt lat="45.592005" lon="10.4701817"><ele>323.5</ele><time>2026-03-29T07:21:55.419Z</time></trkpt><trkpt lat="45.591995" lon="10.4700883"><ele>324.33333333333337</ele><time>2026-03-29T07:21:59.42Z</time></trkpt><trkpt lat="45.5919917" lon="10.4699717"><ele>325.1666666666667</ele><time>2026-03-29T07:22:02.419Z</time></trkpt><trkpt lat="45.591995" lon="10.4698667"><ele>326.0</ele><time>2026-03-29T07:22:03.419Z</time></trkpt><trkpt lat="45.5919917" lon="10.469735"><ele>322.40000000000003</ele><time>2026-03-29T07:22:04.419Z</time></trkpt><trkpt lat="45.5919867" lon="10.46959"><ele>318.8</ele><time>2026-03-29T07:22:05.419Z</time></trkpt><trkpt lat="45.5919683" lon="10.46944"><ele>315.20000000000005</ele><time>2026-03-29T07:22:06.42Z</time></trkpt><trkpt lat="45.59192" lon="10.4693167"><ele>311.6</ele><time>2026-03-29T07:22:07.419Z</time></trkpt><trkpt lat="45.5918583" lon="10.4692367"><ele>308.0</ele><time>2026-03-29T07:22:08.42Z</time></trkpt><trkpt lat="45.5917767" lon="10.4691933"><ele>308.0</ele><time>2026-03-29T07:22:09.419Z</time></trkpt><trkpt lat="45.59168" lon="10.4691767"><ele>308.0</ele><time>2026-03-29T07:22:10.419Z</time></trkpt><trkpt lat="45.5915833" lon="10.4692617"><ele>308.0</ele><time>2026-03-29T07:22:11.42Z</time></trkpt><trkpt lat="45.5915067" lon="10.4693433"><ele>308.0</ele><time>2026-03-29T07:22:12.419Z</time></trkpt><trkpt lat="45.591445" lon="10.469445"><ele>308.0</ele><time>2026-03-29T07:22:13.419Z</time></trkpt><trkpt lat="45.591385" lon="10.46955"><ele>308.1666666666667</ele><time>2026-03-29T07:22:14.419Z</time></trkpt><trkpt lat="45.59133" lon="10.4696133"><ele>308.33333333333337</ele><time>2026-03-29T07:22:15.419Z</time></trkpt><trkpt lat="45.591265" lon="10.4696367"><ele>308.5</ele><time>2026-03-29T07:22:16.42Z</time></trkpt><trkpt lat="45.5912017" lon="10.4696183"><ele>308.6666666666667</ele><time>2026-03-29T07:22:17.419Z</time></trkpt><trkpt lat="45.5911467" lon="10.4695117"><ele>308.8333333333333</ele><time>2026-03-29T07:22:18.419Z</time></trkpt><trkpt lat="45.5911" lon="10.469355"><ele>309.0</ele><time>2026-03-29T07:22:19.419Z</time></trkpt><trkpt lat="45.5910417" lon="10.4692133"><ele>306.75</ele><time>2026-03-29T07:22:20.419Z</time></trkpt><trkpt lat="45.5909783" lon="10.4690583"><ele>304.5</ele><time>2026-03-29T07:22:21.419Z</time></trkpt><trkpt lat="45.59092" lon="10.4689133"><ele>302.25</ele><time>2026-03-29T07:22:22.42Z</time></trkpt><trkpt lat="45.5908617" lon="10.468735"><ele>300.0</ele><time>2026-03-29T07:22:23.419Z</time></trkpt><trkpt lat="45.590805" lon="10.46853"><ele>298.6666666666667</ele><time>2026-03-29T07:22:24.419Z</time></trkpt><trkpt lat="45.5907533" lon="10.4683283"><ele>297.33333333333337</ele><time>2026-03-29T07:22:25.419Z</time></trkpt><trkpt lat="45.590705" lon="10.46811"><ele>296.0</ele><time>2026-03-29T07:22:26.419Z</time></trkpt><trkpt lat="45.5906517" lon="10.4678833"><ele>295.0</ele><time>2026-03-29T07:22:27.419Z</time></trkpt><trkpt lat="45.5905967" lon="10.46765"><ele>294.0</ele><time>2026-03-29T07:22:28.42Z</time></trkpt><trkpt lat="45.5905433" lon="10.46741"><ele>293.0</ele><time>2026-03-29T07:22:29.419Z</time></trkpt><trkpt lat="45.59049" lon="10.467165"><ele>291.0</ele><time>2026-03-29T07:22:30.419Z</time></trkpt><trkpt lat="45.5904533" lon="10.4669117"><ele>289.0</ele><time>2026-03-29T07:22:31.419Z</time></trkpt><trkpt lat="45.5904217" lon="10.46665"><ele>287.0</ele><time>2026-03-29T07:22:32.419Z</time></trkpt><trkpt lat="45.5903917" lon="10.4664067"><ele>284.6666666666667</ele><time>2026-03-29T07:22:33.419Z</time></trkpt><trkpt lat="45.5903383" lon="10.466185"><ele>282.3333333333333</ele><time>2026-03-29T07:22:34.419Z</time></trkpt><trkpt lat="45.59026" lon="10.465965"><ele>280.0</ele><time>2026-03-29T07:22:35.419Z</time></trkpt><trkpt lat="45.59016" lon="10.4657367"><ele>280.0</ele><time>2026-03-29T07:22:36.419Z</time></trkpt><trkpt lat="45.5900433" lon="10.46551"><ele>280.0</ele><time>2026-03-29T07:22:37.42Z</time></trkpt><trkpt lat="45.58994" lon="10.4653033"><ele>280.0</ele><time>2026-03-29T07:22:38.419Z</time></trkpt><trkpt lat="45.5898483" lon="10.46514"><ele>278.3333333333333</ele><time>2026-03-29T07:22:39.419Z</time></trkpt><trkpt lat="45.589745" lon="10.4649867"><ele>276.6666666666667</ele><time>2026-03-29T07:22:40.419Z</time></trkpt><trkpt lat="45.58962" lon="10.464865"><ele>275.0</ele><time>2026-03-29T07:22:41.419Z</time></trkpt><trkpt lat="45.5894633" lon="10.464785"><ele>275.0</ele><time>2026-03-29T07:22:42.42Z</time></trkpt><trkpt lat="45.5893" lon="10.46472"><ele>275.0</ele><time>2026-03-29T07:22:43.419Z</time></trkpt><trkpt lat="45.589125" lon="10.464705"><ele>275.0</ele><time>2026-03-29T07:22:44.419Z</time></trkpt><trkpt lat="45.5889583" lon="10.464725"><ele>275.0</ele><time>2026-03-29T07:22:45.419Z</time></trkpt><trkpt lat="45.5887967" lon="10.4647533"><ele>275.0</ele><time>2026-03-29T07:22:46.419Z</time></trkpt><trkpt lat="45.58866" lon="10.464775"><ele>275.0</ele><time>2026-03-29T07:22:47.419Z</time></trkpt><trkpt lat="45.5885533" lon="10.4647883"><ele>275.0</ele><time>2026-03-29T07:22:48.419Z</time></trkpt><trkpt lat="45.588475" lon="10.4647533"><ele>273.2</ele><time>2026-03-29T07:22:49.42Z</time></trkpt><trkpt lat="45.5884183" lon="10.4646683"><ele>271.4</ele><time>2026-03-29T07:22:50.419Z</time></trkpt><trkpt lat="45.58838" lon="10.4645517"><ele>269.6</ele><time>2026-03-29T07:22:51.419Z</time></trkpt><trkpt lat="45.58836" lon="10.46441"><ele>267.8</ele><time>2026-03-29T07:22:52.419Z</time></trkpt><trkpt lat="45.5883383" lon="10.4642483"><ele>266.0</ele><time>2026-03-29T07:22:53.419Z</time></trkpt><trkpt lat="45.58831" lon="10.4640833"><ele>265.8</ele><time>2026-03-29T07:22:54.42Z</time></trkpt><trkpt lat="45.5882817" lon="10.46392"><ele>265.6</ele><time>2026-03-29T07:22:55.42Z</time></trkpt><trkpt lat="45.5882517" lon="10.4637717"><ele>265.4</ele><time>2026-03-29T07:22:56.419Z</time></trkpt><trkpt lat="45.5882167" lon="10.4636317"><ele>265.2</ele><time>2026-03-29T07:22:57.42Z</time></trkpt><trkpt lat="45.58818" lon="10.463505"><ele>265.0</ele><time>2026-03-29T07:22:58.419Z</time></trkpt><trkpt lat="45.5881583" lon="10.4633767"><ele>265.0</ele><time>2026-03-29T07:22:59.419Z</time></trkpt><trkpt lat="45.5881433" lon="10.4632467"><ele>265.0</ele><time>2026-03-29T07:23:00.42Z</time></trkpt><trkpt lat="45.5881433" lon="10.463105"><ele>265.0</ele><time>2026-03-29T07:23:01.42Z</time></trkpt><trkpt lat="45.5881567" lon="10.4629583"><ele>265.0</ele><time>2026-03-29T07:23:02.419Z</time></trkpt><trkpt lat="45.588195" lon="10.4628133"><ele>265.0</ele><time>2026-03-29T07:23:03.419Z</time></trkpt><trkpt lat="45.5882417" lon="10.462675"><ele>265.0</ele><time>2026-03-29T07:23:04.419Z</time></trkpt><trkpt lat="45.588305" lon="10.4625367"><ele>265.0</ele><time>2026-03-29T07:23:05.419Z</time></trkpt><trkpt lat="45.5883767" lon="10.462395"><ele>265.0</ele><time>2026-03-29T07:23:06.419Z</time></trkpt><trkpt lat="45.58843" lon="10.4622233"><ele>265.0</ele><time>2026-03-29T07:23:07.42Z</time></trkpt><trkpt lat="45.5884867" lon="10.4620717"><ele>265.25</ele><time>2026-03-29T07:23:08.42Z</time></trkpt><trkpt lat="45.5885583" lon="10.461895"><ele>265.5</ele><time>2026-03-29T07:23:09.42Z</time></trkpt><trkpt lat="45.588605" lon="10.4617083"><ele>265.75</ele><time>2026-03-29T07:23:10.419Z</time></trkpt><trkpt lat="45.5886467" lon="10.4615117"><ele>266.0</ele><time>2026-03-29T07:23:11.419Z</time></trkpt><trkpt lat="45.5886667" lon="10.461305"><ele>265.33333333333337</ele><time>2026-03-29T07:23:12.42Z</time></trkpt><trkpt lat="45.5886767" lon="10.4610967"><ele>264.6666666666667</ele><time>2026-03-29T07:23:13.419Z</time></trkpt><trkpt lat="45.5886783" lon="10.4608717"><ele>264.0</ele><time>2026-03-29T07:23:14.419Z</time></trkpt><trkpt lat="45.5886733" lon="10.4606433"><ele>263.3333333333333</ele><time>2026-03-29T07:23:15.419Z</time></trkpt><trkpt lat="45.5886433" lon="10.460405"><ele>262.66666666666663</ele><time>2026-03-29T07:23:16.42Z</time></trkpt><trkpt lat="45.5886517" lon="10.4601433"><ele>262.0</ele><time>2026-03-29T07:23:17.419Z</time></trkpt><trkpt lat="45.5886667" lon="10.45988"><ele>262.0</ele><time>2026-03-29T07:23:18.419Z</time></trkpt><trkpt lat="45.5886667" lon="10.4596233"><ele>262.0</ele><time>2026-03-29T07:23:19.419Z</time></trkpt><trkpt lat="45.5886683" lon="10.4593533"><ele>262.0</ele><time>2026-03-29T07:23:20.42Z</time></trkpt><trkpt lat="45.58868" lon="10.4591083"><ele>260.3333333333333</ele><time>2026-03-29T07:23:21.419Z</time></trkpt><trkpt lat="45.5887217" lon="10.4588767"><ele>258.6666666666667</ele><time>2026-03-29T07:23:22.419Z</time></trkpt><trkpt lat="45.58881" lon="10.4586517"><ele>257.0</ele><time>2026-03-29T07:23:23.42Z</time></trkpt><trkpt lat="45.5889033" lon="10.4584267"><ele>257.0</ele><time>2026-03-29T07:23:24.419Z</time></trkpt><trkpt lat="45.5890083" lon="10.4581983"><ele>257.0</ele><time>2026-03-29T07:23:25.419Z</time></trkpt><trkpt lat="45.58912" lon="10.4579517"><ele>257.0</ele><time>2026-03-29T07:23:26.419Z</time></trkpt><trkpt lat="45.5892167" lon="10.4576983"><ele>259.6666666666667</ele><time>2026-03-29T07:23:27.419Z</time></trkpt><trkpt lat="45.58932" lon="10.4574517"><ele>262.3333333333333</ele><time>2026-03-29T07:23:28.419Z</time></trkpt><trkpt lat="45.5894317" lon="10.4571883"><ele>265.0</ele><time>2026-03-29T07:23:29.419Z</time></trkpt><trkpt lat="45.5895517" lon="10.45695"><ele>258.0</ele><time>2026-03-29T07:23:30.419Z</time></trkpt><trkpt lat="45.5896717" lon="10.45671"><ele>251.0</ele><time>2026-03-29T07:23:31.42Z</time></trkpt><trkpt lat="45.589775" lon="10.4564883"><ele>244.0</ele><time>2026-03-29T07:23:32.419Z</time></trkpt><trkpt lat="45.5898583" lon="10.456265"><ele>243.0</ele><time>2026-03-29T07:23:33.419Z</time></trkpt><trkpt lat="45.589925" lon="10.456055"><ele>242.0</ele><time>2026-03-29T07:23:34.419Z</time></trkpt><trkpt lat="45.5899667" lon="10.455855"><ele>241.0</ele><time>2026-03-29T07:23:35.419Z</time></trkpt><trkpt lat="45.5899567" lon="10.455695"><ele>240.0</ele><time>2026-03-29T07:23:36.419Z</time></trkpt><trkpt lat="45.58991" lon="10.45555"><ele>237.0</ele><time>2026-03-29T07:23:37.42Z</time></trkpt><trkpt lat="45.5898367" lon="10.4554017"><ele>234.0</ele><time>2026-03-29T07:23:38.419Z</time></trkpt><trkpt lat="45.5897433" lon="10.4552517"><ele>231.0</ele><time>2026-03-29T07:23:39.419Z</time></trkpt><trkpt lat="45.5896467" lon="10.4551"><ele>228.0</ele><time>2026-03-29T07:23:40.419Z</time></trkpt><trkpt lat="45.589585" lon="10.4549617"><ele>228.0</ele><time>2026-03-29T07:23:41.419Z</time></trkpt><trkpt lat="45.58956" lon="10.4548167"><ele>228.0</ele><time>2026-03-29T07:23:42.419Z</time></trkpt><trkpt lat="45.589575" lon="10.45467"><ele>228.0</ele><time>2026-03-29T07:23:43.419Z</time></trkpt><trkpt lat="45.5896183" lon="10.4545167"><ele>228.0</ele><time>2026-03-29T07:23:44.419Z</time></trkpt><trkpt lat="45.589665" lon="10.45435"><ele>227.2</ele><time>2026-03-29T07:23:45.419Z</time></trkpt><trkpt lat="45.589695" lon="10.454175"><ele>226.4</ele><time>2026-03-29T07:23:46.419Z</time></trkpt><trkpt lat="45.5896917" lon="10.4540367"><ele>225.59999999999997</ele><time>2026-03-29T07:23:47.419Z</time></trkpt><trkpt lat="45.5896417" lon="10.4539233"><ele>224.79999999999998</ele><time>2026-03-29T07:23:48.419Z</time></trkpt><trkpt lat="45.5895633" lon="10.4538383"><ele>224.0</ele><time>2026-03-29T07:23:49.419Z</time></trkpt><trkpt lat="45.58946" lon="10.4537383"><ele>224.0</ele><time>2026-03-29T07:23:50.419Z</time></trkpt><trkpt lat="45.58935" lon="10.4536283"><ele>224.0</ele><time>2026-03-29T07:23:51.42Z</time></trkpt><trkpt lat="45.5892283" lon="10.4534967"><ele>224.0</ele><time>2026-03-29T07:23:52.419Z</time></trkpt><trkpt lat="45.589115" lon="10.4533483"><ele>224.0</ele><time>2026-03-29T07:23:53.42Z</time></trkpt><trkpt lat="45.5890133" lon="10.4532167"><ele>224.0</ele><time>2026-03-29T07:23:54.419Z</time></trkpt><trkpt lat="45.5889417" lon="10.4530683"><ele>224.0</ele><time>2026-03-29T07:23:55.419Z</time></trkpt><trkpt lat="45.5889017" lon="10.4529183"><ele>224.0</ele><time>2026-03-29T07:23:56.419Z</time></trkpt><trkpt lat="45.5888933" lon="10.452765"><ele>224.0</ele><time>2026-03-29T07:23:57.419Z</time></trkpt><trkpt lat="45.58892" lon="10.4526033"><ele>222.75</ele><time>2026-03-29T07:23:58.419Z</time></trkpt><trkpt lat="45.5889717" lon="10.45245"><ele>221.5</ele><time>2026-03-29T07:23:59.419Z</time></trkpt><trkpt lat="45.5890383" lon="10.4522983"><ele>220.25</ele><time>2026-03-29T07:24:00.42Z</time></trkpt><trkpt lat="45.5890833" lon="10.4521583"><ele>219.0</ele><time>2026-03-29T07:24:01.419Z</time></trkpt><trkpt lat="45.5890883" lon="10.45201"><ele>219.0</ele><time>2026-03-29T07:24:02.419Z</time></trkpt><trkpt lat="45.5890483" lon="10.4518583"><ele>219.0</ele><time>2026-03-29T07:24:03.419Z</time></trkpt><trkpt lat="45.5889733" lon="10.4517117"><ele>219.0</ele><time>2026-03-29T07:24:04.419Z</time></trkpt><trkpt lat="45.5888633" lon="10.4515583"><ele>219.0</ele><time>2026-03-29T07:24:05.419Z</time></trkpt><trkpt lat="45.5887517" lon="10.4514017"><ele>221.66666666666669</ele><time>2026-03-29T07:24:06.419Z</time></trkpt><trkpt lat="45.5886333" lon="10.4512267"><ele>224.33333333333334</ele><time>2026-03-29T07:24:07.42Z</time></trkpt><trkpt lat="45.5885133" lon="10.451015"><ele>227.0</ele><time>2026-03-29T07:24:08.419Z</time></trkpt><trkpt lat="45.5883867" lon="10.450795"><ele>227.0</ele><time>2026-03-29T07:24:09.419Z</time></trkpt><trkpt lat="45.58825" lon="10.45056"><ele>227.0</ele><time>2026-03-29T07:24:10.419Z</time></trkpt><trkpt lat="45.5881333" lon="10.45034"><ele>227.0</ele><time>2026-03-29T07:24:11.419Z</time></trkpt><trkpt lat="45.58802" lon="10.45015"><ele>225.39999999999998</ele><time>2026-03-29T07:24:12.419Z</time></trkpt><trkpt lat="45.5879533" lon="10.4500383"><ele>223.79999999999998</ele><time>2026-03-29T07:24:13.419Z</time></trkpt><trkpt lat="45.5878967" lon="10.44994"><ele>222.2</ele><time>2026-03-29T07:24:14.418Z</time></trkpt><trkpt lat="45.58783" lon="10.4498183"><ele>220.6</ele><time>2026-03-29T07:24:15.418Z</time></trkpt><trkpt lat="45.5877533" lon="10.4496883"><ele>219.0</ele><time>2026-03-29T07:24:16.419Z</time></trkpt><trkpt lat="45.58766" lon="10.4495517"><ele>219.0</ele><time>2026-03-29T07:24:17.418Z</time></trkpt><trkpt lat="45.5875617" lon="10.4494133"><ele>218.99999999999997</ele><time>2026-03-29T07:24:18.418Z</time></trkpt><trkpt lat="45.5874717" lon="10.44928"><ele>218.99999999999997</ele><time>2026-03-29T07:24:19.418Z</time></trkpt><trkpt lat="45.5874217" lon="10.449165"><ele>219.0</ele><time>2026-03-29T07:24:20.418Z</time></trkpt><trkpt lat="45.587385" lon="10.44906"><ele>219.0</ele><time>2026-03-29T07:24:21.419Z</time></trkpt><trkpt lat="45.5873517" lon="10.44895"><ele>219.0</ele><time>2026-03-29T07:24:22.419Z</time></trkpt><trkpt lat="45.5873267" lon="10.4488633"><ele>218.99999999999997</ele><time>2026-03-29T07:24:23.418Z</time></trkpt><trkpt lat="45.587235" lon="10.44881"><ele>218.99999999999997</ele><time>2026-03-29T07:24:25.418Z</time></trkpt><trkpt lat="45.5871083" lon="10.448885"><ele>219.0</ele><time>2026-03-29T07:24:27.418Z</time></trkpt><trkpt lat="45.587035" lon="10.4489183"><ele>219.0</ele><time>2026-03-29T07:24:28.418Z</time></trkpt><trkpt lat="45.5869517" lon="10.4489167"><ele>218.39999999999998</ele><time>2026-03-29T07:24:29.418Z</time></trkpt><trkpt lat="45.5868683" lon="10.448875"><ele>217.79999999999998</ele><time>2026-03-29T07:24:30.418Z</time></trkpt><trkpt lat="45.586795" lon="10.4487817"><ele>217.20000000000002</ele><time>2026-03-29T07:24:31.419Z</time></trkpt><trkpt lat="45.5867517" lon="10.4486183"><ele>216.60000000000002</ele><time>2026-03-29T07:24:32.418Z</time></trkpt><trkpt lat="45.5867167" lon="10.4484283"><ele>216.0</ele><time>2026-03-29T07:24:33.418Z</time></trkpt><trkpt lat="45.5866767" lon="10.448235"><ele>216.0</ele><time>2026-03-29T07:24:34.418Z</time></trkpt><trkpt lat="45.586635" lon="10.44803"><ele>216.0</ele><time>2026-03-29T07:24:35.418Z</time></trkpt><trkpt lat="45.58659" lon="10.44782"><ele>216.0</ele><time>2026-03-29T07:24:36.418Z</time></trkpt><trkpt lat="45.5865483" lon="10.447605"><ele>214.66666666666669</ele><time>2026-03-29T07:24:37.418Z</time></trkpt><trkpt lat="45.5865067" lon="10.44739"><ele>213.33333333333334</ele><time>2026-03-29T07:24:38.418Z</time></trkpt><trkpt lat="45.586465" lon="10.4471733"><ele>212.0</ele><time>2026-03-29T07:24:39.418Z</time></trkpt><trkpt lat="45.58643" lon="10.446955"><ele>211.66666666666669</ele><time>2026-03-29T07:24:40.418Z</time></trkpt><trkpt lat="45.58637" lon="10.44674"><ele>211.33333333333331</ele><time>2026-03-29T07:24:41.418Z</time></trkpt><trkpt lat="45.58629" lon="10.4465283"><ele>211.0</ele><time>2026-03-29T07:24:42.418Z</time></trkpt><trkpt lat="45.5862" lon="10.4463017"><ele>210.0</ele><time>2026-03-29T07:24:43.419Z</time></trkpt><trkpt lat="45.5860983" lon="10.4460867"><ele>209.0</ele><time>2026-03-29T07:24:44.418Z</time></trkpt><trkpt lat="45.58601" lon="10.4458717"><ele>208.0</ele><time>2026-03-29T07:24:45.418Z</time></trkpt><trkpt lat="45.58594" lon="10.4456533"><ele>208.0</ele><time>2026-03-29T07:24:46.418Z</time></trkpt><trkpt lat="45.5858733" lon="10.445415"><ele>208.0</ele><time>2026-03-29T07:24:47.419Z</time></trkpt><trkpt lat="45.5857967" lon="10.4451683"><ele>208.0</ele><time>2026-03-29T07:24:48.418Z</time></trkpt><trkpt lat="45.5857183" lon="10.444925"><ele>208.0</ele><time>2026-03-29T07:24:49.418Z</time></trkpt><trkpt lat="45.58564" lon="10.44469"><ele>208.0</ele><time>2026-03-29T07:24:50.418Z</time></trkpt><trkpt lat="45.585565" lon="10.44445"><ele>208.0</ele><time>2026-03-29T07:24:51.418Z</time></trkpt><trkpt lat="45.5854883" lon="10.4442183"><ele>207.66666666666666</ele><time>2026-03-29T07:24:52.418Z</time></trkpt><trkpt lat="45.585415" lon="10.44398"><ele>207.33333333333331</ele><time>2026-03-29T07:24:53.418Z</time></trkpt><trkpt lat="45.58533" lon="10.443735"><ele>207.0</ele><time>2026-03-29T07:24:54.418Z</time></trkpt><trkpt lat="45.585265" lon="10.443495"><ele>206.75</ele><time>2026-03-29T07:24:55.418Z</time></trkpt><trkpt lat="45.585225" lon="10.4432817"><ele>206.5</ele><time>2026-03-29T07:24:56.419Z</time></trkpt><trkpt lat="45.5851833" lon="10.44308"><ele>206.25</ele><time>2026-03-29T07:24:57.418Z</time></trkpt><trkpt lat="45.5851533" lon="10.4428767"><ele>206.0</ele><time>2026-03-29T07:24:58.418Z</time></trkpt><trkpt lat="45.58511" lon="10.4426767"><ele>206.0</ele><time>2026-03-29T07:24:59.418Z</time></trkpt><trkpt lat="45.5850467" lon="10.4424817"><ele>206.0</ele><time>2026-03-29T07:25:00.418Z</time></trkpt><trkpt lat="45.5849767" lon="10.4423183"><ele>206.0</ele><time>2026-03-29T07:25:01.418Z</time></trkpt><trkpt lat="45.5849267" lon="10.4421767"><ele>206.0</ele><time>2026-03-29T07:25:02.418Z</time></trkpt><trkpt lat="45.58489" lon="10.4420567"><ele>205.8</ele><time>2026-03-29T07:25:03.418Z</time></trkpt><trkpt lat="45.58486" lon="10.4419617"><ele>205.60000000000002</ele><time>2026-03-29T07:25:04.418Z</time></trkpt><trkpt lat="45.5848167" lon="10.4418517"><ele>205.4</ele><time>2026-03-29T07:25:06.418Z</time></trkpt><trkpt lat="45.5847567" lon="10.4417117"><ele>205.2</ele><time>2026-03-29T07:25:08.418Z</time></trkpt><trkpt lat="45.5846567" lon="10.4416433"><ele>205.0</ele><time>2026-03-29T07:25:10.418Z</time></trkpt><trkpt lat="45.58459" lon="10.4416517"><ele>204.99999999999997</ele><time>2026-03-29T07:25:11.418Z</time></trkpt><trkpt lat="45.58451" lon="10.4416667"><ele>205.0</ele><time>2026-03-29T07:25:12.418Z</time></trkpt><trkpt lat="45.5844317" lon="10.4416617"><ele>205.0</ele><time>2026-03-29T07:25:13.418Z</time></trkpt><trkpt lat="45.584355" lon="10.4416283"><ele>205.0</ele><time>2026-03-29T07:25:14.418Z</time></trkpt><trkpt lat="45.5842633" lon="10.4415967"><ele>204.99999999999997</ele><time>2026-03-29T07:25:15.418Z</time></trkpt><trkpt lat="45.5841717" lon="10.4415433"><ele>205.0</ele><time>2026-03-29T07:25:16.418Z</time></trkpt><trkpt lat="45.584065" lon="10.44151"><ele>205.0</ele><time>2026-03-29T07:25:17.418Z</time></trkpt><trkpt lat="45.5839667" lon="10.4414733"><ele>205.0</ele><time>2026-03-29T07:25:18.418Z</time></trkpt><trkpt lat="45.58387" lon="10.4414267"><ele>205.0</ele><time>2026-03-29T07:25:19.419Z</time></trkpt><trkpt lat="45.5837717" lon="10.4413983"><ele>205.0</ele><time>2026-03-29T07:25:20.418Z</time></trkpt><trkpt lat="45.5836783" lon="10.4413733"><ele>205.0</ele><time>2026-03-29T07:25:21.418Z</time></trkpt><trkpt lat="45.583585" lon="10.4413383"><ele>205.0</ele><time>2026-03-29T07:25:22.418Z</time></trkpt><trkpt lat="45.5835" lon="10.441315"><ele>205.0</ele><time>2026-03-29T07:25:23.418Z</time></trkpt><trkpt lat="45.5834267" lon="10.4412917"><ele>205.0</ele><time>2026-03-29T07:25:24.418Z</time></trkpt><trkpt lat="45.5833583" lon="10.44127"><ele>205.0</ele><time>2026-03-29T07:25:25.418Z</time></trkpt><trkpt lat="45.5832383" lon="10.4412283"><ele>205.0</ele><time>2026-03-29T07:25:27.418Z</time></trkpt><trkpt lat="45.5831183" lon="10.4411983"><ele>205.0</ele><time>2026-03-29T07:25:29.418Z</time></trkpt><trkpt lat="45.58305" lon="10.441225"><ele>205.0</ele><time>2026-03-29T07:25:30.418Z</time></trkpt><trkpt lat="45.5830033" lon="10.4413067"><ele>205.0</ele><time>2026-03-29T07:25:31.418Z</time></trkpt><trkpt lat="45.5829417" lon="10.441425"><ele>205.0</ele><time>2026-03-29T07:25:32.418Z</time></trkpt><trkpt lat="45.582855" lon="10.4415633"><ele>205.0</ele><time>2026-03-29T07:25:33.418Z</time></trkpt><trkpt lat="45.58275" lon="10.4417167"><ele>205.0</ele><time>2026-03-29T07:25:34.418Z</time></trkpt><trkpt lat="45.58264" lon="10.44186"><ele>205.0</ele><time>2026-03-29T07:25:35.418Z</time></trkpt><trkpt lat="45.582505" lon="10.4420167"><ele>205.0</ele><time>2026-03-29T07:25:36.419Z</time></trkpt><trkpt lat="45.5823717" lon="10.442185"><ele>204.66666666666666</ele><time>2026-03-29T07:25:37.418Z</time></trkpt><trkpt lat="45.5822483" lon="10.4423833"><ele>204.33333333333331</ele><time>2026-03-29T07:25:38.418Z</time></trkpt><trkpt lat="45.5821417" lon="10.4426067"><ele>204.0</ele><time>2026-03-29T07:25:39.418Z</time></trkpt><trkpt lat="45.582035" lon="10.4428267"><ele>203.33333333333331</ele><time>2026-03-29T07:25:40.418Z</time></trkpt><trkpt lat="45.58193" lon="10.4430333"><ele>202.66666666666666</ele><time>2026-03-29T07:25:41.419Z</time></trkpt><trkpt lat="45.5818233" lon="10.443195"><ele>202.0</ele><time>2026-03-29T07:25:42.419Z</time></trkpt><trkpt lat="45.5817167" lon="10.44335"><ele>202.0</ele><time>2026-03-29T07:25:43.418Z</time></trkpt><trkpt lat="45.5815817" lon="10.4434983"><ele>202.0</ele><time>2026-03-29T07:25:44.418Z</time></trkpt><trkpt lat="45.5814367" lon="10.4436433"><ele>202.0</ele><time>2026-03-29T07:25:45.418Z</time></trkpt><trkpt lat="45.581285" lon="10.4437733"><ele>202.0</ele><time>2026-03-29T07:25:46.418Z</time></trkpt><trkpt lat="45.5811283" lon="10.4438933"><ele>202.0</ele><time>2026-03-29T07:25:47.418Z</time></trkpt><trkpt lat="45.5809517" lon="10.44398"><ele>202.0</ele><time>2026-03-29T07:25:48.418Z</time></trkpt><trkpt lat="45.5807783" lon="10.444055"><ele>202.0</ele><time>2026-03-29T07:25:49.419Z</time></trkpt><trkpt lat="45.580605" lon="10.444095"><ele>202.0</ele><time>2026-03-29T07:25:50.419Z</time></trkpt><trkpt lat="45.5804317" lon="10.4441717"><ele>202.0</ele><time>2026-03-29T07:25:51.418Z</time></trkpt><trkpt lat="45.58027" lon="10.444225"><ele>201.66666666666666</ele><time>2026-03-29T07:25:52.419Z</time></trkpt><trkpt lat="45.580115" lon="10.4442833"><ele>201.33333333333331</ele><time>2026-03-29T07:25:53.418Z</time></trkpt><trkpt lat="45.5799667" lon="10.4443433"><ele>201.0</ele><time>2026-03-29T07:25:54.418Z</time></trkpt><trkpt lat="45.5798283" lon="10.4443967"><ele>201.0</ele><time>2026-03-29T07:25:55.418Z</time></trkpt><trkpt lat="45.5796983" lon="10.4444483"><ele>201.0</ele><time>2026-03-29T07:25:56.418Z</time></trkpt><trkpt lat="45.5795867" lon="10.4444933"><ele>201.0</ele><time>2026-03-29T07:25:57.419Z</time></trkpt><trkpt lat="45.57946" lon="10.444535"><ele>201.0</ele><time>2026-03-29T07:25:58.419Z</time></trkpt><trkpt lat="45.5793417" lon="10.4445867"><ele>202.0</ele><time>2026-03-29T07:25:59.419Z</time></trkpt><trkpt lat="45.5792417" lon="10.44464"><ele>203.0</ele><time>2026-03-29T07:26:00.419Z</time></trkpt><trkpt lat="45.5791433" lon="10.4446917"><ele>204.0</ele><time>2026-03-29T07:26:01.418Z</time></trkpt><trkpt lat="45.5790467" lon="10.44474"><ele>205.0</ele><time>2026-03-29T07:26:02.418Z</time></trkpt><trkpt lat="45.5789517" lon="10.4448"><ele>206.0</ele><time>2026-03-29T07:26:03.418Z</time></trkpt><trkpt lat="45.5788583" lon="10.4448633"><ele>206.0</ele><time>2026-03-29T07:26:04.418Z</time></trkpt><trkpt lat="45.5787617" lon="10.4449067"><ele>206.0</ele><time>2026-03-29T07:26:05.418Z</time></trkpt><trkpt lat="45.5786633" lon="10.44496"><ele>206.0</ele><time>2026-03-29T07:26:06.418Z</time></trkpt><trkpt lat="45.5785683" lon="10.4450183"><ele>206.0</ele><time>2026-03-29T07:26:07.418Z</time></trkpt><trkpt lat="45.578475" lon="10.4450633"><ele>206.0</ele><time>2026-03-29T07:26:08.418Z</time></trkpt><trkpt lat="45.5783917" lon="10.4451017"><ele>205.50000000000003</ele><time>2026-03-29T07:26:09.418Z</time></trkpt><trkpt lat="45.5783167" lon="10.445125"><ele>205.0</ele><time>2026-03-29T07:26:10.418Z</time></trkpt><trkpt lat="45.578245" lon="10.4451367"><ele>204.5</ele><time>2026-03-29T07:26:11.418Z</time></trkpt><trkpt lat="45.57818" lon="10.4451333"><ele>204.0</ele><time>2026-03-29T07:26:12.418Z</time></trkpt><trkpt lat="45.5781167" lon="10.4451217"><ele>203.50000000000003</ele><time>2026-03-29T07:26:13.419Z</time></trkpt><trkpt lat="45.57801" lon="10.44511"><ele>203.0</ele><time>2026-03-29T07:26:15.418Z</time></trkpt><trkpt lat="45.5779367" lon="10.4450283"><ele>203.0</ele><time>2026-03-29T07:26:17.418Z</time></trkpt><trkpt lat="45.5778983" lon="10.444835"><ele>203.0</ele><time>2026-03-29T07:26:19.419Z</time></trkpt><trkpt lat="45.5778717" lon="10.4447033"><ele>203.0</ele><time>2026-03-29T07:26:20.418Z</time></trkpt><trkpt lat="45.5778367" lon="10.44456"><ele>203.0</ele><time>2026-03-29T07:26:21.418Z</time></trkpt><trkpt lat="45.57779" lon="10.4444033"><ele>202.75</ele><time>2026-03-29T07:26:22.418Z</time></trkpt><trkpt lat="45.5777467" lon="10.4442283"><ele>202.5</ele><time>2026-03-29T07:26:23.418Z</time></trkpt><trkpt lat="45.5777033" lon="10.4440583"><ele>202.25</ele><time>2026-03-29T07:26:24.418Z</time></trkpt><trkpt lat="45.5776633" lon="10.4439083"><ele>202.0</ele><time>2026-03-29T07:26:25.418Z</time></trkpt><trkpt lat="45.5776317" lon="10.4437683"><ele>201.49999999999997</ele><time>2026-03-29T07:26:26.418Z</time></trkpt><trkpt lat="45.577605" lon="10.4436533"><ele>201.0</ele><time>2026-03-29T07:26:27.418Z</time></trkpt><trkpt lat="45.577585" lon="10.4435383"><ele>200.5</ele><time>2026-03-29T07:26:28.418Z</time></trkpt><trkpt lat="45.57756" lon="10.4434433"><ele>200.0</ele><time>2026-03-29T07:26:29.418Z</time></trkpt><trkpt lat="45.577535" lon="10.44334"><ele>199.49999999999997</ele><time>2026-03-29T07:26:32.418Z</time></trkpt><trkpt lat="45.5775033" lon="10.4432433"><ele>199.0</ele><time>2026-03-29T07:26:34.418Z</time></trkpt><trkpt lat="45.5774617" lon="10.4430667"><ele>198.99999999999997</ele><time>2026-03-29T07:26:36.418Z</time></trkpt><trkpt lat="45.5774317" lon="10.4429683"><ele>199.0</ele><time>2026-03-29T07:26:37.418Z</time></trkpt><trkpt lat="45.5773967" lon="10.4428633"><ele>199.0</ele><time>2026-03-29T07:26:38.418Z</time></trkpt><trkpt lat="45.5773617" lon="10.442765"><ele>199.0</ele><time>2026-03-29T07:26:39.418Z</time></trkpt><trkpt lat="45.5773267" lon="10.4426883"><ele>198.99999999999997</ele><time>2026-03-29T07:26:40.418Z</time></trkpt><trkpt lat="45.5772667" lon="10.4425833"><ele>199.0</ele><time>2026-03-29T07:26:42.419Z</time></trkpt><trkpt lat="45.577215" lon="10.44251"><ele>198.99999999999997</ele><time>2026-03-29T07:26:46.419Z</time></trkpt><trkpt lat="45.5771667" lon="10.4424233"><ele>199.0</ele><time>2026-03-29T07:26:48.418Z</time></trkpt><trkpt lat="45.5771317" lon="10.4423317"><ele>199.0</ele><time>2026-03-29T07:26:49.419Z</time></trkpt><trkpt lat="45.5770883" lon="10.442245"><ele>199.0</ele><time>2026-03-29T07:26:50.418Z</time></trkpt><trkpt lat="45.5770283" lon="10.4422133"><ele>199.0</ele><time>2026-03-29T07:26:51.418Z</time></trkpt><trkpt lat="45.576965" lon="10.4422317"><ele>198.99999999999997</ele><time>2026-03-29T07:26:52.418Z</time></trkpt><trkpt lat="45.576905" lon="10.442275"><ele>199.0</ele><time>2026-03-29T07:26:53.418Z</time></trkpt><trkpt lat="45.5768517" lon="10.4423417"><ele>198.99999999999997</ele><time>2026-03-29T07:26:54.418Z</time></trkpt><trkpt lat="45.5768033" lon="10.4424033"><ele>199.0</ele><time>2026-03-29T07:26:55.418Z</time></trkpt><trkpt lat="45.5767517" lon="10.4424583"><ele>199.0</ele><time>2026-03-29T07:26:56.418Z</time></trkpt><trkpt lat="45.5766967" lon="10.44251"><ele>199.0</ele><time>2026-03-29T07:26:57.418Z</time></trkpt><trkpt lat="45.5766383" lon="10.4425667"><ele>199.0</ele><time>2026-03-29T07:26:58.418Z</time></trkpt><trkpt lat="45.57658" lon="10.4426217"><ele>198.99999999999997</ele><time>2026-03-29T07:26:59.418Z</time></trkpt><trkpt lat="45.57652" lon="10.4426833"><ele>199.0</ele><time>2026-03-29T07:27:00.418Z</time></trkpt><trkpt lat="45.57645" lon="10.4427583"><ele>198.99999999999997</ele><time>2026-03-29T07:27:01.418Z</time></trkpt><trkpt lat="45.576375" lon="10.44283"><ele>199.0</ele><time>2026-03-29T07:27:02.418Z</time></trkpt><trkpt lat="45.5763033" lon="10.44289"><ele>199.0</ele><time>2026-03-29T07:27:03.418Z</time></trkpt><trkpt lat="45.576235" lon="10.44294"><ele>199.0</ele><time>2026-03-29T07:27:04.418Z</time></trkpt><trkpt lat="45.5761667" lon="10.4429967"><ele>198.99999999999997</ele><time>2026-03-29T07:27:05.418Z</time></trkpt><trkpt lat="45.5761183" lon="10.4430717"><ele>199.0</ele><time>2026-03-29T07:27:06.418Z</time></trkpt><trkpt lat="45.5760933" lon="10.44318"><ele>199.6</ele><time>2026-03-29T07:27:07.418Z</time></trkpt><trkpt lat="45.576085" lon="10.4433083"><ele>200.2</ele><time>2026-03-29T07:27:08.418Z</time></trkpt><trkpt lat="45.5760667" lon="10.4434517"><ele>200.79999999999998</ele><time>2026-03-29T07:27:09.418Z</time></trkpt><trkpt lat="45.5760467" lon="10.4436017"><ele>201.39999999999998</ele><time>2026-03-29T07:27:10.418Z</time></trkpt><trkpt lat="45.5759917" lon="10.443755"><ele>202.0</ele><time>2026-03-29T07:27:11.418Z</time></trkpt><trkpt lat="45.5759317" lon="10.443915"><ele>202.0</ele><time>2026-03-29T07:27:12.418Z</time></trkpt><trkpt lat="45.5758733" lon="10.4440717"><ele>202.0</ele><time>2026-03-29T07:27:13.418Z</time></trkpt><trkpt lat="45.5758117" lon="10.4442217"><ele>202.0</ele><time>2026-03-29T07:27:14.418Z</time></trkpt><trkpt lat="45.5757567" lon="10.444365"><ele>202.0</ele><time>2026-03-29T07:27:15.418Z</time></trkpt><trkpt lat="45.5757067" lon="10.4445133"><ele>202.0</ele><time>2026-03-29T07:27:16.418Z</time></trkpt><trkpt lat="45.575665" lon="10.4446617"><ele>202.0</ele><time>2026-03-29T07:27:17.418Z</time></trkpt><trkpt lat="45.575615" lon="10.44482"><ele>202.0</ele><time>2026-03-29T07:27:18.418Z</time></trkpt><trkpt lat="45.5755433" lon="10.4449717"><ele>202.0</ele><time>2026-03-29T07:27:19.418Z</time></trkpt><trkpt lat="45.57546" lon="10.4451183"><ele>202.0</ele><time>2026-03-29T07:27:20.418Z</time></trkpt><trkpt lat="45.5753733" lon="10.4452917"><ele>202.0</ele><time>2026-03-29T07:27:21.419Z</time></trkpt><trkpt lat="45.5752733" lon="10.4454833"><ele>202.0</ele><time>2026-03-29T07:27:22.418Z</time></trkpt><trkpt lat="45.57518" lon="10.4456883"><ele>203.33333333333331</ele><time>2026-03-29T07:27:23.418Z</time></trkpt><trkpt lat="45.575075" lon="10.4459017"><ele>204.66666666666669</ele><time>2026-03-29T07:27:24.418Z</time></trkpt><trkpt lat="45.5749517" lon="10.44611"><ele>206.0</ele><time>2026-03-29T07:27:25.418Z</time></trkpt><trkpt lat="45.5748083" lon="10.4463233"><ele>207.0</ele><time>2026-03-29T07:27:26.418Z</time></trkpt><trkpt lat="45.5746517" lon="10.4465317"><ele>208.0</ele><time>2026-03-29T07:27:27.418Z</time></trkpt><trkpt lat="45.5745033" lon="10.44674"><ele>209.0</ele><time>2026-03-29T07:27:28.419Z</time></trkpt><trkpt lat="45.5743433" lon="10.44695"><ele>210.33333333333334</ele><time>2026-03-29T07:27:29.418Z</time></trkpt><trkpt lat="45.5741817" lon="10.4471667"><ele>211.66666666666669</ele><time>2026-03-29T07:27:30.418Z</time></trkpt><trkpt lat="45.5740267" lon="10.447385"><ele>213.0</ele><time>2026-03-29T07:27:31.418Z</time></trkpt><trkpt lat="45.5738733" lon="10.447605"><ele>213.0</ele><time>2026-03-29T07:27:32.418Z</time></trkpt><trkpt lat="45.573735" lon="10.4478167"><ele>213.0</ele><time>2026-03-29T07:27:33.418Z</time></trkpt><trkpt lat="45.5736217" lon="10.44802"><ele>213.0</ele><time>2026-03-29T07:27:34.418Z</time></trkpt><trkpt lat="45.5735233" lon="10.4482267"><ele>215.33333333333331</ele><time>2026-03-29T07:27:35.418Z</time></trkpt><trkpt lat="45.57345" lon="10.4484733"><ele>217.66666666666666</ele><time>2026-03-29T07:27:36.418Z</time></trkpt><trkpt lat="45.5733833" lon="10.448725"><ele>220.0</ele><time>2026-03-29T07:27:37.418Z</time></trkpt><trkpt lat="45.57332" lon="10.4489417"><ele>220.66666666666666</ele><time>2026-03-29T07:27:38.418Z</time></trkpt><trkpt lat="45.5732633" lon="10.4491583"><ele>221.33333333333331</ele><time>2026-03-29T07:27:39.418Z</time></trkpt><trkpt lat="45.573225" lon="10.4493633"><ele>222.0</ele><time>2026-03-29T07:27:40.418Z</time></trkpt><trkpt lat="45.5731717" lon="10.449565"><ele>222.0</ele><time>2026-03-29T07:27:41.418Z</time></trkpt><trkpt lat="45.573105" lon="10.4497517"><ele>222.0</ele><time>2026-03-29T07:27:42.418Z</time></trkpt><trkpt lat="45.5730217" lon="10.4499183"><ele>222.0</ele><time>2026-03-29T07:27:43.418Z</time></trkpt><trkpt lat="45.5729183" lon="10.4500883"><ele>222.0</ele><time>2026-03-29T07:27:44.418Z</time></trkpt><trkpt lat="45.5728033" lon="10.4502567"><ele>222.0</ele><time>2026-03-29T07:27:45.418Z</time></trkpt><trkpt lat="45.572685" lon="10.4504067"><ele>222.0</ele><time>2026-03-29T07:27:46.418Z</time></trkpt><trkpt lat="45.57256" lon="10.4505483"><ele>222.0</ele><time>2026-03-29T07:27:47.417Z</time></trkpt><trkpt lat="45.5724317" lon="10.4507033"><ele>222.66666666666669</ele><time>2026-03-29T07:27:48.418Z</time></trkpt><trkpt lat="45.572295" lon="10.45087"><ele>223.33333333333334</ele><time>2026-03-29T07:27:49.418Z</time></trkpt><trkpt lat="45.572155" lon="10.45105"><ele>224.0</ele><time>2026-03-29T07:27:50.418Z</time></trkpt><trkpt lat="45.572025" lon="10.4512217"><ele>224.33333333333334</ele><time>2026-03-29T07:27:51.418Z</time></trkpt><trkpt lat="45.5719017" lon="10.4513933"><ele>224.66666666666669</ele><time>2026-03-29T07:27:52.419Z</time></trkpt><trkpt lat="45.57178" lon="10.451565"><ele>225.0</ele><time>2026-03-29T07:27:53.418Z</time></trkpt><trkpt lat="45.5716683" lon="10.451745"><ele>225.0</ele><time>2026-03-29T07:27:54.418Z</time></trkpt><trkpt lat="45.5715617" lon="10.4519333"><ele>225.0</ele><time>2026-03-29T07:27:55.419Z</time></trkpt><trkpt lat="45.571455" lon="10.4521167"><ele>225.0</ele><time>2026-03-29T07:27:56.418Z</time></trkpt><trkpt lat="45.5713467" lon="10.4523"><ele>225.0</ele><time>2026-03-29T07:27:57.418Z</time></trkpt><trkpt lat="45.5712417" lon="10.4524683"><ele>225.0</ele><time>2026-03-29T07:27:58.418Z</time></trkpt><trkpt lat="45.5711433" lon="10.4526233"><ele>225.0</ele><time>2026-03-29T07:27:59.418Z</time></trkpt><trkpt lat="45.57104" lon="10.45278"><ele>225.0</ele><time>2026-03-29T07:28:00.419Z</time></trkpt><trkpt lat="45.5709417" lon="10.4529317"><ele>225.0</ele><time>2026-03-29T07:28:01.418Z</time></trkpt><trkpt lat="45.57085" lon="10.4530783"><ele>225.0</ele><time>2026-03-29T07:28:02.418Z</time></trkpt><trkpt lat="45.5707483" lon="10.453225"><ele>225.0</ele><time>2026-03-29T07:28:03.419Z</time></trkpt><trkpt lat="45.5706383" lon="10.4533517"><ele>225.33333333333331</ele><time>2026-03-29T07:28:04.418Z</time></trkpt><trkpt lat="45.5705167" lon="10.4534867"><ele>225.66666666666666</ele><time>2026-03-29T07:28:05.418Z</time></trkpt><trkpt lat="45.570385" lon="10.4536217"><ele>226.0</ele><time>2026-03-29T07:28:06.419Z</time></trkpt><trkpt lat="45.5702417" lon="10.4537633"><ele>227.33333333333331</ele><time>2026-03-29T07:28:07.419Z</time></trkpt><trkpt lat="45.5700833" lon="10.4539167"><ele>228.66666666666669</ele><time>2026-03-29T07:28:08.418Z</time></trkpt><trkpt lat="45.5699283" lon="10.4540767"><ele>230.0</ele><time>2026-03-29T07:28:09.418Z</time></trkpt><trkpt lat="45.5697733" lon="10.4542367"><ele>230.0</ele><time>2026-03-29T07:28:10.418Z</time></trkpt><trkpt lat="45.5696183" lon="10.45441"><ele>230.0</ele><time>2026-03-29T07:28:11.418Z</time></trkpt><trkpt lat="45.56945" lon="10.454595"><ele>230.0</ele><time>2026-03-29T07:28:12.418Z</time></trkpt><trkpt lat="45.5692783" lon="10.454755"><ele>231.66666666666669</ele><time>2026-03-29T07:28:13.418Z</time></trkpt><trkpt lat="45.5691117" lon="10.4549017"><ele>233.33333333333331</ele><time>2026-03-29T07:28:14.418Z</time></trkpt><trkpt lat="45.5689367" lon="10.45505"><ele>235.0</ele><time>2026-03-29T07:28:15.418Z</time></trkpt><trkpt lat="45.56877" lon="10.45517"><ele>234.66666666666666</ele><time>2026-03-29T07:28:16.419Z</time></trkpt><trkpt lat="45.5686117" lon="10.4553167"><ele>234.33333333333331</ele><time>2026-03-29T07:28:17.418Z</time></trkpt><trkpt lat="45.5684667" lon="10.4554433"><ele>234.0</ele><time>2026-03-29T07:28:18.419Z</time></trkpt><trkpt lat="45.5683317" lon="10.4555783"><ele>235.0</ele><time>2026-03-29T07:28:19.418Z</time></trkpt><trkpt lat="45.568205" lon="10.4557167"><ele>236.0</ele><time>2026-03-29T07:28:20.418Z</time></trkpt><trkpt lat="45.56808" lon="10.455865"><ele>237.0</ele><time>2026-03-29T07:28:21.418Z</time></trkpt><trkpt lat="45.56797" lon="10.4560233"><ele>237.0</ele><time>2026-03-29T07:28:22.418Z</time></trkpt><trkpt lat="45.567865" lon="10.4561933"><ele>237.0</ele><time>2026-03-29T07:28:23.418Z</time></trkpt><trkpt lat="45.567745" lon="10.45637"><ele>237.0</ele><time>2026-03-29T07:28:24.418Z</time></trkpt><trkpt lat="45.56763" lon="10.4565567"><ele>237.33333333333331</ele><time>2026-03-29T07:28:25.418Z</time></trkpt><trkpt lat="45.5675133" lon="10.4567583"><ele>237.66666666666666</ele><time>2026-03-29T07:28:26.418Z</time></trkpt><trkpt lat="45.567395" lon="10.456945"><ele>238.0</ele><time>2026-03-29T07:28:27.418Z</time></trkpt><trkpt lat="45.567285" lon="10.45711"><ele>238.33333333333331</ele><time>2026-03-29T07:28:28.418Z</time></trkpt><trkpt lat="45.5671683" lon="10.4572767"><ele>238.66666666666669</ele><time>2026-03-29T07:28:29.418Z</time></trkpt><trkpt lat="45.5670617" lon="10.4574417"><ele>239.0</ele><time>2026-03-29T07:28:30.418Z</time></trkpt><trkpt lat="45.5669517" lon="10.4575817"><ele>238.0</ele><time>2026-03-29T07:28:31.418Z</time></trkpt><trkpt lat="45.5668467" lon="10.45774"><ele>237.0</ele><time>2026-03-29T07:28:32.418Z</time></trkpt><trkpt lat="45.5667383" lon="10.4579033"><ele>236.0</ele><time>2026-03-29T07:28:33.418Z</time></trkpt><trkpt lat="45.5666217" lon="10.45807"><ele>236.0</ele><time>2026-03-29T07:28:34.418Z</time></trkpt><trkpt lat="45.5665183" lon="10.458235"><ele>236.0</ele><time>2026-03-29T07:28:35.418Z</time></trkpt><trkpt lat="45.5664183" lon="10.4583917"><ele>236.0</ele><time>2026-03-29T07:28:36.419Z</time></trkpt><trkpt lat="45.5663333" lon="10.4585183"><ele>236.0</ele><time>2026-03-29T07:28:37.418Z</time></trkpt><trkpt lat="45.566245" lon="10.4586133"><ele>236.60000000000002</ele><time>2026-03-29T07:28:38.418Z</time></trkpt><trkpt lat="45.5661483" lon="10.45869"><ele>237.20000000000002</ele><time>2026-03-29T07:28:39.418Z</time></trkpt><trkpt lat="45.5660467" lon="10.4587083"><ele>237.79999999999998</ele><time>2026-03-29T07:28:40.418Z</time></trkpt><trkpt lat="45.565935" lon="10.4586917"><ele>238.39999999999998</ele><time>2026-03-29T07:28:41.418Z</time></trkpt><trkpt lat="45.5658283" lon="10.4586567"><ele>239.0</ele><time>2026-03-29T07:28:42.418Z</time></trkpt><trkpt lat="45.56574" lon="10.4586167"><ele>239.00000000000003</ele><time>2026-03-29T07:28:43.419Z</time></trkpt><trkpt lat="45.5656583" lon="10.458575"><ele>239.0</ele><time>2026-03-29T07:28:44.418Z</time></trkpt><trkpt lat="45.565575" lon="10.45854"><ele>239.0</ele><time>2026-03-29T07:28:45.418Z</time></trkpt><trkpt lat="45.5654933" lon="10.4585083"><ele>239.0</ele><time>2026-03-29T07:28:46.418Z</time></trkpt><trkpt lat="45.56542" lon="10.4584783"><ele>239.00000000000003</ele><time>2026-03-29T07:28:47.418Z</time></trkpt><trkpt lat="45.565335" lon="10.4584533"><ele>239.0</ele><time>2026-03-29T07:28:48.419Z</time></trkpt><trkpt lat="45.565235" lon="10.4584317"><ele>238.75</ele><time>2026-03-29T07:28:49.418Z</time></trkpt><trkpt lat="45.565125" lon="10.4584083"><ele>238.5</ele><time>2026-03-29T07:28:50.418Z</time></trkpt><trkpt lat="45.5650133" lon="10.4583633"><ele>238.25</ele><time>2026-03-29T07:28:51.418Z</time></trkpt><trkpt lat="45.5649" lon="10.4583083"><ele>238.0</ele><time>2026-03-29T07:28:52.418Z</time></trkpt><trkpt lat="45.5647933" lon="10.458235"><ele>238.0</ele><time>2026-03-29T07:28:53.419Z</time></trkpt><trkpt lat="45.5646817" lon="10.4581567"><ele>238.0</ele><time>2026-03-29T07:28:54.418Z</time></trkpt><trkpt lat="45.564565" lon="10.45808"><ele>238.0</ele><time>2026-03-29T07:28:55.418Z</time></trkpt><trkpt lat="45.5644417" lon="10.4580033"><ele>238.0</ele><time>2026-03-29T07:28:56.418Z</time></trkpt><trkpt lat="45.5643117" lon="10.4579233"><ele>237.5</ele><time>2026-03-29T07:28:57.418Z</time></trkpt><trkpt lat="45.5641767" lon="10.45786"><ele>237.0</ele><time>2026-03-29T07:28:58.418Z</time></trkpt><trkpt lat="45.56405" lon="10.4577783"><ele>236.5</ele><time>2026-03-29T07:28:59.418Z</time></trkpt><trkpt lat="45.563925" lon="10.4577083"><ele>236.0</ele><time>2026-03-29T07:29:00.418Z</time></trkpt><trkpt lat="45.5638" lon="10.4576417"><ele>236.0</ele><time>2026-03-29T07:29:01.418Z</time></trkpt><trkpt lat="45.56367" lon="10.4575733"><ele>236.00000000000003</ele><time>2026-03-29T07:29:02.418Z</time></trkpt><trkpt lat="45.56356" lon="10.4575333"><ele>236.00000000000003</ele><time>2026-03-29T07:29:03.418Z</time></trkpt><trkpt lat="45.5634683" lon="10.4574967"><ele>236.0</ele><time>2026-03-29T07:29:04.419Z</time></trkpt><trkpt lat="45.56339" lon="10.45747"><ele>236.0</ele><time>2026-03-29T07:29:05.418Z</time></trkpt><trkpt lat="45.5633217" lon="10.4574733"><ele>236.0</ele><time>2026-03-29T07:29:06.418Z</time></trkpt><trkpt lat="45.5632433" lon="10.4576117"><ele>236.0</ele><time>2026-03-29T07:29:08.418Z</time></trkpt><trkpt lat="45.56323" lon="10.4577467"><ele>236.0</ele><time>2026-03-29T07:29:09.418Z</time></trkpt><trkpt lat="45.5632233" lon="10.457915"><ele>236.0</ele><time>2026-03-29T07:29:10.418Z</time></trkpt><trkpt lat="45.56321" lon="10.458085"><ele>236.60000000000002</ele><time>2026-03-29T07:29:11.418Z</time></trkpt><trkpt lat="45.5631917" lon="10.45824"><ele>237.20000000000002</ele><time>2026-03-29T07:29:12.418Z</time></trkpt><trkpt lat="45.5631667" lon="10.458385"><ele>237.79999999999998</ele><time>2026-03-29T07:29:13.418Z</time></trkpt><trkpt lat="45.56314" lon="10.45853"><ele>238.39999999999998</ele><time>2026-03-29T07:29:14.418Z</time></trkpt><trkpt lat="45.5631167" lon="10.4586567"><ele>239.0</ele><time>2026-03-29T07:29:15.418Z</time></trkpt><trkpt lat="45.5630917" lon="10.4588167"><ele>239.5</ele><time>2026-03-29T07:29:16.419Z</time></trkpt><trkpt lat="45.5630533" lon="10.4589883"><ele>240.0</ele><time>2026-03-29T07:29:17.418Z</time></trkpt><trkpt lat="45.563015" lon="10.4591617"><ele>240.5</ele><time>2026-03-29T07:29:18.418Z</time></trkpt><trkpt lat="45.5629717" lon="10.45933"><ele>241.0</ele><time>2026-03-29T07:29:19.419Z</time></trkpt><trkpt lat="45.5629333" lon="10.4594983"><ele>241.20000000000002</ele><time>2026-03-29T07:29:20.419Z</time></trkpt><trkpt lat="45.5628933" lon="10.4596633"><ele>241.40000000000003</ele><time>2026-03-29T07:29:21.418Z</time></trkpt><trkpt lat="45.5628617" lon="10.4598117"><ele>241.6</ele><time>2026-03-29T07:29:22.418Z</time></trkpt><trkpt lat="45.562835" lon="10.4599367"><ele>241.8</ele><time>2026-03-29T07:29:23.419Z</time></trkpt><trkpt lat="45.562785" lon="10.4600033"><ele>242.0</ele><time>2026-03-29T07:29:24.419Z</time></trkpt><trkpt lat="45.562695" lon="10.4600733"><ele>242.0</ele><time>2026-03-29T07:29:26.419Z</time></trkpt><trkpt lat="45.5625733" lon="10.4599417"><ele>242.0</ele><time>2026-03-29T07:29:28.418Z</time></trkpt><trkpt lat="45.56247" lon="10.459885"><ele>242.0</ele><time>2026-03-29T07:29:29.418Z</time></trkpt><trkpt lat="45.5623567" lon="10.4598333"><ele>242.0</ele><time>2026-03-29T07:29:30.418Z</time></trkpt><trkpt lat="45.5622283" lon="10.4597883"><ele>242.0</ele><time>2026-03-29T07:29:31.418Z</time></trkpt><trkpt lat="45.56209" lon="10.459735"><ele>242.0</ele><time>2026-03-29T07:29:32.418Z</time></trkpt><trkpt lat="45.56196" lon="10.459675"><ele>242.0</ele><time>2026-03-29T07:29:33.418Z</time></trkpt><trkpt lat="45.5618333" lon="10.4596067"><ele>242.0</ele><time>2026-03-29T07:29:34.418Z</time></trkpt><trkpt lat="45.5617167" lon="10.4595333"><ele>241.0</ele><time>2026-03-29T07:29:35.418Z</time></trkpt><trkpt lat="45.5616017" lon="10.4595017"><ele>240.0</ele><time>2026-03-29T07:29:36.418Z</time></trkpt><trkpt lat="45.56148" lon="10.4594533"><ele>239.0</ele><time>2026-03-29T07:29:37.419Z</time></trkpt><trkpt lat="45.56136" lon="10.459415"><ele>238.0</ele><time>2026-03-29T07:29:38.419Z</time></trkpt><trkpt lat="45.5612417" lon="10.459375"><ele>237.0</ele><time>2026-03-29T07:29:39.418Z</time></trkpt><trkpt lat="45.561115" lon="10.4593467"><ele>236.0</ele><time>2026-03-29T07:29:40.418Z</time></trkpt><trkpt lat="45.560975" lon="10.4593367"><ele>235.0</ele><time>2026-03-29T07:29:41.418Z</time></trkpt><trkpt lat="45.5608233" lon="10.4593483"><ele>234.0</ele><time>2026-03-29T07:29:42.418Z</time></trkpt><trkpt lat="45.560665" lon="10.4593667"><ele>234.0</ele><time>2026-03-29T07:29:43.418Z</time></trkpt><trkpt lat="45.5604917" lon="10.4593617"><ele>234.0</ele><time>2026-03-29T07:29:44.418Z</time></trkpt><trkpt lat="45.5603117" lon="10.4593383"><ele>234.0</ele><time>2026-03-29T07:29:45.418Z</time></trkpt><trkpt lat="45.56014" lon="10.4592967"><ele>233.5</ele><time>2026-03-29T07:29:46.418Z</time></trkpt><trkpt lat="45.56" lon="10.45924"><ele>233.0</ele><time>2026-03-29T07:29:47.418Z</time></trkpt><trkpt lat="45.5598933" lon="10.4591583"><ele>232.5</ele><time>2026-03-29T07:29:48.419Z</time></trkpt><trkpt lat="45.5598317" lon="10.45902"><ele>232.0</ele><time>2026-03-29T07:29:49.418Z</time></trkpt><trkpt lat="45.55981" lon="10.4588567"><ele>231.25</ele><time>2026-03-29T07:29:50.418Z</time></trkpt><trkpt lat="45.559815" lon="10.4586567"><ele>230.5</ele><time>2026-03-29T07:29:51.418Z</time></trkpt><trkpt lat="45.5598217" lon="10.4584567"><ele>229.75</ele><time>2026-03-29T07:29:52.418Z</time></trkpt><trkpt lat="45.5598367" lon="10.4582417"><ele>229.0</ele><time>2026-03-29T07:29:53.419Z</time></trkpt><trkpt lat="45.5598583" lon="10.4580067"><ele>229.33333333333331</ele><time>2026-03-29T07:29:54.418Z</time></trkpt><trkpt lat="45.5598867" lon="10.4577717"><ele>229.66666666666669</ele><time>2026-03-29T07:29:55.418Z</time></trkpt><trkpt lat="45.5599" lon="10.4575217"><ele>230.0</ele><time>2026-03-29T07:29:56.419Z</time></trkpt><trkpt lat="45.559915" lon="10.457265"><ele>229.66666666666669</ele><time>2026-03-29T07:29:57.419Z</time></trkpt><trkpt lat="45.55994" lon="10.457"><ele>229.33333333333331</ele><time>2026-03-29T07:29:58.418Z</time></trkpt><trkpt lat="45.5599583" lon="10.45675"><ele>229.0</ele><time>2026-03-29T07:29:59.418Z</time></trkpt><trkpt lat="45.55997" lon="10.45654"><ele>229.0</ele><time>2026-03-29T07:30:00.418Z</time></trkpt><trkpt lat="45.55997" lon="10.4563633"><ele>229.0</ele><time>2026-03-29T07:30:01.418Z</time></trkpt><trkpt lat="45.5599883" lon="10.45616"><ele>229.0</ele><time>2026-03-29T07:30:02.418Z</time></trkpt><trkpt lat="45.5600033" lon="10.4559467"><ele>229.0</ele><time>2026-03-29T07:30:03.419Z</time></trkpt><trkpt lat="45.560015" lon="10.4557467"><ele>229.25</ele><time>2026-03-29T07:30:04.418Z</time></trkpt><trkpt lat="45.5600283" lon="10.4555467"><ele>229.5</ele><time>2026-03-29T07:30:05.418Z</time></trkpt><trkpt lat="45.56004" lon="10.4553783"><ele>229.75</ele><time>2026-03-29T07:30:06.418Z</time></trkpt><trkpt lat="45.5600483" lon="10.455225"><ele>230.0</ele><time>2026-03-29T07:30:07.419Z</time></trkpt><trkpt lat="45.5600567" lon="10.4550917"><ele>230.00000000000003</ele><time>2026-03-29T07:30:08.418Z</time></trkpt><trkpt lat="45.5600433" lon="10.4550033"><ele>230.0</ele><time>2026-03-29T07:30:09.418Z</time></trkpt><trkpt lat="45.5599567" lon="10.454955"><ele>230.0</ele><time>2026-03-29T07:30:11.418Z</time></trkpt><trkpt lat="45.5598883" lon="10.4549717"><ele>230.0</ele><time>2026-03-29T07:30:12.418Z</time></trkpt><trkpt lat="45.5598017" lon="10.454995"><ele>230.00000000000003</ele><time>2026-03-29T07:30:13.418Z</time></trkpt><trkpt lat="45.55971" lon="10.455015"><ele>230.0</ele><time>2026-03-29T07:30:14.418Z</time></trkpt><trkpt lat="45.5596" lon="10.4550217"><ele>229.25</ele><time>2026-03-29T07:30:15.419Z</time></trkpt><trkpt lat="45.5594733" lon="10.4550317"><ele>228.5</ele><time>2026-03-29T07:30:16.418Z</time></trkpt><trkpt lat="45.55934" lon="10.4550467"><ele>227.75</ele><time>2026-03-29T07:30:17.418Z</time></trkpt><trkpt lat="45.559205" lon="10.4550533"><ele>227.0</ele><time>2026-03-29T07:30:18.418Z</time></trkpt><trkpt lat="45.5590667" lon="10.45505"><ele>227.0</ele><time>2026-03-29T07:30:19.418Z</time></trkpt><trkpt lat="45.558915" lon="10.455055"><ele>227.0</ele><time>2026-03-29T07:30:20.419Z</time></trkpt><trkpt lat="45.5587533" lon="10.4550783"><ele>227.0</ele><time>2026-03-29T07:30:21.418Z</time></trkpt><trkpt lat="45.558605" lon="10.45512"><ele>225.66666666666669</ele><time>2026-03-29T07:30:22.418Z</time></trkpt><trkpt lat="45.558445" lon="10.4551617"><ele>224.33333333333331</ele><time>2026-03-29T07:30:23.418Z</time></trkpt><trkpt lat="45.558275" lon="10.4552117"><ele>223.0</ele><time>2026-03-29T07:30:24.418Z</time></trkpt><trkpt lat="45.5581" lon="10.4552483"><ele>223.0</ele><time>2026-03-29T07:30:25.418Z</time></trkpt><trkpt lat="45.5579433" lon="10.45529"><ele>223.0</ele><time>2026-03-29T07:30:26.418Z</time></trkpt><trkpt lat="45.557815" lon="10.4553417"><ele>223.0</ele><time>2026-03-29T07:30:27.418Z</time></trkpt><trkpt lat="45.5577267" lon="10.4554117"><ele>223.0</ele><time>2026-03-29T07:30:28.418Z</time></trkpt><trkpt lat="45.5576833" lon="10.4555217"><ele>224.0</ele><time>2026-03-29T07:30:29.418Z</time></trkpt><trkpt lat="45.5576683" lon="10.4556517"><ele>225.0</ele><time>2026-03-29T07:30:30.419Z</time></trkpt><trkpt lat="45.557655" lon="10.4557967"><ele>226.0</ele><time>2026-03-29T07:30:31.418Z</time></trkpt><trkpt lat="45.5576533" lon="10.4559617"><ele>227.0</ele><time>2026-03-29T07:30:32.418Z</time></trkpt><trkpt lat="45.5576417" lon="10.4561317"><ele>228.0</ele><time>2026-03-29T07:30:33.418Z</time></trkpt><trkpt lat="45.5576117" lon="10.4562983"><ele>228.75</ele><time>2026-03-29T07:30:34.418Z</time></trkpt><trkpt lat="45.55756" lon="10.4564567"><ele>229.5</ele><time>2026-03-29T07:30:35.418Z</time></trkpt><trkpt lat="45.5574817" lon="10.4566067"><ele>230.25</ele><time>2026-03-29T07:30:36.418Z</time></trkpt><trkpt lat="45.55738" lon="10.4567167"><ele>231.0</ele><time>2026-03-29T07:30:37.418Z</time></trkpt><trkpt lat="45.55727" lon="10.45681"><ele>231.0</ele><time>2026-03-29T07:30:38.418Z</time></trkpt><trkpt lat="45.55716" lon="10.4568983"><ele>231.0</ele><time>2026-03-29T07:30:39.419Z</time></trkpt><trkpt lat="45.557055" lon="10.45699"><ele>231.0</ele><time>2026-03-29T07:30:40.419Z</time></trkpt><trkpt lat="45.55696" lon="10.457085"><ele>231.0</ele><time>2026-03-29T07:30:41.419Z</time></trkpt><trkpt lat="45.5568717" lon="10.4571733"><ele>233.25</ele><time>2026-03-29T07:30:42.418Z</time></trkpt><trkpt lat="45.5567833" lon="10.4572583"><ele>235.5</ele><time>2026-03-29T07:30:43.419Z</time></trkpt><trkpt lat="45.5566817" lon="10.457345"><ele>237.75</ele><time>2026-03-29T07:30:44.418Z</time></trkpt><trkpt lat="45.5565733" lon="10.4574117"><ele>240.0</ele><time>2026-03-29T07:30:45.418Z</time></trkpt><trkpt lat="45.5564567" lon="10.4574883"><ele>240.0</ele><time>2026-03-29T07:30:46.418Z</time></trkpt><trkpt lat="45.5563167" lon="10.45755"><ele>240.0</ele><time>2026-03-29T07:30:47.418Z</time></trkpt><trkpt lat="45.5561983" lon="10.4576367"><ele>240.0</ele><time>2026-03-29T07:30:48.418Z</time></trkpt><trkpt lat="45.5560967" lon="10.4577433"><ele>240.0</ele><time>2026-03-29T07:30:49.418Z</time></trkpt><trkpt lat="45.55601" lon="10.4578383"><ele>241.75</ele><time>2026-03-29T07:30:50.418Z</time></trkpt><trkpt lat="45.5559383" lon="10.4579683"><ele>243.5</ele><time>2026-03-29T07:30:51.418Z</time></trkpt><trkpt lat="45.55589" lon="10.4581033"><ele>245.25</ele><time>2026-03-29T07:30:52.418Z</time></trkpt><trkpt lat="45.5558317" lon="10.458245"><ele>247.0</ele><time>2026-03-29T07:30:53.418Z</time></trkpt><trkpt lat="45.5557467" lon="10.4583567"><ele>247.0</ele><time>2026-03-29T07:30:54.418Z</time></trkpt><trkpt lat="45.55564" lon="10.4584283"><ele>247.0</ele><time>2026-03-29T07:30:55.418Z</time></trkpt><trkpt lat="45.5555217" lon="10.4585017"><ele>247.0</ele><time>2026-03-29T07:30:56.418Z</time></trkpt><trkpt lat="45.5553883" lon="10.4585717"><ele>247.0</ele><time>2026-03-29T07:30:57.418Z</time></trkpt><trkpt lat="45.55525" lon="10.458655"><ele>245.66666666666666</ele><time>2026-03-29T07:30:58.418Z</time></trkpt><trkpt lat="45.5551017" lon="10.4587333"><ele>244.33333333333331</ele><time>2026-03-29T07:30:59.418Z</time></trkpt><trkpt lat="45.5549433" lon="10.4588083"><ele>243.0</ele><time>2026-03-29T07:31:00.418Z</time></trkpt><trkpt lat="45.554785" lon="10.458885"><ele>243.25</ele><time>2026-03-29T07:31:01.418Z</time></trkpt><trkpt lat="45.5546317" lon="10.458955"><ele>243.5</ele><time>2026-03-29T07:31:02.418Z</time></trkpt><trkpt lat="45.5544933" lon="10.4590467"><ele>243.75</ele><time>2026-03-29T07:31:03.419Z</time></trkpt><trkpt lat="45.5543933" lon="10.4591567"><ele>244.0</ele><time>2026-03-29T07:31:04.418Z</time></trkpt><trkpt lat="45.5543283" lon="10.4592867"><ele>244.0</ele><time>2026-03-29T07:31:05.418Z</time></trkpt><trkpt lat="45.5543033" lon="10.4594117"><ele>244.0</ele><time>2026-03-29T07:31:06.418Z</time></trkpt><trkpt lat="45.5542967" lon="10.4595683"><ele>244.0</ele><time>2026-03-29T07:31:07.418Z</time></trkpt><trkpt lat="45.5543017" lon="10.4597467"><ele>244.0</ele><time>2026-03-29T07:31:08.419Z</time></trkpt><trkpt lat="45.55431" lon="10.4599283"><ele>245.25</ele><time>2026-03-29T07:31:09.418Z</time></trkpt><trkpt lat="45.5543133" lon="10.460125"><ele>246.5</ele><time>2026-03-29T07:31:10.418Z</time></trkpt><trkpt lat="45.5543167" lon="10.460335"><ele>247.75</ele><time>2026-03-29T07:31:11.418Z</time></trkpt><trkpt lat="45.5543233" lon="10.4605467"><ele>249.0</ele><time>2026-03-29T07:31:12.418Z</time></trkpt><trkpt lat="45.5543333" lon="10.4607383"><ele>249.5</ele><time>2026-03-29T07:31:13.418Z</time></trkpt><trkpt lat="45.5543517" lon="10.4609133"><ele>250.0</ele><time>2026-03-29T07:31:14.418Z</time></trkpt><trkpt lat="45.5543683" lon="10.4610733"><ele>250.5</ele><time>2026-03-29T07:31:15.418Z</time></trkpt><trkpt lat="45.55439" lon="10.46124"><ele>251.0</ele><time>2026-03-29T07:31:16.418Z</time></trkpt><trkpt lat="45.554405" lon="10.4614117"><ele>252.0</ele><time>2026-03-29T07:31:17.419Z</time></trkpt><trkpt lat="45.55441" lon="10.46156"><ele>253.00000000000003</ele><time>2026-03-29T07:31:18.418Z</time></trkpt><trkpt lat="45.5544083" lon="10.4616617"><ele>254.00000000000003</ele><time>2026-03-29T07:31:19.419Z</time></trkpt><trkpt lat="45.5543967" lon="10.4617633"><ele>255.0</ele><time>2026-03-29T07:31:21.418Z</time></trkpt><trkpt lat="45.55441" lon="10.4615783"><ele>256.0</ele><time>2026-03-29T07:31:33.419Z</time></trkpt><trkpt lat="45.5543983" lon="10.4614433"><ele>254.75</ele><time>2026-03-29T07:31:34.418Z</time></trkpt><trkpt lat="45.554395" lon="10.4612633"><ele>253.5</ele><time>2026-03-29T07:31:35.418Z</time></trkpt><trkpt lat="45.554385" lon="10.4610817"><ele>252.25</ele><time>2026-03-29T07:31:36.418Z</time></trkpt><trkpt lat="45.55437" lon="10.4608833"><ele>251.0</ele><time>2026-03-29T07:31:37.418Z</time></trkpt><trkpt lat="45.5543517" lon="10.4607083"><ele>251.0</ele><time>2026-03-29T07:31:38.418Z</time></trkpt><trkpt lat="45.5543383" lon="10.4605433"><ele>251.00000000000003</ele><time>2026-03-29T07:31:39.418Z</time></trkpt><trkpt lat="45.55433" lon="10.4603883"><ele>251.00000000000003</ele><time>2026-03-29T07:31:40.419Z</time></trkpt><trkpt lat="45.5543267" lon="10.4602467"><ele>251.0</ele><time>2026-03-29T07:31:41.419Z</time></trkpt><trkpt lat="45.554335" lon="10.4601233"><ele>251.0</ele><time>2026-03-29T07:31:42.418Z</time></trkpt><trkpt lat="45.5543383" lon="10.4599817"><ele>250.60000000000002</ele><time>2026-03-29T07:31:43.418Z</time></trkpt><trkpt lat="45.5543383" lon="10.459845"><ele>250.20000000000002</ele><time>2026-03-29T07:31:44.419Z</time></trkpt><trkpt lat="45.5543333" lon="10.45971"><ele>249.79999999999998</ele><time>2026-03-29T07:31:45.418Z</time></trkpt><trkpt lat="45.5543367" lon="10.4595767"><ele>249.39999999999998</ele><time>2026-03-29T07:31:46.418Z</time></trkpt><trkpt lat="45.5543383" lon="10.4594617"><ele>249.0</ele><time>2026-03-29T07:31:47.418Z</time></trkpt><trkpt lat="45.5543417" lon="10.4593267"><ele>249.0</ele><time>2026-03-29T07:31:49.419Z</time></trkpt><trkpt lat="45.5542567" lon="10.4593517"><ele>249.0</ele><time>2026-03-29T07:31:54.418Z</time></trkpt><trkpt lat="45.5541983" lon="10.4593967"><ele>249.0</ele><time>2026-03-29T07:31:55.418Z</time></trkpt><trkpt lat="45.55414" lon="10.459455"><ele>249.0</ele><time>2026-03-29T07:31:56.419Z</time></trkpt><trkpt lat="45.5540833" lon="10.4595117"><ele>249.0</ele><time>2026-03-29T07:31:57.419Z</time></trkpt><trkpt lat="45.5540233" lon="10.4595883"><ele>249.0</ele><time>2026-03-29T07:31:58.418Z</time></trkpt><trkpt lat="45.5539617" lon="10.459665"><ele>249.0</ele><time>2026-03-29T07:31:59.419Z</time></trkpt><trkpt lat="45.5539017" lon="10.4597317"><ele>248.99999999999997</ele><time>2026-03-29T07:32:00.418Z</time></trkpt><trkpt lat="45.5538517" lon="10.4598117"><ele>248.99999999999997</ele><time>2026-03-29T07:32:01.418Z</time></trkpt><trkpt lat="45.5537883" lon="10.4599233"><ele>249.0</ele><time>2026-03-29T07:32:03.418Z</time></trkpt><trkpt lat="45.5537333" lon="10.4600467"><ele>249.0</ele><time>2026-03-29T07:32:06.418Z</time></trkpt><trkpt lat="45.553685" lon="10.4601733"><ele>248.16666666666666</ele><time>2026-03-29T07:32:08.419Z</time></trkpt><trkpt lat="45.5536117" lon="10.4603333"><ele>247.33333333333331</ele><time>2026-03-29T07:32:10.418Z</time></trkpt><trkpt lat="45.5535717" lon="10.4604167"><ele>246.5</ele><time>2026-03-29T07:32:11.419Z</time></trkpt><trkpt lat="45.5535383" lon="10.4604967"><ele>245.66666666666666</ele><time>2026-03-29T07:32:12.418Z</time></trkpt><trkpt lat="45.5534933" lon="10.4605783"><ele>244.83333333333331</ele><time>2026-03-29T07:32:13.419Z</time></trkpt><trkpt lat="45.5534517" lon="10.4606467"><ele>244.0</ele><time>2026-03-29T07:32:14.418Z</time></trkpt><trkpt lat="45.553375" lon="10.4607667"><ele>243.99999999999997</ele><time>2026-03-29T07:32:16.418Z</time></trkpt><trkpt lat="45.5532967" lon="10.4608433"><ele>244.0</ele><time>2026-03-29T07:32:18.419Z</time></trkpt><trkpt lat="45.553205" lon="10.4609133"><ele>244.0</ele><time>2026-03-29T07:32:20.418Z</time></trkpt><trkpt lat="45.5531167" lon="10.4609533"><ele>244.0</ele><time>2026-03-29T07:32:22.419Z</time></trkpt><trkpt lat="45.5530433" lon="10.4609733"><ele>243.99999999999997</ele><time>2026-03-29T07:32:24.418Z</time></trkpt><trkpt lat="45.5529683" lon="10.4610017"><ele>244.0</ele><time>2026-03-29T07:32:26.418Z</time></trkpt><trkpt lat="45.552905" lon="10.4610683"><ele>244.0</ele><time>2026-03-29T07:32:28.418Z</time></trkpt><trkpt lat="45.5528783" lon="10.4612433"><ele>243.99999999999997</ele><time>2026-03-29T07:32:30.418Z</time></trkpt><trkpt lat="45.5528667" lon="10.4613433"><ele>243.99999999999997</ele><time>2026-03-29T07:32:31.419Z</time></trkpt><trkpt lat="45.5528467" lon="10.4614783"><ele>244.0</ele><time>2026-03-29T07:32:33.418Z</time></trkpt><trkpt lat="45.5527783" lon="10.4615533"><ele>244.0</ele><time>2026-03-29T07:32:35.418Z</time></trkpt><trkpt lat="45.55267" lon="10.4615783"><ele>243.99999999999997</ele><time>2026-03-29T07:32:37.418Z</time></trkpt><trkpt lat="45.5526" lon="10.4615767"><ele>244.0</ele><time>2026-03-29T07:32:38.418Z</time></trkpt><trkpt lat="45.5525267" lon="10.4615817"><ele>244.0</ele><time>2026-03-29T07:32:39.418Z</time></trkpt><trkpt lat="45.5524517" lon="10.4615817"><ele>244.0</ele><time>2026-03-29T07:32:40.418Z</time></trkpt><trkpt lat="45.5523817" lon="10.46158"><ele>243.99999999999997</ele><time>2026-03-29T07:32:41.418Z</time></trkpt><trkpt lat="45.55227" lon="10.4615317"><ele>244.0</ele><time>2026-03-29T07:32:43.418Z</time></trkpt><trkpt lat="45.5522167" lon="10.4614717"><ele>243.99999999999997</ele><time>2026-03-29T07:32:44.418Z</time></trkpt><trkpt lat="45.55216" lon="10.4614183"><ele>244.0</ele><time>2026-03-29T07:32:45.418Z</time></trkpt><trkpt lat="45.5520567" lon="10.4613217"><ele>244.0</ele><time>2026-03-29T07:32:47.418Z</time></trkpt><trkpt lat="45.552005" lon="10.4612633"><ele>244.0</ele><time>2026-03-29T07:32:48.418Z</time></trkpt><trkpt lat="45.5519667" lon="10.46119"><ele>243.99999999999997</ele><time>2026-03-29T07:32:49.418Z</time></trkpt><trkpt lat="45.55193" lon="10.4611167"><ele>244.0</ele><time>2026-03-29T07:32:50.418Z</time></trkpt><trkpt lat="45.5518217" lon="10.461025"><ele>243.6</ele><time>2026-03-29T07:32:52.418Z</time></trkpt><trkpt lat="45.5517417" lon="10.4609833"><ele>243.2</ele><time>2026-03-29T07:32:53.418Z</time></trkpt><trkpt lat="45.551645" lon="10.4609617"><ele>242.79999999999998</ele><time>2026-03-29T07:32:54.418Z</time></trkpt><trkpt lat="45.551535" lon="10.4609583"><ele>242.39999999999998</ele><time>2026-03-29T07:32:55.419Z</time></trkpt><trkpt lat="45.5514217" lon="10.4609783"><ele>242.0</ele><time>2026-03-29T07:32:56.419Z</time></trkpt><trkpt lat="45.5512917" lon="10.461015"><ele>241.75</ele><time>2026-03-29T07:32:57.418Z</time></trkpt><trkpt lat="45.5511567" lon="10.4610433"><ele>241.5</ele><time>2026-03-29T07:32:58.418Z</time></trkpt><trkpt lat="45.5510333" lon="10.4610633"><ele>241.25</ele><time>2026-03-29T07:32:59.418Z</time></trkpt><trkpt lat="45.55092" lon="10.4610633"><ele>241.0</ele><time>2026-03-29T07:33:00.418Z</time></trkpt><trkpt lat="45.550835" lon="10.4610267"><ele>240.99999999999997</ele><time>2026-03-29T07:33:01.418Z</time></trkpt><trkpt lat="45.5507733" lon="10.4609583"><ele>241.0</ele><time>2026-03-29T07:33:02.418Z</time></trkpt><trkpt lat="45.55073" lon="10.4608733"><ele>241.0</ele><time>2026-03-29T07:33:03.418Z</time></trkpt><trkpt lat="45.5507167" lon="10.4607633"><ele>241.0</ele><time>2026-03-29T07:33:04.418Z</time></trkpt><trkpt lat="45.5507117" lon="10.4606433"><ele>240.99999999999997</ele><time>2026-03-29T07:33:05.418Z</time></trkpt><trkpt lat="45.550715" lon="10.46051"><ele>241.0</ele><time>2026-03-29T07:33:06.418Z</time></trkpt><trkpt lat="45.5507" lon="10.4603867"><ele>240.60000000000002</ele><time>2026-03-29T07:33:07.419Z</time></trkpt><trkpt lat="45.550675" lon="10.460285"><ele>240.20000000000002</ele><time>2026-03-29T07:33:08.418Z</time></trkpt><trkpt lat="45.550585" lon="10.4602033"><ele>239.79999999999998</ele><time>2026-03-29T07:33:10.419Z</time></trkpt><trkpt lat="45.550515" lon="10.4602"><ele>239.39999999999998</ele><time>2026-03-29T07:33:11.419Z</time></trkpt><trkpt lat="45.5504133" lon="10.4602117"><ele>239.0</ele><time>2026-03-29T07:33:12.418Z</time></trkpt><trkpt lat="45.5502867" lon="10.4602417"><ele>239.0</ele><time>2026-03-29T07:33:13.418Z</time></trkpt><trkpt lat="45.5501383" lon="10.4602817"><ele>239.0</ele><time>2026-03-29T07:33:14.418Z</time></trkpt><trkpt lat="45.5499833" lon="10.4603133"><ele>239.0</ele><time>2026-03-29T07:33:15.418Z</time></trkpt><trkpt lat="45.54983" lon="10.4603517"><ele>239.0</ele><time>2026-03-29T07:33:16.418Z</time></trkpt><trkpt lat="45.5496867" lon="10.4603617"><ele>238.99999999999997</ele><time>2026-03-29T07:33:17.419Z</time></trkpt><trkpt lat="45.5495683" lon="10.46038"><ele>238.99999999999997</ele><time>2026-03-29T07:33:18.418Z</time></trkpt><trkpt lat="45.54949" lon="10.4603917"><ele>239.0</ele><time>2026-03-29T07:33:19.418Z</time></trkpt><trkpt lat="45.549425" lon="10.460385"><ele>239.0</ele><time>2026-03-29T07:33:20.418Z</time></trkpt><trkpt lat="45.5493633" lon="10.4602933"><ele>240.0</ele><time>2026-03-29T07:33:22.418Z</time></trkpt><trkpt lat="45.5493333" lon="10.460205"><ele>240.99999999999997</ele><time>2026-03-29T07:33:23.418Z</time></trkpt><trkpt lat="45.5492783" lon="10.46008"><ele>241.99999999999997</ele><time>2026-03-29T07:33:24.418Z</time></trkpt><trkpt lat="45.5491917" lon="10.4599483"><ele>243.0</ele><time>2026-03-29T07:33:25.418Z</time></trkpt><trkpt lat="45.5490817" lon="10.459815"><ele>244.0</ele><time>2026-03-29T07:33:26.418Z</time></trkpt><trkpt lat="45.5489667" lon="10.459665"><ele>243.75</ele><time>2026-03-29T07:33:27.418Z</time></trkpt><trkpt lat="45.5488533" lon="10.4595333"><ele>243.5</ele><time>2026-03-29T07:33:28.418Z</time></trkpt><trkpt lat="45.54874" lon="10.45942"><ele>243.25</ele><time>2026-03-29T07:33:29.418Z</time></trkpt><trkpt lat="45.54863" lon="10.4593017"><ele>243.0</ele><time>2026-03-29T07:33:30.419Z</time></trkpt><trkpt lat="45.548525" lon="10.4592017"><ele>243.33333333333334</ele><time>2026-03-29T07:33:31.418Z</time></trkpt><trkpt lat="45.5484383" lon="10.4591067"><ele>243.66666666666669</ele><time>2026-03-29T07:33:32.418Z</time></trkpt><trkpt lat="45.5483517" lon="10.4590483"><ele>244.0</ele><time>2026-03-29T07:33:33.418Z</time></trkpt><trkpt lat="45.54828" lon="10.4590233"><ele>244.33333333333334</ele><time>2026-03-29T07:33:34.418Z</time></trkpt><trkpt lat="45.5482017" lon="10.4590383"><ele>244.66666666666669</ele><time>2026-03-29T07:33:35.418Z</time></trkpt><trkpt lat="45.548145" lon="10.4591067"><ele>245.0</ele><time>2026-03-29T07:33:36.419Z</time></trkpt><trkpt lat="45.5481167" lon="10.459195"><ele>245.0</ele><time>2026-03-29T07:33:37.418Z</time></trkpt><trkpt lat="45.5481283" lon="10.459315"><ele>245.0</ele><time>2026-03-29T07:33:38.418Z</time></trkpt><trkpt lat="45.5481517" lon="10.45945"><ele>245.0</ele><time>2026-03-29T07:33:39.418Z</time></trkpt><trkpt lat="45.54818" lon="10.4595967"><ele>245.0</ele><time>2026-03-29T07:33:40.418Z</time></trkpt><trkpt lat="45.54819" lon="10.459765"><ele>245.0</ele><time>2026-03-29T07:33:41.418Z</time></trkpt><trkpt lat="45.5481783" lon="10.4599517"><ele>245.0</ele><time>2026-03-29T07:33:42.418Z</time></trkpt><trkpt lat="45.548125" lon="10.4601517"><ele>245.0</ele><time>2026-03-29T07:33:43.419Z</time></trkpt><trkpt lat="45.5480483" lon="10.4603667"><ele>245.0</ele><time>2026-03-29T07:33:44.419Z</time></trkpt><trkpt lat="45.5479717" lon="10.4605933"><ele>245.0</ele><time>2026-03-29T07:33:45.418Z</time></trkpt><trkpt lat="45.5478983" lon="10.4608317"><ele>245.0</ele><time>2026-03-29T07:33:46.418Z</time></trkpt><trkpt lat="45.5478283" lon="10.4610967"><ele>245.0</ele><time>2026-03-29T07:33:47.418Z</time></trkpt><trkpt lat="45.5477617" lon="10.461385"><ele>245.66666666666669</ele><time>2026-03-29T07:33:48.418Z</time></trkpt><trkpt lat="45.5477267" lon="10.4616833"><ele>246.33333333333331</ele><time>2026-03-29T07:33:49.419Z</time></trkpt><trkpt lat="45.547695" lon="10.4619667"><ele>247.0</ele><time>2026-03-29T07:33:50.419Z</time></trkpt><trkpt lat="45.547675" lon="10.4622433"><ele>248.0</ele><time>2026-03-29T07:33:51.418Z</time></trkpt><trkpt lat="45.5476567" lon="10.4625"><ele>249.0</ele><time>2026-03-29T07:33:52.418Z</time></trkpt><trkpt lat="45.5476267" lon="10.4627317"><ele>250.0</ele><time>2026-03-29T07:33:53.419Z</time></trkpt><trkpt lat="45.5475917" lon="10.46297"><ele>251.33333333333331</ele><time>2026-03-29T07:33:54.418Z</time></trkpt><trkpt lat="45.5475633" lon="10.4631983"><ele>252.66666666666669</ele><time>2026-03-29T07:33:55.418Z</time></trkpt><trkpt lat="45.5475367" lon="10.4634383"><ele>254.0</ele><time>2026-03-29T07:33:56.418Z</time></trkpt><trkpt lat="45.5475217" lon="10.4636667"><ele>254.75</ele><time>2026-03-29T07:33:57.418Z</time></trkpt><trkpt lat="45.5475017" lon="10.4638767"><ele>255.5</ele><time>2026-03-29T07:33:58.418Z</time></trkpt><trkpt lat="45.5474783" lon="10.46406"><ele>256.25</ele><time>2026-03-29T07:33:59.419Z</time></trkpt><trkpt lat="45.54746" lon="10.4642083"><ele>257.0</ele><time>2026-03-29T07:34:00.418Z</time></trkpt><trkpt lat="45.5474467" lon="10.4643517"><ele>257.0</ele><time>2026-03-29T07:34:01.418Z</time></trkpt><trkpt lat="45.5474483" lon="10.4645"><ele>257.0</ele><time>2026-03-29T07:34:02.418Z</time></trkpt><trkpt lat="45.5474267" lon="10.4646417"><ele>257.0</ele><time>2026-03-29T07:34:03.419Z</time></trkpt><trkpt lat="45.5474033" lon="10.4647583"><ele>257.0</ele><time>2026-03-29T07:34:04.418Z</time></trkpt><trkpt lat="45.5473733" lon="10.4648467"><ele>257.0</ele><time>2026-03-29T07:34:05.418Z</time></trkpt><trkpt lat="45.54728" lon="10.4648933"><ele>256.75</ele><time>2026-03-29T07:34:07.418Z</time></trkpt><trkpt lat="45.5472117" lon="10.4648833"><ele>256.5</ele><time>2026-03-29T07:34:08.418Z</time></trkpt><trkpt lat="45.5471183" lon="10.464845"><ele>256.25</ele><time>2026-03-29T07:34:09.419Z</time></trkpt><trkpt lat="45.546985" lon="10.464785"><ele>256.0</ele><time>2026-03-29T07:34:10.418Z</time></trkpt><trkpt lat="45.5468083" lon="10.4647533"><ele>255.33333333333331</ele><time>2026-03-29T07:34:11.418Z</time></trkpt><trkpt lat="45.5466317" lon="10.46474"><ele>254.66666666666669</ele><time>2026-03-29T07:34:12.418Z</time></trkpt><trkpt lat="45.5464767" lon="10.4647267"><ele>254.0</ele><time>2026-03-29T07:34:13.418Z</time></trkpt><trkpt lat="45.54633" lon="10.4647067"><ele>253.66666666666669</ele><time>2026-03-29T07:34:14.418Z</time></trkpt><trkpt lat="45.5461833" lon="10.46465"><ele>253.33333333333331</ele><time>2026-03-29T07:34:15.418Z</time></trkpt><trkpt lat="45.54601" lon="10.4646017"><ele>253.0</ele><time>2026-03-29T07:34:16.418Z</time></trkpt><trkpt lat="45.5458283" lon="10.4645317"><ele>253.0</ele><time>2026-03-29T07:34:17.418Z</time></trkpt><trkpt lat="45.5456533" lon="10.4644567"><ele>253.0</ele><time>2026-03-29T07:34:18.418Z</time></trkpt><trkpt lat="45.54546" lon="10.4643833"><ele>253.0</ele><time>2026-03-29T07:34:19.418Z</time></trkpt><trkpt lat="45.5452683" lon="10.4643067"><ele>252.66666666666666</ele><time>2026-03-29T07:34:20.419Z</time></trkpt><trkpt lat="45.5450967" lon="10.4642467"><ele>252.33333333333331</ele><time>2026-03-29T07:34:21.419Z</time></trkpt><trkpt lat="45.54492" lon="10.4641717"><ele>252.0</ele><time>2026-03-29T07:34:22.418Z</time></trkpt><trkpt lat="45.5447433" lon="10.4641"><ele>252.0</ele><time>2026-03-29T07:34:23.418Z</time></trkpt><trkpt lat="45.544565" lon="10.4640333"><ele>252.0</ele><time>2026-03-29T07:34:24.418Z</time></trkpt><trkpt lat="45.5443833" lon="10.4639817"><ele>252.0</ele><time>2026-03-29T07:34:25.418Z</time></trkpt><trkpt lat="45.5442117" lon="10.46393"><ele>252.0</ele><time>2026-03-29T07:34:26.418Z</time></trkpt><trkpt lat="45.5440517" lon="10.4638883"><ele>252.0</ele><time>2026-03-29T07:34:27.418Z</time></trkpt><trkpt lat="45.5439117" lon="10.4638583"><ele>252.0</ele><time>2026-03-29T07:34:28.418Z</time></trkpt><trkpt lat="45.5437983" lon="10.463835"><ele>252.0</ele><time>2026-03-29T07:34:29.418Z</time></trkpt><trkpt lat="45.5437083" lon="10.4638183"><ele>252.2</ele><time>2026-03-29T07:34:30.418Z</time></trkpt><trkpt lat="45.5436383" lon="10.4638117"><ele>252.39999999999998</ele><time>2026-03-29T07:34:31.419Z</time></trkpt><trkpt lat="45.5435983" lon="10.4636417"><ele>252.60000000000002</ele><time>2026-03-29T07:34:33.418Z</time></trkpt><trkpt lat="45.543585" lon="10.4634967"><ele>252.8</ele><time>2026-03-29T07:34:34.418Z</time></trkpt><trkpt lat="45.54356" lon="10.4633067"><ele>253.0</ele><time>2026-03-29T07:34:35.418Z</time></trkpt><trkpt lat="45.5435217" lon="10.4631017"><ele>253.0</ele><time>2026-03-29T07:34:36.418Z</time></trkpt><trkpt lat="45.5434883" lon="10.4628967"><ele>253.0</ele><time>2026-03-29T07:34:37.418Z</time></trkpt><trkpt lat="45.5434517" lon="10.4626933"><ele>253.0</ele><time>2026-03-29T07:34:38.419Z</time></trkpt><trkpt lat="45.5434183" lon="10.4625"><ele>253.0</ele><time>2026-03-29T07:34:39.419Z</time></trkpt><trkpt lat="45.5433917" lon="10.4623183"><ele>253.0</ele><time>2026-03-29T07:34:40.418Z</time></trkpt><trkpt lat="45.5433767" lon="10.4621233"><ele>253.0</ele><time>2026-03-29T07:34:41.419Z</time></trkpt><trkpt lat="45.5433717" lon="10.4619217"><ele>253.0</ele><time>2026-03-29T07:34:42.418Z</time></trkpt><trkpt lat="45.5433567" lon="10.4617033"><ele>253.0</ele><time>2026-03-29T07:34:43.418Z</time></trkpt><trkpt lat="45.5433217" lon="10.461495"><ele>253.33333333333331</ele><time>2026-03-29T07:34:44.418Z</time></trkpt><trkpt lat="45.543275" lon="10.4612933"><ele>253.66666666666669</ele><time>2026-03-29T07:34:45.418Z</time></trkpt><trkpt lat="45.543215" lon="10.461085"><ele>254.0</ele><time>2026-03-29T07:34:46.418Z</time></trkpt><trkpt lat="45.5431567" lon="10.46088"><ele>254.2</ele><time>2026-03-29T07:34:47.418Z</time></trkpt><trkpt lat="45.54311" lon="10.4607233"><ele>254.39999999999998</ele><time>2026-03-29T07:34:48.418Z</time></trkpt><trkpt lat="45.5430933" lon="10.4605867"><ele>254.6</ele><time>2026-03-29T07:34:49.418Z</time></trkpt><trkpt lat="45.5430983" lon="10.4604583"><ele>254.8</ele><time>2026-03-29T07:34:50.418Z</time></trkpt><trkpt lat="45.5431133" lon="10.4603433"><ele>255.0</ele><time>2026-03-29T07:34:51.418Z</time></trkpt><trkpt lat="45.5431183" lon="10.4602267"><ele>255.2</ele><time>2026-03-29T07:34:52.418Z</time></trkpt><trkpt lat="45.5431133" lon="10.460115"><ele>255.4</ele><time>2026-03-29T07:34:53.418Z</time></trkpt><trkpt lat="45.54309" lon="10.4599933"><ele>255.60000000000002</ele><time>2026-03-29T07:34:54.419Z</time></trkpt><trkpt lat="45.5430533" lon="10.4598533"><ele>255.8</ele><time>2026-03-29T07:34:55.419Z</time></trkpt><trkpt lat="45.5429917" lon="10.4596867"><ele>256.0</ele><time>2026-03-29T07:34:56.418Z</time></trkpt><trkpt lat="45.5429283" lon="10.4595167"><ele>256.25</ele><time>2026-03-29T07:34:57.418Z</time></trkpt><trkpt lat="45.542885" lon="10.4593433"><ele>256.5</ele><time>2026-03-29T07:34:58.418Z</time></trkpt><trkpt lat="45.5428633" lon="10.4591767"><ele>256.75</ele><time>2026-03-29T07:34:59.418Z</time></trkpt><trkpt lat="45.5428533" lon="10.4590083"><ele>257.0</ele><time>2026-03-29T07:35:00.418Z</time></trkpt><trkpt lat="45.542875" lon="10.4588733"><ele>256.5</ele><time>2026-03-29T07:35:01.419Z</time></trkpt><trkpt lat="45.5428917" lon="10.4587833"><ele>256.0</ele><time>2026-03-29T07:35:02.419Z</time></trkpt><trkpt lat="45.5429683" lon="10.4587217"><ele>255.5</ele><time>2026-03-29T07:35:04.418Z</time></trkpt><trkpt lat="45.543055" lon="10.458755"><ele>255.0</ele><time>2026-03-29T07:35:05.419Z</time></trkpt><trkpt lat="45.5431583" lon="10.4587867"><ele>254.50000000000003</ele><time>2026-03-29T07:35:06.418Z</time></trkpt><trkpt lat="45.54324" lon="10.4587817"><ele>254.0</ele><time>2026-03-29T07:35:07.418Z</time></trkpt><trkpt lat="45.5433217" lon="10.4586883"><ele>253.25</ele><time>2026-03-29T07:35:09.418Z</time></trkpt><trkpt lat="45.5433167" lon="10.4584683"><ele>252.5</ele><time>2026-03-29T07:35:11.419Z</time></trkpt><trkpt lat="45.5432917" lon="10.4582917"><ele>251.75</ele><time>2026-03-29T07:35:12.419Z</time></trkpt><trkpt lat="45.5432783" lon="10.45809"><ele>251.0</ele><time>2026-03-29T07:35:13.419Z</time></trkpt><trkpt lat="45.54327" lon="10.4578767"><ele>250.60000000000002</ele><time>2026-03-29T07:35:14.418Z</time></trkpt><trkpt lat="45.5432683" lon="10.45769"><ele>250.20000000000002</ele><time>2026-03-29T07:35:15.418Z</time></trkpt><trkpt lat="45.5432683" lon="10.4575367"><ele>249.79999999999998</ele><time>2026-03-29T07:35:16.418Z</time></trkpt><trkpt lat="45.5432783" lon="10.4574017"><ele>249.39999999999998</ele><time>2026-03-29T07:35:17.418Z</time></trkpt><trkpt lat="45.543315" lon="10.457285"><ele>249.0</ele><time>2026-03-29T07:35:18.418Z</time></trkpt><trkpt lat="45.5433583" lon="10.4571583"><ele>248.6</ele><time>2026-03-29T07:35:19.418Z</time></trkpt><trkpt lat="45.5434" lon="10.4570233"><ele>248.2</ele><time>2026-03-29T07:35:20.419Z</time></trkpt><trkpt lat="45.5434367" lon="10.4568817"><ele>247.79999999999998</ele><time>2026-03-29T07:35:21.419Z</time></trkpt><trkpt lat="45.5434767" lon="10.4567283"><ele>247.39999999999998</ele><time>2026-03-29T07:35:22.419Z</time></trkpt><trkpt lat="45.5435133" lon="10.456565"><ele>247.0</ele><time>2026-03-29T07:35:23.419Z</time></trkpt><trkpt lat="45.5435583" lon="10.456415"><ele>247.0</ele><time>2026-03-29T07:35:24.418Z</time></trkpt><trkpt lat="45.5435783" lon="10.4562417"><ele>247.0</ele><time>2026-03-29T07:35:25.418Z</time></trkpt><trkpt lat="45.543585" lon="10.4560317"><ele>247.0</ele><time>2026-03-29T07:35:26.418Z</time></trkpt><trkpt lat="45.5435867" lon="10.45579"><ele>247.0</ele><time>2026-03-29T07:35:27.418Z</time></trkpt><trkpt lat="45.543595" lon="10.4555333"><ele>246.0</ele><time>2026-03-29T07:35:28.418Z</time></trkpt><trkpt lat="45.543605" lon="10.4552683"><ele>245.0</ele><time>2026-03-29T07:35:29.418Z</time></trkpt><trkpt lat="45.543605" lon="10.455045"><ele>244.0</ele><time>2026-03-29T07:35:30.419Z</time></trkpt><trkpt lat="45.543615" lon="10.4548517"><ele>243.99999999999997</ele><time>2026-03-29T07:35:31.418Z</time></trkpt><trkpt lat="45.543625" lon="10.4547217"><ele>244.0</ele><time>2026-03-29T07:35:32.419Z</time></trkpt><trkpt lat="45.54364" lon="10.4546033"><ele>244.0</ele><time>2026-03-29T07:35:33.418Z</time></trkpt><trkpt lat="45.5436383" lon="10.45449"><ele>244.0</ele><time>2026-03-29T07:35:34.418Z</time></trkpt><trkpt lat="45.5436333" lon="10.4543783"><ele>243.99999999999997</ele><time>2026-03-29T07:35:35.418Z</time></trkpt><trkpt lat="45.54361" lon="10.4542317"><ele>244.0</ele><time>2026-03-29T07:35:36.418Z</time></trkpt><trkpt lat="45.5435733" lon="10.4540717"><ele>243.2</ele><time>2026-03-29T07:35:37.418Z</time></trkpt><trkpt lat="45.5435433" lon="10.4539"><ele>242.39999999999998</ele><time>2026-03-29T07:35:38.419Z</time></trkpt><trkpt lat="45.5435217" lon="10.4537367"><ele>241.6</ele><time>2026-03-29T07:35:39.418Z</time></trkpt><trkpt lat="45.5435017" lon="10.4536383"><ele>240.8</ele><time>2026-03-29T07:35:40.418Z</time></trkpt><trkpt lat="45.543455" lon="10.4535217"><ele>240.0</ele><time>2026-03-29T07:35:42.418Z</time></trkpt><trkpt lat="45.5433717" lon="10.4534133"><ele>240.0</ele><time>2026-03-29T07:35:44.418Z</time></trkpt><trkpt lat="45.5433" lon="10.4533533"><ele>240.0</ele><time>2026-03-29T07:35:45.419Z</time></trkpt><trkpt lat="45.5432267" lon="10.45328"><ele>240.0</ele><time>2026-03-29T07:35:46.418Z</time></trkpt><trkpt lat="45.54315" lon="10.45317"><ele>240.0</ele><time>2026-03-29T07:35:47.419Z</time></trkpt><trkpt lat="45.5430817" lon="10.4530433"><ele>240.0</ele><time>2026-03-29T07:35:48.418Z</time></trkpt><trkpt lat="45.5430167" lon="10.45289"><ele>240.0</ele><time>2026-03-29T07:35:49.418Z</time></trkpt><trkpt lat="45.5429633" lon="10.4527217"><ele>240.0</ele><time>2026-03-29T07:35:50.419Z</time></trkpt><trkpt lat="45.5429333" lon="10.4525717"><ele>240.0</ele><time>2026-03-29T07:35:51.419Z</time></trkpt><trkpt lat="45.5429233" lon="10.4524417"><ele>240.0</ele><time>2026-03-29T07:35:52.418Z</time></trkpt><trkpt lat="45.5429333" lon="10.452335"><ele>240.0</ele><time>2026-03-29T07:35:53.418Z</time></trkpt><trkpt lat="45.542965" lon="10.45224"><ele>240.0</ele><time>2026-03-29T07:35:54.418Z</time></trkpt><trkpt lat="45.54303" lon="10.4521267"><ele>240.0</ele><time>2026-03-29T07:35:55.418Z</time></trkpt><trkpt lat="45.5431167" lon="10.4520017"><ele>240.0</ele><time>2026-03-29T07:35:56.418Z</time></trkpt><trkpt lat="45.5432067" lon="10.4518833"><ele>240.0</ele><time>2026-03-29T07:35:57.418Z</time></trkpt><trkpt lat="45.543255" lon="10.4517867"><ele>240.0</ele><time>2026-03-29T07:35:58.418Z</time></trkpt><trkpt lat="45.5432617" lon="10.4516017"><ele>239.5</ele><time>2026-03-29T07:36:00.418Z</time></trkpt><trkpt lat="45.54324" lon="10.451485"><ele>239.0</ele><time>2026-03-29T07:36:01.419Z</time></trkpt><trkpt lat="45.5432183" lon="10.45135"><ele>238.5</ele><time>2026-03-29T07:36:02.418Z</time></trkpt><trkpt lat="45.5432" lon="10.4512217"><ele>238.0</ele><time>2026-03-29T07:36:03.418Z</time></trkpt><trkpt lat="45.5431867" lon="10.4511083"><ele>237.5</ele><time>2026-03-29T07:36:04.419Z</time></trkpt><trkpt lat="45.5431817" lon="10.4509933"><ele>237.0</ele><time>2026-03-29T07:36:05.418Z</time></trkpt><trkpt lat="45.5431817" lon="10.450885"><ele>237.0</ele><time>2026-03-29T07:36:06.418Z</time></trkpt><trkpt lat="45.5431733" lon="10.4507683"><ele>237.0</ele><time>2026-03-29T07:36:07.419Z</time></trkpt><trkpt lat="45.5431733" lon="10.4506517"><ele>237.0</ele><time>2026-03-29T07:36:08.418Z</time></trkpt><trkpt lat="45.54317" lon="10.4505367"><ele>237.0</ele><time>2026-03-29T07:36:09.418Z</time></trkpt><trkpt lat="45.5431683" lon="10.4504233"><ele>237.0</ele><time>2026-03-29T07:36:10.419Z</time></trkpt><trkpt lat="45.5431783" lon="10.450315"><ele>237.0</ele><time>2026-03-29T07:36:11.419Z</time></trkpt><trkpt lat="45.54319" lon="10.4501967"><ele>236.83333333333334</ele><time>2026-03-29T07:36:12.419Z</time></trkpt><trkpt lat="45.5432033" lon="10.4500817"><ele>236.66666666666669</ele><time>2026-03-29T07:36:13.419Z</time></trkpt><trkpt lat="45.5432183" lon="10.4499667"><ele>236.5</ele><time>2026-03-29T07:36:14.418Z</time></trkpt><trkpt lat="45.543245" lon="10.4498567"><ele>236.33333333333334</ele><time>2026-03-29T07:36:15.418Z</time></trkpt><trkpt lat="45.5432783" lon="10.4497417"><ele>236.16666666666669</ele><time>2026-03-29T07:36:16.419Z</time></trkpt><trkpt lat="45.5433117" lon="10.4496433"><ele>236.0</ele><time>2026-03-29T07:36:17.418Z</time></trkpt><trkpt lat="45.543335" lon="10.4495433"><ele>235.66666666666669</ele><time>2026-03-29T07:36:18.418Z</time></trkpt><trkpt lat="45.54336" lon="10.4494367"><ele>235.33333333333334</ele><time>2026-03-29T07:36:19.418Z</time></trkpt><trkpt lat="45.5433983" lon="10.4493417"><ele>235.0</ele><time>2026-03-29T07:36:20.418Z</time></trkpt><trkpt lat="45.5434317" lon="10.44923"><ele>234.66666666666669</ele><time>2026-03-29T07:36:21.418Z</time></trkpt><trkpt lat="45.5434733" lon="10.4491317"><ele>234.33333333333334</ele><time>2026-03-29T07:36:22.418Z</time></trkpt><trkpt lat="45.5435117" lon="10.449025"><ele>234.0</ele><time>2026-03-29T07:36:23.418Z</time></trkpt><trkpt lat="45.5435417" lon="10.448915"><ele>233.25</ele><time>2026-03-29T07:36:24.418Z</time></trkpt><trkpt lat="45.543565" lon="10.4487633"><ele>232.5</ele><time>2026-03-29T07:36:26.418Z</time></trkpt><trkpt lat="45.54352" lon="10.4486017"><ele>231.75</ele><time>2026-03-29T07:36:28.418Z</time></trkpt><trkpt lat="45.543425" lon="10.44847"><ele>231.0</ele><time>2026-03-29T07:36:29.418Z</time></trkpt><trkpt lat="45.5433483" lon="10.44835"><ele>231.0</ele><time>2026-03-29T07:36:30.418Z</time></trkpt><trkpt lat="45.54325" lon="10.4482233"><ele>231.0</ele><time>2026-03-29T07:36:31.418Z</time></trkpt><trkpt lat="45.543155" lon="10.4481033"><ele>231.0</ele><time>2026-03-29T07:36:32.418Z</time></trkpt><trkpt lat="45.5430717" lon="10.4480217"><ele>231.0</ele><time>2026-03-29T07:36:33.418Z</time></trkpt><trkpt lat="45.5429983" lon="10.44794"><ele>230.33333333333334</ele><time>2026-03-29T07:36:34.418Z</time></trkpt><trkpt lat="45.5429467" lon="10.44787"><ele>229.66666666666669</ele><time>2026-03-29T07:36:35.418Z</time></trkpt><trkpt lat="45.5429067" lon="10.447735"><ele>229.0</ele><time>2026-03-29T07:36:37.418Z</time></trkpt><trkpt lat="45.5429117" lon="10.447635"><ele>228.33333333333334</ele><time>2026-03-29T07:36:39.419Z</time></trkpt><trkpt lat="45.542965" lon="10.4475183"><ele>227.66666666666669</ele><time>2026-03-29T07:36:41.418Z</time></trkpt><trkpt lat="45.5430067" lon="10.4474467"><ele>227.0</ele><time>2026-03-29T07:36:42.418Z</time></trkpt><trkpt lat="45.543065" lon="10.4473517"><ele>227.0</ele><time>2026-03-29T07:36:43.418Z</time></trkpt><trkpt lat="45.5431217" lon="10.447255"><ele>227.0</ele><time>2026-03-29T07:36:44.419Z</time></trkpt><trkpt lat="45.54318" lon="10.44716"><ele>227.0</ele><time>2026-03-29T07:36:45.418Z</time></trkpt><trkpt lat="45.5432483" lon="10.4470533"><ele>227.0</ele><time>2026-03-29T07:36:46.418Z</time></trkpt><trkpt lat="45.5433267" lon="10.4469533"><ele>227.0</ele><time>2026-03-29T07:36:47.418Z</time></trkpt><trkpt lat="45.543405" lon="10.4468417"><ele>227.00000000000003</ele><time>2026-03-29T07:36:48.419Z</time></trkpt><trkpt lat="45.5434783" lon="10.44673"><ele>227.0</ele><time>2026-03-29T07:36:49.418Z</time></trkpt><trkpt lat="45.5435267" lon="10.44664"><ele>227.0</ele><time>2026-03-29T07:36:50.418Z</time></trkpt><trkpt lat="45.5435667" lon="10.446535"><ele>227.0</ele><time>2026-03-29T07:36:51.418Z</time></trkpt><trkpt lat="45.5436083" lon="10.4464467"><ele>227.00000000000003</ele><time>2026-03-29T07:36:52.418Z</time></trkpt><trkpt lat="45.5436433" lon="10.4463717"><ele>227.0</ele><time>2026-03-29T07:36:54.418Z</time></trkpt><trkpt lat="45.543625" lon="10.4462283"><ele>227.5</ele><time>2026-03-29T07:36:57.418Z</time></trkpt><trkpt lat="45.54356" lon="10.446085"><ele>228.0</ele><time>2026-03-29T07:36:59.418Z</time></trkpt><trkpt lat="45.54351" lon="10.44598"><ele>228.5</ele><time>2026-03-29T07:37:00.418Z</time></trkpt><trkpt lat="45.5434483" lon="10.44583"><ele>229.0</ele><time>2026-03-29T07:37:01.418Z</time></trkpt><trkpt lat="45.5433717" lon="10.4456367"><ele>229.66666666666666</ele><time>2026-03-29T07:37:02.418Z</time></trkpt><trkpt lat="45.5432833" lon="10.4454233"><ele>230.33333333333331</ele><time>2026-03-29T07:37:03.418Z</time></trkpt><trkpt lat="45.5431917" lon="10.4452167"><ele>231.0</ele><time>2026-03-29T07:37:04.418Z</time></trkpt><trkpt lat="45.5430967" lon="10.4449983"><ele>231.0</ele><time>2026-03-29T07:37:05.418Z</time></trkpt><trkpt lat="45.5429983" lon="10.4447617"><ele>231.0</ele><time>2026-03-29T07:37:06.419Z</time></trkpt><trkpt lat="45.5428933" lon="10.4445133"><ele>231.0</ele><time>2026-03-29T07:37:07.418Z</time></trkpt><trkpt lat="45.5427933" lon="10.4442917"><ele>229.75</ele><time>2026-03-29T07:37:08.418Z</time></trkpt><trkpt lat="45.5427033" lon="10.4440967"><ele>228.5</ele><time>2026-03-29T07:37:09.418Z</time></trkpt><trkpt lat="45.542615" lon="10.4439483"><ele>227.25</ele><time>2026-03-29T07:37:10.418Z</time></trkpt><trkpt lat="45.542525" lon="10.443815"><ele>226.0</ele><time>2026-03-29T07:37:11.418Z</time></trkpt><trkpt lat="45.5424067" lon="10.4436983"><ele>224.0</ele><time>2026-03-29T07:37:12.418Z</time></trkpt><trkpt lat="45.5422983" lon="10.4435967"><ele>222.00000000000003</ele><time>2026-03-29T07:37:13.419Z</time></trkpt><trkpt lat="45.5422017" lon="10.4435467"><ele>220.00000000000003</ele><time>2026-03-29T07:37:14.418Z</time></trkpt><trkpt lat="45.5421167" lon="10.4435133"><ele>218.0</ele><time>2026-03-29T07:37:15.419Z</time></trkpt><trkpt lat="45.5420383" lon="10.4434883"><ele>216.0</ele><time>2026-03-29T07:37:16.419Z</time></trkpt><trkpt lat="45.54196" lon="10.4434767"><ele>216.0</ele><time>2026-03-29T07:37:17.418Z</time></trkpt><trkpt lat="45.5418867" lon="10.443475"><ele>216.00000000000003</ele><time>2026-03-29T07:37:18.418Z</time></trkpt><trkpt lat="45.54178" lon="10.44351"><ele>216.00000000000003</ele><time>2026-03-29T07:37:20.419Z</time></trkpt><trkpt lat="45.5417133" lon="10.44366"><ele>216.0</ele><time>2026-03-29T07:37:22.418Z</time></trkpt><trkpt lat="45.541685" lon="10.4437933"><ele>216.0</ele><time>2026-03-29T07:37:23.418Z</time></trkpt><trkpt lat="45.541655" lon="10.4439483"><ele>217.75</ele><time>2026-03-29T07:37:24.418Z</time></trkpt><trkpt lat="45.5416217" lon="10.444105"><ele>219.5</ele><time>2026-03-29T07:37:25.419Z</time></trkpt><trkpt lat="45.541585" lon="10.444255"><ele>221.25</ele><time>2026-03-29T07:37:26.419Z</time></trkpt><trkpt lat="45.5415417" lon="10.4444033"><ele>223.0</ele><time>2026-03-29T07:37:27.418Z</time></trkpt><trkpt lat="45.5415" lon="10.4445517"><ele>223.5</ele><time>2026-03-29T07:37:28.418Z</time></trkpt><trkpt lat="45.5414517" lon="10.4447167"><ele>224.0</ele><time>2026-03-29T07:37:29.419Z</time></trkpt><trkpt lat="45.5414183" lon="10.44489"><ele>224.5</ele><time>2026-03-29T07:37:30.418Z</time></trkpt><trkpt lat="45.5413683" lon="10.4450433"><ele>225.0</ele><time>2026-03-29T07:37:31.418Z</time></trkpt><trkpt lat="45.5413267" lon="10.4452083"><ele>225.0</ele><time>2026-03-29T07:37:32.418Z</time></trkpt><trkpt lat="45.5412783" lon="10.4453667"><ele>225.0</ele><time>2026-03-29T07:37:33.418Z</time></trkpt><trkpt lat="45.541235" lon="10.445495"><ele>225.0</ele><time>2026-03-29T07:37:34.418Z</time></trkpt><trkpt lat="45.541195" lon="10.445615"><ele>225.0</ele><time>2026-03-29T07:37:35.418Z</time></trkpt><trkpt lat="45.5411483" lon="10.445705"><ele>225.0</ele><time>2026-03-29T07:37:36.418Z</time></trkpt><trkpt lat="45.54109" lon="10.445765"><ele>224.8</ele><time>2026-03-29T07:37:37.418Z</time></trkpt><trkpt lat="45.5410117" lon="10.44578"><ele>224.6</ele><time>2026-03-29T07:37:38.418Z</time></trkpt><trkpt lat="45.5409033" lon="10.4457483"><ele>224.39999999999998</ele><time>2026-03-29T07:37:39.418Z</time></trkpt><trkpt lat="45.5408033" lon="10.4457017"><ele>224.2</ele><time>2026-03-29T07:37:40.418Z</time></trkpt><trkpt lat="45.540695" lon="10.445655"><ele>224.0</ele><time>2026-03-29T07:37:41.418Z</time></trkpt><trkpt lat="45.54057" lon="10.4456167"><ele>224.0</ele><time>2026-03-29T07:37:42.419Z</time></trkpt><trkpt lat="45.5404467" lon="10.4455767"><ele>224.0</ele><time>2026-03-29T07:37:43.418Z</time></trkpt><trkpt lat="45.5403317" lon="10.4455283"><ele>224.0</ele><time>2026-03-29T07:37:44.418Z</time></trkpt><trkpt lat="45.54022" lon="10.4454917"><ele>224.0</ele><time>2026-03-29T07:37:45.418Z</time></trkpt><trkpt lat="45.540125" lon="10.445455"><ele>223.39999999999998</ele><time>2026-03-29T07:37:46.418Z</time></trkpt><trkpt lat="45.5400267" lon="10.445425"><ele>222.79999999999998</ele><time>2026-03-29T07:37:47.418Z</time></trkpt><trkpt lat="45.5399383" lon="10.445395"><ele>222.20000000000002</ele><time>2026-03-29T07:37:48.419Z</time></trkpt><trkpt lat="45.5398517" lon="10.445365"><ele>221.60000000000002</ele><time>2026-03-29T07:37:49.418Z</time></trkpt><trkpt lat="45.5397667" lon="10.4453267"><ele>221.0</ele><time>2026-03-29T07:37:50.418Z</time></trkpt><trkpt lat="45.5396633" lon="10.4452983"><ele>221.00000000000003</ele><time>2026-03-29T07:37:51.418Z</time></trkpt><trkpt lat="45.53956" lon="10.4452683"><ele>221.0</ele><time>2026-03-29T07:37:52.418Z</time></trkpt><trkpt lat="45.539465" lon="10.44523"><ele>221.0</ele><time>2026-03-29T07:37:53.419Z</time></trkpt><trkpt lat="45.53939" lon="10.4451983"><ele>221.0</ele><time>2026-03-29T07:37:54.418Z</time></trkpt><trkpt lat="45.5393217" lon="10.4451733"><ele>221.00000000000003</ele><time>2026-03-29T07:37:55.418Z</time></trkpt><trkpt lat="45.5392583" lon="10.44515"><ele>221.0</ele><time>2026-03-29T07:37:56.418Z</time></trkpt><trkpt lat="45.539195" lon="10.4451283"><ele>220.60000000000002</ele><time>2026-03-29T07:37:57.419Z</time></trkpt><trkpt lat="45.53907" lon="10.4450717"><ele>220.20000000000002</ele><time>2026-03-29T07:37:59.418Z</time></trkpt><trkpt lat="45.5390117" lon="10.4450233"><ele>219.79999999999998</ele><time>2026-03-29T07:38:00.419Z</time></trkpt><trkpt lat="45.5389517" lon="10.4449717"><ele>219.39999999999998</ele><time>2026-03-29T07:38:01.419Z</time></trkpt><trkpt lat="45.5388933" lon="10.4449183"><ele>219.0</ele><time>2026-03-29T07:38:02.418Z</time></trkpt><trkpt lat="45.53877" lon="10.4449033"><ele>219.39999999999998</ele><time>2026-03-29T07:38:04.418Z</time></trkpt><trkpt lat="45.538695" lon="10.4449167"><ele>219.79999999999998</ele><time>2026-03-29T07:38:05.418Z</time></trkpt><trkpt lat="45.5386067" lon="10.4449117"><ele>220.20000000000002</ele><time>2026-03-29T07:38:06.418Z</time></trkpt><trkpt lat="45.5384867" lon="10.4449067"><ele>220.60000000000002</ele><time>2026-03-29T07:38:07.418Z</time></trkpt><trkpt lat="45.5383467" lon="10.4448783"><ele>221.0</ele><time>2026-03-29T07:38:08.418Z</time></trkpt><trkpt lat="45.5382083" lon="10.44482"><ele>221.0</ele><time>2026-03-29T07:38:09.418Z</time></trkpt><trkpt lat="45.5380617" lon="10.4447633"><ele>221.0</ele><time>2026-03-29T07:38:10.418Z</time></trkpt><trkpt lat="45.537905" lon="10.4447133"><ele>221.0</ele><time>2026-03-29T07:38:11.418Z</time></trkpt><trkpt lat="45.5377483" lon="10.4446617"><ele>220.0</ele><time>2026-03-29T07:38:12.418Z</time></trkpt><trkpt lat="45.5375933" lon="10.444595"><ele>219.0</ele><time>2026-03-29T07:38:13.418Z</time></trkpt><trkpt lat="45.53743" lon="10.4445367"><ele>218.0</ele><time>2026-03-29T07:38:14.418Z</time></trkpt><trkpt lat="45.5372717" lon="10.4444733"><ele>218.0</ele><time>2026-03-29T07:38:15.418Z</time></trkpt><trkpt lat="45.5371033" lon="10.4444133"><ele>218.0</ele><time>2026-03-29T07:38:16.419Z</time></trkpt><trkpt lat="45.5369367" lon="10.4443733"><ele>218.0</ele><time>2026-03-29T07:38:17.418Z</time></trkpt><trkpt lat="45.53678" lon="10.4443183"><ele>217.33333333333334</ele><time>2026-03-29T07:38:18.418Z</time></trkpt><trkpt lat="45.5366133" lon="10.4442983"><ele>216.66666666666669</ele><time>2026-03-29T07:38:19.418Z</time></trkpt><trkpt lat="45.5364267" lon="10.4443133"><ele>216.0</ele><time>2026-03-29T07:38:20.418Z</time></trkpt><trkpt lat="45.5362467" lon="10.44433"><ele>214.66666666666669</ele><time>2026-03-29T07:38:21.418Z</time></trkpt><trkpt lat="45.5360733" lon="10.444355"><ele>213.33333333333334</ele><time>2026-03-29T07:38:22.418Z</time></trkpt><trkpt lat="45.5359083" lon="10.44437"><ele>212.0</ele><time>2026-03-29T07:38:23.418Z</time></trkpt><trkpt lat="45.5357417" lon="10.444375"><ele>212.0</ele><time>2026-03-29T07:38:24.418Z</time></trkpt><trkpt lat="45.5355767" lon="10.444375"><ele>212.0</ele><time>2026-03-29T07:38:25.418Z</time></trkpt><trkpt lat="45.5354067" lon="10.44437"><ele>212.0</ele><time>2026-03-29T07:38:26.418Z</time></trkpt><trkpt lat="45.53523" lon="10.44436"><ele>211.66666666666669</ele><time>2026-03-29T07:38:27.419Z</time></trkpt><trkpt lat="45.5350717" lon="10.4443217"><ele>211.33333333333331</ele><time>2026-03-29T07:38:28.418Z</time></trkpt><trkpt lat="45.5349117" lon="10.4442517"><ele>211.0</ele><time>2026-03-29T07:38:29.418Z</time></trkpt><trkpt lat="45.53476" lon="10.44417"><ele>211.0</ele><time>2026-03-29T07:38:30.418Z</time></trkpt><trkpt lat="45.5345983" lon="10.444075"><ele>211.0</ele><time>2026-03-29T07:38:31.419Z</time></trkpt><trkpt lat="45.534435" lon="10.4440067"><ele>211.0</ele><time>2026-03-29T07:38:32.419Z</time></trkpt><trkpt lat="45.5342867" lon="10.4439467"><ele>211.0</ele><time>2026-03-29T07:38:33.418Z</time></trkpt><trkpt lat="45.53413" lon="10.44391"><ele>211.0</ele><time>2026-03-29T07:38:34.418Z</time></trkpt><trkpt lat="45.533975" lon="10.4438867"><ele>211.0</ele><time>2026-03-29T07:38:35.419Z</time></trkpt><trkpt lat="45.5338217" lon="10.4438733"><ele>210.66666666666666</ele><time>2026-03-29T07:38:36.418Z</time></trkpt><trkpt lat="45.533665" lon="10.4438683"><ele>210.33333333333331</ele><time>2026-03-29T07:38:37.418Z</time></trkpt><trkpt lat="45.5335217" lon="10.4438533"><ele>210.0</ele><time>2026-03-29T07:38:38.418Z</time></trkpt><trkpt lat="45.5333633" lon="10.4438417"><ele>210.0</ele><time>2026-03-29T07:38:39.418Z</time></trkpt><trkpt lat="45.533205" lon="10.4438483"><ele>210.0</ele><time>2026-03-29T07:38:40.418Z</time></trkpt><trkpt lat="45.533045" lon="10.4438367"><ele>210.0</ele><time>2026-03-29T07:38:41.418Z</time></trkpt><trkpt lat="45.5328867" lon="10.4438317"><ele>210.33333333333331</ele><time>2026-03-29T07:38:42.418Z</time></trkpt><trkpt lat="45.5327333" lon="10.4438267"><ele>210.66666666666666</ele><time>2026-03-29T07:38:43.418Z</time></trkpt><trkpt lat="45.5325733" lon="10.4438067"><ele>211.0</ele><time>2026-03-29T07:38:44.418Z</time></trkpt><trkpt lat="45.5324083" lon="10.4437967"><ele>210.5</ele><time>2026-03-29T07:38:45.419Z</time></trkpt><trkpt lat="45.5322533" lon="10.4437783"><ele>210.0</ele><time>2026-03-29T07:38:46.418Z</time></trkpt><trkpt lat="45.5321067" lon="10.443755"><ele>209.5</ele><time>2026-03-29T07:38:47.418Z</time></trkpt><trkpt lat="45.5319767" lon="10.44373"><ele>209.0</ele><time>2026-03-29T07:38:48.418Z</time></trkpt><trkpt lat="45.53187" lon="10.4437133"><ele>209.0</ele><time>2026-03-29T07:38:49.419Z</time></trkpt><trkpt lat="45.5317867" lon="10.4437"><ele>209.0</ele><time>2026-03-29T07:38:50.418Z</time></trkpt><trkpt lat="45.5317183" lon="10.4436867"><ele>209.0</ele><time>2026-03-29T07:38:51.418Z</time></trkpt><trkpt lat="45.5316433" lon="10.4436683"><ele>209.0</ele><time>2026-03-29T07:38:53.418Z</time></trkpt><trkpt lat="45.5315733" lon="10.44365"><ele>209.0</ele><time>2026-03-29T07:38:57.419Z</time></trkpt><trkpt lat="45.53141" lon="10.4436267"><ele>209.00000000000003</ele><time>2026-03-29T07:39:04.418Z</time></trkpt><trkpt lat="45.531315" lon="10.44361"><ele>209.0</ele><time>2026-03-29T07:39:06.418Z</time></trkpt><trkpt lat="45.5312433" lon="10.4435967"><ele>209.0</ele><time>2026-03-29T07:39:08.418Z</time></trkpt><trkpt lat="45.53118" lon="10.4435683"><ele>209.0</ele><time>2026-03-29T07:39:10.418Z</time></trkpt><trkpt lat="45.5311033" lon="10.4435367"><ele>209.00000000000003</ele><time>2026-03-29T07:39:12.418Z</time></trkpt><trkpt lat="45.531035" lon="10.44352"><ele>209.0</ele><time>2026-03-29T07:39:16.418Z</time></trkpt><trkpt lat="45.530955" lon="10.4434883"><ele>209.00000000000003</ele><time>2026-03-29T07:39:19.418Z</time></trkpt><trkpt lat="45.53088" lon="10.4434517"><ele>209.0</ele><time>2026-03-29T07:39:21.418Z</time></trkpt><trkpt lat="45.5308183" lon="10.443385"><ele>209.0</ele><time>2026-03-29T07:39:24.418Z</time></trkpt><trkpt lat="45.5307633" lon="10.4433133"><ele>209.0</ele><time>2026-03-29T07:39:26.419Z</time></trkpt><trkpt lat="45.5306767" lon="10.44318"><ele>209.00000000000003</ele><time>2026-03-29T07:39:28.418Z</time></trkpt><trkpt lat="45.5306167" lon="10.4431233"><ele>209.0</ele><time>2026-03-29T07:39:29.419Z</time></trkpt><trkpt lat="45.530555" lon="10.4430867"><ele>209.00000000000003</ele><time>2026-03-29T07:39:30.418Z</time></trkpt><trkpt lat="45.5304883" lon="10.4430833"><ele>209.0</ele><time>2026-03-29T07:39:31.418Z</time></trkpt><trkpt lat="45.530395" lon="10.4431983"><ele>209.0</ele><time>2026-03-29T07:39:33.418Z</time></trkpt><trkpt lat="45.53038" lon="10.4432967"><ele>209.0</ele><time>2026-03-29T07:39:34.419Z</time></trkpt><trkpt lat="45.5303967" lon="10.44339"><ele>209.00000000000003</ele><time>2026-03-29T07:39:35.418Z</time></trkpt><trkpt lat="45.5304267" lon="10.4435033"><ele>209.0</ele><time>2026-03-29T07:39:36.418Z</time></trkpt><trkpt lat="45.5304617" lon="10.4436133"><ele>209.0</ele><time>2026-03-29T07:39:37.418Z</time></trkpt><trkpt lat="45.530495" lon="10.4437267"><ele>209.0</ele><time>2026-03-29T07:39:38.418Z</time></trkpt><trkpt lat="45.5305133" lon="10.44386"><ele>209.0</ele><time>2026-03-29T07:39:39.418Z</time></trkpt><trkpt lat="45.5305133" lon="10.4440017"><ele>209.0</ele><time>2026-03-29T07:39:40.418Z</time></trkpt><trkpt lat="45.5305033" lon="10.4441433"><ele>209.0</ele><time>2026-03-29T07:39:41.418Z</time></trkpt><trkpt lat="45.53048" lon="10.444295"><ele>209.25</ele><time>2026-03-29T07:39:42.418Z</time></trkpt><trkpt lat="45.53045" lon="10.4444583"><ele>209.5</ele><time>2026-03-29T07:39:43.418Z</time></trkpt><trkpt lat="45.5304167" lon="10.4446233"><ele>209.75</ele><time>2026-03-29T07:39:44.418Z</time></trkpt><trkpt lat="45.530385" lon="10.4447983"><ele>210.0</ele><time>2026-03-29T07:39:45.418Z</time></trkpt><trkpt lat="45.530355" lon="10.4449667"><ele>210.75</ele><time>2026-03-29T07:39:46.418Z</time></trkpt><trkpt lat="45.5303217" lon="10.4451367"><ele>211.5</ele><time>2026-03-29T07:39:47.418Z</time></trkpt><trkpt lat="45.5302867" lon="10.4453117"><ele>212.25</ele><time>2026-03-29T07:39:48.419Z</time></trkpt><trkpt lat="45.5302567" lon="10.4454883"><ele>213.0</ele><time>2026-03-29T07:39:49.418Z</time></trkpt><trkpt lat="45.5302217" lon="10.4456683"><ele>213.0</ele><time>2026-03-29T07:39:50.418Z</time></trkpt><trkpt lat="45.5301883" lon="10.4458417"><ele>213.0</ele><time>2026-03-29T07:39:51.419Z</time></trkpt><trkpt lat="45.5301517" lon="10.4460233"><ele>213.0</ele><time>2026-03-29T07:39:52.418Z</time></trkpt><trkpt lat="45.5301117" lon="10.4462133"><ele>213.0</ele><time>2026-03-29T07:39:53.418Z</time></trkpt><trkpt lat="45.5300667" lon="10.4464017"><ele>212.75</ele><time>2026-03-29T07:39:54.419Z</time></trkpt><trkpt lat="45.530015" lon="10.44659"><ele>212.5</ele><time>2026-03-29T07:39:55.418Z</time></trkpt><trkpt lat="45.5299533" lon="10.446775"><ele>212.25</ele><time>2026-03-29T07:39:56.418Z</time></trkpt><trkpt lat="45.5298767" lon="10.4469717"><ele>212.0</ele><time>2026-03-29T07:39:57.418Z</time></trkpt><trkpt lat="45.5297717" lon="10.44713"><ele>211.33333333333334</ele><time>2026-03-29T07:39:58.418Z</time></trkpt><trkpt lat="45.5296517" lon="10.4472767"><ele>210.66666666666669</ele><time>2026-03-29T07:39:59.418Z</time></trkpt><trkpt lat="45.52952" lon="10.4473983"><ele>210.0</ele><time>2026-03-29T07:40:00.418Z</time></trkpt><trkpt lat="45.5293817" lon="10.4475233"><ele>211.33333333333331</ele><time>2026-03-29T07:40:01.419Z</time></trkpt><trkpt lat="45.529235" lon="10.4476483"><ele>212.66666666666666</ele><time>2026-03-29T07:40:02.418Z</time></trkpt><trkpt lat="45.5290983" lon="10.44777"><ele>214.0</ele><time>2026-03-29T07:40:03.418Z</time></trkpt><trkpt lat="45.528965" lon="10.4478917"><ele>212.0</ele><time>2026-03-29T07:40:04.418Z</time></trkpt><trkpt lat="45.5288317" lon="10.4480233"><ele>210.0</ele><time>2026-03-29T07:40:05.419Z</time></trkpt><trkpt lat="45.5287317" lon="10.448185"><ele>208.0</ele><time>2026-03-29T07:40:06.418Z</time></trkpt><trkpt lat="45.528645" lon="10.44839"><ele>208.0</ele><time>2026-03-29T07:40:07.418Z</time></trkpt><trkpt lat="45.5285783" lon="10.4485883"><ele>208.0</ele><time>2026-03-29T07:40:08.419Z</time></trkpt><trkpt lat="45.5285383" lon="10.4488017"><ele>208.0</ele><time>2026-03-29T07:40:09.418Z</time></trkpt><trkpt lat="45.52852" lon="10.44903"><ele>208.0</ele><time>2026-03-29T07:40:10.418Z</time></trkpt><trkpt lat="45.528525" lon="10.4492583"><ele>208.0</ele><time>2026-03-29T07:40:11.418Z</time></trkpt><trkpt lat="45.52854" lon="10.4494983"><ele>208.0</ele><time>2026-03-29T07:40:12.419Z</time></trkpt><trkpt lat="45.5285617" lon="10.4497433"><ele>208.33333333333331</ele><time>2026-03-29T07:40:13.419Z</time></trkpt><trkpt lat="45.5285617" lon="10.4499883"><ele>208.66666666666669</ele><time>2026-03-29T07:40:14.418Z</time></trkpt><trkpt lat="45.528535" lon="10.4502133"><ele>209.0</ele><time>2026-03-29T07:40:15.418Z</time></trkpt><trkpt lat="45.5284767" lon="10.4504417"><ele>208.66666666666669</ele><time>2026-03-29T07:40:16.417Z</time></trkpt><trkpt lat="45.5284" lon="10.4506633"><ele>208.33333333333331</ele><time>2026-03-29T07:40:17.417Z</time></trkpt><trkpt lat="45.528305" lon="10.4508717"><ele>208.0</ele><time>2026-03-29T07:40:18.417Z</time></trkpt><trkpt lat="45.5281867" lon="10.4510717"><ele>208.0</ele><time>2026-03-29T07:40:19.417Z</time></trkpt><trkpt lat="45.5280617" lon="10.4512533"><ele>208.0</ele><time>2026-03-29T07:40:20.417Z</time></trkpt><trkpt lat="45.5279333" lon="10.451425"><ele>208.0</ele><time>2026-03-29T07:40:21.417Z</time></trkpt><trkpt lat="45.5277983" lon="10.4515817"><ele>208.0</ele><time>2026-03-29T07:40:22.417Z</time></trkpt><trkpt lat="45.5276733" lon="10.4517383"><ele>208.0</ele><time>2026-03-29T07:40:23.417Z</time></trkpt><trkpt lat="45.527555" lon="10.4519067"><ele>208.0</ele><time>2026-03-29T07:40:24.418Z</time></trkpt><trkpt lat="45.5274567" lon="10.4520883"><ele>207.33333333333331</ele><time>2026-03-29T07:40:25.417Z</time></trkpt><trkpt lat="45.5273683" lon="10.4522767"><ele>206.66666666666669</ele><time>2026-03-29T07:40:26.417Z</time></trkpt><trkpt lat="45.5272817" lon="10.4524567"><ele>206.0</ele><time>2026-03-29T07:40:27.417Z</time></trkpt><trkpt lat="45.52721" lon="10.452625"><ele>206.0</ele><time>2026-03-29T07:40:28.417Z</time></trkpt><trkpt lat="45.5271467" lon="10.4527883"><ele>206.0</ele><time>2026-03-29T07:40:29.417Z</time></trkpt><trkpt lat="45.527085" lon="10.4529317"><ele>206.0</ele><time>2026-03-29T07:40:30.417Z</time></trkpt><trkpt lat="45.5270233" lon="10.4530683"><ele>206.0</ele><time>2026-03-29T07:40:31.418Z</time></trkpt><trkpt lat="45.5269567" lon="10.45319"><ele>206.0</ele><time>2026-03-29T07:40:32.417Z</time></trkpt><trkpt lat="45.52688" lon="10.45331"><ele>206.0</ele><time>2026-03-29T07:40:33.417Z</time></trkpt><trkpt lat="45.5267933" lon="10.45342"><ele>206.0</ele><time>2026-03-29T07:40:34.417Z</time></trkpt><trkpt lat="45.5267067" lon="10.45353"><ele>206.0</ele><time>2026-03-29T07:40:35.417Z</time></trkpt><trkpt lat="45.5266267" lon="10.4536517"><ele>206.0</ele><time>2026-03-29T07:40:36.417Z</time></trkpt><trkpt lat="45.5265517" lon="10.4537567"><ele>206.0</ele><time>2026-03-29T07:40:37.418Z</time></trkpt><trkpt lat="45.5264733" lon="10.4538933"><ele>206.0</ele><time>2026-03-29T07:40:38.417Z</time></trkpt><trkpt lat="45.5264083" lon="10.4540517"><ele>206.0</ele><time>2026-03-29T07:40:39.417Z</time></trkpt><trkpt lat="45.52635" lon="10.4542283"><ele>205.75</ele><time>2026-03-29T07:40:40.417Z</time></trkpt><trkpt lat="45.5263117" lon="10.454415"><ele>205.5</ele><time>2026-03-29T07:40:41.417Z</time></trkpt><trkpt lat="45.5262667" lon="10.45458"><ele>205.25</ele><time>2026-03-29T07:40:42.418Z</time></trkpt><trkpt lat="45.5262117" lon="10.454735"><ele>205.0</ele><time>2026-03-29T07:40:43.417Z</time></trkpt><trkpt lat="45.5261583" lon="10.4548867"><ele>205.0</ele><time>2026-03-29T07:40:44.417Z</time></trkpt><trkpt lat="45.5261033" lon="10.45503"><ele>205.0</ele><time>2026-03-29T07:40:45.417Z</time></trkpt><trkpt lat="45.526045" lon="10.455185"><ele>205.0</ele><time>2026-03-29T07:40:46.417Z</time></trkpt><trkpt lat="45.5259833" lon="10.4553367"><ele>205.0</ele><time>2026-03-29T07:40:47.417Z</time></trkpt><trkpt lat="45.5259183" lon="10.4555033"><ele>205.0</ele><time>2026-03-29T07:40:48.417Z</time></trkpt><trkpt lat="45.5258483" lon="10.45568"><ele>205.0</ele><time>2026-03-29T07:40:49.417Z</time></trkpt><trkpt lat="45.5257767" lon="10.4558417"><ele>205.0</ele><time>2026-03-29T07:40:50.417Z</time></trkpt><trkpt lat="45.52572" lon="10.45601"><ele>205.0</ele><time>2026-03-29T07:40:51.417Z</time></trkpt><trkpt lat="45.5256583" lon="10.4561833"><ele>205.0</ele><time>2026-03-29T07:40:52.417Z</time></trkpt><trkpt lat="45.5256" lon="10.4563467"><ele>205.0</ele><time>2026-03-29T07:40:53.418Z</time></trkpt><trkpt lat="45.52554" lon="10.4565017"><ele>205.0</ele><time>2026-03-29T07:40:54.417Z</time></trkpt><trkpt lat="45.525485" lon="10.4566267"><ele>205.0</ele><time>2026-03-29T07:40:55.418Z</time></trkpt><trkpt lat="45.5254333" lon="10.4567283"><ele>205.0</ele><time>2026-03-29T07:40:56.417Z</time></trkpt><trkpt lat="45.52538" lon="10.45682"><ele>204.66666666666666</ele><time>2026-03-29T07:40:57.418Z</time></trkpt><trkpt lat="45.52531" lon="10.456875"><ele>204.33333333333331</ele><time>2026-03-29T07:40:58.417Z</time></trkpt><trkpt lat="45.525255" lon="10.4569833"><ele>204.0</ele><time>2026-03-29T07:40:59.418Z</time></trkpt><trkpt lat="45.5251983" lon="10.4571"><ele>203.66666666666669</ele><time>2026-03-29T07:41:00.418Z</time></trkpt><trkpt lat="45.52515" lon="10.45721"><ele>203.33333333333334</ele><time>2026-03-29T07:41:01.417Z</time></trkpt><trkpt lat="45.5251083" lon="10.4573017"><ele>203.0</ele><time>2026-03-29T07:41:02.417Z</time></trkpt><trkpt lat="45.5250017" lon="10.4573667"><ele>203.0</ele><time>2026-03-29T07:41:04.417Z</time></trkpt><trkpt lat="45.5249317" lon="10.4573617"><ele>203.0</ele><time>2026-03-29T07:41:05.417Z</time></trkpt><trkpt lat="45.5248517" lon="10.4573467"><ele>203.0</ele><time>2026-03-29T07:41:06.417Z</time></trkpt><trkpt lat="45.52475" lon="10.4573183"><ele>203.0</ele><time>2026-03-29T07:41:07.417Z</time></trkpt><trkpt lat="45.5246383" lon="10.4572917"><ele>203.0</ele><time>2026-03-29T07:41:08.417Z</time></trkpt><trkpt lat="45.5245183" lon="10.4572767"><ele>202.5</ele><time>2026-03-29T07:41:09.417Z</time></trkpt><trkpt lat="45.5244067" lon="10.45726"><ele>202.0</ele><time>2026-03-29T07:41:10.417Z</time></trkpt><trkpt lat="45.5242867" lon="10.457255"><ele>201.5</ele><time>2026-03-29T07:41:11.417Z</time></trkpt><trkpt lat="45.524165" lon="10.4572417"><ele>201.0</ele><time>2026-03-29T07:41:12.417Z</time></trkpt><trkpt lat="45.524045" lon="10.4572283"><ele>201.0</ele><time>2026-03-29T07:41:13.417Z</time></trkpt><trkpt lat="45.5239217" lon="10.4572083"><ele>201.0</ele><time>2026-03-29T07:41:14.418Z</time></trkpt><trkpt lat="45.5237967" lon="10.4571733"><ele>201.0</ele><time>2026-03-29T07:41:15.417Z</time></trkpt><trkpt lat="45.5236567" lon="10.4571217"><ele>201.0</ele><time>2026-03-29T07:41:16.417Z</time></trkpt><trkpt lat="45.523515" lon="10.4570683"><ele>200.0</ele><time>2026-03-29T07:41:17.417Z</time></trkpt><trkpt lat="45.5233617" lon="10.4570167"><ele>199.0</ele><time>2026-03-29T07:41:18.417Z</time></trkpt><trkpt lat="45.523195" lon="10.4569783"><ele>198.0</ele><time>2026-03-29T07:41:19.417Z</time></trkpt><trkpt lat="45.523045" lon="10.456935"><ele>197.33333333333331</ele><time>2026-03-29T07:41:20.417Z</time></trkpt><trkpt lat="45.5228933" lon="10.4568867"><ele>196.66666666666666</ele><time>2026-03-29T07:41:21.417Z</time></trkpt><trkpt lat="45.5227367" lon="10.4568367"><ele>196.0</ele><time>2026-03-29T07:41:22.418Z</time></trkpt><trkpt lat="45.5225783" lon="10.4567783"><ele>196.0</ele><time>2026-03-29T07:41:23.418Z</time></trkpt><trkpt lat="45.5224167" lon="10.456715"><ele>196.0</ele><time>2026-03-29T07:41:24.417Z</time></trkpt><trkpt lat="45.5222467" lon="10.4566467"><ele>196.0</ele><time>2026-03-29T07:41:25.417Z</time></trkpt><trkpt lat="45.5220717" lon="10.4565783"><ele>195.33333333333331</ele><time>2026-03-29T07:41:26.417Z</time></trkpt><trkpt lat="45.5219" lon="10.4565117"><ele>194.66666666666669</ele><time>2026-03-29T07:41:27.417Z</time></trkpt><trkpt lat="45.52173" lon="10.45646"><ele>194.0</ele><time>2026-03-29T07:41:28.417Z</time></trkpt><trkpt lat="45.52157" lon="10.45641"><ele>194.0</ele><time>2026-03-29T07:41:29.417Z</time></trkpt><trkpt lat="45.521415" lon="10.4563583"><ele>194.0</ele><time>2026-03-29T07:41:30.418Z</time></trkpt><trkpt lat="45.521255" lon="10.4563017"><ele>194.0</ele><time>2026-03-29T07:41:31.417Z</time></trkpt><trkpt lat="45.5210983" lon="10.4562167"><ele>193.66666666666669</ele><time>2026-03-29T07:41:32.417Z</time></trkpt><trkpt lat="45.52094" lon="10.4561217"><ele>193.33333333333331</ele><time>2026-03-29T07:41:33.417Z</time></trkpt><trkpt lat="45.5207817" lon="10.4560183"><ele>193.0</ele><time>2026-03-29T07:41:34.418Z</time></trkpt><trkpt lat="45.52063" lon="10.4559183"><ele>193.0</ele><time>2026-03-29T07:41:35.418Z</time></trkpt><trkpt lat="45.52048" lon="10.45582"><ele>193.0</ele><time>2026-03-29T07:41:36.417Z</time></trkpt><trkpt lat="45.5203283" lon="10.4557117"><ele>193.0</ele><time>2026-03-29T07:41:37.417Z</time></trkpt><trkpt lat="45.5201883" lon="10.4556183"><ele>192.75</ele><time>2026-03-29T07:41:38.417Z</time></trkpt><trkpt lat="45.5200467" lon="10.4555317"><ele>192.5</ele><time>2026-03-29T07:41:39.417Z</time></trkpt><trkpt lat="45.5199067" lon="10.4554567"><ele>192.25</ele><time>2026-03-29T07:41:40.417Z</time></trkpt><trkpt lat="45.519795" lon="10.4553817"><ele>192.0</ele><time>2026-03-29T07:41:41.418Z</time></trkpt><trkpt lat="45.519685" lon="10.455305"><ele>192.0</ele><time>2026-03-29T07:41:42.417Z</time></trkpt><trkpt lat="45.5195683" lon="10.4552317"><ele>192.0</ele><time>2026-03-29T07:41:43.417Z</time></trkpt><trkpt lat="45.5194367" lon="10.4551583"><ele>192.0</ele><time>2026-03-29T07:41:44.417Z</time></trkpt><trkpt lat="45.5192917" lon="10.45509"><ele>192.0</ele><time>2026-03-29T07:41:45.417Z</time></trkpt><trkpt lat="45.5191483" lon="10.455025"><ele>191.5</ele><time>2026-03-29T07:41:46.417Z</time></trkpt><trkpt lat="45.51901" lon="10.454955"><ele>191.0</ele><time>2026-03-29T07:41:47.417Z</time></trkpt><trkpt lat="45.51887" lon="10.454895"><ele>190.5</ele><time>2026-03-29T07:41:48.418Z</time></trkpt><trkpt lat="45.5187467" lon="10.4548333"><ele>190.0</ele><time>2026-03-29T07:41:49.417Z</time></trkpt><trkpt lat="45.5186317" lon="10.4547883"><ele>190.0</ele><time>2026-03-29T07:41:50.417Z</time></trkpt><trkpt lat="45.5185217" lon="10.4547467"><ele>190.0</ele><time>2026-03-29T07:41:51.417Z</time></trkpt><trkpt lat="45.5184283" lon="10.454715"><ele>190.0</ele><time>2026-03-29T07:41:52.417Z</time></trkpt><trkpt lat="45.51834" lon="10.4546483"><ele>190.0</ele><time>2026-03-29T07:41:53.417Z</time></trkpt><trkpt lat="45.518265" lon="10.454545"><ele>190.0</ele><time>2026-03-29T07:41:54.417Z</time></trkpt><trkpt lat="45.5181933" lon="10.45442"><ele>190.0</ele><time>2026-03-29T07:41:55.417Z</time></trkpt><trkpt lat="45.518115" lon="10.454285"><ele>190.0</ele><time>2026-03-29T07:41:56.418Z</time></trkpt><trkpt lat="45.518035" lon="10.4541617"><ele>190.0</ele><time>2026-03-29T07:41:57.417Z</time></trkpt><trkpt lat="45.517955" lon="10.4540433"><ele>190.0</ele><time>2026-03-29T07:41:58.417Z</time></trkpt><trkpt lat="45.5178717" lon="10.4539417"><ele>189.6</ele><time>2026-03-29T07:41:59.418Z</time></trkpt><trkpt lat="45.517795" lon="10.4538383"><ele>189.2</ele><time>2026-03-29T07:42:00.417Z</time></trkpt><trkpt lat="45.5177167" lon="10.453725"><ele>188.8</ele><time>2026-03-29T07:42:01.417Z</time></trkpt><trkpt lat="45.5176583" lon="10.4536083"><ele>188.4</ele><time>2026-03-29T07:42:02.417Z</time></trkpt><trkpt lat="45.5176233" lon="10.4534717"><ele>188.0</ele><time>2026-03-29T07:42:03.418Z</time></trkpt><trkpt lat="45.517605" lon="10.4533233"><ele>188.0</ele><time>2026-03-29T07:42:04.417Z</time></trkpt><trkpt lat="45.5176183" lon="10.4531683"><ele>188.0</ele><time>2026-03-29T07:42:05.417Z</time></trkpt><trkpt lat="45.5176333" lon="10.4530117"><ele>188.0</ele><time>2026-03-29T07:42:06.417Z</time></trkpt><trkpt lat="45.5176383" lon="10.452865"><ele>188.0</ele><time>2026-03-29T07:42:07.417Z</time></trkpt><trkpt lat="45.5176317" lon="10.4527033"><ele>188.0</ele><time>2026-03-29T07:42:08.417Z</time></trkpt><trkpt lat="45.5176233" lon="10.452545"><ele>188.0</ele><time>2026-03-29T07:42:09.417Z</time></trkpt><trkpt lat="45.51761" lon="10.452375"><ele>188.0</ele><time>2026-03-29T07:42:10.418Z</time></trkpt><trkpt lat="45.5176133" lon="10.4522283"><ele>188.0</ele><time>2026-03-29T07:42:11.417Z</time></trkpt><trkpt lat="45.5176167" lon="10.452065"><ele>188.0</ele><time>2026-03-29T07:42:12.417Z</time></trkpt><trkpt lat="45.5176183" lon="10.4518933"><ele>188.0</ele><time>2026-03-29T07:42:13.417Z</time></trkpt><trkpt lat="45.5176317" lon="10.451725"><ele>188.0</ele><time>2026-03-29T07:42:14.417Z</time></trkpt><trkpt lat="45.5176383" lon="10.4515533"><ele>188.0</ele><time>2026-03-29T07:42:15.417Z</time></trkpt><trkpt lat="45.5176483" lon="10.4513867"><ele>188.0</ele><time>2026-03-29T07:42:16.418Z</time></trkpt><trkpt lat="45.5176517" lon="10.4512067"><ele>188.0</ele><time>2026-03-29T07:42:17.418Z</time></trkpt><trkpt lat="45.5176467" lon="10.4510167"><ele>188.0</ele><time>2026-03-29T07:42:18.417Z</time></trkpt><trkpt lat="45.51762" lon="10.45083"><ele>188.0</ele><time>2026-03-29T07:42:19.417Z</time></trkpt><trkpt lat="45.51759" lon="10.45064"><ele>188.0</ele><time>2026-03-29T07:42:20.417Z</time></trkpt><trkpt lat="45.5175517" lon="10.4504583"><ele>188.0</ele><time>2026-03-29T07:42:21.417Z</time></trkpt><trkpt lat="45.5175133" lon="10.4503017"><ele>188.0</ele><time>2026-03-29T07:42:22.417Z</time></trkpt><trkpt lat="45.5174667" lon="10.45014"><ele>188.0</ele><time>2026-03-29T07:42:23.417Z</time></trkpt><trkpt lat="45.5174183" lon="10.4499833"><ele>188.0</ele><time>2026-03-29T07:42:24.418Z</time></trkpt><trkpt lat="45.5173617" lon="10.44982"><ele>188.0</ele><time>2026-03-29T07:42:25.417Z</time></trkpt><trkpt lat="45.5172983" lon="10.44967"><ele>188.0</ele><time>2026-03-29T07:42:26.417Z</time></trkpt><trkpt lat="45.517235" lon="10.4495217"><ele>188.0</ele><time>2026-03-29T07:42:27.417Z</time></trkpt><trkpt lat="45.5171817" lon="10.44937"><ele>188.0</ele><time>2026-03-29T07:42:28.417Z</time></trkpt><trkpt lat="45.5171417" lon="10.449215"><ele>188.0</ele><time>2026-03-29T07:42:29.417Z</time></trkpt><trkpt lat="45.517095" lon="10.4490433"><ele>188.0</ele><time>2026-03-29T07:42:30.417Z</time></trkpt><trkpt lat="45.517045" lon="10.448885"><ele>188.0</ele><time>2026-03-29T07:42:31.417Z</time></trkpt><trkpt lat="45.5169833" lon="10.44873"><ele>188.0</ele><time>2026-03-29T07:42:32.418Z</time></trkpt><trkpt lat="45.5169233" lon="10.4486117"><ele>187.5</ele><time>2026-03-29T07:42:33.417Z</time></trkpt><trkpt lat="45.5168483" lon="10.4484667"><ele>187.0</ele><time>2026-03-29T07:42:34.417Z</time></trkpt><trkpt lat="45.516765" lon="10.4483467"><ele>186.5</ele><time>2026-03-29T07:42:35.417Z</time></trkpt><trkpt lat="45.5166567" lon="10.448245"><ele>186.0</ele><time>2026-03-29T07:42:36.418Z</time></trkpt><trkpt lat="45.51653" lon="10.4481533"><ele>186.0</ele><time>2026-03-29T07:42:37.417Z</time></trkpt><trkpt lat="45.5163983" lon="10.4480583"><ele>186.0</ele><time>2026-03-29T07:42:38.417Z</time></trkpt><trkpt lat="45.5162483" lon="10.4479667"><ele>186.0</ele><time>2026-03-29T07:42:39.417Z</time></trkpt><trkpt lat="45.51609" lon="10.4478683"><ele>185.0</ele><time>2026-03-29T07:42:40.417Z</time></trkpt><trkpt lat="45.5159233" lon="10.447775"><ele>184.0</ele><time>2026-03-29T07:42:41.417Z</time></trkpt><trkpt lat="45.5157533" lon="10.4476783"><ele>183.0</ele><time>2026-03-29T07:42:42.417Z</time></trkpt><trkpt lat="45.5155967" lon="10.447585"><ele>183.0</ele><time>2026-03-29T07:42:43.417Z</time></trkpt><trkpt lat="45.5154583" lon="10.4474967"><ele>183.0</ele><time>2026-03-29T07:42:44.417Z</time></trkpt><trkpt lat="45.5153217" lon="10.447415"><ele>183.0</ele><time>2026-03-29T07:42:45.418Z</time></trkpt><trkpt lat="45.5152017" lon="10.4473517"><ele>183.0</ele><time>2026-03-29T07:42:46.418Z</time></trkpt><trkpt lat="45.5150967" lon="10.4472967"><ele>182.83333333333334</ele><time>2026-03-29T07:42:47.417Z</time></trkpt><trkpt lat="45.5150217" lon="10.447245"><ele>182.66666666666666</ele><time>2026-03-29T07:42:48.417Z</time></trkpt><trkpt lat="45.51493" lon="10.44718"><ele>182.5</ele><time>2026-03-29T07:42:50.418Z</time></trkpt><trkpt lat="45.5149017" lon="10.4470817"><ele>182.33333333333331</ele><time>2026-03-29T07:42:52.418Z</time></trkpt><trkpt lat="45.51494" lon="10.4469517"><ele>182.16666666666666</ele><time>2026-03-29T07:42:54.417Z</time></trkpt><trkpt lat="45.5149767" lon="10.446845"><ele>182.0</ele><time>2026-03-29T07:42:55.417Z</time></trkpt><trkpt lat="45.5150283" lon="10.4467167"><ele>182.0</ele><time>2026-03-29T07:42:56.417Z</time></trkpt><trkpt lat="45.5150883" lon="10.4465617"><ele>182.0</ele><time>2026-03-29T07:42:57.417Z</time></trkpt><trkpt lat="45.5151533" lon="10.4463917"><ele>182.0</ele><time>2026-03-29T07:42:58.417Z</time></trkpt><trkpt lat="45.515215" lon="10.4462283"><ele>182.0</ele><time>2026-03-29T07:42:59.417Z</time></trkpt><trkpt lat="45.5152733" lon="10.446065"><ele>182.0</ele><time>2026-03-29T07:43:00.417Z</time></trkpt><trkpt lat="45.515315" lon="10.4459017"><ele>182.0</ele><time>2026-03-29T07:43:01.417Z</time></trkpt><trkpt lat="45.5153567" lon="10.4457783"><ele>182.0</ele><time>2026-03-29T07:43:02.417Z</time></trkpt><trkpt lat="45.5153867" lon="10.445665"><ele>182.0</ele><time>2026-03-29T07:43:03.417Z</time></trkpt><trkpt lat="45.5154233" lon="10.44555"><ele>182.0</ele><time>2026-03-29T07:43:04.417Z</time></trkpt><trkpt lat="45.51545" lon="10.4454267"><ele>182.0</ele><time>2026-03-29T07:43:05.417Z</time></trkpt><trkpt lat="45.5154733" lon="10.44528"><ele>182.0</ele><time>2026-03-29T07:43:06.417Z</time></trkpt><trkpt lat="45.5155067" lon="10.4451183"><ele>182.0</ele><time>2026-03-29T07:43:07.417Z</time></trkpt><trkpt lat="45.51554" lon="10.444955"><ele>182.0</ele><time>2026-03-29T07:43:08.417Z</time></trkpt><trkpt lat="45.5155717" lon="10.4447783"><ele>182.0</ele><time>2026-03-29T07:43:09.417Z</time></trkpt><trkpt lat="45.5156067" lon="10.4445933"><ele>182.0</ele><time>2026-03-29T07:43:10.417Z</time></trkpt><trkpt lat="45.5156417" lon="10.4444133"><ele>182.0</ele><time>2026-03-29T07:43:11.417Z</time></trkpt><trkpt lat="45.5156767" lon="10.44426"><ele>182.0</ele><time>2026-03-29T07:43:12.417Z</time></trkpt><trkpt lat="45.51571" lon="10.4441083"><ele>182.0</ele><time>2026-03-29T07:43:13.417Z</time></trkpt><trkpt lat="45.5157433" lon="10.4439817"><ele>182.0</ele><time>2026-03-29T07:43:14.417Z</time></trkpt><trkpt lat="45.51578" lon="10.443855"><ele>182.0</ele><time>2026-03-29T07:43:15.417Z</time></trkpt><trkpt lat="45.5158217" lon="10.443735"><ele>182.0</ele><time>2026-03-29T07:43:16.417Z</time></trkpt><trkpt lat="45.5158767" lon="10.443625"><ele>182.0</ele><time>2026-03-29T07:43:17.417Z</time></trkpt><trkpt lat="45.5159283" lon="10.4435183"><ele>182.0</ele><time>2026-03-29T07:43:18.418Z</time></trkpt><trkpt lat="45.515975" lon="10.4433967"><ele>182.0</ele><time>2026-03-29T07:43:19.417Z</time></trkpt><trkpt lat="45.51603" lon="10.4432683"><ele>182.0</ele><time>2026-03-29T07:43:20.418Z</time></trkpt><trkpt lat="45.516075" lon="10.4431333"><ele>182.0</ele><time>2026-03-29T07:43:21.417Z</time></trkpt><trkpt lat="45.5161117" lon="10.4429817"><ele>182.0</ele><time>2026-03-29T07:43:22.417Z</time></trkpt><trkpt lat="45.5161417" lon="10.442835"><ele>182.0</ele><time>2026-03-29T07:43:23.417Z</time></trkpt><trkpt lat="45.5161833" lon="10.44269"><ele>182.0</ele><time>2026-03-29T07:43:24.417Z</time></trkpt><trkpt lat="45.5162083" lon="10.4425733"><ele>182.0</ele><time>2026-03-29T07:43:25.418Z</time></trkpt><trkpt lat="45.5162217" lon="10.4424333"><ele>182.0</ele><time>2026-03-29T07:43:26.417Z</time></trkpt><trkpt lat="45.5162217" lon="10.4422967"><ele>182.0</ele><time>2026-03-29T07:43:27.417Z</time></trkpt><trkpt lat="45.5162267" lon="10.44214"><ele>182.25</ele><time>2026-03-29T07:43:28.417Z</time></trkpt><trkpt lat="45.5162383" lon="10.4419733"><ele>182.5</ele><time>2026-03-29T07:43:29.417Z</time></trkpt><trkpt lat="45.51626" lon="10.4417883"><ele>182.75</ele><time>2026-03-29T07:43:30.417Z</time></trkpt><trkpt lat="45.51629" lon="10.441595"><ele>183.0</ele><time>2026-03-29T07:43:31.418Z</time></trkpt><trkpt lat="45.5163217" lon="10.4414217"><ele>182.8</ele><time>2026-03-29T07:43:32.417Z</time></trkpt><trkpt lat="45.516335" lon="10.441255"><ele>182.60000000000002</ele><time>2026-03-29T07:43:33.417Z</time></trkpt><trkpt lat="45.516365" lon="10.4411067"><ele>182.39999999999998</ele><time>2026-03-29T07:43:34.417Z</time></trkpt><trkpt lat="45.516385" lon="10.440955"><ele>182.2</ele><time>2026-03-29T07:43:35.417Z</time></trkpt><trkpt lat="45.516395" lon="10.4408183"><ele>182.0</ele><time>2026-03-29T07:43:36.417Z</time></trkpt><trkpt lat="45.516375" lon="10.44066"><ele>182.0</ele><time>2026-03-29T07:43:38.418Z</time></trkpt><trkpt lat="45.5162933" lon="10.4406183"><ele>182.0</ele><time>2026-03-29T07:43:39.417Z</time></trkpt><trkpt lat="45.5162117" lon="10.440555"><ele>182.0</ele><time>2026-03-29T07:43:40.417Z</time></trkpt><trkpt lat="45.5161383" lon="10.4404767"><ele>182.0</ele><time>2026-03-29T07:43:41.417Z</time></trkpt><trkpt lat="45.5160833" lon="10.4403883"><ele>182.0</ele><time>2026-03-29T07:43:42.418Z</time></trkpt><trkpt lat="45.5160683" lon="10.4402933"><ele>182.0</ele><time>2026-03-29T07:43:43.417Z</time></trkpt><trkpt lat="45.5160767" lon="10.4401683"><ele>181.5</ele><time>2026-03-29T07:43:44.417Z</time></trkpt><trkpt lat="45.5161067" lon="10.4400283"><ele>181.0</ele><time>2026-03-29T07:43:45.417Z</time></trkpt><trkpt lat="45.5161517" lon="10.43987"><ele>180.5</ele><time>2026-03-29T07:43:46.417Z</time></trkpt><trkpt lat="45.5162" lon="10.439715"><ele>180.0</ele><time>2026-03-29T07:43:47.417Z</time></trkpt><trkpt lat="45.51625" lon="10.439565"><ele>181.0</ele><time>2026-03-29T07:43:48.417Z</time></trkpt><trkpt lat="45.5163083" lon="10.43944"><ele>182.0</ele><time>2026-03-29T07:43:49.417Z</time></trkpt><trkpt lat="45.5163567" lon="10.43935"><ele>183.0</ele><time>2026-03-29T07:43:50.417Z</time></trkpt><trkpt lat="45.5163917" lon="10.4392683"><ele>184.0</ele><time>2026-03-29T07:43:51.418Z</time></trkpt><trkpt lat="45.5164333" lon="10.4391733"><ele>185.0</ele><time>2026-03-29T07:43:52.418Z</time></trkpt><trkpt lat="45.5164833" lon="10.4390783"><ele>186.0</ele><time>2026-03-29T07:43:53.417Z</time></trkpt><trkpt lat="45.5165417" lon="10.4389683"><ele>186.0</ele><time>2026-03-29T07:43:54.417Z</time></trkpt><trkpt lat="45.5166117" lon="10.438845"><ele>186.0</ele><time>2026-03-29T07:43:55.418Z</time></trkpt><trkpt lat="45.5166633" lon="10.4387167"><ele>186.0</ele><time>2026-03-29T07:43:56.417Z</time></trkpt><trkpt lat="45.5167033" lon="10.4386183"><ele>186.0</ele><time>2026-03-29T07:43:57.418Z</time></trkpt><trkpt lat="45.5167483" lon="10.4384983"><ele>186.0</ele><time>2026-03-29T07:43:59.418Z</time></trkpt><trkpt lat="45.51683" lon="10.438515"><ele>186.8</ele><time>2026-03-29T07:44:02.418Z</time></trkpt><trkpt lat="45.5169067" lon="10.438575"><ele>187.60000000000002</ele><time>2026-03-29T07:44:03.417Z</time></trkpt><trkpt lat="45.5170017" lon="10.4386083"><ele>188.4</ele><time>2026-03-29T07:44:04.417Z</time></trkpt><trkpt lat="45.5171" lon="10.4386517"><ele>189.2</ele><time>2026-03-29T07:44:05.417Z</time></trkpt><trkpt lat="45.5172033" lon="10.43865"><ele>190.0</ele><time>2026-03-29T07:44:06.417Z</time></trkpt><trkpt lat="45.517305" lon="10.4386167"><ele>190.25</ele><time>2026-03-29T07:44:07.417Z</time></trkpt><trkpt lat="45.5174283" lon="10.4385667"><ele>190.5</ele><time>2026-03-29T07:44:08.417Z</time></trkpt><trkpt lat="45.5175567" lon="10.4385083"><ele>190.75</ele><time>2026-03-29T07:44:09.417Z</time></trkpt><trkpt lat="45.51767" lon="10.438435"><ele>191.0</ele><time>2026-03-29T07:44:10.417Z</time></trkpt><trkpt lat="45.5177683" lon="10.4383867"><ele>191.0</ele><time>2026-03-29T07:44:11.418Z</time></trkpt><trkpt lat="45.5178533" lon="10.4383433"><ele>191.0</ele><time>2026-03-29T07:44:12.417Z</time></trkpt><trkpt lat="45.5179367" lon="10.43828"><ele>191.0</ele><time>2026-03-29T07:44:13.417Z</time></trkpt><trkpt lat="45.5180133" lon="10.4382067"><ele>191.0</ele><time>2026-03-29T07:44:14.417Z</time></trkpt><trkpt lat="45.5180917" lon="10.4381233"><ele>191.0</ele><time>2026-03-29T07:44:15.417Z</time></trkpt><trkpt lat="45.5181883" lon="10.4380533"><ele>191.0</ele><time>2026-03-29T07:44:16.417Z</time></trkpt><trkpt lat="45.5182767" lon="10.4379667"><ele>191.0</ele><time>2026-03-29T07:44:17.417Z</time></trkpt><trkpt lat="45.5183583" lon="10.4378917"><ele>191.0</ele><time>2026-03-29T07:44:18.418Z</time></trkpt><trkpt lat="45.5184283" lon="10.4378183"><ele>191.0</ele><time>2026-03-29T07:44:19.417Z</time></trkpt><trkpt lat="45.5184983" lon="10.4377133"><ele>191.0</ele><time>2026-03-29T07:44:20.417Z</time></trkpt><trkpt lat="45.51858" lon="10.43761"><ele>191.0</ele><time>2026-03-29T07:44:21.418Z</time></trkpt><trkpt lat="45.5186917" lon="10.4375067"><ele>191.0</ele><time>2026-03-29T07:44:22.417Z</time></trkpt><trkpt lat="45.518825" lon="10.4374033"><ele>191.0</ele><time>2026-03-29T07:44:23.417Z</time></trkpt><trkpt lat="45.5189617" lon="10.4372967"><ele>191.0</ele><time>2026-03-29T07:44:24.417Z</time></trkpt><trkpt lat="45.5191017" lon="10.4371833"><ele>191.0</ele><time>2026-03-29T07:44:25.417Z</time></trkpt><trkpt lat="45.5192467" lon="10.43707"><ele>191.0</ele><time>2026-03-29T07:44:26.417Z</time></trkpt><trkpt lat="45.519385" lon="10.4369733"><ele>191.0</ele><time>2026-03-29T07:44:27.417Z</time></trkpt><trkpt lat="45.5195" lon="10.4368867"><ele>191.0</ele><time>2026-03-29T07:44:28.417Z</time></trkpt><trkpt lat="45.5195983" lon="10.4368117"><ele>191.0</ele><time>2026-03-29T07:44:29.417Z</time></trkpt><trkpt lat="45.5196717" lon="10.43674"><ele>191.0</ele><time>2026-03-29T07:44:30.417Z</time></trkpt><trkpt lat="45.5197433" lon="10.4366833"><ele>191.0</ele><time>2026-03-29T07:44:31.417Z</time></trkpt><trkpt lat="45.51981" lon="10.43665"><ele>191.0</ele><time>2026-03-29T07:44:32.417Z</time></trkpt><trkpt lat="45.519905" lon="10.4366517"><ele>191.0</ele><time>2026-03-29T07:44:34.417Z</time></trkpt><trkpt lat="45.5200117" lon="10.4366767"><ele>191.0</ele><time>2026-03-29T07:44:36.417Z</time></trkpt><trkpt lat="45.5201033" lon="10.4366583"><ele>191.0</ele><time>2026-03-29T07:44:38.418Z</time></trkpt><trkpt lat="45.5201517" lon="10.4365717"><ele>191.0</ele><time>2026-03-29T07:44:40.417Z</time></trkpt><trkpt lat="45.5201833" lon="10.4364333"><ele>191.0</ele><time>2026-03-29T07:44:42.417Z</time></trkpt><trkpt lat="45.5202117" lon="10.4362433"><ele>191.0</ele><time>2026-03-29T07:44:44.418Z</time></trkpt><trkpt lat="45.52024" lon="10.436125"><ele>191.0</ele><time>2026-03-29T07:44:45.417Z</time></trkpt><trkpt lat="45.5202717" lon="10.4359983"><ele>190.8</ele><time>2026-03-29T07:44:46.417Z</time></trkpt><trkpt lat="45.520315" lon="10.43585"><ele>190.60000000000002</ele><time>2026-03-29T07:44:47.418Z</time></trkpt><trkpt lat="45.5203567" lon="10.4357117"><ele>190.4</ele><time>2026-03-29T07:44:48.417Z</time></trkpt><trkpt lat="45.5203983" lon="10.435595"><ele>190.2</ele><time>2026-03-29T07:44:49.417Z</time></trkpt><trkpt lat="45.5204517" lon="10.4354967"><ele>190.0</ele><time>2026-03-29T07:44:50.418Z</time></trkpt><trkpt lat="45.5205183" lon="10.435415"><ele>191.25</ele><time>2026-03-29T07:44:51.417Z</time></trkpt><trkpt lat="45.5206117" lon="10.4353267"><ele>192.5</ele><time>2026-03-29T07:44:52.417Z</time></trkpt><trkpt lat="45.520705" lon="10.4352383"><ele>193.75</ele><time>2026-03-29T07:44:53.418Z</time></trkpt><trkpt lat="45.5208083" lon="10.4351617"><ele>195.0</ele><time>2026-03-29T07:44:54.418Z</time></trkpt><trkpt lat="45.52092" lon="10.4350683"><ele>195.0</ele><time>2026-03-29T07:44:55.417Z</time></trkpt><trkpt lat="45.5210317" lon="10.4349617"><ele>195.0</ele><time>2026-03-29T07:44:56.417Z</time></trkpt><trkpt lat="45.52114" lon="10.4348417"><ele>195.0</ele><time>2026-03-29T07:44:57.417Z</time></trkpt><trkpt lat="45.52124" lon="10.4347133"><ele>195.0</ele><time>2026-03-29T07:44:58.417Z</time></trkpt><trkpt lat="45.5213333" lon="10.4345933"><ele>195.25</ele><time>2026-03-29T07:44:59.417Z</time></trkpt><trkpt lat="45.5214217" lon="10.43447"><ele>195.5</ele><time>2026-03-29T07:45:00.418Z</time></trkpt><trkpt lat="45.521505" lon="10.43436"><ele>195.75</ele><time>2026-03-29T07:45:01.417Z</time></trkpt><trkpt lat="45.5216083" lon="10.43425"><ele>196.0</ele><time>2026-03-29T07:45:02.417Z</time></trkpt><trkpt lat="45.521715" lon="10.4341417"><ele>196.0</ele><time>2026-03-29T07:45:03.417Z</time></trkpt><trkpt lat="45.521835" lon="10.4340267"><ele>196.0</ele><time>2026-03-29T07:45:04.417Z</time></trkpt><trkpt lat="45.5219483" lon="10.4339317"><ele>196.0</ele><time>2026-03-29T07:45:05.417Z</time></trkpt><trkpt lat="45.5220633" lon="10.4338617"><ele>196.0</ele><time>2026-03-29T07:45:06.417Z</time></trkpt><trkpt lat="45.5221667" lon="10.4338017"><ele>196.0</ele><time>2026-03-29T07:45:07.418Z</time></trkpt><trkpt lat="45.5222367" lon="10.4337283"><ele>196.0</ele><time>2026-03-29T07:45:08.418Z</time></trkpt><trkpt lat="45.522265" lon="10.433625"><ele>196.0</ele><time>2026-03-29T07:45:09.417Z</time></trkpt><trkpt lat="45.5222617" lon="10.4335033"><ele>196.0</ele><time>2026-03-29T07:45:10.418Z</time></trkpt><trkpt lat="45.5222383" lon="10.4333683"><ele>196.0</ele><time>2026-03-29T07:45:11.417Z</time></trkpt><trkpt lat="45.52219" lon="10.4332117"><ele>196.0</ele><time>2026-03-29T07:45:12.417Z</time></trkpt><trkpt lat="45.5221317" lon="10.43304"><ele>196.0</ele><time>2026-03-29T07:45:13.418Z</time></trkpt><trkpt lat="45.5220817" lon="10.432885"><ele>196.0</ele><time>2026-03-29T07:45:14.417Z</time></trkpt><trkpt lat="45.52204" lon="10.432745"><ele>196.0</ele><time>2026-03-29T07:45:15.417Z</time></trkpt><trkpt lat="45.522015" lon="10.4326467"><ele>196.0</ele><time>2026-03-29T07:45:16.417Z</time></trkpt><trkpt lat="45.5219783" lon="10.432525"><ele>195.4</ele><time>2026-03-29T07:45:18.417Z</time></trkpt><trkpt lat="45.5219033" lon="10.4324733"><ele>194.8</ele><time>2026-03-29T07:45:21.417Z</time></trkpt><trkpt lat="45.521765" lon="10.432485"><ele>194.20000000000002</ele><time>2026-03-29T07:45:23.417Z</time></trkpt><trkpt lat="45.5216717" lon="10.4325"><ele>193.60000000000002</ele><time>2026-03-29T07:45:24.417Z</time></trkpt><trkpt lat="45.52157" lon="10.4325083"><ele>193.0</ele><time>2026-03-29T07:45:25.417Z</time></trkpt><trkpt lat="45.5214533" lon="10.4325317"><ele>193.0</ele><time>2026-03-29T07:45:26.417Z</time></trkpt><trkpt lat="45.5213317" lon="10.4325567"><ele>193.0</ele><time>2026-03-29T07:45:27.417Z</time></trkpt><trkpt lat="45.521195" lon="10.4325767"><ele>193.0</ele><time>2026-03-29T07:45:28.417Z</time></trkpt><trkpt lat="45.521055" lon="10.4325717"><ele>193.0</ele><time>2026-03-29T07:45:29.417Z</time></trkpt><trkpt lat="45.5209183" lon="10.4325417"><ele>192.75</ele><time>2026-03-29T07:45:30.418Z</time></trkpt><trkpt lat="45.5207833" lon="10.4325033"><ele>192.5</ele><time>2026-03-29T07:45:31.418Z</time></trkpt><trkpt lat="45.52065" lon="10.4324333"><ele>192.25</ele><time>2026-03-29T07:45:32.417Z</time></trkpt><trkpt lat="45.52051" lon="10.4323667"><ele>192.0</ele><time>2026-03-29T07:45:33.417Z</time></trkpt><trkpt lat="45.52036" lon="10.432295"><ele>191.0</ele><time>2026-03-29T07:45:34.417Z</time></trkpt><trkpt lat="45.5202" lon="10.43222"><ele>190.0</ele><time>2026-03-29T07:45:35.417Z</time></trkpt><trkpt lat="45.52004" lon="10.43215"><ele>189.0</ele><time>2026-03-29T07:45:36.417Z</time></trkpt><trkpt lat="45.51988" lon="10.4320833"><ele>188.33333333333334</ele><time>2026-03-29T07:45:37.417Z</time></trkpt><trkpt lat="45.5197233" lon="10.43201"><ele>187.66666666666669</ele><time>2026-03-29T07:45:38.418Z</time></trkpt><trkpt lat="45.51956" lon="10.4319533"><ele>187.0</ele><time>2026-03-29T07:45:39.417Z</time></trkpt><trkpt lat="45.519395" lon="10.4319017"><ele>188.66666666666669</ele><time>2026-03-29T07:45:40.418Z</time></trkpt><trkpt lat="45.5192317" lon="10.43187"><ele>190.33333333333334</ele><time>2026-03-29T07:45:41.417Z</time></trkpt><trkpt lat="45.5190583" lon="10.4318433"><ele>192.0</ele><time>2026-03-29T07:45:42.417Z</time></trkpt><trkpt lat="45.5188867" lon="10.4318383"><ele>192.0</ele><time>2026-03-29T07:45:43.418Z</time></trkpt><trkpt lat="45.5187083" lon="10.4318367"><ele>192.0</ele><time>2026-03-29T07:45:44.417Z</time></trkpt><trkpt lat="45.5185383" lon="10.4318333"><ele>192.0</ele><time>2026-03-29T07:45:45.417Z</time></trkpt><trkpt lat="45.5183567" lon="10.4318233"><ele>192.0</ele><time>2026-03-29T07:45:46.417Z</time></trkpt><trkpt lat="45.51817" lon="10.4318283"><ele>192.0</ele><time>2026-03-29T07:45:47.418Z</time></trkpt><trkpt lat="45.5179967" lon="10.4318267"><ele>192.0</ele><time>2026-03-29T07:45:48.417Z</time></trkpt><trkpt lat="45.51782" lon="10.4318117"><ele>192.33333333333331</ele><time>2026-03-29T07:45:49.417Z</time></trkpt><trkpt lat="45.5176417" lon="10.4317883"><ele>192.66666666666666</ele><time>2026-03-29T07:45:50.417Z</time></trkpt><trkpt lat="45.5174717" lon="10.4317733"><ele>193.0</ele><time>2026-03-29T07:45:51.417Z</time></trkpt><trkpt lat="45.5173017" lon="10.43177"><ele>193.0</ele><time>2026-03-29T07:45:52.417Z</time></trkpt><trkpt lat="45.5171267" lon="10.4317667"><ele>193.0</ele><time>2026-03-29T07:45:53.417Z</time></trkpt><trkpt lat="45.5169517" lon="10.4317267"><ele>193.0</ele><time>2026-03-29T07:45:54.417Z</time></trkpt><trkpt lat="45.516765" lon="10.4316917"><ele>192.0</ele><time>2026-03-29T07:45:55.418Z</time></trkpt><trkpt lat="45.516595" lon="10.4316167"><ele>191.0</ele><time>2026-03-29T07:45:56.417Z</time></trkpt><trkpt lat="45.516425" lon="10.4315133"><ele>190.0</ele><time>2026-03-29T07:45:57.417Z</time></trkpt><trkpt lat="45.5162567" lon="10.4314133"><ele>188.33333333333334</ele><time>2026-03-29T07:45:58.418Z</time></trkpt><trkpt lat="45.5160917" lon="10.4313017"><ele>186.66666666666666</ele><time>2026-03-29T07:45:59.417Z</time></trkpt><trkpt lat="45.51593" lon="10.4311767"><ele>185.0</ele><time>2026-03-29T07:46:00.417Z</time></trkpt><trkpt lat="45.5157633" lon="10.43106"><ele>185.0</ele><time>2026-03-29T07:46:01.417Z</time></trkpt><trkpt lat="45.5156017" lon="10.430935"><ele>185.0</ele><time>2026-03-29T07:46:02.417Z</time></trkpt><trkpt lat="45.5154467" lon="10.4308033"><ele>185.0</ele><time>2026-03-29T07:46:03.417Z</time></trkpt><trkpt lat="45.515295" lon="10.4306567"><ele>184.66666666666666</ele><time>2026-03-29T07:46:04.417Z</time></trkpt><trkpt lat="45.5151467" lon="10.4304917"><ele>184.33333333333334</ele><time>2026-03-29T07:46:05.418Z</time></trkpt><trkpt lat="45.5150033" lon="10.4303317"><ele>184.0</ele><time>2026-03-29T07:46:06.417Z</time></trkpt><trkpt lat="45.5148533" lon="10.4301783"><ele>184.0</ele><time>2026-03-29T07:46:07.418Z</time></trkpt><trkpt lat="45.5147017" lon="10.4300433"><ele>184.0</ele><time>2026-03-29T07:46:08.417Z</time></trkpt><trkpt lat="45.5145433" lon="10.4299267"><ele>184.0</ele><time>2026-03-29T07:46:09.417Z</time></trkpt><trkpt lat="45.514375" lon="10.4298083"><ele>183.33333333333334</ele><time>2026-03-29T07:46:10.418Z</time></trkpt><trkpt lat="45.5142067" lon="10.429715"><ele>182.66666666666666</ele><time>2026-03-29T07:46:11.417Z</time></trkpt><trkpt lat="45.514035" lon="10.42963"><ele>182.0</ele><time>2026-03-29T07:46:12.417Z</time></trkpt><trkpt lat="45.5138633" lon="10.4295433"><ele>182.66666666666666</ele><time>2026-03-29T07:46:13.417Z</time></trkpt><trkpt lat="45.5136867" lon="10.429455"><ele>183.33333333333334</ele><time>2026-03-29T07:46:14.417Z</time></trkpt><trkpt lat="45.51351" lon="10.42937"><ele>184.0</ele><time>2026-03-29T07:46:15.417Z</time></trkpt><trkpt lat="45.5133517" lon="10.429295"><ele>184.0</ele><time>2026-03-29T07:46:16.417Z</time></trkpt><trkpt lat="45.51319" lon="10.42921"><ele>184.0</ele><time>2026-03-29T07:46:17.417Z</time></trkpt><trkpt lat="45.513045" lon="10.4291317"><ele>184.0</ele><time>2026-03-29T07:46:18.417Z</time></trkpt><trkpt lat="45.512915" lon="10.42906"><ele>184.0</ele><time>2026-03-29T07:46:19.417Z</time></trkpt><trkpt lat="45.5128067" lon="10.429"><ele>184.0</ele><time>2026-03-29T07:46:20.417Z</time></trkpt><trkpt lat="45.5127167" lon="10.4289517"><ele>184.0</ele><time>2026-03-29T07:46:21.417Z</time></trkpt><trkpt lat="45.5126367" lon="10.4289017"><ele>184.0</ele><time>2026-03-29T07:46:22.418Z</time></trkpt><trkpt lat="45.5125567" lon="10.4288617"><ele>184.0</ele><time>2026-03-29T07:46:23.417Z</time></trkpt><trkpt lat="45.5124717" lon="10.4288117"><ele>184.2</ele><time>2026-03-29T07:46:24.418Z</time></trkpt><trkpt lat="45.5123883" lon="10.4287533"><ele>184.39999999999998</ele><time>2026-03-29T07:46:25.417Z</time></trkpt><trkpt lat="45.512295" lon="10.4287"><ele>184.6</ele><time>2026-03-29T07:46:26.417Z</time></trkpt><trkpt lat="45.5122067" lon="10.4286517"><ele>184.8</ele><time>2026-03-29T07:46:27.417Z</time></trkpt><trkpt lat="45.5121133" lon="10.4285883"><ele>185.0</ele><time>2026-03-29T07:46:28.417Z</time></trkpt><trkpt lat="45.5120183" lon="10.428535"><ele>184.33333333333331</ele><time>2026-03-29T07:46:29.417Z</time></trkpt><trkpt lat="45.5119333" lon="10.4284817"><ele>183.66666666666666</ele><time>2026-03-29T07:46:30.418Z</time></trkpt><trkpt lat="45.51185" lon="10.4284367"><ele>183.0</ele><time>2026-03-29T07:46:31.418Z</time></trkpt><trkpt lat="45.51177" lon="10.4283983"><ele>182.33333333333334</ele><time>2026-03-29T07:46:32.417Z</time></trkpt><trkpt lat="45.5117017" lon="10.42836"><ele>181.66666666666669</ele><time>2026-03-29T07:46:33.418Z</time></trkpt><trkpt lat="45.5116167" lon="10.428285"><ele>181.0</ele><time>2026-03-29T07:46:35.417Z</time></trkpt><trkpt lat="45.5115917" lon="10.42819"><ele>181.0</ele><time>2026-03-29T07:46:37.418Z</time></trkpt><trkpt lat="45.511615" lon="10.4280767"><ele>181.0</ele><time>2026-03-29T07:46:39.417Z</time></trkpt><trkpt lat="45.51168" lon="10.427895"><ele>181.0</ele><time>2026-03-29T07:46:41.417Z</time></trkpt><trkpt lat="45.511735" lon="10.427775"><ele>181.0</ele><time>2026-03-29T07:46:42.417Z</time></trkpt><trkpt lat="45.51179" lon="10.4276317"><ele>181.0</ele><time>2026-03-29T07:46:43.417Z</time></trkpt><trkpt lat="45.5118533" lon="10.427505"><ele>180.60000000000002</ele><time>2026-03-29T07:46:44.418Z</time></trkpt><trkpt lat="45.5119117" lon="10.4273833"><ele>180.2</ele><time>2026-03-29T07:46:45.417Z</time></trkpt><trkpt lat="45.5119767" lon="10.4272717"><ele>179.8</ele><time>2026-03-29T07:46:46.417Z</time></trkpt><trkpt lat="45.5120383" lon="10.42716"><ele>179.39999999999998</ele><time>2026-03-29T07:46:47.417Z</time></trkpt><trkpt lat="45.512085" lon="10.4270417"><ele>179.0</ele><time>2026-03-29T07:46:48.417Z</time></trkpt><trkpt lat="45.512125" lon="10.4269083"><ele>180.2</ele><time>2026-03-29T07:46:49.418Z</time></trkpt><trkpt lat="45.5121567" lon="10.4267633"><ele>181.39999999999998</ele><time>2026-03-29T07:46:50.417Z</time></trkpt><trkpt lat="45.5121717" lon="10.4266017"><ele>182.6</ele><time>2026-03-29T07:46:51.417Z</time></trkpt><trkpt lat="45.5121617" lon="10.4264417"><ele>183.8</ele><time>2026-03-29T07:46:52.417Z</time></trkpt><trkpt lat="45.51214" lon="10.42629"><ele>185.0</ele><time>2026-03-29T07:46:53.417Z</time></trkpt><trkpt lat="45.5121133" lon="10.426145"><ele>185.2</ele><time>2026-03-29T07:46:54.417Z</time></trkpt><trkpt lat="45.51208" lon="10.4259983"><ele>185.4</ele><time>2026-03-29T07:46:55.417Z</time></trkpt><trkpt lat="45.5120433" lon="10.4258567"><ele>185.60000000000002</ele><time>2026-03-29T07:46:56.418Z</time></trkpt><trkpt lat="45.5120083" lon="10.4257183"><ele>185.8</ele><time>2026-03-29T07:46:57.417Z</time></trkpt><trkpt lat="45.5119783" lon="10.4255867"><ele>186.0</ele><time>2026-03-29T07:46:58.417Z</time></trkpt><trkpt lat="45.511955" lon="10.4254483"><ele>185.20000000000002</ele><time>2026-03-29T07:46:59.417Z</time></trkpt><trkpt lat="45.51193" lon="10.425305"><ele>184.4</ele><time>2026-03-29T07:47:00.417Z</time></trkpt><trkpt lat="45.511905" lon="10.4251583"><ele>183.6</ele><time>2026-03-29T07:47:01.418Z</time></trkpt><trkpt lat="45.51188" lon="10.4250217"><ele>182.8</ele><time>2026-03-29T07:47:02.418Z</time></trkpt><trkpt lat="45.51186" lon="10.4249067"><ele>182.0</ele><time>2026-03-29T07:47:03.417Z</time></trkpt><trkpt lat="45.5118417" lon="10.4248133"><ele>182.0</ele><time>2026-03-29T07:47:04.418Z</time></trkpt><trkpt lat="45.51179" lon="10.4247033"><ele>182.0</ele><time>2026-03-29T07:47:06.417Z</time></trkpt><trkpt lat="45.51171" lon="10.4247183"><ele>182.0</ele><time>2026-03-29T07:47:08.417Z</time></trkpt><trkpt lat="45.511665" lon="10.4247917"><ele>182.0</ele><time>2026-03-29T07:47:09.417Z</time></trkpt><trkpt lat="45.5116117" lon="10.4248983"><ele>182.0</ele><time>2026-03-29T07:47:10.417Z</time></trkpt><trkpt lat="45.5115433" lon="10.425025"><ele>182.0</ele><time>2026-03-29T07:47:11.417Z</time></trkpt><trkpt lat="45.5114667" lon="10.42515"><ele>182.0</ele><time>2026-03-29T07:47:12.418Z</time></trkpt><trkpt lat="45.5113883" lon="10.4252783"><ele>182.0</ele><time>2026-03-29T07:47:13.417Z</time></trkpt><trkpt lat="45.511295" lon="10.425405"><ele>182.0</ele><time>2026-03-29T07:47:14.417Z</time></trkpt><trkpt lat="45.5111817" lon="10.425555"><ele>182.0</ele><time>2026-03-29T07:47:15.417Z</time></trkpt><trkpt lat="45.5110833" lon="10.42568"><ele>180.0</ele><time>2026-03-29T07:47:16.417Z</time></trkpt><trkpt lat="45.510985" lon="10.4257917"><ele>178.0</ele><time>2026-03-29T07:47:17.417Z</time></trkpt><trkpt lat="45.510895" lon="10.4259067"><ele>176.0</ele><time>2026-03-29T07:47:18.417Z</time></trkpt><trkpt lat="45.5108133" lon="10.42602"><ele>174.0</ele><time>2026-03-29T07:47:19.417Z</time></trkpt><trkpt lat="45.5107383" lon="10.4261333"><ele>174.0</ele><time>2026-03-29T07:47:20.417Z</time></trkpt><trkpt lat="45.5106583" lon="10.4262267"><ele>174.0</ele><time>2026-03-29T07:47:21.417Z</time></trkpt><trkpt lat="45.5105683" lon="10.4262917"><ele>174.0</ele><time>2026-03-29T07:47:22.417Z</time></trkpt><trkpt lat="45.5104767" lon="10.4263017"><ele>174.0</ele><time>2026-03-29T07:47:23.418Z</time></trkpt><trkpt lat="45.510395" lon="10.4262733"><ele>174.0</ele><time>2026-03-29T07:47:24.418Z</time></trkpt><trkpt lat="45.5103017" lon="10.42621"><ele>173.5</ele><time>2026-03-29T07:47:25.417Z</time></trkpt><trkpt lat="45.51019" lon="10.4261367"><ele>173.0</ele><time>2026-03-29T07:47:26.417Z</time></trkpt><trkpt lat="45.5100733" lon="10.426075"><ele>172.5</ele><time>2026-03-29T07:47:27.418Z</time></trkpt><trkpt lat="45.5099533" lon="10.4260117"><ele>172.0</ele><time>2026-03-29T07:47:28.417Z</time></trkpt><trkpt lat="45.5098267" lon="10.4259433"><ele>172.0</ele><time>2026-03-29T07:47:29.417Z</time></trkpt><trkpt lat="45.5096967" lon="10.42588"><ele>172.0</ele><time>2026-03-29T07:47:30.417Z</time></trkpt><trkpt lat="45.509565" lon="10.4258217"><ele>172.0</ele><time>2026-03-29T07:47:31.417Z</time></trkpt><trkpt lat="45.5094283" lon="10.425765"><ele>172.0</ele><time>2026-03-29T07:47:32.417Z</time></trkpt><trkpt lat="45.5092933" lon="10.4257033"><ele>172.0</ele><time>2026-03-29T07:47:33.418Z</time></trkpt><trkpt lat="45.5091667" lon="10.4256383"><ele>172.0</ele><time>2026-03-29T07:47:34.417Z</time></trkpt><trkpt lat="45.5090317" lon="10.4255733"><ele>172.0</ele><time>2026-03-29T07:47:35.417Z</time></trkpt><trkpt lat="45.5089133" lon="10.4255067"><ele>172.0</ele><time>2026-03-29T07:47:36.417Z</time></trkpt><trkpt lat="45.50881" lon="10.4254567"><ele>171.83333333333334</ele><time>2026-03-29T07:47:37.418Z</time></trkpt><trkpt lat="45.508745" lon="10.4254233"><ele>171.66666666666669</ele><time>2026-03-29T07:47:38.417Z</time></trkpt><trkpt lat="45.5086667" lon="10.42531"><ele>171.5</ele><time>2026-03-29T07:47:40.418Z</time></trkpt><trkpt lat="45.5085633" lon="10.4252467"><ele>171.33333333333334</ele><time>2026-03-29T07:47:42.417Z</time></trkpt><trkpt lat="45.5084933" lon="10.4252217"><ele>171.16666666666666</ele><time>2026-03-29T07:47:43.417Z</time></trkpt><trkpt lat="45.50842" lon="10.4251783"><ele>171.0</ele><time>2026-03-29T07:47:44.417Z</time></trkpt><trkpt lat="45.5083383" lon="10.4250967"><ele>170.25</ele><time>2026-03-29T07:47:45.417Z</time></trkpt><trkpt lat="45.5082433" lon="10.4249833"><ele>169.5</ele><time>2026-03-29T07:47:46.417Z</time></trkpt><trkpt lat="45.5081467" lon="10.4248667"><ele>168.75</ele><time>2026-03-29T07:47:47.418Z</time></trkpt><trkpt lat="45.5080467" lon="10.4247417"><ele>168.0</ele><time>2026-03-29T07:47:48.417Z</time></trkpt><trkpt lat="45.507935" lon="10.4246133"><ele>168.25</ele><time>2026-03-29T07:47:49.417Z</time></trkpt><trkpt lat="45.5078233" lon="10.4244917"><ele>168.5</ele><time>2026-03-29T07:47:50.417Z</time></trkpt><trkpt lat="45.5077267" lon="10.4243733"><ele>168.75</ele><time>2026-03-29T07:47:51.417Z</time></trkpt><trkpt lat="45.507635" lon="10.4242683"><ele>169.0</ele><time>2026-03-29T07:47:52.417Z</time></trkpt><trkpt lat="45.507555" lon="10.424175"><ele>169.0</ele><time>2026-03-29T07:47:53.417Z</time></trkpt><trkpt lat="45.5074917" lon="10.4240967"><ele>169.0</ele><time>2026-03-29T07:47:54.417Z</time></trkpt><trkpt lat="45.5074533" lon="10.424015"><ele>169.0</ele><time>2026-03-29T07:47:55.417Z</time></trkpt><trkpt lat="45.5074217" lon="10.4239233"><ele>169.0</ele><time>2026-03-29T07:47:56.417Z</time></trkpt><trkpt lat="45.5073783" lon="10.4238367"><ele>169.0</ele><time>2026-03-29T07:47:57.417Z</time></trkpt><trkpt lat="45.5073217" lon="10.4237483"><ele>169.0</ele><time>2026-03-29T07:47:58.417Z</time></trkpt><trkpt lat="45.5072517" lon="10.423655"><ele>169.25</ele><time>2026-03-29T07:47:59.418Z</time></trkpt><trkpt lat="45.507155" lon="10.423595"><ele>169.5</ele><time>2026-03-29T07:48:00.417Z</time></trkpt><trkpt lat="45.5070383" lon="10.42355"><ele>169.75</ele><time>2026-03-29T07:48:01.417Z</time></trkpt><trkpt lat="45.5068967" lon="10.42352"><ele>170.0</ele><time>2026-03-29T07:48:02.417Z</time></trkpt><trkpt lat="45.50675" lon="10.4234767"><ele>169.0</ele><time>2026-03-29T07:48:03.417Z</time></trkpt><trkpt lat="45.5065933" lon="10.4234417"><ele>168.0</ele><time>2026-03-29T07:48:04.417Z</time></trkpt><trkpt lat="45.506425" lon="10.4234183"><ele>167.0</ele><time>2026-03-29T07:48:05.418Z</time></trkpt><trkpt lat="45.5062667" lon="10.423415"><ele>167.0</ele><time>2026-03-29T07:48:06.417Z</time></trkpt><trkpt lat="45.5061167" lon="10.4234033"><ele>167.0</ele><time>2026-03-29T07:48:07.417Z</time></trkpt><trkpt lat="45.5059717" lon="10.4234033"><ele>167.0</ele><time>2026-03-29T07:48:08.417Z</time></trkpt><trkpt lat="45.5058317" lon="10.4233867"><ele>167.0</ele><time>2026-03-29T07:48:09.418Z</time></trkpt><trkpt lat="45.5057233" lon="10.4233433"><ele>167.0</ele><time>2026-03-29T07:48:10.418Z</time></trkpt><trkpt lat="45.5055883" lon="10.4232883"><ele>167.0</ele><time>2026-03-29T07:48:11.417Z</time></trkpt><trkpt lat="45.505465" lon="10.423195"><ele>167.0</ele><time>2026-03-29T07:48:12.418Z</time></trkpt><trkpt lat="45.505345" lon="10.4230933"><ele>167.0</ele><time>2026-03-29T07:48:13.418Z</time></trkpt><trkpt lat="45.5052233" lon="10.42299"><ele>167.2</ele><time>2026-03-29T07:48:14.417Z</time></trkpt><trkpt lat="45.5051233" lon="10.4229017"><ele>167.39999999999998</ele><time>2026-03-29T07:48:15.417Z</time></trkpt><trkpt lat="45.50502" lon="10.42285"><ele>167.60000000000002</ele><time>2026-03-29T07:48:16.417Z</time></trkpt><trkpt lat="45.5049217" lon="10.4228167"><ele>167.8</ele><time>2026-03-29T07:48:17.417Z</time></trkpt><trkpt lat="45.5048183" lon="10.4228033"><ele>168.0</ele><time>2026-03-29T07:48:18.417Z</time></trkpt><trkpt lat="45.5047083" lon="10.4227983"><ele>168.0</ele><time>2026-03-29T07:48:19.417Z</time></trkpt><trkpt lat="45.5046" lon="10.4228017"><ele>168.0</ele><time>2026-03-29T07:48:20.418Z</time></trkpt><trkpt lat="45.5044933" lon="10.4228033"><ele>168.0</ele><time>2026-03-29T07:48:21.417Z</time></trkpt><trkpt lat="45.5043967" lon="10.422795"><ele>168.0</ele><time>2026-03-29T07:48:22.417Z</time></trkpt><trkpt lat="45.5042983" lon="10.4227783"><ele>168.0</ele><time>2026-03-29T07:48:23.417Z</time></trkpt><trkpt lat="45.50419" lon="10.4227683"><ele>168.0</ele><time>2026-03-29T07:48:24.417Z</time></trkpt><trkpt lat="45.5040867" lon="10.4227367"><ele>168.0</ele><time>2026-03-29T07:48:25.417Z</time></trkpt><trkpt lat="45.5039817" lon="10.42271"><ele>168.0</ele><time>2026-03-29T07:48:26.417Z</time></trkpt><trkpt lat="45.50386" lon="10.4226833"><ele>168.0</ele><time>2026-03-29T07:48:27.417Z</time></trkpt><trkpt lat="45.5037567" lon="10.42267"><ele>168.0</ele><time>2026-03-29T07:48:28.417Z</time></trkpt><trkpt lat="45.5036383" lon="10.4226783"><ele>167.75</ele><time>2026-03-29T07:48:29.417Z</time></trkpt><trkpt lat="45.503525" lon="10.4227183"><ele>167.5</ele><time>2026-03-29T07:48:30.417Z</time></trkpt><trkpt lat="45.50342" lon="10.4227667"><ele>167.25</ele><time>2026-03-29T07:48:31.417Z</time></trkpt><trkpt lat="45.5032967" lon="10.4228217"><ele>167.0</ele><time>2026-03-29T07:48:32.417Z</time></trkpt><trkpt lat="45.5031783" lon="10.422905"><ele>166.75</ele><time>2026-03-29T07:48:33.417Z</time></trkpt><trkpt lat="45.5030683" lon="10.4229983"><ele>166.5</ele><time>2026-03-29T07:48:34.417Z</time></trkpt><trkpt lat="45.50295" lon="10.4231"><ele>166.25</ele><time>2026-03-29T07:48:35.417Z</time></trkpt><trkpt lat="45.5028333" lon="10.4232083"><ele>166.0</ele><time>2026-03-29T07:48:36.417Z</time></trkpt><trkpt lat="45.5027167" lon="10.42332"><ele>165.5</ele><time>2026-03-29T07:48:37.417Z</time></trkpt><trkpt lat="45.5025967" lon="10.4234233"><ele>165.0</ele><time>2026-03-29T07:48:38.417Z</time></trkpt><trkpt lat="45.50247" lon="10.4235133"><ele>164.5</ele><time>2026-03-29T07:48:39.417Z</time></trkpt><trkpt lat="45.5023367" lon="10.42357"><ele>164.0</ele><time>2026-03-29T07:48:40.417Z</time></trkpt><trkpt lat="45.502195" lon="10.4235867"><ele>163.6</ele><time>2026-03-29T07:48:41.417Z</time></trkpt><trkpt lat="45.5020583" lon="10.4235867"><ele>163.2</ele><time>2026-03-29T07:48:42.417Z</time></trkpt><trkpt lat="45.5019417" lon="10.4235517"><ele>162.79999999999998</ele><time>2026-03-29T07:48:43.418Z</time></trkpt><trkpt lat="45.5018533" lon="10.42351"><ele>162.39999999999998</ele><time>2026-03-29T07:48:44.417Z</time></trkpt><trkpt lat="45.501785" lon="10.4234733"><ele>162.0</ele><time>2026-03-29T07:48:45.417Z</time></trkpt><trkpt lat="45.5017133" lon="10.4234317"><ele>162.0</ele><time>2026-03-29T07:48:46.418Z</time></trkpt><trkpt lat="45.5016417" lon="10.4233717"><ele>162.0</ele><time>2026-03-29T07:48:47.417Z</time></trkpt><trkpt lat="45.50157" lon="10.4233"><ele>162.0</ele><time>2026-03-29T07:48:48.417Z</time></trkpt><trkpt lat="45.50151" lon="10.4232483"><ele>162.0</ele><time>2026-03-29T07:48:49.418Z</time></trkpt><trkpt lat="45.501425" lon="10.42316"><ele>162.0</ele><time>2026-03-29T07:48:51.417Z</time></trkpt><trkpt lat="45.50149" lon="10.423275"><ele>162.0</ele><time>2026-03-29T07:48:59.417Z</time></trkpt><trkpt lat="45.5015717" lon="10.42335"><ele>162.0</ele><time>2026-03-29T07:49:01.417Z</time></trkpt><trkpt lat="45.5016267" lon="10.4233983"><ele>162.0</ele><time>2026-03-29T07:49:03.418Z</time></trkpt><trkpt lat="45.5016833" lon="10.4234683"><ele>162.0</ele><time>2026-03-29T07:49:06.417Z</time></trkpt><trkpt lat="45.50163" lon="10.4235817"><ele>162.0</ele><time>2026-03-29T07:49:09.417Z</time></trkpt><trkpt lat="45.5015217" lon="10.42361"><ele>162.0</ele><time>2026-03-29T07:49:11.417Z</time></trkpt><trkpt lat="45.5014333" lon="10.4236117"><ele>162.0</ele><time>2026-03-29T07:49:12.417Z</time></trkpt><trkpt lat="45.5013167" lon="10.42362"><ele>161.75</ele><time>2026-03-29T07:49:13.417Z</time></trkpt><trkpt lat="45.5011833" lon="10.4236233"><ele>161.5</ele><time>2026-03-29T07:49:14.417Z</time></trkpt><trkpt lat="45.5010333" lon="10.42364"><ele>161.25</ele><time>2026-03-29T07:49:15.417Z</time></trkpt><trkpt lat="45.5008867" lon="10.4236567"><ele>161.0</ele><time>2026-03-29T07:49:16.417Z</time></trkpt><trkpt lat="45.5007533" lon="10.4236767"><ele>161.0</ele><time>2026-03-29T07:49:17.417Z</time></trkpt><trkpt lat="45.5006083" lon="10.4237033"><ele>161.0</ele><time>2026-03-29T07:49:18.417Z</time></trkpt><trkpt lat="45.500465" lon="10.4237217"><ele>161.0</ele><time>2026-03-29T07:49:19.417Z</time></trkpt><trkpt lat="45.500325" lon="10.4237267"><ele>161.0</ele><time>2026-03-29T07:49:20.417Z</time></trkpt><trkpt lat="45.5001917" lon="10.4237383"><ele>160.75</ele><time>2026-03-29T07:49:21.417Z</time></trkpt><trkpt lat="45.5000617" lon="10.4237633"><ele>160.5</ele><time>2026-03-29T07:49:22.417Z</time></trkpt><trkpt lat="45.4999267" lon="10.42381"><ele>160.25</ele><time>2026-03-29T07:49:23.417Z</time></trkpt><trkpt lat="45.4997917" lon="10.4238817"><ele>160.0</ele><time>2026-03-29T07:49:24.417Z</time></trkpt><trkpt lat="45.49964" lon="10.4239733"><ele>159.66666666666669</ele><time>2026-03-29T07:49:25.417Z</time></trkpt><trkpt lat="45.4994967" lon="10.4240683"><ele>159.33333333333334</ele><time>2026-03-29T07:49:26.417Z</time></trkpt><trkpt lat="45.4993617" lon="10.4241683"><ele>159.0</ele><time>2026-03-29T07:49:27.417Z</time></trkpt><trkpt lat="45.4992383" lon="10.4242633"><ele>159.0</ele><time>2026-03-29T07:49:28.417Z</time></trkpt><trkpt lat="45.49913" lon="10.4243467"><ele>159.0</ele><time>2026-03-29T07:49:29.417Z</time></trkpt><trkpt lat="45.4990283" lon="10.42442"><ele>159.0</ele><time>2026-03-29T07:49:30.417Z</time></trkpt><trkpt lat="45.4989267" lon="10.42448"><ele>159.0</ele><time>2026-03-29T07:49:31.417Z</time></trkpt><trkpt lat="45.4988267" lon="10.42453"><ele>159.0</ele><time>2026-03-29T07:49:32.417Z</time></trkpt><trkpt lat="45.498735" lon="10.4245783"><ele>159.0</ele><time>2026-03-29T07:49:33.417Z</time></trkpt><trkpt lat="45.49864" lon="10.4246333"><ele>159.0</ele><time>2026-03-29T07:49:34.417Z</time></trkpt><trkpt lat="45.4985433" lon="10.4246917"><ele>159.0</ele><time>2026-03-29T07:49:35.417Z</time></trkpt><trkpt lat="45.4984433" lon="10.4247633"><ele>159.0</ele><time>2026-03-29T07:49:36.417Z</time></trkpt><trkpt lat="45.4983317" lon="10.4248417"><ele>159.0</ele><time>2026-03-29T07:49:37.417Z</time></trkpt><trkpt lat="45.4982117" lon="10.4249417"><ele>159.0</ele><time>2026-03-29T07:49:38.417Z</time></trkpt><trkpt lat="45.4980867" lon="10.4250367"><ele>159.0</ele><time>2026-03-29T07:49:39.417Z</time></trkpt><trkpt lat="45.4979567" lon="10.425135"><ele>159.0</ele><time>2026-03-29T07:49:40.417Z</time></trkpt><trkpt lat="45.497815" lon="10.4252217"><ele>158.33333333333334</ele><time>2026-03-29T07:49:41.417Z</time></trkpt><trkpt lat="45.4976683" lon="10.4253367"><ele>157.66666666666669</ele><time>2026-03-29T07:49:42.417Z</time></trkpt><trkpt lat="45.4975283" lon="10.4254567"><ele>157.0</ele><time>2026-03-29T07:49:43.417Z</time></trkpt><trkpt lat="45.4973833" lon="10.4255683"><ele>157.0</ele><time>2026-03-29T07:49:44.417Z</time></trkpt><trkpt lat="45.4972483" lon="10.42568"><ele>157.0</ele><time>2026-03-29T07:49:45.417Z</time></trkpt><trkpt lat="45.4971117" lon="10.4257883"><ele>157.0</ele><time>2026-03-29T07:49:46.417Z</time></trkpt><trkpt lat="45.4969883" lon="10.4258933"><ele>157.0</ele><time>2026-03-29T07:49:47.418Z</time></trkpt><trkpt lat="45.4968783" lon="10.4260033"><ele>157.0</ele><time>2026-03-29T07:49:48.418Z</time></trkpt><trkpt lat="45.4967767" lon="10.4261117"><ele>157.0</ele><time>2026-03-29T07:49:49.417Z</time></trkpt><trkpt lat="45.4966817" lon="10.4262367"><ele>157.0</ele><time>2026-03-29T07:49:50.417Z</time></trkpt><trkpt lat="45.496595" lon="10.4263583"><ele>157.0</ele><time>2026-03-29T07:49:51.417Z</time></trkpt><trkpt lat="45.4965083" lon="10.4264717"><ele>157.0</ele><time>2026-03-29T07:49:52.417Z</time></trkpt><trkpt lat="45.4964133" lon="10.4265783"><ele>157.0</ele><time>2026-03-29T07:49:53.417Z</time></trkpt><trkpt lat="45.4963133" lon="10.4266883"><ele>157.0</ele><time>2026-03-29T07:49:54.417Z</time></trkpt><trkpt lat="45.496215" lon="10.426805"><ele>157.0</ele><time>2026-03-29T07:49:55.417Z</time></trkpt><trkpt lat="45.496115" lon="10.4269183"><ele>157.0</ele><time>2026-03-29T07:49:56.417Z</time></trkpt><trkpt lat="45.4960117" lon="10.4270317"><ele>157.0</ele><time>2026-03-29T07:49:57.417Z</time></trkpt><trkpt lat="45.49591" lon="10.427155"><ele>157.0</ele><time>2026-03-29T07:49:58.417Z</time></trkpt><trkpt lat="45.4958167" lon="10.42728"><ele>157.0</ele><time>2026-03-29T07:49:59.417Z</time></trkpt><trkpt lat="45.4957117" lon="10.4274033"><ele>157.0</ele><time>2026-03-29T07:50:00.417Z</time></trkpt><trkpt lat="45.495595" lon="10.4275133"><ele>157.0</ele><time>2026-03-29T07:50:01.417Z</time></trkpt><trkpt lat="45.49547" lon="10.4276283"><ele>157.0</ele><time>2026-03-29T07:50:02.418Z</time></trkpt><trkpt lat="45.4953483" lon="10.4277367"><ele>156.75</ele><time>2026-03-29T07:50:03.417Z</time></trkpt><trkpt lat="45.4952267" lon="10.4278417"><ele>156.5</ele><time>2026-03-29T07:50:04.417Z</time></trkpt><trkpt lat="45.4951" lon="10.42795"><ele>156.25</ele><time>2026-03-29T07:50:05.418Z</time></trkpt><trkpt lat="45.4949717" lon="10.4280617"><ele>156.0</ele><time>2026-03-29T07:50:06.417Z</time></trkpt><trkpt lat="45.4948367" lon="10.428175"><ele>155.66666666666666</ele><time>2026-03-29T07:50:07.417Z</time></trkpt><trkpt lat="45.4947033" lon="10.4282917"><ele>155.33333333333331</ele><time>2026-03-29T07:50:08.417Z</time></trkpt><trkpt lat="45.4945717" lon="10.4284133"><ele>155.0</ele><time>2026-03-29T07:50:09.417Z</time></trkpt><trkpt lat="45.4944433" lon="10.428535"><ele>155.0</ele><time>2026-03-29T07:50:10.417Z</time></trkpt><trkpt lat="45.4943233" lon="10.4286467"><ele>155.0</ele><time>2026-03-29T07:50:11.417Z</time></trkpt><trkpt lat="45.4941883" lon="10.4287683"><ele>155.0</ele><time>2026-03-29T07:50:12.417Z</time></trkpt><trkpt lat="45.4940617" lon="10.428895"><ele>155.25</ele><time>2026-03-29T07:50:13.417Z</time></trkpt><trkpt lat="45.4939367" lon="10.42902"><ele>155.5</ele><time>2026-03-29T07:50:14.418Z</time></trkpt><trkpt lat="45.4938167" lon="10.429135"><ele>155.75</ele><time>2026-03-29T07:50:15.417Z</time></trkpt><trkpt lat="45.4937017" lon="10.42924"><ele>156.0</ele><time>2026-03-29T07:50:16.418Z</time></trkpt><trkpt lat="45.4935983" lon="10.42933"><ele>155.6</ele><time>2026-03-29T07:50:17.417Z</time></trkpt><trkpt lat="45.4935117" lon="10.429415"><ele>155.2</ele><time>2026-03-29T07:50:18.417Z</time></trkpt><trkpt lat="45.49343" lon="10.4295083"><ele>154.8</ele><time>2026-03-29T07:50:19.417Z</time></trkpt><trkpt lat="45.4933583" lon="10.42959"><ele>154.4</ele><time>2026-03-29T07:50:20.417Z</time></trkpt><trkpt lat="45.4932917" lon="10.4296617"><ele>154.0</ele><time>2026-03-29T07:50:21.417Z</time></trkpt><trkpt lat="45.4932233" lon="10.4297167"><ele>154.0</ele><time>2026-03-29T07:50:22.417Z</time></trkpt><trkpt lat="45.4931533" lon="10.4297467"><ele>154.0</ele><time>2026-03-29T07:50:23.417Z</time></trkpt><trkpt lat="45.4930767" lon="10.4297533"><ele>154.0</ele><time>2026-03-29T07:50:24.417Z</time></trkpt><trkpt lat="45.49299" lon="10.429715"><ele>154.0</ele><time>2026-03-29T07:50:25.417Z</time></trkpt><trkpt lat="45.492895" lon="10.429635"><ele>154.0</ele><time>2026-03-29T07:50:26.417Z</time></trkpt><trkpt lat="45.4927967" lon="10.42954"><ele>154.0</ele><time>2026-03-29T07:50:27.417Z</time></trkpt><trkpt lat="45.4926933" lon="10.4294317"><ele>154.0</ele><time>2026-03-29T07:50:28.417Z</time></trkpt><trkpt lat="45.4925767" lon="10.429345"><ele>154.0</ele><time>2026-03-29T07:50:29.418Z</time></trkpt><trkpt lat="45.4924617" lon="10.429285"><ele>154.0</ele><time>2026-03-29T07:50:30.418Z</time></trkpt><trkpt lat="45.4923333" lon="10.4292567"><ele>154.0</ele><time>2026-03-29T07:50:31.417Z</time></trkpt><trkpt lat="45.4922" lon="10.429255"><ele>154.0</ele><time>2026-03-29T07:50:32.417Z</time></trkpt><trkpt lat="45.4920717" lon="10.4292567"><ele>154.0</ele><time>2026-03-29T07:50:33.417Z</time></trkpt><trkpt lat="45.4919417" lon="10.4292633"><ele>154.0</ele><time>2026-03-29T07:50:34.417Z</time></trkpt><trkpt lat="45.4917983" lon="10.42927"><ele>153.75</ele><time>2026-03-29T07:50:35.417Z</time></trkpt><trkpt lat="45.49166" lon="10.4292683"><ele>153.5</ele><time>2026-03-29T07:50:36.417Z</time></trkpt><trkpt lat="45.4915317" lon="10.42926"><ele>153.25</ele><time>2026-03-29T07:50:37.417Z</time></trkpt><trkpt lat="45.491395" lon="10.4292517"><ele>153.0</ele><time>2026-03-29T07:50:38.417Z</time></trkpt><trkpt lat="45.49126" lon="10.4292333"><ele>153.4</ele><time>2026-03-29T07:50:39.417Z</time></trkpt><trkpt lat="45.4911317" lon="10.4292067"><ele>153.8</ele><time>2026-03-29T07:50:40.418Z</time></trkpt><trkpt lat="45.49102" lon="10.4292017"><ele>154.2</ele><time>2026-03-29T07:50:41.418Z</time></trkpt><trkpt lat="45.4909267" lon="10.4292083"><ele>154.6</ele><time>2026-03-29T07:50:42.417Z</time></trkpt><trkpt lat="45.4908567" lon="10.4292633"><ele>155.0</ele><time>2026-03-29T07:50:43.417Z</time></trkpt><trkpt lat="45.490805" lon="10.42937"><ele>155.0</ele><time>2026-03-29T07:50:44.417Z</time></trkpt><trkpt lat="45.4907767" lon="10.42951"><ele>155.0</ele><time>2026-03-29T07:50:45.418Z</time></trkpt><trkpt lat="45.4907633" lon="10.4296683"><ele>155.0</ele><time>2026-03-29T07:50:46.418Z</time></trkpt><trkpt lat="45.49074" lon="10.42984"><ele>155.0</ele><time>2026-03-29T07:50:47.417Z</time></trkpt><trkpt lat="45.49072" lon="10.4300183"><ele>154.75</ele><time>2026-03-29T07:50:48.417Z</time></trkpt><trkpt lat="45.4906933" lon="10.4302"><ele>154.5</ele><time>2026-03-29T07:50:49.417Z</time></trkpt><trkpt lat="45.490665" lon="10.43038"><ele>154.25</ele><time>2026-03-29T07:50:50.418Z</time></trkpt><trkpt lat="45.4906317" lon="10.4305683"><ele>154.0</ele><time>2026-03-29T07:50:51.417Z</time></trkpt><trkpt lat="45.4906" lon="10.43075"><ele>153.5</ele><time>2026-03-29T07:50:52.417Z</time></trkpt><trkpt lat="45.4905683" lon="10.4309283"><ele>153.0</ele><time>2026-03-29T07:50:53.417Z</time></trkpt><trkpt lat="45.49054" lon="10.431095"><ele>152.5</ele><time>2026-03-29T07:50:54.418Z</time></trkpt><trkpt lat="45.490515" lon="10.4312317"><ele>152.0</ele><time>2026-03-29T07:50:55.417Z</time></trkpt><trkpt lat="45.4904517" lon="10.431355"><ele>151.75</ele><time>2026-03-29T07:50:56.417Z</time></trkpt><trkpt lat="45.490355" lon="10.4314533"><ele>151.5</ele><time>2026-03-29T07:50:57.417Z</time></trkpt><trkpt lat="45.490245" lon="10.4315033"><ele>151.25</ele><time>2026-03-29T07:50:58.417Z</time></trkpt><trkpt lat="45.4901233" lon="10.43155"><ele>151.0</ele><time>2026-03-29T07:50:59.418Z</time></trkpt><trkpt lat="45.4899983" lon="10.4315967"><ele>151.0</ele><time>2026-03-29T07:51:00.417Z</time></trkpt><trkpt lat="45.4898617" lon="10.4316567"><ele>151.0</ele><time>2026-03-29T07:51:01.417Z</time></trkpt><trkpt lat="45.4897183" lon="10.43171"><ele>151.0</ele><time>2026-03-29T07:51:02.417Z</time></trkpt><trkpt lat="45.489565" lon="10.43174"><ele>151.0</ele><time>2026-03-29T07:51:03.418Z</time></trkpt><trkpt lat="45.489395" lon="10.4317617"><ele>150.66666666666669</ele><time>2026-03-29T07:51:04.417Z</time></trkpt><trkpt lat="45.4892217" lon="10.4317783"><ele>150.33333333333334</ele><time>2026-03-29T07:51:05.418Z</time></trkpt><trkpt lat="45.4890367" lon="10.4317867"><ele>150.0</ele><time>2026-03-29T07:51:06.417Z</time></trkpt><trkpt lat="45.4888467" lon="10.4318117"><ele>150.0</ele><time>2026-03-29T07:51:07.417Z</time></trkpt><trkpt lat="45.4886617" lon="10.43186"><ele>150.0</ele><time>2026-03-29T07:51:08.417Z</time></trkpt><trkpt lat="45.4884733" lon="10.4319267"><ele>150.0</ele><time>2026-03-29T07:51:09.417Z</time></trkpt><trkpt lat="45.4882717" lon="10.4320233"><ele>150.0</ele><time>2026-03-29T07:51:10.417Z</time></trkpt><trkpt lat="45.4880733" lon="10.4321217"><ele>150.0</ele><time>2026-03-29T07:51:11.418Z</time></trkpt><trkpt lat="45.4878767" lon="10.4322167"><ele>150.0</ele><time>2026-03-29T07:51:12.417Z</time></trkpt><trkpt lat="45.4876883" lon="10.43231"><ele>150.33333333333334</ele><time>2026-03-29T07:51:13.417Z</time></trkpt><trkpt lat="45.4875033" lon="10.4324033"><ele>150.66666666666669</ele><time>2026-03-29T07:51:14.417Z</time></trkpt><trkpt lat="45.487325" lon="10.4324867"><ele>151.0</ele><time>2026-03-29T07:51:15.417Z</time></trkpt><trkpt lat="45.4871467" lon="10.4325683"><ele>151.0</ele><time>2026-03-29T07:51:16.418Z</time></trkpt><trkpt lat="45.4869667" lon="10.4326467"><ele>151.0</ele><time>2026-03-29T07:51:17.417Z</time></trkpt><trkpt lat="45.4867767" lon="10.432705"><ele>151.0</ele><time>2026-03-29T07:51:18.417Z</time></trkpt><trkpt lat="45.4865817" lon="10.4327483"><ele>151.0</ele><time>2026-03-29T07:51:19.417Z</time></trkpt><trkpt lat="45.48639" lon="10.432805"><ele>151.0</ele><time>2026-03-29T07:51:20.417Z</time></trkpt><trkpt lat="45.4861983" lon="10.4328583"><ele>151.0</ele><time>2026-03-29T07:51:21.417Z</time></trkpt><trkpt lat="45.4860267" lon="10.432875"><ele>150.33333333333334</ele><time>2026-03-29T07:51:22.418Z</time></trkpt><trkpt lat="45.4858617" lon="10.43285"><ele>149.66666666666666</ele><time>2026-03-29T07:51:23.418Z</time></trkpt><trkpt lat="45.4857133" lon="10.4327733"><ele>149.0</ele><time>2026-03-29T07:51:24.418Z</time></trkpt><trkpt lat="45.48556" lon="10.4326633"><ele>149.0</ele><time>2026-03-29T07:51:25.417Z</time></trkpt><trkpt lat="45.4854033" lon="10.4325483"><ele>149.0</ele><time>2026-03-29T07:51:26.418Z</time></trkpt><trkpt lat="45.4852417" lon="10.43243"><ele>149.0</ele><time>2026-03-29T07:51:27.418Z</time></trkpt><trkpt lat="45.485065" lon="10.4323333"><ele>149.0</ele><time>2026-03-29T07:51:28.417Z</time></trkpt><trkpt lat="45.4848867" lon="10.4322467"><ele>149.0</ele><time>2026-03-29T07:51:29.418Z</time></trkpt><trkpt lat="45.4847017" lon="10.432165"><ele>149.0</ele><time>2026-03-29T07:51:30.417Z</time></trkpt><trkpt lat="45.4845133" lon="10.4321083"><ele>148.66666666666666</ele><time>2026-03-29T07:51:31.418Z</time></trkpt><trkpt lat="45.4843167" lon="10.43205"><ele>148.33333333333334</ele><time>2026-03-29T07:51:32.417Z</time></trkpt><trkpt lat="45.48412" lon="10.4319767"><ele>148.0</ele><time>2026-03-29T07:51:33.417Z</time></trkpt><trkpt lat="45.4839267" lon="10.4318933"><ele>147.0</ele><time>2026-03-29T07:51:34.417Z</time></trkpt><trkpt lat="45.4837283" lon="10.431815"><ele>146.0</ele><time>2026-03-29T07:51:35.417Z</time></trkpt><trkpt lat="45.4835267" lon="10.4317383"><ele>145.0</ele><time>2026-03-29T07:51:36.418Z</time></trkpt><trkpt lat="45.4833233" lon="10.4316617"><ele>145.0</ele><time>2026-03-29T07:51:37.417Z</time></trkpt><trkpt lat="45.4831233" lon="10.431595"><ele>145.0</ele><time>2026-03-29T07:51:38.417Z</time></trkpt><trkpt lat="45.4829117" lon="10.4315383"><ele>145.0</ele><time>2026-03-29T07:51:39.417Z</time></trkpt><trkpt lat="45.4827033" lon="10.4314833"><ele>145.0</ele><time>2026-03-29T07:51:40.417Z</time></trkpt><trkpt lat="45.4824933" lon="10.4314433"><ele>145.0</ele><time>2026-03-29T07:51:41.417Z</time></trkpt><trkpt lat="45.4822733" lon="10.4314067"><ele>145.0</ele><time>2026-03-29T07:51:42.417Z</time></trkpt><trkpt lat="45.482065" lon="10.43138"><ele>145.0</ele><time>2026-03-29T07:51:43.418Z</time></trkpt><trkpt lat="45.48185" lon="10.4313633"><ele>145.0</ele><time>2026-03-29T07:51:44.417Z</time></trkpt><trkpt lat="45.4816333" lon="10.4313667"><ele>145.0</ele><time>2026-03-29T07:51:45.417Z</time></trkpt><trkpt lat="45.4814317" lon="10.431415"><ele>144.66666666666669</ele><time>2026-03-29T07:51:46.417Z</time></trkpt><trkpt lat="45.4812467" lon="10.4314617"><ele>144.33333333333334</ele><time>2026-03-29T07:51:47.417Z</time></trkpt><trkpt lat="45.4810733" lon="10.4314767"><ele>144.0</ele><time>2026-03-29T07:51:48.418Z</time></trkpt><trkpt lat="45.480905" lon="10.43149"><ele>144.0</ele><time>2026-03-29T07:51:49.417Z</time></trkpt><trkpt lat="45.48075" lon="10.4314333"><ele>144.0</ele><time>2026-03-29T07:51:50.417Z</time></trkpt><trkpt lat="45.4806033" lon="10.431335"><ele>144.0</ele><time>2026-03-29T07:51:51.417Z</time></trkpt><trkpt lat="45.4804517" lon="10.4312217"><ele>143.66666666666666</ele><time>2026-03-29T07:51:52.417Z</time></trkpt><trkpt lat="45.48029" lon="10.4311033"><ele>143.33333333333331</ele><time>2026-03-29T07:51:53.417Z</time></trkpt><trkpt lat="45.48014" lon="10.4309833"><ele>143.0</ele><time>2026-03-29T07:51:54.417Z</time></trkpt><trkpt lat="45.4799767" lon="10.4308617"><ele>143.0</ele><time>2026-03-29T07:51:55.417Z</time></trkpt><trkpt lat="45.4798217" lon="10.430745"><ele>143.0</ele><time>2026-03-29T07:51:56.418Z</time></trkpt><trkpt lat="45.4796617" lon="10.4306383"><ele>143.0</ele><time>2026-03-29T07:51:57.417Z</time></trkpt><trkpt lat="45.479505" lon="10.4305633"><ele>142.66666666666666</ele><time>2026-03-29T07:51:58.418Z</time></trkpt><trkpt lat="45.47934" lon="10.430495"><ele>142.33333333333334</ele><time>2026-03-29T07:51:59.417Z</time></trkpt><trkpt lat="45.479175" lon="10.4304383"><ele>142.0</ele><time>2026-03-29T07:52:00.417Z</time></trkpt><trkpt lat="45.4790167" lon="10.4303933"><ele>141.66666666666669</ele><time>2026-03-29T07:52:01.417Z</time></trkpt><trkpt lat="45.4788517" lon="10.4303467"><ele>141.33333333333334</ele><time>2026-03-29T07:52:02.417Z</time></trkpt><trkpt lat="45.4786933" lon="10.430295"><ele>141.0</ele><time>2026-03-29T07:52:03.417Z</time></trkpt><trkpt lat="45.4785367" lon="10.4302267"><ele>141.0</ele><time>2026-03-29T07:52:04.417Z</time></trkpt><trkpt lat="45.4783667" lon="10.4301717"><ele>141.0</ele><time>2026-03-29T07:52:05.417Z</time></trkpt><trkpt lat="45.4782" lon="10.43011"><ele>141.0</ele><time>2026-03-29T07:52:06.417Z</time></trkpt><trkpt lat="45.4780283" lon="10.4300683"><ele>140.66666666666666</ele><time>2026-03-29T07:52:07.417Z</time></trkpt><trkpt lat="45.4778467" lon="10.4300283"><ele>140.33333333333331</ele><time>2026-03-29T07:52:08.417Z</time></trkpt><trkpt lat="45.47767" lon="10.429995"><ele>140.0</ele><time>2026-03-29T07:52:09.417Z</time></trkpt><trkpt lat="45.4775083" lon="10.429965"><ele>140.0</ele><time>2026-03-29T07:52:10.417Z</time></trkpt><trkpt lat="45.47736" lon="10.429955"><ele>140.0</ele><time>2026-03-29T07:52:11.417Z</time></trkpt><trkpt lat="45.4772467" lon="10.429965"><ele>140.0</ele><time>2026-03-29T07:52:12.417Z</time></trkpt><trkpt lat="45.4771733" lon="10.4300083"><ele>140.0</ele><time>2026-03-29T07:52:13.417Z</time></trkpt><trkpt lat="45.4771217" lon="10.4301117"><ele>140.0</ele><time>2026-03-29T07:52:14.417Z</time></trkpt><trkpt lat="45.4770733" lon="10.43023"><ele>139.75</ele><time>2026-03-29T07:52:15.417Z</time></trkpt><trkpt lat="45.4770483" lon="10.4303783"><ele>139.5</ele><time>2026-03-29T07:52:16.418Z</time></trkpt><trkpt lat="45.4770217" lon="10.430535"><ele>139.25</ele><time>2026-03-29T07:52:17.417Z</time></trkpt><trkpt lat="45.4769817" lon="10.430705"><ele>139.0</ele><time>2026-03-29T07:52:18.417Z</time></trkpt><trkpt lat="45.47692" lon="10.4308467"><ele>139.0</ele><time>2026-03-29T07:52:19.417Z</time></trkpt><trkpt lat="45.4768467" lon="10.4309433"><ele>139.0</ele><time>2026-03-29T07:52:20.417Z</time></trkpt><trkpt lat="45.476755" lon="10.4309683"><ele>139.0</ele><time>2026-03-29T07:52:21.417Z</time></trkpt><trkpt lat="45.4766533" lon="10.430955"><ele>139.0</ele><time>2026-03-29T07:52:22.417Z</time></trkpt><trkpt lat="45.4765417" lon="10.4308967"><ele>139.0</ele><time>2026-03-29T07:52:23.417Z</time></trkpt><trkpt lat="45.4764117" lon="10.430835"><ele>139.0</ele><time>2026-03-29T07:52:24.417Z</time></trkpt><trkpt lat="45.4762833" lon="10.4307733"><ele>139.0</ele><time>2026-03-29T07:52:25.417Z</time></trkpt><trkpt lat="45.476145" lon="10.4307217"><ele>139.0</ele><time>2026-03-29T07:52:26.417Z</time></trkpt><trkpt lat="45.4760017" lon="10.4306517"><ele>139.0</ele><time>2026-03-29T07:52:27.418Z</time></trkpt><trkpt lat="45.4758533" lon="10.4305833"><ele>139.0</ele><time>2026-03-29T07:52:28.417Z</time></trkpt><trkpt lat="45.4756983" lon="10.4305083"><ele>139.0</ele><time>2026-03-29T07:52:29.417Z</time></trkpt><trkpt lat="45.47554" lon="10.4304233"><ele>139.0</ele><time>2026-03-29T07:52:30.418Z</time></trkpt><trkpt lat="45.4753767" lon="10.4303283"><ele>139.0</ele><time>2026-03-29T07:52:31.417Z</time></trkpt><trkpt lat="45.4752117" lon="10.4302233"><ele>139.0</ele><time>2026-03-29T07:52:32.417Z</time></trkpt><trkpt lat="45.4750383" lon="10.4301317"><ele>139.0</ele><time>2026-03-29T07:52:33.417Z</time></trkpt><trkpt lat="45.4748567" lon="10.430035"><ele>139.0</ele><time>2026-03-29T07:52:34.418Z</time></trkpt><trkpt lat="45.4746767" lon="10.4299367"><ele>139.0</ele><time>2026-03-29T07:52:35.418Z</time></trkpt><trkpt lat="45.474505" lon="10.4298383"><ele>139.0</ele><time>2026-03-29T07:52:36.417Z</time></trkpt><trkpt lat="45.4743417" lon="10.4297433"><ele>138.75</ele><time>2026-03-29T07:52:37.417Z</time></trkpt><trkpt lat="45.4741717" lon="10.4296817"><ele>138.5</ele><time>2026-03-29T07:52:38.417Z</time></trkpt><trkpt lat="45.474035" lon="10.4296217"><ele>138.25</ele><time>2026-03-29T07:52:39.418Z</time></trkpt><trkpt lat="45.473925" lon="10.429565"><ele>138.0</ele><time>2026-03-29T07:52:40.417Z</time></trkpt><trkpt lat="45.4738317" lon="10.429525"><ele>137.8</ele><time>2026-03-29T07:52:41.418Z</time></trkpt><trkpt lat="45.4737583" lon="10.4294967"><ele>137.60000000000002</ele><time>2026-03-29T07:52:42.417Z</time></trkpt><trkpt lat="45.4736683" lon="10.42946"><ele>137.39999999999998</ele><time>2026-03-29T07:52:44.418Z</time></trkpt><trkpt lat="45.4735783" lon="10.4295083"><ele>137.2</ele><time>2026-03-29T07:52:47.418Z</time></trkpt><trkpt lat="45.473545" lon="10.42971"><ele>137.0</ele><time>2026-03-29T07:52:49.418Z</time></trkpt><trkpt lat="45.4735433" lon="10.42985"><ele>137.0</ele><time>2026-03-29T07:52:50.418Z</time></trkpt><trkpt lat="45.4735267" lon="10.43001"><ele>137.0</ele><time>2026-03-29T07:52:51.417Z</time></trkpt><trkpt lat="45.473505" lon="10.430185"><ele>137.0</ele><time>2026-03-29T07:52:52.417Z</time></trkpt><trkpt lat="45.4734733" lon="10.43037"><ele>137.0</ele><time>2026-03-29T07:52:53.417Z</time></trkpt><trkpt lat="45.4734383" lon="10.43056"><ele>137.0</ele><time>2026-03-29T07:52:54.418Z</time></trkpt><trkpt lat="45.4734" lon="10.4307483"><ele>137.0</ele><time>2026-03-29T07:52:55.417Z</time></trkpt><trkpt lat="45.4733517" lon="10.4309417"><ele>137.0</ele><time>2026-03-29T07:52:56.417Z</time></trkpt><trkpt lat="45.4732967" lon="10.4311383"><ele>137.0</ele><time>2026-03-29T07:52:57.417Z</time></trkpt><trkpt lat="45.47324" lon="10.4313433"><ele>137.66666666666666</ele><time>2026-03-29T07:52:58.417Z</time></trkpt><trkpt lat="45.4731817" lon="10.4315533"><ele>138.33333333333334</ele><time>2026-03-29T07:52:59.417Z</time></trkpt><trkpt lat="45.4731233" lon="10.43179"><ele>139.0</ele><time>2026-03-29T07:53:00.417Z</time></trkpt><trkpt lat="45.4730633" lon="10.4320133"><ele>139.0</ele><time>2026-03-29T07:53:01.417Z</time></trkpt><trkpt lat="45.4730033" lon="10.43224"><ele>139.0</ele><time>2026-03-29T07:53:02.417Z</time></trkpt><trkpt lat="45.47294" lon="10.4324683"><ele>139.0</ele><time>2026-03-29T07:53:03.417Z</time></trkpt><trkpt lat="45.4728833" lon="10.4326933"><ele>139.0</ele><time>2026-03-29T07:53:04.417Z</time></trkpt><trkpt lat="45.472825" lon="10.432925"><ele>139.0</ele><time>2026-03-29T07:53:05.417Z</time></trkpt><trkpt lat="45.4727617" lon="10.43316"><ele>139.0</ele><time>2026-03-29T07:53:06.417Z</time></trkpt><trkpt lat="45.4727" lon="10.43339"><ele>139.33333333333334</ele><time>2026-03-29T07:53:07.417Z</time></trkpt><trkpt lat="45.47264" lon="10.4336033"><ele>139.66666666666666</ele><time>2026-03-29T07:53:08.417Z</time></trkpt><trkpt lat="45.4725867" lon="10.4338"><ele>140.0</ele><time>2026-03-29T07:53:09.417Z</time></trkpt><trkpt lat="45.472535" lon="10.4339883"><ele>139.6</ele><time>2026-03-29T07:53:10.417Z</time></trkpt><trkpt lat="45.4724883" lon="10.43416"><ele>139.2</ele><time>2026-03-29T07:53:11.417Z</time></trkpt><trkpt lat="45.4724533" lon="10.4343083"><ele>138.8</ele><time>2026-03-29T07:53:12.417Z</time></trkpt><trkpt lat="45.4724217" lon="10.434445"><ele>138.4</ele><time>2026-03-29T07:53:13.417Z</time></trkpt><trkpt lat="45.4723967" lon="10.4345683"><ele>138.0</ele><time>2026-03-29T07:53:14.417Z</time></trkpt><trkpt lat="45.47237" lon="10.43468"><ele>137.83333333333334</ele><time>2026-03-29T07:53:15.417Z</time></trkpt><trkpt lat="45.4723417" lon="10.4347617"><ele>137.66666666666666</ele><time>2026-03-29T07:53:16.417Z</time></trkpt><trkpt lat="45.4722733" lon="10.4349"><ele>137.5</ele><time>2026-03-29T07:53:18.418Z</time></trkpt><trkpt lat="45.4722267" lon="10.4349733"><ele>137.33333333333331</ele><time>2026-03-29T07:53:19.417Z</time></trkpt><trkpt lat="45.4721833" lon="10.435065"><ele>137.16666666666666</ele><time>2026-03-29T07:53:20.418Z</time></trkpt><trkpt lat="45.4721583" lon="10.435195"><ele>137.0</ele><time>2026-03-29T07:53:21.417Z</time></trkpt><trkpt lat="45.4721517" lon="10.4353483"><ele>137.25</ele><time>2026-03-29T07:53:22.417Z</time></trkpt><trkpt lat="45.4721483" lon="10.435525"><ele>137.5</ele><time>2026-03-29T07:53:23.418Z</time></trkpt><trkpt lat="45.4721317" lon="10.4356983"><ele>137.75</ele><time>2026-03-29T07:53:24.417Z</time></trkpt><trkpt lat="45.4720933" lon="10.4358733"><ele>138.0</ele><time>2026-03-29T07:53:25.417Z</time></trkpt><trkpt lat="45.472035" lon="10.436045"><ele>138.33333333333334</ele><time>2026-03-29T07:53:26.417Z</time></trkpt><trkpt lat="45.471975" lon="10.43623"><ele>138.66666666666669</ele><time>2026-03-29T07:53:27.417Z</time></trkpt><trkpt lat="45.4719" lon="10.4364217"><ele>139.0</ele><time>2026-03-29T07:53:28.418Z</time></trkpt><trkpt lat="45.4718267" lon="10.4366283"><ele>139.0</ele><time>2026-03-29T07:53:29.417Z</time></trkpt><trkpt lat="45.4717583" lon="10.4368483"><ele>139.0</ele><time>2026-03-29T07:53:30.417Z</time></trkpt><trkpt lat="45.4716867" lon="10.4370767"><ele>139.0</ele><time>2026-03-29T07:53:31.418Z</time></trkpt><trkpt lat="45.4716167" lon="10.4373067"><ele>138.66666666666669</ele><time>2026-03-29T07:53:32.417Z</time></trkpt><trkpt lat="45.47155" lon="10.4375483"><ele>138.33333333333334</ele><time>2026-03-29T07:53:33.417Z</time></trkpt><trkpt lat="45.4714717" lon="10.4377967"><ele>138.0</ele><time>2026-03-29T07:53:34.417Z</time></trkpt><trkpt lat="45.471385" lon="10.438055"><ele>138.0</ele><time>2026-03-29T07:53:35.417Z</time></trkpt><trkpt lat="45.4713083" lon="10.4383333"><ele>138.0</ele><time>2026-03-29T07:53:36.418Z</time></trkpt><trkpt lat="45.4712417" lon="10.4385983"><ele>138.0</ele><time>2026-03-29T07:53:37.417Z</time></trkpt><trkpt lat="45.4711767" lon="10.4388383"><ele>138.0</ele><time>2026-03-29T07:53:38.418Z</time></trkpt><trkpt lat="45.4711167" lon="10.4390617"><ele>138.0</ele><time>2026-03-29T07:53:39.417Z</time></trkpt><trkpt lat="45.4710583" lon="10.439275"><ele>138.0</ele><time>2026-03-29T07:53:40.417Z</time></trkpt><trkpt lat="45.47101" lon="10.439485"><ele>138.25</ele><time>2026-03-29T07:53:41.418Z</time></trkpt><trkpt lat="45.4709683" lon="10.4396883"><ele>138.5</ele><time>2026-03-29T07:53:42.417Z</time></trkpt><trkpt lat="45.4709417" lon="10.4398733"><ele>138.75</ele><time>2026-03-29T07:53:43.417Z</time></trkpt><trkpt lat="45.4709183" lon="10.4400367"><ele>139.0</ele><time>2026-03-29T07:53:44.417Z</time></trkpt><trkpt lat="45.4708933" lon="10.44016"><ele>139.0</ele><time>2026-03-29T07:53:45.417Z</time></trkpt><trkpt lat="45.4708467" lon="10.4402567"><ele>139.0</ele><time>2026-03-29T07:53:46.418Z</time></trkpt><trkpt lat="45.4707933" lon="10.4403283"><ele>139.0</ele><time>2026-03-29T07:53:47.417Z</time></trkpt><trkpt lat="45.4707183" lon="10.4403667"><ele>139.0</ele><time>2026-03-29T07:53:48.417Z</time></trkpt><trkpt lat="45.4706217" lon="10.440365"><ele>139.0</ele><time>2026-03-29T07:53:49.418Z</time></trkpt><trkpt lat="45.4705033" lon="10.4403433"><ele>139.25</ele><time>2026-03-29T07:53:50.417Z</time></trkpt><trkpt lat="45.47038" lon="10.44033"><ele>139.5</ele><time>2026-03-29T07:53:51.417Z</time></trkpt><trkpt lat="45.47025" lon="10.440315"><ele>139.75</ele><time>2026-03-29T07:53:52.418Z</time></trkpt><trkpt lat="45.47011" lon="10.440315"><ele>140.0</ele><time>2026-03-29T07:53:53.417Z</time></trkpt><trkpt lat="45.4699683" lon="10.44033"><ele>140.0</ele><time>2026-03-29T07:53:54.417Z</time></trkpt><trkpt lat="45.4698267" lon="10.4403483"><ele>140.0</ele><time>2026-03-29T07:53:55.418Z</time></trkpt><trkpt lat="45.46968" lon="10.4403583"><ele>140.0</ele><time>2026-03-29T07:53:56.417Z</time></trkpt><trkpt lat="45.469535" lon="10.440395"><ele>140.0</ele><time>2026-03-29T07:53:57.417Z</time></trkpt><trkpt lat="45.4693933" lon="10.4404283"><ele>139.5</ele><time>2026-03-29T07:53:58.417Z</time></trkpt><trkpt lat="45.4692633" lon="10.440475"><ele>139.0</ele><time>2026-03-29T07:53:59.417Z</time></trkpt><trkpt lat="45.4691467" lon="10.4405067"><ele>138.5</ele><time>2026-03-29T07:54:00.417Z</time></trkpt><trkpt lat="45.4690383" lon="10.440545"><ele>138.0</ele><time>2026-03-29T07:54:01.418Z</time></trkpt><trkpt lat="45.4689267" lon="10.4405833"><ele>138.0</ele><time>2026-03-29T07:54:02.417Z</time></trkpt><trkpt lat="45.4688133" lon="10.4406167"><ele>138.0</ele><time>2026-03-29T07:54:03.417Z</time></trkpt><trkpt lat="45.4687033" lon="10.4406433"><ele>138.0</ele><time>2026-03-29T07:54:04.417Z</time></trkpt><trkpt lat="45.4685917" lon="10.4406617"><ele>138.0</ele><time>2026-03-29T07:54:05.417Z</time></trkpt><trkpt lat="45.4684717" lon="10.4406883"><ele>138.16666666666666</ele><time>2026-03-29T07:54:06.418Z</time></trkpt><trkpt lat="45.4683717" lon="10.4407067"><ele>138.33333333333334</ele><time>2026-03-29T07:54:07.418Z</time></trkpt><trkpt lat="45.46828" lon="10.4407233"><ele>138.5</ele><time>2026-03-29T07:54:08.417Z</time></trkpt><trkpt lat="45.4681967" lon="10.4406967"><ele>138.66666666666669</ele><time>2026-03-29T07:54:09.418Z</time></trkpt><trkpt lat="45.4681183" lon="10.4406733"><ele>138.83333333333334</ele><time>2026-03-29T07:54:10.417Z</time></trkpt><trkpt lat="45.4680317" lon="10.44064"><ele>139.0</ele><time>2026-03-29T07:54:11.417Z</time></trkpt><trkpt lat="45.4679167" lon="10.440645"><ele>139.0</ele><time>2026-03-29T07:54:12.417Z</time></trkpt><trkpt lat="45.4677917" lon="10.4406783"><ele>139.0</ele><time>2026-03-29T07:54:13.417Z</time></trkpt><trkpt lat="45.4676633" lon="10.440695"><ele>139.0</ele><time>2026-03-29T07:54:14.417Z</time></trkpt><trkpt lat="45.4675183" lon="10.4407083"><ele>139.0</ele><time>2026-03-29T07:54:15.418Z</time></trkpt><trkpt lat="45.4673783" lon="10.4407183"><ele>139.0</ele><time>2026-03-29T07:54:16.417Z</time></trkpt><trkpt lat="45.4672283" lon="10.4407367"><ele>139.0</ele><time>2026-03-29T07:54:17.418Z</time></trkpt><trkpt lat="45.467055" lon="10.4407567"><ele>139.0</ele><time>2026-03-29T07:54:18.417Z</time></trkpt><trkpt lat="45.4668733" lon="10.440775"><ele>138.0</ele><time>2026-03-29T07:54:19.417Z</time></trkpt><trkpt lat="45.4667033" lon="10.440795"><ele>137.0</ele><time>2026-03-29T07:54:20.418Z</time></trkpt><trkpt lat="45.466525" lon="10.4408167"><ele>136.0</ele><time>2026-03-29T07:54:21.417Z</time></trkpt><trkpt lat="45.4663467" lon="10.4408533"><ele>135.66666666666669</ele><time>2026-03-29T07:54:22.418Z</time></trkpt><trkpt lat="45.4661617" lon="10.44089"><ele>135.33333333333334</ele><time>2026-03-29T07:54:23.417Z</time></trkpt><trkpt lat="45.4659617" lon="10.4409367"><ele>135.0</ele><time>2026-03-29T07:54:24.418Z</time></trkpt><trkpt lat="45.4657633" lon="10.4410017"><ele>135.0</ele><time>2026-03-29T07:54:25.418Z</time></trkpt><trkpt lat="45.4655567" lon="10.4410683"><ele>135.0</ele><time>2026-03-29T07:54:26.417Z</time></trkpt><trkpt lat="45.4653567" lon="10.4411333"><ele>135.0</ele><time>2026-03-29T07:54:27.417Z</time></trkpt><trkpt lat="45.46517" lon="10.4411833"><ele>134.66666666666666</ele><time>2026-03-29T07:54:28.417Z</time></trkpt><trkpt lat="45.4649783" lon="10.4412267"><ele>134.33333333333331</ele><time>2026-03-29T07:54:29.417Z</time></trkpt><trkpt lat="45.4648083" lon="10.44127"><ele>134.0</ele><time>2026-03-29T07:54:30.417Z</time></trkpt><trkpt lat="45.46467" lon="10.4413167"><ele>134.5</ele><time>2026-03-29T07:54:31.418Z</time></trkpt><trkpt lat="45.4645367" lon="10.44136"><ele>135.0</ele><time>2026-03-29T07:54:32.417Z</time></trkpt><trkpt lat="45.464395" lon="10.4413883"><ele>135.5</ele><time>2026-03-29T07:54:33.417Z</time></trkpt><trkpt lat="45.4642467" lon="10.4413933"><ele>136.0</ele><time>2026-03-29T07:54:34.417Z</time></trkpt><trkpt lat="45.4640883" lon="10.44141"><ele>136.0</ele><time>2026-03-29T07:54:35.418Z</time></trkpt><trkpt lat="45.463915" lon="10.4414133"><ele>136.0</ele><time>2026-03-29T07:54:36.418Z</time></trkpt><trkpt lat="45.4637367" lon="10.4414267"><ele>136.0</ele><time>2026-03-29T07:54:37.417Z</time></trkpt><trkpt lat="45.463555" lon="10.4414367"><ele>135.66666666666669</ele><time>2026-03-29T07:54:38.418Z</time></trkpt><trkpt lat="45.4633767" lon="10.4414467"><ele>135.33333333333334</ele><time>2026-03-29T07:54:39.417Z</time></trkpt><trkpt lat="45.4631817" lon="10.44146"><ele>135.0</ele><time>2026-03-29T07:54:40.417Z</time></trkpt><trkpt lat="45.4629717" lon="10.4414833"><ele>134.66666666666666</ele><time>2026-03-29T07:54:41.417Z</time></trkpt><trkpt lat="45.4627633" lon="10.441515"><ele>134.33333333333331</ele><time>2026-03-29T07:54:42.417Z</time></trkpt><trkpt lat="45.4625583" lon="10.441575"><ele>134.0</ele><time>2026-03-29T07:54:43.417Z</time></trkpt><trkpt lat="45.462355" lon="10.441625"><ele>134.0</ele><time>2026-03-29T07:54:44.418Z</time></trkpt><trkpt lat="45.4621567" lon="10.44168"><ele>134.0</ele><time>2026-03-29T07:54:45.417Z</time></trkpt><trkpt lat="45.4619583" lon="10.4417383"><ele>134.0</ele><time>2026-03-29T07:54:46.417Z</time></trkpt><trkpt lat="45.46176" lon="10.4417983"><ele>134.0</ele><time>2026-03-29T07:54:47.417Z</time></trkpt><trkpt lat="45.4615633" lon="10.4418483"><ele>134.0</ele><time>2026-03-29T07:54:48.417Z</time></trkpt><trkpt lat="45.4613667" lon="10.4419033"><ele>134.0</ele><time>2026-03-29T07:54:49.417Z</time></trkpt><trkpt lat="45.4611633" lon="10.4419767"><ele>133.66666666666666</ele><time>2026-03-29T07:54:50.417Z</time></trkpt><trkpt lat="45.4609567" lon="10.4420233"><ele>133.33333333333334</ele><time>2026-03-29T07:54:51.417Z</time></trkpt><trkpt lat="45.4607483" lon="10.442075"><ele>133.0</ele><time>2026-03-29T07:54:52.417Z</time></trkpt><trkpt lat="45.4605333" lon="10.4421567"><ele>133.0</ele><time>2026-03-29T07:54:53.418Z</time></trkpt><trkpt lat="45.4603133" lon="10.442215"><ele>133.0</ele><time>2026-03-29T07:54:54.418Z</time></trkpt><trkpt lat="45.460095" lon="10.442275"><ele>133.0</ele><time>2026-03-29T07:54:55.417Z</time></trkpt><trkpt lat="45.459875" lon="10.44234"><ele>133.0</ele><time>2026-03-29T07:54:56.417Z</time></trkpt><trkpt lat="45.45967" lon="10.4423983"><ele>133.0</ele><time>2026-03-29T07:54:57.417Z</time></trkpt><trkpt lat="45.4594633" lon="10.4424633"><ele>133.0</ele><time>2026-03-29T07:54:58.417Z</time></trkpt><trkpt lat="45.459275" lon="10.44252"><ele>132.33333333333334</ele><time>2026-03-29T07:54:59.417Z</time></trkpt><trkpt lat="45.4590917" lon="10.4425683"><ele>131.66666666666666</ele><time>2026-03-29T07:55:00.417Z</time></trkpt><trkpt lat="45.45894" lon="10.4426133"><ele>131.0</ele><time>2026-03-29T07:55:01.417Z</time></trkpt><trkpt lat="45.4587983" lon="10.44265"><ele>130.6</ele><time>2026-03-29T07:55:02.417Z</time></trkpt><trkpt lat="45.45867" lon="10.4426817"><ele>130.2</ele><time>2026-03-29T07:55:03.417Z</time></trkpt><trkpt lat="45.4585583" lon="10.44273"><ele>129.8</ele><time>2026-03-29T07:55:04.417Z</time></trkpt><trkpt lat="45.4584783" lon="10.4427717"><ele>129.4</ele><time>2026-03-29T07:55:05.417Z</time></trkpt><trkpt lat="45.4584233" lon="10.4428283"><ele>129.0</ele><time>2026-03-29T07:55:06.418Z</time></trkpt><trkpt lat="45.4583817" lon="10.442905"><ele>129.2</ele><time>2026-03-29T07:55:07.418Z</time></trkpt><trkpt lat="45.45837" lon="10.4430133"><ele>129.4</ele><time>2026-03-29T07:55:08.417Z</time></trkpt><trkpt lat="45.4583567" lon="10.44313"><ele>129.6</ele><time>2026-03-29T07:55:09.417Z</time></trkpt><trkpt lat="45.4583183" lon="10.44324"><ele>129.8</ele><time>2026-03-29T07:55:10.418Z</time></trkpt><trkpt lat="45.4582433" lon="10.4433317"><ele>130.0</ele><time>2026-03-29T07:55:11.417Z</time></trkpt><trkpt lat="45.4581417" lon="10.4433833"><ele>130.0</ele><time>2026-03-29T07:55:12.417Z</time></trkpt><trkpt lat="45.4580133" lon="10.4434117"><ele>130.0</ele><time>2026-03-29T07:55:13.417Z</time></trkpt><trkpt lat="45.4578717" lon="10.4434333"><ele>130.0</ele><time>2026-03-29T07:55:14.417Z</time></trkpt><trkpt lat="45.4577233" lon="10.4434517"><ele>130.0</ele><time>2026-03-29T07:55:15.417Z</time></trkpt><trkpt lat="45.45756" lon="10.443465"><ele>130.0</ele><time>2026-03-29T07:55:16.417Z</time></trkpt><trkpt lat="45.45739" lon="10.44349"><ele>130.0</ele><time>2026-03-29T07:55:17.417Z</time></trkpt><trkpt lat="45.4572333" lon="10.4435467"><ele>130.0</ele><time>2026-03-29T07:55:18.417Z</time></trkpt><trkpt lat="45.4570817" lon="10.4435717"><ele>129.66666666666669</ele><time>2026-03-29T07:55:19.418Z</time></trkpt><trkpt lat="45.4569233" lon="10.4435717"><ele>129.33333333333334</ele><time>2026-03-29T07:55:20.417Z</time></trkpt><trkpt lat="45.4567567" lon="10.4435467"><ele>129.0</ele><time>2026-03-29T07:55:21.418Z</time></trkpt><trkpt lat="45.4565867" lon="10.4435117"><ele>129.0</ele><time>2026-03-29T07:55:22.418Z</time></trkpt><trkpt lat="45.456405" lon="10.4434817"><ele>129.0</ele><time>2026-03-29T07:55:23.418Z</time></trkpt><trkpt lat="45.4562167" lon="10.443455"><ele>129.0</ele><time>2026-03-29T07:55:24.418Z</time></trkpt><trkpt lat="45.45605" lon="10.4434283"><ele>129.5</ele><time>2026-03-29T07:55:25.417Z</time></trkpt><trkpt lat="45.4559083" lon="10.4434117"><ele>130.0</ele><time>2026-03-29T07:55:26.417Z</time></trkpt><trkpt lat="45.45578" lon="10.44338"><ele>130.5</ele><time>2026-03-29T07:55:27.417Z</time></trkpt><trkpt lat="45.4556567" lon="10.44336"><ele>131.0</ele><time>2026-03-29T07:55:28.417Z</time></trkpt><trkpt lat="45.4555267" lon="10.4433433"><ele>130.5</ele><time>2026-03-29T07:55:29.417Z</time></trkpt><trkpt lat="45.4553967" lon="10.4433483"><ele>130.0</ele><time>2026-03-29T07:55:30.418Z</time></trkpt><trkpt lat="45.455265" lon="10.4433833"><ele>129.5</ele><time>2026-03-29T07:55:31.418Z</time></trkpt><trkpt lat="45.4551333" lon="10.4434433"><ele>129.0</ele><time>2026-03-29T07:55:32.418Z</time></trkpt><trkpt lat="45.4550017" lon="10.4435183"><ele>129.0</ele><time>2026-03-29T07:55:33.417Z</time></trkpt><trkpt lat="45.4548667" lon="10.4435833"><ele>129.0</ele><time>2026-03-29T07:55:34.417Z</time></trkpt><trkpt lat="45.4547183" lon="10.443655"><ele>129.0</ele><time>2026-03-29T07:55:35.417Z</time></trkpt><trkpt lat="45.4545733" lon="10.4437283"><ele>128.66666666666666</ele><time>2026-03-29T07:55:36.417Z</time></trkpt><trkpt lat="45.45443" lon="10.44379"><ele>128.33333333333331</ele><time>2026-03-29T07:55:37.417Z</time></trkpt><trkpt lat="45.454285" lon="10.4438583"><ele>128.0</ele><time>2026-03-29T07:55:38.417Z</time></trkpt><trkpt lat="45.4541417" lon="10.44391"><ele>128.0</ele><time>2026-03-29T07:55:39.417Z</time></trkpt><trkpt lat="45.4539917" lon="10.44393"><ele>128.0</ele><time>2026-03-29T07:55:40.417Z</time></trkpt><trkpt lat="45.45384" lon="10.4439417"><ele>128.0</ele><time>2026-03-29T07:55:41.417Z</time></trkpt><trkpt lat="45.4536833" lon="10.4439483"><ele>128.0</ele><time>2026-03-29T07:55:42.418Z</time></trkpt><trkpt lat="45.4535167" lon="10.4439683"><ele>128.0</ele><time>2026-03-29T07:55:43.417Z</time></trkpt><trkpt lat="45.4533583" lon="10.4439967"><ele>128.0</ele><time>2026-03-29T07:55:44.418Z</time></trkpt><trkpt lat="45.4532" lon="10.4440233"><ele>128.0</ele><time>2026-03-29T07:55:45.417Z</time></trkpt><trkpt lat="45.4530467" lon="10.4440483"><ele>128.0</ele><time>2026-03-29T07:55:46.417Z</time></trkpt><trkpt lat="45.4528967" lon="10.4440783"><ele>128.0</ele><time>2026-03-29T07:55:47.417Z</time></trkpt><trkpt lat="45.4527367" lon="10.44411"><ele>127.33333333333333</ele><time>2026-03-29T07:55:48.417Z</time></trkpt><trkpt lat="45.452585" lon="10.4441417"><ele>126.66666666666666</ele><time>2026-03-29T07:55:49.417Z</time></trkpt><trkpt lat="45.4524267" lon="10.4441683"><ele>126.0</ele><time>2026-03-29T07:55:50.417Z</time></trkpt><trkpt lat="45.4522683" lon="10.4441917"><ele>126.25</ele><time>2026-03-29T07:55:51.417Z</time></trkpt><trkpt lat="45.4521167" lon="10.444225"><ele>126.5</ele><time>2026-03-29T07:55:52.418Z</time></trkpt><trkpt lat="45.4519717" lon="10.4442567"><ele>126.75</ele><time>2026-03-29T07:55:53.417Z</time></trkpt><trkpt lat="45.451825" lon="10.44429"><ele>127.0</ele><time>2026-03-29T07:55:54.418Z</time></trkpt><trkpt lat="45.45168" lon="10.4443283"><ele>127.0</ele><time>2026-03-29T07:55:55.417Z</time></trkpt><trkpt lat="45.4515267" lon="10.44434"><ele>127.0</ele><time>2026-03-29T07:55:56.418Z</time></trkpt><trkpt lat="45.4513733" lon="10.4443783"><ele>127.0</ele><time>2026-03-29T07:55:57.417Z</time></trkpt><trkpt lat="45.4512267" lon="10.4443933"><ele>126.33333333333334</ele><time>2026-03-29T07:55:58.417Z</time></trkpt><trkpt lat="45.4510733" lon="10.4444133"><ele>125.66666666666666</ele><time>2026-03-29T07:55:59.417Z</time></trkpt><trkpt lat="45.45092" lon="10.4444283"><ele>125.0</ele><time>2026-03-29T07:56:00.417Z</time></trkpt><trkpt lat="45.4507733" lon="10.4444567"><ele>125.0</ele><time>2026-03-29T07:56:01.417Z</time></trkpt><trkpt lat="45.4506267" lon="10.4444933"><ele>125.0</ele><time>2026-03-29T07:56:02.417Z</time></trkpt><trkpt lat="45.450475" lon="10.4445283"><ele>125.0</ele><time>2026-03-29T07:56:03.417Z</time></trkpt><trkpt lat="45.4503233" lon="10.4445467"><ele>124.66666666666666</ele><time>2026-03-29T07:56:04.417Z</time></trkpt><trkpt lat="45.4501683" lon="10.4445733"><ele>124.33333333333334</ele><time>2026-03-29T07:56:05.417Z</time></trkpt><trkpt lat="45.4500217" lon="10.4446067"><ele>124.0</ele><time>2026-03-29T07:56:06.417Z</time></trkpt><trkpt lat="45.4498733" lon="10.4446367"><ele>124.0</ele><time>2026-03-29T07:56:07.417Z</time></trkpt><trkpt lat="45.4497233" lon="10.4446683"><ele>124.0</ele><time>2026-03-29T07:56:08.417Z</time></trkpt><trkpt lat="45.4495683" lon="10.4446933"><ele>124.0</ele><time>2026-03-29T07:56:09.417Z</time></trkpt><trkpt lat="45.449415" lon="10.4447133"><ele>124.33333333333334</ele><time>2026-03-29T07:56:10.417Z</time></trkpt><trkpt lat="45.4492633" lon="10.4447283"><ele>124.66666666666666</ele><time>2026-03-29T07:56:11.417Z</time></trkpt><trkpt lat="45.4491117" lon="10.4447533"><ele>125.0</ele><time>2026-03-29T07:56:12.417Z</time></trkpt><trkpt lat="45.4489667" lon="10.4447883"><ele>125.0</ele><time>2026-03-29T07:56:13.417Z</time></trkpt><trkpt lat="45.448815" lon="10.44482"><ele>125.0</ele><time>2026-03-29T07:56:14.417Z</time></trkpt><trkpt lat="45.4486683" lon="10.4448517"><ele>125.0</ele><time>2026-03-29T07:56:15.417Z</time></trkpt><trkpt lat="45.4485283" lon="10.4448767"><ele>125.0</ele><time>2026-03-29T07:56:16.417Z</time></trkpt><trkpt lat="45.4483717" lon="10.4449017"><ele>124.33333333333333</ele><time>2026-03-29T07:56:17.417Z</time></trkpt><trkpt lat="45.4482167" lon="10.4449367"><ele>123.66666666666666</ele><time>2026-03-29T07:56:18.417Z</time></trkpt><trkpt lat="45.4480667" lon="10.4449567"><ele>123.0</ele><time>2026-03-29T07:56:19.417Z</time></trkpt><trkpt lat="45.4479133" lon="10.4449833"><ele>122.33333333333334</ele><time>2026-03-29T07:56:20.417Z</time></trkpt><trkpt lat="45.4477533" lon="10.4449983"><ele>121.66666666666667</ele><time>2026-03-29T07:56:21.417Z</time></trkpt><trkpt lat="45.44761" lon="10.44503"><ele>121.0</ele><time>2026-03-29T07:56:22.417Z</time></trkpt><trkpt lat="45.4474483" lon="10.44505"><ele>121.0</ele><time>2026-03-29T07:56:23.417Z</time></trkpt><trkpt lat="45.4472917" lon="10.445075"><ele>121.0</ele><time>2026-03-29T07:56:24.417Z</time></trkpt><trkpt lat="45.447145" lon="10.4451033"><ele>121.0</ele><time>2026-03-29T07:56:25.417Z</time></trkpt><trkpt lat="45.4469967" lon="10.4451317"><ele>121.0</ele><time>2026-03-29T07:56:26.417Z</time></trkpt><trkpt lat="45.4468567" lon="10.44515"><ele>121.0</ele><time>2026-03-29T07:56:27.417Z</time></trkpt><trkpt lat="45.4467233" lon="10.4451783"><ele>121.0</ele><time>2026-03-29T07:56:28.417Z</time></trkpt><trkpt lat="45.446605" lon="10.4451983"><ele>121.0</ele><time>2026-03-29T07:56:29.417Z</time></trkpt><trkpt lat="45.4464833" lon="10.4452267"><ele>121.0</ele><time>2026-03-29T07:56:30.417Z</time></trkpt><trkpt lat="45.4463617" lon="10.44524"><ele>121.0</ele><time>2026-03-29T07:56:31.417Z</time></trkpt><trkpt lat="45.4462333" lon="10.4452317"><ele>121.0</ele><time>2026-03-29T07:56:32.418Z</time></trkpt><trkpt lat="45.446095" lon="10.4452267"><ele>121.0</ele><time>2026-03-29T07:56:33.417Z</time></trkpt><trkpt lat="45.4459483" lon="10.4452067"><ele>121.0</ele><time>2026-03-29T07:56:34.417Z</time></trkpt><trkpt lat="45.4458033" lon="10.4451917"><ele>121.0</ele><time>2026-03-29T07:56:35.418Z</time></trkpt><trkpt lat="45.4456417" lon="10.4451833"><ele>121.0</ele><time>2026-03-29T07:56:36.417Z</time></trkpt><trkpt lat="45.4454867" lon="10.445175"><ele>121.33333333333334</ele><time>2026-03-29T07:56:37.417Z</time></trkpt><trkpt lat="45.4453233" lon="10.44517"><ele>121.66666666666666</ele><time>2026-03-29T07:56:38.417Z</time></trkpt><trkpt lat="45.4451617" lon="10.4451683"><ele>122.0</ele><time>2026-03-29T07:56:39.418Z</time></trkpt><trkpt lat="45.4450017" lon="10.44517"><ele>122.0</ele><time>2026-03-29T07:56:40.417Z</time></trkpt><trkpt lat="45.4448433" lon="10.445175"><ele>122.0</ele><time>2026-03-29T07:56:41.417Z</time></trkpt><trkpt lat="45.4446933" lon="10.4451633"><ele>122.0</ele><time>2026-03-29T07:56:42.417Z</time></trkpt><trkpt lat="45.44453" lon="10.44516"><ele>121.33333333333333</ele><time>2026-03-29T07:56:43.417Z</time></trkpt><trkpt lat="45.4443617" lon="10.4451567"><ele>120.66666666666666</ele><time>2026-03-29T07:56:44.417Z</time></trkpt><trkpt lat="45.4441917" lon="10.4451583"><ele>120.0</ele><time>2026-03-29T07:56:45.418Z</time></trkpt><trkpt lat="45.4440133" lon="10.445155"><ele>120.0</ele><time>2026-03-29T07:56:46.418Z</time></trkpt><trkpt lat="45.4438367" lon="10.44515"><ele>120.0</ele><time>2026-03-29T07:56:47.417Z</time></trkpt><trkpt lat="45.4436567" lon="10.4451583"><ele>120.0</ele><time>2026-03-29T07:56:48.418Z</time></trkpt><trkpt lat="45.4434733" lon="10.4451583"><ele>120.33333333333334</ele><time>2026-03-29T07:56:49.417Z</time></trkpt><trkpt lat="45.4433" lon="10.4451567"><ele>120.66666666666667</ele><time>2026-03-29T07:56:50.418Z</time></trkpt><trkpt lat="45.4431167" lon="10.4451483"><ele>121.0</ele><time>2026-03-29T07:56:51.417Z</time></trkpt><trkpt lat="45.44293" lon="10.4451383"><ele>121.33333333333334</ele><time>2026-03-29T07:56:52.417Z</time></trkpt><trkpt lat="45.4427383" lon="10.4451333"><ele>121.66666666666666</ele><time>2026-03-29T07:56:53.418Z</time></trkpt><trkpt lat="45.4425533" lon="10.44515"><ele>122.0</ele><time>2026-03-29T07:56:54.417Z</time></trkpt><trkpt lat="45.44237" lon="10.4451567"><ele>122.0</ele><time>2026-03-29T07:56:55.417Z</time></trkpt><trkpt lat="45.442175" lon="10.4451633"><ele>122.0</ele><time>2026-03-29T07:56:56.418Z</time></trkpt><trkpt lat="45.441985" lon="10.4451783"><ele>122.0</ele><time>2026-03-29T07:56:57.417Z</time></trkpt><trkpt lat="45.4418017" lon="10.4451933"><ele>121.66666666666666</ele><time>2026-03-29T07:56:58.417Z</time></trkpt><trkpt lat="45.4416183" lon="10.4451983"><ele>121.33333333333334</ele><time>2026-03-29T07:56:59.417Z</time></trkpt><trkpt lat="45.4414283" lon="10.4452"><ele>121.0</ele><time>2026-03-29T07:57:00.417Z</time></trkpt><trkpt lat="45.4412417" lon="10.4452017"><ele>120.66666666666667</ele><time>2026-03-29T07:57:01.417Z</time></trkpt><trkpt lat="45.4410567" lon="10.4451933"><ele>120.33333333333334</ele><time>2026-03-29T07:57:02.417Z</time></trkpt><trkpt lat="45.4408767" lon="10.4451867"><ele>120.0</ele><time>2026-03-29T07:57:03.417Z</time></trkpt><trkpt lat="45.4407133" lon="10.445175"><ele>120.0</ele><time>2026-03-29T07:57:04.418Z</time></trkpt><trkpt lat="45.4405617" lon="10.44517"><ele>120.0</ele><time>2026-03-29T07:57:05.417Z</time></trkpt><trkpt lat="45.4404067" lon="10.4451683"><ele>120.0</ele><time>2026-03-29T07:57:06.418Z</time></trkpt><trkpt lat="45.440275" lon="10.4451683"><ele>120.0</ele><time>2026-03-29T07:57:07.417Z</time></trkpt><trkpt lat="45.4401567" lon="10.4451717"><ele>120.0</ele><time>2026-03-29T07:57:08.417Z</time></trkpt><trkpt lat="45.4400517" lon="10.44518"><ele>120.0</ele><time>2026-03-29T07:57:09.417Z</time></trkpt><trkpt lat="45.439965" lon="10.4451917"><ele>120.0</ele><time>2026-03-29T07:57:10.417Z</time></trkpt><trkpt lat="45.4398983" lon="10.445205"><ele>120.0</ele><time>2026-03-29T07:57:11.417Z</time></trkpt><trkpt lat="45.43981" lon="10.4452"><ele>120.0</ele><time>2026-03-29T07:57:13.417Z</time></trkpt><trkpt lat="45.4397233" lon="10.445135"><ele>120.0</ele><time>2026-03-29T07:57:15.417Z</time></trkpt><trkpt lat="45.43962" lon="10.4451067"><ele>120.2</ele><time>2026-03-29T07:57:17.417Z</time></trkpt><trkpt lat="45.4395583" lon="10.4451333"><ele>120.4</ele><time>2026-03-29T07:57:18.417Z</time></trkpt><trkpt lat="45.4394783" lon="10.44518"><ele>120.6</ele><time>2026-03-29T07:57:19.418Z</time></trkpt><trkpt lat="45.4393767" lon="10.4452133"><ele>120.8</ele><time>2026-03-29T07:57:20.418Z</time></trkpt><trkpt lat="45.4392633" lon="10.445245"><ele>121.0</ele><time>2026-03-29T07:57:21.417Z</time></trkpt><trkpt lat="45.439145" lon="10.445275"><ele>121.0</ele><time>2026-03-29T07:57:22.417Z</time></trkpt><trkpt lat="45.4390283" lon="10.4453117"><ele>121.0</ele><time>2026-03-29T07:57:23.417Z</time></trkpt><trkpt lat="45.4389067" lon="10.445355"><ele>121.0</ele><time>2026-03-29T07:57:24.417Z</time></trkpt><trkpt lat="45.4387767" lon="10.4454"><ele>121.0</ele><time>2026-03-29T07:57:25.418Z</time></trkpt><trkpt lat="45.43865" lon="10.44544"><ele>120.33333333333334</ele><time>2026-03-29T07:57:26.417Z</time></trkpt><trkpt lat="45.4385167" lon="10.445475"><ele>119.66666666666666</ele><time>2026-03-29T07:57:27.418Z</time></trkpt><trkpt lat="45.4383617" lon="10.44553"><ele>119.0</ele><time>2026-03-29T07:57:28.418Z</time></trkpt><trkpt lat="45.4381967" lon="10.4455783"><ele>119.0</ele><time>2026-03-29T07:57:29.417Z</time></trkpt><trkpt lat="45.43803" lon="10.4456283"><ele>119.0</ele><time>2026-03-29T07:57:30.417Z</time></trkpt><trkpt lat="45.4378717" lon="10.4456967"><ele>119.0</ele><time>2026-03-29T07:57:31.417Z</time></trkpt><trkpt lat="45.43773" lon="10.4457317"><ele>119.25</ele><time>2026-03-29T07:57:32.417Z</time></trkpt><trkpt lat="45.4376" lon="10.4457717"><ele>119.5</ele><time>2026-03-29T07:57:33.417Z</time></trkpt><trkpt lat="45.437475" lon="10.4458133"><ele>119.75</ele><time>2026-03-29T07:57:34.417Z</time></trkpt><trkpt lat="45.43735" lon="10.44586"><ele>120.0</ele><time>2026-03-29T07:57:35.417Z</time></trkpt><trkpt lat="45.4372367" lon="10.44591"><ele>119.5</ele><time>2026-03-29T07:57:36.417Z</time></trkpt><trkpt lat="45.4371317" lon="10.44599"><ele>119.0</ele><time>2026-03-29T07:57:37.417Z</time></trkpt><trkpt lat="45.43705" lon="10.4460867"><ele>118.5</ele><time>2026-03-29T07:57:38.417Z</time></trkpt><trkpt lat="45.4369733" lon="10.44621"><ele>118.0</ele><time>2026-03-29T07:57:39.417Z</time></trkpt><trkpt lat="45.4368867" lon="10.4463483"><ele>118.0</ele><time>2026-03-29T07:57:40.417Z</time></trkpt><trkpt lat="45.4367917" lon="10.4464833"><ele>118.0</ele><time>2026-03-29T07:57:41.417Z</time></trkpt><trkpt lat="45.4366833" lon="10.4466117"><ele>118.0</ele><time>2026-03-29T07:57:42.417Z</time></trkpt><trkpt lat="45.4365783" lon="10.4467483"><ele>118.0</ele><time>2026-03-29T07:57:43.417Z</time></trkpt><trkpt lat="45.436475" lon="10.4468967"><ele>118.0</ele><time>2026-03-29T07:57:44.417Z</time></trkpt><trkpt lat="45.436365" lon="10.447055"><ele>118.0</ele><time>2026-03-29T07:57:45.418Z</time></trkpt><trkpt lat="45.4362567" lon="10.4472033"><ele>118.0</ele><time>2026-03-29T07:57:46.417Z</time></trkpt><trkpt lat="45.4361317" lon="10.4473367"><ele>117.66666666666667</ele><time>2026-03-29T07:57:47.417Z</time></trkpt><trkpt lat="45.4360233" lon="10.4474817"><ele>117.33333333333334</ele><time>2026-03-29T07:57:48.417Z</time></trkpt><trkpt lat="45.4359133" lon="10.447625"><ele>117.0</ele><time>2026-03-29T07:57:49.417Z</time></trkpt><trkpt lat="45.435795" lon="10.44777"><ele>117.0</ele><time>2026-03-29T07:57:50.417Z</time></trkpt><trkpt lat="45.4356817" lon="10.4479033"><ele>117.0</ele><time>2026-03-29T07:57:51.417Z</time></trkpt><trkpt lat="45.4355583" lon="10.4480467"><ele>117.0</ele><time>2026-03-29T07:57:52.418Z</time></trkpt><trkpt lat="45.435435" lon="10.44819"><ele>116.66666666666666</ele><time>2026-03-29T07:57:53.417Z</time></trkpt><trkpt lat="45.4353117" lon="10.4483317"><ele>116.33333333333333</ele><time>2026-03-29T07:57:54.417Z</time></trkpt><trkpt lat="45.4351817" lon="10.4484867"><ele>116.0</ele><time>2026-03-29T07:57:55.418Z</time></trkpt><trkpt lat="45.4350533" lon="10.4486533"><ele>116.33333333333333</ele><time>2026-03-29T07:57:56.418Z</time></trkpt><trkpt lat="45.4349217" lon="10.44882"><ele>116.66666666666666</ele><time>2026-03-29T07:57:57.417Z</time></trkpt><trkpt lat="45.4347833" lon="10.449005"><ele>117.0</ele><time>2026-03-29T07:57:58.417Z</time></trkpt><trkpt lat="45.4346417" lon="10.44919"><ele>117.0</ele><time>2026-03-29T07:57:59.417Z</time></trkpt><trkpt lat="45.4345183" lon="10.4493683"><ele>117.0</ele><time>2026-03-29T07:58:00.417Z</time></trkpt><trkpt lat="45.434395" lon="10.4495483"><ele>117.0</ele><time>2026-03-29T07:58:01.417Z</time></trkpt><trkpt lat="45.4342767" lon="10.4497067"><ele>117.0</ele><time>2026-03-29T07:58:02.417Z</time></trkpt><trkpt lat="45.4341717" lon="10.4498583"><ele>117.0</ele><time>2026-03-29T07:58:03.418Z</time></trkpt><trkpt lat="45.43407" lon="10.4499833"><ele>117.0</ele><time>2026-03-29T07:58:04.417Z</time></trkpt><trkpt lat="45.43397" lon="10.450125"><ele>117.0</ele><time>2026-03-29T07:58:05.418Z</time></trkpt><trkpt lat="45.4338533" lon="10.45028"><ele>117.0</ele><time>2026-03-29T07:58:06.417Z</time></trkpt><trkpt lat="45.433745" lon="10.4504333"><ele>117.0</ele><time>2026-03-29T07:58:07.417Z</time></trkpt><trkpt lat="45.4336283" lon="10.4505917"><ele>117.0</ele><time>2026-03-29T07:58:08.417Z</time></trkpt><trkpt lat="45.4335167" lon="10.450745"><ele>117.0</ele><time>2026-03-29T07:58:09.417Z</time></trkpt><trkpt lat="45.433405" lon="10.4509"><ele>117.0</ele><time>2026-03-29T07:58:10.417Z</time></trkpt><trkpt lat="45.4332733" lon="10.451075"><ele>117.0</ele><time>2026-03-29T07:58:11.417Z</time></trkpt><trkpt lat="45.4331517" lon="10.4512483"><ele>117.0</ele><time>2026-03-29T07:58:12.417Z</time></trkpt><trkpt lat="45.4330383" lon="10.45141"><ele>117.0</ele><time>2026-03-29T07:58:13.417Z</time></trkpt><trkpt lat="45.4329083" lon="10.4515867"><ele>117.0</ele><time>2026-03-29T07:58:14.417Z</time></trkpt><trkpt lat="45.43279" lon="10.45174"><ele>116.66666666666666</ele><time>2026-03-29T07:58:15.417Z</time></trkpt><trkpt lat="45.4326667" lon="10.4519033"><ele>116.33333333333333</ele><time>2026-03-29T07:58:16.417Z</time></trkpt><trkpt lat="45.4325467" lon="10.4520633"><ele>116.0</ele><time>2026-03-29T07:58:17.418Z</time></trkpt><trkpt lat="45.4324233" lon="10.4522233"><ele>116.0</ele><time>2026-03-29T07:58:18.417Z</time></trkpt><trkpt lat="45.432305" lon="10.452385"><ele>116.0</ele><time>2026-03-29T07:58:19.417Z</time></trkpt><trkpt lat="45.4321917" lon="10.4525483"><ele>116.0</ele><time>2026-03-29T07:58:20.418Z</time></trkpt><trkpt lat="45.4320783" lon="10.4527133"><ele>116.0</ele><time>2026-03-29T07:58:21.417Z</time></trkpt><trkpt lat="45.4319567" lon="10.452885"><ele>116.0</ele><time>2026-03-29T07:58:22.417Z</time></trkpt><trkpt lat="45.4318517" lon="10.4530617"><ele>116.0</ele><time>2026-03-29T07:58:23.417Z</time></trkpt><trkpt lat="45.4317367" lon="10.4532333"><ele>116.0</ele><time>2026-03-29T07:58:24.417Z</time></trkpt><trkpt lat="45.4316267" lon="10.453395"><ele>116.0</ele><time>2026-03-29T07:58:25.417Z</time></trkpt><trkpt lat="45.4315117" lon="10.4535417"><ele>116.0</ele><time>2026-03-29T07:58:26.417Z</time></trkpt><trkpt lat="45.4314083" lon="10.4536833"><ele>115.66666666666666</ele><time>2026-03-29T07:58:27.417Z</time></trkpt><trkpt lat="45.4313067" lon="10.4538467"><ele>115.33333333333334</ele><time>2026-03-29T07:58:28.418Z</time></trkpt><trkpt lat="45.4312133" lon="10.454005"><ele>115.0</ele><time>2026-03-29T07:58:29.417Z</time></trkpt><trkpt lat="45.4311133" lon="10.4541733"><ele>115.0</ele><time>2026-03-29T07:58:30.417Z</time></trkpt><trkpt lat="45.4310133" lon="10.45433"><ele>115.0</ele><time>2026-03-29T07:58:31.417Z</time></trkpt><trkpt lat="45.430925" lon="10.4544667"><ele>115.0</ele><time>2026-03-29T07:58:32.417Z</time></trkpt><trkpt lat="45.430845" lon="10.4545517"><ele>115.0</ele><time>2026-03-29T07:58:33.417Z</time></trkpt><trkpt lat="45.430765" lon="10.4546083"><ele>115.0</ele><time>2026-03-29T07:58:34.418Z</time></trkpt><trkpt lat="45.4306783" lon="10.4546433"><ele>115.0</ele><time>2026-03-29T07:58:35.417Z</time></trkpt><trkpt lat="45.4305833" lon="10.4547067"><ele>115.0</ele><time>2026-03-29T07:58:36.417Z</time></trkpt><trkpt lat="45.4304817" lon="10.4548033"><ele>115.0</ele><time>2026-03-29T07:58:37.417Z</time></trkpt><trkpt lat="45.4303667" lon="10.454925"><ele>115.0</ele><time>2026-03-29T07:58:38.418Z</time></trkpt><trkpt lat="45.4302433" lon="10.4550567"><ele>115.0</ele><time>2026-03-29T07:58:39.417Z</time></trkpt><trkpt lat="45.4301117" lon="10.455195"><ele>115.0</ele><time>2026-03-29T07:58:40.417Z</time></trkpt><trkpt lat="45.4299683" lon="10.4553333"><ele>115.0</ele><time>2026-03-29T07:58:41.417Z</time></trkpt><trkpt lat="45.4298283" lon="10.4554567"><ele>115.0</ele><time>2026-03-29T07:58:42.417Z</time></trkpt><trkpt lat="45.4296933" lon="10.4555933"><ele>115.0</ele><time>2026-03-29T07:58:43.417Z</time></trkpt><trkpt lat="45.429565" lon="10.45572"><ele>115.0</ele><time>2026-03-29T07:58:44.417Z</time></trkpt><trkpt lat="45.42944" lon="10.455835"><ele>115.0</ele><time>2026-03-29T07:58:45.417Z</time></trkpt><trkpt lat="45.42932" lon="10.455945"><ele>115.0</ele><time>2026-03-29T07:58:46.418Z</time></trkpt><trkpt lat="45.4292017" lon="10.4560583"><ele>115.0</ele><time>2026-03-29T07:58:47.417Z</time></trkpt><trkpt lat="45.42909" lon="10.4561667"><ele>115.0</ele><time>2026-03-29T07:58:48.418Z</time></trkpt><trkpt lat="45.4289833" lon="10.4562767"><ele>115.0</ele><time>2026-03-29T07:58:49.417Z</time></trkpt><trkpt lat="45.4288667" lon="10.45639"><ele>115.0</ele><time>2026-03-29T07:58:50.417Z</time></trkpt><trkpt lat="45.4287533" lon="10.45649"><ele>115.0</ele><time>2026-03-29T07:58:51.417Z</time></trkpt><trkpt lat="45.4286367" lon="10.4565917"><ele>115.0</ele><time>2026-03-29T07:58:52.418Z</time></trkpt><trkpt lat="45.4285333" lon="10.4566783"><ele>115.0</ele><time>2026-03-29T07:58:53.417Z</time></trkpt><trkpt lat="45.428435" lon="10.4567783"><ele>115.0</ele><time>2026-03-29T07:58:54.417Z</time></trkpt><trkpt lat="45.4283567" lon="10.4568417"><ele>115.0</ele><time>2026-03-29T07:58:55.417Z</time></trkpt><trkpt lat="45.428275" lon="10.456885"><ele>115.0</ele><time>2026-03-29T07:58:56.417Z</time></trkpt><trkpt lat="45.4282083" lon="10.4568883"><ele>115.0</ele><time>2026-03-29T07:58:57.417Z</time></trkpt><trkpt lat="45.428125" lon="10.45684"><ele>115.0</ele><time>2026-03-29T07:58:58.417Z</time></trkpt><trkpt lat="45.4280217" lon="10.4567667"><ele>115.0</ele><time>2026-03-29T07:58:59.417Z</time></trkpt><trkpt lat="45.4278933" lon="10.45668"><ele>115.0</ele><time>2026-03-29T07:59:00.417Z</time></trkpt><trkpt lat="45.4277483" lon="10.4565833"><ele>115.0</ele><time>2026-03-29T07:59:01.417Z</time></trkpt><trkpt lat="45.4276017" lon="10.4564683"><ele>115.0</ele><time>2026-03-29T07:59:02.418Z</time></trkpt><trkpt lat="45.4274367" lon="10.4563583"><ele>115.0</ele><time>2026-03-29T07:59:03.417Z</time></trkpt><trkpt lat="45.42726" lon="10.4562367"><ele>114.0</ele><time>2026-03-29T07:59:04.418Z</time></trkpt><trkpt lat="45.4270767" lon="10.4561183"><ele>113.0</ele><time>2026-03-29T07:59:05.418Z</time></trkpt><trkpt lat="45.4269017" lon="10.45601"><ele>112.0</ele><time>2026-03-29T07:59:06.418Z</time></trkpt><trkpt lat="45.4267183" lon="10.45589"><ele>112.0</ele><time>2026-03-29T07:59:07.417Z</time></trkpt><trkpt lat="45.42654" lon="10.455775"><ele>112.0</ele><time>2026-03-29T07:59:08.417Z</time></trkpt><trkpt lat="45.426365" lon="10.4556783"><ele>112.0</ele><time>2026-03-29T07:59:09.417Z</time></trkpt><trkpt lat="45.4261867" lon="10.4555733"><ele>112.0</ele><time>2026-03-29T07:59:10.417Z</time></trkpt><trkpt lat="45.4260183" lon="10.4554833"><ele>112.0</ele><time>2026-03-29T07:59:11.417Z</time></trkpt><trkpt lat="45.4258467" lon="10.4553833"><ele>112.0</ele><time>2026-03-29T07:59:12.418Z</time></trkpt><trkpt lat="45.425695" lon="10.4552883"><ele>112.0</ele><time>2026-03-29T07:59:13.417Z</time></trkpt><trkpt lat="45.425555" lon="10.4552"><ele>112.0</ele><time>2026-03-29T07:59:14.417Z</time></trkpt><trkpt lat="45.4254317" lon="10.45512"><ele>112.0</ele><time>2026-03-29T07:59:15.417Z</time></trkpt><trkpt lat="45.4253267" lon="10.455055"><ele>112.0</ele><time>2026-03-29T07:59:16.418Z</time></trkpt><trkpt lat="45.4252417" lon="10.4550017"><ele>112.16666666666667</ele><time>2026-03-29T07:59:17.417Z</time></trkpt><trkpt lat="45.4251767" lon="10.4549583"><ele>112.33333333333334</ele><time>2026-03-29T07:59:18.417Z</time></trkpt><trkpt lat="45.4250983" lon="10.4549167"><ele>112.5</ele><time>2026-03-29T07:59:20.417Z</time></trkpt><trkpt lat="45.4250333" lon="10.4548717"><ele>112.66666666666666</ele><time>2026-03-29T07:59:23.417Z</time></trkpt><trkpt lat="45.42498" lon="10.4548217"><ele>112.83333333333333</ele><time>2026-03-29T07:59:24.418Z</time></trkpt><trkpt lat="45.4248883" lon="10.454755"><ele>113.0</ele><time>2026-03-29T07:59:25.417Z</time></trkpt><trkpt lat="45.4247833" lon="10.454685"><ele>112.75</ele><time>2026-03-29T07:59:26.417Z</time></trkpt><trkpt lat="45.4246667" lon="10.4546067"><ele>112.5</ele><time>2026-03-29T07:59:27.418Z</time></trkpt><trkpt lat="45.4245317" lon="10.4545217"><ele>112.25</ele><time>2026-03-29T07:59:28.417Z</time></trkpt><trkpt lat="45.4243833" lon="10.4544267"><ele>112.0</ele><time>2026-03-29T07:59:29.418Z</time></trkpt><trkpt lat="45.424235" lon="10.4543417"><ele>112.0</ele><time>2026-03-29T07:59:30.417Z</time></trkpt><trkpt lat="45.4240883" lon="10.45427"><ele>112.0</ele><time>2026-03-29T07:59:31.417Z</time></trkpt><trkpt lat="45.4239433" lon="10.454175"><ele>112.0</ele><time>2026-03-29T07:59:32.417Z</time></trkpt><trkpt lat="45.4237983" lon="10.4541017"><ele>111.66666666666667</ele><time>2026-03-29T07:59:33.417Z</time></trkpt><trkpt lat="45.4236417" lon="10.454005"><ele>111.33333333333334</ele><time>2026-03-29T07:59:34.417Z</time></trkpt><trkpt lat="45.4235017" lon="10.4539117"><ele>111.0</ele><time>2026-03-29T07:59:35.417Z</time></trkpt><trkpt lat="45.4233617" lon="10.453825"><ele>110.66666666666666</ele><time>2026-03-29T07:59:36.417Z</time></trkpt><trkpt lat="45.42321" lon="10.4537267"><ele>110.33333333333333</ele><time>2026-03-29T07:59:37.417Z</time></trkpt><trkpt lat="45.4230567" lon="10.4536417"><ele>110.0</ele><time>2026-03-29T07:59:38.417Z</time></trkpt><trkpt lat="45.4229133" lon="10.4535483"><ele>110.0</ele><time>2026-03-29T07:59:39.417Z</time></trkpt><trkpt lat="45.4227717" lon="10.4534533"><ele>110.0</ele><time>2026-03-29T07:59:40.418Z</time></trkpt><trkpt lat="45.4226483" lon="10.4533583"><ele>110.0</ele><time>2026-03-29T07:59:41.418Z</time></trkpt><trkpt lat="45.4225283" lon="10.453275"><ele>110.0</ele><time>2026-03-29T07:59:42.418Z</time></trkpt><trkpt lat="45.4223933" lon="10.4532033"><ele>110.0</ele><time>2026-03-29T07:59:43.417Z</time></trkpt><trkpt lat="45.4222667" lon="10.4531383"><ele>110.0</ele><time>2026-03-29T07:59:44.418Z</time></trkpt><trkpt lat="45.4221383" lon="10.4530817"><ele>110.0</ele><time>2026-03-29T07:59:45.417Z</time></trkpt><trkpt lat="45.4220133" lon="10.453005"><ele>110.0</ele><time>2026-03-29T07:59:46.417Z</time></trkpt><trkpt lat="45.421885" lon="10.4529133"><ele>110.0</ele><time>2026-03-29T07:59:47.417Z</time></trkpt><trkpt lat="45.42175" lon="10.4528283"><ele>110.0</ele><time>2026-03-29T07:59:48.418Z</time></trkpt><trkpt lat="45.4216167" lon="10.4527383"><ele>110.0</ele><time>2026-03-29T07:59:49.417Z</time></trkpt><trkpt lat="45.4214817" lon="10.452655"><ele>110.0</ele><time>2026-03-29T07:59:50.417Z</time></trkpt><trkpt lat="45.4213467" lon="10.4525767"><ele>109.5</ele><time>2026-03-29T07:59:51.417Z</time></trkpt><trkpt lat="45.421215" lon="10.4524983"><ele>109.0</ele><time>2026-03-29T07:59:52.417Z</time></trkpt><trkpt lat="45.4210783" lon="10.4524083"><ele>108.5</ele><time>2026-03-29T07:59:53.417Z</time></trkpt><trkpt lat="45.420945" lon="10.45232"><ele>108.0</ele><time>2026-03-29T07:59:54.417Z</time></trkpt><trkpt lat="45.4208067" lon="10.4522333"><ele>108.0</ele><time>2026-03-29T07:59:55.417Z</time></trkpt><trkpt lat="45.4206617" lon="10.4521483"><ele>108.0</ele><time>2026-03-29T07:59:56.418Z</time></trkpt><trkpt lat="45.420525" lon="10.4520517"><ele>108.0</ele><time>2026-03-29T07:59:57.417Z</time></trkpt><trkpt lat="45.42039" lon="10.4519583"><ele>108.25</ele><time>2026-03-29T07:59:58.417Z</time></trkpt><trkpt lat="45.4202733" lon="10.45188"><ele>108.5</ele><time>2026-03-29T07:59:59.417Z</time></trkpt><trkpt lat="45.4201567" lon="10.45181"><ele>108.75</ele><time>2026-03-29T08:00:00.418Z</time></trkpt><trkpt lat="45.4200467" lon="10.45174"><ele>109.0</ele><time>2026-03-29T08:00:01.417Z</time></trkpt><trkpt lat="45.419935" lon="10.4516633"><ele>109.0</ele><time>2026-03-29T08:00:02.417Z</time></trkpt><trkpt lat="45.4198317" lon="10.4516"><ele>109.0</ele><time>2026-03-29T08:00:03.417Z</time></trkpt><trkpt lat="45.41974" lon="10.4515417"><ele>109.0</ele><time>2026-03-29T08:00:04.417Z</time></trkpt><trkpt lat="45.41966" lon="10.4514917"><ele>109.0</ele><time>2026-03-29T08:00:05.417Z</time></trkpt><trkpt lat="45.419575" lon="10.451445"><ele>109.0</ele><time>2026-03-29T08:00:06.418Z</time></trkpt><trkpt lat="45.4195" lon="10.4513983"><ele>108.66666666666667</ele><time>2026-03-29T08:00:07.417Z</time></trkpt><trkpt lat="45.4194317" lon="10.4513533"><ele>108.33333333333334</ele><time>2026-03-29T08:00:08.417Z</time></trkpt><trkpt lat="45.41937" lon="10.4513033"><ele>108.0</ele><time>2026-03-29T08:00:09.417Z</time></trkpt><trkpt lat="45.419295" lon="10.45126"><ele>107.66666666666666</ele><time>2026-03-29T08:00:10.417Z</time></trkpt><trkpt lat="45.4192067" lon="10.4512033"><ele>107.33333333333333</ele><time>2026-03-29T08:00:11.418Z</time></trkpt><trkpt lat="45.4191083" lon="10.4511467"><ele>107.0</ele><time>2026-03-29T08:00:12.417Z</time></trkpt><trkpt lat="45.41901" lon="10.4510833"><ele>106.75</ele><time>2026-03-29T08:00:13.417Z</time></trkpt><trkpt lat="45.4188967" lon="10.4510083"><ele>106.5</ele><time>2026-03-29T08:00:14.418Z</time></trkpt><trkpt lat="45.41878" lon="10.4509383"><ele>106.25</ele><time>2026-03-29T08:00:15.417Z</time></trkpt><trkpt lat="45.4186467" lon="10.450875"><ele>106.0</ele><time>2026-03-29T08:00:16.417Z</time></trkpt><trkpt lat="45.4185267" lon="10.4507883"><ele>105.66666666666667</ele><time>2026-03-29T08:00:17.417Z</time></trkpt><trkpt lat="45.4183867" lon="10.4507083"><ele>105.33333333333334</ele><time>2026-03-29T08:00:18.418Z</time></trkpt><trkpt lat="45.4182483" lon="10.450615"><ele>105.0</ele><time>2026-03-29T08:00:19.417Z</time></trkpt><trkpt lat="45.4181067" lon="10.4505183"><ele>104.33333333333334</ele><time>2026-03-29T08:00:20.417Z</time></trkpt><trkpt lat="45.417965" lon="10.4504283"><ele>103.66666666666667</ele><time>2026-03-29T08:00:21.418Z</time></trkpt><trkpt lat="45.4178217" lon="10.4503383"><ele>103.0</ele><time>2026-03-29T08:00:22.417Z</time></trkpt><trkpt lat="45.4176717" lon="10.45025"><ele>103.0</ele><time>2026-03-29T08:00:23.418Z</time></trkpt><trkpt lat="45.4175367" lon="10.4501667"><ele>103.0</ele><time>2026-03-29T08:00:24.417Z</time></trkpt><trkpt lat="45.4174067" lon="10.450075"><ele>103.0</ele><time>2026-03-29T08:00:25.418Z</time></trkpt><trkpt lat="45.417285" lon="10.4499917"><ele>103.0</ele><time>2026-03-29T08:00:26.417Z</time></trkpt><trkpt lat="45.417175" lon="10.44992"><ele>103.4</ele><time>2026-03-29T08:00:27.417Z</time></trkpt><trkpt lat="45.4170867" lon="10.4498667"><ele>103.80000000000001</ele><time>2026-03-29T08:00:28.417Z</time></trkpt><trkpt lat="45.41701" lon="10.4498383"><ele>104.2</ele><time>2026-03-29T08:00:29.418Z</time></trkpt><trkpt lat="45.41691" lon="10.4498417"><ele>104.6</ele><time>2026-03-29T08:00:31.417Z</time></trkpt><trkpt lat="45.4168283" lon="10.450015"><ele>105.0</ele><time>2026-03-29T08:00:33.417Z</time></trkpt><trkpt lat="45.4167667" lon="10.4501483"><ele>105.0</ele><time>2026-03-29T08:00:34.417Z</time></trkpt><trkpt lat="45.4166833" lon="10.4502883"><ele>105.0</ele><time>2026-03-29T08:00:35.417Z</time></trkpt><trkpt lat="45.4165917" lon="10.45045"><ele>105.0</ele><time>2026-03-29T08:00:36.417Z</time></trkpt><trkpt lat="45.41648" lon="10.4506283"><ele>105.0</ele><time>2026-03-29T08:00:37.417Z</time></trkpt><trkpt lat="45.4163617" lon="10.4508067"><ele>105.33333333333334</ele><time>2026-03-29T08:00:38.417Z</time></trkpt><trkpt lat="45.4162383" lon="10.4509983"><ele>105.66666666666667</ele><time>2026-03-29T08:00:39.418Z</time></trkpt><trkpt lat="45.4161167" lon="10.4511683"><ele>106.0</ele><time>2026-03-29T08:00:40.417Z</time></trkpt><trkpt lat="45.4160017" lon="10.45134"><ele>105.33333333333334</ele><time>2026-03-29T08:00:41.417Z</time></trkpt><trkpt lat="45.4158867" lon="10.4515317"><ele>104.66666666666666</ele><time>2026-03-29T08:00:42.417Z</time></trkpt><trkpt lat="45.41577" lon="10.4517383"><ele>104.0</ele><time>2026-03-29T08:00:43.417Z</time></trkpt><trkpt lat="45.4156533" lon="10.4519283"><ele>104.0</ele><time>2026-03-29T08:00:44.417Z</time></trkpt><trkpt lat="45.41554" lon="10.4521217"><ele>104.0</ele><time>2026-03-29T08:00:45.417Z</time></trkpt><trkpt lat="45.4154283" lon="10.452305"><ele>104.0</ele><time>2026-03-29T08:00:46.417Z</time></trkpt><trkpt lat="45.415315" lon="10.452485"><ele>103.80000000000001</ele><time>2026-03-29T08:00:47.417Z</time></trkpt><trkpt lat="45.4152283" lon="10.4526317"><ele>103.60000000000001</ele><time>2026-03-29T08:00:48.417Z</time></trkpt><trkpt lat="45.4151667" lon="10.4527383"><ele>103.4</ele><time>2026-03-29T08:00:49.416Z</time></trkpt><trkpt lat="45.4151033" lon="10.4528367"><ele>103.2</ele><time>2026-03-29T08:00:50.416Z</time></trkpt><trkpt lat="45.4150433" lon="10.45294"><ele>103.0</ele><time>2026-03-29T08:00:51.416Z</time></trkpt><trkpt lat="45.4149783" lon="10.4530483"><ele>103.60000000000001</ele><time>2026-03-29T08:00:52.416Z</time></trkpt><trkpt lat="45.41492" lon="10.4531517"><ele>104.2</ele><time>2026-03-29T08:00:53.416Z</time></trkpt><trkpt lat="45.4148667" lon="10.4532383"><ele>104.8</ele><time>2026-03-29T08:00:54.417Z</time></trkpt><trkpt lat="45.4148367" lon="10.4533817"><ele>105.4</ele><time>2026-03-29T08:00:56.416Z</time></trkpt><trkpt lat="45.4149283" lon="10.4534933"><ele>106.0</ele><time>2026-03-29T08:00:58.416Z</time></trkpt><trkpt lat="45.41501" lon="10.45355"><ele>106.0</ele><time>2026-03-29T08:00:59.416Z</time></trkpt><trkpt lat="45.4151067" lon="10.4536217"><ele>106.0</ele><time>2026-03-29T08:01:00.417Z</time></trkpt><trkpt lat="45.4152217" lon="10.4537133"><ele>106.0</ele><time>2026-03-29T08:01:01.416Z</time></trkpt><trkpt lat="45.4153433" lon="10.453825"><ele>106.0</ele><time>2026-03-29T08:01:02.416Z</time></trkpt><trkpt lat="45.41547" lon="10.4539467"><ele>106.0</ele><time>2026-03-29T08:01:03.416Z</time></trkpt><trkpt lat="45.4156067" lon="10.45407"><ele>106.0</ele><time>2026-03-29T08:01:04.416Z</time></trkpt><trkpt lat="45.4157233" lon="10.454175"><ele>106.0</ele><time>2026-03-29T08:01:05.416Z</time></trkpt><trkpt lat="45.41583" lon="10.4542633"><ele>106.0</ele><time>2026-03-29T08:01:06.416Z</time></trkpt><trkpt lat="45.4159067" lon="10.4543333"><ele>106.0</ele><time>2026-03-29T08:01:07.417Z</time></trkpt><trkpt lat="45.4159533" lon="10.45442"><ele>106.0</ele><time>2026-03-29T08:01:08.416Z</time></trkpt><trkpt lat="45.4159783" lon="10.4545317"><ele>106.0</ele><time>2026-03-29T08:01:09.416Z</time></trkpt><trkpt lat="45.4159683" lon="10.4546583"><ele>106.0</ele><time>2026-03-29T08:01:10.416Z</time></trkpt><trkpt lat="45.4159417" lon="10.4547967"><ele>106.0</ele><time>2026-03-29T08:01:11.416Z</time></trkpt><trkpt lat="45.4159133" lon="10.45498"><ele>106.0</ele><time>2026-03-29T08:01:12.416Z</time></trkpt><trkpt lat="45.41588" lon="10.4551767"><ele>106.0</ele><time>2026-03-29T08:01:13.416Z</time></trkpt><trkpt lat="45.4158467" lon="10.4553983"><ele>106.0</ele><time>2026-03-29T08:01:14.416Z</time></trkpt><trkpt lat="45.41581" lon="10.455645"><ele>106.0</ele><time>2026-03-29T08:01:15.417Z</time></trkpt><trkpt lat="45.4157733" lon="10.4558983"><ele>106.0</ele><time>2026-03-29T08:01:16.416Z</time></trkpt><trkpt lat="45.4157383" lon="10.456145"><ele>106.0</ele><time>2026-03-29T08:01:17.416Z</time></trkpt><trkpt lat="45.415695" lon="10.4564"><ele>106.0</ele><time>2026-03-29T08:01:18.416Z</time></trkpt><trkpt lat="45.41566" lon="10.4566733"><ele>106.0</ele><time>2026-03-29T08:01:19.416Z</time></trkpt><trkpt lat="45.4156333" lon="10.456935"><ele>106.0</ele><time>2026-03-29T08:01:20.417Z</time></trkpt><trkpt lat="45.415615" lon="10.4571783"><ele>105.75</ele><time>2026-03-29T08:01:21.416Z</time></trkpt><trkpt lat="45.4155983" lon="10.45739"><ele>105.5</ele><time>2026-03-29T08:01:22.416Z</time></trkpt><trkpt lat="45.41559" lon="10.4576033"><ele>105.25</ele><time>2026-03-29T08:01:23.417Z</time></trkpt><trkpt lat="45.415575" lon="10.4578083"><ele>105.0</ele><time>2026-03-29T08:01:24.416Z</time></trkpt><trkpt lat="45.41555" lon="10.458015"><ele>104.75</ele><time>2026-03-29T08:01:25.417Z</time></trkpt><trkpt lat="45.4155267" lon="10.4582333"><ele>104.5</ele><time>2026-03-29T08:01:26.416Z</time></trkpt><trkpt lat="45.4155117" lon="10.4584283"><ele>104.25</ele><time>2026-03-29T08:01:27.416Z</time></trkpt><trkpt lat="45.4155083" lon="10.458635"><ele>104.0</ele><time>2026-03-29T08:01:28.416Z</time></trkpt><trkpt lat="45.4155017" lon="10.458835"><ele>104.0</ele><time>2026-03-29T08:01:29.416Z</time></trkpt><trkpt lat="45.4154967" lon="10.4590167"><ele>104.0</ele><time>2026-03-29T08:01:30.417Z</time></trkpt><trkpt lat="45.4154917" lon="10.4591817"><ele>104.0</ele><time>2026-03-29T08:01:31.416Z</time></trkpt><trkpt lat="45.4154867" lon="10.45933"><ele>104.0</ele><time>2026-03-29T08:01:32.416Z</time></trkpt><trkpt lat="45.4154767" lon="10.459465"><ele>104.0</ele><time>2026-03-29T08:01:33.416Z</time></trkpt><trkpt lat="45.4154767" lon="10.459595"><ele>104.16666666666666</ele><time>2026-03-29T08:01:34.416Z</time></trkpt><trkpt lat="45.4154733" lon="10.4597167"><ele>104.33333333333333</ele><time>2026-03-29T08:01:35.416Z</time></trkpt><trkpt lat="45.415465" lon="10.45982"><ele>104.5</ele><time>2026-03-29T08:01:36.416Z</time></trkpt><trkpt lat="45.4154617" lon="10.45992"><ele>104.66666666666666</ele><time>2026-03-29T08:01:37.417Z</time></trkpt><trkpt lat="45.4154583" lon="10.4600167"><ele>104.83333333333333</ele><time>2026-03-29T08:01:38.416Z</time></trkpt><trkpt lat="45.415445" lon="10.4601967"><ele>105.0</ele><time>2026-03-29T08:01:40.416Z</time></trkpt><trkpt lat="45.4154433" lon="10.460335"><ele>105.0</ele><time>2026-03-29T08:01:42.416Z</time></trkpt><trkpt lat="45.4154333" lon="10.460435"><ele>105.0</ele><time>2026-03-29T08:01:44.416Z</time></trkpt><trkpt lat="45.41543" lon="10.46053"><ele>105.0</ele><time>2026-03-29T08:01:45.416Z</time></trkpt><trkpt lat="45.4154267" lon="10.460635"><ele>105.0</ele><time>2026-03-29T08:01:46.417Z</time></trkpt><trkpt lat="45.4154217" lon="10.460775"><ele>105.0</ele><time>2026-03-29T08:01:47.416Z</time></trkpt><trkpt lat="45.4154167" lon="10.460935"><ele>105.0</ele><time>2026-03-29T08:01:48.416Z</time></trkpt><trkpt lat="45.415405" lon="10.4611333"><ele>105.0</ele><time>2026-03-29T08:01:49.416Z</time></trkpt><trkpt lat="45.4153933" lon="10.4613533"><ele>105.0</ele><time>2026-03-29T08:01:50.416Z</time></trkpt><trkpt lat="45.4153817" lon="10.461585"><ele>105.0</ele><time>2026-03-29T08:01:51.416Z</time></trkpt><trkpt lat="45.4153633" lon="10.4618117"><ele>105.0</ele><time>2026-03-29T08:01:52.417Z</time></trkpt><trkpt lat="45.4153583" lon="10.46203"><ele>105.0</ele><time>2026-03-29T08:01:53.417Z</time></trkpt><trkpt lat="45.4153517" lon="10.4622533"><ele>105.0</ele><time>2026-03-29T08:01:54.416Z</time></trkpt><trkpt lat="45.4153417" lon="10.4624633"><ele>105.0</ele><time>2026-03-29T08:01:55.417Z</time></trkpt><trkpt lat="45.4153417" lon="10.4626633"><ele>105.0</ele><time>2026-03-29T08:01:56.416Z</time></trkpt><trkpt lat="45.4153267" lon="10.462865"><ele>105.0</ele><time>2026-03-29T08:01:57.416Z</time></trkpt><trkpt lat="45.415325" lon="10.4630683"><ele>105.0</ele><time>2026-03-29T08:01:58.416Z</time></trkpt><trkpt lat="45.41533" lon="10.4632767"><ele>105.0</ele><time>2026-03-29T08:01:59.416Z</time></trkpt><trkpt lat="45.4153383" lon="10.4634817"><ele>105.0</ele><time>2026-03-29T08:02:00.417Z</time></trkpt><trkpt lat="45.4153517" lon="10.4636883"><ele>105.0</ele><time>2026-03-29T08:02:01.417Z</time></trkpt><trkpt lat="45.41537" lon="10.46389"><ele>105.0</ele><time>2026-03-29T08:02:02.416Z</time></trkpt><trkpt lat="45.4153983" lon="10.464085"><ele>105.75</ele><time>2026-03-29T08:02:03.415Z</time></trkpt><trkpt lat="45.4154233" lon="10.4642717"><ele>106.5</ele><time>2026-03-29T08:02:04.417Z</time></trkpt><trkpt lat="45.4154433" lon="10.46446"><ele>107.25</ele><time>2026-03-29T08:02:05.416Z</time></trkpt><trkpt lat="45.4154583" lon="10.464645"><ele>108.0</ele><time>2026-03-29T08:02:06.416Z</time></trkpt><trkpt lat="45.4154717" lon="10.464825"><ele>107.75</ele><time>2026-03-29T08:02:07.417Z</time></trkpt><trkpt lat="45.41549" lon="10.4650267"><ele>107.5</ele><time>2026-03-29T08:02:08.417Z</time></trkpt><trkpt lat="45.415495" lon="10.46523"><ele>107.25</ele><time>2026-03-29T08:02:09.416Z</time></trkpt><trkpt lat="45.4155033" lon="10.4654583"><ele>107.0</ele><time>2026-03-29T08:02:10.416Z</time></trkpt><trkpt lat="45.415515" lon="10.46569"><ele>107.0</ele><time>2026-03-29T08:02:11.417Z</time></trkpt><trkpt lat="45.4155283" lon="10.4659233"><ele>107.0</ele><time>2026-03-29T08:02:12.416Z</time></trkpt><trkpt lat="45.4155483" lon="10.4661583"><ele>107.0</ele><time>2026-03-29T08:02:13.416Z</time></trkpt><trkpt lat="45.4155617" lon="10.4663917"><ele>107.0</ele><time>2026-03-29T08:02:14.416Z</time></trkpt><trkpt lat="45.4155717" lon="10.46662"><ele>107.0</ele><time>2026-03-29T08:02:15.416Z</time></trkpt><trkpt lat="45.4155783" lon="10.466855"><ele>107.0</ele><time>2026-03-29T08:02:16.417Z</time></trkpt><trkpt lat="45.415565" lon="10.46709"><ele>107.0</ele><time>2026-03-29T08:02:17.416Z</time></trkpt><trkpt lat="45.4155533" lon="10.46731"><ele>107.0</ele><time>2026-03-29T08:02:18.416Z</time></trkpt><trkpt lat="45.4155417" lon="10.4675217"><ele>107.0</ele><time>2026-03-29T08:02:19.416Z</time></trkpt><trkpt lat="45.4155217" lon="10.4677367"><ele>107.25</ele><time>2026-03-29T08:02:20.416Z</time></trkpt><trkpt lat="45.4154967" lon="10.467945"><ele>107.5</ele><time>2026-03-29T08:02:21.416Z</time></trkpt><trkpt lat="45.415465" lon="10.46815"><ele>107.75</ele><time>2026-03-29T08:02:22.416Z</time></trkpt><trkpt lat="45.4154417" lon="10.4683533"><ele>108.0</ele><time>2026-03-29T08:02:23.416Z</time></trkpt><trkpt lat="45.4154167" lon="10.46856"><ele>108.0</ele><time>2026-03-29T08:02:24.416Z</time></trkpt><trkpt lat="45.4153933" lon="10.46877"><ele>108.0</ele><time>2026-03-29T08:02:25.416Z</time></trkpt><trkpt lat="45.41537" lon="10.4689967"><ele>108.0</ele><time>2026-03-29T08:02:26.417Z</time></trkpt><trkpt lat="45.41535" lon="10.4692183"><ele>108.0</ele><time>2026-03-29T08:02:27.417Z</time></trkpt><trkpt lat="45.415325" lon="10.469445"><ele>108.0</ele><time>2026-03-29T08:02:28.417Z</time></trkpt><trkpt lat="45.415295" lon="10.4696633"><ele>108.0</ele><time>2026-03-29T08:02:29.417Z</time></trkpt><trkpt lat="45.415265" lon="10.4698917"><ele>108.0</ele><time>2026-03-29T08:02:30.416Z</time></trkpt><trkpt lat="45.415245" lon="10.4701217"><ele>108.0</ele><time>2026-03-29T08:02:31.416Z</time></trkpt><trkpt lat="45.415225" lon="10.470345"><ele>108.0</ele><time>2026-03-29T08:02:32.416Z</time></trkpt><trkpt lat="45.415205" lon="10.4705683"><ele>108.66666666666666</ele><time>2026-03-29T08:02:33.416Z</time></trkpt><trkpt lat="45.415185" lon="10.4708167"><ele>109.33333333333333</ele><time>2026-03-29T08:02:34.416Z</time></trkpt><trkpt lat="45.4151667" lon="10.4710267"><ele>110.0</ele><time>2026-03-29T08:02:35.416Z</time></trkpt><trkpt lat="45.415135" lon="10.4712383"><ele>110.33333333333333</ele><time>2026-03-29T08:02:36.416Z</time></trkpt><trkpt lat="45.415115" lon="10.471445"><ele>110.66666666666666</ele><time>2026-03-29T08:02:37.416Z</time></trkpt><trkpt lat="45.4150983" lon="10.471665"><ele>111.0</ele><time>2026-03-29T08:02:38.416Z</time></trkpt><trkpt lat="45.4150833" lon="10.471875"><ele>111.0</ele><time>2026-03-29T08:02:39.416Z</time></trkpt><trkpt lat="45.4150583" lon="10.4720967"><ele>111.0</ele><time>2026-03-29T08:02:40.417Z</time></trkpt><trkpt lat="45.4150367" lon="10.4723233"><ele>111.0</ele><time>2026-03-29T08:02:41.416Z</time></trkpt><trkpt lat="45.4150133" lon="10.47256"><ele>111.0</ele><time>2026-03-29T08:02:42.416Z</time></trkpt><trkpt lat="45.4149933" lon="10.4727817"><ele>111.0</ele><time>2026-03-29T08:02:43.416Z</time></trkpt><trkpt lat="45.4149933" lon="10.472965"><ele>111.0</ele><time>2026-03-29T08:02:44.416Z</time></trkpt><trkpt lat="45.41498" lon="10.4731167"><ele>111.0</ele><time>2026-03-29T08:02:45.416Z</time></trkpt><trkpt lat="45.4149667" lon="10.473235"><ele>111.19999999999999</ele><time>2026-03-29T08:02:46.416Z</time></trkpt><trkpt lat="45.4149567" lon="10.4733567"><ele>111.39999999999999</ele><time>2026-03-29T08:02:48.417Z</time></trkpt><trkpt lat="45.4149433" lon="10.4734667"><ele>111.6</ele><time>2026-03-29T08:02:51.416Z</time></trkpt><trkpt lat="45.41497" lon="10.4733667"><ele>111.8</ele><time>2026-03-29T08:02:55.416Z</time></trkpt><trkpt lat="45.414985" lon="10.4731917"><ele>112.0</ele><time>2026-03-29T08:02:57.417Z</time></trkpt><trkpt lat="45.4149983" lon="10.4730233"><ele>111.75</ele><time>2026-03-29T08:02:58.416Z</time></trkpt><trkpt lat="45.4150167" lon="10.4728317"><ele>111.5</ele><time>2026-03-29T08:02:59.417Z</time></trkpt><trkpt lat="45.415035" lon="10.47263"><ele>111.25</ele><time>2026-03-29T08:03:00.417Z</time></trkpt><trkpt lat="45.4150483" lon="10.4724383"><ele>111.0</ele><time>2026-03-29T08:03:01.416Z</time></trkpt><trkpt lat="45.415065" lon="10.472295"><ele>111.0</ele><time>2026-03-29T08:03:02.417Z</time></trkpt><trkpt lat="45.4150783" lon="10.4721867"><ele>111.0</ele><time>2026-03-29T08:03:03.416Z</time></trkpt><trkpt lat="45.4150967" lon="10.4720567"><ele>111.0</ele><time>2026-03-29T08:03:05.417Z</time></trkpt><trkpt lat="45.41516" lon="10.4719967"><ele>111.0</ele><time>2026-03-29T08:03:07.416Z</time></trkpt><trkpt lat="45.4152833" lon="10.472"><ele>111.0</ele><time>2026-03-29T08:03:09.416Z</time></trkpt><trkpt lat="45.4153917" lon="10.4720217"><ele>111.0</ele><time>2026-03-29T08:03:10.417Z</time></trkpt><trkpt lat="45.415505" lon="10.4720333"><ele>111.0</ele><time>2026-03-29T08:03:11.416Z</time></trkpt><trkpt lat="45.4156283" lon="10.4720417"><ele>111.0</ele><time>2026-03-29T08:03:12.416Z</time></trkpt><trkpt lat="45.4157667" lon="10.4720567"><ele>111.0</ele><time>2026-03-29T08:03:13.416Z</time></trkpt><trkpt lat="45.4159083" lon="10.4720783"><ele>111.0</ele><time>2026-03-29T08:03:14.416Z</time></trkpt><trkpt lat="45.416045" lon="10.4720983"><ele>111.0</ele><time>2026-03-29T08:03:15.416Z</time></trkpt><trkpt lat="45.416165" lon="10.4721167"><ele>111.0</ele><time>2026-03-29T08:03:16.416Z</time></trkpt><trkpt lat="45.4162767" lon="10.4721317"><ele>111.0</ele><time>2026-03-29T08:03:17.417Z</time></trkpt><trkpt lat="45.4163967" lon="10.47215"><ele>111.0</ele><time>2026-03-29T08:03:18.416Z</time></trkpt><trkpt lat="45.41652" lon="10.47216"><ele>111.0</ele><time>2026-03-29T08:03:19.416Z</time></trkpt><trkpt lat="45.4166483" lon="10.4721683"><ele>111.0</ele><time>2026-03-29T08:03:20.417Z</time></trkpt><trkpt lat="45.4167817" lon="10.4721783"><ele>111.0</ele><time>2026-03-29T08:03:21.416Z</time></trkpt><trkpt lat="45.41692" lon="10.4722"><ele>111.0</ele><time>2026-03-29T08:03:22.416Z</time></trkpt><trkpt lat="45.4170633" lon="10.4722283"><ele>111.0</ele><time>2026-03-29T08:03:23.416Z</time></trkpt><trkpt lat="45.41721" lon="10.472255"><ele>111.0</ele><time>2026-03-29T08:03:24.416Z</time></trkpt><trkpt lat="45.4173583" lon="10.4722683"><ele>111.0</ele><time>2026-03-29T08:03:25.416Z</time></trkpt><trkpt lat="45.4175167" lon="10.4722833"><ele>111.33333333333334</ele><time>2026-03-29T08:03:26.416Z</time></trkpt><trkpt lat="45.4176783" lon="10.47231"><ele>111.66666666666667</ele><time>2026-03-29T08:03:27.416Z</time></trkpt><trkpt lat="45.4178467" lon="10.472335"><ele>112.0</ele><time>2026-03-29T08:03:28.416Z</time></trkpt><trkpt lat="45.4180167" lon="10.4723617"><ele>112.0</ele><time>2026-03-29T08:03:29.416Z</time></trkpt><trkpt lat="45.4181883" lon="10.4723833"><ele>112.0</ele><time>2026-03-29T08:03:30.416Z</time></trkpt><trkpt lat="45.4183617" lon="10.4723983"><ele>112.0</ele><time>2026-03-29T08:03:31.416Z</time></trkpt><trkpt lat="45.4185183" lon="10.472425"><ele>112.0</ele><time>2026-03-29T08:03:32.416Z</time></trkpt><trkpt lat="45.418685" lon="10.4724317"><ele>112.0</ele><time>2026-03-29T08:03:33.416Z</time></trkpt><trkpt lat="45.4188467" lon="10.4724517"><ele>112.0</ele><time>2026-03-29T08:03:34.416Z</time></trkpt><trkpt lat="45.4189967" lon="10.47246"><ele>111.8</ele><time>2026-03-29T08:03:35.416Z</time></trkpt><trkpt lat="45.4191133" lon="10.472465"><ele>111.6</ele><time>2026-03-29T08:03:36.416Z</time></trkpt><trkpt lat="45.4192183" lon="10.4724867"><ele>111.39999999999999</ele><time>2026-03-29T08:03:37.416Z</time></trkpt><trkpt lat="45.41932" lon="10.472515"><ele>111.19999999999999</ele><time>2026-03-29T08:03:38.417Z</time></trkpt><trkpt lat="45.4194083" lon="10.47254"><ele>111.0</ele><time>2026-03-29T08:03:39.416Z</time></trkpt><trkpt lat="45.4195017" lon="10.4725817"><ele>111.0</ele><time>2026-03-29T08:03:41.416Z</time></trkpt><trkpt lat="45.4194783" lon="10.472755"><ele>111.0</ele><time>2026-03-29T08:03:44.417Z</time></trkpt><trkpt lat="45.419435" lon="10.4728733"><ele>111.0</ele><time>2026-03-29T08:03:45.416Z</time></trkpt><trkpt lat="45.4194033" lon="10.47304"><ele>111.0</ele><time>2026-03-29T08:03:46.416Z</time></trkpt><trkpt lat="45.4193667" lon="10.4732033"><ele>111.0</ele><time>2026-03-29T08:03:47.416Z</time></trkpt><trkpt lat="45.4193233" lon="10.4733717"><ele>111.0</ele><time>2026-03-29T08:03:48.416Z</time></trkpt><trkpt lat="45.4192767" lon="10.4735483"><ele>111.0</ele><time>2026-03-29T08:03:49.416Z</time></trkpt><trkpt lat="45.4192217" lon="10.4737283"><ele>111.0</ele><time>2026-03-29T08:03:50.416Z</time></trkpt><trkpt lat="45.4191717" lon="10.4739167"><ele>111.0</ele><time>2026-03-29T08:03:51.416Z</time></trkpt><trkpt lat="45.4191183" lon="10.4741233"><ele>111.0</ele><time>2026-03-29T08:03:52.416Z</time></trkpt><trkpt lat="45.4190633" lon="10.47434"><ele>111.0</ele><time>2026-03-29T08:03:53.416Z</time></trkpt><trkpt lat="45.41901" lon="10.4745683"><ele>111.0</ele><time>2026-03-29T08:03:54.416Z</time></trkpt><trkpt lat="45.4189633" lon="10.474805"><ele>111.0</ele><time>2026-03-29T08:03:55.416Z</time></trkpt><trkpt lat="45.4189183" lon="10.4750617"><ele>111.0</ele><time>2026-03-29T08:03:56.416Z</time></trkpt><trkpt lat="45.4188883" lon="10.4753133"><ele>111.66666666666666</ele><time>2026-03-29T08:03:57.416Z</time></trkpt><trkpt lat="45.4188683" lon="10.4755717"><ele>112.33333333333333</ele><time>2026-03-29T08:03:58.416Z</time></trkpt><trkpt lat="45.41885" lon="10.4758233"><ele>113.0</ele><time>2026-03-29T08:03:59.417Z</time></trkpt><trkpt lat="45.4188317" lon="10.4760517"><ele>113.0</ele><time>2026-03-29T08:04:00.416Z</time></trkpt><trkpt lat="45.418815" lon="10.4762367"><ele>113.00000000000001</ele><time>2026-03-29T08:04:01.416Z</time></trkpt><trkpt lat="45.418805" lon="10.4763983"><ele>113.00000000000001</ele><time>2026-03-29T08:04:02.417Z</time></trkpt><trkpt lat="45.4187583" lon="10.4765267"><ele>113.0</ele><time>2026-03-29T08:04:03.416Z</time></trkpt><trkpt lat="45.4187117" lon="10.476605"><ele>113.0</ele><time>2026-03-29T08:04:04.416Z</time></trkpt><trkpt lat="45.41867" lon="10.4766733"><ele>113.4</ele><time>2026-03-29T08:04:05.416Z</time></trkpt><trkpt lat="45.4186417" lon="10.4767667"><ele>113.80000000000001</ele><time>2026-03-29T08:04:06.416Z</time></trkpt><trkpt lat="45.4186233" lon="10.4768867"><ele>114.2</ele><time>2026-03-29T08:04:07.416Z</time></trkpt><trkpt lat="45.4185967" lon="10.4770183"><ele>114.6</ele><time>2026-03-29T08:04:08.416Z</time></trkpt><trkpt lat="45.4185483" lon="10.477165"><ele>115.0</ele><time>2026-03-29T08:04:09.416Z</time></trkpt><trkpt lat="45.418475" lon="10.47732"><ele>116.25</ele><time>2026-03-29T08:04:10.416Z</time></trkpt><trkpt lat="45.41838" lon="10.4774733"><ele>117.5</ele><time>2026-03-29T08:04:11.416Z</time></trkpt><trkpt lat="45.4182817" lon="10.4776167"><ele>118.75</ele><time>2026-03-29T08:04:12.416Z</time></trkpt><trkpt lat="45.41818" lon="10.477775"><ele>120.0</ele><time>2026-03-29T08:04:13.416Z</time></trkpt><trkpt lat="45.418095" lon="10.4779717"><ele>119.33333333333334</ele><time>2026-03-29T08:04:14.416Z</time></trkpt><trkpt lat="45.418035" lon="10.4782133"><ele>118.66666666666667</ele><time>2026-03-29T08:04:15.416Z</time></trkpt><trkpt lat="45.4179717" lon="10.478465"><ele>118.0</ele><time>2026-03-29T08:04:16.416Z</time></trkpt><trkpt lat="45.417915" lon="10.4787167"><ele>119.25</ele><time>2026-03-29T08:04:17.417Z</time></trkpt><trkpt lat="45.4178617" lon="10.4789467"><ele>120.5</ele><time>2026-03-29T08:04:18.416Z</time></trkpt><trkpt lat="45.417825" lon="10.4791467"><ele>121.75</ele><time>2026-03-29T08:04:19.416Z</time></trkpt><trkpt lat="45.4178233" lon="10.4793183"><ele>123.0</ele><time>2026-03-29T08:04:20.416Z</time></trkpt><trkpt lat="45.417855" lon="10.4795033"><ele>122.75</ele><time>2026-03-29T08:04:21.416Z</time></trkpt><trkpt lat="45.4179133" lon="10.4796767"><ele>122.5</ele><time>2026-03-29T08:04:22.417Z</time></trkpt><trkpt lat="45.4179817" lon="10.47985"><ele>122.25</ele><time>2026-03-29T08:04:23.417Z</time></trkpt><trkpt lat="45.418045" lon="10.48003"><ele>122.0</ele><time>2026-03-29T08:04:24.416Z</time></trkpt><trkpt lat="45.4181033" lon="10.4802133"><ele>123.25</ele><time>2026-03-29T08:04:25.416Z</time></trkpt><trkpt lat="45.418155" lon="10.4804"><ele>124.5</ele><time>2026-03-29T08:04:26.416Z</time></trkpt><trkpt lat="45.41822" lon="10.48059"><ele>125.75</ele><time>2026-03-29T08:04:27.417Z</time></trkpt><trkpt lat="45.4182967" lon="10.4807533"><ele>127.0</ele><time>2026-03-29T08:04:28.417Z</time></trkpt><trkpt lat="45.418405" lon="10.4808783"><ele>127.0</ele><time>2026-03-29T08:04:29.416Z</time></trkpt><trkpt lat="45.4185133" lon="10.48099"><ele>126.99999999999999</ele><time>2026-03-29T08:04:30.416Z</time></trkpt><trkpt lat="45.418605" lon="10.4810883"><ele>126.99999999999999</ele><time>2026-03-29T08:04:31.416Z</time></trkpt><trkpt lat="45.4186633" lon="10.4811933"><ele>127.0</ele><time>2026-03-29T08:04:32.416Z</time></trkpt><trkpt lat="45.4186917" lon="10.48132"><ele>127.0</ele><time>2026-03-29T08:04:33.417Z</time></trkpt><trkpt lat="45.4187017" lon="10.481475"><ele>126.50000000000001</ele><time>2026-03-29T08:04:34.416Z</time></trkpt><trkpt lat="45.41868" lon="10.48161"><ele>126.0</ele><time>2026-03-29T08:04:35.416Z</time></trkpt><trkpt lat="45.4186367" lon="10.4817117"><ele>125.5</ele><time>2026-03-29T08:04:36.416Z</time></trkpt><trkpt lat="45.4185933" lon="10.4817833"><ele>125.0</ele><time>2026-03-29T08:04:37.416Z</time></trkpt><trkpt lat="45.4185317" lon="10.4818617"><ele>124.50000000000001</ele><time>2026-03-29T08:04:39.416Z</time></trkpt><trkpt lat="45.418415" lon="10.481845"><ele>124.0</ele><time>2026-03-29T08:04:41.417Z</time></trkpt><trkpt lat="45.4183483" lon="10.4818083"><ele>124.0</ele><time>2026-03-29T08:04:42.417Z</time></trkpt><trkpt lat="45.4182883" lon="10.4817717"><ele>124.0</ele><time>2026-03-29T08:04:43.417Z</time></trkpt><trkpt lat="45.4183533" lon="10.4818217"><ele>124.0</ele><time>2026-03-29T08:04:49.417Z</time></trkpt><trkpt lat="45.4184583" lon="10.4818433"><ele>124.0</ele><time>2026-03-29T08:04:50.416Z</time></trkpt><trkpt lat="45.41856" lon="10.4818717"><ele>124.0</ele><time>2026-03-29T08:04:51.417Z</time></trkpt><trkpt lat="45.41866" lon="10.4819517"><ele>124.00000000000001</ele><time>2026-03-29T08:04:52.416Z</time></trkpt><trkpt lat="45.4187167" lon="10.48201"><ele>124.0</ele><time>2026-03-29T08:04:53.416Z</time></trkpt><trkpt lat="45.418745" lon="10.4821067"><ele>124.0</ele><time>2026-03-29T08:04:54.416Z</time></trkpt><trkpt lat="45.4187617" lon="10.4822033"><ele>124.0</ele><time>2026-03-29T08:04:55.416Z</time></trkpt><trkpt lat="45.4187633" lon="10.4823317"><ele>124.00000000000001</ele><time>2026-03-29T08:04:56.416Z</time></trkpt><trkpt lat="45.41877" lon="10.4824767"><ele>124.0</ele><time>2026-03-29T08:04:57.416Z</time></trkpt><trkpt lat="45.4187717" lon="10.4826333"><ele>124.2</ele><time>2026-03-29T08:04:58.416Z</time></trkpt><trkpt lat="45.4187767" lon="10.48278"><ele>124.4</ele><time>2026-03-29T08:04:59.416Z</time></trkpt><trkpt lat="45.4187917" lon="10.4829117"><ele>124.6</ele><time>2026-03-29T08:05:00.416Z</time></trkpt><trkpt lat="45.4188183" lon="10.48303"><ele>124.8</ele><time>2026-03-29T08:05:01.416Z</time></trkpt><trkpt lat="45.4188633" lon="10.4831367"><ele>125.0</ele><time>2026-03-29T08:05:02.417Z</time></trkpt><trkpt lat="45.4189233" lon="10.4832183"><ele>125.0</ele><time>2026-03-29T08:05:03.416Z</time></trkpt><trkpt lat="45.4190067" lon="10.4832817"><ele>125.0</ele><time>2026-03-29T08:05:04.416Z</time></trkpt><trkpt lat="45.4190967" lon="10.4833583"><ele>125.0</ele><time>2026-03-29T08:05:05.416Z</time></trkpt><trkpt lat="45.41919" lon="10.4834483"><ele>125.0</ele><time>2026-03-29T08:05:06.416Z</time></trkpt><trkpt lat="45.4192633" lon="10.4835333"><ele>125.0</ele><time>2026-03-29T08:05:07.416Z</time></trkpt><trkpt lat="45.4193283" lon="10.483635"><ele>124.99999999999999</ele><time>2026-03-29T08:05:08.416Z</time></trkpt><trkpt lat="45.4193617" lon="10.48373"><ele>125.0</ele><time>2026-03-29T08:05:09.416Z</time></trkpt><trkpt lat="45.4193867" lon="10.4838217"><ele>125.0</ele><time>2026-03-29T08:05:10.417Z</time></trkpt><trkpt lat="45.41938" lon="10.4839467"><ele>125.0</ele><time>2026-03-29T08:05:11.416Z</time></trkpt><trkpt lat="45.419365" lon="10.4840867"><ele>124.99999999999999</ele><time>2026-03-29T08:05:12.416Z</time></trkpt><trkpt lat="45.4193483" lon="10.4842233"><ele>125.0</ele><time>2026-03-29T08:05:13.416Z</time></trkpt><trkpt lat="45.419335" lon="10.4843633"><ele>125.6</ele><time>2026-03-29T08:05:14.416Z</time></trkpt><trkpt lat="45.4193383" lon="10.4844867"><ele>126.2</ele><time>2026-03-29T08:05:15.416Z</time></trkpt><trkpt lat="45.419375" lon="10.4846167"><ele>126.80000000000001</ele><time>2026-03-29T08:05:16.416Z</time></trkpt><trkpt lat="45.4194317" lon="10.484735"><ele>127.4</ele><time>2026-03-29T08:05:17.416Z</time></trkpt><trkpt lat="45.41951" lon="10.48484"><ele>128.0</ele><time>2026-03-29T08:05:18.417Z</time></trkpt><trkpt lat="45.419605" lon="10.4849533"><ele>128.0</ele><time>2026-03-29T08:05:19.416Z</time></trkpt><trkpt lat="45.4197133" lon="10.4850567"><ele>128.0</ele><time>2026-03-29T08:05:20.416Z</time></trkpt><trkpt lat="45.4198317" lon="10.4851467"><ele>128.0</ele><time>2026-03-29T08:05:21.417Z</time></trkpt><trkpt lat="45.419965" lon="10.4852567"><ele>128.0</ele><time>2026-03-29T08:05:22.416Z</time></trkpt><trkpt lat="45.4200983" lon="10.4853333"><ele>128.0</ele><time>2026-03-29T08:05:23.416Z</time></trkpt><trkpt lat="45.4202367" lon="10.4853967"><ele>128.0</ele><time>2026-03-29T08:05:24.417Z</time></trkpt><trkpt lat="45.4203633" lon="10.4854417"><ele>128.0</ele><time>2026-03-29T08:05:25.417Z</time></trkpt><trkpt lat="45.4204917" lon="10.4854667"><ele>128.0</ele><time>2026-03-29T08:05:26.416Z</time></trkpt><trkpt lat="45.42062" lon="10.48547"><ele>130.75</ele><time>2026-03-29T08:05:27.416Z</time></trkpt><trkpt lat="45.4207467" lon="10.485465"><ele>133.5</ele><time>2026-03-29T08:05:28.416Z</time></trkpt><trkpt lat="45.420865" lon="10.4854617"><ele>136.25</ele><time>2026-03-29T08:05:29.417Z</time></trkpt><trkpt lat="45.420995" lon="10.4854717"><ele>139.0</ele><time>2026-03-29T08:05:30.416Z</time></trkpt><trkpt lat="45.4211183" lon="10.4854683"><ele>139.0</ele><time>2026-03-29T08:05:31.417Z</time></trkpt><trkpt lat="45.4212417" lon="10.4854617"><ele>139.0</ele><time>2026-03-29T08:05:32.416Z</time></trkpt><trkpt lat="45.4213783" lon="10.4854933"><ele>139.0</ele><time>2026-03-29T08:05:33.416Z</time></trkpt><trkpt lat="45.4214983" lon="10.4855133"><ele>139.0</ele><time>2026-03-29T08:05:34.416Z</time></trkpt><trkpt lat="45.4216183" lon="10.485555"><ele>139.25</ele><time>2026-03-29T08:05:35.416Z</time></trkpt><trkpt lat="45.4217533" lon="10.485615"><ele>139.5</ele><time>2026-03-29T08:05:36.417Z</time></trkpt><trkpt lat="45.4218867" lon="10.485655"><ele>139.75</ele><time>2026-03-29T08:05:37.416Z</time></trkpt><trkpt lat="45.4220067" lon="10.4857217"><ele>140.0</ele><time>2026-03-29T08:05:38.416Z</time></trkpt><trkpt lat="45.4221133" lon="10.4858167"><ele>140.5</ele><time>2026-03-29T08:05:39.416Z</time></trkpt><trkpt lat="45.4222017" lon="10.485925"><ele>141.0</ele><time>2026-03-29T08:05:40.416Z</time></trkpt><trkpt lat="45.422275" lon="10.4860433"><ele>141.5</ele><time>2026-03-29T08:05:41.416Z</time></trkpt><trkpt lat="45.422335" lon="10.486175"><ele>142.0</ele><time>2026-03-29T08:05:42.416Z</time></trkpt><trkpt lat="45.4223783" lon="10.4863283"><ele>142.5</ele><time>2026-03-29T08:05:43.416Z</time></trkpt><trkpt lat="45.4224033" lon="10.486505"><ele>143.0</ele><time>2026-03-29T08:05:44.416Z</time></trkpt><trkpt lat="45.422415" lon="10.48668"><ele>143.5</ele><time>2026-03-29T08:05:45.416Z</time></trkpt><trkpt lat="45.4224117" lon="10.4868633"><ele>144.0</ele><time>2026-03-29T08:05:46.416Z</time></trkpt><trkpt lat="45.4224067" lon="10.48704"><ele>144.75</ele><time>2026-03-29T08:05:47.416Z</time></trkpt><trkpt lat="45.422395" lon="10.4872283"><ele>145.5</ele><time>2026-03-29T08:05:48.416Z</time></trkpt><trkpt lat="45.4223883" lon="10.4874133"><ele>146.25</ele><time>2026-03-29T08:05:49.416Z</time></trkpt><trkpt lat="45.4224017" lon="10.4876017"><ele>147.0</ele><time>2026-03-29T08:05:50.416Z</time></trkpt><trkpt lat="45.42242" lon="10.4877767"><ele>147.75</ele><time>2026-03-29T08:05:51.416Z</time></trkpt><trkpt lat="45.4224667" lon="10.4879417"><ele>148.5</ele><time>2026-03-29T08:05:52.416Z</time></trkpt><trkpt lat="45.42253" lon="10.48811"><ele>149.25</ele><time>2026-03-29T08:05:53.416Z</time></trkpt><trkpt lat="45.4226083" lon="10.488245"><ele>150.0</ele><time>2026-03-29T08:05:54.416Z</time></trkpt><trkpt lat="45.4227083" lon="10.48838"><ele>150.0</ele><time>2026-03-29T08:05:55.416Z</time></trkpt><trkpt lat="45.42283" lon="10.4885017"><ele>150.0</ele><time>2026-03-29T08:05:56.416Z</time></trkpt><trkpt lat="45.4229733" lon="10.488605"><ele>150.0</ele><time>2026-03-29T08:05:57.416Z</time></trkpt><trkpt lat="45.4231117" lon="10.48872"><ele>151.0</ele><time>2026-03-29T08:05:58.416Z</time></trkpt><trkpt lat="45.4232633" lon="10.488835"><ele>152.0</ele><time>2026-03-29T08:05:59.417Z</time></trkpt><trkpt lat="45.4234267" lon="10.488965"><ele>153.0</ele><time>2026-03-29T08:06:00.416Z</time></trkpt><trkpt lat="45.42357" lon="10.4890967"><ele>153.0</ele><time>2026-03-29T08:06:01.416Z</time></trkpt><trkpt lat="45.4237117" lon="10.4892267"><ele>153.0</ele><time>2026-03-29T08:06:02.416Z</time></trkpt><trkpt lat="45.4238633" lon="10.4893633"><ele>153.0</ele><time>2026-03-29T08:06:03.416Z</time></trkpt><trkpt lat="45.4239917" lon="10.4895317"><ele>152.66666666666666</ele><time>2026-03-29T08:06:04.416Z</time></trkpt><trkpt lat="45.424125" lon="10.489715"><ele>152.33333333333331</ele><time>2026-03-29T08:06:05.416Z</time></trkpt><trkpt lat="45.4242683" lon="10.4899067"><ele>152.0</ele><time>2026-03-29T08:06:06.417Z</time></trkpt><trkpt lat="45.4244133" lon="10.4901117"><ele>152.0</ele><time>2026-03-29T08:06:07.416Z</time></trkpt><trkpt lat="45.42455" lon="10.4903083"><ele>152.0</ele><time>2026-03-29T08:06:08.416Z</time></trkpt><trkpt lat="45.4246833" lon="10.490475"><ele>152.0</ele><time>2026-03-29T08:06:09.417Z</time></trkpt><trkpt lat="45.4247867" lon="10.4906233"><ele>153.0</ele><time>2026-03-29T08:06:10.416Z</time></trkpt><trkpt lat="45.4248767" lon="10.4907567"><ele>154.0</ele><time>2026-03-29T08:06:11.417Z</time></trkpt><trkpt lat="45.4249633" lon="10.490875"><ele>155.0</ele><time>2026-03-29T08:06:12.416Z</time></trkpt><trkpt lat="45.425005" lon="10.4909833"><ele>156.0</ele><time>2026-03-29T08:06:13.416Z</time></trkpt><trkpt lat="45.425025" lon="10.491095"><ele>157.0</ele><time>2026-03-29T08:06:14.417Z</time></trkpt><trkpt lat="45.4250417" lon="10.49119"><ele>156.33333333333334</ele><time>2026-03-29T08:06:15.416Z</time></trkpt><trkpt lat="45.4250517" lon="10.491325"><ele>155.66666666666669</ele><time>2026-03-29T08:06:17.416Z</time></trkpt><trkpt lat="45.425035" lon="10.4914717"><ele>155.0</ele><time>2026-03-29T08:06:19.416Z</time></trkpt><trkpt lat="45.4250167" lon="10.491565"><ele>154.33333333333334</ele><time>2026-03-29T08:06:20.417Z</time></trkpt><trkpt lat="45.4250067" lon="10.4916783"><ele>153.66666666666666</ele><time>2026-03-29T08:06:21.416Z</time></trkpt><trkpt lat="45.4250017" lon="10.4918083"><ele>153.0</ele><time>2026-03-29T08:06:22.416Z</time></trkpt><trkpt lat="45.4250017" lon="10.4919517"><ele>152.0</ele><time>2026-03-29T08:06:23.417Z</time></trkpt><trkpt lat="45.4250033" lon="10.4921133"><ele>151.0</ele><time>2026-03-29T08:06:24.416Z</time></trkpt><trkpt lat="45.4250067" lon="10.4922717"><ele>150.0</ele><time>2026-03-29T08:06:25.416Z</time></trkpt><trkpt lat="45.4250183" lon="10.4924133"><ele>149.0</ele><time>2026-03-29T08:06:26.416Z</time></trkpt><trkpt lat="45.4250417" lon="10.4925583"><ele>148.0</ele><time>2026-03-29T08:06:27.417Z</time></trkpt><trkpt lat="45.4250733" lon="10.4926833"><ele>148.0</ele><time>2026-03-29T08:06:28.416Z</time></trkpt><trkpt lat="45.4251067" lon="10.4927683"><ele>148.0</ele><time>2026-03-29T08:06:29.416Z</time></trkpt><trkpt lat="45.4251683" lon="10.4928467"><ele>148.0</ele><time>2026-03-29T08:06:30.416Z</time></trkpt><trkpt lat="45.42525" lon="10.4929133"><ele>148.0</ele><time>2026-03-29T08:06:31.416Z</time></trkpt><trkpt lat="45.425335" lon="10.492975"><ele>148.0</ele><time>2026-03-29T08:06:32.416Z</time></trkpt><trkpt lat="45.4254167" lon="10.49303"><ele>148.0</ele><time>2026-03-29T08:06:33.416Z</time></trkpt><trkpt lat="45.4254983" lon="10.4930733"><ele>147.5</ele><time>2026-03-29T08:06:34.416Z</time></trkpt><trkpt lat="45.4255767" lon="10.4931183"><ele>147.0</ele><time>2026-03-29T08:06:35.417Z</time></trkpt><trkpt lat="45.4256567" lon="10.4931767"><ele>146.5</ele><time>2026-03-29T08:06:36.416Z</time></trkpt><trkpt lat="45.425735" lon="10.4932367"><ele>146.0</ele><time>2026-03-29T08:06:37.416Z</time></trkpt><trkpt lat="45.425805" lon="10.4932817"><ele>145.5</ele><time>2026-03-29T08:06:38.416Z</time></trkpt><trkpt lat="45.425875" lon="10.4933217"><ele>145.0</ele><time>2026-03-29T08:06:39.416Z</time></trkpt><trkpt lat="45.4259417" lon="10.4933517"><ele>145.0</ele><time>2026-03-29T08:06:40.416Z</time></trkpt><trkpt lat="45.426005" lon="10.4933717"><ele>145.0</ele><time>2026-03-29T08:06:41.416Z</time></trkpt><trkpt lat="45.4260733" lon="10.4933933"><ele>145.0</ele><time>2026-03-29T08:06:42.417Z</time></trkpt><trkpt lat="45.426135" lon="10.49344"><ele>145.0</ele><time>2026-03-29T08:06:43.416Z</time></trkpt><trkpt lat="45.42621" lon="10.4934783"><ele>145.0</ele><time>2026-03-29T08:06:44.416Z</time></trkpt><trkpt lat="45.4262983" lon="10.493535"><ele>145.0</ele><time>2026-03-29T08:06:45.416Z</time></trkpt><trkpt lat="45.4264017" lon="10.49362"><ele>144.25</ele><time>2026-03-29T08:06:46.417Z</time></trkpt><trkpt lat="45.42651" lon="10.493705"><ele>143.5</ele><time>2026-03-29T08:06:47.416Z</time></trkpt><trkpt lat="45.4266217" lon="10.49379"><ele>142.75</ele><time>2026-03-29T08:06:48.416Z</time></trkpt><trkpt lat="45.4267483" lon="10.4939017"><ele>142.0</ele><time>2026-03-29T08:06:49.416Z</time></trkpt><trkpt lat="45.4268733" lon="10.4939933"><ele>142.0</ele><time>2026-03-29T08:06:50.416Z</time></trkpt><trkpt lat="45.4269867" lon="10.4940667"><ele>142.0</ele><time>2026-03-29T08:06:51.416Z</time></trkpt><trkpt lat="45.42709" lon="10.4941083"><ele>142.0</ele><time>2026-03-29T08:06:52.416Z</time></trkpt><trkpt lat="45.4271833" lon="10.4941367"><ele>142.0</ele><time>2026-03-29T08:06:53.416Z</time></trkpt><trkpt lat="45.4272917" lon="10.4941267"><ele>142.0</ele><time>2026-03-29T08:06:54.416Z</time></trkpt><trkpt lat="45.427415" lon="10.494105"><ele>143.0</ele><time>2026-03-29T08:06:55.416Z</time></trkpt><trkpt lat="45.4275567" lon="10.494075"><ele>144.0</ele><time>2026-03-29T08:06:56.416Z</time></trkpt><trkpt lat="45.4277067" lon="10.49405"><ele>145.0</ele><time>2026-03-29T08:06:57.416Z</time></trkpt><trkpt lat="45.4278667" lon="10.4940233"><ele>145.75</ele><time>2026-03-29T08:06:58.416Z</time></trkpt><trkpt lat="45.4280183" lon="10.4940083"><ele>146.5</ele><time>2026-03-29T08:06:59.416Z</time></trkpt><trkpt lat="45.4281683" lon="10.4940067"><ele>147.25</ele><time>2026-03-29T08:07:00.416Z</time></trkpt><trkpt lat="45.4282883" lon="10.49405"><ele>148.0</ele><time>2026-03-29T08:07:01.416Z</time></trkpt><trkpt lat="45.4284133" lon="10.4941183"><ele>148.0</ele><time>2026-03-29T08:07:02.416Z</time></trkpt><trkpt lat="45.4285417" lon="10.494215"><ele>148.0</ele><time>2026-03-29T08:07:03.416Z</time></trkpt><trkpt lat="45.4286833" lon="10.49429"><ele>148.0</ele><time>2026-03-29T08:07:04.416Z</time></trkpt><trkpt lat="45.42884" lon="10.49439"><ele>148.66666666666669</ele><time>2026-03-29T08:07:05.416Z</time></trkpt><trkpt lat="45.4290017" lon="10.4944767"><ele>149.33333333333334</ele><time>2026-03-29T08:07:06.416Z</time></trkpt><trkpt lat="45.4291567" lon="10.4945683"><ele>150.0</ele><time>2026-03-29T08:07:07.416Z</time></trkpt><trkpt lat="45.429295" lon="10.4946483"><ele>148.5</ele><time>2026-03-29T08:07:08.416Z</time></trkpt><trkpt lat="45.4294267" lon="10.4947333"><ele>147.0</ele><time>2026-03-29T08:07:09.416Z</time></trkpt><trkpt lat="45.4295533" lon="10.494825"><ele>145.5</ele><time>2026-03-29T08:07:10.416Z</time></trkpt><trkpt lat="45.4296683" lon="10.4949333"><ele>144.0</ele><time>2026-03-29T08:07:11.416Z</time></trkpt><trkpt lat="45.4297733" lon="10.49504"><ele>145.2</ele><time>2026-03-29T08:07:12.416Z</time></trkpt><trkpt lat="45.429875" lon="10.4951333"><ele>146.4</ele><time>2026-03-29T08:07:13.416Z</time></trkpt><trkpt lat="45.4299567" lon="10.4952317"><ele>147.6</ele><time>2026-03-29T08:07:14.416Z</time></trkpt><trkpt lat="45.430025" lon="10.4953333"><ele>148.8</ele><time>2026-03-29T08:07:15.416Z</time></trkpt><trkpt lat="45.4300883" lon="10.4954233"><ele>150.0</ele><time>2026-03-29T08:07:16.417Z</time></trkpt><trkpt lat="45.4301517" lon="10.4955133"><ele>150.0</ele><time>2026-03-29T08:07:17.416Z</time></trkpt><trkpt lat="45.4302" lon="10.4956017"><ele>150.0</ele><time>2026-03-29T08:07:18.416Z</time></trkpt><trkpt lat="45.4302383" lon="10.495705"><ele>150.0</ele><time>2026-03-29T08:07:19.416Z</time></trkpt><trkpt lat="45.4302767" lon="10.4958133"><ele>150.0</ele><time>2026-03-29T08:07:20.416Z</time></trkpt><trkpt lat="45.43032" lon="10.4959167"><ele>150.0</ele><time>2026-03-29T08:07:21.416Z</time></trkpt><trkpt lat="45.4303617" lon="10.4960083"><ele>150.0</ele><time>2026-03-29T08:07:22.416Z</time></trkpt><trkpt lat="45.430405" lon="10.4960933"><ele>149.99999999999997</ele><time>2026-03-29T08:07:23.416Z</time></trkpt><trkpt lat="45.4304633" lon="10.4961767"><ele>150.0</ele><time>2026-03-29T08:07:24.416Z</time></trkpt><trkpt lat="45.430515" lon="10.4962533"><ele>150.0</ele><time>2026-03-29T08:07:25.416Z</time></trkpt><trkpt lat="45.4305683" lon="10.496325"><ele>150.0</ele><time>2026-03-29T08:07:26.416Z</time></trkpt><trkpt lat="45.4306183" lon="10.4963983"><ele>150.0</ele><time>2026-03-29T08:07:27.416Z</time></trkpt><trkpt lat="45.4306717" lon="10.49647"><ele>149.99999999999997</ele><time>2026-03-29T08:07:28.416Z</time></trkpt><trkpt lat="45.4307267" lon="10.4965367"><ele>150.0</ele><time>2026-03-29T08:07:29.416Z</time></trkpt><trkpt lat="45.4307967" lon="10.496605"><ele>151.6</ele><time>2026-03-29T08:07:30.416Z</time></trkpt><trkpt lat="45.4308817" lon="10.4966867"><ele>153.2</ele><time>2026-03-29T08:07:31.417Z</time></trkpt><trkpt lat="45.4309683" lon="10.4967767"><ele>154.8</ele><time>2026-03-29T08:07:32.416Z</time></trkpt><trkpt lat="45.43106" lon="10.49687"><ele>156.4</ele><time>2026-03-29T08:07:33.417Z</time></trkpt><trkpt lat="45.4311583" lon="10.4969483"><ele>158.0</ele><time>2026-03-29T08:07:34.417Z</time></trkpt><trkpt lat="45.4312433" lon="10.497045"><ele>157.6</ele><time>2026-03-29T08:07:35.417Z</time></trkpt><trkpt lat="45.4313217" lon="10.4971367"><ele>157.20000000000002</ele><time>2026-03-29T08:07:36.416Z</time></trkpt><trkpt lat="45.4313833" lon="10.4972433"><ele>156.8</ele><time>2026-03-29T08:07:37.417Z</time></trkpt><trkpt lat="45.4314333" lon="10.49738"><ele>156.4</ele><time>2026-03-29T08:07:38.416Z</time></trkpt><trkpt lat="45.43148" lon="10.497515"><ele>156.0</ele><time>2026-03-29T08:07:39.416Z</time></trkpt><trkpt lat="45.4315267" lon="10.49765"><ele>156.0</ele><time>2026-03-29T08:07:40.416Z</time></trkpt><trkpt lat="45.431575" lon="10.4978067"><ele>156.0</ele><time>2026-03-29T08:07:41.417Z</time></trkpt><trkpt lat="45.4316233" lon="10.4979583"><ele>156.0</ele><time>2026-03-29T08:07:42.416Z</time></trkpt><trkpt lat="45.4316683" lon="10.4981067"><ele>156.0</ele><time>2026-03-29T08:07:43.416Z</time></trkpt><trkpt lat="45.4317017" lon="10.498265"><ele>154.8</ele><time>2026-03-29T08:07:44.416Z</time></trkpt><trkpt lat="45.4317317" lon="10.4984183"><ele>153.6</ele><time>2026-03-29T08:07:45.416Z</time></trkpt><trkpt lat="45.431755" lon="10.4985833"><ele>152.4</ele><time>2026-03-29T08:07:46.416Z</time></trkpt><trkpt lat="45.4317533" lon="10.4987417"><ele>151.2</ele><time>2026-03-29T08:07:47.416Z</time></trkpt><trkpt lat="45.43175" lon="10.498895"><ele>150.0</ele><time>2026-03-29T08:07:48.416Z</time></trkpt><trkpt lat="45.43173" lon="10.49905"><ele>150.0</ele><time>2026-03-29T08:07:49.416Z</time></trkpt><trkpt lat="45.431705" lon="10.499215"><ele>150.0</ele><time>2026-03-29T08:07:50.416Z</time></trkpt><trkpt lat="45.4316767" lon="10.4993817"><ele>150.0</ele><time>2026-03-29T08:07:51.416Z</time></trkpt><trkpt lat="45.43165" lon="10.4995383"><ele>150.0</ele><time>2026-03-29T08:07:52.417Z</time></trkpt><trkpt lat="45.43162" lon="10.4996983"><ele>150.0</ele><time>2026-03-29T08:07:53.416Z</time></trkpt><trkpt lat="45.43159" lon="10.4998683"><ele>150.0</ele><time>2026-03-29T08:07:54.416Z</time></trkpt><trkpt lat="45.4315683" lon="10.5000417"><ele>150.0</ele><time>2026-03-29T08:07:55.416Z</time></trkpt><trkpt lat="45.431535" lon="10.5002133"><ele>150.0</ele><time>2026-03-29T08:07:56.416Z</time></trkpt><trkpt lat="45.4315067" lon="10.5003767"><ele>149.5</ele><time>2026-03-29T08:07:57.417Z</time></trkpt><trkpt lat="45.431475" lon="10.5005367"><ele>149.0</ele><time>2026-03-29T08:07:58.416Z</time></trkpt><trkpt lat="45.4314433" lon="10.5007"><ele>148.5</ele><time>2026-03-29T08:07:59.417Z</time></trkpt><trkpt lat="45.43141" lon="10.5008533"><ele>148.0</ele><time>2026-03-29T08:08:00.416Z</time></trkpt><trkpt lat="45.431375" lon="10.5010117"><ele>148.0</ele><time>2026-03-29T08:08:01.417Z</time></trkpt><trkpt lat="45.4313433" lon="10.50118"><ele>148.0</ele><time>2026-03-29T08:08:02.417Z</time></trkpt><trkpt lat="45.43131" lon="10.5013383"><ele>148.0</ele><time>2026-03-29T08:08:03.416Z</time></trkpt><trkpt lat="45.43128" lon="10.5015"><ele>148.0</ele><time>2026-03-29T08:08:04.417Z</time></trkpt><trkpt lat="45.431255" lon="10.50165"><ele>147.83333333333334</ele><time>2026-03-29T08:08:05.417Z</time></trkpt><trkpt lat="45.43123" lon="10.5017817"><ele>147.66666666666669</ele><time>2026-03-29T08:08:06.416Z</time></trkpt><trkpt lat="45.4312017" lon="10.5019"><ele>147.5</ele><time>2026-03-29T08:08:07.417Z</time></trkpt><trkpt lat="45.4311433" lon="10.5020367"><ele>147.33333333333334</ele><time>2026-03-29T08:08:09.416Z</time></trkpt><trkpt lat="45.431075" lon="10.5020667"><ele>147.16666666666666</ele><time>2026-03-29T08:08:11.416Z</time></trkpt><trkpt lat="45.4310233" lon="10.5020117"><ele>147.0</ele><time>2026-03-29T08:08:12.417Z</time></trkpt><trkpt lat="45.4309617" lon="10.50193"><ele>147.0</ele><time>2026-03-29T08:08:13.417Z</time></trkpt><trkpt lat="45.4308867" lon="10.50183"><ele>147.0</ele><time>2026-03-29T08:08:14.416Z</time></trkpt><trkpt lat="45.4307883" lon="10.5017183"><ele>147.0</ele><time>2026-03-29T08:08:15.416Z</time></trkpt><trkpt lat="45.4306733" lon="10.501595"><ele>147.0</ele><time>2026-03-29T08:08:16.416Z</time></trkpt><trkpt lat="45.43054" lon="10.5014783"><ele>147.0</ele><time>2026-03-29T08:08:17.416Z</time></trkpt><trkpt lat="45.4304" lon="10.50134"><ele>147.0</ele><time>2026-03-29T08:08:18.417Z</time></trkpt><trkpt lat="45.43027" lon="10.5012033"><ele>147.0</ele><time>2026-03-29T08:08:19.416Z</time></trkpt><trkpt lat="45.4301483" lon="10.501075"><ele>146.6</ele><time>2026-03-29T08:08:20.416Z</time></trkpt><trkpt lat="45.43005" lon="10.5009617"><ele>146.2</ele><time>2026-03-29T08:08:21.417Z</time></trkpt><trkpt lat="45.4299617" lon="10.5008683"><ele>145.8</ele><time>2026-03-29T08:08:22.416Z</time></trkpt><trkpt lat="45.4298767" lon="10.50078"><ele>145.4</ele><time>2026-03-29T08:08:23.417Z</time></trkpt><trkpt lat="45.4298067" lon="10.50073"><ele>145.0</ele><time>2026-03-29T08:08:24.416Z</time></trkpt><trkpt lat="45.42969" lon="10.5007433"><ele>146.0</ele><time>2026-03-29T08:08:26.416Z</time></trkpt><trkpt lat="45.429635" lon="10.5008017"><ele>147.0</ele><time>2026-03-29T08:08:27.416Z</time></trkpt><trkpt lat="45.4295833" lon="10.5008833"><ele>148.0</ele><time>2026-03-29T08:08:28.416Z</time></trkpt><trkpt lat="45.4295283" lon="10.500995"><ele>149.0</ele><time>2026-03-29T08:08:29.416Z</time></trkpt><trkpt lat="45.4294683" lon="10.5011317"><ele>150.0</ele><time>2026-03-29T08:08:30.417Z</time></trkpt><trkpt lat="45.4294" lon="10.50128"><ele>150.25</ele><time>2026-03-29T08:08:31.416Z</time></trkpt><trkpt lat="45.4293233" lon="10.5014233"><ele>150.5</ele><time>2026-03-29T08:08:32.416Z</time></trkpt><trkpt lat="45.4292283" lon="10.5015533"><ele>150.75</ele><time>2026-03-29T08:08:33.417Z</time></trkpt><trkpt lat="45.4291383" lon="10.5016733"><ele>151.0</ele><time>2026-03-29T08:08:34.416Z</time></trkpt><trkpt lat="45.4290733" lon="10.5018"><ele>151.0</ele><time>2026-03-29T08:08:35.416Z</time></trkpt><trkpt lat="45.4290267" lon="10.501935"><ele>151.0</ele><time>2026-03-29T08:08:36.416Z</time></trkpt><trkpt lat="45.428985" lon="10.5020733"><ele>151.0</ele><time>2026-03-29T08:08:37.416Z</time></trkpt><trkpt lat="45.4289433" lon="10.502215"><ele>151.0</ele><time>2026-03-29T08:08:38.416Z</time></trkpt><trkpt lat="45.4288983" lon="10.5023567"><ele>151.0</ele><time>2026-03-29T08:08:39.416Z</time></trkpt><trkpt lat="45.4288533" lon="10.50251"><ele>151.2</ele><time>2026-03-29T08:08:40.416Z</time></trkpt><trkpt lat="45.4288067" lon="10.5026417"><ele>151.39999999999998</ele><time>2026-03-29T08:08:41.417Z</time></trkpt><trkpt lat="45.4287567" lon="10.50277"><ele>151.6</ele><time>2026-03-29T08:08:42.416Z</time></trkpt><trkpt lat="45.4287117" lon="10.5028817"><ele>151.79999999999998</ele><time>2026-03-29T08:08:43.416Z</time></trkpt><trkpt lat="45.4286633" lon="10.502955"><ele>152.0</ele><time>2026-03-29T08:08:44.416Z</time></trkpt><trkpt lat="45.4286" lon="10.5030317"><ele>151.6</ele><time>2026-03-29T08:08:45.416Z</time></trkpt><trkpt lat="45.4285233" lon="10.5031"><ele>151.2</ele><time>2026-03-29T08:08:46.416Z</time></trkpt><trkpt lat="45.428435" lon="10.5031533"><ele>150.8</ele><time>2026-03-29T08:08:47.416Z</time></trkpt><trkpt lat="45.4283583" lon="10.503195"><ele>150.4</ele><time>2026-03-29T08:08:48.416Z</time></trkpt><trkpt lat="45.4282817" lon="10.503245"><ele>150.0</ele><time>2026-03-29T08:08:49.416Z</time></trkpt><trkpt lat="45.4282" lon="10.5033217"><ele>150.0</ele><time>2026-03-29T08:08:50.416Z</time></trkpt><trkpt lat="45.4281433" lon="10.50341"><ele>150.0</ele><time>2026-03-29T08:08:51.416Z</time></trkpt><trkpt lat="45.42809" lon="10.5035117"><ele>150.0</ele><time>2026-03-29T08:08:52.417Z</time></trkpt><trkpt lat="45.4280467" lon="10.5035967"><ele>150.0</ele><time>2026-03-29T08:08:53.417Z</time></trkpt><trkpt lat="45.427995" lon="10.5036817"><ele>150.0</ele><time>2026-03-29T08:08:54.417Z</time></trkpt><trkpt lat="45.4279367" lon="10.503745"><ele>150.0</ele><time>2026-03-29T08:08:55.417Z</time></trkpt><trkpt lat="45.4278833" lon="10.5037967"><ele>147.8</ele><time>2026-03-29T08:08:56.416Z</time></trkpt><trkpt lat="45.427805" lon="10.503835"><ele>145.6</ele><time>2026-03-29T08:08:57.416Z</time></trkpt><trkpt lat="45.4277133" lon="10.5038833"><ele>143.4</ele><time>2026-03-29T08:08:58.416Z</time></trkpt><trkpt lat="45.42763" lon="10.503955"><ele>141.2</ele><time>2026-03-29T08:08:59.416Z</time></trkpt><trkpt lat="45.4275483" lon="10.50403"><ele>139.0</ele><time>2026-03-29T08:09:00.416Z</time></trkpt><trkpt lat="45.427465" lon="10.5040733"><ele>139.0</ele><time>2026-03-29T08:09:01.416Z</time></trkpt><trkpt lat="45.427355" lon="10.5041"><ele>139.0</ele><time>2026-03-29T08:09:02.417Z</time></trkpt><trkpt lat="45.42725" lon="10.5041167"><ele>139.0</ele><time>2026-03-29T08:09:03.417Z</time></trkpt><trkpt lat="45.427145" lon="10.5041183"><ele>139.0</ele><time>2026-03-29T08:09:04.417Z</time></trkpt><trkpt lat="45.4270417" lon="10.504105"><ele>139.0</ele><time>2026-03-29T08:09:05.416Z</time></trkpt><trkpt lat="45.4269417" lon="10.504085"><ele>139.2</ele><time>2026-03-29T08:09:06.417Z</time></trkpt><trkpt lat="45.4268367" lon="10.504085"><ele>139.4</ele><time>2026-03-29T08:09:07.416Z</time></trkpt><trkpt lat="45.426735" lon="10.504085"><ele>139.6</ele><time>2026-03-29T08:09:08.416Z</time></trkpt><trkpt lat="45.4266433" lon="10.5041017"><ele>139.8</ele><time>2026-03-29T08:09:09.416Z</time></trkpt><trkpt lat="45.426545" lon="10.5041267"><ele>140.0</ele><time>2026-03-29T08:09:10.416Z</time></trkpt><trkpt lat="45.4264483" lon="10.5041783"><ele>140.0</ele><time>2026-03-29T08:09:11.417Z</time></trkpt><trkpt lat="45.4263483" lon="10.5042517"><ele>140.0</ele><time>2026-03-29T08:09:12.416Z</time></trkpt><trkpt lat="45.4262483" lon="10.50435"><ele>140.0</ele><time>2026-03-29T08:09:13.417Z</time></trkpt><trkpt lat="45.426155" lon="10.504455"><ele>140.0</ele><time>2026-03-29T08:09:14.417Z</time></trkpt><trkpt lat="45.4260667" lon="10.5045417"><ele>137.8</ele><time>2026-03-29T08:09:15.416Z</time></trkpt><trkpt lat="45.4259717" lon="10.5046233"><ele>135.6</ele><time>2026-03-29T08:09:16.417Z</time></trkpt><trkpt lat="45.4258683" lon="10.5047083"><ele>133.4</ele><time>2026-03-29T08:09:17.416Z</time></trkpt><trkpt lat="45.4257767" lon="10.5047867"><ele>131.2</ele><time>2026-03-29T08:09:18.416Z</time></trkpt><trkpt lat="45.4257083" lon="10.5048483"><ele>129.0</ele><time>2026-03-29T08:09:19.416Z</time></trkpt><trkpt lat="45.425625" lon="10.5049367"><ele>129.0</ele><time>2026-03-29T08:09:21.416Z</time></trkpt><trkpt lat="45.4256817" lon="10.5049867"><ele>129.0</ele><time>2026-03-29T08:09:26.416Z</time></trkpt><trkpt lat="45.4258217" lon="10.5049517"><ele>129.0</ele><time>2026-03-29T08:09:28.416Z</time></trkpt><trkpt lat="45.4259117" lon="10.50492"><ele>129.0</ele><time>2026-03-29T08:09:29.416Z</time></trkpt><trkpt lat="45.4260133" lon="10.5048867"><ele>129.0</ele><time>2026-03-29T08:09:30.416Z</time></trkpt><trkpt lat="45.4261133" lon="10.50485"><ele>129.0</ele><time>2026-03-29T08:09:31.417Z</time></trkpt><trkpt lat="45.4262183" lon="10.5048117"><ele>129.0</ele><time>2026-03-29T08:09:32.416Z</time></trkpt><trkpt lat="45.4263167" lon="10.5047567"><ele>129.0</ele><time>2026-03-29T08:09:33.416Z</time></trkpt><trkpt lat="45.4263983" lon="10.5047083"><ele>129.0</ele><time>2026-03-29T08:09:34.417Z</time></trkpt><trkpt lat="45.4264667" lon="10.504685"><ele>129.0</ele><time>2026-03-29T08:09:35.416Z</time></trkpt><trkpt lat="45.4265317" lon="10.5046717"><ele>129.0</ele><time>2026-03-29T08:09:36.416Z</time></trkpt><trkpt lat="45.4266183" lon="10.504655"><ele>128.75</ele><time>2026-03-29T08:09:38.416Z</time></trkpt><trkpt lat="45.4267183" lon="10.504675"><ele>128.5</ele><time>2026-03-29T08:09:48.416Z</time></trkpt><trkpt lat="45.426855" lon="10.504695"><ele>128.25</ele><time>2026-03-29T08:09:50.416Z</time></trkpt><trkpt lat="45.4269583" lon="10.5047"><ele>128.0</ele><time>2026-03-29T08:09:51.416Z</time></trkpt><trkpt lat="45.427115" lon="10.5046917"><ele>128.5</ele><time>2026-03-29T08:09:52.416Z</time></trkpt><trkpt lat="45.427265" lon="10.5046967"><ele>129.0</ele><time>2026-03-29T08:09:53.416Z</time></trkpt><trkpt lat="45.4274" lon="10.5047267"><ele>129.5</ele><time>2026-03-29T08:09:54.417Z</time></trkpt><trkpt lat="45.427535" lon="10.504765"><ele>130.0</ele><time>2026-03-29T08:09:55.416Z</time></trkpt><trkpt lat="45.4276817" lon="10.5048283"><ele>130.0</ele><time>2026-03-29T08:09:56.416Z</time></trkpt><trkpt lat="45.42784" lon="10.5049033"><ele>130.0</ele><time>2026-03-29T08:09:57.416Z</time></trkpt><trkpt lat="45.4279983" lon="10.5049767"><ele>130.0</ele><time>2026-03-29T08:09:58.416Z</time></trkpt><trkpt lat="45.4281633" lon="10.50505"><ele>131.33333333333334</ele><time>2026-03-29T08:09:59.416Z</time></trkpt><trkpt lat="45.428335" lon="10.505135"><ele>132.66666666666666</ele><time>2026-03-29T08:10:00.417Z</time></trkpt><trkpt lat="45.4285083" lon="10.505205"><ele>134.0</ele><time>2026-03-29T08:10:01.416Z</time></trkpt><trkpt lat="45.4286933" lon="10.5052817"><ele>133.33333333333331</ele><time>2026-03-29T08:10:02.416Z</time></trkpt><trkpt lat="45.4288717" lon="10.5053767"><ele>132.66666666666666</ele><time>2026-03-29T08:10:03.416Z</time></trkpt><trkpt lat="45.4290533" lon="10.5054733"><ele>132.0</ele><time>2026-03-29T08:10:04.416Z</time></trkpt><trkpt lat="45.4292433" lon="10.505555"><ele>132.0</ele><time>2026-03-29T08:10:05.417Z</time></trkpt><trkpt lat="45.429435" lon="10.505655"><ele>132.0</ele><time>2026-03-29T08:10:06.416Z</time></trkpt><trkpt lat="45.4296083" lon="10.5057517"><ele>132.0</ele><time>2026-03-29T08:10:07.416Z</time></trkpt><trkpt lat="45.42978" lon="10.5058733"><ele>134.0</ele><time>2026-03-29T08:10:08.416Z</time></trkpt><trkpt lat="45.4299283" lon="10.505995"><ele>136.0</ele><time>2026-03-29T08:10:09.416Z</time></trkpt><trkpt lat="45.4300667" lon="10.5061133"><ele>138.0</ele><time>2026-03-29T08:10:10.416Z</time></trkpt><trkpt lat="45.4302217" lon="10.5062067"><ele>137.0</ele><time>2026-03-29T08:10:11.416Z</time></trkpt><trkpt lat="45.4303883" lon="10.5062567"><ele>136.0</ele><time>2026-03-29T08:10:12.416Z</time></trkpt><trkpt lat="45.4305617" lon="10.5062833"><ele>135.0</ele><time>2026-03-29T08:10:13.416Z</time></trkpt><trkpt lat="45.43074" lon="10.5062917"><ele>135.0</ele><time>2026-03-29T08:10:14.416Z</time></trkpt><trkpt lat="45.4309183" lon="10.50629"><ele>135.0</ele><time>2026-03-29T08:10:15.416Z</time></trkpt><trkpt lat="45.4310933" lon="10.5062833"><ele>135.0</ele><time>2026-03-29T08:10:16.417Z</time></trkpt><trkpt lat="45.4312417" lon="10.5063033"><ele>135.6</ele><time>2026-03-29T08:10:17.416Z</time></trkpt><trkpt lat="45.43137" lon="10.5063183"><ele>136.2</ele><time>2026-03-29T08:10:18.417Z</time></trkpt><trkpt lat="45.4314883" lon="10.5063383"><ele>136.8</ele><time>2026-03-29T08:10:19.416Z</time></trkpt><trkpt lat="45.4315883" lon="10.5063567"><ele>137.4</ele><time>2026-03-29T08:10:20.417Z</time></trkpt><trkpt lat="45.431675" lon="10.5063767"><ele>138.0</ele><time>2026-03-29T08:10:21.416Z</time></trkpt><trkpt lat="45.4317517" lon="10.506395"><ele>138.0</ele><time>2026-03-29T08:10:22.417Z</time></trkpt><trkpt lat="45.43185" lon="10.5064417"><ele>138.0</ele><time>2026-03-29T08:10:24.416Z</time></trkpt><trkpt lat="45.4318783" lon="10.5065767"><ele>138.0</ele><time>2026-03-29T08:10:27.416Z</time></trkpt><trkpt lat="45.4318067" lon="10.506755"><ele>138.0</ele><time>2026-03-29T08:10:29.416Z</time></trkpt><trkpt lat="45.4317367" lon="10.5068833"><ele>138.0</ele><time>2026-03-29T08:10:30.417Z</time></trkpt><trkpt lat="45.4316583" lon="10.5070267"><ele>138.0</ele><time>2026-03-29T08:10:31.416Z</time></trkpt><trkpt lat="45.431565" lon="10.5071617"><ele>138.0</ele><time>2026-03-29T08:10:32.416Z</time></trkpt><trkpt lat="45.4314367" lon="10.5072867"><ele>138.0</ele><time>2026-03-29T08:10:33.416Z</time></trkpt><trkpt lat="45.4312983" lon="10.5073667"><ele>136.66666666666666</ele><time>2026-03-29T08:10:34.416Z</time></trkpt><trkpt lat="45.4311483" lon="10.5074617"><ele>135.33333333333331</ele><time>2026-03-29T08:10:35.416Z</time></trkpt><trkpt lat="45.4309933" lon="10.5075783"><ele>134.0</ele><time>2026-03-29T08:10:36.416Z</time></trkpt><trkpt lat="45.4308333" lon="10.507705"><ele>134.0</ele><time>2026-03-29T08:10:37.416Z</time></trkpt><trkpt lat="45.4306733" lon="10.5078533"><ele>134.0</ele><time>2026-03-29T08:10:38.416Z</time></trkpt><trkpt lat="45.4305183" lon="10.5080083"><ele>134.0</ele><time>2026-03-29T08:10:39.416Z</time></trkpt><trkpt lat="45.430345" lon="10.5081717"><ele>132.0</ele><time>2026-03-29T08:10:40.416Z</time></trkpt><trkpt lat="45.430165" lon="10.5083233"><ele>130.0</ele><time>2026-03-29T08:10:41.416Z</time></trkpt><trkpt lat="45.42999" lon="10.5084833"><ele>128.0</ele><time>2026-03-29T08:10:42.416Z</time></trkpt><trkpt lat="45.42984" lon="10.508655"><ele>127.33333333333333</ele><time>2026-03-29T08:10:43.416Z</time></trkpt><trkpt lat="45.4297083" lon="10.5088567"><ele>126.66666666666666</ele><time>2026-03-29T08:10:44.416Z</time></trkpt><trkpt lat="45.4296" lon="10.5090817"><ele>126.0</ele><time>2026-03-29T08:10:45.416Z</time></trkpt><trkpt lat="45.4294883" lon="10.509335"><ele>125.33333333333334</ele><time>2026-03-29T08:10:46.416Z</time></trkpt><trkpt lat="45.42939" lon="10.5095933"><ele>124.66666666666667</ele><time>2026-03-29T08:10:47.416Z</time></trkpt><trkpt lat="45.42928" lon="10.5098367"><ele>124.0</ele><time>2026-03-29T08:10:48.416Z</time></trkpt><trkpt lat="45.42917" lon="10.5100667"><ele>124.0</ele><time>2026-03-29T08:10:49.416Z</time></trkpt><trkpt lat="45.4290717" lon="10.510285"><ele>124.0</ele><time>2026-03-29T08:10:50.416Z</time></trkpt><trkpt lat="45.42898" lon="10.5104767"><ele>124.0</ele><time>2026-03-29T08:10:51.416Z</time></trkpt><trkpt lat="45.4289033" lon="10.5106467"><ele>123.80000000000001</ele><time>2026-03-29T08:10:52.416Z</time></trkpt><trkpt lat="45.42883" lon="10.5107817"><ele>123.60000000000001</ele><time>2026-03-29T08:10:53.417Z</time></trkpt><trkpt lat="45.42877" lon="10.5108933"><ele>123.4</ele><time>2026-03-29T08:10:54.416Z</time></trkpt><trkpt lat="45.4287217" lon="10.511"><ele>123.2</ele><time>2026-03-29T08:10:55.416Z</time></trkpt><trkpt lat="45.428685" lon="10.511095"><ele>123.0</ele><time>2026-03-29T08:10:56.416Z</time></trkpt><trkpt lat="45.4286767" lon="10.5111967"><ele>122.4</ele><time>2026-03-29T08:10:57.416Z</time></trkpt><trkpt lat="45.42869" lon="10.5112983"><ele>121.80000000000001</ele><time>2026-03-29T08:10:58.417Z</time></trkpt><trkpt lat="45.4287117" lon="10.5114233"><ele>121.2</ele><time>2026-03-29T08:10:59.416Z</time></trkpt><trkpt lat="45.428725" lon="10.5115767"><ele>120.6</ele><time>2026-03-29T08:11:00.416Z</time></trkpt><trkpt lat="45.42871" lon="10.5117383"><ele>120.0</ele><time>2026-03-29T08:11:01.417Z</time></trkpt><trkpt lat="45.4286783" lon="10.5119183"><ele>121.0</ele><time>2026-03-29T08:11:02.416Z</time></trkpt><trkpt lat="45.428655" lon="10.5121167"><ele>122.0</ele><time>2026-03-29T08:11:03.416Z</time></trkpt><trkpt lat="45.42863" lon="10.5123283"><ele>123.0</ele><time>2026-03-29T08:11:04.417Z</time></trkpt><trkpt lat="45.4286" lon="10.5125517"><ele>123.0</ele><time>2026-03-29T08:11:05.417Z</time></trkpt><trkpt lat="45.4285717" lon="10.512785"><ele>123.0</ele><time>2026-03-29T08:11:06.416Z</time></trkpt><trkpt lat="45.4285383" lon="10.5130167"><ele>123.0</ele><time>2026-03-29T08:11:07.416Z</time></trkpt><trkpt lat="45.428505" lon="10.5132333"><ele>123.0</ele><time>2026-03-29T08:11:08.416Z</time></trkpt><trkpt lat="45.4284717" lon="10.5134183"><ele>123.00000000000001</ele><time>2026-03-29T08:11:09.416Z</time></trkpt><trkpt lat="45.4284467" lon="10.51358"><ele>123.00000000000001</ele><time>2026-03-29T08:11:10.416Z</time></trkpt><trkpt lat="45.4284217" lon="10.513715"><ele>123.0</ele><time>2026-03-29T08:11:11.416Z</time></trkpt><trkpt lat="45.4284067" lon="10.5138483"><ele>123.0</ele><time>2026-03-29T08:11:12.416Z</time></trkpt><trkpt lat="45.4284" lon="10.5139683"><ele>122.83333333333333</ele><time>2026-03-29T08:11:13.417Z</time></trkpt><trkpt lat="45.4283833" lon="10.51407"><ele>122.66666666666666</ele><time>2026-03-29T08:11:14.416Z</time></trkpt><trkpt lat="45.428355" lon="10.5141517"><ele>122.5</ele><time>2026-03-29T08:11:15.416Z</time></trkpt><trkpt lat="45.4282717" lon="10.5142717"><ele>122.33333333333333</ele><time>2026-03-29T08:11:17.416Z</time></trkpt><trkpt lat="45.4282783" lon="10.5144"><ele>122.16666666666666</ele><time>2026-03-29T08:11:19.416Z</time></trkpt><trkpt lat="45.4282967" lon="10.514505"><ele>122.0</ele><time>2026-03-29T08:11:20.417Z</time></trkpt><trkpt lat="45.42831" lon="10.5146333"><ele>122.0</ele><time>2026-03-29T08:11:21.416Z</time></trkpt><trkpt lat="45.4282983" lon="10.5147683"><ele>121.99999999999999</ele><time>2026-03-29T08:11:22.417Z</time></trkpt><trkpt lat="45.4282733" lon="10.5149083"><ele>121.99999999999999</ele><time>2026-03-29T08:11:23.416Z</time></trkpt><trkpt lat="45.42825" lon="10.5150567"><ele>122.0</ele><time>2026-03-29T08:11:24.416Z</time></trkpt><trkpt lat="45.4282283" lon="10.5152017"><ele>122.0</ele><time>2026-03-29T08:11:25.416Z</time></trkpt><trkpt lat="45.4282067" lon="10.5153567"><ele>122.19999999999999</ele><time>2026-03-29T08:11:26.416Z</time></trkpt><trkpt lat="45.4281767" lon="10.515495"><ele>122.39999999999999</ele><time>2026-03-29T08:11:27.416Z</time></trkpt><trkpt lat="45.4281583" lon="10.5156333"><ele>122.60000000000001</ele><time>2026-03-29T08:11:28.416Z</time></trkpt><trkpt lat="45.4281483" lon="10.5157817"><ele>122.80000000000001</ele><time>2026-03-29T08:11:29.416Z</time></trkpt><trkpt lat="45.4281283" lon="10.5159117"><ele>123.0</ele><time>2026-03-29T08:11:30.417Z</time></trkpt><trkpt lat="45.4280883" lon="10.51599"><ele>123.0</ele><time>2026-03-29T08:11:31.416Z</time></trkpt><trkpt lat="45.4280367" lon="10.51605"><ele>123.00000000000001</ele><time>2026-03-29T08:11:32.416Z</time></trkpt><trkpt lat="45.4279117" lon="10.5160617"><ele>123.00000000000001</ele><time>2026-03-29T08:11:34.417Z</time></trkpt><trkpt lat="45.42782" lon="10.51604"><ele>123.0</ele><time>2026-03-29T08:11:35.417Z</time></trkpt><trkpt lat="45.427715" lon="10.5159983"><ele>123.0</ele><time>2026-03-29T08:11:36.417Z</time></trkpt><trkpt lat="45.4276033" lon="10.515955"><ele>122.80000000000001</ele><time>2026-03-29T08:11:37.416Z</time></trkpt><trkpt lat="45.4275133" lon="10.51591"><ele>122.60000000000001</ele><time>2026-03-29T08:11:38.416Z</time></trkpt><trkpt lat="45.4274517" lon="10.5158683"><ele>122.39999999999999</ele><time>2026-03-29T08:11:39.417Z</time></trkpt><trkpt lat="45.42736" lon="10.5157767"><ele>122.19999999999999</ele><time>2026-03-29T08:11:41.417Z</time></trkpt><trkpt lat="45.4272633" lon="10.5156733"><ele>122.0</ele><time>2026-03-29T08:11:43.417Z</time></trkpt><trkpt lat="45.4272167" lon="10.5156"><ele>122.0</ele><time>2026-03-29T08:11:44.417Z</time></trkpt><trkpt lat="45.427165" lon="10.5154683"><ele>121.99999999999999</ele><time>2026-03-29T08:11:46.416Z</time></trkpt><trkpt lat="45.4270967" lon="10.5153817"><ele>121.99999999999999</ele><time>2026-03-29T08:11:48.417Z</time></trkpt><trkpt lat="45.426985" lon="10.5153717"><ele>122.0</ele><time>2026-03-29T08:11:50.416Z</time></trkpt><trkpt lat="45.4269267" lon="10.51542"><ele>122.0</ele><time>2026-03-29T08:11:51.416Z</time></trkpt><trkpt lat="45.4268617" lon="10.5154967"><ele>122.19999999999999</ele><time>2026-03-29T08:11:52.416Z</time></trkpt><trkpt lat="45.4267867" lon="10.5155667"><ele>122.39999999999999</ele><time>2026-03-29T08:11:53.416Z</time></trkpt><trkpt lat="45.4267" lon="10.515595"><ele>122.60000000000001</ele><time>2026-03-29T08:11:54.417Z</time></trkpt><trkpt lat="45.4266133" lon="10.5156083"><ele>122.80000000000001</ele><time>2026-03-29T08:11:55.416Z</time></trkpt><trkpt lat="45.4265033" lon="10.5155633"><ele>123.0</ele><time>2026-03-29T08:11:56.416Z</time></trkpt><trkpt lat="45.4263783" lon="10.5154967"><ele>122.66666666666666</ele><time>2026-03-29T08:11:57.416Z</time></trkpt><trkpt lat="45.4262367" lon="10.515415"><ele>122.33333333333333</ele><time>2026-03-29T08:11:58.416Z</time></trkpt><trkpt lat="45.4260917" lon="10.515325"><ele>122.0</ele><time>2026-03-29T08:11:59.417Z</time></trkpt><trkpt lat="45.425945" lon="10.5152233"><ele>122.0</ele><time>2026-03-29T08:12:00.417Z</time></trkpt><trkpt lat="45.4257833" lon="10.5151267"><ele>122.0</ele><time>2026-03-29T08:12:01.416Z</time></trkpt><trkpt lat="45.42562" lon="10.5150167"><ele>122.0</ele><time>2026-03-29T08:12:02.416Z</time></trkpt><trkpt lat="45.4254567" lon="10.5149"><ele>122.0</ele><time>2026-03-29T08:12:03.417Z</time></trkpt><trkpt lat="45.4252833" lon="10.5147733"><ele>122.0</ele><time>2026-03-29T08:12:04.416Z</time></trkpt><trkpt lat="45.42511" lon="10.5146383"><ele>122.0</ele><time>2026-03-29T08:12:05.416Z</time></trkpt><trkpt lat="45.4249367" lon="10.5144967"><ele>121.66666666666666</ele><time>2026-03-29T08:12:06.416Z</time></trkpt><trkpt lat="45.4247533" lon="10.514345"><ele>121.33333333333334</ele><time>2026-03-29T08:12:07.416Z</time></trkpt><trkpt lat="45.42458" lon="10.514205"><ele>121.0</ele><time>2026-03-29T08:12:08.416Z</time></trkpt><trkpt lat="45.4244" lon="10.514055"><ele>120.66666666666667</ele><time>2026-03-29T08:12:09.416Z</time></trkpt><trkpt lat="45.4242183" lon="10.513895"><ele>120.33333333333334</ele><time>2026-03-29T08:12:10.416Z</time></trkpt><trkpt lat="45.42404" lon="10.513735"><ele>120.0</ele><time>2026-03-29T08:12:11.416Z</time></trkpt><trkpt lat="45.4238617" lon="10.51358"><ele>120.0</ele><time>2026-03-29T08:12:12.416Z</time></trkpt><trkpt lat="45.423695" lon="10.513425"><ele>120.0</ele><time>2026-03-29T08:12:13.417Z</time></trkpt><trkpt lat="45.4235267" lon="10.5132533"><ele>120.0</ele><time>2026-03-29T08:12:14.416Z</time></trkpt><trkpt lat="45.4233717" lon="10.5130983"><ele>120.0</ele><time>2026-03-29T08:12:15.416Z</time></trkpt><trkpt lat="45.4232117" lon="10.512955"><ele>120.0</ele><time>2026-03-29T08:12:16.416Z</time></trkpt><trkpt lat="45.4230533" lon="10.5128317"><ele>120.0</ele><time>2026-03-29T08:12:17.416Z</time></trkpt><trkpt lat="45.42288" lon="10.5127183"><ele>120.66666666666666</ele><time>2026-03-29T08:12:18.416Z</time></trkpt><trkpt lat="45.4227167" lon="10.5126283"><ele>121.33333333333333</ele><time>2026-03-29T08:12:19.416Z</time></trkpt><trkpt lat="45.4225633" lon="10.5125183"><ele>122.0</ele><time>2026-03-29T08:12:20.416Z</time></trkpt><trkpt lat="45.4224267" lon="10.5123983"><ele>122.0</ele><time>2026-03-29T08:12:21.416Z</time></trkpt><trkpt lat="45.4223" lon="10.5122467"><ele>122.0</ele><time>2026-03-29T08:12:22.416Z</time></trkpt><trkpt lat="45.4221833" lon="10.512095"><ele>122.0</ele><time>2026-03-29T08:12:23.416Z</time></trkpt><trkpt lat="45.4220833" lon="10.51192"><ele>121.75</ele><time>2026-03-29T08:12:24.417Z</time></trkpt><trkpt lat="45.422005" lon="10.5117583"><ele>121.5</ele><time>2026-03-29T08:12:25.416Z</time></trkpt><trkpt lat="45.4219383" lon="10.5116083"><ele>121.25</ele><time>2026-03-29T08:12:26.416Z</time></trkpt><trkpt lat="45.421895" lon="10.5114683"><ele>121.0</ele><time>2026-03-29T08:12:27.416Z</time></trkpt><trkpt lat="45.4218833" lon="10.511325"><ele>120.8</ele><time>2026-03-29T08:12:28.416Z</time></trkpt><trkpt lat="45.4218817" lon="10.5111683"><ele>120.6</ele><time>2026-03-29T08:12:29.416Z</time></trkpt><trkpt lat="45.4218733" lon="10.51103"><ele>120.4</ele><time>2026-03-29T08:12:30.416Z</time></trkpt><trkpt lat="45.4218417" lon="10.51092"><ele>120.2</ele><time>2026-03-29T08:12:31.416Z</time></trkpt><trkpt lat="45.4217333" lon="10.510835"><ele>120.0</ele><time>2026-03-29T08:12:33.416Z</time></trkpt><trkpt lat="45.4216167" lon="10.5107817"><ele>120.0</ele><time>2026-03-29T08:12:35.416Z</time></trkpt><trkpt lat="45.421545" lon="10.5107267"><ele>120.0</ele><time>2026-03-29T08:12:36.417Z</time></trkpt><trkpt lat="45.4214767" lon="10.5106583"><ele>120.0</ele><time>2026-03-29T08:12:37.416Z</time></trkpt><trkpt lat="45.4214017" lon="10.5105817"><ele>120.0</ele><time>2026-03-29T08:12:38.416Z</time></trkpt><trkpt lat="45.4212933" lon="10.510515"><ele>120.0</ele><time>2026-03-29T08:12:39.416Z</time></trkpt><trkpt lat="45.4211717" lon="10.510485"><ele>120.4</ele><time>2026-03-29T08:12:40.416Z</time></trkpt><trkpt lat="45.4210467" lon="10.51049"><ele>120.8</ele><time>2026-03-29T08:12:41.417Z</time></trkpt><trkpt lat="45.4209383" lon="10.5105133"><ele>121.19999999999999</ele><time>2026-03-29T08:12:42.416Z</time></trkpt><trkpt lat="45.4208433" lon="10.5105667"><ele>121.6</ele><time>2026-03-29T08:12:43.416Z</time></trkpt><trkpt lat="45.4207567" lon="10.51062"><ele>122.0</ele><time>2026-03-29T08:12:44.417Z</time></trkpt><trkpt lat="45.4206833" lon="10.510705"><ele>122.0</ele><time>2026-03-29T08:12:45.416Z</time></trkpt><trkpt lat="45.4206183" lon="10.5108233"><ele>121.99999999999999</ele><time>2026-03-29T08:12:46.416Z</time></trkpt><trkpt lat="45.42057" lon="10.5109617"><ele>121.99999999999999</ele><time>2026-03-29T08:12:47.416Z</time></trkpt><trkpt lat="45.4205433" lon="10.5111233"><ele>122.0</ele><time>2026-03-29T08:12:48.416Z</time></trkpt><trkpt lat="45.4205383" lon="10.5112633"><ele>122.0</ele><time>2026-03-29T08:12:49.416Z</time></trkpt><trkpt lat="45.4205417" lon="10.5113767"><ele>121.8</ele><time>2026-03-29T08:12:50.417Z</time></trkpt><trkpt lat="45.4205583" lon="10.5114783"><ele>121.6</ele><time>2026-03-29T08:12:51.416Z</time></trkpt><trkpt lat="45.420585" lon="10.5115883"><ele>121.39999999999999</ele><time>2026-03-29T08:12:52.416Z</time></trkpt><trkpt lat="45.4206333" lon="10.5117067"><ele>121.19999999999999</ele><time>2026-03-29T08:12:53.416Z</time></trkpt><trkpt lat="45.4207" lon="10.5118417"><ele>121.0</ele><time>2026-03-29T08:12:54.416Z</time></trkpt><trkpt lat="45.4207683" lon="10.5119717"><ele>121.00000000000001</ele><time>2026-03-29T08:12:55.416Z</time></trkpt><trkpt lat="45.4208117" lon="10.51208"><ele>121.0</ele><time>2026-03-29T08:12:56.416Z</time></trkpt><trkpt lat="45.4208267" lon="10.5121717"><ele>121.0</ele><time>2026-03-29T08:12:57.417Z</time></trkpt><trkpt lat="45.4207533" lon="10.51223"><ele>121.0</ele><time>2026-03-29T08:12:59.416Z</time></trkpt><trkpt lat="45.420675" lon="10.51222"><ele>121.00000000000001</ele><time>2026-03-29T08:13:00.416Z</time></trkpt><trkpt lat="45.420575" lon="10.512245"><ele>121.0</ele><time>2026-03-29T08:13:01.416Z</time></trkpt><trkpt lat="45.42046" lon="10.5122917"><ele>121.0</ele><time>2026-03-29T08:13:02.416Z</time></trkpt><trkpt lat="45.4203117" lon="10.51236"><ele>121.0</ele><time>2026-03-29T08:13:03.417Z</time></trkpt><trkpt lat="45.4201467" lon="10.5124417"><ele>121.0</ele><time>2026-03-29T08:13:04.417Z</time></trkpt><trkpt lat="45.419975" lon="10.5125133"><ele>121.0</ele><time>2026-03-29T08:13:05.417Z</time></trkpt><trkpt lat="45.419795" lon="10.5125967"><ele>121.0</ele><time>2026-03-29T08:13:06.416Z</time></trkpt><trkpt lat="45.4196183" lon="10.5126617"><ele>121.0</ele><time>2026-03-29T08:13:07.416Z</time></trkpt><trkpt lat="45.4194217" lon="10.51271"><ele>121.33333333333334</ele><time>2026-03-29T08:13:08.416Z</time></trkpt><trkpt lat="45.4192067" lon="10.5127333"><ele>121.66666666666666</ele><time>2026-03-29T08:13:09.416Z</time></trkpt><trkpt lat="45.4189883" lon="10.51274"><ele>122.0</ele><time>2026-03-29T08:13:10.416Z</time></trkpt><trkpt lat="45.4187667" lon="10.5127517"><ele>119.5</ele><time>2026-03-29T08:13:11.417Z</time></trkpt><trkpt lat="45.41854" lon="10.5127633"><ele>117.0</ele><time>2026-03-29T08:13:12.417Z</time></trkpt><trkpt lat="45.41831" lon="10.5127783"><ele>117.0</ele><time>2026-03-29T08:13:13.416Z</time></trkpt><trkpt lat="45.4180667" lon="10.512795"><ele>117.0</ele><time>2026-03-29T08:13:14.416Z</time></trkpt><trkpt lat="45.417815" lon="10.5128117"><ele>116.0</ele><time>2026-03-29T08:13:15.416Z</time></trkpt><trkpt lat="45.4175633" lon="10.5128367"><ele>115.0</ele><time>2026-03-29T08:13:16.416Z</time></trkpt><trkpt lat="45.4173167" lon="10.512845"><ele>115.5</ele><time>2026-03-29T08:13:17.416Z</time></trkpt><trkpt lat="45.4170567" lon="10.5128567"><ele>116.0</ele><time>2026-03-29T08:13:18.417Z</time></trkpt><trkpt lat="45.4168" lon="10.5128767"><ele>116.0</ele><time>2026-03-29T08:13:19.416Z</time></trkpt><trkpt lat="45.4165567" lon="10.5128983"><ele>116.0</ele><time>2026-03-29T08:13:20.417Z</time></trkpt><trkpt lat="45.41632" lon="10.512925"><ele>116.0</ele><time>2026-03-29T08:13:21.416Z</time></trkpt><trkpt lat="45.4160983" lon="10.5129517"><ele>116.0</ele><time>2026-03-29T08:13:22.416Z</time></trkpt><trkpt lat="45.4159067" lon="10.5129717"><ele>116.0</ele><time>2026-03-29T08:13:23.416Z</time></trkpt><trkpt lat="45.41573" lon="10.5129783"><ele>116.0</ele><time>2026-03-29T08:13:24.416Z</time></trkpt><trkpt lat="45.4155683" lon="10.5129783"><ele>116.0</ele><time>2026-03-29T08:13:25.417Z</time></trkpt><trkpt lat="45.4154183" lon="10.5129683"><ele>116.0</ele><time>2026-03-29T08:13:26.416Z</time></trkpt><trkpt lat="45.4152883" lon="10.5129383"><ele>116.0</ele><time>2026-03-29T08:13:27.417Z</time></trkpt><trkpt lat="45.4151817" lon="10.5129183"><ele>115.83333333333333</ele><time>2026-03-29T08:13:28.416Z</time></trkpt><trkpt lat="45.4150967" lon="10.5128883"><ele>115.66666666666666</ele><time>2026-03-29T08:13:29.417Z</time></trkpt><trkpt lat="45.4150233" lon="10.5128833"><ele>115.5</ele><time>2026-03-29T08:13:30.416Z</time></trkpt><trkpt lat="45.4149483" lon="10.51293"><ele>115.33333333333334</ele><time>2026-03-29T08:13:32.416Z</time></trkpt><trkpt lat="45.4149283" lon="10.5130867"><ele>115.16666666666667</ele><time>2026-03-29T08:13:34.417Z</time></trkpt><trkpt lat="45.41493" lon="10.5132133"><ele>115.0</ele><time>2026-03-29T08:13:35.416Z</time></trkpt><trkpt lat="45.4149333" lon="10.5133567"><ele>115.2</ele><time>2026-03-29T08:13:36.416Z</time></trkpt><trkpt lat="45.4149333" lon="10.5135083"><ele>115.4</ele><time>2026-03-29T08:13:37.416Z</time></trkpt><trkpt lat="45.4149367" lon="10.5136383"><ele>115.6</ele><time>2026-03-29T08:13:38.416Z</time></trkpt><trkpt lat="45.41493" lon="10.5137517"><ele>115.8</ele><time>2026-03-29T08:13:39.416Z</time></trkpt><trkpt lat="45.4149233" lon="10.5138467"><ele>116.0</ele><time>2026-03-29T08:13:40.416Z</time></trkpt><trkpt lat="45.4148517" lon="10.5139733"><ele>116.0</ele><time>2026-03-29T08:13:42.416Z</time></trkpt><trkpt lat="45.414785" lon="10.5140083"><ele>116.0</ele><time>2026-03-29T08:13:43.416Z</time></trkpt><trkpt lat="45.4146917" lon="10.5140183"><ele>116.0</ele><time>2026-03-29T08:13:44.417Z</time></trkpt><trkpt lat="45.4145783" lon="10.5140067"><ele>116.0</ele><time>2026-03-29T08:13:45.417Z</time></trkpt><trkpt lat="45.4144483" lon="10.513995"><ele>116.0</ele><time>2026-03-29T08:13:46.416Z</time></trkpt><trkpt lat="45.41432" lon="10.5139983"><ele>116.0</ele><time>2026-03-29T08:13:47.416Z</time></trkpt><trkpt lat="45.414195" lon="10.514025"><ele>116.0</ele><time>2026-03-29T08:13:48.416Z</time></trkpt><trkpt lat="45.414075" lon="10.514075"><ele>116.0</ele><time>2026-03-29T08:13:49.416Z</time></trkpt><trkpt lat="45.413965" lon="10.5141583"><ele>116.0</ele><time>2026-03-29T08:13:50.416Z</time></trkpt><trkpt lat="45.4138383" lon="10.5142267"><ele>116.4</ele><time>2026-03-29T08:13:51.416Z</time></trkpt><trkpt lat="45.4137233" lon="10.5142733"><ele>116.8</ele><time>2026-03-29T08:13:52.417Z</time></trkpt><trkpt lat="45.41361" lon="10.5143133"><ele>117.20000000000002</ele><time>2026-03-29T08:13:53.416Z</time></trkpt><trkpt lat="45.41352" lon="10.51436"><ele>117.60000000000001</ele><time>2026-03-29T08:13:54.416Z</time></trkpt><trkpt lat="45.413445" lon="10.51442"><ele>118.0</ele><time>2026-03-29T08:13:55.417Z</time></trkpt><trkpt lat="45.4133833" lon="10.5145267"><ele>117.60000000000001</ele><time>2026-03-29T08:13:56.417Z</time></trkpt><trkpt lat="45.413345" lon="10.514655"><ele>117.20000000000002</ele><time>2026-03-29T08:13:57.416Z</time></trkpt><trkpt lat="45.4133167" lon="10.5148017"><ele>116.8</ele><time>2026-03-29T08:13:58.416Z</time></trkpt><trkpt lat="45.4132967" lon="10.51495"><ele>116.4</ele><time>2026-03-29T08:13:59.416Z</time></trkpt><trkpt lat="45.4132783" lon="10.5150967"><ele>116.0</ele><time>2026-03-29T08:14:00.416Z</time></trkpt><trkpt lat="45.413255" lon="10.5152367"><ele>116.0</ele><time>2026-03-29T08:14:01.416Z</time></trkpt><trkpt lat="45.413225" lon="10.5153717"><ele>116.0</ele><time>2026-03-29T08:14:02.417Z</time></trkpt><trkpt lat="45.4131833" lon="10.5155"><ele>116.0</ele><time>2026-03-29T08:14:03.417Z</time></trkpt><trkpt lat="45.4131417" lon="10.515635"><ele>116.0</ele><time>2026-03-29T08:14:04.416Z</time></trkpt><trkpt lat="45.4130883" lon="10.5157667"><ele>116.0</ele><time>2026-03-29T08:14:05.416Z</time></trkpt><trkpt lat="45.4130417" lon="10.5158983"><ele>115.75</ele><time>2026-03-29T08:14:06.416Z</time></trkpt><trkpt lat="45.4129883" lon="10.5160367"><ele>115.5</ele><time>2026-03-29T08:14:07.416Z</time></trkpt><trkpt lat="45.4129383" lon="10.5161933"><ele>115.25</ele><time>2026-03-29T08:14:08.416Z</time></trkpt><trkpt lat="45.4128767" lon="10.516355"><ele>115.0</ele><time>2026-03-29T08:14:09.417Z</time></trkpt><trkpt lat="45.412815" lon="10.51653"><ele>114.75</ele><time>2026-03-29T08:14:10.416Z</time></trkpt><trkpt lat="45.4127517" lon="10.51671"><ele>114.5</ele><time>2026-03-29T08:14:11.416Z</time></trkpt><trkpt lat="45.41269" lon="10.5169083"><ele>114.25</ele><time>2026-03-29T08:14:12.416Z</time></trkpt><trkpt lat="45.41263" lon="10.5171117"><ele>114.0</ele><time>2026-03-29T08:14:13.416Z</time></trkpt><trkpt lat="45.412555" lon="10.51731"><ele>114.0</ele><time>2026-03-29T08:14:14.417Z</time></trkpt><trkpt lat="45.4124767" lon="10.5174667"><ele>114.0</ele><time>2026-03-29T08:14:15.416Z</time></trkpt><trkpt lat="45.41238" lon="10.5175967"><ele>114.0</ele><time>2026-03-29T08:14:16.416Z</time></trkpt><trkpt lat="45.412275" lon="10.517735"><ele>114.0</ele><time>2026-03-29T08:14:17.416Z</time></trkpt><trkpt lat="45.4121667" lon="10.51789"><ele>115.66666666666666</ele><time>2026-03-29T08:14:18.416Z</time></trkpt><trkpt lat="45.41204" lon="10.5180217"><ele>117.33333333333333</ele><time>2026-03-29T08:14:19.416Z</time></trkpt><trkpt lat="45.41193" lon="10.518175"><ele>119.0</ele><time>2026-03-29T08:14:20.416Z</time></trkpt><trkpt lat="45.411825" lon="10.5183317"><ele>119.0</ele><time>2026-03-29T08:14:21.416Z</time></trkpt><trkpt lat="45.4117167" lon="10.5185233"><ele>119.0</ele><time>2026-03-29T08:14:22.416Z</time></trkpt><trkpt lat="45.4116333" lon="10.518705"><ele>119.0</ele><time>2026-03-29T08:14:23.416Z</time></trkpt><trkpt lat="45.41155" lon="10.51887"><ele>119.0</ele><time>2026-03-29T08:14:24.417Z</time></trkpt><trkpt lat="45.4114783" lon="10.519"><ele>119.0</ele><time>2026-03-29T08:14:25.416Z</time></trkpt><trkpt lat="45.41142" lon="10.5191117"><ele>119.0</ele><time>2026-03-29T08:14:26.416Z</time></trkpt><trkpt lat="45.4113733" lon="10.5192083"><ele>119.0</ele><time>2026-03-29T08:14:27.416Z</time></trkpt><trkpt lat="45.41135" lon="10.5193683"><ele>119.0</ele><time>2026-03-29T08:14:29.417Z</time></trkpt><trkpt lat="45.4114183" lon="10.5195117"><ele>118.66666666666666</ele><time>2026-03-29T08:14:31.416Z</time></trkpt><trkpt lat="45.4114717" lon="10.5195883"><ele>118.33333333333333</ele><time>2026-03-29T08:14:32.416Z</time></trkpt><trkpt lat="45.41152" lon="10.519665"><ele>118.0</ele><time>2026-03-29T08:14:33.416Z</time></trkpt><trkpt lat="45.4115533" lon="10.5197717"><ele>117.66666666666666</ele><time>2026-03-29T08:14:34.416Z</time></trkpt><trkpt lat="45.41157" lon="10.51987"><ele>117.33333333333333</ele><time>2026-03-29T08:14:35.416Z</time></trkpt><trkpt lat="45.41157" lon="10.5199733"><ele>117.0</ele><time>2026-03-29T08:14:36.417Z</time></trkpt><trkpt lat="45.4115717" lon="10.5200833"><ele>117.0</ele><time>2026-03-29T08:14:37.416Z</time></trkpt><trkpt lat="45.4115717" lon="10.5201917"><ele>117.0</ele><time>2026-03-29T08:14:38.416Z</time></trkpt><trkpt lat="45.411565" lon="10.5202967"><ele>117.0</ele><time>2026-03-29T08:14:39.416Z</time></trkpt><trkpt lat="45.4115617" lon="10.52041"><ele>117.0</ele><time>2026-03-29T08:14:40.416Z</time></trkpt><trkpt lat="45.41156" lon="10.5205317"><ele>117.0</ele><time>2026-03-29T08:14:41.416Z</time></trkpt><trkpt lat="45.4115617" lon="10.5206483"><ele>117.0</ele><time>2026-03-29T08:14:42.416Z</time></trkpt><trkpt lat="45.411575" lon="10.520765"><ele>116.8</ele><time>2026-03-29T08:14:43.416Z</time></trkpt><trkpt lat="45.4116133" lon="10.5208733"><ele>116.6</ele><time>2026-03-29T08:14:44.416Z</time></trkpt><trkpt lat="45.41167" lon="10.5209667"><ele>116.39999999999999</ele><time>2026-03-29T08:14:45.416Z</time></trkpt><trkpt lat="45.41176" lon="10.5210433"><ele>116.19999999999999</ele><time>2026-03-29T08:14:46.416Z</time></trkpt><trkpt lat="45.411865" lon="10.5211067"><ele>116.0</ele><time>2026-03-29T08:14:47.416Z</time></trkpt><trkpt lat="45.4119633" lon="10.5211683"><ele>116.16666666666666</ele><time>2026-03-29T08:14:48.416Z</time></trkpt><trkpt lat="45.4120433" lon="10.5212383"><ele>116.33333333333333</ele><time>2026-03-29T08:14:49.417Z</time></trkpt><trkpt lat="45.412105" lon="10.5213067"><ele>116.5</ele><time>2026-03-29T08:14:50.416Z</time></trkpt><trkpt lat="45.4121417" lon="10.5214067"><ele>116.66666666666666</ele><time>2026-03-29T08:14:51.416Z</time></trkpt><trkpt lat="45.412165" lon="10.52152"><ele>116.83333333333333</ele><time>2026-03-29T08:14:52.416Z</time></trkpt><trkpt lat="45.412175" lon="10.5216417"><ele>117.0</ele><time>2026-03-29T08:14:53.416Z</time></trkpt><trkpt lat="45.4121533" lon="10.5217783"><ele>117.0</ele><time>2026-03-29T08:14:54.416Z</time></trkpt><trkpt lat="45.4121217" lon="10.5219133"><ele>116.99999999999999</ele><time>2026-03-29T08:14:55.416Z</time></trkpt><trkpt lat="45.4120783" lon="10.5220383"><ele>116.99999999999999</ele><time>2026-03-29T08:14:56.417Z</time></trkpt><trkpt lat="45.4120417" lon="10.5221133"><ele>117.0</ele><time>2026-03-29T08:14:57.416Z</time></trkpt><trkpt lat="45.4119567" lon="10.5221717"><ele>117.0</ele><time>2026-03-29T08:14:59.416Z</time></trkpt><trkpt lat="45.41182" lon="10.5220867"><ele>117.0</ele><time>2026-03-29T08:15:01.417Z</time></trkpt><trkpt lat="45.4117183" lon="10.522015"><ele>117.0</ele><time>2026-03-29T08:15:02.416Z</time></trkpt><trkpt lat="45.4116033" lon="10.5219533"><ele>117.0</ele><time>2026-03-29T08:15:03.417Z</time></trkpt><trkpt lat="45.4114783" lon="10.521915"><ele>117.0</ele><time>2026-03-29T08:15:04.416Z</time></trkpt><trkpt lat="45.4113467" lon="10.5219017"><ele>117.33333333333334</ele><time>2026-03-29T08:15:05.416Z</time></trkpt><trkpt lat="45.4111983" lon="10.5219117"><ele>117.66666666666667</ele><time>2026-03-29T08:15:06.416Z</time></trkpt><trkpt lat="45.4110383" lon="10.5219367"><ele>118.0</ele><time>2026-03-29T08:15:07.416Z</time></trkpt><trkpt lat="45.4108667" lon="10.5219983"><ele>117.66666666666667</ele><time>2026-03-29T08:15:08.416Z</time></trkpt><trkpt lat="45.4106817" lon="10.5220667"><ele>117.33333333333334</ele><time>2026-03-29T08:15:09.416Z</time></trkpt><trkpt lat="45.4105" lon="10.5221417"><ele>117.0</ele><time>2026-03-29T08:15:10.416Z</time></trkpt><trkpt lat="45.4103083" lon="10.5222333"><ele>118.0</ele><time>2026-03-29T08:15:11.416Z</time></trkpt><trkpt lat="45.41012" lon="10.52232"><ele>119.0</ele><time>2026-03-29T08:15:12.416Z</time></trkpt><trkpt lat="45.409955" lon="10.5223917"><ele>120.0</ele><time>2026-03-29T08:15:13.416Z</time></trkpt><trkpt lat="45.4098067" lon="10.52245"><ele>120.0</ele><time>2026-03-29T08:15:14.416Z</time></trkpt><trkpt lat="45.409665" lon="10.5225"><ele>120.0</ele><time>2026-03-29T08:15:15.417Z</time></trkpt><trkpt lat="45.4095267" lon="10.5225667"><ele>120.0</ele><time>2026-03-29T08:15:16.416Z</time></trkpt><trkpt lat="45.4094" lon="10.52263"><ele>120.0</ele><time>2026-03-29T08:15:17.416Z</time></trkpt><trkpt lat="45.4092767" lon="10.5226983"><ele>121.0</ele><time>2026-03-29T08:15:18.416Z</time></trkpt><trkpt lat="45.409165" lon="10.5227433"><ele>122.0</ele><time>2026-03-29T08:15:19.417Z</time></trkpt><trkpt lat="45.4090617" lon="10.52278"><ele>123.0</ele><time>2026-03-29T08:15:20.417Z</time></trkpt><trkpt lat="45.4089717" lon="10.5228183"><ele>124.0</ele><time>2026-03-29T08:15:21.416Z</time></trkpt><trkpt lat="45.408895" lon="10.5228483"><ele>125.0</ele><time>2026-03-29T08:15:22.417Z</time></trkpt><trkpt lat="45.4088317" lon="10.5228783"><ele>125.33333333333333</ele><time>2026-03-29T08:15:23.416Z</time></trkpt><trkpt lat="45.4087667" lon="10.5228983"><ele>125.66666666666666</ele><time>2026-03-29T08:15:24.416Z</time></trkpt><trkpt lat="45.4087033" lon="10.5229233"><ele>126.0</ele><time>2026-03-29T08:15:25.417Z</time></trkpt><trkpt lat="45.4086133" lon="10.5229533"><ele>126.33333333333334</ele><time>2026-03-29T08:15:27.416Z</time></trkpt><trkpt lat="45.408525" lon="10.5229867"><ele>126.66666666666667</ele><time>2026-03-29T08:15:29.416Z</time></trkpt><trkpt lat="45.4083967" lon="10.5230067"><ele>127.0</ele><time>2026-03-29T08:15:31.416Z</time></trkpt><trkpt lat="45.408315" lon="10.5230417"><ele>127.0</ele><time>2026-03-29T08:15:32.416Z</time></trkpt><trkpt lat="45.4082383" lon="10.52308"><ele>127.0</ele><time>2026-03-29T08:15:33.416Z</time></trkpt><trkpt lat="45.4081383" lon="10.5231483"><ele>127.0</ele><time>2026-03-29T08:15:34.416Z</time></trkpt><trkpt lat="45.408015" lon="10.5232517"><ele>127.0</ele><time>2026-03-29T08:15:35.416Z</time></trkpt><trkpt lat="45.4078867" lon="10.5233717"><ele>127.66666666666667</ele><time>2026-03-29T08:15:36.416Z</time></trkpt><trkpt lat="45.4077483" lon="10.5234983"><ele>128.33333333333334</ele><time>2026-03-29T08:15:37.416Z</time></trkpt><trkpt lat="45.4076133" lon="10.5236083"><ele>129.0</ele><time>2026-03-29T08:15:38.416Z</time></trkpt><trkpt lat="45.407465" lon="10.52373"><ele>129.33333333333334</ele><time>2026-03-29T08:15:39.417Z</time></trkpt><trkpt lat="45.4073133" lon="10.5238617"><ele>129.66666666666669</ele><time>2026-03-29T08:15:40.417Z</time></trkpt><trkpt lat="45.4071667" lon="10.5239783"><ele>130.0</ele><time>2026-03-29T08:15:41.416Z</time></trkpt><trkpt lat="45.4070083" lon="10.52409"><ele>131.33333333333334</ele><time>2026-03-29T08:15:42.416Z</time></trkpt><trkpt lat="45.40688" lon="10.5241833"><ele>132.66666666666666</ele><time>2026-03-29T08:15:43.416Z</time></trkpt><trkpt lat="45.4067367" lon="10.5242833"><ele>134.0</ele><time>2026-03-29T08:15:44.416Z</time></trkpt><trkpt lat="45.4065917" lon="10.5243883"><ele>134.0</ele><time>2026-03-29T08:15:45.416Z</time></trkpt><trkpt lat="45.40646" lon="10.5244933"><ele>134.0</ele><time>2026-03-29T08:15:46.416Z</time></trkpt><trkpt lat="45.406355" lon="10.5245733"><ele>134.0</ele><time>2026-03-29T08:15:47.416Z</time></trkpt><trkpt lat="45.406255" lon="10.524675"><ele>134.0</ele><time>2026-03-29T08:15:48.416Z</time></trkpt><trkpt lat="45.4061433" lon="10.5247817"><ele>132.66666666666666</ele><time>2026-03-29T08:15:49.416Z</time></trkpt><trkpt lat="45.4060467" lon="10.5249233"><ele>131.33333333333334</ele><time>2026-03-29T08:15:50.416Z</time></trkpt><trkpt lat="45.4059433" lon="10.52507"><ele>130.0</ele><time>2026-03-29T08:15:51.416Z</time></trkpt><trkpt lat="45.4058233" lon="10.5252333"><ele>130.33333333333334</ele><time>2026-03-29T08:15:52.416Z</time></trkpt><trkpt lat="45.4057083" lon="10.525405"><ele>130.66666666666666</ele><time>2026-03-29T08:15:53.416Z</time></trkpt><trkpt lat="45.405575" lon="10.52559"><ele>131.0</ele><time>2026-03-29T08:15:54.416Z</time></trkpt><trkpt lat="45.4054567" lon="10.5257617"><ele>131.25</ele><time>2026-03-29T08:15:55.416Z</time></trkpt><trkpt lat="45.4053483" lon="10.5259033"><ele>131.5</ele><time>2026-03-29T08:15:56.416Z</time></trkpt><trkpt lat="45.4052517" lon="10.5260367"><ele>131.75</ele><time>2026-03-29T08:15:57.416Z</time></trkpt><trkpt lat="45.4051533" lon="10.52617"><ele>132.0</ele><time>2026-03-29T08:15:58.416Z</time></trkpt><trkpt lat="45.4050567" lon="10.5263133"><ele>132.0</ele><time>2026-03-29T08:15:59.416Z</time></trkpt><trkpt lat="45.404955" lon="10.5264517"><ele>132.0</ele><time>2026-03-29T08:16:00.417Z</time></trkpt><trkpt lat="45.4048383" lon="10.5266067"><ele>132.0</ele><time>2026-03-29T08:16:01.416Z</time></trkpt><trkpt lat="45.4047133" lon="10.5267767"><ele>132.0</ele><time>2026-03-29T08:16:02.416Z</time></trkpt><trkpt lat="45.4045983" lon="10.526935"><ele>132.0</ele><time>2026-03-29T08:16:03.416Z</time></trkpt><trkpt lat="45.404475" lon="10.5271067"><ele>132.0</ele><time>2026-03-29T08:16:04.416Z</time></trkpt><trkpt lat="45.4043783" lon="10.5272583"><ele>132.25</ele><time>2026-03-29T08:16:05.416Z</time></trkpt><trkpt lat="45.40427" lon="10.5274017"><ele>132.5</ele><time>2026-03-29T08:16:06.416Z</time></trkpt><trkpt lat="45.404185" lon="10.5275167"><ele>132.75</ele><time>2026-03-29T08:16:07.417Z</time></trkpt><trkpt lat="45.404095" lon="10.52762"><ele>133.0</ele><time>2026-03-29T08:16:08.416Z</time></trkpt><trkpt lat="45.403995" lon="10.5276967"><ele>133.0</ele><time>2026-03-29T08:16:09.417Z</time></trkpt><trkpt lat="45.4039" lon="10.5277217"><ele>133.0</ele><time>2026-03-29T08:16:10.417Z</time></trkpt><trkpt lat="45.403795" lon="10.5277317"><ele>133.0</ele><time>2026-03-29T08:16:11.416Z</time></trkpt><trkpt lat="45.40367" lon="10.52773"><ele>133.0</ele><time>2026-03-29T08:16:12.416Z</time></trkpt><trkpt lat="45.4035333" lon="10.527735"><ele>133.66666666666669</ele><time>2026-03-29T08:16:13.416Z</time></trkpt><trkpt lat="45.4033867" lon="10.5277617"><ele>134.33333333333334</ele><time>2026-03-29T08:16:14.416Z</time></trkpt><trkpt lat="45.4032317" lon="10.5278067"><ele>135.0</ele><time>2026-03-29T08:16:15.416Z</time></trkpt><trkpt lat="45.40307" lon="10.5278533"><ele>135.0</ele><time>2026-03-29T08:16:16.416Z</time></trkpt><trkpt lat="45.402925" lon="10.5278917"><ele>135.0</ele><time>2026-03-29T08:16:17.416Z</time></trkpt><trkpt lat="45.40279" lon="10.5279333"><ele>135.0</ele><time>2026-03-29T08:16:18.416Z</time></trkpt><trkpt lat="45.402675" lon="10.5279783"><ele>135.0</ele><time>2026-03-29T08:16:19.416Z</time></trkpt><trkpt lat="45.4025617" lon="10.5280517"><ele>136.0</ele><time>2026-03-29T08:16:20.416Z</time></trkpt><trkpt lat="45.4024383" lon="10.5281517"><ele>137.0</ele><time>2026-03-29T08:16:21.417Z</time></trkpt><trkpt lat="45.4023033" lon="10.5282683"><ele>138.0</ele><time>2026-03-29T08:16:22.416Z</time></trkpt><trkpt lat="45.4021633" lon="10.5283917"><ele>138.0</ele><time>2026-03-29T08:16:23.417Z</time></trkpt><trkpt lat="45.402" lon="10.5285283"><ele>138.0</ele><time>2026-03-29T08:16:24.417Z</time></trkpt><trkpt lat="45.4018267" lon="10.5286783"><ele>138.0</ele><time>2026-03-29T08:16:25.416Z</time></trkpt><trkpt lat="45.4016667" lon="10.5288217"><ele>137.66666666666666</ele><time>2026-03-29T08:16:26.417Z</time></trkpt><trkpt lat="45.4015117" lon="10.5289567"><ele>137.33333333333331</ele><time>2026-03-29T08:16:27.416Z</time></trkpt><trkpt lat="45.40136" lon="10.5290833"><ele>137.0</ele><time>2026-03-29T08:16:28.416Z</time></trkpt><trkpt lat="45.40122" lon="10.5292167"><ele>136.66666666666666</ele><time>2026-03-29T08:16:29.416Z</time></trkpt><trkpt lat="45.40107" lon="10.52935"><ele>136.33333333333334</ele><time>2026-03-29T08:16:30.416Z</time></trkpt><trkpt lat="45.4009117" lon="10.5294817"><ele>136.0</ele><time>2026-03-29T08:16:31.417Z</time></trkpt><trkpt lat="45.400765" lon="10.5296133"><ele>135.66666666666669</ele><time>2026-03-29T08:16:32.417Z</time></trkpt><trkpt lat="45.400615" lon="10.5297417"><ele>135.33333333333334</ele><time>2026-03-29T08:16:33.416Z</time></trkpt><trkpt lat="45.40046" lon="10.529875"><ele>135.0</ele><time>2026-03-29T08:16:34.416Z</time></trkpt><trkpt lat="45.4003117" lon="10.5300067"><ele>135.66666666666666</ele><time>2026-03-29T08:16:35.416Z</time></trkpt><trkpt lat="45.40017" lon="10.5301367"><ele>136.33333333333331</ele><time>2026-03-29T08:16:36.416Z</time></trkpt><trkpt lat="45.4000367" lon="10.5302683"><ele>137.0</ele><time>2026-03-29T08:16:37.416Z</time></trkpt><trkpt lat="45.3999167" lon="10.5303717"><ele>136.75</ele><time>2026-03-29T08:16:38.416Z</time></trkpt><trkpt lat="45.3998083" lon="10.53048"><ele>136.5</ele><time>2026-03-29T08:16:39.416Z</time></trkpt><trkpt lat="45.3997" lon="10.530605"><ele>136.25</ele><time>2026-03-29T08:16:40.416Z</time></trkpt><trkpt lat="45.39958" lon="10.530735"><ele>136.0</ele><time>2026-03-29T08:16:41.416Z</time></trkpt><trkpt lat="45.3994683" lon="10.530865"><ele>135.0</ele><time>2026-03-29T08:16:42.416Z</time></trkpt><trkpt lat="45.3993667" lon="10.5309983"><ele>134.0</ele><time>2026-03-29T08:16:43.416Z</time></trkpt><trkpt lat="45.399295" lon="10.5311217"><ele>133.0</ele><time>2026-03-29T08:16:44.416Z</time></trkpt><trkpt lat="45.39922" lon="10.5312783"><ele>132.0</ele><time>2026-03-29T08:16:45.416Z</time></trkpt><trkpt lat="45.3991383" lon="10.531455"><ele>132.0</ele><time>2026-03-29T08:16:46.417Z</time></trkpt><trkpt lat="45.39906" lon="10.5316167"><ele>132.0</ele><time>2026-03-29T08:16:47.416Z</time></trkpt><trkpt lat="45.39897" lon="10.53177"><ele>132.0</ele><time>2026-03-29T08:16:48.416Z</time></trkpt><trkpt lat="45.39887" lon="10.53191"><ele>132.0</ele><time>2026-03-29T08:16:49.416Z</time></trkpt><trkpt lat="45.3987717" lon="10.5320283"><ele>131.2</ele><time>2026-03-29T08:16:50.416Z</time></trkpt><trkpt lat="45.3986783" lon="10.5321367"><ele>130.39999999999998</ele><time>2026-03-29T08:16:51.416Z</time></trkpt><trkpt lat="45.3985983" lon="10.532245"><ele>129.60000000000002</ele><time>2026-03-29T08:16:52.416Z</time></trkpt><trkpt lat="45.3985217" lon="10.5323417"><ele>128.8</ele><time>2026-03-29T08:16:53.417Z</time></trkpt><trkpt lat="45.3984617" lon="10.53243"><ele>128.0</ele><time>2026-03-29T08:16:54.417Z</time></trkpt><trkpt lat="45.3984067" lon="10.5325067"><ele>128.0</ele><time>2026-03-29T08:16:55.416Z</time></trkpt><trkpt lat="45.398365" lon="10.5325817"><ele>128.0</ele><time>2026-03-29T08:16:56.416Z</time></trkpt><trkpt lat="45.39831" lon="10.5327133"><ele>128.0</ele><time>2026-03-29T08:16:58.416Z</time></trkpt><trkpt lat="45.3983533" lon="10.532885"><ele>128.0</ele><time>2026-03-29T08:17:00.417Z</time></trkpt><trkpt lat="45.3984083" lon="10.53298"><ele>128.0</ele><time>2026-03-29T08:17:01.417Z</time></trkpt><trkpt lat="45.3984783" lon="10.5331033"><ele>128.0</ele><time>2026-03-29T08:17:02.417Z</time></trkpt><trkpt lat="45.398545" lon="10.53324"><ele>128.0</ele><time>2026-03-29T08:17:03.417Z</time></trkpt><trkpt lat="45.3986117" lon="10.5333967"><ele>128.0</ele><time>2026-03-29T08:17:04.416Z</time></trkpt><trkpt lat="45.39866" lon="10.533575"><ele>128.0</ele><time>2026-03-29T08:17:05.417Z</time></trkpt><trkpt lat="45.398715" lon="10.5337417"><ele>127.75</ele><time>2026-03-29T08:17:06.416Z</time></trkpt><trkpt lat="45.3987833" lon="10.5339"><ele>127.5</ele><time>2026-03-29T08:17:07.416Z</time></trkpt><trkpt lat="45.39887" lon="10.5340383"><ele>127.25</ele><time>2026-03-29T08:17:08.417Z</time></trkpt><trkpt lat="45.3989617" lon="10.5341583"><ele>127.0</ele><time>2026-03-29T08:17:09.417Z</time></trkpt><trkpt lat="45.3990583" lon="10.53426"><ele>127.0</ele><time>2026-03-29T08:17:10.417Z</time></trkpt><trkpt lat="45.3991517" lon="10.5343517"><ele>126.99999999999999</ele><time>2026-03-29T08:17:11.416Z</time></trkpt><trkpt lat="45.3992267" lon="10.534455"><ele>126.99999999999999</ele><time>2026-03-29T08:17:12.417Z</time></trkpt><trkpt lat="45.3992833" lon="10.53456"><ele>127.0</ele><time>2026-03-29T08:17:13.416Z</time></trkpt><trkpt lat="45.3993283" lon="10.5346767"><ele>127.0</ele><time>2026-03-29T08:17:14.416Z</time></trkpt><trkpt lat="45.39937" lon="10.5347917"><ele>127.8</ele><time>2026-03-29T08:17:15.416Z</time></trkpt><trkpt lat="45.3994083" lon="10.53492"><ele>128.6</ele><time>2026-03-29T08:17:16.416Z</time></trkpt><trkpt lat="45.3994333" lon="10.5350483"><ele>129.39999999999998</ele><time>2026-03-29T08:17:17.416Z</time></trkpt><trkpt lat="45.3994533" lon="10.5351817"><ele>130.2</ele><time>2026-03-29T08:17:18.417Z</time></trkpt><trkpt lat="45.3994733" lon="10.5353317"><ele>131.0</ele><time>2026-03-29T08:17:19.416Z</time></trkpt><trkpt lat="45.3994833" lon="10.53549"><ele>131.0</ele><time>2026-03-29T08:17:20.416Z</time></trkpt><trkpt lat="45.399485" lon="10.5356567"><ele>131.0</ele><time>2026-03-29T08:17:21.416Z</time></trkpt><trkpt lat="45.39948" lon="10.53584"><ele>131.0</ele><time>2026-03-29T08:17:22.416Z</time></trkpt><trkpt lat="45.3994583" lon="10.5360433"><ele>131.0</ele><time>2026-03-29T08:17:23.417Z</time></trkpt><trkpt lat="45.3994383" lon="10.53627"><ele>130.25</ele><time>2026-03-29T08:17:24.416Z</time></trkpt><trkpt lat="45.399425" lon="10.53649"><ele>129.5</ele><time>2026-03-29T08:17:25.416Z</time></trkpt><trkpt lat="45.3994083" lon="10.5366933"><ele>128.75</ele><time>2026-03-29T08:17:26.416Z</time></trkpt><trkpt lat="45.3993883" lon="10.5368933"><ele>128.0</ele><time>2026-03-29T08:17:27.416Z</time></trkpt><trkpt lat="45.3993617" lon="10.5371"><ele>126.66666666666666</ele><time>2026-03-29T08:17:28.416Z</time></trkpt><trkpt lat="45.39934" lon="10.5373167"><ele>125.33333333333334</ele><time>2026-03-29T08:17:29.415Z</time></trkpt><trkpt lat="45.3993133" lon="10.537525"><ele>124.0</ele><time>2026-03-29T08:17:30.416Z</time></trkpt><trkpt lat="45.3992667" lon="10.537735"><ele>123.0</ele><time>2026-03-29T08:17:31.416Z</time></trkpt><trkpt lat="45.3992167" lon="10.5379533"><ele>122.0</ele><time>2026-03-29T08:17:32.416Z</time></trkpt><trkpt lat="45.3991633" lon="10.538195"><ele>121.0</ele><time>2026-03-29T08:17:33.416Z</time></trkpt><trkpt lat="45.3991267" lon="10.5384383"><ele>121.0</ele><time>2026-03-29T08:17:34.416Z</time></trkpt><trkpt lat="45.3991017" lon="10.5386733"><ele>121.0</ele><time>2026-03-29T08:17:35.416Z</time></trkpt><trkpt lat="45.3990867" lon="10.5388983"><ele>121.0</ele><time>2026-03-29T08:17:36.416Z</time></trkpt><trkpt lat="45.3990783" lon="10.5391217"><ele>120.75</ele><time>2026-03-29T08:17:37.416Z</time></trkpt><trkpt lat="45.3990533" lon="10.5393333"><ele>120.5</ele><time>2026-03-29T08:17:38.416Z</time></trkpt><trkpt lat="45.3990317" lon="10.5395367"><ele>120.25</ele><time>2026-03-29T08:17:39.416Z</time></trkpt><trkpt lat="45.3990083" lon="10.5397333"><ele>120.0</ele><time>2026-03-29T08:17:40.417Z</time></trkpt><trkpt lat="45.398985" lon="10.5399133"><ele>119.5</ele><time>2026-03-29T08:17:41.416Z</time></trkpt><trkpt lat="45.3989317" lon="10.5400917"><ele>119.0</ele><time>2026-03-29T08:17:42.416Z</time></trkpt><trkpt lat="45.3988633" lon="10.54028"><ele>118.5</ele><time>2026-03-29T08:17:43.417Z</time></trkpt><trkpt lat="45.3988" lon="10.5404783"><ele>118.0</ele><time>2026-03-29T08:17:44.416Z</time></trkpt><trkpt lat="45.3987367" lon="10.5406567"><ele>118.0</ele><time>2026-03-29T08:17:45.415Z</time></trkpt><trkpt lat="45.39868" lon="10.540835"><ele>118.0</ele><time>2026-03-29T08:17:46.415Z</time></trkpt><trkpt lat="45.3986183" lon="10.5409867"><ele>118.0</ele><time>2026-03-29T08:17:47.415Z</time></trkpt><trkpt lat="45.3985817" lon="10.5411267"><ele>118.0</ele><time>2026-03-29T08:17:48.415Z</time></trkpt><trkpt lat="45.398565" lon="10.5412567"><ele>117.0</ele><time>2026-03-29T08:17:49.415Z</time></trkpt><trkpt lat="45.3985683" lon="10.541385"><ele>116.00000000000001</ele><time>2026-03-29T08:17:50.415Z</time></trkpt><trkpt lat="45.3985983" lon="10.5415333"><ele>115.00000000000001</ele><time>2026-03-29T08:17:51.416Z</time></trkpt><trkpt lat="45.3986617" lon="10.5416683"><ele>114.0</ele><time>2026-03-29T08:17:52.415Z</time></trkpt><trkpt lat="45.3987283" lon="10.5417867"><ele>113.0</ele><time>2026-03-29T08:17:53.416Z</time></trkpt><trkpt lat="45.3987717" lon="10.5419083"><ele>113.0</ele><time>2026-03-29T08:17:54.415Z</time></trkpt><trkpt lat="45.3987967" lon="10.542045"><ele>113.00000000000001</ele><time>2026-03-29T08:17:55.416Z</time></trkpt><trkpt lat="45.3987933" lon="10.5421667"><ele>113.00000000000001</ele><time>2026-03-29T08:17:56.416Z</time></trkpt><trkpt lat="45.3987533" lon="10.5423033"><ele>113.0</ele><time>2026-03-29T08:17:57.415Z</time></trkpt><trkpt lat="45.3986983" lon="10.5424517"><ele>113.0</ele><time>2026-03-29T08:17:58.415Z</time></trkpt><trkpt lat="45.398655" lon="10.542625"><ele>112.5</ele><time>2026-03-29T08:17:59.416Z</time></trkpt><trkpt lat="45.3986083" lon="10.54279"><ele>112.0</ele><time>2026-03-29T08:18:00.415Z</time></trkpt><trkpt lat="45.398565" lon="10.5429783"><ele>111.5</ele><time>2026-03-29T08:18:01.415Z</time></trkpt><trkpt lat="45.3985283" lon="10.5431633"><ele>111.0</ele><time>2026-03-29T08:18:02.415Z</time></trkpt><trkpt lat="45.39849" lon="10.5433217"><ele>111.0</ele><time>2026-03-29T08:18:03.416Z</time></trkpt><trkpt lat="45.3984383" lon="10.5434717"><ele>111.0</ele><time>2026-03-29T08:18:04.415Z</time></trkpt><trkpt lat="45.3983933" lon="10.5436117"><ele>111.0</ele><time>2026-03-29T08:18:05.415Z</time></trkpt><trkpt lat="45.39834" lon="10.5437567"><ele>111.0</ele><time>2026-03-29T08:18:06.415Z</time></trkpt><trkpt lat="45.3982833" lon="10.5439017"><ele>111.5</ele><time>2026-03-29T08:18:07.415Z</time></trkpt><trkpt lat="45.3982283" lon="10.5440567"><ele>112.0</ele><time>2026-03-29T08:18:08.415Z</time></trkpt><trkpt lat="45.3981517" lon="10.5442217"><ele>112.5</ele><time>2026-03-29T08:18:09.415Z</time></trkpt><trkpt lat="45.3980733" lon="10.5443933"><ele>113.0</ele><time>2026-03-29T08:18:10.415Z</time></trkpt><trkpt lat="45.398005" lon="10.5445533"><ele>113.0</ele><time>2026-03-29T08:18:11.415Z</time></trkpt><trkpt lat="45.3979317" lon="10.5447017"><ele>113.0</ele><time>2026-03-29T08:18:12.415Z</time></trkpt><trkpt lat="45.397865" lon="10.544835"><ele>113.0</ele><time>2026-03-29T08:18:13.415Z</time></trkpt><trkpt lat="45.397805" lon="10.54497"><ele>113.0</ele><time>2026-03-29T08:18:14.415Z</time></trkpt><trkpt lat="45.3977533" lon="10.54511"><ele>113.0</ele><time>2026-03-29T08:18:15.415Z</time></trkpt><trkpt lat="45.397705" lon="10.54526"><ele>113.0</ele><time>2026-03-29T08:18:16.415Z</time></trkpt><trkpt lat="45.3976667" lon="10.545415"><ele>113.0</ele><time>2026-03-29T08:18:17.416Z</time></trkpt><trkpt lat="45.3976267" lon="10.5455833"><ele>113.0</ele><time>2026-03-29T08:18:18.415Z</time></trkpt><trkpt lat="45.3976033" lon="10.5457383"><ele>113.0</ele><time>2026-03-29T08:18:19.415Z</time></trkpt><trkpt lat="45.39759" lon="10.5459017"><ele>113.0</ele><time>2026-03-29T08:18:20.415Z</time></trkpt><trkpt lat="45.3975883" lon="10.546065"><ele>113.0</ele><time>2026-03-29T08:18:21.415Z</time></trkpt><trkpt lat="45.3976017" lon="10.5462317"><ele>113.0</ele><time>2026-03-29T08:18:22.415Z</time></trkpt><trkpt lat="45.3976217" lon="10.54641"><ele>113.0</ele><time>2026-03-29T08:18:23.415Z</time></trkpt><trkpt lat="45.3976533" lon="10.5466067"><ele>113.0</ele><time>2026-03-29T08:18:24.415Z</time></trkpt><trkpt lat="45.3976683" lon="10.5468"><ele>113.0</ele><time>2026-03-29T08:18:25.415Z</time></trkpt><trkpt lat="45.397655" lon="10.546985"><ele>113.0</ele><time>2026-03-29T08:18:26.415Z</time></trkpt><trkpt lat="45.397615" lon="10.5471783"><ele>113.75</ele><time>2026-03-29T08:18:27.415Z</time></trkpt><trkpt lat="45.3975717" lon="10.5473767"><ele>114.5</ele><time>2026-03-29T08:18:28.415Z</time></trkpt><trkpt lat="45.3975233" lon="10.5475733"><ele>115.25</ele><time>2026-03-29T08:18:29.415Z</time></trkpt><trkpt lat="45.397475" lon="10.5477667"><ele>116.0</ele><time>2026-03-29T08:18:30.416Z</time></trkpt><trkpt lat="45.3974267" lon="10.5479617"><ele>116.25</ele><time>2026-03-29T08:18:31.415Z</time></trkpt><trkpt lat="45.3974" lon="10.5481583"><ele>116.5</ele><time>2026-03-29T08:18:32.415Z</time></trkpt><trkpt lat="45.397375" lon="10.54836"><ele>116.75</ele><time>2026-03-29T08:18:33.415Z</time></trkpt><trkpt lat="45.3973533" lon="10.5485617"><ele>117.0</ele><time>2026-03-29T08:18:34.415Z</time></trkpt><trkpt lat="45.3973333" lon="10.548785"><ele>118.0</ele><time>2026-03-29T08:18:35.415Z</time></trkpt><trkpt lat="45.397305" lon="10.5490017"><ele>119.0</ele><time>2026-03-29T08:18:36.416Z</time></trkpt><trkpt lat="45.3972783" lon="10.5492283"><ele>120.0</ele><time>2026-03-29T08:18:37.415Z</time></trkpt><trkpt lat="45.397255" lon="10.5494333"><ele>120.66666666666666</ele><time>2026-03-29T08:18:38.415Z</time></trkpt><trkpt lat="45.39724" lon="10.54966"><ele>121.33333333333333</ele><time>2026-03-29T08:18:39.415Z</time></trkpt><trkpt lat="45.3972117" lon="10.5498817"><ele>122.0</ele><time>2026-03-29T08:18:40.416Z</time></trkpt><trkpt lat="45.3971783" lon="10.55011"><ele>120.0</ele><time>2026-03-29T08:18:41.415Z</time></trkpt><trkpt lat="45.3971467" lon="10.5503333"><ele>118.0</ele><time>2026-03-29T08:18:42.415Z</time></trkpt><trkpt lat="45.3971167" lon="10.5505517"><ele>116.0</ele><time>2026-03-29T08:18:43.416Z</time></trkpt><trkpt lat="45.3970733" lon="10.55077"><ele>115.75</ele><time>2026-03-29T08:18:44.415Z</time></trkpt><trkpt lat="45.397015" lon="10.5509667"><ele>115.5</ele><time>2026-03-29T08:18:45.415Z</time></trkpt><trkpt lat="45.3969567" lon="10.5511517"><ele>115.25</ele><time>2026-03-29T08:18:46.415Z</time></trkpt><trkpt lat="45.3969117" lon="10.5513183"><ele>115.0</ele><time>2026-03-29T08:18:47.415Z</time></trkpt><trkpt lat="45.3968817" lon="10.5514417"><ele>116.00000000000001</ele><time>2026-03-29T08:18:48.415Z</time></trkpt><trkpt lat="45.3968633" lon="10.55154"><ele>117.0</ele><time>2026-03-29T08:18:49.415Z</time></trkpt><trkpt lat="45.3968633" lon="10.551675"><ele>118.0</ele><time>2026-03-29T08:18:51.415Z</time></trkpt><trkpt lat="45.3968317" lon="10.5517633"><ele>119.0</ele><time>2026-03-29T08:18:53.416Z</time></trkpt><trkpt lat="45.3967267" lon="10.55177"><ele>120.00000000000001</ele><time>2026-03-29T08:18:55.416Z</time></trkpt><trkpt lat="45.39665" lon="10.55176"><ele>121.0</ele><time>2026-03-29T08:18:56.415Z</time></trkpt><trkpt lat="45.3965567" lon="10.5517483"><ele>121.0</ele><time>2026-03-29T08:18:57.416Z</time></trkpt><trkpt lat="45.396445" lon="10.5517483"><ele>121.0</ele><time>2026-03-29T08:18:58.416Z</time></trkpt><trkpt lat="45.3963183" lon="10.5517533"><ele>121.0</ele><time>2026-03-29T08:18:59.415Z</time></trkpt><trkpt lat="45.3961683" lon="10.5517567"><ele>121.0</ele><time>2026-03-29T08:19:00.416Z</time></trkpt><trkpt lat="45.396035" lon="10.55176"><ele>121.25</ele><time>2026-03-29T08:19:01.416Z</time></trkpt><trkpt lat="45.395895" lon="10.551775"><ele>121.5</ele><time>2026-03-29T08:19:02.415Z</time></trkpt><trkpt lat="45.3957667" lon="10.5518017"><ele>121.75</ele><time>2026-03-29T08:19:03.415Z</time></trkpt><trkpt lat="45.395645" lon="10.55183"><ele>122.0</ele><time>2026-03-29T08:19:04.415Z</time></trkpt><trkpt lat="45.3955233" lon="10.5518367"><ele>122.25</ele><time>2026-03-29T08:19:05.416Z</time></trkpt><trkpt lat="45.3953967" lon="10.5517983"><ele>122.5</ele><time>2026-03-29T08:19:06.416Z</time></trkpt><trkpt lat="45.3952783" lon="10.5517617"><ele>122.75</ele><time>2026-03-29T08:19:07.416Z</time></trkpt><trkpt lat="45.39514" lon="10.5516967"><ele>123.0</ele><time>2026-03-29T08:19:08.415Z</time></trkpt><trkpt lat="45.395" lon="10.55166"><ele>123.0</ele><time>2026-03-29T08:19:09.415Z</time></trkpt><trkpt lat="45.3948533" lon="10.5516067"><ele>123.0</ele><time>2026-03-29T08:19:10.416Z</time></trkpt><trkpt lat="45.39471" lon="10.5515767"><ele>123.0</ele><time>2026-03-29T08:19:11.415Z</time></trkpt><trkpt lat="45.3945783" lon="10.5515717"><ele>123.0</ele><time>2026-03-29T08:19:12.415Z</time></trkpt><trkpt lat="45.39447" lon="10.551575"><ele>121.80000000000001</ele><time>2026-03-29T08:19:13.415Z</time></trkpt><trkpt lat="45.39437" lon="10.5515983"><ele>120.60000000000001</ele><time>2026-03-29T08:19:14.416Z</time></trkpt><trkpt lat="45.3942883" lon="10.5516167"><ele>119.39999999999999</ele><time>2026-03-29T08:19:15.415Z</time></trkpt><trkpt lat="45.394195" lon="10.551635"><ele>118.19999999999999</ele><time>2026-03-29T08:19:16.415Z</time></trkpt><trkpt lat="45.3940917" lon="10.551665"><ele>117.0</ele><time>2026-03-29T08:19:17.416Z</time></trkpt><trkpt lat="45.3939817" lon="10.5516883"><ele>117.0</ele><time>2026-03-29T08:19:18.415Z</time></trkpt><trkpt lat="45.3938517" lon="10.5517183"><ele>117.0</ele><time>2026-03-29T08:19:19.416Z</time></trkpt><trkpt lat="45.3937117" lon="10.5517633"><ele>117.0</ele><time>2026-03-29T08:19:20.416Z</time></trkpt><trkpt lat="45.39357" lon="10.55182"><ele>117.0</ele><time>2026-03-29T08:19:21.415Z</time></trkpt><trkpt lat="45.3934467" lon="10.551865"><ele>116.16666666666667</ele><time>2026-03-29T08:19:22.415Z</time></trkpt><trkpt lat="45.3933517" lon="10.5519"><ele>115.33333333333334</ele><time>2026-03-29T08:19:23.415Z</time></trkpt><trkpt lat="45.3932717" lon="10.55191"><ele>114.5</ele><time>2026-03-29T08:19:24.415Z</time></trkpt><trkpt lat="45.393195" lon="10.5518917"><ele>113.66666666666667</ele><time>2026-03-29T08:19:25.415Z</time></trkpt><trkpt lat="45.3931283" lon="10.5518433"><ele>112.83333333333334</ele><time>2026-03-29T08:19:26.415Z</time></trkpt><trkpt lat="45.39307" lon="10.5517883"><ele>112.0</ele><time>2026-03-29T08:19:27.415Z</time></trkpt><trkpt lat="45.3930183" lon="10.5517083"><ele>111.6</ele><time>2026-03-29T08:19:28.416Z</time></trkpt><trkpt lat="45.3929583" lon="10.5516283"><ele>111.19999999999999</ele><time>2026-03-29T08:19:29.415Z</time></trkpt><trkpt lat="45.39288" lon="10.5515517"><ele>110.8</ele><time>2026-03-29T08:19:30.415Z</time></trkpt><trkpt lat="45.3927767" lon="10.551475"><ele>110.4</ele><time>2026-03-29T08:19:31.415Z</time></trkpt><trkpt lat="45.39267" lon="10.551405"><ele>110.0</ele><time>2026-03-29T08:19:32.415Z</time></trkpt><trkpt lat="45.3925517" lon="10.5513483"><ele>110.0</ele><time>2026-03-29T08:19:33.416Z</time></trkpt><trkpt lat="45.3924417" lon="10.5513033"><ele>110.0</ele><time>2026-03-29T08:19:34.415Z</time></trkpt><trkpt lat="45.3923183" lon="10.5512733"><ele>110.0</ele><time>2026-03-29T08:19:35.415Z</time></trkpt><trkpt lat="45.39221" lon="10.5512217"><ele>110.0</ele><time>2026-03-29T08:19:36.415Z</time></trkpt><trkpt lat="45.3921083" lon="10.5511683"><ele>110.99999999999999</ele><time>2026-03-29T08:19:37.415Z</time></trkpt><trkpt lat="45.392015" lon="10.551115"><ele>112.0</ele><time>2026-03-29T08:19:38.415Z</time></trkpt><trkpt lat="45.3919383" lon="10.55107"><ele>113.0</ele><time>2026-03-29T08:19:39.415Z</time></trkpt><trkpt lat="45.3918633" lon="10.5510433"><ele>114.0</ele><time>2026-03-29T08:19:40.415Z</time></trkpt><trkpt lat="45.39178" lon="10.55101"><ele>114.99999999999999</ele><time>2026-03-29T08:19:41.415Z</time></trkpt><trkpt lat="45.3916883" lon="10.55098"><ele>116.0</ele><time>2026-03-29T08:19:42.415Z</time></trkpt><trkpt lat="45.3915917" lon="10.5509567"><ele>116.0</ele><time>2026-03-29T08:19:43.415Z</time></trkpt><trkpt lat="45.3914883" lon="10.5509217"><ele>116.0</ele><time>2026-03-29T08:19:44.415Z</time></trkpt><trkpt lat="45.39139" lon="10.5508817"><ele>116.0</ele><time>2026-03-29T08:19:45.415Z</time></trkpt><trkpt lat="45.39129" lon="10.5508467"><ele>116.0</ele><time>2026-03-29T08:19:46.415Z</time></trkpt><trkpt lat="45.3912" lon="10.550805"><ele>116.0</ele><time>2026-03-29T08:19:47.415Z</time></trkpt><trkpt lat="45.3911133" lon="10.550765"><ele>116.49999999999999</ele><time>2026-03-29T08:19:48.415Z</time></trkpt><trkpt lat="45.3910333" lon="10.5507333"><ele>117.0</ele><time>2026-03-29T08:19:49.415Z</time></trkpt><trkpt lat="45.390955" lon="10.5506933"><ele>117.5</ele><time>2026-03-29T08:19:50.415Z</time></trkpt><trkpt lat="45.3908917" lon="10.5506617"><ele>118.0</ele><time>2026-03-29T08:19:51.415Z</time></trkpt><trkpt lat="45.3907733" lon="10.5506083"><ele>118.49999999999999</ele><time>2026-03-29T08:19:53.416Z</time></trkpt><trkpt lat="45.39071" lon="10.5505683"><ele>119.0</ele><time>2026-03-29T08:19:54.415Z</time></trkpt><trkpt lat="45.39066" lon="10.5505017"><ele>119.0</ele><time>2026-03-29T08:19:55.416Z</time></trkpt><trkpt lat="45.3906167" lon="10.5504117"><ele>119.0</ele><time>2026-03-29T08:19:56.415Z</time></trkpt><trkpt lat="45.390585" lon="10.550295"><ele>119.0</ele><time>2026-03-29T08:19:57.415Z</time></trkpt><trkpt lat="45.3905533" lon="10.5501567"><ele>119.0</ele><time>2026-03-29T08:19:58.415Z</time></trkpt><trkpt lat="45.3905217" lon="10.5500133"><ele>119.0</ele><time>2026-03-29T08:19:59.415Z</time></trkpt><trkpt lat="45.3904817" lon="10.54988"><ele>120.2</ele><time>2026-03-29T08:20:00.415Z</time></trkpt><trkpt lat="45.3904517" lon="10.5497417"><ele>121.4</ele><time>2026-03-29T08:20:01.415Z</time></trkpt><trkpt lat="45.39042" lon="10.54961"><ele>122.6</ele><time>2026-03-29T08:20:02.415Z</time></trkpt><trkpt lat="45.3903967" lon="10.5494867"><ele>123.8</ele><time>2026-03-29T08:20:03.415Z</time></trkpt><trkpt lat="45.39037" lon="10.5493633"><ele>125.0</ele><time>2026-03-29T08:20:04.415Z</time></trkpt><trkpt lat="45.3903467" lon="10.5492483"><ele>124.99999999999999</ele><time>2026-03-29T08:20:05.415Z</time></trkpt><trkpt lat="45.3903283" lon="10.5491383"><ele>125.0</ele><time>2026-03-29T08:20:06.416Z</time></trkpt><trkpt lat="45.3903033" lon="10.5490283"><ele>125.0</ele><time>2026-03-29T08:20:07.415Z</time></trkpt><trkpt lat="45.39027" lon="10.5489"><ele>125.0</ele><time>2026-03-29T08:20:08.415Z</time></trkpt><trkpt lat="45.390235" lon="10.5487683"><ele>124.99999999999999</ele><time>2026-03-29T08:20:09.415Z</time></trkpt><trkpt lat="45.3902017" lon="10.54865"><ele>125.0</ele><time>2026-03-29T08:20:10.415Z</time></trkpt><trkpt lat="45.39017" lon="10.5485467"><ele>124.16666666666666</ele><time>2026-03-29T08:20:11.415Z</time></trkpt><trkpt lat="45.3901383" lon="10.5484467"><ele>123.33333333333333</ele><time>2026-03-29T08:20:12.415Z</time></trkpt><trkpt lat="45.39011" lon="10.54834"><ele>122.5</ele><time>2026-03-29T08:20:13.415Z</time></trkpt><trkpt lat="45.3900783" lon="10.548225"><ele>121.66666666666666</ele><time>2026-03-29T08:20:14.416Z</time></trkpt><trkpt lat="45.390045" lon="10.5481083"><ele>120.83333333333333</ele><time>2026-03-29T08:20:15.415Z</time></trkpt><trkpt lat="45.3900133" lon="10.5479883"><ele>120.0</ele><time>2026-03-29T08:20:16.415Z</time></trkpt><trkpt lat="45.3899817" lon="10.54788"><ele>120.0</ele><time>2026-03-29T08:20:17.415Z</time></trkpt><trkpt lat="45.3899517" lon="10.54778"><ele>120.0</ele><time>2026-03-29T08:20:18.415Z</time></trkpt><trkpt lat="45.3899267" lon="10.5476717"><ele>120.0</ele><time>2026-03-29T08:20:19.415Z</time></trkpt><trkpt lat="45.3899" lon="10.547555"><ele>120.0</ele><time>2026-03-29T08:20:20.416Z</time></trkpt><trkpt lat="45.3898683" lon="10.54744"><ele>120.0</ele><time>2026-03-29T08:20:21.415Z</time></trkpt><trkpt lat="45.389845" lon="10.5473567"><ele>120.0</ele><time>2026-03-29T08:20:22.415Z</time></trkpt><trkpt lat="45.3898033" lon="10.5472533"><ele>120.0</ele><time>2026-03-29T08:20:24.416Z</time></trkpt><trkpt lat="45.3897617" lon="10.54716"><ele>120.0</ele><time>2026-03-29T08:20:26.415Z</time></trkpt><trkpt lat="45.389715" lon="10.5470433"><ele>120.0</ele><time>2026-03-29T08:20:28.415Z</time></trkpt><trkpt lat="45.38969" lon="10.5469583"><ele>120.0</ele><time>2026-03-29T08:20:29.415Z</time></trkpt><trkpt lat="45.3896633" lon="10.54686"><ele>120.0</ele><time>2026-03-29T08:20:30.415Z</time></trkpt><trkpt lat="45.3896317" lon="10.5467567"><ele>120.0</ele><time>2026-03-29T08:20:31.415Z</time></trkpt><trkpt lat="45.3895883" lon="10.546635"><ele>119.75</ele><time>2026-03-29T08:20:32.415Z</time></trkpt><trkpt lat="45.3895417" lon="10.5465017"><ele>119.5</ele><time>2026-03-29T08:20:33.415Z</time></trkpt><trkpt lat="45.3894883" lon="10.5463483"><ele>119.25</ele><time>2026-03-29T08:20:34.415Z</time></trkpt><trkpt lat="45.3894317" lon="10.5461917"><ele>119.0</ele><time>2026-03-29T08:20:35.415Z</time></trkpt><trkpt lat="45.3893767" lon="10.5460233"><ele>120.5</ele><time>2026-03-29T08:20:36.415Z</time></trkpt><trkpt lat="45.3893217" lon="10.545845"><ele>122.0</ele><time>2026-03-29T08:20:37.415Z</time></trkpt><trkpt lat="45.3892583" lon="10.545695"><ele>123.5</ele><time>2026-03-29T08:20:38.415Z</time></trkpt><trkpt lat="45.389205" lon="10.54555"><ele>125.0</ele><time>2026-03-29T08:20:39.415Z</time></trkpt><trkpt lat="45.3891533" lon="10.545425"><ele>125.33333333333333</ele><time>2026-03-29T08:20:40.415Z</time></trkpt><trkpt lat="45.389105" lon="10.5453183"><ele>125.66666666666666</ele><time>2026-03-29T08:20:41.415Z</time></trkpt><trkpt lat="45.3890733" lon="10.5452167"><ele>126.0</ele><time>2026-03-29T08:20:42.415Z</time></trkpt><trkpt lat="45.3890383" lon="10.5451383"><ele>126.33333333333334</ele><time>2026-03-29T08:20:43.416Z</time></trkpt><trkpt lat="45.388985" lon="10.54501"><ele>126.66666666666667</ele><time>2026-03-29T08:20:45.416Z</time></trkpt><trkpt lat="45.3889" lon="10.5449667"><ele>127.0</ele><time>2026-03-29T08:20:48.415Z</time></trkpt><trkpt lat="45.388825" lon="10.5450617"><ele>127.0</ele><time>2026-03-29T08:20:50.415Z</time></trkpt><trkpt lat="45.3887717" lon="10.54514"><ele>126.99999999999999</ele><time>2026-03-29T08:20:51.415Z</time></trkpt><trkpt lat="45.3887067" lon="10.54525"><ele>126.99999999999999</ele><time>2026-03-29T08:20:52.415Z</time></trkpt><trkpt lat="45.388635" lon="10.5453717"><ele>127.0</ele><time>2026-03-29T08:20:53.416Z</time></trkpt><trkpt lat="45.388555" lon="10.5455017"><ele>127.0</ele><time>2026-03-29T08:20:54.415Z</time></trkpt><trkpt lat="45.388465" lon="10.5456283"><ele>126.0</ele><time>2026-03-29T08:20:55.415Z</time></trkpt><trkpt lat="45.3883883" lon="10.5457333"><ele>125.0</ele><time>2026-03-29T08:20:56.415Z</time></trkpt><trkpt lat="45.3882933" lon="10.5458483"><ele>124.0</ele><time>2026-03-29T08:20:57.415Z</time></trkpt><trkpt lat="45.3881817" lon="10.5459717"><ele>123.0</ele><time>2026-03-29T08:20:58.415Z</time></trkpt><trkpt lat="45.388055" lon="10.5460983"><ele>123.33333333333334</ele><time>2026-03-29T08:20:59.415Z</time></trkpt><trkpt lat="45.3879267" lon="10.5462317"><ele>123.66666666666667</ele><time>2026-03-29T08:21:00.415Z</time></trkpt><trkpt lat="45.3878017" lon="10.5463483"><ele>124.0</ele><time>2026-03-29T08:21:01.415Z</time></trkpt><trkpt lat="45.3876767" lon="10.5464917"><ele>124.0</ele><time>2026-03-29T08:21:02.415Z</time></trkpt><trkpt lat="45.3875533" lon="10.5466233"><ele>124.0</ele><time>2026-03-29T08:21:03.415Z</time></trkpt><trkpt lat="45.3874283" lon="10.5467583"><ele>124.0</ele><time>2026-03-29T08:21:04.415Z</time></trkpt><trkpt lat="45.3872967" lon="10.546885"><ele>123.66666666666667</ele><time>2026-03-29T08:21:05.415Z</time></trkpt><trkpt lat="45.387155" lon="10.5470167"><ele>123.33333333333334</ele><time>2026-03-29T08:21:06.415Z</time></trkpt><trkpt lat="45.387015" lon="10.5471417"><ele>123.0</ele><time>2026-03-29T08:21:07.415Z</time></trkpt><trkpt lat="45.38687" lon="10.5472783"><ele>123.66666666666666</ele><time>2026-03-29T08:21:08.415Z</time></trkpt><trkpt lat="45.3867267" lon="10.547425"><ele>124.33333333333333</ele><time>2026-03-29T08:21:09.415Z</time></trkpt><trkpt lat="45.3865933" lon="10.5475633"><ele>125.0</ele><time>2026-03-29T08:21:10.415Z</time></trkpt><trkpt lat="45.3864583" lon="10.5477017"><ele>125.0</ele><time>2026-03-29T08:21:11.415Z</time></trkpt><trkpt lat="45.3863367" lon="10.54785"><ele>125.0</ele><time>2026-03-29T08:21:12.415Z</time></trkpt><trkpt lat="45.3862117" lon="10.547985"><ele>125.0</ele><time>2026-03-29T08:21:13.415Z</time></trkpt><trkpt lat="45.3860933" lon="10.5481017"><ele>125.0</ele><time>2026-03-29T08:21:14.415Z</time></trkpt><trkpt lat="45.38597" lon="10.548205"><ele>125.0</ele><time>2026-03-29T08:21:15.415Z</time></trkpt><trkpt lat="45.3858517" lon="10.5482833"><ele>125.0</ele><time>2026-03-29T08:21:16.415Z</time></trkpt><trkpt lat="45.3857317" lon="10.5483533"><ele>125.0</ele><time>2026-03-29T08:21:17.415Z</time></trkpt><trkpt lat="45.3856333" lon="10.5484483"><ele>125.0</ele><time>2026-03-29T08:21:18.415Z</time></trkpt><trkpt lat="45.3855467" lon="10.5485767"><ele>125.0</ele><time>2026-03-29T08:21:19.415Z</time></trkpt><trkpt lat="45.3854683" lon="10.5486983"><ele>125.0</ele><time>2026-03-29T08:21:20.415Z</time></trkpt><trkpt lat="45.3853833" lon="10.5488217"><ele>125.0</ele><time>2026-03-29T08:21:21.415Z</time></trkpt><trkpt lat="45.385305" lon="10.548955"><ele>126.0</ele><time>2026-03-29T08:21:22.415Z</time></trkpt><trkpt lat="45.385215" lon="10.5490967"><ele>127.0</ele><time>2026-03-29T08:21:23.415Z</time></trkpt><trkpt lat="45.385115" lon="10.5492233"><ele>128.0</ele><time>2026-03-29T08:21:24.415Z</time></trkpt><trkpt lat="45.3850183" lon="10.5493317"><ele>129.0</ele><time>2026-03-29T08:21:25.416Z</time></trkpt><trkpt lat="45.384925" lon="10.54943"><ele>129.0</ele><time>2026-03-29T08:21:26.415Z</time></trkpt><trkpt lat="45.3848167" lon="10.5495117"><ele>129.0</ele><time>2026-03-29T08:21:27.415Z</time></trkpt><trkpt lat="45.3847033" lon="10.5495933"><ele>129.0</ele><time>2026-03-29T08:21:28.415Z</time></trkpt><trkpt lat="45.3845833" lon="10.5496767"><ele>129.0</ele><time>2026-03-29T08:21:29.415Z</time></trkpt><trkpt lat="45.3844583" lon="10.549745"><ele>130.25</ele><time>2026-03-29T08:21:30.415Z</time></trkpt><trkpt lat="45.3843333" lon="10.54981"><ele>131.5</ele><time>2026-03-29T08:21:31.415Z</time></trkpt><trkpt lat="45.3842117" lon="10.54986"><ele>132.75</ele><time>2026-03-29T08:21:32.415Z</time></trkpt><trkpt lat="45.3840817" lon="10.5499133"><ele>134.0</ele><time>2026-03-29T08:21:33.415Z</time></trkpt><trkpt lat="45.38395" lon="10.5499733"><ele>132.5</ele><time>2026-03-29T08:21:34.415Z</time></trkpt><trkpt lat="45.3838167" lon="10.550045"><ele>131.0</ele><time>2026-03-29T08:21:35.415Z</time></trkpt><trkpt lat="45.383685" lon="10.5501317"><ele>129.5</ele><time>2026-03-29T08:21:36.415Z</time></trkpt><trkpt lat="45.3835533" lon="10.55023"><ele>128.0</ele><time>2026-03-29T08:21:37.416Z</time></trkpt><trkpt lat="45.3834317" lon="10.5503233"><ele>128.25</ele><time>2026-03-29T08:21:38.415Z</time></trkpt><trkpt lat="45.383315" lon="10.5504283"><ele>128.5</ele><time>2026-03-29T08:21:39.415Z</time></trkpt><trkpt lat="45.3832033" lon="10.550535"><ele>128.75</ele><time>2026-03-29T08:21:40.415Z</time></trkpt><trkpt lat="45.383085" lon="10.5506517"><ele>129.0</ele><time>2026-03-29T08:21:41.415Z</time></trkpt><trkpt lat="45.38297" lon="10.5507567"><ele>128.5</ele><time>2026-03-29T08:21:42.415Z</time></trkpt><trkpt lat="45.3828483" lon="10.5508483"><ele>128.0</ele><time>2026-03-29T08:21:43.415Z</time></trkpt><trkpt lat="45.38272" lon="10.5509333"><ele>127.5</ele><time>2026-03-29T08:21:44.416Z</time></trkpt><trkpt lat="45.3825883" lon="10.5510217"><ele>127.0</ele><time>2026-03-29T08:21:45.415Z</time></trkpt><trkpt lat="45.3824483" lon="10.5510983"><ele>127.0</ele><time>2026-03-29T08:21:46.415Z</time></trkpt><trkpt lat="45.3823017" lon="10.551165"><ele>127.0</ele><time>2026-03-29T08:21:47.415Z</time></trkpt><trkpt lat="45.382145" lon="10.5512283"><ele>127.0</ele><time>2026-03-29T08:21:48.415Z</time></trkpt><trkpt lat="45.3819833" lon="10.5512983"><ele>126.33333333333334</ele><time>2026-03-29T08:21:49.415Z</time></trkpt><trkpt lat="45.3818383" lon="10.551375"><ele>125.66666666666666</ele><time>2026-03-29T08:21:50.415Z</time></trkpt><trkpt lat="45.381705" lon="10.5514533"><ele>125.0</ele><time>2026-03-29T08:21:51.415Z</time></trkpt><trkpt lat="45.3815533" lon="10.5515467"><ele>125.0</ele><time>2026-03-29T08:21:52.415Z</time></trkpt><trkpt lat="45.3814233" lon="10.5516317"><ele>125.0</ele><time>2026-03-29T08:21:53.415Z</time></trkpt><trkpt lat="45.3813067" lon="10.55171"><ele>125.0</ele><time>2026-03-29T08:21:54.415Z</time></trkpt><trkpt lat="45.38121" lon="10.5517733"><ele>125.0</ele><time>2026-03-29T08:21:55.416Z</time></trkpt><trkpt lat="45.38113" lon="10.5518283"><ele>124.83333333333333</ele><time>2026-03-29T08:21:56.415Z</time></trkpt><trkpt lat="45.38106" lon="10.551885"><ele>124.66666666666666</ele><time>2026-03-29T08:21:57.415Z</time></trkpt><trkpt lat="45.3809983" lon="10.55194"><ele>124.5</ele><time>2026-03-29T08:21:58.416Z</time></trkpt><trkpt lat="45.3809433" lon="10.55199"><ele>124.33333333333334</ele><time>2026-03-29T08:21:59.415Z</time></trkpt><trkpt lat="45.380835" lon="10.5520767"><ele>124.16666666666667</ele><time>2026-03-29T08:22:01.415Z</time></trkpt><trkpt lat="45.3807783" lon="10.552125"><ele>124.0</ele><time>2026-03-29T08:22:02.415Z</time></trkpt><trkpt lat="45.38071" lon="10.55218"><ele>124.0</ele><time>2026-03-29T08:22:03.415Z</time></trkpt><trkpt lat="45.3806283" lon="10.5522517"><ele>124.0</ele><time>2026-03-29T08:22:04.416Z</time></trkpt><trkpt lat="45.3805417" lon="10.5523317"><ele>124.0</ele><time>2026-03-29T08:22:05.416Z</time></trkpt><trkpt lat="45.3804667" lon="10.55243"><ele>124.0</ele><time>2026-03-29T08:22:06.415Z</time></trkpt><trkpt lat="45.38041" lon="10.5525533"><ele>124.0</ele><time>2026-03-29T08:22:07.416Z</time></trkpt><trkpt lat="45.38036" lon="10.5526883"><ele>123.80000000000001</ele><time>2026-03-29T08:22:08.416Z</time></trkpt><trkpt lat="45.3803267" lon="10.5528233"><ele>123.60000000000001</ele><time>2026-03-29T08:22:09.416Z</time></trkpt><trkpt lat="45.3803217" lon="10.5529683"><ele>123.4</ele><time>2026-03-29T08:22:10.415Z</time></trkpt><trkpt lat="45.3803217" lon="10.55312"><ele>123.2</ele><time>2026-03-29T08:22:11.415Z</time></trkpt><trkpt lat="45.380335" lon="10.55325"><ele>123.0</ele><time>2026-03-29T08:22:12.415Z</time></trkpt><trkpt lat="45.3803683" lon="10.55337"><ele>123.0</ele><time>2026-03-29T08:22:13.415Z</time></trkpt><trkpt lat="45.38042" lon="10.553475"><ele>123.00000000000001</ele><time>2026-03-29T08:22:14.415Z</time></trkpt><trkpt lat="45.3804933" lon="10.5535733"><ele>123.00000000000001</ele><time>2026-03-29T08:22:15.415Z</time></trkpt><trkpt lat="45.380575" lon="10.55367"><ele>123.0</ele><time>2026-03-29T08:22:16.415Z</time></trkpt><trkpt lat="45.3806567" lon="10.5537817"><ele>123.0</ele><time>2026-03-29T08:22:17.415Z</time></trkpt><trkpt lat="45.38072" lon="10.5538983"><ele>123.2</ele><time>2026-03-29T08:22:18.416Z</time></trkpt><trkpt lat="45.3807433" lon="10.5540183"><ele>123.4</ele><time>2026-03-29T08:22:19.415Z</time></trkpt><trkpt lat="45.3807633" lon="10.554145"><ele>123.60000000000001</ele><time>2026-03-29T08:22:20.415Z</time></trkpt><trkpt lat="45.3807417" lon="10.5542817"><ele>123.80000000000001</ele><time>2026-03-29T08:22:21.415Z</time></trkpt><trkpt lat="45.3806933" lon="10.5544317"><ele>124.0</ele><time>2026-03-29T08:22:22.416Z</time></trkpt><trkpt lat="45.38063" lon="10.5545717"><ele>124.25</ele><time>2026-03-29T08:22:23.416Z</time></trkpt><trkpt lat="45.380555" lon="10.5547167"><ele>124.5</ele><time>2026-03-29T08:22:24.415Z</time></trkpt><trkpt lat="45.3804783" lon="10.5548867"><ele>124.75</ele><time>2026-03-29T08:22:25.415Z</time></trkpt><trkpt lat="45.3804083" lon="10.5550717"><ele>125.0</ele><time>2026-03-29T08:22:26.415Z</time></trkpt><trkpt lat="45.3803533" lon="10.555235"><ele>125.6</ele><time>2026-03-29T08:22:27.415Z</time></trkpt><trkpt lat="45.3802983" lon="10.5553783"><ele>126.2</ele><time>2026-03-29T08:22:28.415Z</time></trkpt><trkpt lat="45.380245" lon="10.55552"><ele>126.80000000000001</ele><time>2026-03-29T08:22:29.415Z</time></trkpt><trkpt lat="45.38021" lon="10.5556233"><ele>127.4</ele><time>2026-03-29T08:22:30.415Z</time></trkpt><trkpt lat="45.3801733" lon="10.5557117"><ele>128.0</ele><time>2026-03-29T08:22:31.415Z</time></trkpt><trkpt lat="45.380115" lon="10.5558517"><ele>128.0</ele><time>2026-03-29T08:22:33.415Z</time></trkpt><trkpt lat="45.38006" lon="10.555935"><ele>128.0</ele><time>2026-03-29T08:22:34.415Z</time></trkpt><trkpt lat="45.37998" lon="10.55604"><ele>128.0</ele><time>2026-03-29T08:22:35.415Z</time></trkpt><trkpt lat="45.379885" lon="10.5561667"><ele>128.0</ele><time>2026-03-29T08:22:36.416Z</time></trkpt><trkpt lat="45.3797633" lon="10.5563067"><ele>128.0</ele><time>2026-03-29T08:22:37.415Z</time></trkpt><trkpt lat="45.3796233" lon="10.55641"><ele>128.0</ele><time>2026-03-29T08:22:38.415Z</time></trkpt><trkpt lat="45.379485" lon="10.556525"><ele>128.0</ele><time>2026-03-29T08:22:39.415Z</time></trkpt><trkpt lat="45.379345" lon="10.5566517"><ele>128.0</ele><time>2026-03-29T08:22:40.415Z</time></trkpt><trkpt lat="45.37922" lon="10.5568033"><ele>128.0</ele><time>2026-03-29T08:22:41.415Z</time></trkpt><trkpt lat="45.3790983" lon="10.5569883"><ele>128.0</ele><time>2026-03-29T08:22:42.415Z</time></trkpt><trkpt lat="45.378985" lon="10.5571867"><ele>128.33333333333331</ele><time>2026-03-29T08:22:43.415Z</time></trkpt><trkpt lat="45.378895" lon="10.5574067"><ele>128.66666666666666</ele><time>2026-03-29T08:22:44.415Z</time></trkpt><trkpt lat="45.37882" lon="10.5576"><ele>129.0</ele><time>2026-03-29T08:22:45.416Z</time></trkpt><trkpt lat="45.3787467" lon="10.557785"><ele>129.4</ele><time>2026-03-29T08:22:46.416Z</time></trkpt><trkpt lat="45.3786883" lon="10.5579533"><ele>129.8</ele><time>2026-03-29T08:22:47.415Z</time></trkpt><trkpt lat="45.378635" lon="10.5581067"><ele>130.2</ele><time>2026-03-29T08:22:48.415Z</time></trkpt><trkpt lat="45.3785817" lon="10.5582283"><ele>130.6</ele><time>2026-03-29T08:22:49.416Z</time></trkpt><trkpt lat="45.3785417" lon="10.5583317"><ele>131.0</ele><time>2026-03-29T08:22:50.415Z</time></trkpt><trkpt lat="45.3785067" lon="10.5584083"><ele>131.0</ele><time>2026-03-29T08:22:51.415Z</time></trkpt><trkpt lat="45.3785033" lon="10.5585233"><ele>131.0</ele><time>2026-03-29T08:22:54.415Z</time></trkpt><trkpt lat="45.3785767" lon="10.5585633"><ele>131.0</ele><time>2026-03-29T08:22:56.415Z</time></trkpt><trkpt lat="45.3786983" lon="10.558625"><ele>131.0</ele><time>2026-03-29T08:22:58.415Z</time></trkpt><trkpt lat="45.3787667" lon="10.55867"><ele>131.0</ele><time>2026-03-29T08:22:59.415Z</time></trkpt><trkpt lat="45.3788417" lon="10.5587167"><ele>131.0</ele><time>2026-03-29T08:23:00.415Z</time></trkpt><trkpt lat="45.3789183" lon="10.5587667"><ele>130.6</ele><time>2026-03-29T08:23:01.415Z</time></trkpt><trkpt lat="45.3789933" lon="10.55883"><ele>130.2</ele><time>2026-03-29T08:23:02.415Z</time></trkpt><trkpt lat="45.37907" lon="10.558885"><ele>129.8</ele><time>2026-03-29T08:23:03.415Z</time></trkpt><trkpt lat="45.3791467" lon="10.5589383"><ele>129.4</ele><time>2026-03-29T08:23:04.415Z</time></trkpt><trkpt lat="45.3792267" lon="10.5590117"><ele>129.0</ele><time>2026-03-29T08:23:05.415Z</time></trkpt><trkpt lat="45.3793067" lon="10.5590917"><ele>129.0</ele><time>2026-03-29T08:23:06.415Z</time></trkpt><trkpt lat="45.379375" lon="10.5591967"><ele>129.0</ele><time>2026-03-29T08:23:07.415Z</time></trkpt><trkpt lat="45.3794283" lon="10.5592983"><ele>129.0</ele><time>2026-03-29T08:23:08.415Z</time></trkpt><trkpt lat="45.3794817" lon="10.5594283"><ele>129.0</ele><time>2026-03-29T08:23:09.416Z</time></trkpt><trkpt lat="45.37953" lon="10.5595683"><ele>129.0</ele><time>2026-03-29T08:23:10.415Z</time></trkpt><trkpt lat="45.3795917" lon="10.559735"><ele>128.33333333333334</ele><time>2026-03-29T08:23:11.416Z</time></trkpt><trkpt lat="45.37966" lon="10.5599167"><ele>127.66666666666667</ele><time>2026-03-29T08:23:12.415Z</time></trkpt><trkpt lat="45.3797417" lon="10.5601017"><ele>127.0</ele><time>2026-03-29T08:23:13.415Z</time></trkpt><trkpt lat="45.379825" lon="10.560285"><ele>125.5</ele><time>2026-03-29T08:23:14.415Z</time></trkpt><trkpt lat="45.37992" lon="10.5604483"><ele>124.0</ele><time>2026-03-29T08:23:15.415Z</time></trkpt><trkpt lat="45.38002" lon="10.5605633"><ele>122.5</ele><time>2026-03-29T08:23:16.415Z</time></trkpt><trkpt lat="45.3801117" lon="10.56063"><ele>121.0</ele><time>2026-03-29T08:23:17.415Z</time></trkpt><trkpt lat="45.380215" lon="10.5606567"><ele>121.0</ele><time>2026-03-29T08:23:18.415Z</time></trkpt><trkpt lat="45.3803267" lon="10.5606817"><ele>121.0</ele><time>2026-03-29T08:23:19.415Z</time></trkpt><trkpt lat="45.3804433" lon="10.5607167"><ele>121.0</ele><time>2026-03-29T08:23:20.415Z</time></trkpt><trkpt lat="45.3805717" lon="10.5607583"><ele>121.0</ele><time>2026-03-29T08:23:21.415Z</time></trkpt><trkpt lat="45.380705" lon="10.56081"><ele>120.0</ele><time>2026-03-29T08:23:22.416Z</time></trkpt><trkpt lat="45.3808417" lon="10.5608567"><ele>119.0</ele><time>2026-03-29T08:23:23.415Z</time></trkpt><trkpt lat="45.3809933" lon="10.560905"><ele>118.0</ele><time>2026-03-29T08:23:24.415Z</time></trkpt><trkpt lat="45.3811517" lon="10.560945"><ele>118.0</ele><time>2026-03-29T08:23:25.415Z</time></trkpt><trkpt lat="45.381315" lon="10.5609883"><ele>118.0</ele><time>2026-03-29T08:23:26.415Z</time></trkpt><trkpt lat="45.3814783" lon="10.5610267"><ele>118.0</ele><time>2026-03-29T08:23:27.415Z</time></trkpt><trkpt lat="45.3816417" lon="10.561085"><ele>116.66666666666667</ele><time>2026-03-29T08:23:28.415Z</time></trkpt><trkpt lat="45.381815" lon="10.5611567"><ele>115.33333333333334</ele><time>2026-03-29T08:23:29.415Z</time></trkpt><trkpt lat="45.3819667" lon="10.5612333"><ele>114.0</ele><time>2026-03-29T08:23:30.416Z</time></trkpt><trkpt lat="45.3821133" lon="10.5612583"><ele>113.33333333333334</ele><time>2026-03-29T08:23:31.415Z</time></trkpt><trkpt lat="45.3822583" lon="10.5612267"><ele>112.66666666666667</ele><time>2026-03-29T08:23:32.415Z</time></trkpt><trkpt lat="45.3823983" lon="10.5611283"><ele>112.0</ele><time>2026-03-29T08:23:33.415Z</time></trkpt><trkpt lat="45.382525" lon="10.56098"><ele>112.0</ele><time>2026-03-29T08:23:34.415Z</time></trkpt><trkpt lat="45.3826417" lon="10.56082"><ele>112.0</ele><time>2026-03-29T08:23:35.416Z</time></trkpt><trkpt lat="45.382765" lon="10.5606433"><ele>112.0</ele><time>2026-03-29T08:23:36.415Z</time></trkpt><trkpt lat="45.382885" lon="10.56049"><ele>112.66666666666667</ele><time>2026-03-29T08:23:37.416Z</time></trkpt><trkpt lat="45.38302" lon="10.5603517"><ele>113.33333333333334</ele><time>2026-03-29T08:23:38.415Z</time></trkpt><trkpt lat="45.383175" lon="10.5602617"><ele>114.0</ele><time>2026-03-29T08:23:39.415Z</time></trkpt><trkpt lat="45.3833467" lon="10.5602383"><ele>114.0</ele><time>2026-03-29T08:23:40.415Z</time></trkpt><trkpt lat="45.3835067" lon="10.5602483"><ele>114.0</ele><time>2026-03-29T08:23:41.416Z</time></trkpt><trkpt lat="45.3836867" lon="10.560295"><ele>114.0</ele><time>2026-03-29T08:23:42.415Z</time></trkpt><trkpt lat="45.3838767" lon="10.56037"><ele>112.0</ele><time>2026-03-29T08:23:43.415Z</time></trkpt><trkpt lat="45.38407" lon="10.5604383"><ele>110.0</ele><time>2026-03-29T08:23:44.415Z</time></trkpt><trkpt lat="45.3842717" lon="10.5605167"><ele>108.0</ele><time>2026-03-29T08:23:45.415Z</time></trkpt><trkpt lat="45.38448" lon="10.56058"><ele>107.33333333333334</ele><time>2026-03-29T08:23:46.416Z</time></trkpt><trkpt lat="45.3846933" lon="10.5606367"><ele>106.66666666666667</ele><time>2026-03-29T08:23:47.415Z</time></trkpt><trkpt lat="45.3849183" lon="10.5607017"><ele>106.0</ele><time>2026-03-29T08:23:48.415Z</time></trkpt><trkpt lat="45.3851417" lon="10.560775"><ele>106.0</ele><time>2026-03-29T08:23:49.415Z</time></trkpt><trkpt lat="45.3853767" lon="10.5608533"><ele>106.0</ele><time>2026-03-29T08:23:50.415Z</time></trkpt><trkpt lat="45.3856217" lon="10.5609217"><ele>105.0</ele><time>2026-03-29T08:23:51.415Z</time></trkpt><trkpt lat="45.3858633" lon="10.5609967"><ele>104.0</ele><time>2026-03-29T08:23:52.415Z</time></trkpt><trkpt lat="45.3861017" lon="10.5610733"><ele>104.5</ele><time>2026-03-29T08:23:53.415Z</time></trkpt><trkpt lat="45.386345" lon="10.5611583"><ele>105.0</ele><time>2026-03-29T08:23:54.415Z</time></trkpt><trkpt lat="45.3865733" lon="10.5612433"><ele>105.33333333333334</ele><time>2026-03-29T08:23:55.415Z</time></trkpt><trkpt lat="45.386775" lon="10.5613217"><ele>105.66666666666667</ele><time>2026-03-29T08:23:56.415Z</time></trkpt><trkpt lat="45.3869767" lon="10.5613733"><ele>106.0</ele><time>2026-03-29T08:23:57.415Z</time></trkpt><trkpt lat="45.3871583" lon="10.5614233"><ele>107.33333333333334</ele><time>2026-03-29T08:23:58.416Z</time></trkpt><trkpt lat="45.3873383" lon="10.561455"><ele>108.66666666666666</ele><time>2026-03-29T08:23:59.415Z</time></trkpt><trkpt lat="45.38752" lon="10.56146"><ele>110.0</ele><time>2026-03-29T08:24:00.415Z</time></trkpt><trkpt lat="45.3876767" lon="10.561415"><ele>110.0</ele><time>2026-03-29T08:24:01.416Z</time></trkpt><trkpt lat="45.3878133" lon="10.5613267"><ele>110.0</ele><time>2026-03-29T08:24:02.415Z</time></trkpt><trkpt lat="45.38795" lon="10.5611883"><ele>110.0</ele><time>2026-03-29T08:24:03.415Z</time></trkpt><trkpt lat="45.3880783" lon="10.5610317"><ele>113.0</ele><time>2026-03-29T08:24:04.415Z</time></trkpt><trkpt lat="45.3882067" lon="10.5608917"><ele>116.0</ele><time>2026-03-29T08:24:05.416Z</time></trkpt><trkpt lat="45.388345" lon="10.5607683"><ele>119.0</ele><time>2026-03-29T08:24:06.415Z</time></trkpt><trkpt lat="45.38849" lon="10.5606983"><ele>119.0</ele><time>2026-03-29T08:24:07.415Z</time></trkpt><trkpt lat="45.3886433" lon="10.5607067"><ele>119.0</ele><time>2026-03-29T08:24:08.415Z</time></trkpt><trkpt lat="45.3888017" lon="10.5607733"><ele>119.0</ele><time>2026-03-29T08:24:09.415Z</time></trkpt><trkpt lat="45.3889717" lon="10.5608467"><ele>120.66666666666666</ele><time>2026-03-29T08:24:10.415Z</time></trkpt><trkpt lat="45.3891267" lon="10.560895"><ele>122.33333333333334</ele><time>2026-03-29T08:24:11.416Z</time></trkpt><trkpt lat="45.389275" lon="10.5609383"><ele>124.0</ele><time>2026-03-29T08:24:12.415Z</time></trkpt><trkpt lat="45.3894133" lon="10.56098"><ele>124.0</ele><time>2026-03-29T08:24:13.415Z</time></trkpt><trkpt lat="45.38953" lon="10.5610167"><ele>124.0</ele><time>2026-03-29T08:24:14.416Z</time></trkpt><trkpt lat="45.389645" lon="10.5610367"><ele>124.0</ele><time>2026-03-29T08:24:15.415Z</time></trkpt><trkpt lat="45.3897667" lon="10.561065"><ele>124.0</ele><time>2026-03-29T08:24:16.415Z</time></trkpt><trkpt lat="45.3898883" lon="10.5610983"><ele>122.75</ele><time>2026-03-29T08:24:17.415Z</time></trkpt><trkpt lat="45.390025" lon="10.5611433"><ele>121.5</ele><time>2026-03-29T08:24:18.415Z</time></trkpt><trkpt lat="45.3901783" lon="10.56119"><ele>120.25</ele><time>2026-03-29T08:24:19.415Z</time></trkpt><trkpt lat="45.3903233" lon="10.5612383"><ele>119.0</ele><time>2026-03-29T08:24:20.415Z</time></trkpt><trkpt lat="45.39047" lon="10.561295"><ele>118.25</ele><time>2026-03-29T08:24:21.415Z</time></trkpt><trkpt lat="45.3906167" lon="10.5613483"><ele>117.5</ele><time>2026-03-29T08:24:22.415Z</time></trkpt><trkpt lat="45.39075" lon="10.5613917"><ele>116.75</ele><time>2026-03-29T08:24:23.416Z</time></trkpt><trkpt lat="45.39086" lon="10.5614383"><ele>116.0</ele><time>2026-03-29T08:24:24.415Z</time></trkpt><trkpt lat="45.3909583" lon="10.5614717"><ele>115.99999999999999</ele><time>2026-03-29T08:24:25.416Z</time></trkpt><trkpt lat="45.3910283" lon="10.5615"><ele>116.0</ele><time>2026-03-29T08:24:26.416Z</time></trkpt><trkpt lat="45.39112" lon="10.5615167"><ele>116.0</ele><time>2026-03-29T08:24:28.415Z</time></trkpt><trkpt lat="45.3912267" lon="10.561505"><ele>116.0</ele><time>2026-03-29T08:24:30.415Z</time></trkpt><trkpt lat="45.391305" lon="10.56149"><ele>115.99999999999999</ele><time>2026-03-29T08:24:31.415Z</time></trkpt><trkpt lat="45.39139" lon="10.5614783"><ele>116.0</ele><time>2026-03-29T08:24:32.415Z</time></trkpt><trkpt lat="45.3914733" lon="10.5614617"><ele>115.83333333333333</ele><time>2026-03-29T08:24:33.415Z</time></trkpt><trkpt lat="45.39154" lon="10.56147"><ele>115.66666666666666</ele><time>2026-03-29T08:24:34.415Z</time></trkpt><trkpt lat="45.39158" lon="10.5615667"><ele>115.5</ele><time>2026-03-29T08:24:36.416Z</time></trkpt><trkpt lat="45.39155" lon="10.5616533"><ele>115.33333333333334</ele><time>2026-03-29T08:24:37.415Z</time></trkpt><trkpt lat="45.3915" lon="10.561765"><ele>115.16666666666667</ele><time>2026-03-29T08:24:38.415Z</time></trkpt><trkpt lat="45.391445" lon="10.5618933"><ele>115.0</ele><time>2026-03-29T08:24:39.415Z</time></trkpt><trkpt lat="45.3913733" lon="10.562055"><ele>115.25</ele><time>2026-03-29T08:24:40.415Z</time></trkpt><trkpt lat="45.3912933" lon="10.5622383"><ele>115.5</ele><time>2026-03-29T08:24:41.416Z</time></trkpt><trkpt lat="45.3912267" lon="10.5624233"><ele>115.75</ele><time>2026-03-29T08:24:42.416Z</time></trkpt><trkpt lat="45.391165" lon="10.562605"><ele>116.0</ele><time>2026-03-29T08:24:43.415Z</time></trkpt><trkpt lat="45.3911233" lon="10.5627833"><ele>116.25</ele><time>2026-03-29T08:24:44.415Z</time></trkpt><trkpt lat="45.39111" lon="10.5629717"><ele>116.5</ele><time>2026-03-29T08:24:45.415Z</time></trkpt><trkpt lat="45.3911117" lon="10.5631683"><ele>116.75</ele><time>2026-03-29T08:24:46.415Z</time></trkpt><trkpt lat="45.39111" lon="10.56339"><ele>117.0</ele><time>2026-03-29T08:24:47.415Z</time></trkpt><trkpt lat="45.3910933" lon="10.5635983"><ele>116.5</ele><time>2026-03-29T08:24:48.415Z</time></trkpt><trkpt lat="45.391065" lon="10.5638083"><ele>116.0</ele><time>2026-03-29T08:24:49.415Z</time></trkpt><trkpt lat="45.3910283" lon="10.5640117"><ele>115.5</ele><time>2026-03-29T08:24:50.415Z</time></trkpt><trkpt lat="45.391" lon="10.5641867"><ele>115.0</ele><time>2026-03-29T08:24:51.415Z</time></trkpt><trkpt lat="45.3909783" lon="10.564325"><ele>115.00000000000001</ele><time>2026-03-29T08:24:52.416Z</time></trkpt><trkpt lat="45.3909783" lon="10.5644283"><ele>115.0</ele><time>2026-03-29T08:24:53.416Z</time></trkpt><trkpt lat="45.390955" lon="10.5645783"><ele>115.0</ele><time>2026-03-29T08:24:55.416Z</time></trkpt><trkpt lat="45.3909333" lon="10.564665"><ele>115.0</ele><time>2026-03-29T08:24:56.415Z</time></trkpt><trkpt lat="45.3909133" lon="10.564765"><ele>115.00000000000001</ele><time>2026-03-29T08:24:57.415Z</time></trkpt><trkpt lat="45.3908767" lon="10.5648783"><ele>115.0</ele><time>2026-03-29T08:24:58.415Z</time></trkpt><trkpt lat="45.39083" lon="10.5649983"><ele>115.33333333333334</ele><time>2026-03-29T08:24:59.415Z</time></trkpt><trkpt lat="45.3907867" lon="10.5651133"><ele>115.66666666666667</ele><time>2026-03-29T08:25:00.415Z</time></trkpt><trkpt lat="45.390745" lon="10.5652217"><ele>116.0</ele><time>2026-03-29T08:25:01.416Z</time></trkpt><trkpt lat="45.3907117" lon="10.5653267"><ele>116.33333333333334</ele><time>2026-03-29T08:25:02.416Z</time></trkpt><trkpt lat="45.39067" lon="10.5654317"><ele>116.66666666666667</ele><time>2026-03-29T08:25:03.415Z</time></trkpt><trkpt lat="45.3906283" lon="10.565525"><ele>117.0</ele><time>2026-03-29T08:25:04.416Z</time></trkpt><trkpt lat="45.3905767" lon="10.565625"><ele>117.0</ele><time>2026-03-29T08:25:05.415Z</time></trkpt><trkpt lat="45.3905133" lon="10.5657417"><ele>117.0</ele><time>2026-03-29T08:25:06.415Z</time></trkpt><trkpt lat="45.39043" lon="10.5658817"><ele>117.0</ele><time>2026-03-29T08:25:07.415Z</time></trkpt><trkpt lat="45.3903367" lon="10.566045"><ele>117.0</ele><time>2026-03-29T08:25:08.416Z</time></trkpt><trkpt lat="45.39025" lon="10.566205"><ele>116.0</ele><time>2026-03-29T08:25:09.415Z</time></trkpt><trkpt lat="45.3901667" lon="10.56636"><ele>115.0</ele><time>2026-03-29T08:25:10.415Z</time></trkpt><trkpt lat="45.3900783" lon="10.566465"><ele>114.0</ele><time>2026-03-29T08:25:11.415Z</time></trkpt><trkpt lat="45.389975" lon="10.5665633"><ele>113.0</ele><time>2026-03-29T08:25:12.415Z</time></trkpt><trkpt lat="45.3898633" lon="10.56666"><ele>113.0</ele><time>2026-03-29T08:25:13.415Z</time></trkpt><trkpt lat="45.38972" lon="10.566755"><ele>113.0</ele><time>2026-03-29T08:25:14.416Z</time></trkpt><trkpt lat="45.3895733" lon="10.56685"><ele>113.0</ele><time>2026-03-29T08:25:15.415Z</time></trkpt><trkpt lat="45.3894133" lon="10.5669483"><ele>112.66666666666666</ele><time>2026-03-29T08:25:16.416Z</time></trkpt><trkpt lat="45.389265" lon="10.5670583"><ele>112.33333333333334</ele><time>2026-03-29T08:25:17.416Z</time></trkpt><trkpt lat="45.3891233" lon="10.5671633"><ele>112.0</ele><time>2026-03-29T08:25:18.415Z</time></trkpt><trkpt lat="45.3889833" lon="10.56725"><ele>112.0</ele><time>2026-03-29T08:25:19.415Z</time></trkpt><trkpt lat="45.3888567" lon="10.567375"><ele>112.0</ele><time>2026-03-29T08:25:20.416Z</time></trkpt><trkpt lat="45.388745" lon="10.567525"><ele>112.0</ele><time>2026-03-29T08:25:21.415Z</time></trkpt><trkpt lat="45.3886267" lon="10.5676617"><ele>112.0</ele><time>2026-03-29T08:25:22.415Z</time></trkpt><trkpt lat="45.38849" lon="10.5678167"><ele>112.0</ele><time>2026-03-29T08:25:23.415Z</time></trkpt><trkpt lat="45.3883417" lon="10.5679717"><ele>112.0</ele><time>2026-03-29T08:25:24.415Z</time></trkpt><trkpt lat="45.3881867" lon="10.568135"><ele>112.0</ele><time>2026-03-29T08:25:25.415Z</time></trkpt><trkpt lat="45.3880233" lon="10.5682717"><ele>112.0</ele><time>2026-03-29T08:25:26.415Z</time></trkpt><trkpt lat="45.38787" lon="10.5684033"><ele>112.0</ele><time>2026-03-29T08:25:27.415Z</time></trkpt><trkpt lat="45.387715" lon="10.568535"><ele>112.33333333333334</ele><time>2026-03-29T08:25:28.415Z</time></trkpt><trkpt lat="45.3875783" lon="10.56865"><ele>112.66666666666666</ele><time>2026-03-29T08:25:29.416Z</time></trkpt><trkpt lat="45.3874367" lon="10.56876"><ele>113.0</ele><time>2026-03-29T08:25:30.415Z</time></trkpt><trkpt lat="45.3873183" lon="10.5688567"><ele>113.0</ele><time>2026-03-29T08:25:31.415Z</time></trkpt><trkpt lat="45.3872217" lon="10.5689517"><ele>113.0</ele><time>2026-03-29T08:25:32.415Z</time></trkpt><trkpt lat="45.3871167" lon="10.5690517"><ele>113.0</ele><time>2026-03-29T08:25:33.415Z</time></trkpt><trkpt lat="45.38702" lon="10.5691517"><ele>113.0</ele><time>2026-03-29T08:25:34.415Z</time></trkpt><trkpt lat="45.3869267" lon="10.5692733"><ele>113.0</ele><time>2026-03-29T08:25:35.415Z</time></trkpt><trkpt lat="45.3868333" lon="10.5694067"><ele>113.0</ele><time>2026-03-29T08:25:36.416Z</time></trkpt><trkpt lat="45.386745" lon="10.5695433"><ele>113.0</ele><time>2026-03-29T08:25:37.415Z</time></trkpt><trkpt lat="45.38667" lon="10.56967"><ele>113.0</ele><time>2026-03-29T08:25:38.415Z</time></trkpt><trkpt lat="45.38661" lon="10.569815"><ele>113.0</ele><time>2026-03-29T08:25:39.416Z</time></trkpt><trkpt lat="45.386545" lon="10.5699467"><ele>113.00000000000001</ele><time>2026-03-29T08:25:40.415Z</time></trkpt><trkpt lat="45.3864883" lon="10.5700717"><ele>113.00000000000001</ele><time>2026-03-29T08:25:41.415Z</time></trkpt><trkpt lat="45.3864267" lon="10.57019"><ele>113.0</ele><time>2026-03-29T08:25:42.415Z</time></trkpt><trkpt lat="45.3863783" lon="10.5703333"><ele>113.0</ele><time>2026-03-29T08:25:43.415Z</time></trkpt><trkpt lat="45.3863433" lon="10.5704783"><ele>112.2</ele><time>2026-03-29T08:25:44.415Z</time></trkpt><trkpt lat="45.386315" lon="10.5706217"><ele>111.4</ele><time>2026-03-29T08:25:45.416Z</time></trkpt><trkpt lat="45.386295" lon="10.5707767"><ele>110.60000000000001</ele><time>2026-03-29T08:25:46.415Z</time></trkpt><trkpt lat="45.3862733" lon="10.5709267"><ele>109.80000000000001</ele><time>2026-03-29T08:25:47.415Z</time></trkpt><trkpt lat="45.3862517" lon="10.571065"><ele>109.0</ele><time>2026-03-29T08:25:48.415Z</time></trkpt><trkpt lat="45.3862233" lon="10.5711967"><ele>108.83333333333334</ele><time>2026-03-29T08:25:49.415Z</time></trkpt><trkpt lat="45.3862017" lon="10.5713"><ele>108.66666666666667</ele><time>2026-03-29T08:25:50.415Z</time></trkpt><trkpt lat="45.3861833" lon="10.57141"><ele>108.5</ele><time>2026-03-29T08:25:51.415Z</time></trkpt><trkpt lat="45.3861733" lon="10.5715167"><ele>108.33333333333334</ele><time>2026-03-29T08:25:52.415Z</time></trkpt><trkpt lat="45.3861867" lon="10.5716267"><ele>108.16666666666667</ele><time>2026-03-29T08:25:53.415Z</time></trkpt><trkpt lat="45.3862033" lon="10.571715"><ele>108.0</ele><time>2026-03-29T08:25:54.416Z</time></trkpt><trkpt lat="45.3862333" lon="10.5718417"><ele>108.0</ele><time>2026-03-29T08:25:56.415Z</time></trkpt><trkpt lat="45.386295" lon="10.5719367"><ele>108.00000000000001</ele><time>2026-03-29T08:25:59.415Z</time></trkpt><trkpt lat="45.38642" lon="10.57204"><ele>108.00000000000001</ele><time>2026-03-29T08:26:01.415Z</time></trkpt><trkpt lat="45.3865017" lon="10.572105"><ele>108.0</ele><time>2026-03-29T08:26:02.415Z</time></trkpt><trkpt lat="45.3865783" lon="10.5721617"><ele>108.0</ele><time>2026-03-29T08:26:03.415Z</time></trkpt><trkpt lat="45.386635" lon="10.5722117"><ele>107.0</ele><time>2026-03-29T08:26:04.415Z</time></trkpt><trkpt lat="45.386675" lon="10.5723283"><ele>106.00000000000001</ele><time>2026-03-29T08:26:06.415Z</time></trkpt><trkpt lat="45.3866383" lon="10.5724767"><ele>105.0</ele><time>2026-03-29T08:26:08.416Z</time></trkpt><trkpt lat="45.38658" lon="10.5725633"><ele>104.0</ele><time>2026-03-29T08:26:09.415Z</time></trkpt><trkpt lat="45.3865017" lon="10.57265"><ele>103.0</ele><time>2026-03-29T08:26:10.416Z</time></trkpt><trkpt lat="45.3864383" lon="10.5727517"><ele>103.0</ele><time>2026-03-29T08:26:11.415Z</time></trkpt><trkpt lat="45.38639" lon="10.5728683"><ele>103.0</ele><time>2026-03-29T08:26:12.415Z</time></trkpt><trkpt lat="45.3863683" lon="10.57299"><ele>103.0</ele><time>2026-03-29T08:26:13.415Z</time></trkpt><trkpt lat="45.3863767" lon="10.5731367"><ele>103.0</ele><time>2026-03-29T08:26:14.415Z</time></trkpt><trkpt lat="45.3864033" lon="10.573305"><ele>103.0</ele><time>2026-03-29T08:26:15.415Z</time></trkpt><trkpt lat="45.3864333" lon="10.5734783"><ele>103.0</ele><time>2026-03-29T08:26:16.415Z</time></trkpt><trkpt lat="45.3864617" lon="10.57367"><ele>103.0</ele><time>2026-03-29T08:26:17.416Z</time></trkpt><trkpt lat="45.3864917" lon="10.5738667"><ele>103.0</ele><time>2026-03-29T08:26:18.415Z</time></trkpt><trkpt lat="45.3865233" lon="10.57407"><ele>103.0</ele><time>2026-03-29T08:26:19.416Z</time></trkpt><trkpt lat="45.38656" lon="10.5742483"><ele>102.80000000000001</ele><time>2026-03-29T08:26:20.415Z</time></trkpt><trkpt lat="45.3865767" lon="10.5744117"><ele>102.6</ele><time>2026-03-29T08:26:21.415Z</time></trkpt><trkpt lat="45.38658" lon="10.5745383"><ele>102.4</ele><time>2026-03-29T08:26:22.415Z</time></trkpt><trkpt lat="45.3865583" lon="10.5746617"><ele>102.19999999999999</ele><time>2026-03-29T08:26:23.416Z</time></trkpt><trkpt lat="45.3865167" lon="10.5747733"><ele>102.0</ele><time>2026-03-29T08:26:24.415Z</time></trkpt><trkpt lat="45.386445" lon="10.5748883"><ele>101.75</ele><time>2026-03-29T08:26:25.415Z</time></trkpt><trkpt lat="45.3863567" lon="10.5750033"><ele>101.5</ele><time>2026-03-29T08:26:26.416Z</time></trkpt><trkpt lat="45.3862567" lon="10.5751217"><ele>101.25</ele><time>2026-03-29T08:26:27.415Z</time></trkpt><trkpt lat="45.386155" lon="10.5752583"><ele>101.0</ele><time>2026-03-29T08:26:28.415Z</time></trkpt><trkpt lat="45.3860667" lon="10.57538"><ele>101.8</ele><time>2026-03-29T08:26:29.416Z</time></trkpt><trkpt lat="45.3860067" lon="10.5754917"><ele>102.6</ele><time>2026-03-29T08:26:30.415Z</time></trkpt><trkpt lat="45.3859533" lon="10.575615"><ele>103.4</ele><time>2026-03-29T08:26:31.416Z</time></trkpt><trkpt lat="45.3859033" lon="10.5757383"><ele>104.2</ele><time>2026-03-29T08:26:32.416Z</time></trkpt><trkpt lat="45.3858667" lon="10.5758567"><ele>105.0</ele><time>2026-03-29T08:26:33.415Z</time></trkpt><trkpt lat="45.38583" lon="10.5759667"><ele>105.0</ele><time>2026-03-29T08:26:34.415Z</time></trkpt><trkpt lat="45.3858" lon="10.576085"><ele>105.0</ele><time>2026-03-29T08:26:35.416Z</time></trkpt><trkpt lat="45.3857617" lon="10.5762167"><ele>105.0</ele><time>2026-03-29T08:26:36.415Z</time></trkpt><trkpt lat="45.3857217" lon="10.576365"><ele>105.0</ele><time>2026-03-29T08:26:37.415Z</time></trkpt><trkpt lat="45.38569" lon="10.576525"><ele>105.0</ele><time>2026-03-29T08:26:38.415Z</time></trkpt><trkpt lat="45.3856633" lon="10.5767067"><ele>105.5</ele><time>2026-03-29T08:26:39.415Z</time></trkpt><trkpt lat="45.385635" lon="10.5768867"><ele>106.0</ele><time>2026-03-29T08:26:40.415Z</time></trkpt><trkpt lat="45.3856067" lon="10.5770883"><ele>106.5</ele><time>2026-03-29T08:26:41.415Z</time></trkpt><trkpt lat="45.3855683" lon="10.5773267"><ele>107.0</ele><time>2026-03-29T08:26:42.415Z</time></trkpt><trkpt lat="45.385535" lon="10.57756"><ele>106.75</ele><time>2026-03-29T08:26:43.415Z</time></trkpt><trkpt lat="45.3855067" lon="10.5777817"><ele>106.5</ele><time>2026-03-29T08:26:44.415Z</time></trkpt><trkpt lat="45.38548" lon="10.577975"><ele>106.25</ele><time>2026-03-29T08:26:45.416Z</time></trkpt><trkpt lat="45.3854583" lon="10.5781433"><ele>106.0</ele><time>2026-03-29T08:26:46.415Z</time></trkpt><trkpt lat="45.3854433" lon="10.5783"><ele>106.00000000000001</ele><time>2026-03-29T08:26:47.415Z</time></trkpt><trkpt lat="45.3854317" lon="10.57843"><ele>106.0</ele><time>2026-03-29T08:26:48.416Z</time></trkpt><trkpt lat="45.3854167" lon="10.578525"><ele>106.0</ele><time>2026-03-29T08:26:49.416Z</time></trkpt><trkpt lat="45.3853917" lon="10.5786283"><ele>106.0</ele><time>2026-03-29T08:26:51.415Z</time></trkpt><trkpt lat="45.385315" lon="10.5786533"><ele>106.00000000000001</ele><time>2026-03-29T08:26:53.415Z</time></trkpt><trkpt lat="45.385245" lon="10.57863"><ele>106.0</ele><time>2026-03-29T08:26:54.415Z</time></trkpt><trkpt lat="45.385155" lon="10.5785833"><ele>106.0</ele><time>2026-03-29T08:26:55.415Z</time></trkpt><trkpt lat="45.38504" lon="10.5785333"><ele>106.0</ele><time>2026-03-29T08:26:56.415Z</time></trkpt><trkpt lat="45.3849167" lon="10.5784717"><ele>106.0</ele><time>2026-03-29T08:26:57.416Z</time></trkpt><trkpt lat="45.3847817" lon="10.578415"><ele>106.0</ele><time>2026-03-29T08:26:58.415Z</time></trkpt><trkpt lat="45.3846683" lon="10.57836"><ele>106.19999999999999</ele><time>2026-03-29T08:26:59.415Z</time></trkpt><trkpt lat="45.3845567" lon="10.57831"><ele>106.39999999999999</ele><time>2026-03-29T08:27:00.415Z</time></trkpt><trkpt lat="45.3844517" lon="10.578245"><ele>106.6</ele><time>2026-03-29T08:27:01.416Z</time></trkpt><trkpt lat="45.3843617" lon="10.5782117"><ele>106.8</ele><time>2026-03-29T08:27:02.415Z</time></trkpt><trkpt lat="45.38426" lon="10.5782133"><ele>107.0</ele><time>2026-03-29T08:27:03.415Z</time></trkpt><trkpt lat="45.3841717" lon="10.57823"><ele>107.0</ele><time>2026-03-29T08:27:04.416Z</time></trkpt><trkpt lat="45.38409" lon="10.5782583"><ele>106.99999999999999</ele><time>2026-03-29T08:27:05.416Z</time></trkpt><trkpt lat="45.3839983" lon="10.578265"><ele>106.99999999999999</ele><time>2026-03-29T08:27:06.416Z</time></trkpt><trkpt lat="45.38391" lon="10.578255"><ele>107.0</ele><time>2026-03-29T08:27:07.416Z</time></trkpt><trkpt lat="45.383815" lon="10.578245"><ele>107.0</ele><time>2026-03-29T08:27:08.415Z</time></trkpt><trkpt lat="45.38372" lon="10.5782333"><ele>107.39999999999999</ele><time>2026-03-29T08:27:09.415Z</time></trkpt><trkpt lat="45.3836317" lon="10.5781933"><ele>107.79999999999998</ele><time>2026-03-29T08:27:10.416Z</time></trkpt><trkpt lat="45.3835667" lon="10.5781167"><ele>108.2</ele><time>2026-03-29T08:27:11.415Z</time></trkpt><trkpt lat="45.3834983" lon="10.5780017"><ele>108.6</ele><time>2026-03-29T08:27:12.415Z</time></trkpt><trkpt lat="45.38341" lon="10.57788"><ele>109.0</ele><time>2026-03-29T08:27:13.415Z</time></trkpt><trkpt lat="45.3833" lon="10.5777617"><ele>109.0</ele><time>2026-03-29T08:27:14.415Z</time></trkpt><trkpt lat="45.3831733" lon="10.57766"><ele>109.0</ele><time>2026-03-29T08:27:15.415Z</time></trkpt><trkpt lat="45.3830217" lon="10.57757"><ele>109.0</ele><time>2026-03-29T08:27:16.416Z</time></trkpt><trkpt lat="45.3828667" lon="10.57749"><ele>110.5</ele><time>2026-03-29T08:27:17.415Z</time></trkpt><trkpt lat="45.38272" lon="10.5774517"><ele>112.0</ele><time>2026-03-29T08:27:18.415Z</time></trkpt><trkpt lat="45.382585" lon="10.5774517"><ele>113.5</ele><time>2026-03-29T08:27:19.416Z</time></trkpt><trkpt lat="45.3824683" lon="10.5774617"><ele>115.0</ele><time>2026-03-29T08:27:20.415Z</time></trkpt><trkpt lat="45.3823583" lon="10.5774783"><ele>115.0</ele><time>2026-03-29T08:27:21.415Z</time></trkpt><trkpt lat="45.38225" lon="10.5774817"><ele>115.0</ele><time>2026-03-29T08:27:22.415Z</time></trkpt><trkpt lat="45.3821383" lon="10.57749"><ele>115.0</ele><time>2026-03-29T08:27:23.415Z</time></trkpt><trkpt lat="45.3820233" lon="10.5774983"><ele>115.0</ele><time>2026-03-29T08:27:24.416Z</time></trkpt><trkpt lat="45.3819033" lon="10.577515"><ele>115.0</ele><time>2026-03-29T08:27:25.415Z</time></trkpt><trkpt lat="45.3817733" lon="10.5775267"><ele>115.0</ele><time>2026-03-29T08:27:26.415Z</time></trkpt><trkpt lat="45.3816383" lon="10.5775383"><ele>115.0</ele><time>2026-03-29T08:27:27.415Z</time></trkpt><trkpt lat="45.3814967" lon="10.5775483"><ele>115.0</ele><time>2026-03-29T08:27:28.415Z</time></trkpt><trkpt lat="45.3813483" lon="10.577555"><ele>113.0</ele><time>2026-03-29T08:27:29.416Z</time></trkpt><trkpt lat="45.381205" lon="10.5775467"><ele>111.0</ele><time>2026-03-29T08:27:30.415Z</time></trkpt><trkpt lat="45.381065" lon="10.5775383"><ele>109.0</ele><time>2026-03-29T08:27:31.415Z</time></trkpt><trkpt lat="45.3809317" lon="10.5775033"><ele>107.0</ele><time>2026-03-29T08:27:32.415Z</time></trkpt><trkpt lat="45.3808067" lon="10.5774517"><ele>107.0</ele><time>2026-03-29T08:27:33.415Z</time></trkpt><trkpt lat="45.3807183" lon="10.5773717"><ele>106.99999999999999</ele><time>2026-03-29T08:27:34.415Z</time></trkpt><trkpt lat="45.3806733" lon="10.5772867"><ele>106.99999999999999</ele><time>2026-03-29T08:27:35.415Z</time></trkpt><trkpt lat="45.3806417" lon="10.577195"><ele>107.0</ele><time>2026-03-29T08:27:36.415Z</time></trkpt><trkpt lat="45.3806467" lon="10.577045"><ele>107.0</ele><time>2026-03-29T08:27:37.415Z</time></trkpt><trkpt lat="45.38065" lon="10.5768983"><ele>107.6</ele><time>2026-03-29T08:27:38.415Z</time></trkpt><trkpt lat="45.38063" lon="10.5767733"><ele>108.19999999999999</ele><time>2026-03-29T08:27:39.415Z</time></trkpt><trkpt lat="45.3805817" lon="10.5766683"><ele>108.8</ele><time>2026-03-29T08:27:40.415Z</time></trkpt><trkpt lat="45.380495" lon="10.576585"><ele>109.4</ele><time>2026-03-29T08:27:41.415Z</time></trkpt><trkpt lat="45.3803767" lon="10.57652"><ele>110.0</ele><time>2026-03-29T08:27:42.416Z</time></trkpt><trkpt lat="45.380235" lon="10.5764667"><ele>108.25</ele><time>2026-03-29T08:27:43.416Z</time></trkpt><trkpt lat="45.3800933" lon="10.576445"><ele>106.5</ele><time>2026-03-29T08:27:44.415Z</time></trkpt><trkpt lat="45.37996" lon="10.5764167"><ele>104.75</ele><time>2026-03-29T08:27:45.415Z</time></trkpt><trkpt lat="45.3798317" lon="10.5763517"><ele>103.0</ele><time>2026-03-29T08:27:46.415Z</time></trkpt><trkpt lat="45.3796917" lon="10.5762817"><ele>103.25</ele><time>2026-03-29T08:27:47.415Z</time></trkpt><trkpt lat="45.3795567" lon="10.5762533"><ele>103.5</ele><time>2026-03-29T08:27:48.415Z</time></trkpt><trkpt lat="45.3794167" lon="10.5762667"><ele>103.75</ele><time>2026-03-29T08:27:49.415Z</time></trkpt><trkpt lat="45.3792767" lon="10.5762817"><ele>104.0</ele><time>2026-03-29T08:27:50.416Z</time></trkpt><trkpt lat="45.3791367" lon="10.5763183"><ele>104.0</ele><time>2026-03-29T08:27:51.415Z</time></trkpt><trkpt lat="45.37901" lon="10.5763217"><ele>104.0</ele><time>2026-03-29T08:27:52.416Z</time></trkpt><trkpt lat="45.378895" lon="10.57629"><ele>104.0</ele><time>2026-03-29T08:27:53.415Z</time></trkpt><trkpt lat="45.3788183" lon="10.576235"><ele>104.0</ele><time>2026-03-29T08:27:54.415Z</time></trkpt><trkpt lat="45.378785" lon="10.5761217"><ele>104.0</ele><time>2026-03-29T08:27:55.415Z</time></trkpt><trkpt lat="45.37876" lon="10.5759783"><ele>104.33333333333333</ele><time>2026-03-29T08:27:56.415Z</time></trkpt><trkpt lat="45.378755" lon="10.5758283"><ele>104.66666666666666</ele><time>2026-03-29T08:27:57.415Z</time></trkpt><trkpt lat="45.3787167" lon="10.5756733"><ele>105.0</ele><time>2026-03-29T08:27:58.416Z</time></trkpt><trkpt lat="45.37868" lon="10.5755767"><ele>105.33333333333334</ele><time>2026-03-29T08:27:59.415Z</time></trkpt><trkpt lat="45.3786217" lon="10.57553"><ele>105.66666666666667</ele><time>2026-03-29T08:28:00.415Z</time></trkpt><trkpt lat="45.3785433" lon="10.575525"><ele>106.0</ele><time>2026-03-29T08:28:01.416Z</time></trkpt><trkpt lat="45.3784617" lon="10.5755467"><ele>106.0</ele><time>2026-03-29T08:28:02.415Z</time></trkpt><trkpt lat="45.3783717" lon="10.5755783"><ele>106.0</ele><time>2026-03-29T08:28:03.415Z</time></trkpt><trkpt lat="45.3782783" lon="10.575605"><ele>106.0</ele><time>2026-03-29T08:28:04.415Z</time></trkpt><trkpt lat="45.3781717" lon="10.5756167"><ele>106.0</ele><time>2026-03-29T08:28:05.414Z</time></trkpt><trkpt lat="45.37806" lon="10.5756267"><ele>106.0</ele><time>2026-03-29T08:28:06.415Z</time></trkpt><trkpt lat="45.377945" lon="10.5756417"><ele>105.75</ele><time>2026-03-29T08:28:07.415Z</time></trkpt><trkpt lat="45.3778183" lon="10.5756517"><ele>105.5</ele><time>2026-03-29T08:28:08.414Z</time></trkpt><trkpt lat="45.3776967" lon="10.5756533"><ele>105.25</ele><time>2026-03-29T08:28:09.414Z</time></trkpt><trkpt lat="45.3775683" lon="10.5756667"><ele>105.0</ele><time>2026-03-29T08:28:10.414Z</time></trkpt><trkpt lat="45.377445" lon="10.575675"><ele>105.0</ele><time>2026-03-29T08:28:11.414Z</time></trkpt><trkpt lat="45.3773283" lon="10.57568"><ele>105.0</ele><time>2026-03-29T08:28:12.414Z</time></trkpt><trkpt lat="45.37722" lon="10.5756983"><ele>105.0</ele><time>2026-03-29T08:28:13.414Z</time></trkpt><trkpt lat="45.3771083" lon="10.5757183"><ele>105.0</ele><time>2026-03-29T08:28:14.414Z</time></trkpt><trkpt lat="45.3769983" lon="10.575725"><ele>105.0</ele><time>2026-03-29T08:28:15.415Z</time></trkpt><trkpt lat="45.3768933" lon="10.575715"><ele>106.0</ele><time>2026-03-29T08:28:16.414Z</time></trkpt><trkpt lat="45.3767917" lon="10.575685"><ele>107.0</ele><time>2026-03-29T08:28:17.414Z</time></trkpt><trkpt lat="45.3766967" lon="10.5756483"><ele>108.0</ele><time>2026-03-29T08:28:18.415Z</time></trkpt><trkpt lat="45.3766" lon="10.5755917"><ele>109.0</ele><time>2026-03-29T08:28:19.414Z</time></trkpt><trkpt lat="45.3765033" lon="10.57552"><ele>110.0</ele><time>2026-03-29T08:28:20.414Z</time></trkpt><trkpt lat="45.376405" lon="10.5754517"><ele>110.2</ele><time>2026-03-29T08:28:21.415Z</time></trkpt><trkpt lat="45.3763117" lon="10.5753983"><ele>110.4</ele><time>2026-03-29T08:28:22.415Z</time></trkpt><trkpt lat="45.3762267" lon="10.5753633"><ele>110.6</ele><time>2026-03-29T08:28:23.414Z</time></trkpt><trkpt lat="45.3761383" lon="10.57533"><ele>110.8</ele><time>2026-03-29T08:28:24.414Z</time></trkpt><trkpt lat="45.3760567" lon="10.5752867"><ele>111.0</ele><time>2026-03-29T08:28:25.414Z</time></trkpt><trkpt lat="45.3759733" lon="10.57524"><ele>111.0</ele><time>2026-03-29T08:28:26.414Z</time></trkpt><trkpt lat="45.37589" lon="10.5751933"><ele>111.0</ele><time>2026-03-29T08:28:27.414Z</time></trkpt><trkpt lat="45.3757967" lon="10.5751367"><ele>111.0</ele><time>2026-03-29T08:28:28.414Z</time></trkpt><trkpt lat="45.3756933" lon="10.5750833"><ele>111.0</ele><time>2026-03-29T08:28:29.415Z</time></trkpt><trkpt lat="45.3756033" lon="10.5750183"><ele>111.0</ele><time>2026-03-29T08:28:30.414Z</time></trkpt><trkpt lat="45.3755183" lon="10.5749583"><ele>111.19999999999999</ele><time>2026-03-29T08:28:31.414Z</time></trkpt><trkpt lat="45.3754483" lon="10.5749033"><ele>111.39999999999999</ele><time>2026-03-29T08:28:32.415Z</time></trkpt><trkpt lat="45.37536" lon="10.5748433"><ele>111.6</ele><time>2026-03-29T08:28:34.414Z</time></trkpt><trkpt lat="45.375285" lon="10.5749317"><ele>111.8</ele><time>2026-03-29T08:28:37.414Z</time></trkpt><trkpt lat="45.3752667" lon="10.5751283"><ele>112.0</ele><time>2026-03-29T08:28:39.414Z</time></trkpt><trkpt lat="45.3752583" lon="10.5752783"><ele>112.0</ele><time>2026-03-29T08:28:40.414Z</time></trkpt><trkpt lat="45.375245" lon="10.5754583"><ele>112.0</ele><time>2026-03-29T08:28:41.414Z</time></trkpt><trkpt lat="45.3752267" lon="10.5756617"><ele>112.0</ele><time>2026-03-29T08:28:42.414Z</time></trkpt><trkpt lat="45.375195" lon="10.575895"><ele>112.0</ele><time>2026-03-29T08:28:43.415Z</time></trkpt><trkpt lat="45.37516" lon="10.576135"><ele>111.33333333333334</ele><time>2026-03-29T08:28:44.415Z</time></trkpt><trkpt lat="45.3751483" lon="10.5763967"><ele>110.66666666666666</ele><time>2026-03-29T08:28:45.414Z</time></trkpt><trkpt lat="45.37513" lon="10.57665"><ele>110.0</ele><time>2026-03-29T08:28:46.414Z</time></trkpt><trkpt lat="45.37511" lon="10.5769167"><ele>110.0</ele><time>2026-03-29T08:28:47.415Z</time></trkpt><trkpt lat="45.3750933" lon="10.577205"><ele>110.0</ele><time>2026-03-29T08:28:48.414Z</time></trkpt><trkpt lat="45.375075" lon="10.577465"><ele>110.0</ele><time>2026-03-29T08:28:49.414Z</time></trkpt><trkpt lat="45.37506" lon="10.5777083"><ele>109.5</ele><time>2026-03-29T08:28:50.414Z</time></trkpt><trkpt lat="45.3750433" lon="10.5779483"><ele>109.0</ele><time>2026-03-29T08:28:51.414Z</time></trkpt><trkpt lat="45.3750283" lon="10.578165"><ele>108.5</ele><time>2026-03-29T08:28:52.414Z</time></trkpt><trkpt lat="45.3750083" lon="10.5783433"><ele>108.0</ele><time>2026-03-29T08:28:53.414Z</time></trkpt><trkpt lat="45.3749867" lon="10.5785117"><ele>108.0</ele><time>2026-03-29T08:28:54.414Z</time></trkpt><trkpt lat="45.37497" lon="10.5786317"><ele>108.00000000000001</ele><time>2026-03-29T08:28:55.415Z</time></trkpt><trkpt lat="45.374925" lon="10.5787517"><ele>108.00000000000001</ele><time>2026-03-29T08:28:57.414Z</time></trkpt><trkpt lat="45.3748017" lon="10.5787817"><ele>108.0</ele><time>2026-03-29T08:28:59.415Z</time></trkpt><trkpt lat="45.37471" lon="10.5787833"><ele>108.0</ele><time>2026-03-29T08:29:00.414Z</time></trkpt><trkpt lat="45.3745933" lon="10.5787833"><ele>110.33333333333334</ele><time>2026-03-29T08:29:01.414Z</time></trkpt><trkpt lat="45.374455" lon="10.578785"><ele>112.66666666666667</ele><time>2026-03-29T08:29:02.414Z</time></trkpt><trkpt lat="45.3742967" lon="10.5787917"><ele>115.0</ele><time>2026-03-29T08:29:03.414Z</time></trkpt><trkpt lat="45.3741217" lon="10.5788183"><ele>115.0</ele><time>2026-03-29T08:29:04.414Z</time></trkpt><trkpt lat="45.3739383" lon="10.5788367"><ele>115.0</ele><time>2026-03-29T08:29:05.415Z</time></trkpt><trkpt lat="45.373745" lon="10.578855"><ele>115.0</ele><time>2026-03-29T08:29:06.414Z</time></trkpt><trkpt lat="45.373555" lon="10.5788633"><ele>115.2</ele><time>2026-03-29T08:29:07.415Z</time></trkpt><trkpt lat="45.3733917" lon="10.5788683"><ele>115.4</ele><time>2026-03-29T08:29:08.415Z</time></trkpt><trkpt lat="45.3732667" lon="10.5788733"><ele>115.6</ele><time>2026-03-29T08:29:09.414Z</time></trkpt><trkpt lat="45.3731817" lon="10.5788717"><ele>115.8</ele><time>2026-03-29T08:29:10.414Z</time></trkpt><trkpt lat="45.37311" lon="10.5788783"><ele>116.0</ele><time>2026-03-29T08:29:12.415Z</time></trkpt><trkpt lat="45.3730767" lon="10.578965"><ele>115.99999999999999</ele><time>2026-03-29T08:29:14.414Z</time></trkpt><trkpt lat="45.3730767" lon="10.5791033"><ele>116.0</ele><time>2026-03-29T08:29:16.414Z</time></trkpt><trkpt lat="45.3731033" lon="10.57919"><ele>116.0</ele><time>2026-03-29T08:29:17.414Z</time></trkpt><trkpt lat="45.3731417" lon="10.57928"><ele>116.0</ele><time>2026-03-29T08:29:18.414Z</time></trkpt><trkpt lat="45.3731967" lon="10.57938"><ele>115.99999999999999</ele><time>2026-03-29T08:29:19.414Z</time></trkpt><trkpt lat="45.3732483" lon="10.579475"><ele>116.0</ele><time>2026-03-29T08:29:20.415Z</time></trkpt><trkpt lat="45.3733017" lon="10.579595"><ele>115.25</ele><time>2026-03-29T08:29:22.415Z</time></trkpt><trkpt lat="45.3733533" lon="10.57968"><ele>114.5</ele><time>2026-03-29T08:29:24.414Z</time></trkpt><trkpt lat="45.373445" lon="10.5798433"><ele>113.75</ele><time>2026-03-29T08:29:26.414Z</time></trkpt><trkpt lat="45.3735133" lon="10.57998"><ele>113.0</ele><time>2026-03-29T08:29:27.415Z</time></trkpt><trkpt lat="45.3736017" lon="10.5801517"><ele>113.0</ele><time>2026-03-29T08:29:28.415Z</time></trkpt><trkpt lat="45.3736967" lon="10.58034"><ele>113.0</ele><time>2026-03-29T08:29:29.414Z</time></trkpt><trkpt lat="45.3737983" lon="10.5805367"><ele>113.0</ele><time>2026-03-29T08:29:30.415Z</time></trkpt><trkpt lat="45.3739017" lon="10.580725"><ele>113.0</ele><time>2026-03-29T08:29:31.414Z</time></trkpt><trkpt lat="45.3739917" lon="10.5808933"><ele>113.0</ele><time>2026-03-29T08:29:32.414Z</time></trkpt><trkpt lat="45.3740767" lon="10.5810417"><ele>113.0</ele><time>2026-03-29T08:29:33.414Z</time></trkpt><trkpt lat="45.3741667" lon="10.58117"><ele>113.0</ele><time>2026-03-29T08:29:34.414Z</time></trkpt><trkpt lat="45.3742633" lon="10.5812933"><ele>113.0</ele><time>2026-03-29T08:29:35.414Z</time></trkpt><trkpt lat="45.3743633" lon="10.58142"><ele>113.0</ele><time>2026-03-29T08:29:36.414Z</time></trkpt><trkpt lat="45.3744667" lon="10.58155"><ele>113.0</ele><time>2026-03-29T08:29:37.414Z</time></trkpt><trkpt lat="45.3745583" lon="10.581675"><ele>113.0</ele><time>2026-03-29T08:29:38.414Z</time></trkpt><trkpt lat="45.3746433" lon="10.5817833"><ele>112.66666666666666</ele><time>2026-03-29T08:29:39.414Z</time></trkpt><trkpt lat="45.3747167" lon="10.5818717"><ele>112.33333333333333</ele><time>2026-03-29T08:29:40.414Z</time></trkpt><trkpt lat="45.3747767" lon="10.5819483"><ele>112.0</ele><time>2026-03-29T08:29:41.415Z</time></trkpt><trkpt lat="45.3748283" lon="10.5820217"><ele>111.66666666666666</ele><time>2026-03-29T08:29:42.414Z</time></trkpt><trkpt lat="45.374875" lon="10.5820833"><ele>111.33333333333333</ele><time>2026-03-29T08:29:43.415Z</time></trkpt><trkpt lat="45.3748983" lon="10.5821883"><ele>111.0</ele><time>2026-03-29T08:29:45.414Z</time></trkpt><trkpt lat="45.37492" lon="10.5822933"><ele>111.0</ele><time>2026-03-29T08:29:47.414Z</time></trkpt><trkpt lat="45.3749667" lon="10.58237"><ele>111.0</ele><time>2026-03-29T08:29:48.414Z</time></trkpt><trkpt lat="45.3750333" lon="10.5824833"><ele>111.0</ele><time>2026-03-29T08:29:49.414Z</time></trkpt><trkpt lat="45.3751333" lon="10.5826167"><ele>111.0</ele><time>2026-03-29T08:29:50.414Z</time></trkpt><trkpt lat="45.3752567" lon="10.582775"><ele>111.0</ele><time>2026-03-29T08:29:51.415Z</time></trkpt><trkpt lat="45.3753883" lon="10.58293"><ele>111.0</ele><time>2026-03-29T08:29:52.414Z</time></trkpt><trkpt lat="45.375535" lon="10.5830817"><ele>111.0</ele><time>2026-03-29T08:29:53.414Z</time></trkpt><trkpt lat="45.3757017" lon="10.583245"><ele>111.0</ele><time>2026-03-29T08:29:54.414Z</time></trkpt><trkpt lat="45.3758633" lon="10.583405"><ele>111.0</ele><time>2026-03-29T08:29:55.414Z</time></trkpt><trkpt lat="45.37603" lon="10.5835783"><ele>111.0</ele><time>2026-03-29T08:29:56.414Z</time></trkpt><trkpt lat="45.3761983" lon="10.5837483"><ele>111.0</ele><time>2026-03-29T08:29:57.414Z</time></trkpt><trkpt lat="45.3763733" lon="10.5839333"><ele>111.0</ele><time>2026-03-29T08:29:58.414Z</time></trkpt><trkpt lat="45.3765433" lon="10.5841367"><ele>111.0</ele><time>2026-03-29T08:29:59.415Z</time></trkpt><trkpt lat="45.3767167" lon="10.5843383"><ele>111.5</ele><time>2026-03-29T08:30:00.414Z</time></trkpt><trkpt lat="45.376885" lon="10.584545"><ele>112.0</ele><time>2026-03-29T08:30:01.414Z</time></trkpt><trkpt lat="45.377055" lon="10.5847617"><ele>112.0</ele><time>2026-03-29T08:30:02.415Z</time></trkpt><trkpt lat="45.3772167" lon="10.5849933"><ele>112.0</ele><time>2026-03-29T08:30:03.414Z</time></trkpt><trkpt lat="45.377375" lon="10.5852317"><ele>112.5</ele><time>2026-03-29T08:30:04.414Z</time></trkpt><trkpt lat="45.377525" lon="10.5854767"><ele>113.0</ele><time>2026-03-29T08:30:05.415Z</time></trkpt><trkpt lat="45.3776767" lon="10.5857183"><ele>113.0</ele><time>2026-03-29T08:30:06.414Z</time></trkpt><trkpt lat="45.3778183" lon="10.585955"><ele>113.0</ele><time>2026-03-29T08:30:07.414Z</time></trkpt><trkpt lat="45.3779567" lon="10.586195"><ele>113.0</ele><time>2026-03-29T08:30:08.414Z</time></trkpt><trkpt lat="45.3780967" lon="10.586435"><ele>114.33333333333333</ele><time>2026-03-29T08:30:09.414Z</time></trkpt><trkpt lat="45.3782183" lon="10.5866833"><ele>115.66666666666666</ele><time>2026-03-29T08:30:10.414Z</time></trkpt><trkpt lat="45.3783283" lon="10.5869467"><ele>117.0</ele><time>2026-03-29T08:30:11.414Z</time></trkpt><trkpt lat="45.3784267" lon="10.587205"><ele>118.0</ele><time>2026-03-29T08:30:12.414Z</time></trkpt><trkpt lat="45.3785117" lon="10.587485"><ele>119.0</ele><time>2026-03-29T08:30:13.415Z</time></trkpt><trkpt lat="45.378595" lon="10.5877533"><ele>120.0</ele><time>2026-03-29T08:30:14.414Z</time></trkpt><trkpt lat="45.37867" lon="10.5880217"><ele>120.66666666666666</ele><time>2026-03-29T08:30:15.414Z</time></trkpt><trkpt lat="45.3787333" lon="10.5882667"><ele>121.33333333333333</ele><time>2026-03-29T08:30:16.414Z</time></trkpt><trkpt lat="45.3787733" lon="10.5885267"><ele>122.0</ele><time>2026-03-29T08:30:17.414Z</time></trkpt><trkpt lat="45.3787883" lon="10.5887783"><ele>123.0</ele><time>2026-03-29T08:30:18.414Z</time></trkpt><trkpt lat="45.3787867" lon="10.5890483"><ele>124.0</ele><time>2026-03-29T08:30:19.414Z</time></trkpt><trkpt lat="45.3787533" lon="10.5893017"><ele>125.0</ele><time>2026-03-29T08:30:20.414Z</time></trkpt><trkpt lat="45.3787083" lon="10.5895667"><ele>126.0</ele><time>2026-03-29T08:30:21.414Z</time></trkpt><trkpt lat="45.378665" lon="10.5898233"><ele>127.0</ele><time>2026-03-29T08:30:22.414Z</time></trkpt><trkpt lat="45.3786417" lon="10.590095"><ele>128.0</ele><time>2026-03-29T08:30:23.414Z</time></trkpt><trkpt lat="45.37864" lon="10.5903767"><ele>129.0</ele><time>2026-03-29T08:30:24.414Z</time></trkpt><trkpt lat="45.3786533" lon="10.5906767"><ele>130.0</ele><time>2026-03-29T08:30:25.414Z</time></trkpt><trkpt lat="45.3786917" lon="10.5909517"><ele>131.0</ele><time>2026-03-29T08:30:26.414Z</time></trkpt><trkpt lat="45.3787517" lon="10.591225"><ele>132.66666666666666</ele><time>2026-03-29T08:30:27.414Z</time></trkpt><trkpt lat="45.3788567" lon="10.59149"><ele>134.33333333333334</ele><time>2026-03-29T08:30:28.415Z</time></trkpt><trkpt lat="45.3789733" lon="10.5917533"><ele>136.0</ele><time>2026-03-29T08:30:29.414Z</time></trkpt><trkpt lat="45.3790833" lon="10.5920117"><ele>136.33333333333334</ele><time>2026-03-29T08:30:30.414Z</time></trkpt><trkpt lat="45.3792017" lon="10.5922633"><ele>136.66666666666666</ele><time>2026-03-29T08:30:31.414Z</time></trkpt><trkpt lat="45.3793083" lon="10.5925317"><ele>137.0</ele><time>2026-03-29T08:30:32.414Z</time></trkpt><trkpt lat="45.37939" lon="10.592815"><ele>137.33333333333331</ele><time>2026-03-29T08:30:33.414Z</time></trkpt><trkpt lat="45.379445" lon="10.5931233"><ele>137.66666666666666</ele><time>2026-03-29T08:30:34.414Z</time></trkpt><trkpt lat="45.3794817" lon="10.59344"><ele>138.0</ele><time>2026-03-29T08:30:35.414Z</time></trkpt><trkpt lat="45.3794883" lon="10.59375"><ele>138.0</ele><time>2026-03-29T08:30:36.414Z</time></trkpt><trkpt lat="45.3794917" lon="10.594065"><ele>138.0</ele><time>2026-03-29T08:30:37.414Z</time></trkpt><trkpt lat="45.37949" lon="10.5943667"><ele>138.0</ele><time>2026-03-29T08:30:38.414Z</time></trkpt><trkpt lat="45.3794967" lon="10.5946433"><ele>138.0</ele><time>2026-03-29T08:30:39.414Z</time></trkpt><trkpt lat="45.3794983" lon="10.59489"><ele>138.0</ele><time>2026-03-29T08:30:40.414Z</time></trkpt><trkpt lat="45.3795183" lon="10.5951217"><ele>138.0</ele><time>2026-03-29T08:30:41.414Z</time></trkpt><trkpt lat="45.3795433" lon="10.59534"><ele>138.66666666666666</ele><time>2026-03-29T08:30:42.415Z</time></trkpt><trkpt lat="45.379585" lon="10.5955617"><ele>139.33333333333331</ele><time>2026-03-29T08:30:43.414Z</time></trkpt><trkpt lat="45.379635" lon="10.5957833"><ele>140.0</ele><time>2026-03-29T08:30:44.414Z</time></trkpt><trkpt lat="45.3796983" lon="10.59602"><ele>138.33333333333331</ele><time>2026-03-29T08:30:45.414Z</time></trkpt><trkpt lat="45.3797633" lon="10.5962483"><ele>136.66666666666666</ele><time>2026-03-29T08:30:46.414Z</time></trkpt><trkpt lat="45.3798283" lon="10.5964883"><ele>135.0</ele><time>2026-03-29T08:30:47.414Z</time></trkpt><trkpt lat="45.37989" lon="10.5967183"><ele>135.0</ele><time>2026-03-29T08:30:48.414Z</time></trkpt><trkpt lat="45.3799533" lon="10.5969467"><ele>135.0</ele><time>2026-03-29T08:30:49.414Z</time></trkpt><trkpt lat="45.3800133" lon="10.5971833"><ele>135.0</ele><time>2026-03-29T08:30:50.414Z</time></trkpt><trkpt lat="45.3800717" lon="10.5974183"><ele>135.25</ele><time>2026-03-29T08:30:51.414Z</time></trkpt><trkpt lat="45.3801317" lon="10.5976333"><ele>135.5</ele><time>2026-03-29T08:30:52.415Z</time></trkpt><trkpt lat="45.3801817" lon="10.597825"><ele>135.75</ele><time>2026-03-29T08:30:53.415Z</time></trkpt><trkpt lat="45.3802217" lon="10.59799"><ele>136.0</ele><time>2026-03-29T08:30:54.414Z</time></trkpt><trkpt lat="45.38026" lon="10.5981333"><ele>136.2</ele><time>2026-03-29T08:30:55.414Z</time></trkpt><trkpt lat="45.3802967" lon="10.5982683"><ele>136.39999999999998</ele><time>2026-03-29T08:30:56.414Z</time></trkpt><trkpt lat="45.3803267" lon="10.5983867"><ele>136.6</ele><time>2026-03-29T08:30:57.414Z</time></trkpt><trkpt lat="45.38035" lon="10.5985"><ele>136.79999999999998</ele><time>2026-03-29T08:30:58.414Z</time></trkpt><trkpt lat="45.3803567" lon="10.598605"><ele>137.0</ele><time>2026-03-29T08:30:59.414Z</time></trkpt><trkpt lat="45.380355" lon="10.5987683"><ele>137.0</ele><time>2026-03-29T08:31:01.414Z</time></trkpt><trkpt lat="45.3803517" lon="10.598895"><ele>137.0</ele><time>2026-03-29T08:31:03.414Z</time></trkpt><trkpt lat="45.3803533" lon="10.5990283"><ele>137.0</ele><time>2026-03-29T08:31:05.414Z</time></trkpt><trkpt lat="45.3803683" lon="10.5991933"><ele>137.0</ele><time>2026-03-29T08:31:07.414Z</time></trkpt><trkpt lat="45.380375" lon="10.5993667"><ele>137.0</ele><time>2026-03-29T08:31:09.414Z</time></trkpt><trkpt lat="45.3803767" lon="10.5994583"><ele>136.83333333333331</ele><time>2026-03-29T08:31:10.414Z</time></trkpt><trkpt lat="45.380385" lon="10.599565"><ele>136.66666666666666</ele><time>2026-03-29T08:31:11.414Z</time></trkpt><trkpt lat="45.3803883" lon="10.59968"><ele>136.5</ele><time>2026-03-29T08:31:12.414Z</time></trkpt><trkpt lat="45.38039" lon="10.5997933"><ele>136.33333333333334</ele><time>2026-03-29T08:31:13.415Z</time></trkpt><trkpt lat="45.3803917" lon="10.5999033"><ele>136.16666666666669</ele><time>2026-03-29T08:31:14.414Z</time></trkpt><trkpt lat="45.380395" lon="10.600015"><ele>136.0</ele><time>2026-03-29T08:31:15.414Z</time></trkpt><trkpt lat="45.3804017" lon="10.60012"><ele>136.0</ele><time>2026-03-29T08:31:16.414Z</time></trkpt><trkpt lat="45.3804117" lon="10.600235"><ele>136.0</ele><time>2026-03-29T08:31:17.414Z</time></trkpt><trkpt lat="45.38042" lon="10.60034"><ele>136.0</ele><time>2026-03-29T08:31:18.414Z</time></trkpt><trkpt lat="45.3804217" lon="10.6004667"><ele>136.0</ele><time>2026-03-29T08:31:20.414Z</time></trkpt><trkpt lat="45.3804933" lon="10.600435"><ele>136.0</ele><time>2026-03-29T08:31:51.415Z</time></trkpt><trkpt lat="45.3805833" lon="10.600415"><ele>136.0</ele><time>2026-03-29T08:31:54.414Z</time></trkpt><trkpt lat="45.3806533" lon="10.6003783"><ele>135.5</ele><time>2026-03-29T09:04:13.408Z</time></trkpt><trkpt lat="45.3805767" lon="10.6003683"><ele>135.0</ele><time>2026-03-29T09:04:15.408Z</time></trkpt><trkpt lat="45.3804867" lon="10.600375"><ele>134.5</ele><time>2026-03-29T09:04:17.407Z</time></trkpt><trkpt lat="45.38042" lon="10.6004217"><ele>134.0</ele><time>2026-03-29T09:04:20.407Z</time></trkpt><trkpt lat="45.3803867" lon="10.6005017"><ele>133.5</ele><time>2026-03-29T09:04:23.407Z</time></trkpt><trkpt lat="45.380305" lon="10.600555"><ele>133.0</ele><time>2026-03-29T09:05:14.406Z</time></trkpt><trkpt lat="45.380225" lon="10.60059"><ele>133.0</ele><time>2026-03-29T09:05:16.406Z</time></trkpt><trkpt lat="45.38011" lon="10.6006167"><ele>133.0</ele><time>2026-03-29T09:05:18.406Z</time></trkpt><trkpt lat="45.3799867" lon="10.6006383"><ele>133.0</ele><time>2026-03-29T09:05:20.406Z</time></trkpt><trkpt lat="45.3798633" lon="10.6006617"><ele>133.0</ele><time>2026-03-29T09:05:22.406Z</time></trkpt><trkpt lat="45.3797967" lon="10.6006733"><ele>133.0</ele><time>2026-03-29T09:05:23.406Z</time></trkpt><trkpt lat="45.37972" lon="10.600705"><ele>133.33333333333334</ele><time>2026-03-29T09:05:24.406Z</time></trkpt><trkpt lat="45.3796417" lon="10.6007333"><ele>133.66666666666669</ele><time>2026-03-29T09:05:25.406Z</time></trkpt><trkpt lat="45.3795583" lon="10.600745"><ele>134.0</ele><time>2026-03-29T09:05:26.406Z</time></trkpt><trkpt lat="45.3794717" lon="10.6007567"><ele>134.33333333333334</ele><time>2026-03-29T09:05:27.407Z</time></trkpt><trkpt lat="45.3793833" lon="10.6007733"><ele>134.66666666666666</ele><time>2026-03-29T09:05:28.406Z</time></trkpt><trkpt lat="45.37929" lon="10.600795"><ele>135.0</ele><time>2026-03-29T09:05:29.406Z</time></trkpt><trkpt lat="45.3791917" lon="10.6008067"><ele>135.0</ele><time>2026-03-29T09:05:30.406Z</time></trkpt><trkpt lat="45.379085" lon="10.6008167"><ele>135.0</ele><time>2026-03-29T09:05:31.407Z</time></trkpt><trkpt lat="45.3789683" lon="10.600825"><ele>135.0</ele><time>2026-03-29T09:05:32.406Z</time></trkpt><trkpt lat="45.3788467" lon="10.6008133"><ele>135.0</ele><time>2026-03-29T09:05:33.406Z</time></trkpt><trkpt lat="45.378715" lon="10.6007883"><ele>133.33333333333334</ele><time>2026-03-29T09:05:34.406Z</time></trkpt><trkpt lat="45.3785667" lon="10.6007483"><ele>131.66666666666669</ele><time>2026-03-29T09:05:35.406Z</time></trkpt><trkpt lat="45.3784183" lon="10.600705"><ele>130.0</ele><time>2026-03-29T09:05:36.406Z</time></trkpt><trkpt lat="45.37827" lon="10.600675"><ele>130.0</ele><time>2026-03-29T09:05:37.406Z</time></trkpt><trkpt lat="45.3781183" lon="10.6006733"><ele>130.0</ele><time>2026-03-29T09:05:38.406Z</time></trkpt><trkpt lat="45.3779817" lon="10.6006867"><ele>130.0</ele><time>2026-03-29T09:05:39.406Z</time></trkpt><trkpt lat="45.3778367" lon="10.6007183"><ele>130.0</ele><time>2026-03-29T09:05:40.406Z</time></trkpt><trkpt lat="45.377705" lon="10.60079"><ele>128.0</ele><time>2026-03-29T09:05:41.406Z</time></trkpt><trkpt lat="45.3775733" lon="10.60088"><ele>126.0</ele><time>2026-03-29T09:05:42.406Z</time></trkpt><trkpt lat="45.3774467" lon="10.6009917"><ele>124.0</ele><time>2026-03-29T09:05:43.406Z</time></trkpt><trkpt lat="45.3773267" lon="10.6010967"><ele>122.0</ele><time>2026-03-29T09:05:44.406Z</time></trkpt><trkpt lat="45.3771933" lon="10.6012117"><ele>121.0</ele><time>2026-03-29T09:05:45.406Z</time></trkpt><trkpt lat="45.3770467" lon="10.6013283"><ele>120.0</ele><time>2026-03-29T09:05:46.406Z</time></trkpt><trkpt lat="45.3768933" lon="10.6014233"><ele>119.0</ele><time>2026-03-29T09:05:47.406Z</time></trkpt><trkpt lat="45.37674" lon="10.6014883"><ele>119.0</ele><time>2026-03-29T09:05:48.406Z</time></trkpt><trkpt lat="45.3765917" lon="10.6015267"><ele>119.0</ele><time>2026-03-29T09:05:49.406Z</time></trkpt><trkpt lat="45.3764467" lon="10.601555"><ele>119.0</ele><time>2026-03-29T09:05:50.406Z</time></trkpt><trkpt lat="45.3763017" lon="10.6015883"><ele>119.0</ele><time>2026-03-29T09:05:51.406Z</time></trkpt><trkpt lat="45.3761533" lon="10.6016133"><ele>119.25</ele><time>2026-03-29T09:05:52.406Z</time></trkpt><trkpt lat="45.37601" lon="10.6016217"><ele>119.5</ele><time>2026-03-29T09:05:53.407Z</time></trkpt><trkpt lat="45.3758667" lon="10.6016067"><ele>119.75</ele><time>2026-03-29T09:05:54.406Z</time></trkpt><trkpt lat="45.37572" lon="10.6015867"><ele>120.0</ele><time>2026-03-29T09:05:55.406Z</time></trkpt><trkpt lat="45.3755633" lon="10.60156"><ele>118.0</ele><time>2026-03-29T09:05:56.406Z</time></trkpt><trkpt lat="45.3754067" lon="10.6015133"><ele>116.0</ele><time>2026-03-29T09:05:57.406Z</time></trkpt><trkpt lat="45.3752533" lon="10.6014367"><ele>114.0</ele><time>2026-03-29T09:05:58.406Z</time></trkpt><trkpt lat="45.3751067" lon="10.6013383"><ele>114.0</ele><time>2026-03-29T09:05:59.406Z</time></trkpt><trkpt lat="45.37496" lon="10.6012317"><ele>114.0</ele><time>2026-03-29T09:06:00.406Z</time></trkpt><trkpt lat="45.37481" lon="10.6011117"><ele>114.0</ele><time>2026-03-29T09:06:01.407Z</time></trkpt><trkpt lat="45.37466" lon="10.6009883"><ele>113.0</ele><time>2026-03-29T09:06:02.406Z</time></trkpt><trkpt lat="45.3745117" lon="10.6008667"><ele>112.0</ele><time>2026-03-29T09:06:03.406Z</time></trkpt><trkpt lat="45.374355" lon="10.600755"><ele>111.0</ele><time>2026-03-29T09:06:04.406Z</time></trkpt><trkpt lat="45.3742033" lon="10.600665"><ele>111.0</ele><time>2026-03-29T09:06:05.406Z</time></trkpt><trkpt lat="45.3740517" lon="10.600555"><ele>111.0</ele><time>2026-03-29T09:06:06.406Z</time></trkpt><trkpt lat="45.373905" lon="10.6004517"><ele>111.0</ele><time>2026-03-29T09:06:07.406Z</time></trkpt><trkpt lat="45.37376" lon="10.60033"><ele>111.33333333333334</ele><time>2026-03-29T09:06:08.406Z</time></trkpt><trkpt lat="45.3736283" lon="10.6002"><ele>111.66666666666667</ele><time>2026-03-29T09:06:09.407Z</time></trkpt><trkpt lat="45.3734983" lon="10.6000683"><ele>112.0</ele><time>2026-03-29T09:06:10.407Z</time></trkpt><trkpt lat="45.3733833" lon="10.59995"><ele>112.0</ele><time>2026-03-29T09:06:11.406Z</time></trkpt><trkpt lat="45.3732867" lon="10.5998367"><ele>112.0</ele><time>2026-03-29T09:06:12.406Z</time></trkpt><trkpt lat="45.373195" lon="10.5996983"><ele>112.0</ele><time>2026-03-29T09:06:13.407Z</time></trkpt><trkpt lat="45.37313" lon="10.5995433"><ele>112.0</ele><time>2026-03-29T09:06:14.406Z</time></trkpt><trkpt lat="45.373085" lon="10.5993633"><ele>111.25</ele><time>2026-03-29T09:06:15.406Z</time></trkpt><trkpt lat="45.3730617" lon="10.599185"><ele>110.5</ele><time>2026-03-29T09:06:16.406Z</time></trkpt><trkpt lat="45.3730433" lon="10.5989917"><ele>109.75</ele><time>2026-03-29T09:06:17.407Z</time></trkpt><trkpt lat="45.3730267" lon="10.598785"><ele>109.0</ele><time>2026-03-29T09:06:18.406Z</time></trkpt><trkpt lat="45.372995" lon="10.5985633"><ele>108.66666666666667</ele><time>2026-03-29T09:06:19.407Z</time></trkpt><trkpt lat="45.37296" lon="10.5983483"><ele>108.33333333333334</ele><time>2026-03-29T09:06:20.406Z</time></trkpt><trkpt lat="45.372905" lon="10.5981317"><ele>108.0</ele><time>2026-03-29T09:06:21.406Z</time></trkpt><trkpt lat="45.3728333" lon="10.5979217"><ele>108.33333333333334</ele><time>2026-03-29T09:06:22.406Z</time></trkpt><trkpt lat="45.3727567" lon="10.5977033"><ele>108.66666666666667</ele><time>2026-03-29T09:06:23.407Z</time></trkpt><trkpt lat="45.3726783" lon="10.5974867"><ele>109.0</ele><time>2026-03-29T09:06:24.406Z</time></trkpt><trkpt lat="45.372595" lon="10.5973"><ele>109.0</ele><time>2026-03-29T09:06:25.406Z</time></trkpt><trkpt lat="45.372485" lon="10.5971283"><ele>109.0</ele><time>2026-03-29T09:06:26.406Z</time></trkpt><trkpt lat="45.3723483" lon="10.5970183"><ele>109.0</ele><time>2026-03-29T09:06:27.406Z</time></trkpt><trkpt lat="45.3721967" lon="10.5969333"><ele>110.0</ele><time>2026-03-29T09:06:28.406Z</time></trkpt><trkpt lat="45.37205" lon="10.5968533"><ele>111.0</ele><time>2026-03-29T09:06:29.406Z</time></trkpt><trkpt lat="45.371905" lon="10.5967833"><ele>112.0</ele><time>2026-03-29T09:06:30.406Z</time></trkpt><trkpt lat="45.3717517" lon="10.596695"><ele>112.0</ele><time>2026-03-29T09:06:31.406Z</time></trkpt><trkpt lat="45.3716083" lon="10.596615"><ele>112.0</ele><time>2026-03-29T09:06:32.406Z</time></trkpt><trkpt lat="45.371475" lon="10.5965317"><ele>112.0</ele><time>2026-03-29T09:06:33.406Z</time></trkpt><trkpt lat="45.3713383" lon="10.5964483"><ele>112.0</ele><time>2026-03-29T09:06:34.406Z</time></trkpt><trkpt lat="45.3712" lon="10.5963733"><ele>112.0</ele><time>2026-03-29T09:06:35.407Z</time></trkpt><trkpt lat="45.3710633" lon="10.5962917"><ele>112.0</ele><time>2026-03-29T09:06:36.407Z</time></trkpt><trkpt lat="45.3709217" lon="10.5962167"><ele>112.0</ele><time>2026-03-29T09:06:37.406Z</time></trkpt><trkpt lat="45.370785" lon="10.5961517"><ele>112.0</ele><time>2026-03-29T09:06:38.406Z</time></trkpt><trkpt lat="45.3706567" lon="10.5960933"><ele>112.5</ele><time>2026-03-29T09:06:39.406Z</time></trkpt><trkpt lat="45.370535" lon="10.5960433"><ele>113.0</ele><time>2026-03-29T09:06:40.406Z</time></trkpt><trkpt lat="45.37041" lon="10.5960083"><ele>113.5</ele><time>2026-03-29T09:06:41.407Z</time></trkpt><trkpt lat="45.3702967" lon="10.595985"><ele>114.0</ele><time>2026-03-29T09:06:42.407Z</time></trkpt><trkpt lat="45.3702117" lon="10.595985"><ele>115.0</ele><time>2026-03-29T09:06:43.406Z</time></trkpt><trkpt lat="45.3701433" lon="10.59597"><ele>116.0</ele><time>2026-03-29T09:06:44.406Z</time></trkpt><trkpt lat="45.3700817" lon="10.595875"><ele>117.0</ele><time>2026-03-29T09:06:46.406Z</time></trkpt><trkpt lat="45.3700883" lon="10.5957833"><ele>118.0</ele><time>2026-03-29T09:06:47.406Z</time></trkpt><trkpt lat="45.3700983" lon="10.59568"><ele>119.0</ele><time>2026-03-29T09:06:48.406Z</time></trkpt><trkpt lat="45.370115" lon="10.59555"><ele>120.0</ele><time>2026-03-29T09:06:49.406Z</time></trkpt><trkpt lat="45.37014" lon="10.5953917"><ele>120.25</ele><time>2026-03-29T09:06:50.406Z</time></trkpt><trkpt lat="45.3701583" lon="10.595215"><ele>120.5</ele><time>2026-03-29T09:06:51.406Z</time></trkpt><trkpt lat="45.3701767" lon="10.5950217"><ele>120.75</ele><time>2026-03-29T09:06:52.406Z</time></trkpt><trkpt lat="45.3701833" lon="10.5948067"><ele>121.0</ele><time>2026-03-29T09:06:53.406Z</time></trkpt><trkpt lat="45.3701783" lon="10.5945967"><ele>121.5</ele><time>2026-03-29T09:06:54.407Z</time></trkpt><trkpt lat="45.3701567" lon="10.5943883"><ele>122.0</ele><time>2026-03-29T09:06:55.406Z</time></trkpt><trkpt lat="45.370135" lon="10.59421"><ele>122.5</ele><time>2026-03-29T09:06:56.406Z</time></trkpt><trkpt lat="45.3701167" lon="10.59404"><ele>123.0</ele><time>2026-03-29T09:06:57.406Z</time></trkpt><trkpt lat="45.370105" lon="10.593885"><ele>123.0</ele><time>2026-03-29T09:06:58.406Z</time></trkpt><trkpt lat="45.3700967" lon="10.5937367"><ele>123.00000000000001</ele><time>2026-03-29T09:06:59.406Z</time></trkpt><trkpt lat="45.3700917" lon="10.5935983"><ele>123.00000000000001</ele><time>2026-03-29T09:07:00.406Z</time></trkpt><trkpt lat="45.3700967" lon="10.5934633"><ele>123.0</ele><time>2026-03-29T09:07:01.406Z</time></trkpt><trkpt lat="45.3701167" lon="10.5933383"><ele>123.0</ele><time>2026-03-29T09:07:02.407Z</time></trkpt><trkpt lat="45.3701367" lon="10.593215"><ele>123.25</ele><time>2026-03-29T09:07:03.406Z</time></trkpt><trkpt lat="45.3701933" lon="10.5930767"><ele>123.5</ele><time>2026-03-29T09:07:04.406Z</time></trkpt><trkpt lat="45.37025" lon="10.592935"><ele>123.75</ele><time>2026-03-29T09:07:05.407Z</time></trkpt><trkpt lat="45.3703083" lon="10.5927867"><ele>124.0</ele><time>2026-03-29T09:07:06.406Z</time></trkpt><trkpt lat="45.37037" lon="10.5926283"><ele>125.0</ele><time>2026-03-29T09:07:07.406Z</time></trkpt><trkpt lat="45.3704367" lon="10.5924533"><ele>126.0</ele><time>2026-03-29T09:07:08.406Z</time></trkpt><trkpt lat="45.3704933" lon="10.5922933"><ele>127.0</ele><time>2026-03-29T09:07:09.406Z</time></trkpt><trkpt lat="45.37055" lon="10.5921233"><ele>128.0</ele><time>2026-03-29T09:07:10.407Z</time></trkpt><trkpt lat="45.3706117" lon="10.5919383"><ele>124.5</ele><time>2026-03-29T09:07:11.406Z</time></trkpt><trkpt lat="45.3706667" lon="10.5917483"><ele>121.0</ele><time>2026-03-29T09:07:12.406Z</time></trkpt><trkpt lat="45.37071" lon="10.5915667"><ele>117.5</ele><time>2026-03-29T09:07:13.406Z</time></trkpt><trkpt lat="45.3707317" lon="10.591385"><ele>114.0</ele><time>2026-03-29T09:07:14.406Z</time></trkpt><trkpt lat="45.3707417" lon="10.5912183"><ele>113.66666666666667</ele><time>2026-03-29T09:07:15.406Z</time></trkpt><trkpt lat="45.37074" lon="10.5910517"><ele>113.33333333333334</ele><time>2026-03-29T09:07:16.406Z</time></trkpt><trkpt lat="45.3707467" lon="10.5909117"><ele>113.0</ele><time>2026-03-29T09:07:17.407Z</time></trkpt><trkpt lat="45.3707317" lon="10.590805"><ele>112.66666666666667</ele><time>2026-03-29T09:07:18.407Z</time></trkpt><trkpt lat="45.370715" lon="10.5907133"><ele>112.33333333333334</ele><time>2026-03-29T09:07:19.407Z</time></trkpt><trkpt lat="45.370675" lon="10.59062"><ele>112.0</ele><time>2026-03-29T09:07:20.406Z</time></trkpt><trkpt lat="45.3706183" lon="10.5905133"><ele>112.0</ele><time>2026-03-29T09:07:21.406Z</time></trkpt><trkpt lat="45.37054" lon="10.5903933"><ele>112.0</ele><time>2026-03-29T09:07:22.406Z</time></trkpt><trkpt lat="45.3704533" lon="10.59027"><ele>112.0</ele><time>2026-03-29T09:07:23.406Z</time></trkpt><trkpt lat="45.370375" lon="10.59014"><ele>112.0</ele><time>2026-03-29T09:07:24.406Z</time></trkpt><trkpt lat="45.3703217" lon="10.5899917"><ele>112.19999999999999</ele><time>2026-03-29T09:07:25.406Z</time></trkpt><trkpt lat="45.3702683" lon="10.5898517"><ele>112.39999999999999</ele><time>2026-03-29T09:07:26.406Z</time></trkpt><trkpt lat="45.370215" lon="10.5897267"><ele>112.60000000000001</ele><time>2026-03-29T09:07:27.406Z</time></trkpt><trkpt lat="45.370155" lon="10.5896283"><ele>112.80000000000001</ele><time>2026-03-29T09:07:28.406Z</time></trkpt><trkpt lat="45.3700817" lon="10.58955"><ele>113.0</ele><time>2026-03-29T09:07:29.406Z</time></trkpt><trkpt lat="45.3699867" lon="10.5894867"><ele>113.0</ele><time>2026-03-29T09:07:30.406Z</time></trkpt><trkpt lat="45.36989" lon="10.5894383"><ele>113.00000000000001</ele><time>2026-03-29T09:07:31.406Z</time></trkpt><trkpt lat="45.3697833" lon="10.5893867"><ele>113.00000000000001</ele><time>2026-03-29T09:07:32.406Z</time></trkpt><trkpt lat="45.3697" lon="10.5893417"><ele>113.0</ele><time>2026-03-29T09:07:33.406Z</time></trkpt><trkpt lat="45.3696133" lon="10.5892717"><ele>113.0</ele><time>2026-03-29T09:07:34.406Z</time></trkpt><trkpt lat="45.3695433" lon="10.5891983"><ele>115.75</ele><time>2026-03-29T09:07:35.406Z</time></trkpt><trkpt lat="45.3694633" lon="10.5890917"><ele>118.5</ele><time>2026-03-29T09:07:36.407Z</time></trkpt><trkpt lat="45.3693883" lon="10.58897"><ele>121.25</ele><time>2026-03-29T09:07:37.406Z</time></trkpt><trkpt lat="45.369315" lon="10.5888383"><ele>124.0</ele><time>2026-03-29T09:07:38.406Z</time></trkpt><trkpt lat="45.3692417" lon="10.5886967"><ele>122.25</ele><time>2026-03-29T09:07:39.406Z</time></trkpt><trkpt lat="45.3691667" lon="10.5885433"><ele>120.5</ele><time>2026-03-29T09:07:40.406Z</time></trkpt><trkpt lat="45.3690967" lon="10.5883967"><ele>118.75</ele><time>2026-03-29T09:07:41.406Z</time></trkpt><trkpt lat="45.3690233" lon="10.5882733"><ele>117.0</ele><time>2026-03-29T09:07:42.406Z</time></trkpt><trkpt lat="45.3689333" lon="10.5881717"><ele>118.39999999999999</ele><time>2026-03-29T09:07:43.406Z</time></trkpt><trkpt lat="45.3688417" lon="10.5881"><ele>119.79999999999998</ele><time>2026-03-29T09:07:44.406Z</time></trkpt><trkpt lat="45.3687333" lon="10.5880233"><ele>121.2</ele><time>2026-03-29T09:07:45.406Z</time></trkpt><trkpt lat="45.3686367" lon="10.5879467"><ele>122.6</ele><time>2026-03-29T09:07:46.406Z</time></trkpt><trkpt lat="45.3685517" lon="10.587845"><ele>124.0</ele><time>2026-03-29T09:07:47.406Z</time></trkpt><trkpt lat="45.3684667" lon="10.5877183"><ele>124.0</ele><time>2026-03-29T09:07:48.407Z</time></trkpt><trkpt lat="45.36839" lon="10.5875933"><ele>124.0</ele><time>2026-03-29T09:07:49.405Z</time></trkpt><trkpt lat="45.3683333" lon="10.587455"><ele>124.0</ele><time>2026-03-29T09:07:50.405Z</time></trkpt><trkpt lat="45.3682783" lon="10.5873317"><ele>124.0</ele><time>2026-03-29T09:07:51.405Z</time></trkpt><trkpt lat="45.3682233" lon="10.5872367"><ele>124.0</ele><time>2026-03-29T09:07:52.406Z</time></trkpt><trkpt lat="45.3681783" lon="10.5871533"><ele>124.00000000000001</ele><time>2026-03-29T09:07:53.405Z</time></trkpt><trkpt lat="45.3681217" lon="10.5870683"><ele>124.0</ele><time>2026-03-29T09:07:54.406Z</time></trkpt><trkpt lat="45.3680767" lon="10.5869867"><ele>124.0</ele><time>2026-03-29T09:07:55.405Z</time></trkpt><trkpt lat="45.3680333" lon="10.5868817"><ele>124.0</ele><time>2026-03-29T09:07:56.405Z</time></trkpt><trkpt lat="45.368" lon="10.5867667"><ele>124.00000000000001</ele><time>2026-03-29T09:07:57.406Z</time></trkpt><trkpt lat="45.3679617" lon="10.5866517"><ele>124.0</ele><time>2026-03-29T09:07:58.405Z</time></trkpt><trkpt lat="45.36791" lon="10.58654"><ele>123.25</ele><time>2026-03-29T09:07:59.406Z</time></trkpt><trkpt lat="45.3678467" lon="10.58642"><ele>122.5</ele><time>2026-03-29T09:08:00.406Z</time></trkpt><trkpt lat="45.3677733" lon="10.58629"><ele>121.75</ele><time>2026-03-29T09:08:01.406Z</time></trkpt><trkpt lat="45.3676967" lon="10.5861483"><ele>121.0</ele><time>2026-03-29T09:08:02.405Z</time></trkpt><trkpt lat="45.367615" lon="10.586015"><ele>121.0</ele><time>2026-03-29T09:08:03.405Z</time></trkpt><trkpt lat="45.3675433" lon="10.5858817"><ele>121.0</ele><time>2026-03-29T09:08:04.405Z</time></trkpt><trkpt lat="45.367475" lon="10.5857517"><ele>121.0</ele><time>2026-03-29T09:08:05.405Z</time></trkpt><trkpt lat="45.3674067" lon="10.58561"><ele>121.0</ele><time>2026-03-29T09:08:06.405Z</time></trkpt><trkpt lat="45.3673383" lon="10.58546"><ele>121.16666666666667</ele><time>2026-03-29T09:08:07.405Z</time></trkpt><trkpt lat="45.36728" lon="10.585335"><ele>121.33333333333334</ele><time>2026-03-29T09:08:08.406Z</time></trkpt><trkpt lat="45.3672317" lon="10.5852333"><ele>121.5</ele><time>2026-03-29T09:08:09.405Z</time></trkpt><trkpt lat="45.3672033" lon="10.5851333"><ele>121.66666666666666</ele><time>2026-03-29T09:08:10.405Z</time></trkpt><trkpt lat="45.367215" lon="10.58504"><ele>121.83333333333333</ele><time>2026-03-29T09:08:11.405Z</time></trkpt><trkpt lat="45.3672283" lon="10.58492"><ele>122.0</ele><time>2026-03-29T09:08:12.405Z</time></trkpt><trkpt lat="45.3672733" lon="10.584775"><ele>122.0</ele><time>2026-03-29T09:08:13.405Z</time></trkpt><trkpt lat="45.3673433" lon="10.5846267"><ele>122.0</ele><time>2026-03-29T09:08:14.405Z</time></trkpt><trkpt lat="45.3674283" lon="10.5844633"><ele>122.0</ele><time>2026-03-29T09:08:15.405Z</time></trkpt><trkpt lat="45.3675267" lon="10.5842833"><ele>122.0</ele><time>2026-03-29T09:08:16.405Z</time></trkpt><trkpt lat="45.36761" lon="10.58411"><ele>123.25</ele><time>2026-03-29T09:08:17.405Z</time></trkpt><trkpt lat="45.3676933" lon="10.5839367"><ele>124.5</ele><time>2026-03-29T09:08:18.405Z</time></trkpt><trkpt lat="45.367765" lon="10.5837817"><ele>125.75</ele><time>2026-03-29T09:08:19.405Z</time></trkpt><trkpt lat="45.3678333" lon="10.5835983"><ele>127.0</ele><time>2026-03-29T09:08:20.405Z</time></trkpt><trkpt lat="45.3678817" lon="10.5834417"><ele>127.5</ele><time>2026-03-29T09:08:21.405Z</time></trkpt><trkpt lat="45.3679117" lon="10.5832917"><ele>128.0</ele><time>2026-03-29T09:08:22.405Z</time></trkpt><trkpt lat="45.3679283" lon="10.5831317"><ele>128.5</ele><time>2026-03-29T09:08:23.406Z</time></trkpt><trkpt lat="45.36795" lon="10.582955"><ele>129.0</ele><time>2026-03-29T09:08:24.405Z</time></trkpt><trkpt lat="45.367975" lon="10.5827717"><ele>129.0</ele><time>2026-03-29T09:08:25.406Z</time></trkpt><trkpt lat="45.3680033" lon="10.5825917"><ele>129.0</ele><time>2026-03-29T09:08:26.405Z</time></trkpt><trkpt lat="45.36804" lon="10.5824233"><ele>129.0</ele><time>2026-03-29T09:08:27.405Z</time></trkpt><trkpt lat="45.3680667" lon="10.5822783"><ele>129.0</ele><time>2026-03-29T09:08:28.405Z</time></trkpt><trkpt lat="45.3681117" lon="10.5821367"><ele>126.16666666666667</ele><time>2026-03-29T09:08:29.405Z</time></trkpt><trkpt lat="45.36815" lon="10.5820133"><ele>123.33333333333334</ele><time>2026-03-29T09:08:30.405Z</time></trkpt><trkpt lat="45.3681883" lon="10.58193"><ele>120.5</ele><time>2026-03-29T09:08:31.406Z</time></trkpt><trkpt lat="45.3682467" lon="10.5818783"><ele>117.66666666666667</ele><time>2026-03-29T09:08:32.405Z</time></trkpt><trkpt lat="45.368315" lon="10.5818433"><ele>114.83333333333334</ele><time>2026-03-29T09:08:33.405Z</time></trkpt><trkpt lat="45.3684117" lon="10.581835"><ele>112.0</ele><time>2026-03-29T09:08:34.406Z</time></trkpt><trkpt lat="45.3685333" lon="10.5818117"><ele>112.0</ele><time>2026-03-29T09:08:35.406Z</time></trkpt><trkpt lat="45.3686667" lon="10.5817733"><ele>112.0</ele><time>2026-03-29T09:08:36.405Z</time></trkpt><trkpt lat="45.3688067" lon="10.5817083"><ele>112.0</ele><time>2026-03-29T09:08:37.405Z</time></trkpt><trkpt lat="45.3689367" lon="10.5816367"><ele>112.0</ele><time>2026-03-29T09:08:38.405Z</time></trkpt><trkpt lat="45.3690617" lon="10.5815733"><ele>111.8</ele><time>2026-03-29T09:08:39.405Z</time></trkpt><trkpt lat="45.36917" lon="10.58153"><ele>111.6</ele><time>2026-03-29T09:08:40.405Z</time></trkpt><trkpt lat="45.3692583" lon="10.5814767"><ele>111.39999999999999</ele><time>2026-03-29T09:08:41.405Z</time></trkpt><trkpt lat="45.36933" lon="10.58142"><ele>111.19999999999999</ele><time>2026-03-29T09:08:42.406Z</time></trkpt><trkpt lat="45.3693983" lon="10.5812867"><ele>111.0</ele><time>2026-03-29T09:08:44.405Z</time></trkpt><trkpt lat="45.36938" lon="10.581195"><ele>111.0</ele><time>2026-03-29T09:08:46.406Z</time></trkpt><trkpt lat="45.3692833" lon="10.5811833"><ele>111.0</ele><time>2026-03-29T09:08:48.406Z</time></trkpt><trkpt lat="45.369195" lon="10.5812117"><ele>111.0</ele><time>2026-03-29T09:08:49.405Z</time></trkpt><trkpt lat="45.369095" lon="10.5812483"><ele>111.0</ele><time>2026-03-29T09:08:50.405Z</time></trkpt><trkpt lat="45.3689867" lon="10.5812867"><ele>111.0</ele><time>2026-03-29T09:08:51.405Z</time></trkpt><trkpt lat="45.368865" lon="10.5813267"><ele>111.25</ele><time>2026-03-29T09:08:52.405Z</time></trkpt><trkpt lat="45.3687267" lon="10.581375"><ele>111.5</ele><time>2026-03-29T09:08:53.406Z</time></trkpt><trkpt lat="45.3685917" lon="10.5814183"><ele>111.75</ele><time>2026-03-29T09:08:54.405Z</time></trkpt><trkpt lat="45.36844" lon="10.58146"><ele>112.0</ele><time>2026-03-29T09:08:55.405Z</time></trkpt><trkpt lat="45.368275" lon="10.58149"><ele>112.0</ele><time>2026-03-29T09:08:56.405Z</time></trkpt><trkpt lat="45.3681067" lon="10.5815017"><ele>112.0</ele><time>2026-03-29T09:08:57.405Z</time></trkpt><trkpt lat="45.36793" lon="10.5815067"><ele>112.0</ele><time>2026-03-29T09:08:58.405Z</time></trkpt><trkpt lat="45.3677533" lon="10.5815217"><ele>116.0</ele><time>2026-03-29T09:08:59.406Z</time></trkpt><trkpt lat="45.3675767" lon="10.5815483"><ele>120.0</ele><time>2026-03-29T09:09:00.405Z</time></trkpt><trkpt lat="45.367405" lon="10.58156"><ele>124.0</ele><time>2026-03-29T09:09:01.405Z</time></trkpt><trkpt lat="45.36722" lon="10.5815683"><ele>125.66666666666667</ele><time>2026-03-29T09:09:02.405Z</time></trkpt><trkpt lat="45.3670267" lon="10.5815867"><ele>127.33333333333334</ele><time>2026-03-29T09:09:03.405Z</time></trkpt><trkpt lat="45.3668333" lon="10.581595"><ele>129.0</ele><time>2026-03-29T09:09:04.405Z</time></trkpt><trkpt lat="45.3666517" lon="10.5815983"><ele>129.0</ele><time>2026-03-29T09:09:05.405Z</time></trkpt><trkpt lat="45.366485" lon="10.5816017"><ele>129.0</ele><time>2026-03-29T09:09:06.405Z</time></trkpt><trkpt lat="45.3663333" lon="10.5816017"><ele>129.0</ele><time>2026-03-29T09:09:07.405Z</time></trkpt><trkpt lat="45.3661917" lon="10.5815983"><ele>129.6</ele><time>2026-03-29T09:09:08.405Z</time></trkpt><trkpt lat="45.3660717" lon="10.5815833"><ele>130.2</ele><time>2026-03-29T09:09:09.406Z</time></trkpt><trkpt lat="45.3659617" lon="10.5815417"><ele>130.79999999999998</ele><time>2026-03-29T09:09:10.405Z</time></trkpt><trkpt lat="45.36586" lon="10.5815017"><ele>131.4</ele><time>2026-03-29T09:09:11.405Z</time></trkpt><trkpt lat="45.365755" lon="10.5814617"><ele>132.0</ele><time>2026-03-29T09:09:12.406Z</time></trkpt><trkpt lat="45.3656633" lon="10.5814583"><ele>132.0</ele><time>2026-03-29T09:09:13.405Z</time></trkpt><trkpt lat="45.36557" lon="10.581495"><ele>132.0</ele><time>2026-03-29T09:09:14.405Z</time></trkpt><trkpt lat="45.3654717" lon="10.5815433"><ele>132.0</ele><time>2026-03-29T09:09:15.405Z</time></trkpt><trkpt lat="45.3653517" lon="10.5816083"><ele>132.0</ele><time>2026-03-29T09:09:16.405Z</time></trkpt><trkpt lat="45.36522" lon="10.5816567"><ele>133.66666666666666</ele><time>2026-03-29T09:09:17.405Z</time></trkpt><trkpt lat="45.36508" lon="10.5816933"><ele>135.33333333333331</ele><time>2026-03-29T09:09:18.405Z</time></trkpt><trkpt lat="45.3649283" lon="10.58171"><ele>137.0</ele><time>2026-03-29T09:09:19.405Z</time></trkpt><trkpt lat="45.36476" lon="10.5817217"><ele>138.66666666666666</ele><time>2026-03-29T09:09:20.405Z</time></trkpt><trkpt lat="45.36458" lon="10.5817417"><ele>140.33333333333334</ele><time>2026-03-29T09:09:21.405Z</time></trkpt><trkpt lat="45.3644" lon="10.5817533"><ele>142.0</ele><time>2026-03-29T09:09:22.405Z</time></trkpt><trkpt lat="45.36422" lon="10.5817533"><ele>142.0</ele><time>2026-03-29T09:09:23.405Z</time></trkpt><trkpt lat="45.36404" lon="10.5817583"><ele>142.0</ele><time>2026-03-29T09:09:24.405Z</time></trkpt><trkpt lat="45.363855" lon="10.5817567"><ele>142.0</ele><time>2026-03-29T09:09:25.405Z</time></trkpt><trkpt lat="45.3636633" lon="10.5817233"><ele>142.66666666666669</ele><time>2026-03-29T09:09:26.406Z</time></trkpt><trkpt lat="45.3634733" lon="10.58167"><ele>143.33333333333334</ele><time>2026-03-29T09:09:27.405Z</time></trkpt><trkpt lat="45.363285" lon="10.5816033"><ele>144.0</ele><time>2026-03-29T09:09:28.405Z</time></trkpt><trkpt lat="45.3630967" lon="10.5815167"><ele>144.66666666666666</ele><time>2026-03-29T09:09:29.406Z</time></trkpt><trkpt lat="45.3629167" lon="10.5814133"><ele>145.33333333333331</ele><time>2026-03-29T09:09:30.406Z</time></trkpt><trkpt lat="45.3627283" lon="10.5813267"><ele>146.0</ele><time>2026-03-29T09:09:31.405Z</time></trkpt><trkpt lat="45.3625433" lon="10.581245"><ele>146.33333333333331</ele><time>2026-03-29T09:09:32.405Z</time></trkpt><trkpt lat="45.3623667" lon="10.5811417"><ele>146.66666666666666</ele><time>2026-03-29T09:09:33.406Z</time></trkpt><trkpt lat="45.3622" lon="10.5810133"><ele>147.0</ele><time>2026-03-29T09:09:34.406Z</time></trkpt><trkpt lat="45.362035" lon="10.58088"><ele>148.66666666666666</ele><time>2026-03-29T09:09:35.406Z</time></trkpt><trkpt lat="45.3618783" lon="10.58073"><ele>150.33333333333331</ele><time>2026-03-29T09:09:36.405Z</time></trkpt><trkpt lat="45.3617367" lon="10.5806017"><ele>152.0</ele><time>2026-03-29T09:09:37.405Z</time></trkpt><trkpt lat="45.3616067" lon="10.58049"><ele>152.0</ele><time>2026-03-29T09:09:38.405Z</time></trkpt><trkpt lat="45.3614967" lon="10.5804"><ele>152.0</ele><time>2026-03-29T09:09:39.405Z</time></trkpt><trkpt lat="45.36142" lon="10.58033"><ele>152.0</ele><time>2026-03-29T09:09:40.405Z</time></trkpt><trkpt lat="45.3613383" lon="10.5802783"><ele>152.0</ele><time>2026-03-29T09:09:42.406Z</time></trkpt><trkpt lat="45.3613433" lon="10.580375"><ele>152.0</ele><time>2026-03-29T09:09:45.405Z</time></trkpt><trkpt lat="45.361415" lon="10.580485"><ele>152.0</ele><time>2026-03-29T09:09:47.405Z</time></trkpt><trkpt lat="45.3614683" lon="10.5805667"><ele>152.0</ele><time>2026-03-29T09:09:48.405Z</time></trkpt><trkpt lat="45.36154" lon="10.5806717"><ele>152.0</ele><time>2026-03-29T09:09:49.405Z</time></trkpt><trkpt lat="45.3616217" lon="10.5807867"><ele>152.0</ele><time>2026-03-29T09:09:50.405Z</time></trkpt><trkpt lat="45.36172" lon="10.5809083"><ele>152.0</ele><time>2026-03-29T09:09:51.405Z</time></trkpt><trkpt lat="45.361835" lon="10.5810183"><ele>152.0</ele><time>2026-03-29T09:09:52.406Z</time></trkpt><trkpt lat="45.361945" lon="10.5811183"><ele>152.0</ele><time>2026-03-29T09:09:53.405Z</time></trkpt><trkpt lat="45.36204" lon="10.5812133"><ele>152.0</ele><time>2026-03-29T09:09:54.406Z</time></trkpt><trkpt lat="45.3621117" lon="10.5813267"><ele>152.0</ele><time>2026-03-29T09:09:55.405Z</time></trkpt><trkpt lat="45.3621667" lon="10.5814417"><ele>152.79999999999998</ele><time>2026-03-29T09:09:56.406Z</time></trkpt><trkpt lat="45.3621883" lon="10.5815633"><ele>153.6</ele><time>2026-03-29T09:09:57.405Z</time></trkpt><trkpt lat="45.362205" lon="10.5817033"><ele>154.39999999999998</ele><time>2026-03-29T09:09:58.405Z</time></trkpt><trkpt lat="45.362205" lon="10.581865"><ele>155.2</ele><time>2026-03-29T09:09:59.406Z</time></trkpt><trkpt lat="45.362195" lon="10.58205"><ele>156.0</ele><time>2026-03-29T09:10:00.405Z</time></trkpt><trkpt lat="45.3621983" lon="10.5822683"><ele>154.0</ele><time>2026-03-29T09:10:01.405Z</time></trkpt><trkpt lat="45.3621983" lon="10.5824933"><ele>152.0</ele><time>2026-03-29T09:10:02.406Z</time></trkpt><trkpt lat="45.3622267" lon="10.5827317"><ele>150.0</ele><time>2026-03-29T09:10:03.405Z</time></trkpt><trkpt lat="45.36225" lon="10.5829517"><ele>150.0</ele><time>2026-03-29T09:10:04.405Z</time></trkpt><trkpt lat="45.3622967" lon="10.583195"><ele>150.0</ele><time>2026-03-29T09:10:05.405Z</time></trkpt><trkpt lat="45.3623383" lon="10.5834217"><ele>150.0</ele><time>2026-03-29T09:10:06.405Z</time></trkpt><trkpt lat="45.3623733" lon="10.5836383"><ele>150.75</ele><time>2026-03-29T09:10:07.405Z</time></trkpt><trkpt lat="45.3624017" lon="10.58383"><ele>151.5</ele><time>2026-03-29T09:10:08.405Z</time></trkpt><trkpt lat="45.36242" lon="10.5840317"><ele>152.25</ele><time>2026-03-29T09:10:09.405Z</time></trkpt><trkpt lat="45.36243" lon="10.584215"><ele>153.0</ele><time>2026-03-29T09:10:10.405Z</time></trkpt><trkpt lat="45.3624383" lon="10.584405"><ele>153.20000000000002</ele><time>2026-03-29T09:10:11.405Z</time></trkpt><trkpt lat="45.3624667" lon="10.584535"><ele>153.4</ele><time>2026-03-29T09:10:12.405Z</time></trkpt><trkpt lat="45.3625183" lon="10.5846583"><ele>153.60000000000002</ele><time>2026-03-29T09:10:13.405Z</time></trkpt><trkpt lat="45.3625717" lon="10.5847883"><ele>153.8</ele><time>2026-03-29T09:10:14.405Z</time></trkpt><trkpt lat="45.3626117" lon="10.58491"><ele>154.0</ele><time>2026-03-29T09:10:15.406Z</time></trkpt><trkpt lat="45.3626283" lon="10.5850217"><ele>154.0</ele><time>2026-03-29T09:10:16.405Z</time></trkpt><trkpt lat="45.3626067" lon="10.5851417"><ele>154.0</ele><time>2026-03-29T09:10:17.405Z</time></trkpt><trkpt lat="45.3625617" lon="10.5852583"><ele>154.0</ele><time>2026-03-29T09:10:18.406Z</time></trkpt><trkpt lat="45.3625167" lon="10.5853867"><ele>154.0</ele><time>2026-03-29T09:10:19.405Z</time></trkpt><trkpt lat="45.3624883" lon="10.58551"><ele>154.0</ele><time>2026-03-29T09:10:20.405Z</time></trkpt><trkpt lat="45.3624983" lon="10.5856483"><ele>153.75</ele><time>2026-03-29T09:10:21.406Z</time></trkpt><trkpt lat="45.3625267" lon="10.5858017"><ele>153.5</ele><time>2026-03-29T09:10:22.405Z</time></trkpt><trkpt lat="45.36256" lon="10.5859567"><ele>153.25</ele><time>2026-03-29T09:10:23.405Z</time></trkpt><trkpt lat="45.3625867" lon="10.5861283"><ele>153.0</ele><time>2026-03-29T09:10:24.405Z</time></trkpt><trkpt lat="45.3626017" lon="10.5863083"><ele>153.4</ele><time>2026-03-29T09:10:25.405Z</time></trkpt><trkpt lat="45.3626117" lon="10.5864617"><ele>153.8</ele><time>2026-03-29T09:10:26.405Z</time></trkpt><trkpt lat="45.3626217" lon="10.5865967"><ele>154.2</ele><time>2026-03-29T09:10:27.405Z</time></trkpt><trkpt lat="45.3626767" lon="10.5867567"><ele>154.6</ele><time>2026-03-29T09:10:29.405Z</time></trkpt><trkpt lat="45.3627283" lon="10.5868217"><ele>155.0</ele><time>2026-03-29T09:10:30.406Z</time></trkpt><trkpt lat="45.3628033" lon="10.5868683"><ele>155.0</ele><time>2026-03-29T09:10:31.405Z</time></trkpt><trkpt lat="45.3629267" lon="10.5868817"><ele>155.0</ele><time>2026-03-29T09:10:32.405Z</time></trkpt><trkpt lat="45.36306" lon="10.5868717"><ele>155.0</ele><time>2026-03-29T09:10:33.405Z</time></trkpt><trkpt lat="45.3631883" lon="10.5868417"><ele>155.0</ele><time>2026-03-29T09:10:34.405Z</time></trkpt><trkpt lat="45.363305" lon="10.5868233"><ele>154.33333333333331</ele><time>2026-03-29T09:10:35.405Z</time></trkpt><trkpt lat="45.3634017" lon="10.5868367"><ele>153.66666666666666</ele><time>2026-03-29T09:10:36.405Z</time></trkpt><trkpt lat="45.3634833" lon="10.5868667"><ele>153.0</ele><time>2026-03-29T09:10:37.405Z</time></trkpt><trkpt lat="45.3635533" lon="10.5869117"><ele>152.33333333333334</ele><time>2026-03-29T09:10:38.405Z</time></trkpt><trkpt lat="45.3635733" lon="10.5870033"><ele>151.66666666666669</ele><time>2026-03-29T09:10:39.405Z</time></trkpt><trkpt lat="45.363585" lon="10.5870967"><ele>151.0</ele><time>2026-03-29T09:10:40.405Z</time></trkpt><trkpt lat="45.363585" lon="10.5871983"><ele>151.0</ele><time>2026-03-29T09:10:41.405Z</time></trkpt><trkpt lat="45.3635867" lon="10.58732"><ele>151.0</ele><time>2026-03-29T09:10:42.405Z</time></trkpt><trkpt lat="45.3635883" lon="10.58746"><ele>151.0</ele><time>2026-03-29T09:10:43.405Z</time></trkpt><trkpt lat="45.3636033" lon="10.5875917"><ele>151.0</ele><time>2026-03-29T09:10:44.406Z</time></trkpt><trkpt lat="45.3636433" lon="10.5877133"><ele>151.0</ele><time>2026-03-29T09:10:45.405Z</time></trkpt><trkpt lat="45.3637217" lon="10.587825"><ele>150.5</ele><time>2026-03-29T09:10:46.405Z</time></trkpt><trkpt lat="45.3638317" lon="10.5879233"><ele>150.0</ele><time>2026-03-29T09:10:47.405Z</time></trkpt><trkpt lat="45.363965" lon="10.58799"><ele>149.5</ele><time>2026-03-29T09:10:48.405Z</time></trkpt><trkpt lat="45.3640967" lon="10.58805"><ele>149.0</ele><time>2026-03-29T09:10:49.405Z</time></trkpt><trkpt lat="45.3642383" lon="10.5881017"><ele>145.33333333333331</ele><time>2026-03-29T09:10:50.405Z</time></trkpt><trkpt lat="45.364375" lon="10.5881517"><ele>141.66666666666666</ele><time>2026-03-29T09:10:51.405Z</time></trkpt><trkpt lat="45.3645267" lon="10.5882117"><ele>138.0</ele><time>2026-03-29T09:10:52.405Z</time></trkpt><trkpt lat="45.3646767" lon="10.5882933"><ele>138.5</ele><time>2026-03-29T09:10:53.405Z</time></trkpt><trkpt lat="45.3648283" lon="10.5883633"><ele>139.0</ele><time>2026-03-29T09:10:54.405Z</time></trkpt><trkpt lat="45.3649617" lon="10.5884117"><ele>139.5</ele><time>2026-03-29T09:10:55.406Z</time></trkpt><trkpt lat="45.3650933" lon="10.5884417"><ele>140.0</ele><time>2026-03-29T09:10:56.405Z</time></trkpt><trkpt lat="45.36523" lon="10.5884383"><ele>140.0</ele><time>2026-03-29T09:10:57.405Z</time></trkpt><trkpt lat="45.3653717" lon="10.5884233"><ele>140.0</ele><time>2026-03-29T09:10:58.406Z</time></trkpt><trkpt lat="45.36551" lon="10.5884017"><ele>140.0</ele><time>2026-03-29T09:10:59.405Z</time></trkpt><trkpt lat="45.3656317" lon="10.5883817"><ele>140.0</ele><time>2026-03-29T09:11:00.405Z</time></trkpt><trkpt lat="45.3657517" lon="10.588375"><ele>140.5</ele><time>2026-03-29T09:11:01.405Z</time></trkpt><trkpt lat="45.36586" lon="10.5883933"><ele>141.0</ele><time>2026-03-29T09:11:02.405Z</time></trkpt><trkpt lat="45.3659567" lon="10.5884267"><ele>141.5</ele><time>2026-03-29T09:11:03.405Z</time></trkpt><trkpt lat="45.3660383" lon="10.5884617"><ele>142.0</ele><time>2026-03-29T09:11:04.406Z</time></trkpt><trkpt lat="45.3661033" lon="10.5884933"><ele>142.5</ele><time>2026-03-29T09:11:05.405Z</time></trkpt><trkpt lat="45.366165" lon="10.588575"><ele>143.0</ele><time>2026-03-29T09:11:07.405Z</time></trkpt><trkpt lat="45.3661283" lon="10.58872"><ele>143.16666666666666</ele><time>2026-03-29T09:11:09.406Z</time></trkpt><trkpt lat="45.3660833" lon="10.5888133"><ele>143.33333333333331</ele><time>2026-03-29T09:11:10.405Z</time></trkpt><trkpt lat="45.366045" lon="10.5889233"><ele>143.5</ele><time>2026-03-29T09:11:11.405Z</time></trkpt><trkpt lat="45.3660133" lon="10.5890333"><ele>143.66666666666666</ele><time>2026-03-29T09:11:12.405Z</time></trkpt><trkpt lat="45.3659933" lon="10.58915"><ele>143.83333333333334</ele><time>2026-03-29T09:11:13.405Z</time></trkpt><trkpt lat="45.3659683" lon="10.589275"><ele>144.0</ele><time>2026-03-29T09:11:14.405Z</time></trkpt><trkpt lat="45.3659483" lon="10.58939"><ele>144.0</ele><time>2026-03-29T09:11:15.405Z</time></trkpt><trkpt lat="45.3659333" lon="10.5895017"><ele>144.0</ele><time>2026-03-29T09:11:16.405Z</time></trkpt><trkpt lat="45.36591" lon="10.5896117"><ele>144.0</ele><time>2026-03-29T09:11:17.405Z</time></trkpt><trkpt lat="45.365895" lon="10.589725"><ele>144.0</ele><time>2026-03-29T09:11:18.405Z</time></trkpt><trkpt lat="45.3658833" lon="10.5898283"><ele>144.0</ele><time>2026-03-29T09:11:19.405Z</time></trkpt><trkpt lat="45.365865" lon="10.5899217"><ele>144.0</ele><time>2026-03-29T09:11:20.405Z</time></trkpt><trkpt lat="45.3658517" lon="10.5900183"><ele>144.0</ele><time>2026-03-29T09:11:21.405Z</time></trkpt><trkpt lat="45.3658367" lon="10.59012"><ele>144.0</ele><time>2026-03-29T09:11:22.405Z</time></trkpt><trkpt lat="45.36582" lon="10.5902317"><ele>144.0</ele><time>2026-03-29T09:11:23.406Z</time></trkpt><trkpt lat="45.36581" lon="10.590335"><ele>144.0</ele><time>2026-03-29T09:11:24.405Z</time></trkpt><trkpt lat="45.3657983" lon="10.5904367"><ele>144.0</ele><time>2026-03-29T09:11:25.405Z</time></trkpt><trkpt lat="45.3657817" lon="10.5905467"><ele>144.0</ele><time>2026-03-29T09:11:26.404Z</time></trkpt><trkpt lat="45.365765" lon="10.5906733"><ele>144.0</ele><time>2026-03-29T09:11:27.405Z</time></trkpt><trkpt lat="45.365745" lon="10.5908283"><ele>144.0</ele><time>2026-03-29T09:11:28.404Z</time></trkpt><trkpt lat="45.36572" lon="10.5909767"><ele>144.0</ele><time>2026-03-29T09:11:29.404Z</time></trkpt><trkpt lat="45.3656833" lon="10.5911433"><ele>144.0</ele><time>2026-03-29T09:11:30.404Z</time></trkpt><trkpt lat="45.365655" lon="10.5913383"><ele>144.0</ele><time>2026-03-29T09:11:31.404Z</time></trkpt><trkpt lat="45.36563" lon="10.59153"><ele>144.0</ele><time>2026-03-29T09:11:32.404Z</time></trkpt><trkpt lat="45.3656017" lon="10.591705"><ele>144.0</ele><time>2026-03-29T09:11:33.404Z</time></trkpt><trkpt lat="45.3655867" lon="10.591875"><ele>144.0</ele><time>2026-03-29T09:11:34.404Z</time></trkpt><trkpt lat="45.3655767" lon="10.59203"><ele>144.0</ele><time>2026-03-29T09:11:35.404Z</time></trkpt><trkpt lat="45.3655683" lon="10.5922033"><ele>144.0</ele><time>2026-03-29T09:11:36.404Z</time></trkpt><trkpt lat="45.365555" lon="10.5923633"><ele>144.0</ele><time>2026-03-29T09:11:37.404Z</time></trkpt><trkpt lat="45.365545" lon="10.592515"><ele>144.0</ele><time>2026-03-29T09:11:38.404Z</time></trkpt><trkpt lat="45.3655367" lon="10.5926517"><ele>144.0</ele><time>2026-03-29T09:11:39.404Z</time></trkpt><trkpt lat="45.3655383" lon="10.592775"><ele>144.0</ele><time>2026-03-29T09:11:40.404Z</time></trkpt><trkpt lat="45.3655533" lon="10.5928733"><ele>144.0</ele><time>2026-03-29T09:11:41.404Z</time></trkpt><trkpt lat="45.3655983" lon="10.5929733"><ele>144.0</ele><time>2026-03-29T09:11:43.404Z</time></trkpt><trkpt lat="45.3656667" lon="10.592955"><ele>144.0</ele><time>2026-03-29T09:11:46.404Z</time></trkpt><trkpt lat="45.3656983" lon="10.592855"><ele>144.0</ele><time>2026-03-29T09:11:47.405Z</time></trkpt><trkpt lat="45.3657217" lon="10.5927233"><ele>144.0</ele><time>2026-03-29T09:11:48.404Z</time></trkpt><trkpt lat="45.365745" lon="10.5925633"><ele>144.0</ele><time>2026-03-29T09:11:49.404Z</time></trkpt><trkpt lat="45.365765" lon="10.5923967"><ele>144.0</ele><time>2026-03-29T09:11:50.404Z</time></trkpt><trkpt lat="45.3657967" lon="10.5922183"><ele>144.0</ele><time>2026-03-29T09:11:51.404Z</time></trkpt><trkpt lat="45.365825" lon="10.59202"><ele>144.0</ele><time>2026-03-29T09:11:52.404Z</time></trkpt><trkpt lat="45.365855" lon="10.5918017"><ele>144.0</ele><time>2026-03-29T09:11:53.404Z</time></trkpt><trkpt lat="45.3658783" lon="10.5915783"><ele>144.0</ele><time>2026-03-29T09:11:54.404Z</time></trkpt><trkpt lat="45.3659033" lon="10.5913567"><ele>144.0</ele><time>2026-03-29T09:11:55.404Z</time></trkpt><trkpt lat="45.3659317" lon="10.591135"><ele>144.0</ele><time>2026-03-29T09:11:56.404Z</time></trkpt><trkpt lat="45.3659567" lon="10.5909267"><ele>144.0</ele><time>2026-03-29T09:11:57.404Z</time></trkpt><trkpt lat="45.3659833" lon="10.5907333"><ele>144.0</ele><time>2026-03-29T09:11:58.404Z</time></trkpt><trkpt lat="45.3660083" lon="10.5905683"><ele>144.0</ele><time>2026-03-29T09:11:59.404Z</time></trkpt><trkpt lat="45.366035" lon="10.59043"><ele>144.0</ele><time>2026-03-29T09:12:00.404Z</time></trkpt><trkpt lat="45.366065" lon="10.5903233"><ele>144.0</ele><time>2026-03-29T09:12:01.404Z</time></trkpt><trkpt lat="45.3661433" lon="10.590215"><ele>144.0</ele><time>2026-03-29T09:12:03.404Z</time></trkpt><trkpt lat="45.3662117" lon="10.5900917"><ele>144.0</ele><time>2026-03-29T09:12:05.404Z</time></trkpt><trkpt lat="45.3662517" lon="10.5899517"><ele>144.0</ele><time>2026-03-29T09:12:07.404Z</time></trkpt><trkpt lat="45.3663017" lon="10.589875"><ele>144.6</ele><time>2026-03-29T09:12:09.404Z</time></trkpt><trkpt lat="45.3664083" lon="10.5899167"><ele>145.2</ele><time>2026-03-29T09:12:29.404Z</time></trkpt><trkpt lat="45.3664783" lon="10.589925"><ele>145.79999999999998</ele><time>2026-03-29T09:12:30.404Z</time></trkpt><trkpt lat="45.3665683" lon="10.5899417"><ele>146.4</ele><time>2026-03-29T09:12:31.404Z</time></trkpt><trkpt lat="45.36667" lon="10.58996"><ele>147.0</ele><time>2026-03-29T09:12:32.404Z</time></trkpt><trkpt lat="45.3667817" lon="10.58999"><ele>147.0</ele><time>2026-03-29T09:12:33.404Z</time></trkpt><trkpt lat="45.3669033" lon="10.59003"><ele>147.0</ele><time>2026-03-29T09:12:34.404Z</time></trkpt><trkpt lat="45.3670317" lon="10.590075"><ele>147.0</ele><time>2026-03-29T09:12:35.404Z</time></trkpt><trkpt lat="45.3671617" lon="10.59012"><ele>147.0</ele><time>2026-03-29T09:12:36.405Z</time></trkpt><trkpt lat="45.3672867" lon="10.5901517"><ele>147.33333333333334</ele><time>2026-03-29T09:12:37.404Z</time></trkpt><trkpt lat="45.3673833" lon="10.590175"><ele>147.66666666666666</ele><time>2026-03-29T09:12:38.404Z</time></trkpt><trkpt lat="45.3674683" lon="10.59019"><ele>148.0</ele><time>2026-03-29T09:12:39.404Z</time></trkpt><trkpt lat="45.3675433" lon="10.5902183"><ele>148.33333333333331</ele><time>2026-03-29T09:12:40.404Z</time></trkpt><trkpt lat="45.3676083" lon="10.5902583"><ele>148.66666666666666</ele><time>2026-03-29T09:12:41.404Z</time></trkpt><trkpt lat="45.3676583" lon="10.590315"><ele>149.0</ele><time>2026-03-29T09:12:42.404Z</time></trkpt><trkpt lat="45.3677083" lon="10.59038"><ele>149.5</ele><time>2026-03-29T09:12:43.404Z</time></trkpt><trkpt lat="45.3677717" lon="10.5904367"><ele>150.0</ele><time>2026-03-29T09:12:44.405Z</time></trkpt><trkpt lat="45.3678833" lon="10.5904817"><ele>150.5</ele><time>2026-03-29T09:12:46.404Z</time></trkpt><trkpt lat="45.3679583" lon="10.5904667"><ele>151.0</ele><time>2026-03-29T09:12:47.404Z</time></trkpt><trkpt lat="45.3680433" lon="10.5904567"><ele>151.5</ele><time>2026-03-29T09:12:48.404Z</time></trkpt><trkpt lat="45.368125" lon="10.59046"><ele>152.0</ele><time>2026-03-29T09:12:49.404Z</time></trkpt><trkpt lat="45.3682033" lon="10.5904683"><ele>151.0</ele><time>2026-03-29T09:12:50.404Z</time></trkpt><trkpt lat="45.3682717" lon="10.590475"><ele>150.0</ele><time>2026-03-29T09:12:51.404Z</time></trkpt><trkpt lat="45.3683617" lon="10.5904767"><ele>149.0</ele><time>2026-03-29T09:12:53.404Z</time></trkpt><trkpt lat="45.36842" lon="10.5905133"><ele>148.0</ele><time>2026-03-29T09:12:55.404Z</time></trkpt><trkpt lat="45.3684133" lon="10.5906233"><ele>147.0</ele><time>2026-03-29T09:12:57.404Z</time></trkpt><trkpt lat="45.3683733" lon="10.5908233"><ele>146.0</ele><time>2026-03-29T09:12:59.405Z</time></trkpt><trkpt lat="45.3683583" lon="10.590955"><ele>146.0</ele><time>2026-03-29T09:13:00.404Z</time></trkpt><trkpt lat="45.3683467" lon="10.5910983"><ele>146.0</ele><time>2026-03-29T09:13:01.404Z</time></trkpt><trkpt lat="45.368325" lon="10.5912617"><ele>146.0</ele><time>2026-03-29T09:13:02.404Z</time></trkpt><trkpt lat="45.3682967" lon="10.591425"><ele>146.0</ele><time>2026-03-29T09:13:03.404Z</time></trkpt><trkpt lat="45.36826" lon="10.5915833"><ele>146.25</ele><time>2026-03-29T09:13:04.404Z</time></trkpt><trkpt lat="45.3682333" lon="10.5917467"><ele>146.5</ele><time>2026-03-29T09:13:05.404Z</time></trkpt><trkpt lat="45.3682083" lon="10.59191"><ele>146.75</ele><time>2026-03-29T09:13:06.404Z</time></trkpt><trkpt lat="45.3681733" lon="10.592115"><ele>147.0</ele><time>2026-03-29T09:13:07.404Z</time></trkpt><trkpt lat="45.3681367" lon="10.592325"><ele>147.0</ele><time>2026-03-29T09:13:08.404Z</time></trkpt><trkpt lat="45.3681017" lon="10.5925217"><ele>147.0</ele><time>2026-03-29T09:13:09.404Z</time></trkpt><trkpt lat="45.3680917" lon="10.5927167"><ele>147.0</ele><time>2026-03-29T09:13:10.404Z</time></trkpt><trkpt lat="45.3680917" lon="10.5928767"><ele>147.0</ele><time>2026-03-29T09:13:11.404Z</time></trkpt><trkpt lat="45.368095" lon="10.5930267"><ele>147.0</ele><time>2026-03-29T09:13:12.404Z</time></trkpt><trkpt lat="45.3681083" lon="10.59314"><ele>147.0</ele><time>2026-03-29T09:13:13.404Z</time></trkpt><trkpt lat="45.3681867" lon="10.5932467"><ele>147.0</ele><time>2026-03-29T09:13:15.404Z</time></trkpt><trkpt lat="45.3683083" lon="10.59327"><ele>147.0</ele><time>2026-03-29T09:13:17.405Z</time></trkpt><trkpt lat="45.36838" lon="10.5932633"><ele>147.0</ele><time>2026-03-29T09:13:18.404Z</time></trkpt><trkpt lat="45.3684433" lon="10.5932633"><ele>147.0</ele><time>2026-03-29T09:13:19.404Z</time></trkpt><trkpt lat="45.3685667" lon="10.593305"><ele>147.0</ele><time>2026-03-29T09:13:21.404Z</time></trkpt><trkpt lat="45.36862" lon="10.5933667"><ele>147.0</ele><time>2026-03-29T09:13:22.404Z</time></trkpt><trkpt lat="45.3686733" lon="10.59345"><ele>147.0</ele><time>2026-03-29T09:13:23.405Z</time></trkpt><trkpt lat="45.3687267" lon="10.5935833"><ele>147.0</ele><time>2026-03-29T09:13:24.404Z</time></trkpt><trkpt lat="45.3687883" lon="10.59374"><ele>147.0</ele><time>2026-03-29T09:13:25.404Z</time></trkpt><trkpt lat="45.368855" lon="10.5938983"><ele>144.4</ele><time>2026-03-29T09:13:26.404Z</time></trkpt><trkpt lat="45.3689117" lon="10.5940317"><ele>141.79999999999998</ele><time>2026-03-29T09:13:27.404Z</time></trkpt><trkpt lat="45.36895" lon="10.5941483"><ele>139.2</ele><time>2026-03-29T09:13:28.404Z</time></trkpt><trkpt lat="45.3689717" lon="10.594265"><ele>136.6</ele><time>2026-03-29T09:13:29.404Z</time></trkpt><trkpt lat="45.368985" lon="10.5944"><ele>134.0</ele><time>2026-03-29T09:13:30.404Z</time></trkpt><trkpt lat="45.3689767" lon="10.594555"><ele>133.5</ele><time>2026-03-29T09:13:31.404Z</time></trkpt><trkpt lat="45.3689583" lon="10.594715"><ele>133.0</ele><time>2026-03-29T09:13:32.404Z</time></trkpt><trkpt lat="45.3689367" lon="10.5949033"><ele>132.5</ele><time>2026-03-29T09:13:33.405Z</time></trkpt><trkpt lat="45.36891" lon="10.595105"><ele>132.0</ele><time>2026-03-29T09:13:34.404Z</time></trkpt><trkpt lat="45.36891" lon="10.5953067"><ele>132.0</ele><time>2026-03-29T09:13:35.404Z</time></trkpt><trkpt lat="45.3689333" lon="10.595475"><ele>132.0</ele><time>2026-03-29T09:13:36.404Z</time></trkpt><trkpt lat="45.3689667" lon="10.5956233"><ele>132.0</ele><time>2026-03-29T09:13:37.404Z</time></trkpt><trkpt lat="45.3690217" lon="10.5957767"><ele>132.0</ele><time>2026-03-29T09:13:38.404Z</time></trkpt><trkpt lat="45.369085" lon="10.5959167"><ele>132.0</ele><time>2026-03-29T09:13:39.404Z</time></trkpt><trkpt lat="45.3691483" lon="10.596055"><ele>132.0</ele><time>2026-03-29T09:13:40.404Z</time></trkpt><trkpt lat="45.3692017" lon="10.5961867"><ele>132.0</ele><time>2026-03-29T09:13:41.405Z</time></trkpt><trkpt lat="45.3692383" lon="10.5963017"><ele>132.0</ele><time>2026-03-29T09:13:42.404Z</time></trkpt><trkpt lat="45.3692667" lon="10.5964367"><ele>132.0</ele><time>2026-03-29T09:13:44.404Z</time></trkpt><trkpt lat="45.369205" lon="10.5964967"><ele>131.2</ele><time>2026-03-29T09:13:46.404Z</time></trkpt><trkpt lat="45.3691483" lon="10.5965383"><ele>130.39999999999998</ele><time>2026-03-29T09:13:47.404Z</time></trkpt><trkpt lat="45.3690617" lon="10.5966017"><ele>129.60000000000002</ele><time>2026-03-29T09:13:48.404Z</time></trkpt><trkpt lat="45.3689717" lon="10.5966717"><ele>128.8</ele><time>2026-03-29T09:13:49.404Z</time></trkpt><trkpt lat="45.36887" lon="10.5967867"><ele>128.0</ele><time>2026-03-29T09:13:50.404Z</time></trkpt><trkpt lat="45.36877" lon="10.596905"><ele>131.25</ele><time>2026-03-29T09:13:51.405Z</time></trkpt><trkpt lat="45.3686617" lon="10.5969983"><ele>134.5</ele><time>2026-03-29T09:13:52.404Z</time></trkpt><trkpt lat="45.36855" lon="10.5970183"><ele>137.75</ele><time>2026-03-29T09:13:53.404Z</time></trkpt><trkpt lat="45.368435" lon="10.5969817"><ele>141.0</ele><time>2026-03-29T09:13:54.404Z</time></trkpt><trkpt lat="45.3683217" lon="10.5969083"><ele>141.0</ele><time>2026-03-29T09:13:55.404Z</time></trkpt><trkpt lat="45.3682033" lon="10.5968067"><ele>141.0</ele><time>2026-03-29T09:13:56.405Z</time></trkpt><trkpt lat="45.36807" lon="10.5967067"><ele>141.0</ele><time>2026-03-29T09:13:57.404Z</time></trkpt><trkpt lat="45.3679217" lon="10.5966217"><ele>141.0</ele><time>2026-03-29T09:13:58.404Z</time></trkpt><trkpt lat="45.3677617" lon="10.5965567"><ele>143.0</ele><time>2026-03-29T09:13:59.405Z</time></trkpt><trkpt lat="45.3676233" lon="10.5965467"><ele>145.0</ele><time>2026-03-29T09:14:00.404Z</time></trkpt><trkpt lat="45.3674833" lon="10.596585"><ele>147.0</ele><time>2026-03-29T09:14:01.404Z</time></trkpt><trkpt lat="45.3673367" lon="10.596665"><ele>149.0</ele><time>2026-03-29T09:14:02.405Z</time></trkpt><trkpt lat="45.3671867" lon="10.596765"><ele>149.0</ele><time>2026-03-29T09:14:03.404Z</time></trkpt><trkpt lat="45.36703" lon="10.5968983"><ele>149.0</ele><time>2026-03-29T09:14:04.404Z</time></trkpt><trkpt lat="45.36686" lon="10.5970483"><ele>149.0</ele><time>2026-03-29T09:14:05.404Z</time></trkpt><trkpt lat="45.36668" lon="10.5972067"><ele>149.5</ele><time>2026-03-29T09:14:06.404Z</time></trkpt><trkpt lat="45.36649" lon="10.5973767"><ele>150.0</ele><time>2026-03-29T09:14:07.404Z</time></trkpt><trkpt lat="45.3662767" lon="10.597555"><ele>149.33333333333334</ele><time>2026-03-29T09:14:08.404Z</time></trkpt><trkpt lat="45.36608" lon="10.597725"><ele>148.66666666666669</ele><time>2026-03-29T09:14:09.404Z</time></trkpt><trkpt lat="45.3659083" lon="10.5978717"><ele>148.0</ele><time>2026-03-29T09:14:10.404Z</time></trkpt><trkpt lat="45.3657317" lon="10.5979717"><ele>148.0</ele><time>2026-03-29T09:14:11.405Z</time></trkpt><trkpt lat="45.3655533" lon="10.5980233"><ele>148.0</ele><time>2026-03-29T09:14:12.404Z</time></trkpt><trkpt lat="45.36539" lon="10.5980467"><ele>148.0</ele><time>2026-03-29T09:14:13.404Z</time></trkpt><trkpt lat="45.365245" lon="10.59804"><ele>147.0</ele><time>2026-03-29T09:14:14.404Z</time></trkpt><trkpt lat="45.365115" lon="10.5980267"><ele>146.0</ele><time>2026-03-29T09:14:15.404Z</time></trkpt><trkpt lat="45.36499" lon="10.59796"><ele>145.0</ele><time>2026-03-29T09:14:16.404Z</time></trkpt><trkpt lat="45.364895" lon="10.5978983"><ele>144.0</ele><time>2026-03-29T09:14:17.404Z</time></trkpt><trkpt lat="45.3648083" lon="10.5978533"><ele>144.0</ele><time>2026-03-29T09:14:18.405Z</time></trkpt><trkpt lat="45.3647317" lon="10.5978533"><ele>144.0</ele><time>2026-03-29T09:14:19.405Z</time></trkpt><trkpt lat="45.3646633" lon="10.5979267"><ele>144.0</ele><time>2026-03-29T09:14:20.405Z</time></trkpt><trkpt lat="45.364625" lon="10.598035"><ele>144.0</ele><time>2026-03-29T09:14:21.404Z</time></trkpt><trkpt lat="45.3646117" lon="10.5981883"><ele>144.0</ele><time>2026-03-29T09:14:22.404Z</time></trkpt><trkpt lat="45.3646083" lon="10.5983567"><ele>143.5</ele><time>2026-03-29T09:14:23.404Z</time></trkpt><trkpt lat="45.3645883" lon="10.5985317"><ele>143.0</ele><time>2026-03-29T09:14:24.404Z</time></trkpt><trkpt lat="45.3645417" lon="10.5987133"><ele>142.5</ele><time>2026-03-29T09:14:25.404Z</time></trkpt><trkpt lat="45.3644733" lon="10.598905"><ele>142.0</ele><time>2026-03-29T09:14:26.404Z</time></trkpt><trkpt lat="45.3643917" lon="10.5991067"><ele>142.0</ele><time>2026-03-29T09:14:27.404Z</time></trkpt><trkpt lat="45.3642883" lon="10.5993183"><ele>142.0</ele><time>2026-03-29T09:14:28.404Z</time></trkpt><trkpt lat="45.3641833" lon="10.5995533"><ele>142.0</ele><time>2026-03-29T09:14:29.404Z</time></trkpt><trkpt lat="45.3640733" lon="10.5997967"><ele>142.33333333333334</ele><time>2026-03-29T09:14:30.405Z</time></trkpt><trkpt lat="45.36397" lon="10.6000483"><ele>142.66666666666666</ele><time>2026-03-29T09:14:31.404Z</time></trkpt><trkpt lat="45.3638583" lon="10.6002983"><ele>143.0</ele><time>2026-03-29T09:14:32.405Z</time></trkpt><trkpt lat="45.36374" lon="10.6005567"><ele>143.0</ele><time>2026-03-29T09:14:33.404Z</time></trkpt><trkpt lat="45.36363" lon="10.6008433"><ele>143.0</ele><time>2026-03-29T09:14:34.404Z</time></trkpt><trkpt lat="45.3635233" lon="10.6011367"><ele>145.0</ele><time>2026-03-29T09:14:35.404Z</time></trkpt><trkpt lat="45.3634117" lon="10.6014417"><ele>147.0</ele><time>2026-03-29T09:14:36.404Z</time></trkpt><trkpt lat="45.3632983" lon="10.6017533"><ele>149.5</ele><time>2026-03-29T09:14:37.404Z</time></trkpt><trkpt lat="45.3631833" lon="10.6020767"><ele>152.0</ele><time>2026-03-29T09:14:38.404Z</time></trkpt><trkpt lat="45.3630683" lon="10.602415"><ele>147.0</ele><time>2026-03-29T09:14:39.404Z</time></trkpt><trkpt lat="45.362965" lon="10.6027517"><ele>142.0</ele><time>2026-03-29T09:14:40.404Z</time></trkpt><trkpt lat="45.362865" lon="10.6030583"><ele>142.0</ele><time>2026-03-29T09:14:41.404Z</time></trkpt><trkpt lat="45.3627767" lon="10.6033333"><ele>142.0</ele><time>2026-03-29T09:14:42.404Z</time></trkpt><trkpt lat="45.3626867" lon="10.6035833"><ele>142.0</ele><time>2026-03-29T09:14:43.404Z</time></trkpt><trkpt lat="45.3625917" lon="10.60379"><ele>143.5</ele><time>2026-03-29T09:14:44.404Z</time></trkpt><trkpt lat="45.36249" lon="10.6039567"><ele>145.0</ele><time>2026-03-29T09:14:45.404Z</time></trkpt><trkpt lat="45.3624117" lon="10.6041083"><ele>146.5</ele><time>2026-03-29T09:14:46.404Z</time></trkpt><trkpt lat="45.3623467" lon="10.604235"><ele>148.0</ele><time>2026-03-29T09:14:47.404Z</time></trkpt><trkpt lat="45.362295" lon="10.604325"><ele>148.0</ele><time>2026-03-29T09:14:48.404Z</time></trkpt><trkpt lat="45.36224" lon="10.60439"><ele>148.0</ele><time>2026-03-29T09:14:49.404Z</time></trkpt><trkpt lat="45.362135" lon="10.60441"><ele>148.0</ele><time>2026-03-29T09:14:51.404Z</time></trkpt><trkpt lat="45.3620683" lon="10.6043817"><ele>148.0</ele><time>2026-03-29T09:14:52.404Z</time></trkpt><trkpt lat="45.3619817" lon="10.6043533"><ele>148.0</ele><time>2026-03-29T09:14:53.405Z</time></trkpt><trkpt lat="45.3618867" lon="10.6043267"><ele>148.0</ele><time>2026-03-29T09:14:54.404Z</time></trkpt><trkpt lat="45.3617817" lon="10.6042917"><ele>146.6</ele><time>2026-03-29T09:14:55.404Z</time></trkpt><trkpt lat="45.3616733" lon="10.6042417"><ele>145.20000000000002</ele><time>2026-03-29T09:14:56.404Z</time></trkpt><trkpt lat="45.3615683" lon="10.6041867"><ele>143.8</ele><time>2026-03-29T09:14:57.404Z</time></trkpt><trkpt lat="45.3614683" lon="10.604125"><ele>142.4</ele><time>2026-03-29T09:14:58.405Z</time></trkpt><trkpt lat="45.361375" lon="10.6040567"><ele>141.0</ele><time>2026-03-29T09:14:59.405Z</time></trkpt><trkpt lat="45.3612867" lon="10.6039783"><ele>140.6</ele><time>2026-03-29T09:15:00.404Z</time></trkpt><trkpt lat="45.3612083" lon="10.6039"><ele>140.2</ele><time>2026-03-29T09:15:01.405Z</time></trkpt><trkpt lat="45.361135" lon="10.6038167"><ele>139.8</ele><time>2026-03-29T09:15:02.404Z</time></trkpt><trkpt lat="45.3610583" lon="10.6037333"><ele>139.4</ele><time>2026-03-29T09:15:03.404Z</time></trkpt><trkpt lat="45.3609783" lon="10.6036367"><ele>139.0</ele><time>2026-03-29T09:15:04.405Z</time></trkpt><trkpt lat="45.360905" lon="10.6035383"><ele>138.6</ele><time>2026-03-29T09:15:05.404Z</time></trkpt><trkpt lat="45.3608333" lon="10.603435"><ele>138.2</ele><time>2026-03-29T09:15:06.404Z</time></trkpt><trkpt lat="45.3607667" lon="10.6033367"><ele>137.79999999999998</ele><time>2026-03-29T09:15:07.405Z</time></trkpt><trkpt lat="45.360705" lon="10.6032233"><ele>137.4</ele><time>2026-03-29T09:15:08.404Z</time></trkpt><trkpt lat="45.3606383" lon="10.6030917"><ele>137.0</ele><time>2026-03-29T09:15:09.404Z</time></trkpt><trkpt lat="45.3605783" lon="10.6029667"><ele>136.79999999999998</ele><time>2026-03-29T09:15:10.404Z</time></trkpt><trkpt lat="45.36052" lon="10.6028183"><ele>136.6</ele><time>2026-03-29T09:15:11.404Z</time></trkpt><trkpt lat="45.3604583" lon="10.6026883"><ele>136.39999999999998</ele><time>2026-03-29T09:15:12.404Z</time></trkpt><trkpt lat="45.3603983" lon="10.6025633"><ele>136.2</ele><time>2026-03-29T09:15:13.404Z</time></trkpt><trkpt lat="45.3603383" lon="10.6024367"><ele>136.0</ele><time>2026-03-29T09:15:14.404Z</time></trkpt><trkpt lat="45.3602783" lon="10.6022967"><ele>136.0</ele><time>2026-03-29T09:15:15.404Z</time></trkpt><trkpt lat="45.3602433" lon="10.6021483"><ele>136.0</ele><time>2026-03-29T09:15:16.404Z</time></trkpt><trkpt lat="45.360215" lon="10.602015"><ele>136.0</ele><time>2026-03-29T09:15:17.403Z</time></trkpt><trkpt lat="45.3601833" lon="10.60189"><ele>136.0</ele><time>2026-03-29T09:15:18.403Z</time></trkpt><trkpt lat="45.3601533" lon="10.6017667"><ele>136.0</ele><time>2026-03-29T09:15:19.403Z</time></trkpt><trkpt lat="45.3601267" lon="10.6016333"><ele>136.16666666666669</ele><time>2026-03-29T09:15:20.403Z</time></trkpt><trkpt lat="45.360095" lon="10.6015233"><ele>136.33333333333334</ele><time>2026-03-29T09:15:21.403Z</time></trkpt><trkpt lat="45.3600583" lon="10.6014117"><ele>136.5</ele><time>2026-03-29T09:15:22.404Z</time></trkpt><trkpt lat="45.36003" lon="10.6013033"><ele>136.66666666666666</ele><time>2026-03-29T09:15:23.403Z</time></trkpt><trkpt lat="45.3599817" lon="10.6011883"><ele>136.83333333333331</ele><time>2026-03-29T09:15:24.403Z</time></trkpt><trkpt lat="45.359925" lon="10.6010817"><ele>137.0</ele><time>2026-03-29T09:15:25.403Z</time></trkpt><trkpt lat="45.359855" lon="10.6009683"><ele>137.0</ele><time>2026-03-29T09:15:26.403Z</time></trkpt><trkpt lat="45.359765" lon="10.60085"><ele>137.0</ele><time>2026-03-29T09:15:27.403Z</time></trkpt><trkpt lat="45.3596683" lon="10.60072"><ele>137.0</ele><time>2026-03-29T09:15:28.403Z</time></trkpt><trkpt lat="45.3595633" lon="10.60059"><ele>137.0</ele><time>2026-03-29T09:15:29.403Z</time></trkpt><trkpt lat="45.3594667" lon="10.600445"><ele>135.5</ele><time>2026-03-29T09:15:30.404Z</time></trkpt><trkpt lat="45.3593883" lon="10.6003033"><ele>134.0</ele><time>2026-03-29T09:15:31.403Z</time></trkpt><trkpt lat="45.35931" lon="10.60016"><ele>132.5</ele><time>2026-03-29T09:15:32.404Z</time></trkpt><trkpt lat="45.3592367" lon="10.6000267"><ele>131.0</ele><time>2026-03-29T09:15:33.403Z</time></trkpt><trkpt lat="45.35918" lon="10.59988"><ele>131.0</ele><time>2026-03-29T09:15:34.404Z</time></trkpt><trkpt lat="45.3591533" lon="10.5997367"><ele>131.0</ele><time>2026-03-29T09:15:35.403Z</time></trkpt><trkpt lat="45.35913" lon="10.59958"><ele>131.0</ele><time>2026-03-29T09:15:36.403Z</time></trkpt><trkpt lat="45.3590883" lon="10.5994333"><ele>131.0</ele><time>2026-03-29T09:15:37.403Z</time></trkpt><trkpt lat="45.3590267" lon="10.5993417"><ele>131.0</ele><time>2026-03-29T09:15:38.403Z</time></trkpt><trkpt lat="45.358945" lon="10.5992533"><ele>131.5</ele><time>2026-03-29T09:15:39.404Z</time></trkpt><trkpt lat="45.3588483" lon="10.599165"><ele>132.0</ele><time>2026-03-29T09:15:40.403Z</time></trkpt><trkpt lat="45.3587433" lon="10.59907"><ele>132.5</ele><time>2026-03-29T09:15:41.403Z</time></trkpt><trkpt lat="45.358645" lon="10.598975"><ele>133.0</ele><time>2026-03-29T09:15:42.403Z</time></trkpt><trkpt lat="45.3585567" lon="10.5988833"><ele>133.0</ele><time>2026-03-29T09:15:43.403Z</time></trkpt><trkpt lat="45.3584767" lon="10.5987767"><ele>133.0</ele><time>2026-03-29T09:15:44.403Z</time></trkpt><trkpt lat="45.3584" lon="10.5986667"><ele>133.0</ele><time>2026-03-29T09:15:45.403Z</time></trkpt><trkpt lat="45.3583283" lon="10.598565"><ele>133.0</ele><time>2026-03-29T09:15:46.403Z</time></trkpt><trkpt lat="45.3582583" lon="10.5984633"><ele>133.0</ele><time>2026-03-29T09:15:47.403Z</time></trkpt><trkpt lat="45.3581983" lon="10.59837"><ele>133.20000000000002</ele><time>2026-03-29T09:15:48.403Z</time></trkpt><trkpt lat="45.358145" lon="10.59827"><ele>133.4</ele><time>2026-03-29T09:15:49.403Z</time></trkpt><trkpt lat="45.3580883" lon="10.59818"><ele>133.60000000000002</ele><time>2026-03-29T09:15:50.403Z</time></trkpt><trkpt lat="45.3580517" lon="10.59809"><ele>133.8</ele><time>2026-03-29T09:15:51.404Z</time></trkpt><trkpt lat="45.3579983" lon="10.5979767"><ele>134.0</ele><time>2026-03-29T09:15:53.403Z</time></trkpt><trkpt lat="45.357885" lon="10.5979033"><ele>133.75</ele><time>2026-03-29T09:15:55.403Z</time></trkpt><trkpt lat="45.35779" lon="10.5978683"><ele>133.5</ele><time>2026-03-29T09:15:56.403Z</time></trkpt><trkpt lat="45.3576583" lon="10.59784"><ele>133.25</ele><time>2026-03-29T09:15:57.404Z</time></trkpt><trkpt lat="45.3575" lon="10.5977983"><ele>133.0</ele><time>2026-03-29T09:15:58.403Z</time></trkpt><trkpt lat="45.3573417" lon="10.5977467"><ele>133.0</ele><time>2026-03-29T09:15:59.403Z</time></trkpt><trkpt lat="45.3572033" lon="10.5976967"><ele>133.0</ele><time>2026-03-29T09:16:00.403Z</time></trkpt><trkpt lat="45.3570783" lon="10.5976433"><ele>133.0</ele><time>2026-03-29T09:16:01.403Z</time></trkpt><trkpt lat="45.3569517" lon="10.5976033"><ele>133.0</ele><time>2026-03-29T09:16:02.403Z</time></trkpt><trkpt lat="45.3568233" lon="10.5975917"><ele>132.5</ele><time>2026-03-29T09:16:03.403Z</time></trkpt><trkpt lat="45.35669" lon="10.59759"><ele>132.0</ele><time>2026-03-29T09:16:04.403Z</time></trkpt><trkpt lat="45.3565367" lon="10.597605"><ele>131.5</ele><time>2026-03-29T09:16:05.404Z</time></trkpt><trkpt lat="45.3563883" lon="10.5976383"><ele>131.0</ele><time>2026-03-29T09:16:06.404Z</time></trkpt><trkpt lat="45.3562367" lon="10.5976567"><ele>130.75</ele><time>2026-03-29T09:16:07.403Z</time></trkpt><trkpt lat="45.3560767" lon="10.5976717"><ele>130.5</ele><time>2026-03-29T09:16:08.404Z</time></trkpt><trkpt lat="45.3559233" lon="10.5976833"><ele>130.25</ele><time>2026-03-29T09:16:09.403Z</time></trkpt><trkpt lat="45.3557933" lon="10.5976533"><ele>130.0</ele><time>2026-03-29T09:16:10.404Z</time></trkpt><trkpt lat="45.3556467" lon="10.5976233"><ele>129.0</ele><time>2026-03-29T09:16:11.403Z</time></trkpt><trkpt lat="45.3555017" lon="10.5975683"><ele>128.0</ele><time>2026-03-29T09:16:12.404Z</time></trkpt><trkpt lat="45.3553633" lon="10.5975067"><ele>127.0</ele><time>2026-03-29T09:16:13.403Z</time></trkpt><trkpt lat="45.355215" lon="10.5974417"><ele>127.0</ele><time>2026-03-29T09:16:14.404Z</time></trkpt><trkpt lat="45.35507" lon="10.5973783"><ele>127.0</ele><time>2026-03-29T09:16:15.403Z</time></trkpt><trkpt lat="45.3549133" lon="10.5973383"><ele>127.0</ele><time>2026-03-29T09:16:16.403Z</time></trkpt><trkpt lat="45.3547683" lon="10.5973233"><ele>128.25</ele><time>2026-03-29T09:16:17.403Z</time></trkpt><trkpt lat="45.354635" lon="10.5973417"><ele>129.5</ele><time>2026-03-29T09:16:18.403Z</time></trkpt><trkpt lat="45.3545" lon="10.5973733"><ele>130.75</ele><time>2026-03-29T09:16:19.403Z</time></trkpt><trkpt lat="45.35437" lon="10.5974033"><ele>132.0</ele><time>2026-03-29T09:16:20.404Z</time></trkpt><trkpt lat="45.35424" lon="10.5974817"><ele>132.0</ele><time>2026-03-29T09:16:21.403Z</time></trkpt><trkpt lat="45.3541233" lon="10.59754"><ele>132.0</ele><time>2026-03-29T09:16:22.404Z</time></trkpt><trkpt lat="45.3540167" lon="10.5976067"><ele>132.0</ele><time>2026-03-29T09:16:23.403Z</time></trkpt><trkpt lat="45.353925" lon="10.5976667"><ele>132.0</ele><time>2026-03-29T09:16:24.403Z</time></trkpt><trkpt lat="45.3538383" lon="10.5977267"><ele>132.0</ele><time>2026-03-29T09:16:25.403Z</time></trkpt><trkpt lat="45.35376" lon="10.5977767"><ele>133.5</ele><time>2026-03-29T09:16:26.404Z</time></trkpt><trkpt lat="45.3537017" lon="10.5978533"><ele>135.0</ele><time>2026-03-29T09:16:27.404Z</time></trkpt><trkpt lat="45.3536367" lon="10.5979333"><ele>136.5</ele><time>2026-03-29T09:16:28.403Z</time></trkpt><trkpt lat="45.3535967" lon="10.5980417"><ele>138.0</ele><time>2026-03-29T09:16:29.404Z</time></trkpt><trkpt lat="45.353565" lon="10.598165"><ele>139.5</ele><time>2026-03-29T09:16:30.403Z</time></trkpt><trkpt lat="45.3535233" lon="10.5983017"><ele>141.0</ele><time>2026-03-29T09:16:31.403Z</time></trkpt><trkpt lat="45.353485" lon="10.598445"><ele>141.0</ele><time>2026-03-29T09:16:32.403Z</time></trkpt><trkpt lat="45.3534383" lon="10.598595"><ele>141.0</ele><time>2026-03-29T09:16:33.403Z</time></trkpt><trkpt lat="45.35338" lon="10.5987667"><ele>141.0</ele><time>2026-03-29T09:16:34.403Z</time></trkpt><trkpt lat="45.353325" lon="10.59895"><ele>141.0</ele><time>2026-03-29T09:16:35.403Z</time></trkpt><trkpt lat="45.3532683" lon="10.5991367"><ele>140.75</ele><time>2026-03-29T09:16:36.404Z</time></trkpt><trkpt lat="45.3532083" lon="10.5993033"><ele>140.5</ele><time>2026-03-29T09:16:37.403Z</time></trkpt><trkpt lat="45.353145" lon="10.5994633"><ele>140.25</ele><time>2026-03-29T09:16:38.403Z</time></trkpt><trkpt lat="45.3530783" lon="10.59963"><ele>140.0</ele><time>2026-03-29T09:16:39.403Z</time></trkpt><trkpt lat="45.3530017" lon="10.5997817"><ele>142.25</ele><time>2026-03-29T09:16:40.403Z</time></trkpt><trkpt lat="45.3529417" lon="10.59993"><ele>144.5</ele><time>2026-03-29T09:16:41.403Z</time></trkpt><trkpt lat="45.3528867" lon="10.6000833"><ele>146.75</ele><time>2026-03-29T09:16:42.403Z</time></trkpt><trkpt lat="45.3528283" lon="10.6002433"><ele>149.0</ele><time>2026-03-29T09:16:43.403Z</time></trkpt><trkpt lat="45.352755" lon="10.6004017"><ele>149.0</ele><time>2026-03-29T09:16:44.403Z</time></trkpt><trkpt lat="45.3526733" lon="10.6005567"><ele>149.0</ele><time>2026-03-29T09:16:45.404Z</time></trkpt><trkpt lat="45.3525817" lon="10.600695"><ele>149.0</ele><time>2026-03-29T09:16:46.403Z</time></trkpt><trkpt lat="45.35248" lon="10.6008217"><ele>149.0</ele><time>2026-03-29T09:16:47.403Z</time></trkpt><trkpt lat="45.352375" lon="10.60091"><ele>149.0</ele><time>2026-03-29T09:16:48.403Z</time></trkpt><trkpt lat="45.3522833" lon="10.600985"><ele>149.0</ele><time>2026-03-29T09:16:49.404Z</time></trkpt><trkpt lat="45.35221" lon="10.6010483"><ele>149.0</ele><time>2026-03-29T09:16:50.403Z</time></trkpt><trkpt lat="45.35212" lon="10.6011017"><ele>149.0</ele><time>2026-03-29T09:16:52.403Z</time></trkpt><trkpt lat="45.35208" lon="10.6012217"><ele>149.0</ele><time>2026-03-29T09:16:55.404Z</time></trkpt><trkpt lat="45.35211" lon="10.6014183"><ele>149.2</ele><time>2026-03-29T09:16:57.403Z</time></trkpt><trkpt lat="45.352145" lon="10.6015283"><ele>149.4</ele><time>2026-03-29T09:16:58.403Z</time></trkpt><trkpt lat="45.3521683" lon="10.6016517"><ele>149.6</ele><time>2026-03-29T09:16:59.403Z</time></trkpt><trkpt lat="45.352185" lon="10.60179"><ele>149.8</ele><time>2026-03-29T09:17:00.403Z</time></trkpt><trkpt lat="45.3521767" lon="10.601925"><ele>150.0</ele><time>2026-03-29T09:17:01.403Z</time></trkpt><trkpt lat="45.3521217" lon="10.6020533"><ele>149.0</ele><time>2026-03-29T09:17:02.403Z</time></trkpt><trkpt lat="45.3520883" lon="10.60221"><ele>148.0</ele><time>2026-03-29T09:17:03.403Z</time></trkpt><trkpt lat="45.35205" lon="10.6023783"><ele>147.0</ele><time>2026-03-29T09:17:04.403Z</time></trkpt><trkpt lat="45.3520167" lon="10.6025567"><ele>146.0</ele><time>2026-03-29T09:17:05.404Z</time></trkpt><trkpt lat="45.3519767" lon="10.6027217"><ele>146.0</ele><time>2026-03-29T09:17:06.403Z</time></trkpt><trkpt lat="45.3519233" lon="10.602875"><ele>146.0</ele><time>2026-03-29T09:17:07.403Z</time></trkpt><trkpt lat="45.35189" lon="10.6030183"><ele>146.0</ele><time>2026-03-29T09:17:08.403Z</time></trkpt><trkpt lat="45.35187" lon="10.603175"><ele>146.0</ele><time>2026-03-29T09:17:09.403Z</time></trkpt><trkpt lat="45.3518483" lon="10.60333"><ele>146.0</ele><time>2026-03-29T09:17:10.403Z</time></trkpt><trkpt lat="45.351835" lon="10.6034983"><ele>146.0</ele><time>2026-03-29T09:17:11.403Z</time></trkpt><trkpt lat="45.3518117" lon="10.6036917"><ele>146.0</ele><time>2026-03-29T09:17:12.403Z</time></trkpt><trkpt lat="45.351795" lon="10.60387"><ele>146.0</ele><time>2026-03-29T09:17:13.403Z</time></trkpt><trkpt lat="45.351785" lon="10.6040617"><ele>146.0</ele><time>2026-03-29T09:17:14.403Z</time></trkpt><trkpt lat="45.3517817" lon="10.6042517"><ele>146.0</ele><time>2026-03-29T09:17:15.403Z</time></trkpt><trkpt lat="45.3517833" lon="10.60445"><ele>146.0</ele><time>2026-03-29T09:17:16.403Z</time></trkpt><trkpt lat="45.3517983" lon="10.6046017"><ele>146.0</ele><time>2026-03-29T09:17:17.403Z</time></trkpt><trkpt lat="45.35184" lon="10.6047517"><ele>146.0</ele><time>2026-03-29T09:17:18.403Z</time></trkpt><trkpt lat="45.3519233" lon="10.6048817"><ele>146.25</ele><time>2026-03-29T09:17:19.404Z</time></trkpt><trkpt lat="45.3520033" lon="10.605015"><ele>146.5</ele><time>2026-03-29T09:17:20.403Z</time></trkpt><trkpt lat="45.3520867" lon="10.60516"><ele>146.75</ele><time>2026-03-29T09:17:21.403Z</time></trkpt><trkpt lat="45.3521667" lon="10.60531"><ele>147.0</ele><time>2026-03-29T09:17:22.403Z</time></trkpt><trkpt lat="45.3522533" lon="10.60546"><ele>143.75</ele><time>2026-03-29T09:17:23.403Z</time></trkpt><trkpt lat="45.3523233" lon="10.6056133"><ele>140.5</ele><time>2026-03-29T09:17:24.403Z</time></trkpt><trkpt lat="45.3523983" lon="10.6057567"><ele>137.25</ele><time>2026-03-29T09:17:25.404Z</time></trkpt><trkpt lat="45.352475" lon="10.6059017"><ele>134.0</ele><time>2026-03-29T09:17:26.403Z</time></trkpt><trkpt lat="45.35256" lon="10.60606"><ele>134.5</ele><time>2026-03-29T09:17:27.403Z</time></trkpt><trkpt lat="45.35264" lon="10.60622"><ele>135.0</ele><time>2026-03-29T09:17:28.403Z</time></trkpt><trkpt lat="45.3527183" lon="10.6063867"><ele>135.5</ele><time>2026-03-29T09:17:29.404Z</time></trkpt><trkpt lat="45.352785" lon="10.6065633"><ele>136.0</ele><time>2026-03-29T09:17:30.403Z</time></trkpt><trkpt lat="45.3528133" lon="10.606745"><ele>136.0</ele><time>2026-03-29T09:17:31.403Z</time></trkpt><trkpt lat="45.3528517" lon="10.6069367"><ele>136.0</ele><time>2026-03-29T09:17:32.403Z</time></trkpt><trkpt lat="45.3528917" lon="10.607135"><ele>136.0</ele><time>2026-03-29T09:17:33.403Z</time></trkpt><trkpt lat="45.352935" lon="10.6073333"><ele>136.0</ele><time>2026-03-29T09:17:34.404Z</time></trkpt><trkpt lat="45.3529617" lon="10.60755"><ele>136.0</ele><time>2026-03-29T09:17:35.404Z</time></trkpt><trkpt lat="45.353" lon="10.6077817"><ele>136.0</ele><time>2026-03-29T09:17:36.404Z</time></trkpt><trkpt lat="45.353015" lon="10.6080283"><ele>136.0</ele><time>2026-03-29T09:17:37.404Z</time></trkpt><trkpt lat="45.353005" lon="10.6082667"><ele>136.0</ele><time>2026-03-29T09:17:38.403Z</time></trkpt><trkpt lat="45.35297" lon="10.6084983"><ele>136.0</ele><time>2026-03-29T09:17:39.403Z</time></trkpt><trkpt lat="45.3529317" lon="10.6087283"><ele>136.0</ele><time>2026-03-29T09:17:40.403Z</time></trkpt><trkpt lat="45.35289" lon="10.6089667"><ele>136.33333333333334</ele><time>2026-03-29T09:17:41.403Z</time></trkpt><trkpt lat="45.3528483" lon="10.6092167"><ele>136.66666666666666</ele><time>2026-03-29T09:17:42.404Z</time></trkpt><trkpt lat="45.3528217" lon="10.6094917"><ele>137.0</ele><time>2026-03-29T09:17:43.404Z</time></trkpt><trkpt lat="45.3528017" lon="10.6097833"><ele>137.66666666666666</ele><time>2026-03-29T09:17:44.403Z</time></trkpt><trkpt lat="45.3528117" lon="10.6100817"><ele>138.33333333333334</ele><time>2026-03-29T09:17:45.403Z</time></trkpt><trkpt lat="45.35284" lon="10.610395"><ele>139.0</ele><time>2026-03-29T09:17:46.404Z</time></trkpt><trkpt lat="45.35289" lon="10.6107133"><ele>140.0</ele><time>2026-03-29T09:17:47.403Z</time></trkpt><trkpt lat="45.3529667" lon="10.611015"><ele>141.0</ele><time>2026-03-29T09:17:48.403Z</time></trkpt><trkpt lat="45.3530417" lon="10.6112917"><ele>142.0</ele><time>2026-03-29T09:17:49.403Z</time></trkpt><trkpt lat="45.353125" lon="10.6115517"><ele>137.66666666666669</ele><time>2026-03-29T09:17:50.403Z</time></trkpt><trkpt lat="45.3531783" lon="10.6118167"><ele>133.33333333333334</ele><time>2026-03-29T09:17:51.403Z</time></trkpt><trkpt lat="45.3532017" lon="10.61209"><ele>129.0</ele><time>2026-03-29T09:17:52.403Z</time></trkpt><trkpt lat="45.3532" lon="10.612355"><ele>129.0</ele><time>2026-03-29T09:17:53.403Z</time></trkpt><trkpt lat="45.3531967" lon="10.6126317"><ele>129.0</ele><time>2026-03-29T09:17:54.403Z</time></trkpt><trkpt lat="45.3532117" lon="10.612905"><ele>129.0</ele><time>2026-03-29T09:17:55.404Z</time></trkpt><trkpt lat="45.3532567" lon="10.6131767"><ele>129.33333333333334</ele><time>2026-03-29T09:17:56.403Z</time></trkpt><trkpt lat="45.3533133" lon="10.6134717"><ele>129.66666666666669</ele><time>2026-03-29T09:17:57.404Z</time></trkpt><trkpt lat="45.35336" lon="10.61375"><ele>130.0</ele><time>2026-03-29T09:17:58.403Z</time></trkpt><trkpt lat="45.3533867" lon="10.6140317"><ele>131.0</ele><time>2026-03-29T09:17:59.404Z</time></trkpt><trkpt lat="45.3533883" lon="10.6143067"><ele>132.0</ele><time>2026-03-29T09:18:00.404Z</time></trkpt><trkpt lat="45.3533683" lon="10.6145883"><ele>133.0</ele><time>2026-03-29T09:18:01.403Z</time></trkpt><trkpt lat="45.3533483" lon="10.6148667"><ele>133.0</ele><time>2026-03-29T09:18:02.404Z</time></trkpt><trkpt lat="45.3533117" lon="10.6151367"><ele>133.0</ele><time>2026-03-29T09:18:03.404Z</time></trkpt><trkpt lat="45.3532717" lon="10.6153817"><ele>133.0</ele><time>2026-03-29T09:18:04.403Z</time></trkpt><trkpt lat="45.3532317" lon="10.6156367"><ele>132.66666666666669</ele><time>2026-03-29T09:18:05.404Z</time></trkpt><trkpt lat="45.3531883" lon="10.6158933"><ele>132.33333333333334</ele><time>2026-03-29T09:18:06.403Z</time></trkpt><trkpt lat="45.3531567" lon="10.6161433"><ele>132.0</ele><time>2026-03-29T09:18:07.403Z</time></trkpt><trkpt lat="45.3531267" lon="10.6163933"><ele>132.0</ele><time>2026-03-29T09:18:08.403Z</time></trkpt><trkpt lat="45.3531183" lon="10.6166683"><ele>132.0</ele><time>2026-03-29T09:18:09.403Z</time></trkpt><trkpt lat="45.35312" lon="10.616965"><ele>132.0</ele><time>2026-03-29T09:18:10.403Z</time></trkpt><trkpt lat="45.3531267" lon="10.6172667"><ele>132.33333333333334</ele><time>2026-03-29T09:18:11.403Z</time></trkpt><trkpt lat="45.353135" lon="10.6175617"><ele>132.66666666666669</ele><time>2026-03-29T09:18:12.403Z</time></trkpt><trkpt lat="45.353155" lon="10.617885"><ele>133.0</ele><time>2026-03-29T09:18:13.403Z</time></trkpt><trkpt lat="45.3531583" lon="10.6181967"><ele>133.33333333333334</ele><time>2026-03-29T09:18:14.404Z</time></trkpt><trkpt lat="45.3531733" lon="10.6184883"><ele>133.66666666666666</ele><time>2026-03-29T09:18:15.403Z</time></trkpt><trkpt lat="45.3531917" lon="10.6187883"><ele>134.0</ele><time>2026-03-29T09:18:16.404Z</time></trkpt><trkpt lat="45.35322" lon="10.61905"><ele>134.33333333333331</ele><time>2026-03-29T09:18:17.403Z</time></trkpt><trkpt lat="45.3532417" lon="10.6193133"><ele>134.66666666666666</ele><time>2026-03-29T09:18:18.403Z</time></trkpt><trkpt lat="45.3532917" lon="10.619565"><ele>135.0</ele><time>2026-03-29T09:18:19.403Z</time></trkpt><trkpt lat="45.3533583" lon="10.6198333"><ele>135.0</ele><time>2026-03-29T09:18:20.403Z</time></trkpt><trkpt lat="45.353455" lon="10.6200983"><ele>135.0</ele><time>2026-03-29T09:18:21.403Z</time></trkpt><trkpt lat="45.3535783" lon="10.620365"><ele>135.0</ele><time>2026-03-29T09:18:22.403Z</time></trkpt><trkpt lat="45.3537283" lon="10.6206083"><ele>135.0</ele><time>2026-03-29T09:18:23.404Z</time></trkpt><trkpt lat="45.3538933" lon="10.6208183"><ele>135.0</ele><time>2026-03-29T09:18:24.403Z</time></trkpt><trkpt lat="45.35407" lon="10.6210167"><ele>135.0</ele><time>2026-03-29T09:18:25.403Z</time></trkpt><trkpt lat="45.3542583" lon="10.62118"><ele>137.33333333333334</ele><time>2026-03-29T09:18:26.404Z</time></trkpt><trkpt lat="45.35445" lon="10.6213417"><ele>139.66666666666669</ele><time>2026-03-29T09:18:27.403Z</time></trkpt><trkpt lat="45.3546483" lon="10.6214917"><ele>142.0</ele><time>2026-03-29T09:18:28.403Z</time></trkpt><trkpt lat="45.3548417" lon="10.6216517"><ele>142.0</ele><time>2026-03-29T09:18:29.403Z</time></trkpt><trkpt lat="45.3550183" lon="10.6218067"><ele>142.0</ele><time>2026-03-29T09:18:30.403Z</time></trkpt><trkpt lat="45.355185" lon="10.6219633"><ele>142.0</ele><time>2026-03-29T09:18:31.403Z</time></trkpt><trkpt lat="45.3553467" lon="10.622125"><ele>144.0</ele><time>2026-03-29T09:18:32.404Z</time></trkpt><trkpt lat="45.3555333" lon="10.6223"><ele>146.0</ele><time>2026-03-29T09:18:33.403Z</time></trkpt><trkpt lat="45.3557183" lon="10.6224933"><ele>146.0</ele><time>2026-03-29T09:18:34.403Z</time></trkpt><trkpt lat="45.3559" lon="10.6226883"><ele>146.0</ele><time>2026-03-29T09:18:35.403Z</time></trkpt><trkpt lat="45.3560717" lon="10.6228633"><ele>146.0</ele><time>2026-03-29T09:18:36.404Z</time></trkpt><trkpt lat="45.35624" lon="10.6230017"><ele>149.0</ele><time>2026-03-29T09:18:37.403Z</time></trkpt><trkpt lat="45.3563983" lon="10.6231183"><ele>152.0</ele><time>2026-03-29T09:18:38.403Z</time></trkpt><trkpt lat="45.3565567" lon="10.6232283"><ele>155.0</ele><time>2026-03-29T09:18:39.403Z</time></trkpt><trkpt lat="45.3567133" lon="10.6233383"><ele>155.0</ele><time>2026-03-29T09:18:40.404Z</time></trkpt><trkpt lat="45.356855" lon="10.62345"><ele>155.0</ele><time>2026-03-29T09:18:41.403Z</time></trkpt><trkpt lat="45.3569917" lon="10.62356"><ele>155.0</ele><time>2026-03-29T09:18:42.404Z</time></trkpt><trkpt lat="45.3571183" lon="10.62368"><ele>156.66666666666666</ele><time>2026-03-29T09:18:43.403Z</time></trkpt><trkpt lat="45.35723" lon="10.623835"><ele>158.33333333333334</ele><time>2026-03-29T09:18:44.404Z</time></trkpt><trkpt lat="45.35731" lon="10.624005"><ele>160.0</ele><time>2026-03-29T09:18:45.403Z</time></trkpt><trkpt lat="45.3573783" lon="10.6242183"><ele>160.0</ele><time>2026-03-29T09:18:46.403Z</time></trkpt><trkpt lat="45.3574183" lon="10.6244433"><ele>160.0</ele><time>2026-03-29T09:18:47.403Z</time></trkpt><trkpt lat="45.35742" lon="10.62467"><ele>160.0</ele><time>2026-03-29T09:18:48.403Z</time></trkpt><trkpt lat="45.3574117" lon="10.6249033"><ele>160.33333333333334</ele><time>2026-03-29T09:18:49.403Z</time></trkpt><trkpt lat="45.357395" lon="10.6251367"><ele>160.66666666666666</ele><time>2026-03-29T09:18:50.403Z</time></trkpt><trkpt lat="45.357365" lon="10.6253817"><ele>161.0</ele><time>2026-03-29T09:18:51.403Z</time></trkpt><trkpt lat="45.3573267" lon="10.6256417"><ele>161.0</ele><time>2026-03-29T09:18:52.404Z</time></trkpt><trkpt lat="45.3572883" lon="10.6258967"><ele>161.0</ele><time>2026-03-29T09:18:53.403Z</time></trkpt><trkpt lat="45.357235" lon="10.62614"><ele>161.0</ele><time>2026-03-29T09:18:54.403Z</time></trkpt><trkpt lat="45.3571767" lon="10.626355"><ele>161.0</ele><time>2026-03-29T09:18:55.403Z</time></trkpt><trkpt lat="45.35712" lon="10.6265467"><ele>161.0</ele><time>2026-03-29T09:18:56.403Z</time></trkpt><trkpt lat="45.3570633" lon="10.6267183"><ele>161.0</ele><time>2026-03-29T09:18:57.403Z</time></trkpt><trkpt lat="45.3570133" lon="10.6268683"><ele>161.0</ele><time>2026-03-29T09:18:58.403Z</time></trkpt><trkpt lat="45.356965" lon="10.627005"><ele>160.0</ele><time>2026-03-29T09:18:59.403Z</time></trkpt><trkpt lat="45.3569167" lon="10.6271167"><ele>159.0</ele><time>2026-03-29T09:19:00.403Z</time></trkpt><trkpt lat="45.35687" lon="10.6272033"><ele>158.0</ele><time>2026-03-29T09:19:01.403Z</time></trkpt><trkpt lat="45.3568483" lon="10.6273567"><ele>157.0</ele><time>2026-03-29T09:19:03.403Z</time></trkpt><trkpt lat="45.3568333" lon="10.627445"><ele>156.0</ele><time>2026-03-29T09:19:04.403Z</time></trkpt><trkpt lat="45.3568117" lon="10.6275633"><ele>155.0</ele><time>2026-03-29T09:19:05.403Z</time></trkpt><trkpt lat="45.3567683" lon="10.6276917"><ele>154.0</ele><time>2026-03-29T09:19:06.403Z</time></trkpt><trkpt lat="45.356725" lon="10.62785"><ele>153.0</ele><time>2026-03-29T09:19:07.403Z</time></trkpt><trkpt lat="45.356685" lon="10.628"><ele>152.0</ele><time>2026-03-29T09:19:08.403Z</time></trkpt><trkpt lat="45.3566583" lon="10.62812"><ele>151.0</ele><time>2026-03-29T09:19:09.403Z</time></trkpt><trkpt lat="45.3566667" lon="10.6282417"><ele>150.0</ele><time>2026-03-29T09:19:11.403Z</time></trkpt><trkpt lat="45.35673" lon="10.6283067"><ele>150.0</ele><time>2026-03-29T09:19:13.403Z</time></trkpt><trkpt lat="45.3568333" lon="10.6283133"><ele>150.0</ele><time>2026-03-29T09:19:15.403Z</time></trkpt><trkpt lat="45.3569017" lon="10.6283017"><ele>150.0</ele><time>2026-03-29T09:19:16.404Z</time></trkpt><trkpt lat="45.356995" lon="10.6282833"><ele>150.0</ele><time>2026-03-29T09:19:17.403Z</time></trkpt><trkpt lat="45.3571083" lon="10.62829"><ele>150.0</ele><time>2026-03-29T09:19:18.403Z</time></trkpt><trkpt lat="45.357235" lon="10.6283"><ele>150.5</ele><time>2026-03-29T09:19:19.404Z</time></trkpt><trkpt lat="45.35735" lon="10.6283"><ele>151.0</ele><time>2026-03-29T09:19:20.403Z</time></trkpt><trkpt lat="45.3574533" lon="10.6282817"><ele>151.5</ele><time>2026-03-29T09:19:21.403Z</time></trkpt><trkpt lat="45.3575567" lon="10.6282283"><ele>152.0</ele><time>2026-03-29T09:19:22.403Z</time></trkpt><trkpt lat="45.3576617" lon="10.6281433"><ele>152.0</ele><time>2026-03-29T09:19:23.403Z</time></trkpt><trkpt lat="45.357775" lon="10.62804"><ele>152.0</ele><time>2026-03-29T09:19:24.403Z</time></trkpt><trkpt lat="45.3578717" lon="10.627915"><ele>152.0</ele><time>2026-03-29T09:19:25.403Z</time></trkpt><trkpt lat="45.3579467" lon="10.6277933"><ele>152.0</ele><time>2026-03-29T09:19:26.403Z</time></trkpt><trkpt lat="45.3580133" lon="10.6276917"><ele>152.0</ele><time>2026-03-29T09:19:27.403Z</time></trkpt><trkpt lat="45.358095" lon="10.6276083"><ele>152.0</ele><time>2026-03-29T09:19:28.403Z</time></trkpt><trkpt lat="45.3582017" lon="10.6275533"><ele>152.0</ele><time>2026-03-29T09:19:29.403Z</time></trkpt><trkpt lat="45.3583183" lon="10.6274867"><ele>152.0</ele><time>2026-03-29T09:19:30.403Z</time></trkpt><trkpt lat="45.3584317" lon="10.62742"><ele>152.0</ele><time>2026-03-29T09:19:31.403Z</time></trkpt><trkpt lat="45.3585333" lon="10.627345"><ele>152.0</ele><time>2026-03-29T09:19:32.403Z</time></trkpt><trkpt lat="45.3586233" lon="10.6272467"><ele>152.0</ele><time>2026-03-29T09:19:33.403Z</time></trkpt><trkpt lat="45.3587017" lon="10.6271317"><ele>152.0</ele><time>2026-03-29T09:19:34.403Z</time></trkpt><trkpt lat="45.35876" lon="10.6269967"><ele>153.75</ele><time>2026-03-29T09:19:35.404Z</time></trkpt><trkpt lat="45.3587917" lon="10.62682"><ele>155.5</ele><time>2026-03-29T09:19:36.403Z</time></trkpt><trkpt lat="45.35881" lon="10.6266483"><ele>157.25</ele><time>2026-03-29T09:19:37.402Z</time></trkpt><trkpt lat="45.358825" lon="10.6264683"><ele>159.0</ele><time>2026-03-29T09:19:38.403Z</time></trkpt><trkpt lat="45.3588383" lon="10.6263033"><ele>161.0</ele><time>2026-03-29T09:19:39.402Z</time></trkpt><trkpt lat="45.3588667" lon="10.6261217"><ele>163.0</ele><time>2026-03-29T09:19:40.402Z</time></trkpt><trkpt lat="45.3589" lon="10.6259667"><ele>165.0</ele><time>2026-03-29T09:19:41.403Z</time></trkpt><trkpt lat="45.358955" lon="10.6258283"><ele>167.0</ele><time>2026-03-29T09:19:42.402Z</time></trkpt><trkpt lat="45.3590233" lon="10.6257267"><ele>163.83333333333331</ele><time>2026-03-29T09:19:43.402Z</time></trkpt><trkpt lat="45.3591017" lon="10.6256433"><ele>160.66666666666666</ele><time>2026-03-29T09:19:44.402Z</time></trkpt><trkpt lat="45.3591717" lon="10.6255767"><ele>157.5</ele><time>2026-03-29T09:19:45.402Z</time></trkpt><trkpt lat="45.3592283" lon="10.6255167"><ele>154.33333333333334</ele><time>2026-03-29T09:19:46.402Z</time></trkpt><trkpt lat="45.3593217" lon="10.62545"><ele>151.16666666666669</ele><time>2026-03-29T09:19:48.402Z</time></trkpt><trkpt lat="45.3593917" lon="10.6254233"><ele>148.0</ele><time>2026-03-29T09:19:50.402Z</time></trkpt><trkpt lat="45.3594867" lon="10.625435"><ele>148.0</ele><time>2026-03-29T09:19:55.403Z</time></trkpt><trkpt lat="45.35963" lon="10.6254867"><ele>148.0</ele><time>2026-03-29T09:19:57.403Z</time></trkpt><trkpt lat="45.3597183" lon="10.6255383"><ele>148.0</ele><time>2026-03-29T09:19:58.402Z</time></trkpt><trkpt lat="45.3598233" lon="10.6256"><ele>148.0</ele><time>2026-03-29T09:19:59.402Z</time></trkpt><trkpt lat="45.3599333" lon="10.6256767"><ele>148.25</ele><time>2026-03-29T09:20:00.402Z</time></trkpt><trkpt lat="45.36005" lon="10.6257517"><ele>148.5</ele><time>2026-03-29T09:20:01.402Z</time></trkpt><trkpt lat="45.3601683" lon="10.6258217"><ele>148.75</ele><time>2026-03-29T09:20:02.402Z</time></trkpt><trkpt lat="45.3602767" lon="10.6258967"><ele>149.0</ele><time>2026-03-29T09:20:03.402Z</time></trkpt><trkpt lat="45.3603867" lon="10.6259867"><ele>149.0</ele><time>2026-03-29T09:20:04.402Z</time></trkpt><trkpt lat="45.3604933" lon="10.6260783"><ele>149.0</ele><time>2026-03-29T09:20:05.403Z</time></trkpt><trkpt lat="45.3605983" lon="10.62618"><ele>149.0</ele><time>2026-03-29T09:20:06.403Z</time></trkpt><trkpt lat="45.3607267" lon="10.6262933"><ele>149.0</ele><time>2026-03-29T09:20:07.402Z</time></trkpt><trkpt lat="45.3608317" lon="10.6264017"><ele>149.8</ele><time>2026-03-29T09:20:08.402Z</time></trkpt><trkpt lat="45.3609283" lon="10.6265083"><ele>150.60000000000002</ele><time>2026-03-29T09:20:09.402Z</time></trkpt><trkpt lat="45.36102" lon="10.6266017"><ele>151.4</ele><time>2026-03-29T09:20:10.402Z</time></trkpt><trkpt lat="45.3610933" lon="10.6266783"><ele>152.20000000000002</ele><time>2026-03-29T09:20:11.403Z</time></trkpt><trkpt lat="45.3611567" lon="10.62675"><ele>153.0</ele><time>2026-03-29T09:20:12.402Z</time></trkpt><trkpt lat="45.3612117" lon="10.6268217"><ele>153.0</ele><time>2026-03-29T09:20:13.402Z</time></trkpt><trkpt lat="45.361275" lon="10.6268967"><ele>153.0</ele><time>2026-03-29T09:20:14.402Z</time></trkpt><trkpt lat="45.3613383" lon="10.626975"><ele>153.0</ele><time>2026-03-29T09:20:15.402Z</time></trkpt><trkpt lat="45.3614133" lon="10.6270433"><ele>153.0</ele><time>2026-03-29T09:20:16.402Z</time></trkpt><trkpt lat="45.3614983" lon="10.6271117"><ele>153.0</ele><time>2026-03-29T09:20:17.402Z</time></trkpt><trkpt lat="45.3615783" lon="10.6271683"><ele>153.0</ele><time>2026-03-29T09:20:18.402Z</time></trkpt><trkpt lat="45.3616633" lon="10.6272233"><ele>153.0</ele><time>2026-03-29T09:20:19.402Z</time></trkpt><trkpt lat="45.3617483" lon="10.6272867"><ele>153.0</ele><time>2026-03-29T09:20:20.402Z</time></trkpt><trkpt lat="45.3618367" lon="10.627345"><ele>153.0</ele><time>2026-03-29T09:20:21.402Z</time></trkpt><trkpt lat="45.3619183" lon="10.6274033"><ele>153.0</ele><time>2026-03-29T09:20:22.402Z</time></trkpt><trkpt lat="45.3620033" lon="10.627455"><ele>153.0</ele><time>2026-03-29T09:20:23.402Z</time></trkpt><trkpt lat="45.3620867" lon="10.6275033"><ele>153.0</ele><time>2026-03-29T09:20:24.402Z</time></trkpt><trkpt lat="45.3621783" lon="10.6275383"><ele>153.0</ele><time>2026-03-29T09:20:25.403Z</time></trkpt><trkpt lat="45.3622617" lon="10.6275683"><ele>153.0</ele><time>2026-03-29T09:20:26.403Z</time></trkpt><trkpt lat="45.3623483" lon="10.627595"><ele>153.0</ele><time>2026-03-29T09:20:27.402Z</time></trkpt><trkpt lat="45.3624233" lon="10.6276117"><ele>153.0</ele><time>2026-03-29T09:20:28.403Z</time></trkpt><trkpt lat="45.3625367" lon="10.6276233"><ele>153.0</ele><time>2026-03-29T09:20:30.402Z</time></trkpt><trkpt lat="45.3626267" lon="10.6275883"><ele>153.0</ele><time>2026-03-29T09:20:32.403Z</time></trkpt><trkpt lat="45.3627033" lon="10.6274983"><ele>153.0</ele><time>2026-03-29T09:20:34.402Z</time></trkpt><trkpt lat="45.3627533" lon="10.6274317"><ele>153.0</ele><time>2026-03-29T09:20:35.402Z</time></trkpt><trkpt lat="45.3628233" lon="10.6273633"><ele>153.0</ele><time>2026-03-29T09:20:36.403Z</time></trkpt><trkpt lat="45.3629167" lon="10.6272883"><ele>153.0</ele><time>2026-03-29T09:20:37.402Z</time></trkpt><trkpt lat="45.3630033" lon="10.627225"><ele>153.0</ele><time>2026-03-29T09:20:38.402Z</time></trkpt><trkpt lat="45.36308" lon="10.6271817"><ele>153.0</ele><time>2026-03-29T09:20:39.402Z</time></trkpt><trkpt lat="45.3631367" lon="10.6271183"><ele>153.0</ele><time>2026-03-29T09:20:40.402Z</time></trkpt><trkpt lat="45.363175" lon="10.626985"><ele>153.0</ele><time>2026-03-29T09:20:42.402Z</time></trkpt><trkpt lat="45.3631683" lon="10.6268933"><ele>153.0</ele><time>2026-03-29T09:20:43.402Z</time></trkpt><trkpt lat="45.36316" lon="10.6267867"><ele>152.8</ele><time>2026-03-29T09:20:44.402Z</time></trkpt><trkpt lat="45.36315" lon="10.626645"><ele>152.60000000000002</ele><time>2026-03-29T09:20:45.402Z</time></trkpt><trkpt lat="45.3631367" lon="10.6264867"><ele>152.39999999999998</ele><time>2026-03-29T09:20:46.402Z</time></trkpt><trkpt lat="45.3631233" lon="10.6263317"><ele>152.2</ele><time>2026-03-29T09:20:47.402Z</time></trkpt><trkpt lat="45.3631133" lon="10.6261767"><ele>152.0</ele><time>2026-03-29T09:20:48.402Z</time></trkpt><trkpt lat="45.3631067" lon="10.6260417"><ele>151.6</ele><time>2026-03-29T09:20:49.402Z</time></trkpt><trkpt lat="45.363105" lon="10.625905"><ele>151.2</ele><time>2026-03-29T09:20:50.402Z</time></trkpt><trkpt lat="45.3631" lon="10.6257733"><ele>150.8</ele><time>2026-03-29T09:20:51.403Z</time></trkpt><trkpt lat="45.36312" lon="10.62565"><ele>150.4</ele><time>2026-03-29T09:20:52.402Z</time></trkpt><trkpt lat="45.3631583" lon="10.6255317"><ele>150.0</ele><time>2026-03-29T09:20:53.403Z</time></trkpt><trkpt lat="45.3632067" lon="10.6254167"><ele>150.0</ele><time>2026-03-29T09:20:54.402Z</time></trkpt><trkpt lat="45.36326" lon="10.6253083"><ele>150.0</ele><time>2026-03-29T09:20:55.402Z</time></trkpt><trkpt lat="45.3633133" lon="10.6252033"><ele>150.0</ele><time>2026-03-29T09:20:56.403Z</time></trkpt><trkpt lat="45.3633667" lon="10.625105"><ele>150.0</ele><time>2026-03-29T09:20:57.402Z</time></trkpt><trkpt lat="45.3634133" lon="10.62501"><ele>150.0</ele><time>2026-03-29T09:20:58.402Z</time></trkpt><trkpt lat="45.3634617" lon="10.6249233"><ele>150.0</ele><time>2026-03-29T09:20:59.403Z</time></trkpt><trkpt lat="45.363505" lon="10.6248333"><ele>150.0</ele><time>2026-03-29T09:21:00.402Z</time></trkpt><trkpt lat="45.363545" lon="10.62474"><ele>150.0</ele><time>2026-03-29T09:21:01.402Z</time></trkpt><trkpt lat="45.3635933" lon="10.6246417"><ele>150.0</ele><time>2026-03-29T09:21:02.403Z</time></trkpt><trkpt lat="45.36364" lon="10.6245433"><ele>150.0</ele><time>2026-03-29T09:21:03.402Z</time></trkpt><trkpt lat="45.3636867" lon="10.6244317"><ele>150.0</ele><time>2026-03-29T09:21:04.402Z</time></trkpt><trkpt lat="45.363725" lon="10.62433"><ele>150.0</ele><time>2026-03-29T09:21:05.402Z</time></trkpt><trkpt lat="45.3637667" lon="10.6242283"><ele>149.4</ele><time>2026-03-29T09:21:06.402Z</time></trkpt><trkpt lat="45.3638067" lon="10.62413"><ele>148.8</ele><time>2026-03-29T09:21:07.402Z</time></trkpt><trkpt lat="45.3638483" lon="10.6240367"><ele>148.2</ele><time>2026-03-29T09:21:08.402Z</time></trkpt><trkpt lat="45.3639017" lon="10.6239267"><ele>147.6</ele><time>2026-03-29T09:21:09.402Z</time></trkpt><trkpt lat="45.3639683" lon="10.6238067"><ele>147.0</ele><time>2026-03-29T09:21:10.402Z</time></trkpt><trkpt lat="45.36406" lon="10.6236683"><ele>147.2</ele><time>2026-03-29T09:21:11.402Z</time></trkpt><trkpt lat="45.3641517" lon="10.62353"><ele>147.39999999999998</ele><time>2026-03-29T09:21:12.402Z</time></trkpt><trkpt lat="45.36423" lon="10.6234017"><ele>147.60000000000002</ele><time>2026-03-29T09:21:13.402Z</time></trkpt><trkpt lat="45.3642883" lon="10.6233017"><ele>147.8</ele><time>2026-03-29T09:21:14.402Z</time></trkpt><trkpt lat="45.36432" lon="10.6232183"><ele>148.0</ele><time>2026-03-29T09:21:15.402Z</time></trkpt><trkpt lat="45.3643217" lon="10.6230583"><ele>148.0</ele><time>2026-03-29T09:21:17.403Z</time></trkpt><trkpt lat="45.364265" lon="10.6229467"><ele>148.0</ele><time>2026-03-29T09:21:19.402Z</time></trkpt><trkpt lat="45.3641867" lon="10.6227967"><ele>148.0</ele><time>2026-03-29T09:21:21.402Z</time></trkpt><trkpt lat="45.3641383" lon="10.6226967"><ele>148.0</ele><time>2026-03-29T09:21:22.402Z</time></trkpt><trkpt lat="45.3640867" lon="10.6225883"><ele>148.0</ele><time>2026-03-29T09:21:23.402Z</time></trkpt><trkpt lat="45.3640383" lon="10.6224833"><ele>147.5</ele><time>2026-03-29T09:21:24.403Z</time></trkpt><trkpt lat="45.363995" lon="10.6223617"><ele>147.0</ele><time>2026-03-29T09:21:25.403Z</time></trkpt><trkpt lat="45.3639483" lon="10.6222483"><ele>146.5</ele><time>2026-03-29T09:21:26.403Z</time></trkpt><trkpt lat="45.36392" lon="10.6221333"><ele>146.0</ele><time>2026-03-29T09:21:27.402Z</time></trkpt><trkpt lat="45.3639117" lon="10.62201"><ele>145.5</ele><time>2026-03-29T09:21:28.403Z</time></trkpt><trkpt lat="45.3639083" lon="10.6218883"><ele>145.0</ele><time>2026-03-29T09:21:29.402Z</time></trkpt><trkpt lat="45.36391" lon="10.6217467"><ele>145.0</ele><time>2026-03-29T09:21:30.402Z</time></trkpt><trkpt lat="45.3639333" lon="10.6215983"><ele>145.0</ele><time>2026-03-29T09:21:31.402Z</time></trkpt><trkpt lat="45.36396" lon="10.6214583"><ele>145.0</ele><time>2026-03-29T09:21:32.402Z</time></trkpt><trkpt lat="45.3639933" lon="10.6213217"><ele>145.0</ele><time>2026-03-29T09:21:33.402Z</time></trkpt><trkpt lat="45.3640083" lon="10.6211933"><ele>145.0</ele><time>2026-03-29T09:21:34.402Z</time></trkpt><trkpt lat="45.3640133" lon="10.62105"><ele>145.0</ele><time>2026-03-29T09:21:35.402Z</time></trkpt><trkpt lat="45.3639933" lon="10.620925"><ele>145.0</ele><time>2026-03-29T09:21:36.402Z</time></trkpt><trkpt lat="45.3639683" lon="10.620795"><ele>145.0</ele><time>2026-03-29T09:21:37.402Z</time></trkpt><trkpt lat="45.36394" lon="10.62066"><ele>145.0</ele><time>2026-03-29T09:21:38.402Z</time></trkpt><trkpt lat="45.363905" lon="10.62053"><ele>145.0</ele><time>2026-03-29T09:21:39.402Z</time></trkpt><trkpt lat="45.36386" lon="10.6204283"><ele>146.0</ele><time>2026-03-29T09:21:40.402Z</time></trkpt><trkpt lat="45.3637983" lon="10.6203317"><ele>147.0</ele><time>2026-03-29T09:21:41.402Z</time></trkpt><trkpt lat="45.3637367" lon="10.620225"><ele>148.0</ele><time>2026-03-29T09:21:42.403Z</time></trkpt><trkpt lat="45.3636933" lon="10.6201"><ele>149.0</ele><time>2026-03-29T09:21:43.403Z</time></trkpt><trkpt lat="45.3636733" lon="10.6199567"><ele>150.0</ele><time>2026-03-29T09:21:44.402Z</time></trkpt><trkpt lat="45.3636633" lon="10.6197767"><ele>150.5</ele><time>2026-03-29T09:21:45.403Z</time></trkpt><trkpt lat="45.363655" lon="10.6195667"><ele>151.0</ele><time>2026-03-29T09:21:46.402Z</time></trkpt><trkpt lat="45.3636367" lon="10.6193933"><ele>151.5</ele><time>2026-03-29T09:21:47.402Z</time></trkpt><trkpt lat="45.3636317" lon="10.61926"><ele>152.0</ele><time>2026-03-29T09:21:48.402Z</time></trkpt><trkpt lat="45.3636517" lon="10.6191383"><ele>152.25</ele><time>2026-03-29T09:21:49.403Z</time></trkpt><trkpt lat="45.3636917" lon="10.6190217"><ele>152.5</ele><time>2026-03-29T09:21:50.402Z</time></trkpt><trkpt lat="45.3637467" lon="10.6188733"><ele>152.75</ele><time>2026-03-29T09:21:51.402Z</time></trkpt><trkpt lat="45.3638083" lon="10.6187217"><ele>153.0</ele><time>2026-03-29T09:21:52.403Z</time></trkpt><trkpt lat="45.3638717" lon="10.6185733"><ele>151.5</ele><time>2026-03-29T09:21:53.402Z</time></trkpt><trkpt lat="45.36393" lon="10.61843"><ele>150.0</ele><time>2026-03-29T09:21:54.402Z</time></trkpt><trkpt lat="45.3639933" lon="10.618265"><ele>148.5</ele><time>2026-03-29T09:21:55.402Z</time></trkpt><trkpt lat="45.3640617" lon="10.618105"><ele>147.0</ele><time>2026-03-29T09:21:56.403Z</time></trkpt><trkpt lat="45.3641167" lon="10.61792"><ele>147.0</ele><time>2026-03-29T09:21:57.402Z</time></trkpt><trkpt lat="45.3641733" lon="10.6177417"><ele>147.0</ele><time>2026-03-29T09:21:58.402Z</time></trkpt><trkpt lat="45.3642333" lon="10.6175517"><ele>147.0</ele><time>2026-03-29T09:21:59.403Z</time></trkpt><trkpt lat="45.364295" lon="10.61738"><ele>147.0</ele><time>2026-03-29T09:22:00.402Z</time></trkpt><trkpt lat="45.3643417" lon="10.6172117"><ele>147.0</ele><time>2026-03-29T09:22:01.402Z</time></trkpt><trkpt lat="45.3643883" lon="10.6170533"><ele>147.0</ele><time>2026-03-29T09:22:02.402Z</time></trkpt><trkpt lat="45.364435" lon="10.61692"><ele>147.0</ele><time>2026-03-29T09:22:03.402Z</time></trkpt><trkpt lat="45.3644767" lon="10.6168067"><ele>147.0</ele><time>2026-03-29T09:22:04.402Z</time></trkpt><trkpt lat="45.3645167" lon="10.616725"><ele>147.0</ele><time>2026-03-29T09:22:05.402Z</time></trkpt><trkpt lat="45.36461" lon="10.616645"><ele>146.66666666666666</ele><time>2026-03-29T09:22:07.402Z</time></trkpt><trkpt lat="45.364675" lon="10.6166533"><ele>146.33333333333334</ele><time>2026-03-29T09:22:08.402Z</time></trkpt><trkpt lat="45.36476" lon="10.61666"><ele>146.0</ele><time>2026-03-29T09:22:09.402Z</time></trkpt><trkpt lat="45.364835" lon="10.6166533"><ele>145.66666666666669</ele><time>2026-03-29T09:22:10.402Z</time></trkpt><trkpt lat="45.3649" lon="10.616625"><ele>145.33333333333334</ele><time>2026-03-29T09:22:11.402Z</time></trkpt><trkpt lat="45.364955" lon="10.6165733"><ele>145.0</ele><time>2026-03-29T09:22:12.402Z</time></trkpt><trkpt lat="45.364995" lon="10.6164483"><ele>144.2</ele><time>2026-03-29T09:22:14.403Z</time></trkpt><trkpt lat="45.3649933" lon="10.6163367"><ele>143.4</ele><time>2026-03-29T09:22:15.402Z</time></trkpt><trkpt lat="45.36499" lon="10.6162017"><ele>142.6</ele><time>2026-03-29T09:22:16.402Z</time></trkpt><trkpt lat="45.3650017" lon="10.61607"><ele>141.8</ele><time>2026-03-29T09:22:17.402Z</time></trkpt><trkpt lat="45.36503" lon="10.6159583"><ele>141.0</ele><time>2026-03-29T09:22:18.402Z</time></trkpt><trkpt lat="45.365105" lon="10.6158333"><ele>140.6</ele><time>2026-03-29T09:22:20.403Z</time></trkpt><trkpt lat="45.365125" lon="10.6157083"><ele>140.2</ele><time>2026-03-29T09:22:22.402Z</time></trkpt><trkpt lat="45.3651067" lon="10.6155883"><ele>139.8</ele><time>2026-03-29T09:22:23.402Z</time></trkpt><trkpt lat="45.3650883" lon="10.6154133"><ele>139.4</ele><time>2026-03-29T09:22:24.402Z</time></trkpt><trkpt lat="45.3650717" lon="10.6152083"><ele>139.0</ele><time>2026-03-29T09:22:25.402Z</time></trkpt><trkpt lat="45.365055" lon="10.6149833"><ele>139.0</ele><time>2026-03-29T09:22:26.402Z</time></trkpt><trkpt lat="45.3650567" lon="10.6147533"><ele>139.0</ele><time>2026-03-29T09:22:27.402Z</time></trkpt><trkpt lat="45.36507" lon="10.6145383"><ele>139.0</ele><time>2026-03-29T09:22:28.402Z</time></trkpt><trkpt lat="45.36507" lon="10.6143417"><ele>138.8</ele><time>2026-03-29T09:22:29.402Z</time></trkpt><trkpt lat="45.3650683" lon="10.6141817"><ele>138.60000000000002</ele><time>2026-03-29T09:22:30.402Z</time></trkpt><trkpt lat="45.3650567" lon="10.6140283"><ele>138.4</ele><time>2026-03-29T09:22:31.402Z</time></trkpt><trkpt lat="45.365045" lon="10.613875"><ele>138.20000000000002</ele><time>2026-03-29T09:22:32.402Z</time></trkpt><trkpt lat="45.3650433" lon="10.6137433"><ele>138.0</ele><time>2026-03-29T09:22:33.402Z</time></trkpt><trkpt lat="45.36506" lon="10.6136217"><ele>138.4</ele><time>2026-03-29T09:22:34.402Z</time></trkpt><trkpt lat="45.3650833" lon="10.6134933"><ele>138.8</ele><time>2026-03-29T09:22:35.402Z</time></trkpt><trkpt lat="45.3651017" lon="10.6133667"><ele>139.2</ele><time>2026-03-29T09:22:36.402Z</time></trkpt><trkpt lat="45.3651" lon="10.6132333"><ele>139.6</ele><time>2026-03-29T09:22:37.402Z</time></trkpt><trkpt lat="45.3650767" lon="10.6130933"><ele>140.0</ele><time>2026-03-29T09:22:38.403Z</time></trkpt><trkpt lat="45.3650433" lon="10.6129533"><ele>140.0</ele><time>2026-03-29T09:22:39.403Z</time></trkpt><trkpt lat="45.364995" lon="10.6127867"><ele>140.0</ele><time>2026-03-29T09:22:40.402Z</time></trkpt><trkpt lat="45.364935" lon="10.6126267"><ele>140.0</ele><time>2026-03-29T09:22:41.402Z</time></trkpt><trkpt lat="45.3648583" lon="10.612475"><ele>140.0</ele><time>2026-03-29T09:22:42.402Z</time></trkpt><trkpt lat="45.3647817" lon="10.612315"><ele>140.0</ele><time>2026-03-29T09:22:43.402Z</time></trkpt><trkpt lat="45.3647167" lon="10.6121617"><ele>140.0</ele><time>2026-03-29T09:22:44.402Z</time></trkpt><trkpt lat="45.364675" lon="10.6119933"><ele>140.0</ele><time>2026-03-29T09:22:45.402Z</time></trkpt><trkpt lat="45.364655" lon="10.6118167"><ele>140.0</ele><time>2026-03-29T09:22:46.402Z</time></trkpt><trkpt lat="45.3646417" lon="10.6116283"><ele>139.33333333333331</ele><time>2026-03-29T09:22:47.402Z</time></trkpt><trkpt lat="45.364615" lon="10.6114017"><ele>138.66666666666666</ele><time>2026-03-29T09:22:48.402Z</time></trkpt><trkpt lat="45.3645833" lon="10.6111767"><ele>138.0</ele><time>2026-03-29T09:22:49.403Z</time></trkpt><trkpt lat="45.3645433" lon="10.61097"><ele>138.0</ele><time>2026-03-29T09:22:50.402Z</time></trkpt><trkpt lat="45.3645117" lon="10.6107967"><ele>138.0</ele><time>2026-03-29T09:22:51.403Z</time></trkpt><trkpt lat="45.36448" lon="10.610645"><ele>138.0</ele><time>2026-03-29T09:22:52.402Z</time></trkpt><trkpt lat="45.3644683" lon="10.61054"><ele>138.0</ele><time>2026-03-29T09:22:53.402Z</time></trkpt><trkpt lat="45.3645317" lon="10.61048"><ele>138.0</ele><time>2026-03-29T09:22:55.402Z</time></trkpt><trkpt lat="45.3646" lon="10.6105"><ele>138.0</ele><time>2026-03-29T09:22:56.403Z</time></trkpt><trkpt lat="45.364695" lon="10.6105317"><ele>138.0</ele><time>2026-03-29T09:22:57.403Z</time></trkpt><trkpt lat="45.36482" lon="10.61057"><ele>138.0</ele><time>2026-03-29T09:22:58.402Z</time></trkpt><trkpt lat="45.364975" lon="10.6106067"><ele>138.0</ele><time>2026-03-29T09:22:59.402Z</time></trkpt><trkpt lat="45.3651433" lon="10.610645"><ele>138.33333333333334</ele><time>2026-03-29T09:23:00.402Z</time></trkpt><trkpt lat="45.3653217" lon="10.6106883"><ele>138.66666666666669</ele><time>2026-03-29T09:23:01.402Z</time></trkpt><trkpt lat="45.3655083" lon="10.6107183"><ele>139.0</ele><time>2026-03-29T09:23:02.403Z</time></trkpt><trkpt lat="45.3657167" lon="10.6107567"><ele>139.0</ele><time>2026-03-29T09:23:03.402Z</time></trkpt><trkpt lat="45.36593" lon="10.6107783"><ele>139.0</ele><time>2026-03-29T09:23:04.402Z</time></trkpt><trkpt lat="45.3661467" lon="10.6108033"><ele>139.0</ele><time>2026-03-29T09:23:05.402Z</time></trkpt><trkpt lat="45.3663433" lon="10.61082"><ele>139.25</ele><time>2026-03-29T09:23:06.403Z</time></trkpt><trkpt lat="45.366525" lon="10.6108433"><ele>139.5</ele><time>2026-03-29T09:23:07.402Z</time></trkpt><trkpt lat="45.3666683" lon="10.610845"><ele>139.75</ele><time>2026-03-29T09:23:08.402Z</time></trkpt><trkpt lat="45.36677" lon="10.610825"><ele>140.0</ele><time>2026-03-29T09:23:09.402Z</time></trkpt><trkpt lat="45.3668733" lon="10.61077"><ele>140.0</ele><time>2026-03-29T09:23:11.402Z</time></trkpt><trkpt lat="45.366905" lon="10.6106583"><ele>140.0</ele><time>2026-03-29T09:23:12.402Z</time></trkpt><trkpt lat="45.3669333" lon="10.6105067"><ele>140.0</ele><time>2026-03-29T09:23:13.402Z</time></trkpt><trkpt lat="45.3669717" lon="10.6103233"><ele>140.0</ele><time>2026-03-29T09:23:14.403Z</time></trkpt><trkpt lat="45.367015" lon="10.6101183"><ele>139.66666666666666</ele><time>2026-03-29T09:23:15.402Z</time></trkpt><trkpt lat="45.36706" lon="10.6098933"><ele>139.33333333333334</ele><time>2026-03-29T09:23:16.402Z</time></trkpt><trkpt lat="45.3671133" lon="10.6096483"><ele>139.0</ele><time>2026-03-29T09:23:17.402Z</time></trkpt><trkpt lat="45.3671767" lon="10.6093817"><ele>139.66666666666669</ele><time>2026-03-29T09:23:18.402Z</time></trkpt><trkpt lat="45.3672383" lon="10.6091117"><ele>140.33333333333334</ele><time>2026-03-29T09:23:19.403Z</time></trkpt><trkpt lat="45.3672917" lon="10.608835"><ele>141.0</ele><time>2026-03-29T09:23:20.402Z</time></trkpt><trkpt lat="45.36734" lon="10.60857"><ele>141.33333333333334</ele><time>2026-03-29T09:23:21.403Z</time></trkpt><trkpt lat="45.3673867" lon="10.608325"><ele>141.66666666666669</ele><time>2026-03-29T09:23:22.403Z</time></trkpt><trkpt lat="45.3674217" lon="10.6081183"><ele>142.0</ele><time>2026-03-29T09:23:23.403Z</time></trkpt><trkpt lat="45.3674617" lon="10.6079317"><ele>141.79999999999998</ele><time>2026-03-29T09:23:24.402Z</time></trkpt><trkpt lat="45.3675017" lon="10.6077817"><ele>141.6</ele><time>2026-03-29T09:23:25.402Z</time></trkpt><trkpt lat="45.3675367" lon="10.6076333"><ele>141.39999999999998</ele><time>2026-03-29T09:23:26.402Z</time></trkpt><trkpt lat="45.367575" lon="10.607505"><ele>141.2</ele><time>2026-03-29T09:23:27.402Z</time></trkpt><trkpt lat="45.3676133" lon="10.6074267"><ele>141.0</ele><time>2026-03-29T09:23:28.403Z</time></trkpt><trkpt lat="45.36773" lon="10.6073833"><ele>141.0</ele><time>2026-03-29T09:23:30.402Z</time></trkpt><trkpt lat="45.3678217" lon="10.6074333"><ele>141.0</ele><time>2026-03-29T09:23:31.402Z</time></trkpt><trkpt lat="45.367935" lon="10.6075167"><ele>141.0</ele><time>2026-03-29T09:23:32.402Z</time></trkpt><trkpt lat="45.3680383" lon="10.607615"><ele>141.0</ele><time>2026-03-29T09:23:33.403Z</time></trkpt><trkpt lat="45.3681417" lon="10.6076883"><ele>139.6</ele><time>2026-03-29T09:23:34.402Z</time></trkpt><trkpt lat="45.3682433" lon="10.6077233"><ele>138.2</ele><time>2026-03-29T09:23:35.402Z</time></trkpt><trkpt lat="45.36833" lon="10.60772"><ele>136.8</ele><time>2026-03-29T09:23:36.402Z</time></trkpt><trkpt lat="45.3684033" lon="10.6076683"><ele>135.4</ele><time>2026-03-29T09:23:37.403Z</time></trkpt><trkpt lat="45.368485" lon="10.60758"><ele>134.0</ele><time>2026-03-29T09:23:38.402Z</time></trkpt><trkpt lat="45.36856" lon="10.6074583"><ele>134.0</ele><time>2026-03-29T09:23:39.402Z</time></trkpt><trkpt lat="45.368635" lon="10.6073033"><ele>134.0</ele><time>2026-03-29T09:23:40.402Z</time></trkpt><trkpt lat="45.3687" lon="10.6071333"><ele>134.0</ele><time>2026-03-29T09:23:41.403Z</time></trkpt><trkpt lat="45.3687683" lon="10.606985"><ele>134.0</ele><time>2026-03-29T09:23:42.402Z</time></trkpt><trkpt lat="45.3688317" lon="10.606875"><ele>130.8</ele><time>2026-03-29T09:23:43.403Z</time></trkpt><trkpt lat="45.3688783" lon="10.6068033"><ele>127.60000000000001</ele><time>2026-03-29T09:23:44.402Z</time></trkpt><trkpt lat="45.368965" lon="10.6067617"><ele>124.4</ele><time>2026-03-29T09:23:47.402Z</time></trkpt><trkpt lat="45.3691117" lon="10.6068217"><ele>121.2</ele><time>2026-03-29T09:23:49.402Z</time></trkpt><trkpt lat="45.3692" lon="10.60688"><ele>118.0</ele><time>2026-03-29T09:23:50.402Z</time></trkpt><trkpt lat="45.3692983" lon="10.6069667"><ele>117.60000000000001</ele><time>2026-03-29T09:23:51.402Z</time></trkpt><trkpt lat="45.369395" lon="10.6070567"><ele>117.20000000000002</ele><time>2026-03-29T09:23:52.402Z</time></trkpt><trkpt lat="45.36949" lon="10.6071417"><ele>116.8</ele><time>2026-03-29T09:23:53.402Z</time></trkpt><trkpt lat="45.3695783" lon="10.607195"><ele>116.4</ele><time>2026-03-29T09:23:54.402Z</time></trkpt><trkpt lat="45.369655" lon="10.6072133"><ele>116.0</ele><time>2026-03-29T09:23:55.402Z</time></trkpt><trkpt lat="45.3697167" lon="10.607285"><ele>116.0</ele><time>2026-03-29T09:23:57.402Z</time></trkpt><trkpt lat="45.369725" lon="10.6074867"><ele>116.0</ele><time>2026-03-29T09:23:59.402Z</time></trkpt><trkpt lat="45.36973" lon="10.6076283"><ele>116.0</ele><time>2026-03-29T09:24:00.402Z</time></trkpt><trkpt lat="45.3697367" lon="10.60777"><ele>116.0</ele><time>2026-03-29T09:24:01.402Z</time></trkpt><trkpt lat="45.36975" lon="10.6079133"><ele>116.0</ele><time>2026-03-29T09:24:02.402Z</time></trkpt><trkpt lat="45.3697733" lon="10.6080633"><ele>116.19999999999999</ele><time>2026-03-29T09:24:03.403Z</time></trkpt><trkpt lat="45.3697983" lon="10.60821"><ele>116.39999999999999</ele><time>2026-03-29T09:24:04.402Z</time></trkpt><trkpt lat="45.3698183" lon="10.608345"><ele>116.6</ele><time>2026-03-29T09:24:05.402Z</time></trkpt><trkpt lat="45.369835" lon="10.6084717"><ele>116.8</ele><time>2026-03-29T09:24:06.401Z</time></trkpt><trkpt lat="45.369845" lon="10.6086167"><ele>117.0</ele><time>2026-03-29T09:24:07.401Z</time></trkpt><trkpt lat="45.3698667" lon="10.608815"><ele>119.33333333333334</ele><time>2026-03-29T09:24:08.401Z</time></trkpt><trkpt lat="45.3698833" lon="10.6090483"><ele>121.66666666666667</ele><time>2026-03-29T09:24:09.401Z</time></trkpt><trkpt lat="45.36992" lon="10.609305"><ele>124.0</ele><time>2026-03-29T09:24:10.401Z</time></trkpt><trkpt lat="45.369965" lon="10.6095533"><ele>125.0</ele><time>2026-03-29T09:24:11.401Z</time></trkpt><trkpt lat="45.3700233" lon="10.609775"><ele>126.0</ele><time>2026-03-29T09:24:12.402Z</time></trkpt><trkpt lat="45.3700817" lon="10.6099933"><ele>127.0</ele><time>2026-03-29T09:24:13.401Z</time></trkpt><trkpt lat="45.37013" lon="10.6101783"><ele>127.33333333333334</ele><time>2026-03-29T09:24:14.401Z</time></trkpt><trkpt lat="45.3701933" lon="10.6103933"><ele>127.66666666666666</ele><time>2026-03-29T09:24:15.401Z</time></trkpt><trkpt lat="45.37026" lon="10.6106133"><ele>128.0</ele><time>2026-03-29T09:24:16.401Z</time></trkpt><trkpt lat="45.3703183" lon="10.6108417"><ele>128.0</ele><time>2026-03-29T09:24:17.401Z</time></trkpt><trkpt lat="45.370375" lon="10.6110933"><ele>128.0</ele><time>2026-03-29T09:24:18.401Z</time></trkpt><trkpt lat="45.3704233" lon="10.61133"><ele>128.0</ele><time>2026-03-29T09:24:19.401Z</time></trkpt><trkpt lat="45.3704767" lon="10.61154"><ele>127.83333333333333</ele><time>2026-03-29T09:24:20.401Z</time></trkpt><trkpt lat="45.3705083" lon="10.6117033"><ele>127.66666666666666</ele><time>2026-03-29T09:24:21.401Z</time></trkpt><trkpt lat="45.3705417" lon="10.611835"><ele>127.5</ele><time>2026-03-29T09:24:22.402Z</time></trkpt><trkpt lat="45.37055" lon="10.6119317"><ele>127.33333333333334</ele><time>2026-03-29T09:24:23.402Z</time></trkpt><trkpt lat="45.37057" lon="10.6120267"><ele>127.16666666666667</ele><time>2026-03-29T09:24:24.401Z</time></trkpt><trkpt lat="45.37059" lon="10.6121333"><ele>127.0</ele><time>2026-03-29T09:24:25.401Z</time></trkpt><trkpt lat="45.3705983" lon="10.6122633"><ele>125.25</ele><time>2026-03-29T09:24:26.401Z</time></trkpt><trkpt lat="45.3705983" lon="10.6124767"><ele>123.5</ele><time>2026-03-29T09:24:27.401Z</time></trkpt><trkpt lat="45.3705983" lon="10.6126867"><ele>121.75</ele><time>2026-03-29T09:24:28.401Z</time></trkpt><trkpt lat="45.3706167" lon="10.6128533"><ele>120.0</ele><time>2026-03-29T09:24:29.401Z</time></trkpt><trkpt lat="45.37066" lon="10.6129817"><ele>118.75</ele><time>2026-03-29T09:24:30.401Z</time></trkpt><trkpt lat="45.370745" lon="10.6131"><ele>117.5</ele><time>2026-03-29T09:24:31.401Z</time></trkpt><trkpt lat="45.3708767" lon="10.6132117"><ele>116.25</ele><time>2026-03-29T09:24:32.401Z</time></trkpt><trkpt lat="45.3710267" lon="10.6133217"><ele>115.0</ele><time>2026-03-29T09:24:33.401Z</time></trkpt><trkpt lat="45.3711867" lon="10.6134267"><ele>114.66666666666667</ele><time>2026-03-29T09:24:34.401Z</time></trkpt><trkpt lat="45.3713617" lon="10.613555"><ele>114.33333333333334</ele><time>2026-03-29T09:24:35.402Z</time></trkpt><trkpt lat="45.3715467" lon="10.6136933"><ele>114.0</ele><time>2026-03-29T09:24:36.402Z</time></trkpt><trkpt lat="45.37175" lon="10.61386"><ele>114.0</ele><time>2026-03-29T09:24:37.401Z</time></trkpt><trkpt lat="45.3719467" lon="10.6140333"><ele>114.0</ele><time>2026-03-29T09:24:38.401Z</time></trkpt><trkpt lat="45.3721417" lon="10.61418"><ele>113.66666666666666</ele><time>2026-03-29T09:24:39.401Z</time></trkpt><trkpt lat="45.3723433" lon="10.6142817"><ele>113.33333333333333</ele><time>2026-03-29T09:24:40.402Z</time></trkpt><trkpt lat="45.3725567" lon="10.6143417"><ele>113.0</ele><time>2026-03-29T09:24:41.401Z</time></trkpt><trkpt lat="45.3727717" lon="10.61438"><ele>113.0</ele><time>2026-03-29T09:24:42.401Z</time></trkpt><trkpt lat="45.3730083" lon="10.6143767"><ele>113.0</ele><time>2026-03-29T09:24:43.401Z</time></trkpt><trkpt lat="45.37324" lon="10.6143717"><ele>113.0</ele><time>2026-03-29T09:24:44.401Z</time></trkpt><trkpt lat="45.373455" lon="10.6144083"><ele>113.0</ele><time>2026-03-29T09:24:45.402Z</time></trkpt><trkpt lat="45.3736667" lon="10.6144917"><ele>113.0</ele><time>2026-03-29T09:24:46.401Z</time></trkpt><trkpt lat="45.373875" lon="10.6146233"><ele>113.5</ele><time>2026-03-29T09:24:47.401Z</time></trkpt><trkpt lat="45.3740783" lon="10.6147883"><ele>114.0</ele><time>2026-03-29T09:24:48.401Z</time></trkpt><trkpt lat="45.374285" lon="10.614975"><ele>114.0</ele><time>2026-03-29T09:24:49.401Z</time></trkpt><trkpt lat="45.3745017" lon="10.6151767"><ele>114.0</ele><time>2026-03-29T09:24:50.401Z</time></trkpt><trkpt lat="45.3747217" lon="10.6153783"><ele>114.5</ele><time>2026-03-29T09:24:51.401Z</time></trkpt><trkpt lat="45.37493" lon="10.61557"><ele>115.0</ele><time>2026-03-29T09:24:52.401Z</time></trkpt><trkpt lat="45.3751367" lon="10.6157417"><ele>115.0</ele><time>2026-03-29T09:24:53.401Z</time></trkpt><trkpt lat="45.3753233" lon="10.6159"><ele>115.0</ele><time>2026-03-29T09:24:54.401Z</time></trkpt><trkpt lat="45.37549" lon="10.6160433"><ele>115.0</ele><time>2026-03-29T09:24:55.402Z</time></trkpt><trkpt lat="45.3756433" lon="10.616175"><ele>115.5</ele><time>2026-03-29T09:24:56.402Z</time></trkpt><trkpt lat="45.3757583" lon="10.616275"><ele>116.0</ele><time>2026-03-29T09:24:57.401Z</time></trkpt><trkpt lat="45.3758567" lon="10.6163583"><ele>116.5</ele><time>2026-03-29T09:24:58.401Z</time></trkpt><trkpt lat="45.3759233" lon="10.61642"><ele>117.0</ele><time>2026-03-29T09:24:59.402Z</time></trkpt><trkpt lat="45.37605" lon="10.6164467"><ele>117.0</ele><time>2026-03-29T09:25:01.401Z</time></trkpt><trkpt lat="45.3761433" lon="10.6164267"><ele>117.0</ele><time>2026-03-29T09:25:02.401Z</time></trkpt><trkpt lat="45.3762633" lon="10.616375"><ele>117.0</ele><time>2026-03-29T09:25:03.401Z</time></trkpt><trkpt lat="45.3763967" lon="10.6163117"><ele>117.0</ele><time>2026-03-29T09:25:04.401Z</time></trkpt><trkpt lat="45.376545" lon="10.6162417"><ele>117.66666666666666</ele><time>2026-03-29T09:25:05.401Z</time></trkpt><trkpt lat="45.376695" lon="10.616185"><ele>118.33333333333333</ele><time>2026-03-29T09:25:06.401Z</time></trkpt><trkpt lat="45.3768517" lon="10.6161733"><ele>119.0</ele><time>2026-03-29T09:25:07.401Z</time></trkpt><trkpt lat="45.3770117" lon="10.6161967"><ele>119.0</ele><time>2026-03-29T09:25:08.401Z</time></trkpt><trkpt lat="45.3771817" lon="10.6162417"><ele>119.0</ele><time>2026-03-29T09:25:09.402Z</time></trkpt><trkpt lat="45.377355" lon="10.61631"><ele>119.0</ele><time>2026-03-29T09:25:10.401Z</time></trkpt><trkpt lat="45.3775433" lon="10.61639"><ele>119.0</ele><time>2026-03-29T09:25:11.401Z</time></trkpt><trkpt lat="45.377725" lon="10.6164783"><ele>119.0</ele><time>2026-03-29T09:25:12.402Z</time></trkpt><trkpt lat="45.3778833" lon="10.61654"><ele>119.0</ele><time>2026-03-29T09:25:13.401Z</time></trkpt><trkpt lat="45.3780317" lon="10.616545"><ele>118.25</ele><time>2026-03-29T09:25:14.401Z</time></trkpt><trkpt lat="45.378145" lon="10.616495"><ele>117.5</ele><time>2026-03-29T09:25:15.401Z</time></trkpt><trkpt lat="45.37826" lon="10.6163933"><ele>116.75</ele><time>2026-03-29T09:25:16.402Z</time></trkpt><trkpt lat="45.378375" lon="10.6162433"><ele>116.0</ele><time>2026-03-29T09:25:17.401Z</time></trkpt><trkpt lat="45.3784883" lon="10.616055"><ele>114.66666666666666</ele><time>2026-03-29T09:25:18.401Z</time></trkpt><trkpt lat="45.3786067" lon="10.6158567"><ele>113.33333333333334</ele><time>2026-03-29T09:25:19.401Z</time></trkpt><trkpt lat="45.3787233" lon="10.6156733"><ele>112.0</ele><time>2026-03-29T09:25:20.401Z</time></trkpt><trkpt lat="45.3788283" lon="10.61554"><ele>111.8</ele><time>2026-03-29T09:25:21.401Z</time></trkpt><trkpt lat="45.3789217" lon="10.6154567"><ele>111.6</ele><time>2026-03-29T09:25:22.401Z</time></trkpt><trkpt lat="45.37902" lon="10.6154417"><ele>111.39999999999999</ele><time>2026-03-29T09:25:23.401Z</time></trkpt><trkpt lat="45.3791217" lon="10.61548"><ele>111.19999999999999</ele><time>2026-03-29T09:25:24.401Z</time></trkpt><trkpt lat="45.3792233" lon="10.6155933"><ele>111.0</ele><time>2026-03-29T09:25:25.401Z</time></trkpt><trkpt lat="45.3793333" lon="10.61573"><ele>111.0</ele><time>2026-03-29T09:25:26.401Z</time></trkpt><trkpt lat="45.37944" lon="10.6158217"><ele>111.0</ele><time>2026-03-29T09:25:27.402Z</time></trkpt><trkpt lat="45.3795333" lon="10.6158467"><ele>111.0</ele><time>2026-03-29T09:25:28.401Z</time></trkpt><trkpt lat="45.3796183" lon="10.61582"><ele>111.0</ele><time>2026-03-29T09:25:29.401Z</time></trkpt><trkpt lat="45.3797167" lon="10.6157183"><ele>111.0</ele><time>2026-03-29T09:25:30.401Z</time></trkpt><trkpt lat="45.3798283" lon="10.6155983"><ele>109.8</ele><time>2026-03-29T09:25:31.401Z</time></trkpt><trkpt lat="45.3799167" lon="10.61551"><ele>108.6</ele><time>2026-03-29T09:25:32.401Z</time></trkpt><trkpt lat="45.3800117" lon="10.6154633"><ele>107.4</ele><time>2026-03-29T09:25:33.401Z</time></trkpt><trkpt lat="45.3801117" lon="10.6154633"><ele>106.2</ele><time>2026-03-29T09:25:34.401Z</time></trkpt><trkpt lat="45.3802167" lon="10.6154967"><ele>105.0</ele><time>2026-03-29T09:25:35.401Z</time></trkpt><trkpt lat="45.3803367" lon="10.615545"><ele>105.0</ele><time>2026-03-29T09:25:36.401Z</time></trkpt><trkpt lat="45.3804633" lon="10.6155883"><ele>105.0</ele><time>2026-03-29T09:25:37.402Z</time></trkpt><trkpt lat="45.3805817" lon="10.6156067"><ele>105.0</ele><time>2026-03-29T09:25:38.401Z</time></trkpt><trkpt lat="45.3807167" lon="10.6156017"><ele>105.0</ele><time>2026-03-29T09:25:39.401Z</time></trkpt><trkpt lat="45.3808433" lon="10.6155567"><ele>105.33333333333334</ele><time>2026-03-29T09:25:40.401Z</time></trkpt><trkpt lat="45.3809933" lon="10.615475"><ele>105.66666666666667</ele><time>2026-03-29T09:25:41.402Z</time></trkpt><trkpt lat="45.3811333" lon="10.6153817"><ele>106.0</ele><time>2026-03-29T09:25:42.401Z</time></trkpt><trkpt lat="45.381295" lon="10.6152733"><ele>105.0</ele><time>2026-03-29T09:25:43.402Z</time></trkpt><trkpt lat="45.381445" lon="10.61514"><ele>104.0</ele><time>2026-03-29T09:25:44.401Z</time></trkpt><trkpt lat="45.38156" lon="10.6150083"><ele>103.0</ele><time>2026-03-29T09:25:45.401Z</time></trkpt><trkpt lat="45.38165" lon="10.61487"><ele>103.0</ele><time>2026-03-29T09:25:46.401Z</time></trkpt><trkpt lat="45.3817217" lon="10.6147467"><ele>103.0</ele><time>2026-03-29T09:25:47.402Z</time></trkpt><trkpt lat="45.3817867" lon="10.6146883"><ele>103.0</ele><time>2026-03-29T09:25:48.401Z</time></trkpt><trkpt lat="45.3818517" lon="10.6146517"><ele>103.0</ele><time>2026-03-29T09:25:49.401Z</time></trkpt><trkpt lat="45.3819467" lon="10.6146717"><ele>103.0</ele><time>2026-03-29T09:25:51.401Z</time></trkpt><trkpt lat="45.3819883" lon="10.6148183"><ele>103.0</ele><time>2026-03-29T09:25:53.401Z</time></trkpt><trkpt lat="45.3819867" lon="10.6149367"><ele>103.0</ele><time>2026-03-29T09:25:54.401Z</time></trkpt><trkpt lat="45.38198" lon="10.6150833"><ele>103.0</ele><time>2026-03-29T09:25:55.401Z</time></trkpt><trkpt lat="45.3819717" lon="10.6152733"><ele>103.0</ele><time>2026-03-29T09:25:56.401Z</time></trkpt><trkpt lat="45.38197" lon="10.6154867"><ele>103.0</ele><time>2026-03-29T09:25:57.401Z</time></trkpt><trkpt lat="45.3819617" lon="10.6157183"><ele>103.0</ele><time>2026-03-29T09:25:58.402Z</time></trkpt><trkpt lat="45.381955" lon="10.615965"><ele>103.0</ele><time>2026-03-29T09:25:59.401Z</time></trkpt><trkpt lat="45.3819433" lon="10.616225"><ele>103.0</ele><time>2026-03-29T09:26:00.401Z</time></trkpt><trkpt lat="45.3819283" lon="10.6165"><ele>103.0</ele><time>2026-03-29T09:26:01.401Z</time></trkpt><trkpt lat="45.381915" lon="10.61679"><ele>103.0</ele><time>2026-03-29T09:26:02.401Z</time></trkpt><trkpt lat="45.3819133" lon="10.6170917"><ele>102.0</ele><time>2026-03-29T09:26:03.401Z</time></trkpt><trkpt lat="45.3819083" lon="10.617355"><ele>101.0</ele><time>2026-03-29T09:26:04.401Z</time></trkpt><trkpt lat="45.381915" lon="10.61759"><ele>100.0</ele><time>2026-03-29T09:26:05.401Z</time></trkpt><trkpt lat="45.38192" lon="10.61781"><ele>100.5</ele><time>2026-03-29T09:26:06.401Z</time></trkpt><trkpt lat="45.381945" lon="10.6180167"><ele>101.0</ele><time>2026-03-29T09:26:07.401Z</time></trkpt><trkpt lat="45.3819733" lon="10.618215"><ele>101.5</ele><time>2026-03-29T09:26:08.401Z</time></trkpt><trkpt lat="45.3819883" lon="10.6184117"><ele>102.0</ele><time>2026-03-29T09:26:09.401Z</time></trkpt><trkpt lat="45.3820283" lon="10.618605"><ele>102.75</ele><time>2026-03-29T09:26:10.401Z</time></trkpt><trkpt lat="45.3820567" lon="10.618795"><ele>103.5</ele><time>2026-03-29T09:26:11.401Z</time></trkpt><trkpt lat="45.38208" lon="10.6189867"><ele>104.25</ele><time>2026-03-29T09:26:12.402Z</time></trkpt><trkpt lat="45.3820917" lon="10.619165"><ele>105.0</ele><time>2026-03-29T09:26:13.401Z</time></trkpt><trkpt lat="45.3821117" lon="10.6193283"><ele>105.0</ele><time>2026-03-29T09:26:14.401Z</time></trkpt><trkpt lat="45.3820983" lon="10.6194767"><ele>105.0</ele><time>2026-03-29T09:26:15.401Z</time></trkpt><trkpt lat="45.3820733" lon="10.6196517"><ele>105.0</ele><time>2026-03-29T09:26:16.401Z</time></trkpt><trkpt lat="45.3820183" lon="10.619845"><ele>105.0</ele><time>2026-03-29T09:26:17.401Z</time></trkpt><trkpt lat="45.381955" lon="10.62003"><ele>104.75</ele><time>2026-03-29T09:26:18.401Z</time></trkpt><trkpt lat="45.3818817" lon="10.620245"><ele>104.5</ele><time>2026-03-29T09:26:19.401Z</time></trkpt><trkpt lat="45.3818183" lon="10.62043"><ele>104.25</ele><time>2026-03-29T09:26:20.401Z</time></trkpt><trkpt lat="45.3817817" lon="10.620605"><ele>104.0</ele><time>2026-03-29T09:26:21.401Z</time></trkpt><trkpt lat="45.381755" lon="10.6207717"><ele>103.0</ele><time>2026-03-29T09:26:22.401Z</time></trkpt><trkpt lat="45.38174" lon="10.6209667"><ele>102.0</ele><time>2026-03-29T09:26:23.401Z</time></trkpt><trkpt lat="45.3817417" lon="10.6211817"><ele>101.0</ele><time>2026-03-29T09:26:24.401Z</time></trkpt><trkpt lat="45.3817467" lon="10.621415"><ele>100.66666666666666</ele><time>2026-03-29T09:26:25.401Z</time></trkpt><trkpt lat="45.3817517" lon="10.62165"><ele>100.33333333333334</ele><time>2026-03-29T09:26:26.401Z</time></trkpt><trkpt lat="45.3817483" lon="10.621895"><ele>100.0</ele><time>2026-03-29T09:26:27.401Z</time></trkpt><trkpt lat="45.3817417" lon="10.6221633"><ele>100.0</ele><time>2026-03-29T09:26:28.401Z</time></trkpt><trkpt lat="45.3817333" lon="10.6223983"><ele>100.0</ele><time>2026-03-29T09:26:29.402Z</time></trkpt><trkpt lat="45.3817117" lon="10.6226283"><ele>100.0</ele><time>2026-03-29T09:26:30.401Z</time></trkpt><trkpt lat="45.3816817" lon="10.6228333"><ele>100.00000000000001</ele><time>2026-03-29T09:26:31.402Z</time></trkpt><trkpt lat="45.381665" lon="10.62301"><ele>100.0</ele><time>2026-03-29T09:26:32.401Z</time></trkpt><trkpt lat="45.381665" lon="10.6231317"><ele>100.0</ele><time>2026-03-29T09:26:33.401Z</time></trkpt><trkpt lat="45.3816717" lon="10.623255"><ele>100.0</ele><time>2026-03-29T09:26:34.401Z</time></trkpt><trkpt lat="45.38168" lon="10.62336"><ele>100.00000000000001</ele><time>2026-03-29T09:26:35.401Z</time></trkpt><trkpt lat="45.381695" lon="10.623465"><ele>100.0</ele><time>2026-03-29T09:26:36.401Z</time></trkpt><trkpt lat="45.3816933" lon="10.6236067"><ele>100.33333333333334</ele><time>2026-03-29T09:26:37.401Z</time></trkpt><trkpt lat="45.3816817" lon="10.6237867"><ele>100.66666666666666</ele><time>2026-03-29T09:26:38.401Z</time></trkpt><trkpt lat="45.38167" lon="10.624005"><ele>101.0</ele><time>2026-03-29T09:26:39.401Z</time></trkpt><trkpt lat="45.3816367" lon="10.6242483"><ele>100.33333333333333</ele><time>2026-03-29T09:26:40.401Z</time></trkpt><trkpt lat="45.3816217" lon="10.6245133"><ele>99.66666666666666</ele><time>2026-03-29T09:26:41.401Z</time></trkpt><trkpt lat="45.38162" lon="10.624795"><ele>99.0</ele><time>2026-03-29T09:26:42.401Z</time></trkpt><trkpt lat="45.3816017" lon="10.625075"><ele>99.33333333333334</ele><time>2026-03-29T09:26:43.402Z</time></trkpt><trkpt lat="45.3815617" lon="10.6253617"><ele>99.66666666666667</ele><time>2026-03-29T09:26:44.402Z</time></trkpt><trkpt lat="45.3815267" lon="10.62564"><ele>100.0</ele><time>2026-03-29T09:26:45.401Z</time></trkpt><trkpt lat="45.381495" lon="10.625895"><ele>100.33333333333334</ele><time>2026-03-29T09:26:46.401Z</time></trkpt><trkpt lat="45.3814617" lon="10.6261633"><ele>100.66666666666666</ele><time>2026-03-29T09:26:47.401Z</time></trkpt><trkpt lat="45.38142" lon="10.6264183"><ele>101.0</ele><time>2026-03-29T09:26:48.401Z</time></trkpt><trkpt lat="45.381375" lon="10.626675"><ele>103.0</ele><time>2026-03-29T09:26:49.401Z</time></trkpt><trkpt lat="45.3813417" lon="10.6269267"><ele>105.0</ele><time>2026-03-29T09:26:50.401Z</time></trkpt><trkpt lat="45.3813183" lon="10.6271483"><ele>107.0</ele><time>2026-03-29T09:26:51.402Z</time></trkpt><trkpt lat="45.3812983" lon="10.62736"><ele>107.0</ele><time>2026-03-29T09:26:52.401Z</time></trkpt><trkpt lat="45.3812783" lon="10.6275433"><ele>106.99999999999999</ele><time>2026-03-29T09:26:53.401Z</time></trkpt><trkpt lat="45.3812633" lon="10.6276817"><ele>106.99999999999999</ele><time>2026-03-29T09:26:54.401Z</time></trkpt><trkpt lat="45.381255" lon="10.627795"><ele>107.0</ele><time>2026-03-29T09:26:55.401Z</time></trkpt><trkpt lat="45.3812217" lon="10.62788"><ele>107.0</ele><time>2026-03-29T09:26:56.401Z</time></trkpt><trkpt lat="45.3811333" lon="10.627945"><ele>105.25</ele><time>2026-03-29T09:26:58.401Z</time></trkpt><trkpt lat="45.38104" lon="10.6279583"><ele>103.5</ele><time>2026-03-29T09:26:59.401Z</time></trkpt><trkpt lat="45.3809233" lon="10.6279833"><ele>101.75</ele><time>2026-03-29T09:27:00.401Z</time></trkpt><trkpt lat="45.38078" lon="10.6280167"><ele>100.0</ele><time>2026-03-29T09:27:01.401Z</time></trkpt><trkpt lat="45.380635" lon="10.6280683"><ele>102.0</ele><time>2026-03-29T09:27:02.401Z</time></trkpt><trkpt lat="45.3804917" lon="10.6281267"><ele>104.0</ele><time>2026-03-29T09:27:03.401Z</time></trkpt><trkpt lat="45.3803533" lon="10.6282283"><ele>106.0</ele><time>2026-03-29T09:27:04.401Z</time></trkpt><trkpt lat="45.38023" lon="10.628315"><ele>108.0</ele><time>2026-03-29T09:27:05.401Z</time></trkpt><trkpt lat="45.380125" lon="10.628405"><ele>108.0</ele><time>2026-03-29T09:27:06.401Z</time></trkpt><trkpt lat="45.3800367" lon="10.6284833"><ele>108.00000000000001</ele><time>2026-03-29T09:27:07.401Z</time></trkpt><trkpt lat="45.3799467" lon="10.628525"><ele>108.00000000000001</ele><time>2026-03-29T09:27:08.401Z</time></trkpt><trkpt lat="45.3798483" lon="10.6285317"><ele>108.0</ele><time>2026-03-29T09:27:09.402Z</time></trkpt><trkpt lat="45.3797533" lon="10.62851"><ele>108.0</ele><time>2026-03-29T09:27:10.401Z</time></trkpt><trkpt lat="45.3796817" lon="10.6284767"><ele>108.0</ele><time>2026-03-29T09:27:11.401Z</time></trkpt><trkpt lat="45.3797367" lon="10.628595"><ele>108.0</ele><time>2026-03-29T09:27:19.401Z</time></trkpt><trkpt lat="45.3797867" lon="10.6286517"><ele>108.0</ele><time>2026-03-29T09:27:20.401Z</time></trkpt><trkpt lat="45.3798517" lon="10.6287417"><ele>108.0</ele><time>2026-03-29T09:27:21.401Z</time></trkpt><trkpt lat="45.3799133" lon="10.6288483"><ele>108.0</ele><time>2026-03-29T09:27:22.402Z</time></trkpt><trkpt lat="45.37997" lon="10.62895"><ele>108.0</ele><time>2026-03-29T09:27:23.401Z</time></trkpt><trkpt lat="45.3800133" lon="10.6290517"><ele>106.2</ele><time>2026-03-29T09:27:24.402Z</time></trkpt><trkpt lat="45.3800367" lon="10.6291467"><ele>104.4</ele><time>2026-03-29T09:27:25.401Z</time></trkpt><trkpt lat="45.3800733" lon="10.6292717"><ele>102.60000000000001</ele><time>2026-03-29T09:27:27.401Z</time></trkpt><trkpt lat="45.38017" lon="10.6292217"><ele>100.80000000000001</ele><time>2026-03-29T09:27:30.401Z</time></trkpt><trkpt lat="45.3802783" lon="10.62921"><ele>99.0</ele><time>2026-03-29T09:27:32.401Z</time></trkpt><trkpt lat="45.380355" lon="10.629275"><ele>99.0</ele><time>2026-03-29T09:27:33.401Z</time></trkpt><trkpt lat="45.3804433" lon="10.629375"><ele>99.0</ele><time>2026-03-29T09:27:34.401Z</time></trkpt><trkpt lat="45.38055" lon="10.6295067"><ele>99.0</ele><time>2026-03-29T09:27:35.401Z</time></trkpt><trkpt lat="45.3806733" lon="10.6296517"><ele>99.0</ele><time>2026-03-29T09:27:36.401Z</time></trkpt><trkpt lat="45.3807817" lon="10.6297783"><ele>98.6</ele><time>2026-03-29T09:27:37.401Z</time></trkpt><trkpt lat="45.3808683" lon="10.6298867"><ele>98.2</ele><time>2026-03-29T09:27:38.401Z</time></trkpt><trkpt lat="45.3809417" lon="10.62998"><ele>97.8</ele><time>2026-03-29T09:27:39.401Z</time></trkpt><trkpt lat="45.381015" lon="10.63006"><ele>97.39999999999999</ele><time>2026-03-29T09:27:40.401Z</time></trkpt><trkpt lat="45.3810817" lon="10.6301083"><ele>97.0</ele><time>2026-03-29T09:27:41.401Z</time></trkpt><trkpt lat="45.3811583" lon="10.6301333"><ele>97.0</ele><time>2026-03-29T09:27:43.401Z</time></trkpt><trkpt lat="45.3812483" lon="10.6300967"><ele>97.0</ele><time>2026-03-29T09:27:45.401Z</time></trkpt><trkpt lat="45.3813117" lon="10.630075"><ele>97.0</ele><time>2026-03-29T09:27:46.401Z</time></trkpt><trkpt lat="45.3813867" lon="10.6300583"><ele>97.0</ele><time>2026-03-29T09:27:47.401Z</time></trkpt><trkpt lat="45.3814633" lon="10.630045"><ele>97.0</ele><time>2026-03-29T09:27:48.401Z</time></trkpt><trkpt lat="45.3815367" lon="10.6300433"><ele>97.0</ele><time>2026-03-29T09:27:49.401Z</time></trkpt><trkpt lat="45.3815983" lon="10.6300633"><ele>97.0</ele><time>2026-03-29T09:27:50.402Z</time></trkpt><trkpt lat="45.3816617" lon="10.63008"><ele>97.75</ele><time>2026-03-29T09:27:51.401Z</time></trkpt><trkpt lat="45.3817767" lon="10.630135"><ele>98.5</ele><time>2026-03-29T09:27:53.401Z</time></trkpt><trkpt lat="45.3818567" lon="10.63021"><ele>99.25</ele><time>2026-03-29T09:27:54.402Z</time></trkpt><trkpt lat="45.38195" lon="10.630305"><ele>100.0</ele><time>2026-03-29T09:27:55.401Z</time></trkpt><trkpt lat="45.3820733" lon="10.630405"><ele>101.5</ele><time>2026-03-29T09:27:56.401Z</time></trkpt><trkpt lat="45.3821983" lon="10.6305267"><ele>103.0</ele><time>2026-03-29T09:27:57.402Z</time></trkpt><trkpt lat="45.3823167" lon="10.6306317"><ele>104.5</ele><time>2026-03-29T09:27:58.401Z</time></trkpt><trkpt lat="45.3824017" lon="10.630725"><ele>106.0</ele><time>2026-03-29T09:27:59.402Z</time></trkpt><trkpt lat="45.382475" lon="10.63079"><ele>106.00000000000001</ele><time>2026-03-29T09:28:00.401Z</time></trkpt><trkpt lat="45.3825417" lon="10.6308717"><ele>106.0</ele><time>2026-03-29T09:28:01.401Z</time></trkpt><trkpt lat="45.38258" lon="10.630965"><ele>106.0</ele><time>2026-03-29T09:28:02.401Z</time></trkpt><trkpt lat="45.382575" lon="10.6310583"><ele>106.0</ele><time>2026-03-29T09:28:03.402Z</time></trkpt><trkpt lat="45.38255" lon="10.6311533"><ele>106.00000000000001</ele><time>2026-03-29T09:28:04.401Z</time></trkpt><trkpt lat="45.38251" lon="10.6312833"><ele>106.0</ele><time>2026-03-29T09:28:05.401Z</time></trkpt><trkpt lat="45.382455" lon="10.63146"><ele>105.5</ele><time>2026-03-29T09:28:06.402Z</time></trkpt><trkpt lat="45.3823817" lon="10.6316583"><ele>105.0</ele><time>2026-03-29T09:28:07.401Z</time></trkpt><trkpt lat="45.3823083" lon="10.631845"><ele>104.5</ele><time>2026-03-29T09:28:08.401Z</time></trkpt><trkpt lat="45.3822383" lon="10.632005"><ele>104.0</ele><time>2026-03-29T09:28:09.401Z</time></trkpt><trkpt lat="45.3821683" lon="10.63214"><ele>102.75</ele><time>2026-03-29T09:28:10.402Z</time></trkpt><trkpt lat="45.3821" lon="10.6322817"><ele>101.5</ele><time>2026-03-29T09:28:11.401Z</time></trkpt><trkpt lat="45.3820333" lon="10.6324483"><ele>100.25</ele><time>2026-03-29T09:28:12.401Z</time></trkpt><trkpt lat="45.3819667" lon="10.632635"><ele>99.0</ele><time>2026-03-29T09:28:13.401Z</time></trkpt><trkpt lat="45.3818983" lon="10.6328367"><ele>99.0</ele><time>2026-03-29T09:28:14.401Z</time></trkpt><trkpt lat="45.3818317" lon="10.63303"><ele>99.0</ele><time>2026-03-29T09:28:15.401Z</time></trkpt><trkpt lat="45.3817633" lon="10.6332283"><ele>99.0</ele><time>2026-03-29T09:28:16.401Z</time></trkpt><trkpt lat="45.381705" lon="10.63342"><ele>99.0</ele><time>2026-03-29T09:28:17.402Z</time></trkpt><trkpt lat="45.3816483" lon="10.6336033"><ele>99.0</ele><time>2026-03-29T09:28:18.401Z</time></trkpt><trkpt lat="45.381585" lon="10.6338"><ele>99.0</ele><time>2026-03-29T09:28:19.402Z</time></trkpt><trkpt lat="45.3815283" lon="10.6339933"><ele>99.0</ele><time>2026-03-29T09:28:20.402Z</time></trkpt><trkpt lat="45.3814783" lon="10.6341783"><ele>99.25</ele><time>2026-03-29T09:28:21.401Z</time></trkpt><trkpt lat="45.3814133" lon="10.6343333"><ele>99.5</ele><time>2026-03-29T09:28:22.401Z</time></trkpt><trkpt lat="45.3813417" lon="10.63447"><ele>99.75</ele><time>2026-03-29T09:28:23.401Z</time></trkpt><trkpt lat="45.3812683" lon="10.6345933"><ele>100.0</ele><time>2026-03-29T09:28:24.401Z</time></trkpt><trkpt lat="45.3811617" lon="10.6347183"><ele>100.0</ele><time>2026-03-29T09:28:25.401Z</time></trkpt><trkpt lat="45.38106" lon="10.634845"><ele>100.0</ele><time>2026-03-29T09:28:26.401Z</time></trkpt><trkpt lat="45.38096" lon="10.63498"><ele>100.0</ele><time>2026-03-29T09:28:27.401Z</time></trkpt><trkpt lat="45.3808567" lon="10.635135"><ele>100.0</ele><time>2026-03-29T09:28:28.401Z</time></trkpt><trkpt lat="45.3807583" lon="10.6352717"><ele>101.25</ele><time>2026-03-29T09:28:29.401Z</time></trkpt><trkpt lat="45.38067" lon="10.6354383"><ele>102.5</ele><time>2026-03-29T09:28:30.401Z</time></trkpt><trkpt lat="45.3805833" lon="10.6356267"><ele>103.75</ele><time>2026-03-29T09:28:31.401Z</time></trkpt><trkpt lat="45.38052" lon="10.6358033"><ele>105.0</ele><time>2026-03-29T09:28:32.401Z</time></trkpt><trkpt lat="45.380465" lon="10.6359833"><ele>104.5</ele><time>2026-03-29T09:28:33.401Z</time></trkpt><trkpt lat="45.3804317" lon="10.63616"><ele>104.0</ele><time>2026-03-29T09:28:34.402Z</time></trkpt><trkpt lat="45.380425" lon="10.63632"><ele>103.5</ele><time>2026-03-29T09:28:35.402Z</time></trkpt><trkpt lat="45.380435" lon="10.6364767"><ele>103.0</ele><time>2026-03-29T09:28:36.401Z</time></trkpt><trkpt lat="45.3804583" lon="10.6366367"><ele>103.0</ele><time>2026-03-29T09:28:37.401Z</time></trkpt><trkpt lat="45.3804833" lon="10.6368033"><ele>103.0</ele><time>2026-03-29T09:28:38.401Z</time></trkpt><trkpt lat="45.3805217" lon="10.6369683"><ele>103.0</ele><time>2026-03-29T09:28:39.401Z</time></trkpt><trkpt lat="45.380575" lon="10.6371317"><ele>103.0</ele><time>2026-03-29T09:28:40.401Z</time></trkpt><trkpt lat="45.3806233" lon="10.6372933"><ele>103.00000000000001</ele><time>2026-03-29T09:28:41.401Z</time></trkpt><trkpt lat="45.3806617" lon="10.6374317"><ele>103.0</ele><time>2026-03-29T09:28:42.401Z</time></trkpt><trkpt lat="45.3806867" lon="10.6375467"><ele>103.0</ele><time>2026-03-29T09:28:43.401Z</time></trkpt><trkpt lat="45.380705" lon="10.6376633"><ele>103.0</ele><time>2026-03-29T09:28:45.401Z</time></trkpt><trkpt lat="45.3807767" lon="10.6377067"><ele>103.00000000000001</ele><time>2026-03-29T09:28:47.402Z</time></trkpt><trkpt lat="45.3808567" lon="10.6377483"><ele>103.0</ele><time>2026-03-29T09:28:48.402Z</time></trkpt><trkpt lat="45.3809533" lon="10.6378133"><ele>101.66666666666667</ele><time>2026-03-29T09:28:49.401Z</time></trkpt><trkpt lat="45.3810633" lon="10.63792"><ele>100.33333333333334</ele><time>2026-03-29T09:28:50.401Z</time></trkpt><trkpt lat="45.3811933" lon="10.6380517"><ele>99.0</ele><time>2026-03-29T09:28:51.401Z</time></trkpt><trkpt lat="45.38132" lon="10.6382067"><ele>100.0</ele><time>2026-03-29T09:28:52.4Z</time></trkpt><trkpt lat="45.3814633" lon="10.6383683"><ele>101.0</ele><time>2026-03-29T09:28:53.4Z</time></trkpt><trkpt lat="45.38159" lon="10.63854"><ele>102.0</ele><time>2026-03-29T09:28:54.4Z</time></trkpt><trkpt lat="45.3817233" lon="10.6387367"><ele>102.0</ele><time>2026-03-29T09:28:55.4Z</time></trkpt><trkpt lat="45.3818433" lon="10.6389533"><ele>102.0</ele><time>2026-03-29T09:28:56.4Z</time></trkpt><trkpt lat="45.381965" lon="10.6391933"><ele>102.0</ele><time>2026-03-29T09:28:57.4Z</time></trkpt><trkpt lat="45.3821033" lon="10.63944"><ele>103.5</ele><time>2026-03-29T09:28:58.4Z</time></trkpt><trkpt lat="45.3822683" lon="10.639675"><ele>105.0</ele><time>2026-03-29T09:28:59.401Z</time></trkpt><trkpt lat="45.3824467" lon="10.6398933"><ele>105.0</ele><time>2026-03-29T09:29:00.4Z</time></trkpt><trkpt lat="45.3826483" lon="10.64008"><ele>105.0</ele><time>2026-03-29T09:29:01.4Z</time></trkpt><trkpt lat="45.3828483" lon="10.6402483"><ele>106.0</ele><time>2026-03-29T09:29:02.4Z</time></trkpt><trkpt lat="45.38306" lon="10.6404117"><ele>107.0</ele><time>2026-03-29T09:29:03.401Z</time></trkpt><trkpt lat="45.3832733" lon="10.6405633"><ele>107.0</ele><time>2026-03-29T09:29:04.4Z</time></trkpt><trkpt lat="45.3834917" lon="10.64073"><ele>107.0</ele><time>2026-03-29T09:29:05.401Z</time></trkpt><trkpt lat="45.38371" lon="10.6408967"><ele>106.0</ele><time>2026-03-29T09:29:06.4Z</time></trkpt><trkpt lat="45.3839317" lon="10.6410517"><ele>105.0</ele><time>2026-03-29T09:29:07.4Z</time></trkpt><trkpt lat="45.3841683" lon="10.6411733"><ele>105.0</ele><time>2026-03-29T09:29:08.401Z</time></trkpt><trkpt lat="45.3844" lon="10.6412883"><ele>105.0</ele><time>2026-03-29T09:29:09.401Z</time></trkpt><trkpt lat="45.3846383" lon="10.64142"><ele>106.5</ele><time>2026-03-29T09:29:10.4Z</time></trkpt><trkpt lat="45.3848767" lon="10.641555"><ele>108.0</ele><time>2026-03-29T09:29:11.4Z</time></trkpt><trkpt lat="45.38511" lon="10.6416717"><ele>108.0</ele><time>2026-03-29T09:29:12.4Z</time></trkpt><trkpt lat="45.3853467" lon="10.6418"><ele>108.0</ele><time>2026-03-29T09:29:13.401Z</time></trkpt><trkpt lat="45.3855783" lon="10.6419317"><ele>106.5</ele><time>2026-03-29T09:29:14.4Z</time></trkpt><trkpt lat="45.3858217" lon="10.6420583"><ele>105.0</ele><time>2026-03-29T09:29:15.401Z</time></trkpt><trkpt lat="45.386065" lon="10.6421833"><ele>105.0</ele><time>2026-03-29T09:29:16.4Z</time></trkpt><trkpt lat="45.3863083" lon="10.642305"><ele>105.0</ele><time>2026-03-29T09:29:17.4Z</time></trkpt><trkpt lat="45.38657" lon="10.6424283"><ele>105.5</ele><time>2026-03-29T09:29:18.4Z</time></trkpt><trkpt lat="45.3868133" lon="10.6425583"><ele>106.0</ele><time>2026-03-29T09:29:19.4Z</time></trkpt><trkpt lat="45.387055" lon="10.64269"><ele>104.5</ele><time>2026-03-29T09:29:20.4Z</time></trkpt><trkpt lat="45.3872967" lon="10.6428217"><ele>103.0</ele><time>2026-03-29T09:29:21.401Z</time></trkpt><trkpt lat="45.38754" lon="10.64295"><ele>103.0</ele><time>2026-03-29T09:29:22.401Z</time></trkpt><trkpt lat="45.3877767" lon="10.64307"><ele>103.0</ele><time>2026-03-29T09:29:23.4Z</time></trkpt><trkpt lat="45.3880017" lon="10.6431883"><ele>104.5</ele><time>2026-03-29T09:29:24.4Z</time></trkpt><trkpt lat="45.388235" lon="10.6433017"><ele>106.0</ele><time>2026-03-29T09:29:25.4Z</time></trkpt><trkpt lat="45.3884717" lon="10.6434083"><ele>106.0</ele><time>2026-03-29T09:29:26.4Z</time></trkpt><trkpt lat="45.3887083" lon="10.6435017"><ele>106.0</ele><time>2026-03-29T09:29:27.401Z</time></trkpt><trkpt lat="45.3889367" lon="10.6435883"><ele>105.0</ele><time>2026-03-29T09:29:28.401Z</time></trkpt><trkpt lat="45.3891667" lon="10.643685"><ele>104.0</ele><time>2026-03-29T09:29:29.4Z</time></trkpt><trkpt lat="45.38938" lon="10.6437717"><ele>104.0</ele><time>2026-03-29T09:29:30.4Z</time></trkpt><trkpt lat="45.3895733" lon="10.643845"><ele>104.0</ele><time>2026-03-29T09:29:31.4Z</time></trkpt><trkpt lat="45.3897517" lon="10.6438917"><ele>104.0</ele><time>2026-03-29T09:29:32.4Z</time></trkpt><trkpt lat="45.389915" lon="10.6439233"><ele>104.0</ele><time>2026-03-29T09:29:33.4Z</time></trkpt><trkpt lat="45.3900517" lon="10.643945"><ele>104.0</ele><time>2026-03-29T09:29:34.4Z</time></trkpt><trkpt lat="45.3901683" lon="10.6438867"><ele>104.0</ele><time>2026-03-29T09:29:35.4Z</time></trkpt><trkpt lat="45.390265" lon="10.6437767"><ele>104.0</ele><time>2026-03-29T09:29:36.401Z</time></trkpt><trkpt lat="45.3903533" lon="10.6436283"><ele>105.66666666666666</ele><time>2026-03-29T09:29:37.4Z</time></trkpt><trkpt lat="45.3904333" lon="10.643445"><ele>107.33333333333334</ele><time>2026-03-29T09:29:38.401Z</time></trkpt><trkpt lat="45.39052" lon="10.6432417"><ele>109.0</ele><time>2026-03-29T09:29:39.4Z</time></trkpt><trkpt lat="45.3906117" lon="10.6430317"><ele>111.33333333333334</ele><time>2026-03-29T09:29:40.4Z</time></trkpt><trkpt lat="45.3906967" lon="10.642815"><ele>113.66666666666666</ele><time>2026-03-29T09:29:41.4Z</time></trkpt><trkpt lat="45.3907783" lon="10.6426117"><ele>116.0</ele><time>2026-03-29T09:29:42.4Z</time></trkpt><trkpt lat="45.3908533" lon="10.6424533"><ele>116.0</ele><time>2026-03-29T09:29:43.401Z</time></trkpt><trkpt lat="45.3909383" lon="10.642325"><ele>116.0</ele><time>2026-03-29T09:29:44.4Z</time></trkpt><trkpt lat="45.3910283" lon="10.6422267"><ele>116.0</ele><time>2026-03-29T09:29:45.401Z</time></trkpt><trkpt lat="45.391155" lon="10.64217"><ele>116.0</ele><time>2026-03-29T09:29:46.4Z</time></trkpt><trkpt lat="45.391315" lon="10.64216"><ele>115.66666666666666</ele><time>2026-03-29T09:29:47.4Z</time></trkpt><trkpt lat="45.3914833" lon="10.6421683"><ele>115.33333333333334</ele><time>2026-03-29T09:29:48.4Z</time></trkpt><trkpt lat="45.3916517" lon="10.6421717"><ele>115.0</ele><time>2026-03-29T09:29:49.401Z</time></trkpt><trkpt lat="45.3918217" lon="10.6421183"><ele>115.0</ele><time>2026-03-29T09:29:50.4Z</time></trkpt><trkpt lat="45.3919967" lon="10.6420233"><ele>115.0</ele><time>2026-03-29T09:29:51.4Z</time></trkpt><trkpt lat="45.3921617" lon="10.6419"><ele>115.0</ele><time>2026-03-29T09:29:52.4Z</time></trkpt><trkpt lat="45.3923467" lon="10.641775"><ele>111.66666666666667</ele><time>2026-03-29T09:29:53.4Z</time></trkpt><trkpt lat="45.3925283" lon="10.6416433"><ele>108.33333333333334</ele><time>2026-03-29T09:29:54.4Z</time></trkpt><trkpt lat="45.3927083" lon="10.6415367"><ele>105.0</ele><time>2026-03-29T09:29:55.401Z</time></trkpt><trkpt lat="45.3928717" lon="10.6414667"><ele>104.33333333333334</ele><time>2026-03-29T09:29:56.4Z</time></trkpt><trkpt lat="45.3930283" lon="10.64144"><ele>103.66666666666667</ele><time>2026-03-29T09:29:57.4Z</time></trkpt><trkpt lat="45.3931967" lon="10.6414633"><ele>103.0</ele><time>2026-03-29T09:29:58.4Z</time></trkpt><trkpt lat="45.3933717" lon="10.641545"><ele>103.0</ele><time>2026-03-29T09:29:59.4Z</time></trkpt><trkpt lat="45.3935533" lon="10.6416467"><ele>103.0</ele><time>2026-03-29T09:30:00.4Z</time></trkpt><trkpt lat="45.3937267" lon="10.641755"><ele>103.0</ele><time>2026-03-29T09:30:01.4Z</time></trkpt><trkpt lat="45.393905" lon="10.6418717"><ele>104.66666666666667</ele><time>2026-03-29T09:30:02.4Z</time></trkpt><trkpt lat="45.3940933" lon="10.6420067"><ele>106.33333333333334</ele><time>2026-03-29T09:30:03.4Z</time></trkpt><trkpt lat="45.3942783" lon="10.6421183"><ele>108.0</ele><time>2026-03-29T09:30:04.401Z</time></trkpt><trkpt lat="45.3944617" lon="10.64222"><ele>108.0</ele><time>2026-03-29T09:30:05.4Z</time></trkpt><trkpt lat="45.394635" lon="10.6423183"><ele>108.0</ele><time>2026-03-29T09:30:06.4Z</time></trkpt><trkpt lat="45.3947933" lon="10.6424217"><ele>108.0</ele><time>2026-03-29T09:30:07.4Z</time></trkpt><trkpt lat="45.3949583" lon="10.6425183"><ele>104.33333333333334</ele><time>2026-03-29T09:30:08.401Z</time></trkpt><trkpt lat="45.3951283" lon="10.6425933"><ele>100.66666666666667</ele><time>2026-03-29T09:30:09.4Z</time></trkpt><trkpt lat="45.3953017" lon="10.6426783"><ele>97.0</ele><time>2026-03-29T09:30:10.4Z</time></trkpt><trkpt lat="45.395475" lon="10.64276"><ele>97.66666666666667</ele><time>2026-03-29T09:30:11.401Z</time></trkpt><trkpt lat="45.3956617" lon="10.6428467"><ele>98.33333333333334</ele><time>2026-03-29T09:30:12.401Z</time></trkpt><trkpt lat="45.3958483" lon="10.6429217"><ele>99.0</ele><time>2026-03-29T09:30:13.401Z</time></trkpt><trkpt lat="45.3960267" lon="10.6430083"><ele>99.0</ele><time>2026-03-29T09:30:14.401Z</time></trkpt><trkpt lat="45.3962017" lon="10.6430967"><ele>99.0</ele><time>2026-03-29T09:30:15.4Z</time></trkpt><trkpt lat="45.3963817" lon="10.64318"><ele>99.0</ele><time>2026-03-29T09:30:16.4Z</time></trkpt><trkpt lat="45.39655" lon="10.64326"><ele>97.0</ele><time>2026-03-29T09:30:17.401Z</time></trkpt><trkpt lat="45.3967183" lon="10.6433433"><ele>95.0</ele><time>2026-03-29T09:30:18.4Z</time></trkpt><trkpt lat="45.3968667" lon="10.6434117"><ele>93.0</ele><time>2026-03-29T09:30:19.401Z</time></trkpt><trkpt lat="45.3970067" lon="10.64347"><ele>93.0</ele><time>2026-03-29T09:30:20.4Z</time></trkpt><trkpt lat="45.39713" lon="10.64352"><ele>93.0</ele><time>2026-03-29T09:30:21.4Z</time></trkpt><trkpt lat="45.3972533" lon="10.64356"><ele>93.0</ele><time>2026-03-29T09:30:22.401Z</time></trkpt><trkpt lat="45.39738" lon="10.6435633"><ele>93.0</ele><time>2026-03-29T09:30:23.4Z</time></trkpt><trkpt lat="45.3975167" lon="10.6435267"><ele>92.5</ele><time>2026-03-29T09:30:24.401Z</time></trkpt><trkpt lat="45.3976533" lon="10.64345"><ele>92.0</ele><time>2026-03-29T09:30:25.4Z</time></trkpt><trkpt lat="45.3977783" lon="10.6433283"><ele>91.5</ele><time>2026-03-29T09:30:26.4Z</time></trkpt><trkpt lat="45.39787" lon="10.6431917"><ele>91.0</ele><time>2026-03-29T09:30:27.4Z</time></trkpt><trkpt lat="45.397975" lon="10.6430217"><ele>90.0</ele><time>2026-03-29T09:30:28.4Z</time></trkpt><trkpt lat="45.39809" lon="10.6428667"><ele>89.0</ele><time>2026-03-29T09:30:29.4Z</time></trkpt><trkpt lat="45.3982033" lon="10.64271"><ele>88.0</ele><time>2026-03-29T09:30:30.4Z</time></trkpt><trkpt lat="45.3983167" lon="10.6425533"><ele>88.0</ele><time>2026-03-29T09:30:31.4Z</time></trkpt><trkpt lat="45.3984467" lon="10.6423867"><ele>88.0</ele><time>2026-03-29T09:30:32.4Z</time></trkpt><trkpt lat="45.3985617" lon="10.6422033"><ele>88.0</ele><time>2026-03-29T09:30:33.4Z</time></trkpt><trkpt lat="45.3986617" lon="10.6420067"><ele>88.33333333333333</ele><time>2026-03-29T09:30:34.4Z</time></trkpt><trkpt lat="45.3987183" lon="10.6417833"><ele>88.66666666666667</ele><time>2026-03-29T09:30:35.401Z</time></trkpt><trkpt lat="45.3987533" lon="10.641555"><ele>89.0</ele><time>2026-03-29T09:30:36.4Z</time></trkpt><trkpt lat="45.3987733" lon="10.6413183"><ele>89.66666666666667</ele><time>2026-03-29T09:30:37.4Z</time></trkpt><trkpt lat="45.3987883" lon="10.6410883"><ele>90.33333333333333</ele><time>2026-03-29T09:30:38.4Z</time></trkpt><trkpt lat="45.3987867" lon="10.6408667"><ele>91.0</ele><time>2026-03-29T09:30:39.4Z</time></trkpt><trkpt lat="45.3987917" lon="10.6406217"><ele>91.0</ele><time>2026-03-29T09:30:40.4Z</time></trkpt><trkpt lat="45.3987667" lon="10.640395"><ele>91.0</ele><time>2026-03-29T09:30:41.4Z</time></trkpt><trkpt lat="45.3987417" lon="10.64016"><ele>91.0</ele><time>2026-03-29T09:30:42.4Z</time></trkpt><trkpt lat="45.398725" lon="10.6399167"><ele>91.33333333333333</ele><time>2026-03-29T09:30:43.4Z</time></trkpt><trkpt lat="45.39872" lon="10.6396767"><ele>91.66666666666667</ele><time>2026-03-29T09:30:44.4Z</time></trkpt><trkpt lat="45.3987183" lon="10.63945"><ele>92.0</ele><time>2026-03-29T09:30:45.4Z</time></trkpt><trkpt lat="45.398705" lon="10.6392233"><ele>92.0</ele><time>2026-03-29T09:30:46.4Z</time></trkpt><trkpt lat="45.3986983" lon="10.6390083"><ele>92.0</ele><time>2026-03-29T09:30:47.4Z</time></trkpt><trkpt lat="45.39869" lon="10.6387917"><ele>92.0</ele><time>2026-03-29T09:30:48.4Z</time></trkpt><trkpt lat="45.3986683" lon="10.6385717"><ele>91.66666666666667</ele><time>2026-03-29T09:30:49.4Z</time></trkpt><trkpt lat="45.39866" lon="10.6383517"><ele>91.33333333333333</ele><time>2026-03-29T09:30:50.401Z</time></trkpt><trkpt lat="45.3986517" lon="10.6381383"><ele>91.0</ele><time>2026-03-29T09:30:51.4Z</time></trkpt><trkpt lat="45.3986517" lon="10.6379233"><ele>90.66666666666666</ele><time>2026-03-29T09:30:52.4Z</time></trkpt><trkpt lat="45.3986617" lon="10.6376967"><ele>90.33333333333333</ele><time>2026-03-29T09:30:53.4Z</time></trkpt><trkpt lat="45.39866" lon="10.6374667"><ele>90.0</ele><time>2026-03-29T09:30:54.4Z</time></trkpt><trkpt lat="45.3986483" lon="10.6372433"><ele>90.0</ele><time>2026-03-29T09:30:55.4Z</time></trkpt><trkpt lat="45.39865" lon="10.6370283"><ele>90.0</ele><time>2026-03-29T09:30:56.4Z</time></trkpt><trkpt lat="45.3986733" lon="10.6368167"><ele>90.0</ele><time>2026-03-29T09:30:57.4Z</time></trkpt><trkpt lat="45.3987133" lon="10.6366167"><ele>90.0</ele><time>2026-03-29T09:30:58.4Z</time></trkpt><trkpt lat="45.3987617" lon="10.63643"><ele>90.25</ele><time>2026-03-29T09:30:59.4Z</time></trkpt><trkpt lat="45.39882" lon="10.63625"><ele>90.5</ele><time>2026-03-29T09:31:00.401Z</time></trkpt><trkpt lat="45.39888" lon="10.6360783"><ele>90.75</ele><time>2026-03-29T09:31:01.4Z</time></trkpt><trkpt lat="45.398945" lon="10.6359133"><ele>91.0</ele><time>2026-03-29T09:31:02.401Z</time></trkpt><trkpt lat="45.3990167" lon="10.6357383"><ele>91.0</ele><time>2026-03-29T09:31:03.4Z</time></trkpt><trkpt lat="45.3990917" lon="10.6355667"><ele>91.0</ele><time>2026-03-29T09:31:04.4Z</time></trkpt><trkpt lat="45.39917" lon="10.6353983"><ele>91.0</ele><time>2026-03-29T09:31:05.4Z</time></trkpt><trkpt lat="45.3992433" lon="10.635245"><ele>91.0</ele><time>2026-03-29T09:31:06.401Z</time></trkpt><trkpt lat="45.3993283" lon="10.6350883"><ele>90.8</ele><time>2026-03-29T09:31:07.4Z</time></trkpt><trkpt lat="45.3994033" lon="10.6349483"><ele>90.6</ele><time>2026-03-29T09:31:08.4Z</time></trkpt><trkpt lat="45.3994617" lon="10.6348517"><ele>90.4</ele><time>2026-03-29T09:31:09.4Z</time></trkpt><trkpt lat="45.3995333" lon="10.6347783"><ele>90.2</ele><time>2026-03-29T09:31:10.4Z</time></trkpt><trkpt lat="45.3996267" lon="10.63474"><ele>90.0</ele><time>2026-03-29T09:31:11.4Z</time></trkpt><trkpt lat="45.3997283" lon="10.63471"><ele>90.0</ele><time>2026-03-29T09:31:12.4Z</time></trkpt><trkpt lat="45.39983" lon="10.6347283"><ele>90.0</ele><time>2026-03-29T09:31:13.4Z</time></trkpt><trkpt lat="45.3999283" lon="10.6347833"><ele>90.0</ele><time>2026-03-29T09:31:14.4Z</time></trkpt><trkpt lat="45.40002" lon="10.6348533"><ele>90.0</ele><time>2026-03-29T09:31:15.4Z</time></trkpt><trkpt lat="45.40011" lon="10.6349383"><ele>90.0</ele><time>2026-03-29T09:31:16.4Z</time></trkpt><trkpt lat="45.4001933" lon="10.6350217"><ele>90.0</ele><time>2026-03-29T09:31:17.4Z</time></trkpt><trkpt lat="45.4002817" lon="10.6351"><ele>90.0</ele><time>2026-03-29T09:31:18.401Z</time></trkpt><trkpt lat="45.4003667" lon="10.6351783"><ele>90.0</ele><time>2026-03-29T09:31:19.4Z</time></trkpt><trkpt lat="45.4004517" lon="10.6352567"><ele>90.0</ele><time>2026-03-29T09:31:20.4Z</time></trkpt><trkpt lat="45.40054" lon="10.6353367"><ele>90.0</ele><time>2026-03-29T09:31:21.4Z</time></trkpt><trkpt lat="45.400625" lon="10.6354133"><ele>89.66666666666667</ele><time>2026-03-29T09:31:22.4Z</time></trkpt><trkpt lat="45.4007133" lon="10.6354917"><ele>89.33333333333333</ele><time>2026-03-29T09:31:23.4Z</time></trkpt><trkpt lat="45.4007917" lon="10.635555"><ele>89.0</ele><time>2026-03-29T09:31:24.4Z</time></trkpt><trkpt lat="45.4008683" lon="10.6356183"><ele>88.66666666666666</ele><time>2026-03-29T09:31:25.4Z</time></trkpt><trkpt lat="45.4009367" lon="10.635675"><ele>88.33333333333333</ele><time>2026-03-29T09:31:26.4Z</time></trkpt><trkpt lat="45.401005" lon="10.6357367"><ele>88.0</ele><time>2026-03-29T09:31:27.4Z</time></trkpt><trkpt lat="45.4010767" lon="10.635805"><ele>88.0</ele><time>2026-03-29T09:31:28.401Z</time></trkpt><trkpt lat="45.4011467" lon="10.635875"><ele>88.0</ele><time>2026-03-29T09:31:29.4Z</time></trkpt><trkpt lat="45.4012267" lon="10.6359467"><ele>88.0</ele><time>2026-03-29T09:31:30.4Z</time></trkpt><trkpt lat="45.4013083" lon="10.6360133"><ele>88.0</ele><time>2026-03-29T09:31:31.401Z</time></trkpt><trkpt lat="45.4013867" lon="10.636075"><ele>88.0</ele><time>2026-03-29T09:31:32.4Z</time></trkpt><trkpt lat="45.4014683" lon="10.63614"><ele>87.80000000000001</ele><time>2026-03-29T09:31:33.4Z</time></trkpt><trkpt lat="45.40154" lon="10.6362033"><ele>87.6</ele><time>2026-03-29T09:31:34.4Z</time></trkpt><trkpt lat="45.40162" lon="10.6362667"><ele>87.4</ele><time>2026-03-29T09:31:35.401Z</time></trkpt><trkpt lat="45.4017017" lon="10.6363333"><ele>87.19999999999999</ele><time>2026-03-29T09:31:36.4Z</time></trkpt><trkpt lat="45.4017833" lon="10.636395"><ele>87.0</ele><time>2026-03-29T09:31:37.4Z</time></trkpt><trkpt lat="45.4018617" lon="10.6364617"><ele>87.0</ele><time>2026-03-29T09:31:38.4Z</time></trkpt><trkpt lat="45.40194" lon="10.63653"><ele>87.0</ele><time>2026-03-29T09:31:39.4Z</time></trkpt><trkpt lat="45.4020233" lon="10.6366033"><ele>87.0</ele><time>2026-03-29T09:31:40.4Z</time></trkpt><trkpt lat="45.4021167" lon="10.636675"><ele>87.0</ele><time>2026-03-29T09:31:41.4Z</time></trkpt><trkpt lat="45.4022117" lon="10.636755"><ele>87.0</ele><time>2026-03-29T09:31:42.4Z</time></trkpt><trkpt lat="45.40231" lon="10.6368383"><ele>87.25</ele><time>2026-03-29T09:31:43.4Z</time></trkpt><trkpt lat="45.40241" lon="10.6369417"><ele>87.5</ele><time>2026-03-29T09:31:44.4Z</time></trkpt><trkpt lat="45.4025217" lon="10.6370433"><ele>87.75</ele><time>2026-03-29T09:31:45.4Z</time></trkpt><trkpt lat="45.4026367" lon="10.6371433"><ele>88.0</ele><time>2026-03-29T09:31:46.4Z</time></trkpt><trkpt lat="45.4027567" lon="10.6372533"><ele>88.25</ele><time>2026-03-29T09:31:47.401Z</time></trkpt><trkpt lat="45.4028867" lon="10.6373533"><ele>88.5</ele><time>2026-03-29T09:31:48.4Z</time></trkpt><trkpt lat="45.4030183" lon="10.637455"><ele>88.75</ele><time>2026-03-29T09:31:49.401Z</time></trkpt><trkpt lat="45.4031517" lon="10.637555"><ele>89.0</ele><time>2026-03-29T09:31:50.4Z</time></trkpt><trkpt lat="45.40327" lon="10.6376583"><ele>89.0</ele><time>2026-03-29T09:31:51.4Z</time></trkpt><trkpt lat="45.40339" lon="10.63776"><ele>89.0</ele><time>2026-03-29T09:31:52.4Z</time></trkpt><trkpt lat="45.4035233" lon="10.6378683"><ele>89.0</ele><time>2026-03-29T09:31:53.4Z</time></trkpt><trkpt lat="45.4036467" lon="10.6379833"><ele>89.0</ele><time>2026-03-29T09:31:54.401Z</time></trkpt><trkpt lat="45.4037833" lon="10.6380967"><ele>89.33333333333334</ele><time>2026-03-29T09:31:55.4Z</time></trkpt><trkpt lat="45.4039167" lon="10.638225"><ele>89.66666666666667</ele><time>2026-03-29T09:31:56.4Z</time></trkpt><trkpt lat="45.4040483" lon="10.63836"><ele>90.0</ele><time>2026-03-29T09:31:57.4Z</time></trkpt><trkpt lat="45.404185" lon="10.6384867"><ele>90.0</ele><time>2026-03-29T09:31:58.4Z</time></trkpt><trkpt lat="45.4043233" lon="10.638625"><ele>90.0</ele><time>2026-03-29T09:31:59.4Z</time></trkpt><trkpt lat="45.40447" lon="10.6387633"><ele>90.0</ele><time>2026-03-29T09:32:00.4Z</time></trkpt><trkpt lat="45.404615" lon="10.6388967"><ele>90.66666666666667</ele><time>2026-03-29T09:32:01.401Z</time></trkpt><trkpt lat="45.404745" lon="10.6390233"><ele>91.33333333333334</ele><time>2026-03-29T09:32:02.4Z</time></trkpt><trkpt lat="45.4048783" lon="10.6391333"><ele>92.0</ele><time>2026-03-29T09:32:03.4Z</time></trkpt><trkpt lat="45.405005" lon="10.6392267"><ele>92.0</ele><time>2026-03-29T09:32:04.4Z</time></trkpt><trkpt lat="45.4051217" lon="10.639305"><ele>92.0</ele><time>2026-03-29T09:32:05.4Z</time></trkpt><trkpt lat="45.4052233" lon="10.6393833"><ele>92.0</ele><time>2026-03-29T09:32:06.4Z</time></trkpt><trkpt lat="45.4053183" lon="10.63946"><ele>92.0</ele><time>2026-03-29T09:32:07.4Z</time></trkpt><trkpt lat="45.405415" lon="10.639515"><ele>91.33333333333334</ele><time>2026-03-29T09:32:08.4Z</time></trkpt><trkpt lat="45.405495" lon="10.63957"><ele>90.66666666666667</ele><time>2026-03-29T09:32:09.4Z</time></trkpt><trkpt lat="45.40556" lon="10.6396167"><ele>90.0</ele><time>2026-03-29T09:32:10.4Z</time></trkpt><trkpt lat="45.4055817" lon="10.6397117"><ele>89.33333333333333</ele><time>2026-03-29T09:32:12.4Z</time></trkpt><trkpt lat="45.4055167" lon="10.6398583"><ele>88.66666666666666</ele><time>2026-03-29T09:32:14.4Z</time></trkpt><trkpt lat="45.4054733" lon="10.6399317"><ele>88.0</ele><time>2026-03-29T09:32:15.401Z</time></trkpt><trkpt lat="45.4054183" lon="10.640065"><ele>88.0</ele><time>2026-03-29T09:32:17.4Z</time></trkpt><trkpt lat="45.4054383" lon="10.6401833"><ele>88.0</ele><time>2026-03-29T09:32:19.4Z</time></trkpt><trkpt lat="45.4054817" lon="10.6402567"><ele>88.0</ele><time>2026-03-29T09:32:20.401Z</time></trkpt><trkpt lat="45.4055917" lon="10.6403367"><ele>88.0</ele><time>2026-03-29T09:32:21.4Z</time></trkpt><trkpt lat="45.4057217" lon="10.6404283"><ele>88.0</ele><time>2026-03-29T09:32:22.4Z</time></trkpt><trkpt lat="45.40586" lon="10.6405217"><ele>87.0</ele><time>2026-03-29T09:32:23.4Z</time></trkpt><trkpt lat="45.4060183" lon="10.6406017"><ele>86.0</ele><time>2026-03-29T09:32:24.401Z</time></trkpt><trkpt lat="45.40617" lon="10.6406733"><ele>85.0</ele><time>2026-03-29T09:32:25.4Z</time></trkpt><trkpt lat="45.40631" lon="10.64076"><ele>85.5</ele><time>2026-03-29T09:32:26.4Z</time></trkpt><trkpt lat="45.406425" lon="10.64084"><ele>86.0</ele><time>2026-03-29T09:32:27.4Z</time></trkpt><trkpt lat="45.4065383" lon="10.6408967"><ele>86.5</ele><time>2026-03-29T09:32:28.4Z</time></trkpt><trkpt lat="45.40665" lon="10.64093"><ele>87.0</ele><time>2026-03-29T09:32:29.4Z</time></trkpt><trkpt lat="45.4067617" lon="10.6409617"><ele>87.0</ele><time>2026-03-29T09:32:30.4Z</time></trkpt><trkpt lat="45.406875" lon="10.6409917"><ele>87.0</ele><time>2026-03-29T09:32:31.4Z</time></trkpt><trkpt lat="45.4069933" lon="10.641"><ele>87.0</ele><time>2026-03-29T09:32:32.4Z</time></trkpt><trkpt lat="45.4071067" lon="10.6410067"><ele>87.0</ele><time>2026-03-29T09:32:33.4Z</time></trkpt><trkpt lat="45.40723" lon="10.6409867"><ele>87.25</ele><time>2026-03-29T09:32:34.4Z</time></trkpt><trkpt lat="45.407355" lon="10.64096"><ele>87.5</ele><time>2026-03-29T09:32:35.4Z</time></trkpt><trkpt lat="45.4074883" lon="10.64096"><ele>87.75</ele><time>2026-03-29T09:32:36.4Z</time></trkpt><trkpt lat="45.4076117" lon="10.640985"><ele>88.0</ele><time>2026-03-29T09:32:37.4Z</time></trkpt><trkpt lat="45.407725" lon="10.64101"><ele>88.0</ele><time>2026-03-29T09:32:38.4Z</time></trkpt><trkpt lat="45.4078217" lon="10.6410333"><ele>88.0</ele><time>2026-03-29T09:32:39.4Z</time></trkpt><trkpt lat="45.4079067" lon="10.641065"><ele>88.0</ele><time>2026-03-29T09:32:40.4Z</time></trkpt><trkpt lat="45.4079767" lon="10.6411083"><ele>88.0</ele><time>2026-03-29T09:32:41.401Z</time></trkpt><trkpt lat="45.4080383" lon="10.6411683"><ele>88.0</ele><time>2026-03-29T09:32:42.4Z</time></trkpt><trkpt lat="45.40811" lon="10.6412433"><ele>88.0</ele><time>2026-03-29T09:32:43.401Z</time></trkpt><trkpt lat="45.4081867" lon="10.6413683"><ele>87.4</ele><time>2026-03-29T09:32:44.401Z</time></trkpt><trkpt lat="45.4082633" lon="10.6414867"><ele>86.80000000000001</ele><time>2026-03-29T09:32:45.401Z</time></trkpt><trkpt lat="45.4083233" lon="10.641595"><ele>86.2</ele><time>2026-03-29T09:32:46.4Z</time></trkpt><trkpt lat="45.4083817" lon="10.6417033"><ele>85.6</ele><time>2026-03-29T09:32:47.4Z</time></trkpt><trkpt lat="45.408425" lon="10.6418217"><ele>85.0</ele><time>2026-03-29T09:32:48.401Z</time></trkpt><trkpt lat="45.4084517" lon="10.6419417"><ele>85.0</ele><time>2026-03-29T09:32:49.4Z</time></trkpt><trkpt lat="45.4084667" lon="10.6421033"><ele>85.0</ele><time>2026-03-29T09:32:50.401Z</time></trkpt><trkpt lat="45.4084817" lon="10.6423033"><ele>85.0</ele><time>2026-03-29T09:32:51.4Z</time></trkpt><trkpt lat="45.408495" lon="10.64253"><ele>85.0</ele><time>2026-03-29T09:32:52.4Z</time></trkpt><trkpt lat="45.4085083" lon="10.6427633"><ele>85.5</ele><time>2026-03-29T09:32:53.4Z</time></trkpt><trkpt lat="45.4085383" lon="10.6429633"><ele>86.0</ele><time>2026-03-29T09:32:54.4Z</time></trkpt><trkpt lat="45.4085767" lon="10.64315"><ele>86.5</ele><time>2026-03-29T09:32:55.4Z</time></trkpt><trkpt lat="45.408625" lon="10.643335"><ele>87.0</ele><time>2026-03-29T09:32:56.4Z</time></trkpt><trkpt lat="45.4086567" lon="10.64353"><ele>87.25</ele><time>2026-03-29T09:32:57.4Z</time></trkpt><trkpt lat="45.40869" lon="10.6437167"><ele>87.5</ele><time>2026-03-29T09:32:58.401Z</time></trkpt><trkpt lat="45.40873" lon="10.643885"><ele>87.75</ele><time>2026-03-29T09:32:59.4Z</time></trkpt><trkpt lat="45.408775" lon="10.6440583"><ele>88.0</ele><time>2026-03-29T09:33:00.401Z</time></trkpt><trkpt lat="45.4088233" lon="10.64423"><ele>87.75</ele><time>2026-03-29T09:33:01.4Z</time></trkpt><trkpt lat="45.4088717" lon="10.6444"><ele>87.5</ele><time>2026-03-29T09:33:02.4Z</time></trkpt><trkpt lat="45.4089067" lon="10.6445717"><ele>87.25</ele><time>2026-03-29T09:33:03.401Z</time></trkpt><trkpt lat="45.4089383" lon="10.6447267"><ele>87.0</ele><time>2026-03-29T09:33:04.401Z</time></trkpt><trkpt lat="45.4089717" lon="10.6448483"><ele>87.0</ele><time>2026-03-29T09:33:05.4Z</time></trkpt><trkpt lat="45.4090117" lon="10.6449617"><ele>87.0</ele><time>2026-03-29T09:33:06.4Z</time></trkpt><trkpt lat="45.409075" lon="10.6450683"><ele>87.0</ele><time>2026-03-29T09:33:07.4Z</time></trkpt><trkpt lat="45.4091633" lon="10.6451783"><ele>87.0</ele><time>2026-03-29T09:33:08.4Z</time></trkpt><trkpt lat="45.4092667" lon="10.64528"><ele>87.0</ele><time>2026-03-29T09:33:09.4Z</time></trkpt><trkpt lat="45.4093617" lon="10.6454083"><ele>87.0</ele><time>2026-03-29T09:33:10.4Z</time></trkpt><trkpt lat="45.4094867" lon="10.6455467"><ele>87.0</ele><time>2026-03-29T09:33:11.4Z</time></trkpt><trkpt lat="45.4096183" lon="10.6456717"><ele>87.0</ele><time>2026-03-29T09:33:12.4Z</time></trkpt><trkpt lat="45.409725" lon="10.6457767"><ele>87.0</ele><time>2026-03-29T09:33:13.4Z</time></trkpt><trkpt lat="45.4098233" lon="10.6458867"><ele>87.25</ele><time>2026-03-29T09:33:14.4Z</time></trkpt><trkpt lat="45.4098983" lon="10.6459983"><ele>87.5</ele><time>2026-03-29T09:33:15.4Z</time></trkpt><trkpt lat="45.4099667" lon="10.6461117"><ele>87.75</ele><time>2026-03-29T09:33:16.4Z</time></trkpt><trkpt lat="45.4100417" lon="10.6462517"><ele>88.0</ele><time>2026-03-29T09:33:17.4Z</time></trkpt><trkpt lat="45.41011" lon="10.6463967"><ele>88.25</ele><time>2026-03-29T09:33:18.4Z</time></trkpt><trkpt lat="45.41019" lon="10.646525"><ele>88.5</ele><time>2026-03-29T09:33:19.4Z</time></trkpt><trkpt lat="45.41027" lon="10.6466633"><ele>88.75</ele><time>2026-03-29T09:33:20.4Z</time></trkpt><trkpt lat="45.4103683" lon="10.6468"><ele>89.0</ele><time>2026-03-29T09:33:21.4Z</time></trkpt><trkpt lat="45.41047" lon="10.6469417"><ele>88.25</ele><time>2026-03-29T09:33:22.4Z</time></trkpt><trkpt lat="45.4105733" lon="10.64707"><ele>87.5</ele><time>2026-03-29T09:33:23.4Z</time></trkpt><trkpt lat="45.410665" lon="10.6471833"><ele>86.75</ele><time>2026-03-29T09:33:24.4Z</time></trkpt><trkpt lat="45.4107383" lon="10.6473167"><ele>86.0</ele><time>2026-03-29T09:33:25.4Z</time></trkpt><trkpt lat="45.4107883" lon="10.6474883"><ele>86.0</ele><time>2026-03-29T09:33:26.4Z</time></trkpt><trkpt lat="45.4108283" lon="10.647665"><ele>86.0</ele><time>2026-03-29T09:33:27.4Z</time></trkpt><trkpt lat="45.4108667" lon="10.6478533"><ele>86.0</ele><time>2026-03-29T09:33:28.4Z</time></trkpt><trkpt lat="45.4108933" lon="10.648035"><ele>86.0</ele><time>2026-03-29T09:33:29.401Z</time></trkpt><trkpt lat="45.4109133" lon="10.6481733"><ele>86.4</ele><time>2026-03-29T09:33:30.401Z</time></trkpt><trkpt lat="45.41094" lon="10.648275"><ele>86.8</ele><time>2026-03-29T09:33:31.4Z</time></trkpt><trkpt lat="45.4110417" lon="10.6483"><ele>87.2</ele><time>2026-03-29T09:33:33.4Z</time></trkpt><trkpt lat="45.4111317" lon="10.64828"><ele>87.60000000000001</ele><time>2026-03-29T09:33:34.4Z</time></trkpt><trkpt lat="45.411235" lon="10.6482483"><ele>88.0</ele><time>2026-03-29T09:33:35.4Z</time></trkpt><trkpt lat="45.4113567" lon="10.6482167"><ele>89.25</ele><time>2026-03-29T09:33:36.4Z</time></trkpt><trkpt lat="45.4114817" lon="10.6481933"><ele>90.5</ele><time>2026-03-29T09:33:37.399Z</time></trkpt><trkpt lat="45.4116067" lon="10.6481683"><ele>91.75</ele><time>2026-03-29T09:33:38.399Z</time></trkpt><trkpt lat="45.4117233" lon="10.6481417"><ele>93.0</ele><time>2026-03-29T09:33:39.399Z</time></trkpt><trkpt lat="45.4118083" lon="10.648125"><ele>93.0</ele><time>2026-03-29T09:33:40.4Z</time></trkpt><trkpt lat="45.4118733" lon="10.648115"><ele>93.0</ele><time>2026-03-29T09:33:41.399Z</time></trkpt><trkpt lat="45.4119383" lon="10.6480567"><ele>93.0</ele><time>2026-03-29T09:33:47.399Z</time></trkpt><trkpt lat="45.41194" lon="10.64793"><ele>93.0</ele><time>2026-03-29T09:33:50.399Z</time></trkpt><trkpt lat="45.4119333" lon="10.6477817"><ele>93.0</ele><time>2026-03-29T09:33:52.399Z</time></trkpt><trkpt lat="45.4119267" lon="10.6475667"><ele>93.0</ele><time>2026-03-29T09:33:54.399Z</time></trkpt><trkpt lat="45.4119317" lon="10.6474183"><ele>93.0</ele><time>2026-03-29T09:33:55.399Z</time></trkpt><trkpt lat="45.4119383" lon="10.6472583"><ele>93.0</ele><time>2026-03-29T09:33:56.399Z</time></trkpt><trkpt lat="45.411945" lon="10.647095"><ele>93.0</ele><time>2026-03-29T09:33:57.399Z</time></trkpt><trkpt lat="45.4119367" lon="10.646925"><ele>93.0</ele><time>2026-03-29T09:33:58.399Z</time></trkpt><trkpt lat="45.41193" lon="10.64676"><ele>93.0</ele><time>2026-03-29T09:33:59.399Z</time></trkpt><trkpt lat="45.411915" lon="10.6466017"><ele>93.0</ele><time>2026-03-29T09:34:00.399Z</time></trkpt><trkpt lat="45.4118983" lon="10.6464467"><ele>93.0</ele><time>2026-03-29T09:34:01.399Z</time></trkpt><trkpt lat="45.41188" lon="10.6462783"><ele>93.75</ele><time>2026-03-29T09:34:02.399Z</time></trkpt><trkpt lat="45.411845" lon="10.6461167"><ele>94.5</ele><time>2026-03-29T09:34:03.4Z</time></trkpt><trkpt lat="45.4118267" lon="10.6459617"><ele>95.25</ele><time>2026-03-29T09:34:04.4Z</time></trkpt><trkpt lat="45.4117883" lon="10.6457883"><ele>96.0</ele><time>2026-03-29T09:34:05.399Z</time></trkpt><trkpt lat="45.4117483" lon="10.645615"><ele>96.0</ele><time>2026-03-29T09:34:06.399Z</time></trkpt><trkpt lat="45.411715" lon="10.6454383"><ele>96.0</ele><time>2026-03-29T09:34:07.399Z</time></trkpt><trkpt lat="45.4116867" lon="10.6452583"><ele>96.0</ele><time>2026-03-29T09:34:08.399Z</time></trkpt><trkpt lat="45.4116467" lon="10.64507"><ele>96.0</ele><time>2026-03-29T09:34:09.399Z</time></trkpt><trkpt lat="45.4116167" lon="10.6448833"><ele>96.25</ele><time>2026-03-29T09:34:10.399Z</time></trkpt><trkpt lat="45.4115767" lon="10.64469"><ele>96.5</ele><time>2026-03-29T09:34:11.399Z</time></trkpt><trkpt lat="45.411535" lon="10.6445"><ele>96.75</ele><time>2026-03-29T09:34:12.399Z</time></trkpt><trkpt lat="45.4114933" lon="10.6443067"><ele>97.0</ele><time>2026-03-29T09:34:13.399Z</time></trkpt><trkpt lat="45.41145" lon="10.6441167"><ele>96.75</ele><time>2026-03-29T09:34:14.399Z</time></trkpt><trkpt lat="45.4114133" lon="10.6439117"><ele>96.5</ele><time>2026-03-29T09:34:15.399Z</time></trkpt><trkpt lat="45.4113683" lon="10.6437217"><ele>96.25</ele><time>2026-03-29T09:34:16.4Z</time></trkpt><trkpt lat="45.4113333" lon="10.6435317"><ele>96.0</ele><time>2026-03-29T09:34:17.399Z</time></trkpt><trkpt lat="45.4112933" lon="10.64333"><ele>96.0</ele><time>2026-03-29T09:34:18.399Z</time></trkpt><trkpt lat="45.41125" lon="10.6431233"><ele>96.0</ele><time>2026-03-29T09:34:19.399Z</time></trkpt><trkpt lat="45.4112133" lon="10.6429083"><ele>96.0</ele><time>2026-03-29T09:34:20.399Z</time></trkpt><trkpt lat="45.4111783" lon="10.642705"><ele>95.75</ele><time>2026-03-29T09:34:21.4Z</time></trkpt><trkpt lat="45.4111433" lon="10.6425117"><ele>95.5</ele><time>2026-03-29T09:34:22.399Z</time></trkpt><trkpt lat="45.4111083" lon="10.642305"><ele>95.25</ele><time>2026-03-29T09:34:23.399Z</time></trkpt><trkpt lat="45.4110733" lon="10.6421133"><ele>95.0</ele><time>2026-03-29T09:34:24.399Z</time></trkpt><trkpt lat="45.4110367" lon="10.641955"><ele>96.0</ele><time>2026-03-29T09:34:25.399Z</time></trkpt><trkpt lat="45.410995" lon="10.6418133"><ele>97.0</ele><time>2026-03-29T09:34:26.399Z</time></trkpt><trkpt lat="45.41096" lon="10.641685"><ele>98.0</ele><time>2026-03-29T09:34:27.399Z</time></trkpt><trkpt lat="45.4109233" lon="10.6415567"><ele>99.0</ele><time>2026-03-29T09:34:28.399Z</time></trkpt><trkpt lat="45.4108967" lon="10.6414617"><ele>99.99999999999999</ele><time>2026-03-29T09:34:29.399Z</time></trkpt><trkpt lat="45.4108817" lon="10.6413617"><ele>101.0</ele><time>2026-03-29T09:34:30.399Z</time></trkpt><trkpt lat="45.41089" lon="10.641265"><ele>100.99999999999999</ele><time>2026-03-29T09:34:31.399Z</time></trkpt><trkpt lat="45.410915" lon="10.6411733"><ele>101.0</ele><time>2026-03-29T09:34:32.399Z</time></trkpt><trkpt lat="45.4109417" lon="10.6410767"><ele>101.0</ele><time>2026-03-29T09:34:33.399Z</time></trkpt><trkpt lat="45.4109467" lon="10.6409733"><ele>101.0</ele><time>2026-03-29T09:34:34.399Z</time></trkpt><trkpt lat="45.4109017" lon="10.6407933"><ele>100.99999999999999</ele><time>2026-03-29T09:34:36.399Z</time></trkpt><trkpt lat="45.410845" lon="10.64072"><ele>101.0</ele><time>2026-03-29T09:34:37.399Z</time></trkpt><trkpt lat="45.4107783" lon="10.6406667"><ele>100.99999999999999</ele><time>2026-03-29T09:34:38.399Z</time></trkpt><trkpt lat="45.41071" lon="10.6406217"><ele>101.0</ele><time>2026-03-29T09:34:39.399Z</time></trkpt><trkpt lat="45.41064" lon="10.64056"><ele>101.0</ele><time>2026-03-29T09:34:40.399Z</time></trkpt><trkpt lat="45.4105833" lon="10.6404667"><ele>101.0</ele><time>2026-03-29T09:34:41.399Z</time></trkpt><trkpt lat="45.4105333" lon="10.6403483"><ele>100.99999999999999</ele><time>2026-03-29T09:34:42.4Z</time></trkpt><trkpt lat="45.4104917" lon="10.6402117"><ele>101.0</ele><time>2026-03-29T09:34:43.399Z</time></trkpt><trkpt lat="45.4104633" lon="10.6400683"><ele>101.0</ele><time>2026-03-29T09:34:44.399Z</time></trkpt><trkpt lat="45.4104467" lon="10.6399067"><ele>101.0</ele><time>2026-03-29T09:34:45.399Z</time></trkpt><trkpt lat="45.4104267" lon="10.63973"><ele>101.0</ele><time>2026-03-29T09:34:46.4Z</time></trkpt><trkpt lat="45.4104083" lon="10.6395533"><ele>101.0</ele><time>2026-03-29T09:34:47.399Z</time></trkpt><trkpt lat="45.4103683" lon="10.63937"><ele>101.5</ele><time>2026-03-29T09:34:48.4Z</time></trkpt><trkpt lat="45.4103267" lon="10.639185"><ele>102.0</ele><time>2026-03-29T09:34:49.4Z</time></trkpt><trkpt lat="45.4102783" lon="10.6389967"><ele>102.5</ele><time>2026-03-29T09:34:50.399Z</time></trkpt><trkpt lat="45.4102217" lon="10.6388083"><ele>103.0</ele><time>2026-03-29T09:34:51.399Z</time></trkpt><trkpt lat="45.410155" lon="10.6386117"><ele>103.0</ele><time>2026-03-29T09:34:52.399Z</time></trkpt><trkpt lat="45.4100833" lon="10.63841"><ele>103.0</ele><time>2026-03-29T09:34:53.4Z</time></trkpt><trkpt lat="45.41001" lon="10.63821"><ele>103.0</ele><time>2026-03-29T09:34:54.399Z</time></trkpt><trkpt lat="45.409925" lon="10.6380067"><ele>103.0</ele><time>2026-03-29T09:34:55.399Z</time></trkpt><trkpt lat="45.4098467" lon="10.6378117"><ele>103.0</ele><time>2026-03-29T09:34:56.399Z</time></trkpt><trkpt lat="45.4097667" lon="10.63762"><ele>103.0</ele><time>2026-03-29T09:34:57.399Z</time></trkpt><trkpt lat="45.4096983" lon="10.6374383"><ele>103.75</ele><time>2026-03-29T09:34:58.399Z</time></trkpt><trkpt lat="45.409635" lon="10.6372817"><ele>104.5</ele><time>2026-03-29T09:34:59.399Z</time></trkpt><trkpt lat="45.4095767" lon="10.6371217"><ele>105.25</ele><time>2026-03-29T09:35:00.399Z</time></trkpt><trkpt lat="45.4095167" lon="10.636985"><ele>106.0</ele><time>2026-03-29T09:35:01.399Z</time></trkpt><trkpt lat="45.4094617" lon="10.63686"><ele>106.4</ele><time>2026-03-29T09:35:02.4Z</time></trkpt><trkpt lat="45.4094" lon="10.6367533"><ele>106.8</ele><time>2026-03-29T09:35:03.4Z</time></trkpt><trkpt lat="45.40934" lon="10.636645"><ele>107.20000000000002</ele><time>2026-03-29T09:35:04.399Z</time></trkpt><trkpt lat="45.4092767" lon="10.6365283"><ele>107.60000000000001</ele><time>2026-03-29T09:35:05.399Z</time></trkpt><trkpt lat="45.4092083" lon="10.6364033"><ele>108.0</ele><time>2026-03-29T09:35:06.399Z</time></trkpt><trkpt lat="45.4091367" lon="10.63628"><ele>107.75</ele><time>2026-03-29T09:35:07.399Z</time></trkpt><trkpt lat="45.4090617" lon="10.6361333"><ele>107.5</ele><time>2026-03-29T09:35:08.4Z</time></trkpt><trkpt lat="45.4089817" lon="10.6359717"><ele>107.25</ele><time>2026-03-29T09:35:09.4Z</time></trkpt><trkpt lat="45.4088933" lon="10.6358083"><ele>107.0</ele><time>2026-03-29T09:35:10.399Z</time></trkpt><trkpt lat="45.4087983" lon="10.6356533"><ele>107.0</ele><time>2026-03-29T09:35:11.399Z</time></trkpt><trkpt lat="45.408695" lon="10.6354967"><ele>107.0</ele><time>2026-03-29T09:35:12.399Z</time></trkpt><trkpt lat="45.4085867" lon="10.6353367"><ele>107.0</ele><time>2026-03-29T09:35:13.399Z</time></trkpt><trkpt lat="45.4084533" lon="10.635185"><ele>108.0</ele><time>2026-03-29T09:35:14.399Z</time></trkpt><trkpt lat="45.408325" lon="10.6350433"><ele>109.0</ele><time>2026-03-29T09:35:15.399Z</time></trkpt><trkpt lat="45.4082033" lon="10.6349117"><ele>110.0</ele><time>2026-03-29T09:35:16.399Z</time></trkpt><trkpt lat="45.4080867" lon="10.6348"><ele>110.0</ele><time>2026-03-29T09:35:17.399Z</time></trkpt><trkpt lat="45.4079917" lon="10.634695"><ele>110.0</ele><time>2026-03-29T09:35:18.399Z</time></trkpt><trkpt lat="45.407905" lon="10.634595"><ele>110.0</ele><time>2026-03-29T09:35:19.4Z</time></trkpt><trkpt lat="45.407825" lon="10.6345033"><ele>110.0</ele><time>2026-03-29T09:35:20.399Z</time></trkpt><trkpt lat="45.4077633" lon="10.6344183"><ele>110.0</ele><time>2026-03-29T09:35:21.4Z</time></trkpt><trkpt lat="45.4077183" lon="10.634325"><ele>109.99999999999999</ele><time>2026-03-29T09:35:22.399Z</time></trkpt><trkpt lat="45.4077033" lon="10.63423"><ele>110.0</ele><time>2026-03-29T09:35:23.399Z</time></trkpt><trkpt lat="45.407715" lon="10.634135"><ele>110.0</ele><time>2026-03-29T09:35:24.399Z</time></trkpt><trkpt lat="45.407755" lon="10.6340617"><ele>110.0</ele><time>2026-03-29T09:35:25.399Z</time></trkpt><trkpt lat="45.407835" lon="10.634005"><ele>109.99999999999999</ele><time>2026-03-29T09:35:26.4Z</time></trkpt><trkpt lat="45.4079483" lon="10.6339483"><ele>110.0</ele><time>2026-03-29T09:35:27.399Z</time></trkpt><trkpt lat="45.4081217" lon="10.6339117"><ele>110.25</ele><time>2026-03-29T09:35:28.399Z</time></trkpt><trkpt lat="45.408265" lon="10.6338583"><ele>110.5</ele><time>2026-03-29T09:35:29.399Z</time></trkpt><trkpt lat="45.4083883" lon="10.6338033"><ele>110.75</ele><time>2026-03-29T09:35:30.399Z</time></trkpt><trkpt lat="45.4084917" lon="10.6337433"><ele>111.0</ele><time>2026-03-29T09:35:31.399Z</time></trkpt><trkpt lat="45.408595" lon="10.633685"><ele>111.4</ele><time>2026-03-29T09:35:32.399Z</time></trkpt><trkpt lat="45.4086883" lon="10.6336067"><ele>111.8</ele><time>2026-03-29T09:35:33.399Z</time></trkpt><trkpt lat="45.4087817" lon="10.6335233"><ele>112.20000000000002</ele><time>2026-03-29T09:35:34.399Z</time></trkpt><trkpt lat="45.4088783" lon="10.63344"><ele>112.60000000000001</ele><time>2026-03-29T09:35:35.399Z</time></trkpt><trkpt lat="45.4089783" lon="10.633355"><ele>113.0</ele><time>2026-03-29T09:35:36.399Z</time></trkpt><trkpt lat="45.40908" lon="10.6332667"><ele>113.25</ele><time>2026-03-29T09:35:37.399Z</time></trkpt><trkpt lat="45.4091833" lon="10.6331717"><ele>113.5</ele><time>2026-03-29T09:35:38.4Z</time></trkpt><trkpt lat="45.4092883" lon="10.6330817"><ele>113.75</ele><time>2026-03-29T09:35:39.399Z</time></trkpt><trkpt lat="45.4093783" lon="10.633"><ele>114.0</ele><time>2026-03-29T09:35:40.399Z</time></trkpt><trkpt lat="45.4094617" lon="10.6329167"><ele>114.0</ele><time>2026-03-29T09:35:41.399Z</time></trkpt><trkpt lat="45.40955" lon="10.6328367"><ele>114.0</ele><time>2026-03-29T09:35:42.399Z</time></trkpt><trkpt lat="45.4096383" lon="10.6327383"><ele>114.0</ele><time>2026-03-29T09:35:43.399Z</time></trkpt><trkpt lat="45.4097317" lon="10.6326233"><ele>114.0</ele><time>2026-03-29T09:35:44.4Z</time></trkpt><trkpt lat="45.4098267" lon="10.6324967"><ele>113.25</ele><time>2026-03-29T09:35:45.399Z</time></trkpt><trkpt lat="45.40992" lon="10.6323633"><ele>112.5</ele><time>2026-03-29T09:35:46.4Z</time></trkpt><trkpt lat="45.4100117" lon="10.632245"><ele>111.75</ele><time>2026-03-29T09:35:47.4Z</time></trkpt><trkpt lat="45.4101067" lon="10.6321383"><ele>111.0</ele><time>2026-03-29T09:35:48.399Z</time></trkpt><trkpt lat="45.4102017" lon="10.6320633"><ele>111.0</ele><time>2026-03-29T09:35:49.399Z</time></trkpt><trkpt lat="45.4103033" lon="10.6319967"><ele>111.0</ele><time>2026-03-29T09:35:50.399Z</time></trkpt><trkpt lat="45.410415" lon="10.63193"><ele>111.0</ele><time>2026-03-29T09:35:51.399Z</time></trkpt><trkpt lat="45.4105083" lon="10.6318817"><ele>111.0</ele><time>2026-03-29T09:35:52.399Z</time></trkpt><trkpt lat="45.4106017" lon="10.6318283"><ele>111.0</ele><time>2026-03-29T09:35:53.4Z</time></trkpt><trkpt lat="45.4107033" lon="10.6317917"><ele>110.0</ele><time>2026-03-29T09:35:54.4Z</time></trkpt><trkpt lat="45.4108017" lon="10.6317483"><ele>109.0</ele><time>2026-03-29T09:35:55.399Z</time></trkpt><trkpt lat="45.41089" lon="10.6317267"><ele>108.0</ele><time>2026-03-29T09:35:56.399Z</time></trkpt><trkpt lat="45.4109733" lon="10.6317233"><ele>107.0</ele><time>2026-03-29T09:35:57.399Z</time></trkpt><trkpt lat="45.41105" lon="10.63176"><ele>106.0</ele><time>2026-03-29T09:35:58.399Z</time></trkpt><trkpt lat="45.411115" lon="10.63183"><ele>105.0</ele><time>2026-03-29T09:35:59.399Z</time></trkpt><trkpt lat="45.411175" lon="10.6318767"><ele>105.0</ele><time>2026-03-29T09:36:00.399Z</time></trkpt><trkpt lat="45.4112883" lon="10.6318483"><ele>105.0</ele><time>2026-03-29T09:36:02.399Z</time></trkpt><trkpt lat="45.411345" lon="10.6317783"><ele>105.0</ele><time>2026-03-29T09:36:03.399Z</time></trkpt><trkpt lat="45.4113833" lon="10.6316717"><ele>105.0</ele><time>2026-03-29T09:36:04.399Z</time></trkpt><trkpt lat="45.41139" lon="10.6315367"><ele>105.0</ele><time>2026-03-29T09:36:05.399Z</time></trkpt><trkpt lat="45.41139" lon="10.6313817"><ele>104.75</ele><time>2026-03-29T09:36:06.399Z</time></trkpt><trkpt lat="45.4113917" lon="10.6312067"><ele>104.5</ele><time>2026-03-29T09:36:07.399Z</time></trkpt><trkpt lat="45.4113833" lon="10.631025"><ele>104.25</ele><time>2026-03-29T09:36:08.399Z</time></trkpt><trkpt lat="45.4113833" lon="10.6308333"><ele>104.0</ele><time>2026-03-29T09:36:09.399Z</time></trkpt><trkpt lat="45.4113833" lon="10.63063"><ele>102.33333333333333</ele><time>2026-03-29T09:36:10.399Z</time></trkpt><trkpt lat="45.4113883" lon="10.630425"><ele>100.66666666666666</ele><time>2026-03-29T09:36:11.4Z</time></trkpt><trkpt lat="45.4113867" lon="10.63021"><ele>99.0</ele><time>2026-03-29T09:36:12.399Z</time></trkpt><trkpt lat="45.4113833" lon="10.6299733"><ele>99.0</ele><time>2026-03-29T09:36:13.399Z</time></trkpt><trkpt lat="45.4113767" lon="10.62972"><ele>99.0</ele><time>2026-03-29T09:36:14.399Z</time></trkpt><trkpt lat="45.4113733" lon="10.6294483"><ele>99.0</ele><time>2026-03-29T09:36:15.399Z</time></trkpt><trkpt lat="45.4113717" lon="10.6291567"><ele>99.0</ele><time>2026-03-29T09:36:16.399Z</time></trkpt><trkpt lat="45.411375" lon="10.62888"><ele>99.0</ele><time>2026-03-29T09:36:17.399Z</time></trkpt><trkpt lat="45.4113867" lon="10.628605"><ele>99.0</ele><time>2026-03-29T09:36:18.399Z</time></trkpt><trkpt lat="45.411395" lon="10.628335"><ele>99.33333333333334</ele><time>2026-03-29T09:36:19.4Z</time></trkpt><trkpt lat="45.4113883" lon="10.6280633"><ele>99.66666666666667</ele><time>2026-03-29T09:36:20.4Z</time></trkpt><trkpt lat="45.4113667" lon="10.62781"><ele>100.0</ele><time>2026-03-29T09:36:21.399Z</time></trkpt><trkpt lat="45.4113283" lon="10.6275417"><ele>100.33333333333334</ele><time>2026-03-29T09:36:22.399Z</time></trkpt><trkpt lat="45.4112683" lon="10.62729"><ele>100.66666666666666</ele><time>2026-03-29T09:36:23.4Z</time></trkpt><trkpt lat="45.4112" lon="10.6270483"><ele>101.0</ele><time>2026-03-29T09:36:24.399Z</time></trkpt><trkpt lat="45.4111183" lon="10.626815"><ele>101.33333333333333</ele><time>2026-03-29T09:36:25.399Z</time></trkpt><trkpt lat="45.41102" lon="10.62659"><ele>101.66666666666666</ele><time>2026-03-29T09:36:26.399Z</time></trkpt><trkpt lat="45.4109217" lon="10.6263867"><ele>102.0</ele><time>2026-03-29T09:36:27.399Z</time></trkpt><trkpt lat="45.4108283" lon="10.6261967"><ele>103.5</ele><time>2026-03-29T09:36:28.399Z</time></trkpt><trkpt lat="45.4107333" lon="10.6260217"><ele>105.0</ele><time>2026-03-29T09:36:29.4Z</time></trkpt><trkpt lat="45.41064" lon="10.6258567"><ele>106.5</ele><time>2026-03-29T09:36:30.399Z</time></trkpt><trkpt lat="45.4105617" lon="10.6257117"><ele>108.0</ele><time>2026-03-29T09:36:31.399Z</time></trkpt><trkpt lat="45.4105017" lon="10.6256"><ele>105.80000000000001</ele><time>2026-03-29T09:36:32.4Z</time></trkpt><trkpt lat="45.4104483" lon="10.6255283"><ele>103.60000000000001</ele><time>2026-03-29T09:36:33.399Z</time></trkpt><trkpt lat="45.4103667" lon="10.62545"><ele>101.4</ele><time>2026-03-29T09:36:35.4Z</time></trkpt><trkpt lat="45.410275" lon="10.6254783"><ele>99.19999999999999</ele><time>2026-03-29T09:36:37.399Z</time></trkpt><trkpt lat="45.4102167" lon="10.6255383"><ele>97.0</ele><time>2026-03-29T09:36:38.399Z</time></trkpt><trkpt lat="45.4101267" lon="10.6256567"><ele>97.0</ele><time>2026-03-29T09:36:39.399Z</time></trkpt><trkpt lat="45.4100117" lon="10.6257867"><ele>97.0</ele><time>2026-03-29T09:36:40.399Z</time></trkpt><trkpt lat="45.409885" lon="10.625905"><ele>97.0</ele><time>2026-03-29T09:36:41.4Z</time></trkpt><trkpt lat="45.409755" lon="10.626025"><ele>96.33333333333334</ele><time>2026-03-29T09:36:42.399Z</time></trkpt><trkpt lat="45.40961" lon="10.626165"><ele>95.66666666666667</ele><time>2026-03-29T09:36:43.399Z</time></trkpt><trkpt lat="45.4094667" lon="10.626295"><ele>95.0</ele><time>2026-03-29T09:36:44.399Z</time></trkpt><trkpt lat="45.4093417" lon="10.6264133"><ele>95.0</ele><time>2026-03-29T09:36:45.399Z</time></trkpt><trkpt lat="45.4092133" lon="10.6265217"><ele>95.0</ele><time>2026-03-29T09:36:46.399Z</time></trkpt><trkpt lat="45.4090667" lon="10.626635"><ele>95.0</ele><time>2026-03-29T09:36:47.399Z</time></trkpt><trkpt lat="45.40891" lon="10.6267717"><ele>95.33333333333334</ele><time>2026-03-29T09:36:48.399Z</time></trkpt><trkpt lat="45.4087467" lon="10.626905"><ele>95.66666666666667</ele><time>2026-03-29T09:36:49.4Z</time></trkpt><trkpt lat="45.4085883" lon="10.6270433"><ele>96.0</ele><time>2026-03-29T09:36:50.399Z</time></trkpt><trkpt lat="45.4084183" lon="10.6271583"><ele>97.33333333333334</ele><time>2026-03-29T09:36:51.4Z</time></trkpt><trkpt lat="45.4082383" lon="10.627245"><ele>98.66666666666667</ele><time>2026-03-29T09:36:52.399Z</time></trkpt><trkpt lat="45.4080667" lon="10.6272933"><ele>100.0</ele><time>2026-03-29T09:36:53.399Z</time></trkpt><trkpt lat="45.40792" lon="10.627335"><ele>100.2</ele><time>2026-03-29T09:36:54.399Z</time></trkpt><trkpt lat="45.4078117" lon="10.6273717"><ele>100.4</ele><time>2026-03-29T09:36:55.399Z</time></trkpt><trkpt lat="45.4076983" lon="10.62745"><ele>100.6</ele><time>2026-03-29T09:36:56.399Z</time></trkpt><trkpt lat="45.40761" lon="10.627465"><ele>100.8</ele><time>2026-03-29T09:36:57.399Z</time></trkpt><trkpt lat="45.4075267" lon="10.6274983"><ele>101.0</ele><time>2026-03-29T09:36:58.399Z</time></trkpt><trkpt lat="45.4074267" lon="10.62755"><ele>101.0</ele><time>2026-03-29T09:36:59.399Z</time></trkpt><trkpt lat="45.4073467" lon="10.6275833"><ele>101.0</ele><time>2026-03-29T09:37:00.399Z</time></trkpt><trkpt lat="45.4072567" lon="10.627625"><ele>101.0</ele><time>2026-03-29T09:37:01.399Z</time></trkpt><trkpt lat="45.40716" lon="10.62764"><ele>101.0</ele><time>2026-03-29T09:37:02.399Z</time></trkpt><trkpt lat="45.4070367" lon="10.6276483"><ele>101.0</ele><time>2026-03-29T09:37:03.4Z</time></trkpt><trkpt lat="45.4069033" lon="10.627635"><ele>100.75</ele><time>2026-03-29T09:37:04.399Z</time></trkpt><trkpt lat="45.4067733" lon="10.6276"><ele>100.5</ele><time>2026-03-29T09:37:05.399Z</time></trkpt><trkpt lat="45.4066367" lon="10.6275633"><ele>100.25</ele><time>2026-03-29T09:37:06.399Z</time></trkpt><trkpt lat="45.4064917" lon="10.62754"><ele>100.0</ele><time>2026-03-29T09:37:07.399Z</time></trkpt><trkpt lat="45.4063517" lon="10.6275083"><ele>100.25</ele><time>2026-03-29T09:37:08.399Z</time></trkpt><trkpt lat="45.4062083" lon="10.6274883"><ele>100.5</ele><time>2026-03-29T09:37:09.399Z</time></trkpt><trkpt lat="45.4060667" lon="10.62746"><ele>100.75</ele><time>2026-03-29T09:37:10.399Z</time></trkpt><trkpt lat="45.405925" lon="10.6274317"><ele>101.0</ele><time>2026-03-29T09:37:11.399Z</time></trkpt><trkpt lat="45.4057783" lon="10.627385"><ele>101.0</ele><time>2026-03-29T09:37:12.399Z</time></trkpt><trkpt lat="45.4056283" lon="10.627335"><ele>101.0</ele><time>2026-03-29T09:37:13.399Z</time></trkpt><trkpt lat="45.4054833" lon="10.6272717"><ele>101.0</ele><time>2026-03-29T09:37:14.399Z</time></trkpt><trkpt lat="45.4053317" lon="10.6271967"><ele>103.0</ele><time>2026-03-29T09:37:15.399Z</time></trkpt><trkpt lat="45.4051767" lon="10.6271067"><ele>105.0</ele><time>2026-03-29T09:37:16.4Z</time></trkpt><trkpt lat="45.4050167" lon="10.6270183"><ele>107.0</ele><time>2026-03-29T09:37:17.399Z</time></trkpt><trkpt lat="45.40485" lon="10.626945"><ele>110.33333333333333</ele><time>2026-03-29T09:37:18.399Z</time></trkpt><trkpt lat="45.4046767" lon="10.626875"><ele>113.66666666666666</ele><time>2026-03-29T09:37:19.399Z</time></trkpt><trkpt lat="45.404515" lon="10.626805"><ele>117.0</ele><time>2026-03-29T09:37:20.399Z</time></trkpt><trkpt lat="45.4043567" lon="10.62675"><ele>119.0</ele><time>2026-03-29T09:37:21.399Z</time></trkpt><trkpt lat="45.404195" lon="10.6267183"><ele>121.0</ele><time>2026-03-29T09:37:22.399Z</time></trkpt><trkpt lat="45.404035" lon="10.6267467"><ele>123.0</ele><time>2026-03-29T09:37:23.399Z</time></trkpt><trkpt lat="45.4039017" lon="10.6267583"><ele>123.2</ele><time>2026-03-29T09:37:24.399Z</time></trkpt><trkpt lat="45.403785" lon="10.626785"><ele>123.4</ele><time>2026-03-29T09:37:25.4Z</time></trkpt><trkpt lat="45.4036883" lon="10.62681"><ele>123.60000000000001</ele><time>2026-03-29T09:37:26.399Z</time></trkpt><trkpt lat="45.4036117" lon="10.62681"><ele>123.80000000000001</ele><time>2026-03-29T09:37:27.4Z</time></trkpt><trkpt lat="45.403505" lon="10.6267767"><ele>124.0</ele><time>2026-03-29T09:37:29.399Z</time></trkpt><trkpt lat="45.4034283" lon="10.6267167"><ele>124.00000000000001</ele><time>2026-03-29T09:37:31.399Z</time></trkpt><trkpt lat="45.4033683" lon="10.626635"><ele>124.0</ele><time>2026-03-29T09:37:33.399Z</time></trkpt><trkpt lat="45.4033767" lon="10.626485"><ele>124.0</ele><time>2026-03-29T09:37:35.4Z</time></trkpt><trkpt lat="45.4034083" lon="10.626395"><ele>124.0</ele><time>2026-03-29T09:37:36.399Z</time></trkpt><trkpt lat="45.40343" lon="10.6262683"><ele>124.00000000000001</ele><time>2026-03-29T09:37:37.399Z</time></trkpt><trkpt lat="45.4034667" lon="10.6261467"><ele>124.0</ele><time>2026-03-29T09:37:38.399Z</time></trkpt><trkpt lat="45.4034783" lon="10.6260367"><ele>124.0</ele><time>2026-03-29T09:37:39.399Z</time></trkpt><trkpt lat="45.4034683" lon="10.6258483"><ele>124.0</ele><time>2026-03-29T09:37:41.399Z</time></trkpt><trkpt lat="45.4034583" lon="10.6257583"><ele>124.0</ele><time>2026-03-29T09:37:42.399Z</time></trkpt><trkpt lat="45.403455" lon="10.6255833"><ele>124.0</ele><time>2026-03-29T09:37:44.399Z</time></trkpt><trkpt lat="45.4034633" lon="10.6254867"><ele>124.0</ele><time>2026-03-29T09:37:45.399Z</time></trkpt><trkpt lat="45.4034833" lon="10.6254"><ele>124.00000000000001</ele><time>2026-03-29T09:37:46.399Z</time></trkpt><trkpt lat="45.403505" lon="10.625315"><ele>124.0</ele><time>2026-03-29T09:37:47.399Z</time></trkpt><trkpt lat="45.4035883" lon="10.6251817"><ele>124.0</ele><time>2026-03-29T09:37:49.399Z</time></trkpt><trkpt lat="45.40364" lon="10.6251183"><ele>124.0</ele><time>2026-03-29T09:37:50.4Z</time></trkpt><trkpt lat="45.4037" lon="10.6250567"><ele>124.00000000000001</ele><time>2026-03-29T09:37:51.399Z</time></trkpt><trkpt lat="45.4037817" lon="10.62499"><ele>124.0</ele><time>2026-03-29T09:37:52.399Z</time></trkpt><trkpt lat="45.4038617" lon="10.6249067"><ele>122.6</ele><time>2026-03-29T09:37:53.4Z</time></trkpt><trkpt lat="45.4039383" lon="10.6248183"><ele>121.2</ele><time>2026-03-29T09:37:54.4Z</time></trkpt><trkpt lat="45.4040017" lon="10.6247217"><ele>119.79999999999998</ele><time>2026-03-29T09:37:55.4Z</time></trkpt><trkpt lat="45.4040367" lon="10.6245583"><ele>118.39999999999999</ele><time>2026-03-29T09:37:57.399Z</time></trkpt><trkpt lat="45.4040117" lon="10.6244517"><ele>117.0</ele><time>2026-03-29T09:37:58.399Z</time></trkpt><trkpt lat="45.4039683" lon="10.6243233"><ele>116.0</ele><time>2026-03-29T09:37:59.399Z</time></trkpt><trkpt lat="45.4039217" lon="10.6241883"><ele>115.0</ele><time>2026-03-29T09:38:00.399Z</time></trkpt><trkpt lat="45.4038683" lon="10.6240533"><ele>114.0</ele><time>2026-03-29T09:38:01.4Z</time></trkpt><trkpt lat="45.4037983" lon="10.6239167"><ele>113.0</ele><time>2026-03-29T09:38:02.399Z</time></trkpt><trkpt lat="45.4037133" lon="10.623785"><ele>113.0</ele><time>2026-03-29T09:38:03.4Z</time></trkpt><trkpt lat="45.4036217" lon="10.6236483"><ele>113.0</ele><time>2026-03-29T09:38:04.4Z</time></trkpt><trkpt lat="45.4035433" lon="10.6235167"><ele>113.0</ele><time>2026-03-29T09:38:05.399Z</time></trkpt><trkpt lat="45.40347" lon="10.6233867"><ele>113.0</ele><time>2026-03-29T09:38:06.399Z</time></trkpt><trkpt lat="45.4034267" lon="10.6232483"><ele>111.80000000000001</ele><time>2026-03-29T09:38:07.399Z</time></trkpt><trkpt lat="45.403415" lon="10.6231133"><ele>110.60000000000001</ele><time>2026-03-29T09:38:08.399Z</time></trkpt><trkpt lat="45.4034367" lon="10.6229833"><ele>109.39999999999999</ele><time>2026-03-29T09:38:09.398Z</time></trkpt><trkpt lat="45.4034883" lon="10.62283"><ele>108.19999999999999</ele><time>2026-03-29T09:38:10.398Z</time></trkpt><trkpt lat="45.403545" lon="10.622655"><ele>107.0</ele><time>2026-03-29T09:38:11.398Z</time></trkpt><trkpt lat="45.403595" lon="10.6224767"><ele>105.75</ele><time>2026-03-29T09:38:12.398Z</time></trkpt><trkpt lat="45.4036317" lon="10.6222833"><ele>104.5</ele><time>2026-03-29T09:38:13.398Z</time></trkpt><trkpt lat="45.403665" lon="10.622075"><ele>103.25</ele><time>2026-03-29T09:38:14.398Z</time></trkpt><trkpt lat="45.4037017" lon="10.6218583"><ele>102.0</ele><time>2026-03-29T09:38:15.398Z</time></trkpt><trkpt lat="45.4037267" lon="10.6216633"><ele>100.5</ele><time>2026-03-29T09:38:16.398Z</time></trkpt><trkpt lat="45.4037583" lon="10.6214583"><ele>99.0</ele><time>2026-03-29T09:38:17.399Z</time></trkpt><trkpt lat="45.40378" lon="10.62127"><ele>97.5</ele><time>2026-03-29T09:38:18.399Z</time></trkpt><trkpt lat="45.40381" lon="10.6210883"><ele>96.0</ele><time>2026-03-29T09:38:19.398Z</time></trkpt><trkpt lat="45.40384" lon="10.6209183"><ele>95.25</ele><time>2026-03-29T09:38:20.399Z</time></trkpt><trkpt lat="45.4038867" lon="10.6207383"><ele>94.5</ele><time>2026-03-29T09:38:21.399Z</time></trkpt><trkpt lat="45.40395" lon="10.62057"><ele>93.75</ele><time>2026-03-29T09:38:22.398Z</time></trkpt><trkpt lat="45.4040367" lon="10.6204267"><ele>93.0</ele><time>2026-03-29T09:38:23.398Z</time></trkpt><trkpt lat="45.40412" lon="10.6202917"><ele>93.0</ele><time>2026-03-29T09:38:24.398Z</time></trkpt><trkpt lat="45.4042117" lon="10.6201683"><ele>93.0</ele><time>2026-03-29T09:38:25.398Z</time></trkpt><trkpt lat="45.4043167" lon="10.62004"><ele>93.0</ele><time>2026-03-29T09:38:26.398Z</time></trkpt><trkpt lat="45.40442" lon="10.6199333"><ele>93.0</ele><time>2026-03-29T09:38:27.398Z</time></trkpt><trkpt lat="45.4045133" lon="10.619815"><ele>93.0</ele><time>2026-03-29T09:38:28.398Z</time></trkpt><trkpt lat="45.4045867" lon="10.6197183"><ele>93.0</ele><time>2026-03-29T09:38:29.399Z</time></trkpt><trkpt lat="45.4046517" lon="10.6196367"><ele>93.0</ele><time>2026-03-29T09:38:30.398Z</time></trkpt><trkpt lat="45.40471" lon="10.6195683"><ele>93.0</ele><time>2026-03-29T09:38:31.398Z</time></trkpt><trkpt lat="45.40478" lon="10.6194983"><ele>93.0</ele><time>2026-03-29T09:38:32.398Z</time></trkpt><trkpt lat="45.40487" lon="10.619435"><ele>93.0</ele><time>2026-03-29T09:38:33.398Z</time></trkpt><trkpt lat="45.4049667" lon="10.6193717"><ele>92.4</ele><time>2026-03-29T09:38:34.398Z</time></trkpt><trkpt lat="45.4050583" lon="10.6193083"><ele>91.80000000000001</ele><time>2026-03-29T09:38:35.399Z</time></trkpt><trkpt lat="45.4051533" lon="10.6192483"><ele>91.2</ele><time>2026-03-29T09:38:36.398Z</time></trkpt><trkpt lat="45.405245" lon="10.619195"><ele>90.6</ele><time>2026-03-29T09:38:37.398Z</time></trkpt><trkpt lat="45.4053333" lon="10.619145"><ele>90.0</ele><time>2026-03-29T09:38:38.398Z</time></trkpt><trkpt lat="45.405435" lon="10.6191033"><ele>90.2</ele><time>2026-03-29T09:38:39.398Z</time></trkpt><trkpt lat="45.4055383" lon="10.6191083"><ele>90.4</ele><time>2026-03-29T09:38:40.398Z</time></trkpt><trkpt lat="45.4056317" lon="10.6191467"><ele>90.6</ele><time>2026-03-29T09:38:41.398Z</time></trkpt><trkpt lat="45.4057283" lon="10.6191933"><ele>90.8</ele><time>2026-03-29T09:38:42.398Z</time></trkpt><trkpt lat="45.4058267" lon="10.6192483"><ele>91.0</ele><time>2026-03-29T09:38:43.399Z</time></trkpt><trkpt lat="45.4059267" lon="10.6193067"><ele>91.0</ele><time>2026-03-29T09:38:44.398Z</time></trkpt><trkpt lat="45.4060217" lon="10.619365"><ele>91.0</ele><time>2026-03-29T09:38:45.398Z</time></trkpt><trkpt lat="45.4061133" lon="10.6194217"><ele>91.0</ele><time>2026-03-29T09:38:46.398Z</time></trkpt><trkpt lat="45.4062017" lon="10.6194583"><ele>91.0</ele><time>2026-03-29T09:38:47.398Z</time></trkpt><trkpt lat="45.40629" lon="10.6194833"><ele>91.0</ele><time>2026-03-29T09:38:48.398Z</time></trkpt><trkpt lat="45.406375" lon="10.6194967"><ele>91.0</ele><time>2026-03-29T09:38:49.398Z</time></trkpt><trkpt lat="45.4064583" lon="10.6194817"><ele>91.0</ele><time>2026-03-29T09:38:50.398Z</time></trkpt><trkpt lat="45.406535" lon="10.6194617"><ele>91.0</ele><time>2026-03-29T09:38:51.398Z</time></trkpt><trkpt lat="45.406615" lon="10.6194017"><ele>91.0</ele><time>2026-03-29T09:38:52.398Z</time></trkpt><trkpt lat="45.406665" lon="10.6193183"><ele>91.0</ele><time>2026-03-29T09:38:53.398Z</time></trkpt><trkpt lat="45.4067067" lon="10.619215"><ele>91.0</ele><time>2026-03-29T09:38:54.398Z</time></trkpt><trkpt lat="45.4067233" lon="10.6190883"><ele>91.0</ele><time>2026-03-29T09:38:55.398Z</time></trkpt><trkpt lat="45.406725" lon="10.6189717"><ele>91.0</ele><time>2026-03-29T09:38:56.398Z</time></trkpt><trkpt lat="45.406705" lon="10.6188567"><ele>91.0</ele><time>2026-03-29T09:38:57.398Z</time></trkpt><trkpt lat="45.4066617" lon="10.6187583"><ele>91.0</ele><time>2026-03-29T09:38:58.398Z</time></trkpt><trkpt lat="45.4066017" lon="10.61867"><ele>91.0</ele><time>2026-03-29T09:38:59.398Z</time></trkpt><trkpt lat="45.4065233" lon="10.6185883"><ele>91.0</ele><time>2026-03-29T09:39:00.398Z</time></trkpt><trkpt lat="45.4064367" lon="10.61849"><ele>91.0</ele><time>2026-03-29T09:39:01.398Z</time></trkpt><trkpt lat="45.4063533" lon="10.61839"><ele>91.0</ele><time>2026-03-29T09:39:02.398Z</time></trkpt><trkpt lat="45.4062717" lon="10.6182883"><ele>91.0</ele><time>2026-03-29T09:39:03.399Z</time></trkpt><trkpt lat="45.4061967" lon="10.6181767"><ele>91.0</ele><time>2026-03-29T09:39:04.399Z</time></trkpt><trkpt lat="45.4061217" lon="10.6180917"><ele>91.0</ele><time>2026-03-29T09:39:05.398Z</time></trkpt><trkpt lat="45.4060433" lon="10.6180033"><ele>91.0</ele><time>2026-03-29T09:39:06.399Z</time></trkpt><trkpt lat="45.4059617" lon="10.617915"><ele>91.0</ele><time>2026-03-29T09:39:07.399Z</time></trkpt><trkpt lat="45.4058767" lon="10.6178383"><ele>91.0</ele><time>2026-03-29T09:39:08.398Z</time></trkpt><trkpt lat="45.4057883" lon="10.6177683"><ele>91.0</ele><time>2026-03-29T09:39:09.398Z</time></trkpt><trkpt lat="45.4057033" lon="10.617705"><ele>91.0</ele><time>2026-03-29T09:39:10.398Z</time></trkpt><trkpt lat="45.4056233" lon="10.617635"><ele>90.83333333333333</ele><time>2026-03-29T09:39:11.398Z</time></trkpt><trkpt lat="45.4055583" lon="10.617565"><ele>90.66666666666666</ele><time>2026-03-29T09:39:12.398Z</time></trkpt><trkpt lat="45.405525" lon="10.6174767"><ele>90.5</ele><time>2026-03-29T09:39:13.398Z</time></trkpt><trkpt lat="45.4055067" lon="10.6173867"><ele>90.33333333333333</ele><time>2026-03-29T09:39:14.399Z</time></trkpt><trkpt lat="45.4054933" lon="10.6172167"><ele>90.16666666666667</ele><time>2026-03-29T09:39:16.398Z</time></trkpt><trkpt lat="45.4054867" lon="10.61712"><ele>90.0</ele><time>2026-03-29T09:39:17.398Z</time></trkpt><trkpt lat="45.405485" lon="10.6170183"><ele>90.33333333333333</ele><time>2026-03-29T09:39:18.398Z</time></trkpt><trkpt lat="45.40548" lon="10.6169033"><ele>90.66666666666667</ele><time>2026-03-29T09:39:19.398Z</time></trkpt><trkpt lat="45.4054683" lon="10.6167917"><ele>91.0</ele><time>2026-03-29T09:39:20.399Z</time></trkpt><trkpt lat="45.4054617" lon="10.6166733"><ele>91.33333333333334</ele><time>2026-03-29T09:39:21.398Z</time></trkpt><trkpt lat="45.4054517" lon="10.616545"><ele>91.66666666666667</ele><time>2026-03-29T09:39:22.398Z</time></trkpt><trkpt lat="45.40545" lon="10.6164183"><ele>92.0</ele><time>2026-03-29T09:39:23.398Z</time></trkpt><trkpt lat="45.405445" lon="10.6162817"><ele>92.19999999999999</ele><time>2026-03-29T09:39:24.398Z</time></trkpt><trkpt lat="45.4054417" lon="10.616145"><ele>92.4</ele><time>2026-03-29T09:39:25.398Z</time></trkpt><trkpt lat="45.4054517" lon="10.6160067"><ele>92.6</ele><time>2026-03-29T09:39:26.399Z</time></trkpt><trkpt lat="45.405455" lon="10.6158617"><ele>92.80000000000001</ele><time>2026-03-29T09:39:27.399Z</time></trkpt><trkpt lat="45.4054533" lon="10.6157083"><ele>93.0</ele><time>2026-03-29T09:39:28.398Z</time></trkpt><trkpt lat="45.4054467" lon="10.6155617"><ele>93.0</ele><time>2026-03-29T09:39:29.398Z</time></trkpt><trkpt lat="45.40545" lon="10.6154167"><ele>93.0</ele><time>2026-03-29T09:39:30.398Z</time></trkpt><trkpt lat="45.4054517" lon="10.6152767"><ele>93.0</ele><time>2026-03-29T09:39:31.398Z</time></trkpt><trkpt lat="45.405455" lon="10.6151467"><ele>93.0</ele><time>2026-03-29T09:39:32.398Z</time></trkpt><trkpt lat="45.4054583" lon="10.6150317"><ele>93.0</ele><time>2026-03-29T09:39:33.398Z</time></trkpt><trkpt lat="45.405465" lon="10.61492"><ele>93.0</ele><time>2026-03-29T09:39:34.398Z</time></trkpt><trkpt lat="45.4054783" lon="10.614805"><ele>93.0</ele><time>2026-03-29T09:39:35.399Z</time></trkpt><trkpt lat="45.4054867" lon="10.614685"><ele>93.0</ele><time>2026-03-29T09:39:36.398Z</time></trkpt><trkpt lat="45.4055017" lon="10.6145667"><ele>93.0</ele><time>2026-03-29T09:39:37.399Z</time></trkpt><trkpt lat="45.40552" lon="10.6144367"><ele>93.0</ele><time>2026-03-29T09:39:38.398Z</time></trkpt><trkpt lat="45.4055383" lon="10.614305"><ele>93.0</ele><time>2026-03-29T09:39:39.398Z</time></trkpt><trkpt lat="45.4055533" lon="10.61417"><ele>94.4</ele><time>2026-03-29T09:39:40.398Z</time></trkpt><trkpt lat="45.4055567" lon="10.614035"><ele>95.80000000000001</ele><time>2026-03-29T09:39:41.398Z</time></trkpt><trkpt lat="45.4055567" lon="10.613895"><ele>97.2</ele><time>2026-03-29T09:39:42.398Z</time></trkpt><trkpt lat="45.4055583" lon="10.6137533"><ele>98.6</ele><time>2026-03-29T09:39:43.398Z</time></trkpt><trkpt lat="45.4055533" lon="10.613625"><ele>100.0</ele><time>2026-03-29T09:39:44.398Z</time></trkpt><trkpt lat="45.40554" lon="10.6135117"><ele>100.00000000000001</ele><time>2026-03-29T09:39:45.398Z</time></trkpt><trkpt lat="45.4055283" lon="10.613405"><ele>100.0</ele><time>2026-03-29T09:39:46.398Z</time></trkpt><trkpt lat="45.40552" lon="10.6132883"><ele>100.0</ele><time>2026-03-29T09:39:47.398Z</time></trkpt><trkpt lat="45.40552" lon="10.6131617"><ele>100.0</ele><time>2026-03-29T09:39:48.398Z</time></trkpt><trkpt lat="45.4055233" lon="10.6130267"><ele>100.00000000000001</ele><time>2026-03-29T09:39:49.398Z</time></trkpt><trkpt lat="45.4055317" lon="10.6128867"><ele>100.0</ele><time>2026-03-29T09:39:50.398Z</time></trkpt><trkpt lat="45.4055417" lon="10.6127533"><ele>100.00000000000001</ele><time>2026-03-29T09:39:51.399Z</time></trkpt><trkpt lat="45.4055567" lon="10.6126267"><ele>100.0</ele><time>2026-03-29T09:39:52.398Z</time></trkpt><trkpt lat="45.4055483" lon="10.6125067"><ele>100.0</ele><time>2026-03-29T09:39:53.398Z</time></trkpt><trkpt lat="45.4055267" lon="10.6124017"><ele>100.0</ele><time>2026-03-29T09:39:54.398Z</time></trkpt><trkpt lat="45.4054933" lon="10.6122983"><ele>100.00000000000001</ele><time>2026-03-29T09:39:55.398Z</time></trkpt><trkpt lat="45.40545" lon="10.612205"><ele>100.0</ele><time>2026-03-29T09:39:56.398Z</time></trkpt><trkpt lat="45.40539" lon="10.6121067"><ele>99.6</ele><time>2026-03-29T09:39:57.398Z</time></trkpt><trkpt lat="45.4053033" lon="10.6120317"><ele>99.2</ele><time>2026-03-29T09:39:58.398Z</time></trkpt><trkpt lat="45.4052033" lon="10.6119733"><ele>98.80000000000001</ele><time>2026-03-29T09:39:59.398Z</time></trkpt><trkpt lat="45.4051133" lon="10.6118933"><ele>98.4</ele><time>2026-03-29T09:40:00.398Z</time></trkpt><trkpt lat="45.4050417" lon="10.611815"><ele>98.0</ele><time>2026-03-29T09:40:01.398Z</time></trkpt><trkpt lat="45.4049733" lon="10.6117517"><ele>97.99999999999999</ele><time>2026-03-29T09:40:02.398Z</time></trkpt><trkpt lat="45.40493" lon="10.61168"><ele>98.0</ele><time>2026-03-29T09:40:03.398Z</time></trkpt><trkpt lat="45.404895" lon="10.6115967"><ele>98.0</ele><time>2026-03-29T09:40:04.398Z</time></trkpt><trkpt lat="45.404875" lon="10.6114833"><ele>98.0</ele><time>2026-03-29T09:40:05.398Z</time></trkpt><trkpt lat="45.4048717" lon="10.6113633"><ele>97.99999999999999</ele><time>2026-03-29T09:40:06.398Z</time></trkpt><trkpt lat="45.40486" lon="10.6112133"><ele>98.0</ele><time>2026-03-29T09:40:07.398Z</time></trkpt><trkpt lat="45.4048517" lon="10.611055"><ele>98.2</ele><time>2026-03-29T09:40:08.398Z</time></trkpt><trkpt lat="45.4048517" lon="10.61091"><ele>98.4</ele><time>2026-03-29T09:40:09.398Z</time></trkpt><trkpt lat="45.4048583" lon="10.6107567"><ele>98.60000000000001</ele><time>2026-03-29T09:40:10.398Z</time></trkpt><trkpt lat="45.4048617" lon="10.6105917"><ele>98.80000000000001</ele><time>2026-03-29T09:40:11.398Z</time></trkpt><trkpt lat="45.40487" lon="10.610425"><ele>99.0</ele><time>2026-03-29T09:40:12.399Z</time></trkpt><trkpt lat="45.404875" lon="10.6102617"><ele>99.0</ele><time>2026-03-29T09:40:13.398Z</time></trkpt><trkpt lat="45.4048767" lon="10.6101117"><ele>99.0</ele><time>2026-03-29T09:40:14.398Z</time></trkpt><trkpt lat="45.4048817" lon="10.6099533"><ele>99.0</ele><time>2026-03-29T09:40:15.399Z</time></trkpt><trkpt lat="45.40489" lon="10.6098167"><ele>99.0</ele><time>2026-03-29T09:40:16.398Z</time></trkpt><trkpt lat="45.40491" lon="10.6096783"><ele>99.0</ele><time>2026-03-29T09:40:17.398Z</time></trkpt><trkpt lat="45.4049267" lon="10.609535"><ele>99.4</ele><time>2026-03-29T09:40:18.398Z</time></trkpt><trkpt lat="45.40494" lon="10.6093983"><ele>99.80000000000001</ele><time>2026-03-29T09:40:19.398Z</time></trkpt><trkpt lat="45.4049533" lon="10.6092567"><ele>100.19999999999999</ele><time>2026-03-29T09:40:20.399Z</time></trkpt><trkpt lat="45.4049667" lon="10.6091117"><ele>100.6</ele><time>2026-03-29T09:40:21.398Z</time></trkpt><trkpt lat="45.4049817" lon="10.608965"><ele>101.0</ele><time>2026-03-29T09:40:22.398Z</time></trkpt><trkpt lat="45.4049967" lon="10.60882"><ele>101.0</ele><time>2026-03-29T09:40:23.398Z</time></trkpt><trkpt lat="45.405005" lon="10.6086733"><ele>101.0</ele><time>2026-03-29T09:40:24.399Z</time></trkpt><trkpt lat="45.4050133" lon="10.6085267"><ele>101.0</ele><time>2026-03-29T09:40:25.399Z</time></trkpt><trkpt lat="45.4050167" lon="10.6083633"><ele>101.0</ele><time>2026-03-29T09:40:26.398Z</time></trkpt><trkpt lat="45.40502" lon="10.6081933"><ele>101.0</ele><time>2026-03-29T09:40:27.398Z</time></trkpt><trkpt lat="45.40503" lon="10.6080183"><ele>101.0</ele><time>2026-03-29T09:40:28.398Z</time></trkpt><trkpt lat="45.405035" lon="10.6078617"><ele>101.0</ele><time>2026-03-29T09:40:29.398Z</time></trkpt><trkpt lat="45.4050417" lon="10.6077083"><ele>101.0</ele><time>2026-03-29T09:40:30.399Z</time></trkpt><trkpt lat="45.40505" lon="10.6075483"><ele>101.0</ele><time>2026-03-29T09:40:31.398Z</time></trkpt><trkpt lat="45.405055" lon="10.6073867"><ele>101.0</ele><time>2026-03-29T09:40:32.398Z</time></trkpt><trkpt lat="45.4050667" lon="10.607215"><ele>100.5</ele><time>2026-03-29T09:40:33.399Z</time></trkpt><trkpt lat="45.40507" lon="10.6070467"><ele>100.0</ele><time>2026-03-29T09:40:34.398Z</time></trkpt><trkpt lat="45.4050767" lon="10.6068783"><ele>99.5</ele><time>2026-03-29T09:40:35.398Z</time></trkpt><trkpt lat="45.40509" lon="10.606705"><ele>99.0</ele><time>2026-03-29T09:40:36.398Z</time></trkpt><trkpt lat="45.4051167" lon="10.6065367"><ele>98.75</ele><time>2026-03-29T09:40:37.399Z</time></trkpt><trkpt lat="45.4051367" lon="10.6063567"><ele>98.5</ele><time>2026-03-29T09:40:38.398Z</time></trkpt><trkpt lat="45.40516" lon="10.6061883"><ele>98.25</ele><time>2026-03-29T09:40:39.398Z</time></trkpt><trkpt lat="45.4051783" lon="10.60603"><ele>98.0</ele><time>2026-03-29T09:40:40.398Z</time></trkpt><trkpt lat="45.4052033" lon="10.6058667"><ele>98.0</ele><time>2026-03-29T09:40:41.398Z</time></trkpt><trkpt lat="45.405225" lon="10.6057"><ele>98.0</ele><time>2026-03-29T09:40:42.398Z</time></trkpt><trkpt lat="45.40524" lon="10.6055317"><ele>98.0</ele><time>2026-03-29T09:40:43.398Z</time></trkpt><trkpt lat="45.4052483" lon="10.6053633"><ele>98.0</ele><time>2026-03-29T09:40:44.398Z</time></trkpt><trkpt lat="45.40525" lon="10.6051933"><ele>98.0</ele><time>2026-03-29T09:40:45.399Z</time></trkpt><trkpt lat="45.405245" lon="10.6050367"><ele>98.0</ele><time>2026-03-29T09:40:46.398Z</time></trkpt><trkpt lat="45.40522" lon="10.6049233"><ele>98.0</ele><time>2026-03-29T09:40:47.398Z</time></trkpt><trkpt lat="45.4051817" lon="10.60483"><ele>98.0</ele><time>2026-03-29T09:40:48.398Z</time></trkpt><trkpt lat="45.40513" lon="10.6047383"><ele>98.0</ele><time>2026-03-29T09:40:49.398Z</time></trkpt><trkpt lat="45.405065" lon="10.6046283"><ele>97.99999999999999</ele><time>2026-03-29T09:40:50.398Z</time></trkpt><trkpt lat="45.4050067" lon="10.6045167"><ele>98.0</ele><time>2026-03-29T09:40:51.399Z</time></trkpt><trkpt lat="45.4049533" lon="10.6044167"><ele>98.0</ele><time>2026-03-29T09:40:52.398Z</time></trkpt><trkpt lat="45.4049017" lon="10.60433"><ele>98.0</ele><time>2026-03-29T09:40:53.398Z</time></trkpt><trkpt lat="45.404845" lon="10.6042583"><ele>97.99999999999999</ele><time>2026-03-29T09:40:54.398Z</time></trkpt><trkpt lat="45.4047767" lon="10.6041967"><ele>98.0</ele><time>2026-03-29T09:40:55.398Z</time></trkpt><trkpt lat="45.4047133" lon="10.6041617"><ele>97.16666666666666</ele><time>2026-03-29T09:40:56.398Z</time></trkpt><trkpt lat="45.4046417" lon="10.6041583"><ele>96.33333333333333</ele><time>2026-03-29T09:40:57.398Z</time></trkpt><trkpt lat="45.4045333" lon="10.6042083"><ele>95.5</ele><time>2026-03-29T09:40:59.398Z</time></trkpt><trkpt lat="45.40444" lon="10.6042233"><ele>94.66666666666666</ele><time>2026-03-29T09:41:01.398Z</time></trkpt><trkpt lat="45.4043633" lon="10.6041833"><ele>93.83333333333333</ele><time>2026-03-29T09:41:03.399Z</time></trkpt><trkpt lat="45.4043033" lon="10.60413"><ele>93.0</ele><time>2026-03-29T09:41:05.398Z</time></trkpt><trkpt lat="45.4042483" lon="10.604085"><ele>93.0</ele><time>2026-03-29T09:41:10.399Z</time></trkpt><trkpt lat="45.404185" lon="10.6040183"><ele>93.0</ele><time>2026-03-29T09:41:21.398Z</time></trkpt><trkpt lat="45.4041233" lon="10.6039683"><ele>93.0</ele><time>2026-03-29T09:41:23.398Z</time></trkpt><trkpt lat="45.4040533" lon="10.6039167"><ele>93.0</ele><time>2026-03-29T09:41:25.399Z</time></trkpt><trkpt lat="45.4039783" lon="10.6038817"><ele>93.0</ele><time>2026-03-29T09:41:27.398Z</time></trkpt><trkpt lat="45.403925" lon="10.60377"><ele>93.0</ele><time>2026-03-29T09:41:29.398Z</time></trkpt><trkpt lat="45.4039117" lon="10.6036067"><ele>93.0</ele><time>2026-03-29T09:41:31.398Z</time></trkpt><trkpt lat="45.4039367" lon="10.603515"><ele>93.0</ele><time>2026-03-29T09:41:32.399Z</time></trkpt><trkpt lat="45.4039683" lon="10.603415"><ele>93.0</ele><time>2026-03-29T09:41:33.398Z</time></trkpt><trkpt lat="45.4040067" lon="10.6033133"><ele>93.0</ele><time>2026-03-29T09:41:34.398Z</time></trkpt><trkpt lat="45.4040233" lon="10.60322"><ele>93.0</ele><time>2026-03-29T09:41:35.399Z</time></trkpt><trkpt lat="45.4040117" lon="10.60309"><ele>93.0</ele><time>2026-03-29T09:41:37.398Z</time></trkpt><trkpt lat="45.4039417" lon="10.603025"><ele>93.00000000000001</ele><time>2026-03-29T09:41:39.398Z</time></trkpt><trkpt lat="45.4038767" lon="10.6030283"><ele>93.0</ele><time>2026-03-29T09:41:40.399Z</time></trkpt><trkpt lat="45.4038017" lon="10.6030367"><ele>93.0</ele><time>2026-03-29T09:41:41.399Z</time></trkpt><trkpt lat="45.4037233" lon="10.6030317"><ele>93.0</ele><time>2026-03-29T09:41:42.398Z</time></trkpt><trkpt lat="45.403645" lon="10.60301"><ele>93.0</ele><time>2026-03-29T09:41:43.398Z</time></trkpt><trkpt lat="45.4035767" lon="10.6029833"><ele>93.00000000000001</ele><time>2026-03-29T09:41:44.398Z</time></trkpt><trkpt lat="45.4035033" lon="10.602965"><ele>93.0</ele><time>2026-03-29T09:41:45.398Z</time></trkpt><trkpt lat="45.4034233" lon="10.6029567"><ele>93.33333333333333</ele><time>2026-03-29T09:41:46.399Z</time></trkpt><trkpt lat="45.4033433" lon="10.6029417"><ele>93.66666666666667</ele><time>2026-03-29T09:41:47.398Z</time></trkpt><trkpt lat="45.4032717" lon="10.6029417"><ele>94.0</ele><time>2026-03-29T09:41:48.399Z</time></trkpt><trkpt lat="45.40315" lon="10.6029033"><ele>94.33333333333334</ele><time>2026-03-29T09:41:50.398Z</time></trkpt><trkpt lat="45.403095" lon="10.6028583"><ele>94.66666666666667</ele><time>2026-03-29T09:41:51.398Z</time></trkpt><trkpt lat="45.40304" lon="10.6028067"><ele>95.0</ele><time>2026-03-29T09:41:52.398Z</time></trkpt><trkpt lat="45.402975" lon="10.6027167"><ele>95.2</ele><time>2026-03-29T09:41:54.398Z</time></trkpt><trkpt lat="45.402975" lon="10.602625"><ele>95.4</ele><time>2026-03-29T09:41:56.398Z</time></trkpt><trkpt lat="45.4029967" lon="10.6024183"><ele>95.6</ele><time>2026-03-29T09:41:58.399Z</time></trkpt><trkpt lat="45.4029967" lon="10.6022633"><ele>95.8</ele><time>2026-03-29T09:41:59.398Z</time></trkpt><trkpt lat="45.40301" lon="10.6020983"><ele>96.0</ele><time>2026-03-29T09:42:00.398Z</time></trkpt><trkpt lat="45.4030117" lon="10.6019317"><ele>96.0</ele><time>2026-03-29T09:42:01.398Z</time></trkpt><trkpt lat="45.40302" lon="10.601755"><ele>96.0</ele><time>2026-03-29T09:42:02.398Z</time></trkpt><trkpt lat="45.403025" lon="10.601565"><ele>96.0</ele><time>2026-03-29T09:42:03.398Z</time></trkpt><trkpt lat="45.403025" lon="10.601375"><ele>96.0</ele><time>2026-03-29T09:42:04.398Z</time></trkpt><trkpt lat="45.403035" lon="10.6011867"><ele>96.0</ele><time>2026-03-29T09:42:05.398Z</time></trkpt><trkpt lat="45.4030483" lon="10.6009917"><ele>96.0</ele><time>2026-03-29T09:42:06.398Z</time></trkpt><trkpt lat="45.4030583" lon="10.6007917"><ele>96.0</ele><time>2026-03-29T09:42:07.398Z</time></trkpt><trkpt lat="45.4030733" lon="10.6005817"><ele>96.0</ele><time>2026-03-29T09:42:08.399Z</time></trkpt><trkpt lat="45.4030833" lon="10.6003733"><ele>96.75</ele><time>2026-03-29T09:42:09.398Z</time></trkpt><trkpt lat="45.4030817" lon="10.6001567"><ele>97.5</ele><time>2026-03-29T09:42:10.398Z</time></trkpt><trkpt lat="45.4030733" lon="10.599945"><ele>98.25</ele><time>2026-03-29T09:42:11.398Z</time></trkpt><trkpt lat="45.4030567" lon="10.59977"><ele>99.0</ele><time>2026-03-29T09:42:12.398Z</time></trkpt><trkpt lat="45.4030467" lon="10.5996017"><ele>98.5</ele><time>2026-03-29T09:42:13.398Z</time></trkpt><trkpt lat="45.40306" lon="10.599455"><ele>98.0</ele><time>2026-03-29T09:42:14.398Z</time></trkpt><trkpt lat="45.4030733" lon="10.5992933"><ele>97.5</ele><time>2026-03-29T09:42:15.398Z</time></trkpt><trkpt lat="45.4030733" lon="10.5991217"><ele>97.0</ele><time>2026-03-29T09:42:16.398Z</time></trkpt><trkpt lat="45.40307" lon="10.598945"><ele>97.0</ele><time>2026-03-29T09:42:17.398Z</time></trkpt><trkpt lat="45.4030583" lon="10.59879"><ele>97.0</ele><time>2026-03-29T09:42:18.398Z</time></trkpt><trkpt lat="45.4030517" lon="10.598635"><ele>97.0</ele><time>2026-03-29T09:42:19.398Z</time></trkpt><trkpt lat="45.4030517" lon="10.5985083"><ele>97.0</ele><time>2026-03-29T09:42:20.399Z</time></trkpt><trkpt lat="45.4030567" lon="10.5983683"><ele>97.0</ele><time>2026-03-29T09:42:21.398Z</time></trkpt><trkpt lat="45.4030667" lon="10.5982267"><ele>96.8</ele><time>2026-03-29T09:42:22.398Z</time></trkpt><trkpt lat="45.4030683" lon="10.5980967"><ele>96.6</ele><time>2026-03-29T09:42:23.399Z</time></trkpt><trkpt lat="45.4030667" lon="10.5979583"><ele>96.39999999999999</ele><time>2026-03-29T09:42:24.398Z</time></trkpt><trkpt lat="45.4030667" lon="10.5978183"><ele>96.19999999999999</ele><time>2026-03-29T09:42:25.398Z</time></trkpt><trkpt lat="45.4030483" lon="10.5976883"><ele>96.0</ele><time>2026-03-29T09:42:26.398Z</time></trkpt><trkpt lat="45.4030433" lon="10.5975717"><ele>95.8</ele><time>2026-03-29T09:42:27.399Z</time></trkpt><trkpt lat="45.4030883" lon="10.59745"><ele>95.6</ele><time>2026-03-29T09:42:29.398Z</time></trkpt><trkpt lat="45.4032083" lon="10.5974617"><ele>95.4</ele><time>2026-03-29T09:42:31.397Z</time></trkpt><trkpt lat="45.4032717" lon="10.5974817"><ele>95.2</ele><time>2026-03-29T09:42:32.398Z</time></trkpt><trkpt lat="45.4033667" lon="10.5974517"><ele>95.0</ele><time>2026-03-29T09:42:34.397Z</time></trkpt><trkpt lat="45.4033983" lon="10.5972833"><ele>95.0</ele><time>2026-03-29T09:42:36.397Z</time></trkpt><trkpt lat="45.4034033" lon="10.5971583"><ele>95.0</ele><time>2026-03-29T09:42:37.397Z</time></trkpt><trkpt lat="45.403405" lon="10.5970383"><ele>95.0</ele><time>2026-03-29T09:42:38.397Z</time></trkpt><trkpt lat="45.4033983" lon="10.5969483"><ele>95.0</ele><time>2026-03-29T09:42:39.397Z</time></trkpt><trkpt lat="45.403335" lon="10.5968433"><ele>95.0</ele><time>2026-03-29T09:42:41.397Z</time></trkpt><trkpt lat="45.40319" lon="10.5968367"><ele>95.25</ele><time>2026-03-29T09:42:43.397Z</time></trkpt><trkpt lat="45.40308" lon="10.596855"><ele>95.5</ele><time>2026-03-29T09:42:44.397Z</time></trkpt><trkpt lat="45.4029733" lon="10.59687"><ele>95.75</ele><time>2026-03-29T09:42:45.397Z</time></trkpt><trkpt lat="45.4028517" lon="10.5968733"><ele>96.0</ele><time>2026-03-29T09:42:46.398Z</time></trkpt><trkpt lat="45.402725" lon="10.5968583"><ele>97.5</ele><time>2026-03-29T09:42:47.397Z</time></trkpt><trkpt lat="45.4025967" lon="10.5968433"><ele>99.0</ele><time>2026-03-29T09:42:48.397Z</time></trkpt><trkpt lat="45.4024583" lon="10.59683"><ele>100.5</ele><time>2026-03-29T09:42:49.397Z</time></trkpt><trkpt lat="45.402325" lon="10.5968083"><ele>102.0</ele><time>2026-03-29T09:42:50.397Z</time></trkpt><trkpt lat="45.402195" lon="10.596785"><ele>103.39999999999999</ele><time>2026-03-29T09:42:51.397Z</time></trkpt><trkpt lat="45.4020617" lon="10.5967467"><ele>104.8</ele><time>2026-03-29T09:42:52.397Z</time></trkpt><trkpt lat="45.4019567" lon="10.5967183"><ele>106.2</ele><time>2026-03-29T09:42:53.397Z</time></trkpt><trkpt lat="45.4018783" lon="10.5966933"><ele>107.6</ele><time>2026-03-29T09:42:54.397Z</time></trkpt><trkpt lat="45.40181" lon="10.5966833"><ele>109.0</ele><time>2026-03-29T09:42:55.397Z</time></trkpt><trkpt lat="45.4017467" lon="10.5966983"><ele>109.0</ele><time>2026-03-29T09:42:56.397Z</time></trkpt><trkpt lat="45.40165" lon="10.5968"><ele>109.0</ele><time>2026-03-29T09:42:58.397Z</time></trkpt><trkpt lat="45.4016183" lon="10.5968933"><ele>109.0</ele><time>2026-03-29T09:42:59.397Z</time></trkpt><trkpt lat="45.4015783" lon="10.5969683"><ele>109.0</ele><time>2026-03-29T09:43:00.398Z</time></trkpt><trkpt lat="45.4015" lon="10.597035"><ele>109.0</ele><time>2026-03-29T09:43:02.397Z</time></trkpt><trkpt lat="45.40138" lon="10.59702"><ele>110.71428571428572</ele><time>2026-03-29T09:43:04.397Z</time></trkpt><trkpt lat="45.4013067" lon="10.5970217"><ele>112.42857142857143</ele><time>2026-03-29T09:43:05.397Z</time></trkpt><trkpt lat="45.401225" lon="10.5970283"><ele>114.14285714285714</ele><time>2026-03-29T09:43:06.397Z</time></trkpt><trkpt lat="45.4011467" lon="10.5970517"><ele>115.85714285714286</ele><time>2026-03-29T09:43:07.397Z</time></trkpt><trkpt lat="45.401075" lon="10.5970617"><ele>117.57142857142856</ele><time>2026-03-29T09:43:08.398Z</time></trkpt><trkpt lat="45.401015" lon="10.5970933"><ele>119.28571428571428</ele><time>2026-03-29T09:43:09.397Z</time></trkpt><trkpt lat="45.4009667" lon="10.5971567"><ele>121.0</ele><time>2026-03-29T09:43:10.397Z</time></trkpt><trkpt lat="45.4009233" lon="10.5972333"><ele>121.0</ele><time>2026-03-29T09:43:11.398Z</time></trkpt><trkpt lat="45.4008683" lon="10.5973083"><ele>121.0</ele><time>2026-03-29T09:43:12.397Z</time></trkpt><trkpt lat="45.400795" lon="10.5973733"><ele>121.0</ele><time>2026-03-29T09:43:13.397Z</time></trkpt><trkpt lat="45.4006967" lon="10.5974183"><ele>121.0</ele><time>2026-03-29T09:43:14.397Z</time></trkpt><trkpt lat="45.4005783" lon="10.5974533"><ele>121.0</ele><time>2026-03-29T09:43:15.398Z</time></trkpt><trkpt lat="45.4004783" lon="10.59747"><ele>120.16666666666667</ele><time>2026-03-29T09:43:16.398Z</time></trkpt><trkpt lat="45.4003717" lon="10.5975067"><ele>119.33333333333334</ele><time>2026-03-29T09:43:17.397Z</time></trkpt><trkpt lat="45.4002967" lon="10.597545"><ele>118.5</ele><time>2026-03-29T09:43:18.397Z</time></trkpt><trkpt lat="45.4002217" lon="10.597575"><ele>117.66666666666666</ele><time>2026-03-29T09:43:20.397Z</time></trkpt><trkpt lat="45.4001867" lon="10.5974483"><ele>116.83333333333333</ele><time>2026-03-29T09:43:22.397Z</time></trkpt><trkpt lat="45.400165" lon="10.5973417"><ele>116.0</ele><time>2026-03-29T09:43:23.397Z</time></trkpt><trkpt lat="45.40015" lon="10.59721"><ele>116.0</ele><time>2026-03-29T09:43:24.397Z</time></trkpt><trkpt lat="45.4001317" lon="10.5970633"><ele>116.0</ele><time>2026-03-29T09:43:25.397Z</time></trkpt><trkpt lat="45.40012" lon="10.59687"><ele>116.0</ele><time>2026-03-29T09:43:26.398Z</time></trkpt><trkpt lat="45.400105" lon="10.596665"><ele>116.0</ele><time>2026-03-29T09:43:27.397Z</time></trkpt><trkpt lat="45.400085" lon="10.596465"><ele>116.25</ele><time>2026-03-29T09:43:28.397Z</time></trkpt><trkpt lat="45.4000833" lon="10.596255"><ele>116.5</ele><time>2026-03-29T09:43:29.397Z</time></trkpt><trkpt lat="45.4000867" lon="10.5960317"><ele>116.75</ele><time>2026-03-29T09:43:30.398Z</time></trkpt><trkpt lat="45.400105" lon="10.5958317"><ele>117.0</ele><time>2026-03-29T09:43:31.397Z</time></trkpt><trkpt lat="45.4001017" lon="10.5956533"><ele>117.0</ele><time>2026-03-29T09:43:32.397Z</time></trkpt><trkpt lat="45.400095" lon="10.5955067"><ele>116.99999999999999</ele><time>2026-03-29T09:43:33.397Z</time></trkpt><trkpt lat="45.4000867" lon="10.5954"><ele>116.99999999999999</ele><time>2026-03-29T09:43:34.397Z</time></trkpt><trkpt lat="45.4000533" lon="10.5952767"><ele>117.0</ele><time>2026-03-29T09:43:36.398Z</time></trkpt><trkpt lat="45.4000183" lon="10.5951667"><ele>117.0</ele><time>2026-03-29T09:44:01.397Z</time></trkpt><trkpt lat="45.399985" lon="10.59503"><ele>116.83333333333333</ele><time>2026-03-29T09:44:03.397Z</time></trkpt><trkpt lat="45.399965" lon="10.5949433"><ele>116.66666666666666</ele><time>2026-03-29T09:44:04.398Z</time></trkpt><trkpt lat="45.399935" lon="10.59485"><ele>116.5</ele><time>2026-03-29T09:44:05.397Z</time></trkpt><trkpt lat="45.3998917" lon="10.59475"><ele>116.33333333333333</ele><time>2026-03-29T09:44:06.397Z</time></trkpt><trkpt lat="45.3998533" lon="10.5946517"><ele>116.16666666666666</ele><time>2026-03-29T09:44:07.397Z</time></trkpt><trkpt lat="45.3998033" lon="10.594545"><ele>116.0</ele><time>2026-03-29T09:44:08.398Z</time></trkpt><trkpt lat="45.3997617" lon="10.59443"><ele>116.0</ele><time>2026-03-29T09:44:09.397Z</time></trkpt><trkpt lat="45.3997217" lon="10.5943133"><ele>116.0</ele><time>2026-03-29T09:44:10.397Z</time></trkpt><trkpt lat="45.399675" lon="10.5942017"><ele>116.0</ele><time>2026-03-29T09:44:11.397Z</time></trkpt><trkpt lat="45.3996167" lon="10.5940683"><ele>116.0</ele><time>2026-03-29T09:44:12.397Z</time></trkpt><trkpt lat="45.3995683" lon="10.5939317"><ele>116.0</ele><time>2026-03-29T09:44:13.397Z</time></trkpt><trkpt lat="45.399515" lon="10.593795"><ele>115.75</ele><time>2026-03-29T09:44:14.397Z</time></trkpt><trkpt lat="45.3994683" lon="10.593655"><ele>115.5</ele><time>2026-03-29T09:44:15.397Z</time></trkpt><trkpt lat="45.3994383" lon="10.59348"><ele>115.25</ele><time>2026-03-29T09:44:16.397Z</time></trkpt><trkpt lat="45.3994133" lon="10.5932967"><ele>115.0</ele><time>2026-03-29T09:44:17.397Z</time></trkpt><trkpt lat="45.3994033" lon="10.5931017"><ele>115.0</ele><time>2026-03-29T09:44:18.397Z</time></trkpt><trkpt lat="45.39941" lon="10.5928967"><ele>115.0</ele><time>2026-03-29T09:44:19.398Z</time></trkpt><trkpt lat="45.3994267" lon="10.5926783"><ele>115.0</ele><time>2026-03-29T09:44:20.397Z</time></trkpt><trkpt lat="45.399435" lon="10.5924583"><ele>115.33333333333334</ele><time>2026-03-29T09:44:21.397Z</time></trkpt><trkpt lat="45.39943" lon="10.5922417"><ele>115.66666666666666</ele><time>2026-03-29T09:44:22.397Z</time></trkpt><trkpt lat="45.3994167" lon="10.5920183"><ele>116.0</ele><time>2026-03-29T09:44:23.398Z</time></trkpt><trkpt lat="45.3994" lon="10.5917867"><ele>115.33333333333333</ele><time>2026-03-29T09:44:24.397Z</time></trkpt><trkpt lat="45.399375" lon="10.5915633"><ele>114.66666666666666</ele><time>2026-03-29T09:44:25.397Z</time></trkpt><trkpt lat="45.399345" lon="10.5913217"><ele>114.0</ele><time>2026-03-29T09:44:26.397Z</time></trkpt><trkpt lat="45.3993117" lon="10.591085"><ele>112.66666666666666</ele><time>2026-03-29T09:44:27.397Z</time></trkpt><trkpt lat="45.39928" lon="10.5908517"><ele>111.33333333333333</ele><time>2026-03-29T09:44:28.397Z</time></trkpt><trkpt lat="45.3992417" lon="10.5906433"><ele>110.0</ele><time>2026-03-29T09:44:29.397Z</time></trkpt><trkpt lat="45.3992133" lon="10.590455"><ele>110.0</ele><time>2026-03-29T09:44:30.397Z</time></trkpt><trkpt lat="45.3992" lon="10.59025"><ele>110.0</ele><time>2026-03-29T09:44:31.397Z</time></trkpt><trkpt lat="45.3991833" lon="10.5900133"><ele>110.0</ele><time>2026-03-29T09:44:32.397Z</time></trkpt><trkpt lat="45.3991583" lon="10.5897683"><ele>110.0</ele><time>2026-03-29T09:44:33.398Z</time></trkpt><trkpt lat="45.39911" lon="10.589515"><ele>110.0</ele><time>2026-03-29T09:44:34.397Z</time></trkpt><trkpt lat="45.3990533" lon="10.589255"><ele>110.0</ele><time>2026-03-29T09:44:35.397Z</time></trkpt><trkpt lat="45.39899" lon="10.5889833"><ele>109.33333333333333</ele><time>2026-03-29T09:44:36.397Z</time></trkpt><trkpt lat="45.3989217" lon="10.5887117"><ele>108.66666666666666</ele><time>2026-03-29T09:44:37.398Z</time></trkpt><trkpt lat="45.3988567" lon="10.588435"><ele>108.0</ele><time>2026-03-29T09:44:38.397Z</time></trkpt><trkpt lat="45.3987933" lon="10.58818"><ele>108.0</ele><time>2026-03-29T09:44:39.397Z</time></trkpt><trkpt lat="45.3987317" lon="10.5879117"><ele>108.0</ele><time>2026-03-29T09:44:40.397Z</time></trkpt><trkpt lat="45.3986767" lon="10.5876383"><ele>108.0</ele><time>2026-03-29T09:44:41.397Z</time></trkpt><trkpt lat="45.3986117" lon="10.5873717"><ele>107.33333333333334</ele><time>2026-03-29T09:44:42.397Z</time></trkpt><trkpt lat="45.39855" lon="10.5870917"><ele>106.66666666666667</ele><time>2026-03-29T09:44:43.397Z</time></trkpt><trkpt lat="45.3984983" lon="10.58682"><ele>106.0</ele><time>2026-03-29T09:44:44.398Z</time></trkpt><trkpt lat="45.3984533" lon="10.5865767"><ele>106.0</ele><time>2026-03-29T09:44:45.397Z</time></trkpt><trkpt lat="45.3983967" lon="10.58636"><ele>106.0</ele><time>2026-03-29T09:44:46.397Z</time></trkpt><trkpt lat="45.3983383" lon="10.5861683"><ele>106.0</ele><time>2026-03-29T09:44:47.397Z</time></trkpt><trkpt lat="45.398285" lon="10.5859883"><ele>106.0</ele><time>2026-03-29T09:44:48.398Z</time></trkpt><trkpt lat="45.398225" lon="10.5858167"><ele>105.75</ele><time>2026-03-29T09:44:49.397Z</time></trkpt><trkpt lat="45.39817" lon="10.5856317"><ele>105.5</ele><time>2026-03-29T09:44:50.397Z</time></trkpt><trkpt lat="45.398125" lon="10.5854617"><ele>105.25</ele><time>2026-03-29T09:44:51.397Z</time></trkpt><trkpt lat="45.3980717" lon="10.5852833"><ele>105.0</ele><time>2026-03-29T09:44:52.397Z</time></trkpt><trkpt lat="45.3980317" lon="10.5851117"><ele>104.66666666666667</ele><time>2026-03-29T09:44:53.397Z</time></trkpt><trkpt lat="45.3979817" lon="10.5849717"><ele>104.33333333333334</ele><time>2026-03-29T09:44:54.397Z</time></trkpt><trkpt lat="45.39796" lon="10.58487"><ele>104.0</ele><time>2026-03-29T09:44:55.397Z</time></trkpt><trkpt lat="45.3979483" lon="10.58477"><ele>103.66666666666667</ele><time>2026-03-29T09:44:57.398Z</time></trkpt><trkpt lat="45.3980267" lon="10.5847883"><ele>103.33333333333334</ele><time>2026-03-29T09:44:59.397Z</time></trkpt><trkpt lat="45.398105" lon="10.584795"><ele>103.0</ele><time>2026-03-29T09:45:00.397Z</time></trkpt><trkpt lat="45.3982" lon="10.5848"><ele>103.0</ele><time>2026-03-29T09:45:01.397Z</time></trkpt><trkpt lat="45.398315" lon="10.5848067"><ele>103.0</ele><time>2026-03-29T09:45:02.397Z</time></trkpt><trkpt lat="45.39845" lon="10.584815"><ele>103.0</ele><time>2026-03-29T09:45:03.397Z</time></trkpt><trkpt lat="45.3985933" lon="10.5848267"><ele>103.0</ele><time>2026-03-29T09:45:04.397Z</time></trkpt><trkpt lat="45.3987517" lon="10.5848417"><ele>102.0</ele><time>2026-03-29T09:45:05.397Z</time></trkpt><trkpt lat="45.3989167" lon="10.5848567"><ele>101.0</ele><time>2026-03-29T09:45:06.397Z</time></trkpt><trkpt lat="45.3990917" lon="10.584875"><ele>100.0</ele><time>2026-03-29T09:45:07.397Z</time></trkpt><trkpt lat="45.3992783" lon="10.5849017"><ele>100.0</ele><time>2026-03-29T09:45:08.398Z</time></trkpt><trkpt lat="45.3994733" lon="10.5849167"><ele>100.0</ele><time>2026-03-29T09:45:09.397Z</time></trkpt><trkpt lat="45.39968" lon="10.58493"><ele>100.0</ele><time>2026-03-29T09:45:10.397Z</time></trkpt><trkpt lat="45.399875" lon="10.5849367"><ele>99.33333333333334</ele><time>2026-03-29T09:45:11.397Z</time></trkpt><trkpt lat="45.4000667" lon="10.584935"><ele>98.66666666666666</ele><time>2026-03-29T09:45:12.397Z</time></trkpt><trkpt lat="45.4002333" lon="10.5849317"><ele>98.0</ele><time>2026-03-29T09:45:13.397Z</time></trkpt><trkpt lat="45.4003883" lon="10.5849067"><ele>98.75</ele><time>2026-03-29T09:45:14.398Z</time></trkpt><trkpt lat="45.4005333" lon="10.584885"><ele>99.5</ele><time>2026-03-29T09:45:15.397Z</time></trkpt><trkpt lat="45.40065" lon="10.5848633"><ele>100.25</ele><time>2026-03-29T09:45:16.397Z</time></trkpt><trkpt lat="45.4007617" lon="10.5848383"><ele>101.0</ele><time>2026-03-29T09:45:17.398Z</time></trkpt><trkpt lat="45.40086" lon="10.584815"><ele>101.0</ele><time>2026-03-29T09:45:18.398Z</time></trkpt><trkpt lat="45.40096" lon="10.58479"><ele>101.0</ele><time>2026-03-29T09:45:19.397Z</time></trkpt><trkpt lat="45.401065" lon="10.584795"><ele>101.0</ele><time>2026-03-29T09:45:20.397Z</time></trkpt><trkpt lat="45.4011617" lon="10.5847933"><ele>101.0</ele><time>2026-03-29T09:45:21.398Z</time></trkpt><trkpt lat="45.4012617" lon="10.5848033"><ele>101.0</ele><time>2026-03-29T09:45:22.397Z</time></trkpt><trkpt lat="45.4013583" lon="10.584815"><ele>100.4</ele><time>2026-03-29T09:45:23.397Z</time></trkpt><trkpt lat="45.4014667" lon="10.5848317"><ele>99.8</ele><time>2026-03-29T09:45:24.397Z</time></trkpt><trkpt lat="45.4015683" lon="10.5848417"><ele>99.2</ele><time>2026-03-29T09:45:25.398Z</time></trkpt><trkpt lat="45.4016733" lon="10.5848717"><ele>98.60000000000001</ele><time>2026-03-29T09:45:26.397Z</time></trkpt><trkpt lat="45.4017833" lon="10.5848967"><ele>98.0</ele><time>2026-03-29T09:45:27.397Z</time></trkpt><trkpt lat="45.401895" lon="10.58492"><ele>98.0</ele><time>2026-03-29T09:45:28.397Z</time></trkpt><trkpt lat="45.4020017" lon="10.5849483"><ele>98.0</ele><time>2026-03-29T09:45:29.398Z</time></trkpt><trkpt lat="45.402095" lon="10.584975"><ele>98.0</ele><time>2026-03-29T09:45:30.397Z</time></trkpt><trkpt lat="45.4021683" lon="10.5850067"><ele>98.0</ele><time>2026-03-29T09:45:31.397Z</time></trkpt><trkpt lat="45.4022367" lon="10.5850217"><ele>98.0</ele><time>2026-03-29T09:45:32.397Z</time></trkpt><trkpt lat="45.4023483" lon="10.5849633"><ele>97.80000000000001</ele><time>2026-03-29T09:45:34.397Z</time></trkpt><trkpt lat="45.402385" lon="10.58487"><ele>97.6</ele><time>2026-03-29T09:45:35.398Z</time></trkpt><trkpt lat="45.402425" lon="10.5847483"><ele>97.4</ele><time>2026-03-29T09:45:36.397Z</time></trkpt><trkpt lat="45.402455" lon="10.5846017"><ele>97.19999999999999</ele><time>2026-03-29T09:45:37.398Z</time></trkpt><trkpt lat="45.4024867" lon="10.584425"><ele>97.0</ele><time>2026-03-29T09:45:38.397Z</time></trkpt><trkpt lat="45.40252" lon="10.5842383"><ele>97.0</ele><time>2026-03-29T09:45:39.397Z</time></trkpt><trkpt lat="45.4025667" lon="10.5840417"><ele>97.0</ele><time>2026-03-29T09:45:40.397Z</time></trkpt><trkpt lat="45.4026233" lon="10.58385"><ele>97.0</ele><time>2026-03-29T09:45:41.397Z</time></trkpt><trkpt lat="45.4026917" lon="10.5836667"><ele>97.0</ele><time>2026-03-29T09:45:42.398Z</time></trkpt><trkpt lat="45.4027633" lon="10.5834783"><ele>97.25</ele><time>2026-03-29T09:45:43.397Z</time></trkpt><trkpt lat="45.4028417" lon="10.5833"><ele>97.5</ele><time>2026-03-29T09:45:44.398Z</time></trkpt><trkpt lat="45.4029167" lon="10.58313"><ele>97.75</ele><time>2026-03-29T09:45:45.398Z</time></trkpt><trkpt lat="45.4029833" lon="10.5829567"><ele>98.0</ele><time>2026-03-29T09:45:46.397Z</time></trkpt><trkpt lat="45.40306" lon="10.582775"><ele>97.25</ele><time>2026-03-29T09:45:47.397Z</time></trkpt><trkpt lat="45.4031383" lon="10.582595"><ele>96.5</ele><time>2026-03-29T09:45:48.397Z</time></trkpt><trkpt lat="45.4032133" lon="10.58242"><ele>95.75</ele><time>2026-03-29T09:45:49.398Z</time></trkpt><trkpt lat="45.4032967" lon="10.5822583"><ele>95.0</ele><time>2026-03-29T09:45:50.397Z</time></trkpt><trkpt lat="45.4033733" lon="10.5820833"><ele>95.0</ele><time>2026-03-29T09:45:51.397Z</time></trkpt><trkpt lat="45.4034317" lon="10.5818967"><ele>95.0</ele><time>2026-03-29T09:45:52.397Z</time></trkpt><trkpt lat="45.4034933" lon="10.5817167"><ele>95.0</ele><time>2026-03-29T09:45:53.397Z</time></trkpt><trkpt lat="45.4035583" lon="10.5815517"><ele>95.0</ele><time>2026-03-29T09:45:54.398Z</time></trkpt><trkpt lat="45.4036133" lon="10.5813933"><ele>95.0</ele><time>2026-03-29T09:45:55.397Z</time></trkpt><trkpt lat="45.4036617" lon="10.5812383"><ele>95.0</ele><time>2026-03-29T09:45:56.397Z</time></trkpt><trkpt lat="45.4037233" lon="10.581095"><ele>95.0</ele><time>2026-03-29T09:45:57.398Z</time></trkpt><trkpt lat="45.4037833" lon="10.5809567"><ele>95.0</ele><time>2026-03-29T09:45:58.397Z</time></trkpt><trkpt lat="45.4038367" lon="10.580805"><ele>94.75</ele><time>2026-03-29T09:45:59.397Z</time></trkpt><trkpt lat="45.4039" lon="10.580655"><ele>94.5</ele><time>2026-03-29T09:46:00.398Z</time></trkpt><trkpt lat="45.403965" lon="10.5804783"><ele>94.25</ele><time>2026-03-29T09:46:01.397Z</time></trkpt><trkpt lat="45.4040317" lon="10.5802983"><ele>94.0</ele><time>2026-03-29T09:46:02.397Z</time></trkpt><trkpt lat="45.4041" lon="10.5801067"><ele>94.66666666666666</ele><time>2026-03-29T09:46:03.397Z</time></trkpt><trkpt lat="45.4041717" lon="10.5799033"><ele>95.33333333333333</ele><time>2026-03-29T09:46:04.397Z</time></trkpt><trkpt lat="45.4042467" lon="10.579695"><ele>96.0</ele><time>2026-03-29T09:46:05.398Z</time></trkpt><trkpt lat="45.4043217" lon="10.5794867"><ele>96.33333333333334</ele><time>2026-03-29T09:46:06.397Z</time></trkpt><trkpt lat="45.4044067" lon="10.57929"><ele>96.66666666666667</ele><time>2026-03-29T09:46:07.397Z</time></trkpt><trkpt lat="45.4044867" lon="10.579095"><ele>97.0</ele><time>2026-03-29T09:46:08.397Z</time></trkpt><trkpt lat="45.4045667" lon="10.5789083"><ele>97.0</ele><time>2026-03-29T09:46:09.397Z</time></trkpt><trkpt lat="45.4046483" lon="10.5787483"><ele>97.0</ele><time>2026-03-29T09:46:10.397Z</time></trkpt><trkpt lat="45.4047267" lon="10.5785833"><ele>97.0</ele><time>2026-03-29T09:46:11.397Z</time></trkpt><trkpt lat="45.4047983" lon="10.5784217"><ele>97.0</ele><time>2026-03-29T09:46:12.398Z</time></trkpt><trkpt lat="45.40487" lon="10.5782667"><ele>96.5</ele><time>2026-03-29T09:46:13.397Z</time></trkpt><trkpt lat="45.4049483" lon="10.5781117"><ele>96.0</ele><time>2026-03-29T09:46:14.397Z</time></trkpt><trkpt lat="45.40502" lon="10.5779633"><ele>95.5</ele><time>2026-03-29T09:46:15.398Z</time></trkpt><trkpt lat="45.4050883" lon="10.577815"><ele>95.0</ele><time>2026-03-29T09:46:16.397Z</time></trkpt><trkpt lat="45.40515" lon="10.5776567"><ele>95.0</ele><time>2026-03-29T09:46:17.397Z</time></trkpt><trkpt lat="45.40521" lon="10.5774983"><ele>95.0</ele><time>2026-03-29T09:46:18.397Z</time></trkpt><trkpt lat="45.4052517" lon="10.57734"><ele>95.0</ele><time>2026-03-29T09:46:19.397Z</time></trkpt><trkpt lat="45.4052917" lon="10.577205"><ele>95.0</ele><time>2026-03-29T09:46:20.397Z</time></trkpt><trkpt lat="45.405325" lon="10.5770783"><ele>95.0</ele><time>2026-03-29T09:46:21.398Z</time></trkpt><trkpt lat="45.4053567" lon="10.5769683"><ele>95.2</ele><time>2026-03-29T09:46:22.397Z</time></trkpt><trkpt lat="45.405385" lon="10.5768817"><ele>95.4</ele><time>2026-03-29T09:46:23.397Z</time></trkpt><trkpt lat="45.4054167" lon="10.5767333"><ele>95.6</ele><time>2026-03-29T09:46:25.397Z</time></trkpt><trkpt lat="45.4054433" lon="10.5766017"><ele>95.8</ele><time>2026-03-29T09:46:27.398Z</time></trkpt><trkpt lat="45.4054167" lon="10.5764917"><ele>96.0</ele><time>2026-03-29T09:46:29.397Z</time></trkpt><trkpt lat="45.405315" lon="10.5764033"><ele>96.0</ele><time>2026-03-29T09:46:31.397Z</time></trkpt><trkpt lat="45.4052417" lon="10.57636"><ele>96.0</ele><time>2026-03-29T09:46:32.397Z</time></trkpt><trkpt lat="45.4051467" lon="10.5763083"><ele>96.0</ele><time>2026-03-29T09:46:33.397Z</time></trkpt><trkpt lat="45.4050467" lon="10.5762417"><ele>96.0</ele><time>2026-03-29T09:46:34.397Z</time></trkpt><trkpt lat="45.40493" lon="10.5761733"><ele>96.0</ele><time>2026-03-29T09:46:35.397Z</time></trkpt><trkpt lat="45.4048" lon="10.5761033"><ele>96.33333333333334</ele><time>2026-03-29T09:46:36.397Z</time></trkpt><trkpt lat="45.4046667" lon="10.5760283"><ele>96.66666666666667</ele><time>2026-03-29T09:46:37.398Z</time></trkpt><trkpt lat="45.40453" lon="10.5759467"><ele>97.0</ele><time>2026-03-29T09:46:38.397Z</time></trkpt><trkpt lat="45.4043817" lon="10.575865"><ele>97.0</ele><time>2026-03-29T09:46:39.397Z</time></trkpt><trkpt lat="45.4042333" lon="10.57578"><ele>97.0</ele><time>2026-03-29T09:46:40.397Z</time></trkpt><trkpt lat="45.4040833" lon="10.575705"><ele>97.0</ele><time>2026-03-29T09:46:41.397Z</time></trkpt><trkpt lat="45.4039283" lon="10.5756117"><ele>97.33333333333334</ele><time>2026-03-29T09:46:42.397Z</time></trkpt><trkpt lat="45.4037733" lon="10.5755"><ele>97.66666666666666</ele><time>2026-03-29T09:46:43.397Z</time></trkpt><trkpt lat="45.403625" lon="10.5753967"><ele>98.0</ele><time>2026-03-29T09:46:44.397Z</time></trkpt><trkpt lat="45.403495" lon="10.5752967"><ele>98.0</ele><time>2026-03-29T09:46:45.397Z</time></trkpt><trkpt lat="45.4033667" lon="10.5752217"><ele>98.0</ele><time>2026-03-29T09:46:46.397Z</time></trkpt><trkpt lat="45.4032483" lon="10.575155"><ele>98.0</ele><time>2026-03-29T09:46:47.397Z</time></trkpt><trkpt lat="45.4031333" lon="10.5750967"><ele>98.0</ele><time>2026-03-29T09:46:48.397Z</time></trkpt><trkpt lat="45.4030283" lon="10.57504"><ele>97.99999999999999</ele><time>2026-03-29T09:46:49.397Z</time></trkpt><trkpt lat="45.402925" lon="10.5749917"><ele>98.0</ele><time>2026-03-29T09:46:50.396Z</time></trkpt><trkpt lat="45.40284" lon="10.57495"><ele>98.0</ele><time>2026-03-29T09:46:51.396Z</time></trkpt><trkpt lat="45.4027617" lon="10.57492"><ele>98.0</ele><time>2026-03-29T09:46:52.396Z</time></trkpt><trkpt lat="45.4026933" lon="10.5748967"><ele>97.99999999999999</ele><time>2026-03-29T09:46:53.396Z</time></trkpt><trkpt lat="45.40263" lon="10.574875"><ele>98.0</ele><time>2026-03-29T09:46:54.397Z</time></trkpt><trkpt lat="45.4025633" lon="10.5748533"><ele>98.0</ele><time>2026-03-29T09:46:55.396Z</time></trkpt><trkpt lat="45.4024867" lon="10.5748267"><ele>98.0</ele><time>2026-03-29T09:46:56.396Z</time></trkpt><trkpt lat="45.402415" lon="10.5747967"><ele>98.0</ele><time>2026-03-29T09:46:57.396Z</time></trkpt><trkpt lat="45.4023483" lon="10.5747433"><ele>98.0</ele><time>2026-03-29T09:46:58.396Z</time></trkpt><trkpt lat="45.402295" lon="10.5746783"><ele>98.0</ele><time>2026-03-29T09:46:59.397Z</time></trkpt><trkpt lat="45.40225" lon="10.5746083"><ele>98.0</ele><time>2026-03-29T09:47:00.396Z</time></trkpt><trkpt lat="45.4022067" lon="10.574535"><ele>98.0</ele><time>2026-03-29T09:47:01.396Z</time></trkpt><trkpt lat="45.402145" lon="10.5744633"><ele>97.99999999999999</ele><time>2026-03-29T09:47:02.397Z</time></trkpt><trkpt lat="45.4020833" lon="10.5743817"><ele>98.0</ele><time>2026-03-29T09:47:03.397Z</time></trkpt><trkpt lat="45.4020183" lon="10.5742867"><ele>98.0</ele><time>2026-03-29T09:47:04.397Z</time></trkpt><trkpt lat="45.40196" lon="10.5742017"><ele>98.0</ele><time>2026-03-29T09:47:05.396Z</time></trkpt><trkpt lat="45.401905" lon="10.574135"><ele>97.99999999999999</ele><time>2026-03-29T09:47:06.397Z</time></trkpt><trkpt lat="45.401855" lon="10.5740683"><ele>98.0</ele><time>2026-03-29T09:47:07.396Z</time></trkpt><trkpt lat="45.401805" lon="10.5739883"><ele>98.0</ele><time>2026-03-29T09:47:08.396Z</time></trkpt><trkpt lat="45.4017517" lon="10.5739033"><ele>98.0</ele><time>2026-03-29T09:47:09.397Z</time></trkpt><trkpt lat="45.4016917" lon="10.5738033"><ele>98.0</ele><time>2026-03-29T09:47:10.396Z</time></trkpt><trkpt lat="45.4016233" lon="10.5736967"><ele>98.0</ele><time>2026-03-29T09:47:11.396Z</time></trkpt><trkpt lat="45.4015367" lon="10.5735783"><ele>98.0</ele><time>2026-03-29T09:47:12.396Z</time></trkpt><trkpt lat="45.401445" lon="10.5734533"><ele>97.66666666666666</ele><time>2026-03-29T09:47:13.396Z</time></trkpt><trkpt lat="45.4013383" lon="10.5733167"><ele>97.33333333333334</ele><time>2026-03-29T09:47:14.396Z</time></trkpt><trkpt lat="45.4012317" lon="10.57317"><ele>97.0</ele><time>2026-03-29T09:47:15.396Z</time></trkpt><trkpt lat="45.4011167" lon="10.5730067"><ele>97.0</ele><time>2026-03-29T09:47:16.397Z</time></trkpt><trkpt lat="45.4010383" lon="10.5728683"><ele>97.0</ele><time>2026-03-29T09:47:17.396Z</time></trkpt><trkpt lat="45.4009733" lon="10.57274"><ele>97.0</ele><time>2026-03-29T09:47:18.396Z</time></trkpt><trkpt lat="45.4009117" lon="10.572615"><ele>97.0</ele><time>2026-03-29T09:47:19.397Z</time></trkpt><trkpt lat="45.4008783" lon="10.5725"><ele>97.0</ele><time>2026-03-29T09:47:20.396Z</time></trkpt><trkpt lat="45.400865" lon="10.5723767"><ele>97.50000000000001</ele><time>2026-03-29T09:47:21.397Z</time></trkpt><trkpt lat="45.400875" lon="10.5722767"><ele>98.0</ele><time>2026-03-29T09:47:22.396Z</time></trkpt><trkpt lat="45.4009117" lon="10.5722017"><ele>98.5</ele><time>2026-03-29T09:47:23.396Z</time></trkpt><trkpt lat="45.401015" lon="10.5721067"><ele>99.0</ele><time>2026-03-29T09:47:25.396Z</time></trkpt><trkpt lat="45.401085" lon="10.57206"><ele>99.50000000000001</ele><time>2026-03-29T09:47:26.397Z</time></trkpt><trkpt lat="45.4011633" lon="10.57199"><ele>100.0</ele><time>2026-03-29T09:47:27.396Z</time></trkpt><trkpt lat="45.4012383" lon="10.5719117"><ele>100.25</ele><time>2026-03-29T09:47:28.396Z</time></trkpt><trkpt lat="45.4013333" lon="10.5718117"><ele>100.5</ele><time>2026-03-29T09:47:29.396Z</time></trkpt><trkpt lat="45.4014367" lon="10.57169"><ele>100.75</ele><time>2026-03-29T09:47:30.397Z</time></trkpt><trkpt lat="45.40155" lon="10.5715683"><ele>101.0</ele><time>2026-03-29T09:47:31.397Z</time></trkpt><trkpt lat="45.4016617" lon="10.5714467"><ele>101.0</ele><time>2026-03-29T09:47:32.397Z</time></trkpt><trkpt lat="45.4017767" lon="10.571325"><ele>101.0</ele><time>2026-03-29T09:47:33.396Z</time></trkpt><trkpt lat="45.4018733" lon="10.5712217"><ele>101.0</ele><time>2026-03-29T09:47:34.396Z</time></trkpt><trkpt lat="45.4019833" lon="10.571105"><ele>101.0</ele><time>2026-03-29T09:47:35.396Z</time></trkpt><trkpt lat="45.4020967" lon="10.5709817"><ele>100.25</ele><time>2026-03-29T09:47:36.396Z</time></trkpt><trkpt lat="45.4022" lon="10.5708517"><ele>99.5</ele><time>2026-03-29T09:47:37.396Z</time></trkpt><trkpt lat="45.402305" lon="10.5707133"><ele>98.75</ele><time>2026-03-29T09:47:38.396Z</time></trkpt><trkpt lat="45.4024217" lon="10.5705767"><ele>98.0</ele><time>2026-03-29T09:47:39.396Z</time></trkpt><trkpt lat="45.4025383" lon="10.570435"><ele>98.5</ele><time>2026-03-29T09:47:40.396Z</time></trkpt><trkpt lat="45.402645" lon="10.570305"><ele>99.0</ele><time>2026-03-29T09:47:41.396Z</time></trkpt><trkpt lat="45.40276" lon="10.5701717"><ele>99.5</ele><time>2026-03-29T09:47:42.397Z</time></trkpt><trkpt lat="45.4028733" lon="10.570035"><ele>100.0</ele><time>2026-03-29T09:47:43.397Z</time></trkpt><trkpt lat="45.402985" lon="10.5699033"><ele>99.0</ele><time>2026-03-29T09:47:44.396Z</time></trkpt><trkpt lat="45.4031" lon="10.56976"><ele>98.0</ele><time>2026-03-29T09:47:45.396Z</time></trkpt><trkpt lat="45.40322" lon="10.5696167"><ele>97.0</ele><time>2026-03-29T09:47:46.396Z</time></trkpt><trkpt lat="45.4033333" lon="10.56948"><ele>97.0</ele><time>2026-03-29T09:47:47.396Z</time></trkpt><trkpt lat="45.40346" lon="10.5693317"><ele>97.0</ele><time>2026-03-29T09:47:48.396Z</time></trkpt><trkpt lat="45.4035817" lon="10.56919"><ele>97.0</ele><time>2026-03-29T09:47:49.396Z</time></trkpt><trkpt lat="45.4037067" lon="10.5690533"><ele>97.0</ele><time>2026-03-29T09:47:50.397Z</time></trkpt><trkpt lat="45.4038033" lon="10.568945"><ele>97.0</ele><time>2026-03-29T09:47:51.396Z</time></trkpt><trkpt lat="45.403925" lon="10.5687967"><ele>97.0</ele><time>2026-03-29T09:47:52.397Z</time></trkpt><trkpt lat="45.4040517" lon="10.5686517"><ele>97.0</ele><time>2026-03-29T09:47:53.396Z</time></trkpt><trkpt lat="45.4041817" lon="10.568505"><ele>97.33333333333334</ele><time>2026-03-29T09:47:54.396Z</time></trkpt><trkpt lat="45.4043017" lon="10.568365"><ele>97.66666666666666</ele><time>2026-03-29T09:47:55.396Z</time></trkpt><trkpt lat="45.4044067" lon="10.5682183"><ele>98.0</ele><time>2026-03-29T09:47:56.396Z</time></trkpt><trkpt lat="45.4045233" lon="10.56806"><ele>98.0</ele><time>2026-03-29T09:47:57.397Z</time></trkpt><trkpt lat="45.404635" lon="10.56789"><ele>98.0</ele><time>2026-03-29T09:47:58.396Z</time></trkpt><trkpt lat="45.404735" lon="10.5677317"><ele>98.0</ele><time>2026-03-29T09:47:59.396Z</time></trkpt><trkpt lat="45.4048417" lon="10.5675533"><ele>97.33333333333333</ele><time>2026-03-29T09:48:00.397Z</time></trkpt><trkpt lat="45.4049517" lon="10.5673633"><ele>96.66666666666666</ele><time>2026-03-29T09:48:01.397Z</time></trkpt><trkpt lat="45.405055" lon="10.5671833"><ele>96.0</ele><time>2026-03-29T09:48:02.396Z</time></trkpt><trkpt lat="45.405145" lon="10.5670067"><ele>96.0</ele><time>2026-03-29T09:48:03.396Z</time></trkpt><trkpt lat="45.4052417" lon="10.56683"><ele>96.0</ele><time>2026-03-29T09:48:04.396Z</time></trkpt><trkpt lat="45.4053383" lon="10.5666517"><ele>96.0</ele><time>2026-03-29T09:48:05.397Z</time></trkpt><trkpt lat="45.4054467" lon="10.5664633"><ele>96.0</ele><time>2026-03-29T09:48:06.397Z</time></trkpt><trkpt lat="45.4055533" lon="10.5662817"><ele>96.0</ele><time>2026-03-29T09:48:07.397Z</time></trkpt><trkpt lat="45.4056567" lon="10.566105"><ele>96.0</ele><time>2026-03-29T09:48:08.396Z</time></trkpt><trkpt lat="45.40576" lon="10.565925"><ele>96.0</ele><time>2026-03-29T09:48:09.396Z</time></trkpt><trkpt lat="45.4058733" lon="10.5657567"><ele>96.0</ele><time>2026-03-29T09:48:10.396Z</time></trkpt><trkpt lat="45.40598" lon="10.5656133"><ele>96.0</ele><time>2026-03-29T09:48:11.396Z</time></trkpt><trkpt lat="45.4060667" lon="10.5654783"><ele>96.0</ele><time>2026-03-29T09:48:12.397Z</time></trkpt><trkpt lat="45.4061383" lon="10.5653683"><ele>96.16666666666667</ele><time>2026-03-29T09:48:13.396Z</time></trkpt><trkpt lat="45.406175" lon="10.5652733"><ele>96.33333333333334</ele><time>2026-03-29T09:48:14.397Z</time></trkpt><trkpt lat="45.4061883" lon="10.565175"><ele>96.5</ele><time>2026-03-29T09:48:15.397Z</time></trkpt><trkpt lat="45.4061717" lon="10.5650717"><ele>96.66666666666667</ele><time>2026-03-29T09:48:16.396Z</time></trkpt><trkpt lat="45.406135" lon="10.5649533"><ele>96.83333333333334</ele><time>2026-03-29T09:48:17.396Z</time></trkpt><trkpt lat="45.406085" lon="10.5648267"><ele>97.0</ele><time>2026-03-29T09:48:18.397Z</time></trkpt><trkpt lat="45.40606" lon="10.5646917"><ele>97.00000000000001</ele><time>2026-03-29T09:48:19.396Z</time></trkpt><trkpt lat="45.406065" lon="10.5645867"><ele>97.0</ele><time>2026-03-29T09:48:20.397Z</time></trkpt><trkpt lat="45.4060983" lon="10.5645033"><ele>97.0</ele><time>2026-03-29T09:48:21.397Z</time></trkpt><trkpt lat="45.40615" lon="10.5644333"><ele>97.0</ele><time>2026-03-29T09:48:22.396Z</time></trkpt><trkpt lat="45.4062383" lon="10.5643683"><ele>97.00000000000001</ele><time>2026-03-29T09:48:23.396Z</time></trkpt><trkpt lat="45.406345" lon="10.5643017"><ele>97.0</ele><time>2026-03-29T09:48:24.396Z</time></trkpt><trkpt lat="45.40647" lon="10.56421"><ele>97.0</ele><time>2026-03-29T09:48:25.396Z</time></trkpt><trkpt lat="45.4065983" lon="10.5641233"><ele>97.0</ele><time>2026-03-29T09:48:26.396Z</time></trkpt><trkpt lat="45.4067317" lon="10.564025"><ele>97.0</ele><time>2026-03-29T09:48:27.396Z</time></trkpt><trkpt lat="45.406875" lon="10.5639183"><ele>97.0</ele><time>2026-03-29T09:48:28.397Z</time></trkpt><trkpt lat="45.407025" lon="10.5638133"><ele>97.0</ele><time>2026-03-29T09:48:29.396Z</time></trkpt><trkpt lat="45.4071767" lon="10.5637183"><ele>97.0</ele><time>2026-03-29T09:48:30.396Z</time></trkpt><trkpt lat="45.4073383" lon="10.5636067"><ele>97.33333333333334</ele><time>2026-03-29T09:48:31.396Z</time></trkpt><trkpt lat="45.407485" lon="10.5635017"><ele>97.66666666666666</ele><time>2026-03-29T09:48:32.396Z</time></trkpt><trkpt lat="45.4076417" lon="10.5633983"><ele>98.0</ele><time>2026-03-29T09:48:33.396Z</time></trkpt><trkpt lat="45.4077983" lon="10.5632967"><ele>98.0</ele><time>2026-03-29T09:48:34.396Z</time></trkpt><trkpt lat="45.40795" lon="10.5632"><ele>98.0</ele><time>2026-03-29T09:48:35.396Z</time></trkpt><trkpt lat="45.408105" lon="10.5631267"><ele>98.0</ele><time>2026-03-29T09:48:36.396Z</time></trkpt><trkpt lat="45.4082567" lon="10.5630517"><ele>97.66666666666666</ele><time>2026-03-29T09:48:37.396Z</time></trkpt><trkpt lat="45.40842" lon="10.56298"><ele>97.33333333333334</ele><time>2026-03-29T09:48:38.396Z</time></trkpt><trkpt lat="45.4085767" lon="10.5629117"><ele>97.0</ele><time>2026-03-29T09:48:39.396Z</time></trkpt><trkpt lat="45.4087467" lon="10.5628417"><ele>96.66666666666667</ele><time>2026-03-29T09:48:40.396Z</time></trkpt><trkpt lat="45.4089067" lon="10.562775"><ele>96.33333333333334</ele><time>2026-03-29T09:48:41.397Z</time></trkpt><trkpt lat="45.409075" lon="10.5627183"><ele>96.0</ele><time>2026-03-29T09:48:42.396Z</time></trkpt><trkpt lat="45.4092367" lon="10.5626633"><ele>96.0</ele><time>2026-03-29T09:48:43.396Z</time></trkpt><trkpt lat="45.40939" lon="10.562605"><ele>96.0</ele><time>2026-03-29T09:48:44.396Z</time></trkpt><trkpt lat="45.4095333" lon="10.56255"><ele>96.0</ele><time>2026-03-29T09:48:45.396Z</time></trkpt><trkpt lat="45.4096683" lon="10.5624933"><ele>96.0</ele><time>2026-03-29T09:48:46.396Z</time></trkpt><trkpt lat="45.409795" lon="10.5624283"><ele>96.0</ele><time>2026-03-29T09:48:47.396Z</time></trkpt><trkpt lat="45.4099133" lon="10.56237"><ele>96.0</ele><time>2026-03-29T09:48:48.396Z</time></trkpt><trkpt lat="45.4100367" lon="10.5623183"><ele>96.0</ele><time>2026-03-29T09:48:49.396Z</time></trkpt><trkpt lat="45.41017" lon="10.5622767"><ele>96.0</ele><time>2026-03-29T09:48:50.396Z</time></trkpt><trkpt lat="45.410305" lon="10.56225"><ele>96.0</ele><time>2026-03-29T09:48:51.396Z</time></trkpt><trkpt lat="45.4104383" lon="10.5622583"><ele>96.0</ele><time>2026-03-29T09:48:52.396Z</time></trkpt><trkpt lat="45.4105717" lon="10.562295"><ele>96.0</ele><time>2026-03-29T09:48:53.396Z</time></trkpt><trkpt lat="45.4106983" lon="10.5623483"><ele>96.0</ele><time>2026-03-29T09:48:54.396Z</time></trkpt><trkpt lat="45.4108367" lon="10.5624067"><ele>97.0</ele><time>2026-03-29T09:48:55.396Z</time></trkpt><trkpt lat="45.4109817" lon="10.5624683"><ele>98.0</ele><time>2026-03-29T09:48:56.396Z</time></trkpt><trkpt lat="45.4111317" lon="10.562535"><ele>99.0</ele><time>2026-03-29T09:48:57.396Z</time></trkpt><trkpt lat="45.4112717" lon="10.5626"><ele>98.75</ele><time>2026-03-29T09:48:58.396Z</time></trkpt><trkpt lat="45.4113933" lon="10.562685"><ele>98.5</ele><time>2026-03-29T09:48:59.396Z</time></trkpt><trkpt lat="45.411525" lon="10.5627917"><ele>98.25</ele><time>2026-03-29T09:49:00.396Z</time></trkpt><trkpt lat="45.4116533" lon="10.5628917"><ele>98.0</ele><time>2026-03-29T09:49:01.396Z</time></trkpt><trkpt lat="45.4117783" lon="10.562995"><ele>98.0</ele><time>2026-03-29T09:49:02.396Z</time></trkpt><trkpt lat="45.4119117" lon="10.563105"><ele>98.0</ele><time>2026-03-29T09:49:03.396Z</time></trkpt><trkpt lat="45.412045" lon="10.5632283"><ele>98.0</ele><time>2026-03-29T09:49:04.396Z</time></trkpt><trkpt lat="45.4121767" lon="10.5633517"><ele>97.66666666666666</ele><time>2026-03-29T09:49:05.396Z</time></trkpt><trkpt lat="45.4122967" lon="10.5634717"><ele>97.33333333333334</ele><time>2026-03-29T09:49:06.396Z</time></trkpt><trkpt lat="45.412425" lon="10.5635983"><ele>97.0</ele><time>2026-03-29T09:49:07.397Z</time></trkpt><trkpt lat="45.4125433" lon="10.5637467"><ele>97.0</ele><time>2026-03-29T09:49:08.396Z</time></trkpt><trkpt lat="45.4126583" lon="10.563895"><ele>97.0</ele><time>2026-03-29T09:49:09.396Z</time></trkpt><trkpt lat="45.4127733" lon="10.5640283"><ele>97.0</ele><time>2026-03-29T09:49:10.396Z</time></trkpt><trkpt lat="45.4128783" lon="10.5641617"><ele>97.0</ele><time>2026-03-29T09:49:11.396Z</time></trkpt><trkpt lat="45.413" lon="10.5642733"><ele>97.0</ele><time>2026-03-29T09:49:12.396Z</time></trkpt><trkpt lat="45.41312" lon="10.5643817"><ele>97.0</ele><time>2026-03-29T09:49:13.396Z</time></trkpt><trkpt lat="45.41324" lon="10.564475"><ele>97.0</ele><time>2026-03-29T09:49:14.396Z</time></trkpt><trkpt lat="45.413365" lon="10.5645617"><ele>97.0</ele><time>2026-03-29T09:49:15.396Z</time></trkpt><trkpt lat="45.413485" lon="10.564635"><ele>97.19999999999999</ele><time>2026-03-29T09:49:16.397Z</time></trkpt><trkpt lat="45.4135967" lon="10.56468"><ele>97.4</ele><time>2026-03-29T09:49:17.396Z</time></trkpt><trkpt lat="45.4136883" lon="10.5647033"><ele>97.6</ele><time>2026-03-29T09:49:18.396Z</time></trkpt><trkpt lat="45.413775" lon="10.5646983"><ele>97.80000000000001</ele><time>2026-03-29T09:49:19.396Z</time></trkpt><trkpt lat="45.4138517" lon="10.5646733"><ele>98.0</ele><time>2026-03-29T09:49:20.396Z</time></trkpt><trkpt lat="45.4139367" lon="10.564635"><ele>98.5</ele><time>2026-03-29T09:49:21.396Z</time></trkpt><trkpt lat="45.41403" lon="10.5645667"><ele>99.0</ele><time>2026-03-29T09:49:22.396Z</time></trkpt><trkpt lat="45.4141333" lon="10.56449"><ele>99.5</ele><time>2026-03-29T09:49:23.396Z</time></trkpt><trkpt lat="45.4142533" lon="10.56441"><ele>100.0</ele><time>2026-03-29T09:49:24.396Z</time></trkpt><trkpt lat="45.4143783" lon="10.5643383"><ele>100.0</ele><time>2026-03-29T09:49:25.396Z</time></trkpt><trkpt lat="45.4145" lon="10.564265"><ele>100.0</ele><time>2026-03-29T09:49:26.397Z</time></trkpt><trkpt lat="45.4146283" lon="10.5641933"><ele>100.0</ele><time>2026-03-29T09:49:27.396Z</time></trkpt><trkpt lat="45.4147717" lon="10.564115"><ele>100.0</ele><time>2026-03-29T09:49:28.396Z</time></trkpt><trkpt lat="45.4149233" lon="10.5640483"><ele>101.66666666666667</ele><time>2026-03-29T09:49:29.396Z</time></trkpt><trkpt lat="45.41507" lon="10.56402"><ele>103.33333333333334</ele><time>2026-03-29T09:49:30.396Z</time></trkpt><trkpt lat="45.41522" lon="10.5640083"><ele>105.0</ele><time>2026-03-29T09:49:31.396Z</time></trkpt><trkpt lat="45.4153717" lon="10.5639933"><ele>105.5</ele><time>2026-03-29T09:49:32.396Z</time></trkpt><trkpt lat="45.41552" lon="10.5639683"><ele>106.0</ele><time>2026-03-29T09:49:33.397Z</time></trkpt><trkpt lat="45.4156667" lon="10.5639283"><ele>106.5</ele><time>2026-03-29T09:49:34.397Z</time></trkpt><trkpt lat="45.4158083" lon="10.56387"><ele>107.0</ele><time>2026-03-29T09:49:35.396Z</time></trkpt><trkpt lat="45.4159517" lon="10.5637883"><ele>107.0</ele><time>2026-03-29T09:49:36.396Z</time></trkpt><trkpt lat="45.4160967" lon="10.563705"><ele>107.0</ele><time>2026-03-29T09:49:37.396Z</time></trkpt><trkpt lat="45.4162383" lon="10.5636267"><ele>107.0</ele><time>2026-03-29T09:49:38.396Z</time></trkpt><trkpt lat="45.4163617" lon="10.56356"><ele>107.0</ele><time>2026-03-29T09:49:39.397Z</time></trkpt><trkpt lat="45.4164567" lon="10.5635117"><ele>107.19999999999999</ele><time>2026-03-29T09:49:40.396Z</time></trkpt><trkpt lat="45.4165433" lon="10.5634533"><ele>107.39999999999999</ele><time>2026-03-29T09:49:41.397Z</time></trkpt><trkpt lat="45.4166183" lon="10.5633783"><ele>107.60000000000001</ele><time>2026-03-29T09:49:42.396Z</time></trkpt><trkpt lat="45.416705" lon="10.5632733"><ele>107.80000000000001</ele><time>2026-03-29T09:49:43.397Z</time></trkpt><trkpt lat="45.4168033" lon="10.563175"><ele>108.0</ele><time>2026-03-29T09:49:44.396Z</time></trkpt><trkpt lat="45.4169233" lon="10.563075"><ele>108.0</ele><time>2026-03-29T09:49:45.396Z</time></trkpt><trkpt lat="45.41705" lon="10.5629817"><ele>108.0</ele><time>2026-03-29T09:49:46.396Z</time></trkpt><trkpt lat="45.4171967" lon="10.5629067"><ele>108.0</ele><time>2026-03-29T09:49:47.396Z</time></trkpt><trkpt lat="45.4173483" lon="10.5628317"><ele>108.0</ele><time>2026-03-29T09:49:48.396Z</time></trkpt><trkpt lat="45.417495" lon="10.5627517"><ele>108.0</ele><time>2026-03-29T09:49:49.396Z</time></trkpt><trkpt lat="45.4176233" lon="10.5626767"><ele>108.0</ele><time>2026-03-29T09:49:50.396Z</time></trkpt><trkpt lat="45.4177383" lon="10.5625633"><ele>108.0</ele><time>2026-03-29T09:49:51.397Z</time></trkpt><trkpt lat="45.41786" lon="10.5624117"><ele>108.0</ele><time>2026-03-29T09:49:52.396Z</time></trkpt><trkpt lat="45.4179783" lon="10.562255"><ele>108.0</ele><time>2026-03-29T09:49:53.396Z</time></trkpt><trkpt lat="45.4180817" lon="10.562075"><ele>108.0</ele><time>2026-03-29T09:49:54.396Z</time></trkpt><trkpt lat="45.418195" lon="10.5619067"><ele>108.0</ele><time>2026-03-29T09:49:55.396Z</time></trkpt><trkpt lat="45.4183167" lon="10.5617217"><ele>108.0</ele><time>2026-03-29T09:49:56.396Z</time></trkpt><trkpt lat="45.4184267" lon="10.5615533"><ele>108.0</ele><time>2026-03-29T09:49:57.397Z</time></trkpt><trkpt lat="45.41856" lon="10.5613767"><ele>108.0</ele><time>2026-03-29T09:49:58.396Z</time></trkpt><trkpt lat="45.4186867" lon="10.5612033"><ele>108.0</ele><time>2026-03-29T09:49:59.396Z</time></trkpt><trkpt lat="45.4188133" lon="10.56103"><ele>108.0</ele><time>2026-03-29T09:50:00.396Z</time></trkpt><trkpt lat="45.418945" lon="10.5608683"><ele>109.66666666666666</ele><time>2026-03-29T09:50:01.396Z</time></trkpt><trkpt lat="45.4190833" lon="10.560715"><ele>111.33333333333333</ele><time>2026-03-29T09:50:02.397Z</time></trkpt><trkpt lat="45.419215" lon="10.5605933"><ele>113.0</ele><time>2026-03-29T09:50:03.396Z</time></trkpt><trkpt lat="45.4193683" lon="10.56048"><ele>112.33333333333333</ele><time>2026-03-29T09:50:04.396Z</time></trkpt><trkpt lat="45.419525" lon="10.560355"><ele>111.66666666666666</ele><time>2026-03-29T09:50:05.396Z</time></trkpt><trkpt lat="45.419675" lon="10.5602467"><ele>111.0</ele><time>2026-03-29T09:50:06.397Z</time></trkpt><trkpt lat="45.4198183" lon="10.5601417"><ele>112.0</ele><time>2026-03-29T09:50:07.396Z</time></trkpt><trkpt lat="45.4199417" lon="10.5600667"><ele>113.0</ele><time>2026-03-29T09:50:08.396Z</time></trkpt><trkpt lat="45.4200433" lon="10.5600167"><ele>114.0</ele><time>2026-03-29T09:50:09.396Z</time></trkpt><trkpt lat="45.4201483" lon="10.5599567"><ele>115.0</ele><time>2026-03-29T09:50:10.396Z</time></trkpt><trkpt lat="45.4202433" lon="10.5598883"><ele>115.0</ele><time>2026-03-29T09:50:11.396Z</time></trkpt><trkpt lat="45.420325" lon="10.5597933"><ele>115.0</ele><time>2026-03-29T09:50:12.396Z</time></trkpt><trkpt lat="45.4204083" lon="10.5596683"><ele>115.0</ele><time>2026-03-29T09:50:13.397Z</time></trkpt><trkpt lat="45.4204833" lon="10.5595233"><ele>115.0</ele><time>2026-03-29T09:50:14.396Z</time></trkpt><trkpt lat="45.42058" lon="10.559375"><ele>115.0</ele><time>2026-03-29T09:50:15.396Z</time></trkpt><trkpt lat="45.4206783" lon="10.5592117"><ele>115.0</ele><time>2026-03-29T09:50:16.396Z</time></trkpt><trkpt lat="45.420775" lon="10.5590433"><ele>115.0</ele><time>2026-03-29T09:50:17.396Z</time></trkpt><trkpt lat="45.42087" lon="10.55887"><ele>114.66666666666667</ele><time>2026-03-29T09:50:18.396Z</time></trkpt><trkpt lat="45.4209867" lon="10.55869"><ele>114.33333333333334</ele><time>2026-03-29T09:50:19.397Z</time></trkpt><trkpt lat="45.4211083" lon="10.5585117"><ele>114.0</ele><time>2026-03-29T09:50:20.396Z</time></trkpt><trkpt lat="45.4212183" lon="10.55836"><ele>114.0</ele><time>2026-03-29T09:50:21.397Z</time></trkpt><trkpt lat="45.4213233" lon="10.558195"><ele>114.0</ele><time>2026-03-29T09:50:22.396Z</time></trkpt><trkpt lat="45.4214217" lon="10.5580217"><ele>114.0</ele><time>2026-03-29T09:50:23.396Z</time></trkpt><trkpt lat="45.4215083" lon="10.55785"><ele>114.0</ele><time>2026-03-29T09:50:24.397Z</time></trkpt><trkpt lat="45.4215917" lon="10.5576733"><ele>114.0</ele><time>2026-03-29T09:50:25.396Z</time></trkpt><trkpt lat="45.421665" lon="10.5575083"><ele>114.0</ele><time>2026-03-29T09:50:26.396Z</time></trkpt><trkpt lat="45.4217367" lon="10.5573267"><ele>114.0</ele><time>2026-03-29T09:50:27.396Z</time></trkpt><trkpt lat="45.4217967" lon="10.5571367"><ele>113.33333333333334</ele><time>2026-03-29T09:50:28.396Z</time></trkpt><trkpt lat="45.4218533" lon="10.5569333"><ele>112.66666666666667</ele><time>2026-03-29T09:50:29.396Z</time></trkpt><trkpt lat="45.4219183" lon="10.556725"><ele>112.0</ele><time>2026-03-29T09:50:30.397Z</time></trkpt><trkpt lat="45.421975" lon="10.55653"><ele>112.0</ele><time>2026-03-29T09:50:31.397Z</time></trkpt><trkpt lat="45.422005" lon="10.5563233"><ele>112.0</ele><time>2026-03-29T09:50:32.396Z</time></trkpt><trkpt lat="45.42202" lon="10.5561167"><ele>112.0</ele><time>2026-03-29T09:50:33.396Z</time></trkpt><trkpt lat="45.422035" lon="10.55592"><ele>112.0</ele><time>2026-03-29T09:50:34.396Z</time></trkpt><trkpt lat="45.4220567" lon="10.5557383"><ele>111.5</ele><time>2026-03-29T09:50:35.397Z</time></trkpt><trkpt lat="45.422085" lon="10.5555667"><ele>111.0</ele><time>2026-03-29T09:50:36.396Z</time></trkpt><trkpt lat="45.4221367" lon="10.55541"><ele>110.5</ele><time>2026-03-29T09:50:37.396Z</time></trkpt><trkpt lat="45.4222033" lon="10.5552783"><ele>110.0</ele><time>2026-03-29T09:50:38.396Z</time></trkpt><trkpt lat="45.4222633" lon="10.55517"><ele>109.8</ele><time>2026-03-29T09:50:39.397Z</time></trkpt><trkpt lat="45.4223117" lon="10.5550933"><ele>109.6</ele><time>2026-03-29T09:50:40.397Z</time></trkpt><trkpt lat="45.422365" lon="10.55496"><ele>109.4</ele><time>2026-03-29T09:50:42.396Z</time></trkpt><trkpt lat="45.4223" lon="10.5548267"><ele>109.2</ele><time>2026-03-29T09:50:44.396Z</time></trkpt><trkpt lat="45.4222217" lon="10.55476"><ele>109.0</ele><time>2026-03-29T09:50:45.396Z</time></trkpt><trkpt lat="45.42212" lon="10.5546617"><ele>108.5</ele><time>2026-03-29T09:50:46.396Z</time></trkpt><trkpt lat="45.4219983" lon="10.554535"><ele>108.0</ele><time>2026-03-29T09:50:47.396Z</time></trkpt><trkpt lat="45.4218817" lon="10.55438"><ele>107.5</ele><time>2026-03-29T09:50:48.396Z</time></trkpt><trkpt lat="45.4217883" lon="10.5542333"><ele>107.0</ele><time>2026-03-29T09:50:49.396Z</time></trkpt><trkpt lat="45.4216983" lon="10.554105"><ele>107.0</ele><time>2026-03-29T09:50:50.396Z</time></trkpt><trkpt lat="45.421595" lon="10.554"><ele>107.0</ele><time>2026-03-29T09:50:51.396Z</time></trkpt><trkpt lat="45.421475" lon="10.553915"><ele>107.0</ele><time>2026-03-29T09:50:52.396Z</time></trkpt><trkpt lat="45.4213467" lon="10.553835"><ele>107.0</ele><time>2026-03-29T09:50:53.396Z</time></trkpt><trkpt lat="45.421205" lon="10.55375"><ele>106.0</ele><time>2026-03-29T09:50:54.397Z</time></trkpt><trkpt lat="45.4210667" lon="10.55366"><ele>105.0</ele><time>2026-03-29T09:50:55.396Z</time></trkpt><trkpt lat="45.4209483" lon="10.5535867"><ele>104.0</ele><time>2026-03-29T09:50:56.396Z</time></trkpt><trkpt lat="45.4208417" lon="10.5535117"><ele>103.0</ele><time>2026-03-29T09:50:57.396Z</time></trkpt><trkpt lat="45.4207583" lon="10.5534533"><ele>103.00000000000001</ele><time>2026-03-29T09:50:58.397Z</time></trkpt><trkpt lat="45.42069" lon="10.5533417"><ele>103.0</ele><time>2026-03-29T09:51:00.397Z</time></trkpt><trkpt lat="45.4207267" lon="10.5531917"><ele>103.0</ele><time>2026-03-29T09:51:02.396Z</time></trkpt><trkpt lat="45.4207583" lon="10.553095"><ele>103.0</ele><time>2026-03-29T09:51:03.396Z</time></trkpt><trkpt lat="45.4207983" lon="10.5530017"><ele>103.00000000000001</ele><time>2026-03-29T09:51:04.396Z</time></trkpt><trkpt lat="45.420835" lon="10.5529083"><ele>103.0</ele><time>2026-03-29T09:51:05.396Z</time></trkpt><trkpt lat="45.420835" lon="10.5527783"><ele>102.75</ele><time>2026-03-29T09:51:07.396Z</time></trkpt><trkpt lat="45.4207433" lon="10.552675"><ele>102.5</ele><time>2026-03-29T09:51:09.396Z</time></trkpt><trkpt lat="45.4206583" lon="10.552615"><ele>102.25</ele><time>2026-03-29T09:51:10.396Z</time></trkpt><trkpt lat="45.4205367" lon="10.5525367"><ele>102.0</ele><time>2026-03-29T09:51:11.396Z</time></trkpt><trkpt lat="45.420395" lon="10.5524417"><ele>101.33333333333334</ele><time>2026-03-29T09:51:12.396Z</time></trkpt><trkpt lat="45.4202533" lon="10.5523433"><ele>100.66666666666667</ele><time>2026-03-29T09:51:13.396Z</time></trkpt><trkpt lat="45.4201083" lon="10.5522267"><ele>100.0</ele><time>2026-03-29T09:51:14.396Z</time></trkpt><trkpt lat="45.4199717" lon="10.5520683"><ele>100.0</ele><time>2026-03-29T09:51:15.396Z</time></trkpt><trkpt lat="45.4198267" lon="10.5519083"><ele>100.0</ele><time>2026-03-29T09:51:16.397Z</time></trkpt><trkpt lat="45.4196883" lon="10.5517417"><ele>100.0</ele><time>2026-03-29T09:51:17.396Z</time></trkpt><trkpt lat="45.4195717" lon="10.551565"><ele>100.33333333333334</ele><time>2026-03-29T09:51:18.396Z</time></trkpt><trkpt lat="45.4194767" lon="10.5513883"><ele>100.66666666666666</ele><time>2026-03-29T09:51:19.396Z</time></trkpt><trkpt lat="45.41942" lon="10.55119"><ele>101.0</ele><time>2026-03-29T09:51:20.396Z</time></trkpt><trkpt lat="45.4193617" lon="10.5509767"><ele>101.0</ele><time>2026-03-29T09:51:21.397Z</time></trkpt><trkpt lat="45.4193133" lon="10.5507683"><ele>101.0</ele><time>2026-03-29T09:51:22.397Z</time></trkpt><trkpt lat="45.4192633" lon="10.5505467"><ele>101.0</ele><time>2026-03-29T09:51:23.395Z</time></trkpt><trkpt lat="45.4192033" lon="10.550345"><ele>101.75</ele><time>2026-03-29T09:51:24.395Z</time></trkpt><trkpt lat="45.4191317" lon="10.550165"><ele>102.5</ele><time>2026-03-29T09:51:25.395Z</time></trkpt><trkpt lat="45.41905" lon="10.5499933"><ele>103.25</ele><time>2026-03-29T09:51:26.395Z</time></trkpt><trkpt lat="45.41897" lon="10.5498517"><ele>104.0</ele><time>2026-03-29T09:51:27.395Z</time></trkpt><trkpt lat="45.41889" lon="10.5497267"><ele>104.75</ele><time>2026-03-29T09:51:28.395Z</time></trkpt><trkpt lat="45.4188033" lon="10.5495983"><ele>105.5</ele><time>2026-03-29T09:51:29.395Z</time></trkpt><trkpt lat="45.4187267" lon="10.5494583"><ele>106.25</ele><time>2026-03-29T09:51:30.395Z</time></trkpt><trkpt lat="45.4186533" lon="10.5493317"><ele>107.0</ele><time>2026-03-29T09:51:31.395Z</time></trkpt><trkpt lat="45.4185867" lon="10.5492367"><ele>107.33333333333333</ele><time>2026-03-29T09:51:32.395Z</time></trkpt><trkpt lat="45.418515" lon="10.5491567"><ele>107.66666666666666</ele><time>2026-03-29T09:51:33.395Z</time></trkpt><trkpt lat="45.41845" lon="10.54911"><ele>108.0</ele><time>2026-03-29T09:51:34.395Z</time></trkpt><trkpt lat="45.4183867" lon="10.5491033"><ele>108.33333333333334</ele><time>2026-03-29T09:51:35.395Z</time></trkpt><trkpt lat="45.41832" lon="10.5491283"><ele>108.66666666666667</ele><time>2026-03-29T09:51:36.395Z</time></trkpt><trkpt lat="45.41824" lon="10.549185"><ele>109.0</ele><time>2026-03-29T09:51:37.396Z</time></trkpt><trkpt lat="45.4181567" lon="10.5492583"><ele>109.0</ele><time>2026-03-29T09:51:38.395Z</time></trkpt><trkpt lat="45.4180817" lon="10.5493083"><ele>109.0</ele><time>2026-03-29T09:51:39.395Z</time></trkpt><trkpt lat="45.4180167" lon="10.54933"><ele>109.0</ele><time>2026-03-29T09:51:40.395Z</time></trkpt><trkpt lat="45.4179083" lon="10.5492433"><ele>109.0</ele><time>2026-03-29T09:51:42.395Z</time></trkpt><trkpt lat="45.41787" lon="10.5491367"><ele>109.0</ele><time>2026-03-29T09:51:43.396Z</time></trkpt><trkpt lat="45.4178317" lon="10.5490067"><ele>108.75</ele><time>2026-03-29T09:51:44.395Z</time></trkpt><trkpt lat="45.41778" lon="10.5488533"><ele>108.5</ele><time>2026-03-29T09:51:45.395Z</time></trkpt><trkpt lat="45.4177183" lon="10.5486767"><ele>108.25</ele><time>2026-03-29T09:51:46.395Z</time></trkpt><trkpt lat="45.417645" lon="10.54847"><ele>108.0</ele><time>2026-03-29T09:51:47.395Z</time></trkpt><trkpt lat="45.41757" lon="10.5482717"><ele>108.0</ele><time>2026-03-29T09:51:48.396Z</time></trkpt><trkpt lat="45.4174767" lon="10.5480733"><ele>108.0</ele><time>2026-03-29T09:51:49.395Z</time></trkpt><trkpt lat="45.4173883" lon="10.5478583"><ele>108.0</ele><time>2026-03-29T09:51:50.395Z</time></trkpt><trkpt lat="45.4172983" lon="10.5476517"><ele>107.66666666666666</ele><time>2026-03-29T09:51:51.395Z</time></trkpt><trkpt lat="45.4172083" lon="10.547445"><ele>107.33333333333333</ele><time>2026-03-29T09:51:52.396Z</time></trkpt><trkpt lat="45.4171233" lon="10.5472483"><ele>107.0</ele><time>2026-03-29T09:51:53.396Z</time></trkpt><trkpt lat="45.4170417" lon="10.5470533"><ele>106.66666666666666</ele><time>2026-03-29T09:51:54.396Z</time></trkpt><trkpt lat="45.4169483" lon="10.5468667"><ele>106.33333333333334</ele><time>2026-03-29T09:51:55.395Z</time></trkpt><trkpt lat="45.41684" lon="10.54667"><ele>106.0</ele><time>2026-03-29T09:51:56.395Z</time></trkpt><trkpt lat="45.4167283" lon="10.5464817"><ele>106.0</ele><time>2026-03-29T09:51:57.395Z</time></trkpt><trkpt lat="45.416605" lon="10.5463067"><ele>106.0</ele><time>2026-03-29T09:51:58.395Z</time></trkpt><trkpt lat="45.4164767" lon="10.5461433"><ele>106.0</ele><time>2026-03-29T09:51:59.395Z</time></trkpt><trkpt lat="45.4163483" lon="10.5459883"><ele>107.33333333333334</ele><time>2026-03-29T09:52:00.395Z</time></trkpt><trkpt lat="45.4162167" lon="10.5458317"><ele>108.66666666666666</ele><time>2026-03-29T09:52:01.395Z</time></trkpt><trkpt lat="45.4160867" lon="10.54567"><ele>110.0</ele><time>2026-03-29T09:52:02.395Z</time></trkpt><trkpt lat="45.415945" lon="10.5455"><ele>110.66666666666666</ele><time>2026-03-29T09:52:03.395Z</time></trkpt><trkpt lat="45.4158167" lon="10.5452983"><ele>111.33333333333334</ele><time>2026-03-29T09:52:04.395Z</time></trkpt><trkpt lat="45.41569" lon="10.5450867"><ele>112.0</ele><time>2026-03-29T09:52:05.395Z</time></trkpt><trkpt lat="45.4156017" lon="10.54489"><ele>112.0</ele><time>2026-03-29T09:52:06.395Z</time></trkpt><trkpt lat="45.4155233" lon="10.5447117"><ele>111.99999999999999</ele><time>2026-03-29T09:52:07.395Z</time></trkpt><trkpt lat="45.415455" lon="10.54457"><ele>111.99999999999999</ele><time>2026-03-29T09:52:08.395Z</time></trkpt><trkpt lat="45.4154083" lon="10.5444717"><ele>112.0</ele><time>2026-03-29T09:52:09.395Z</time></trkpt><trkpt lat="45.4153767" lon="10.5443867"><ele>112.0</ele><time>2026-03-29T09:52:10.395Z</time></trkpt><trkpt lat="45.41539" lon="10.5442883"><ele>112.5</ele><time>2026-03-29T09:52:12.395Z</time></trkpt><trkpt lat="45.415535" lon="10.544245"><ele>113.0</ele><time>2026-03-29T09:52:14.395Z</time></trkpt><trkpt lat="45.4156483" lon="10.5442333"><ele>113.5</ele><time>2026-03-29T09:52:15.395Z</time></trkpt><trkpt lat="45.4157867" lon="10.54421"><ele>114.0</ele><time>2026-03-29T09:52:16.395Z</time></trkpt><trkpt lat="45.4159433" lon="10.54418"><ele>114.0</ele><time>2026-03-29T09:52:17.395Z</time></trkpt><trkpt lat="45.4161067" lon="10.5441433"><ele>114.0</ele><time>2026-03-29T09:52:18.396Z</time></trkpt><trkpt lat="45.4162683" lon="10.5441067"><ele>114.0</ele><time>2026-03-29T09:52:19.395Z</time></trkpt><trkpt lat="45.416435" lon="10.5440633"><ele>112.33333333333334</ele><time>2026-03-29T09:52:20.396Z</time></trkpt><trkpt lat="45.4166017" lon="10.5440017"><ele>110.66666666666667</ele><time>2026-03-29T09:52:21.395Z</time></trkpt><trkpt lat="45.4167517" lon="10.5439417"><ele>109.0</ele><time>2026-03-29T09:52:22.395Z</time></trkpt><trkpt lat="45.4168967" lon="10.5438533"><ele>109.0</ele><time>2026-03-29T09:52:23.396Z</time></trkpt><trkpt lat="45.4170367" lon="10.5437333"><ele>109.0</ele><time>2026-03-29T09:52:24.395Z</time></trkpt><trkpt lat="45.4171617" lon="10.5435833"><ele>109.0</ele><time>2026-03-29T09:52:25.395Z</time></trkpt><trkpt lat="45.4172767" lon="10.5433983"><ele>109.0</ele><time>2026-03-29T09:52:26.395Z</time></trkpt><trkpt lat="45.4173783" lon="10.543195"><ele>109.0</ele><time>2026-03-29T09:52:27.395Z</time></trkpt><trkpt lat="45.41748" lon="10.54298"><ele>109.0</ele><time>2026-03-29T09:52:28.395Z</time></trkpt><trkpt lat="45.4175883" lon="10.5427533"><ele>109.0</ele><time>2026-03-29T09:52:29.395Z</time></trkpt><trkpt lat="45.417685" lon="10.5425233"><ele>109.0</ele><time>2026-03-29T09:52:30.396Z</time></trkpt><trkpt lat="45.4177867" lon="10.542295"><ele>109.0</ele><time>2026-03-29T09:52:31.395Z</time></trkpt><trkpt lat="45.4178967" lon="10.5420817"><ele>109.0</ele><time>2026-03-29T09:52:32.395Z</time></trkpt><trkpt lat="45.417995" lon="10.54188"><ele>109.0</ele><time>2026-03-29T09:52:33.395Z</time></trkpt><trkpt lat="45.4181017" lon="10.5416833"><ele>109.0</ele><time>2026-03-29T09:52:34.395Z</time></trkpt><trkpt lat="45.4182117" lon="10.5414983"><ele>109.0</ele><time>2026-03-29T09:52:35.395Z</time></trkpt><trkpt lat="45.41834" lon="10.5413117"><ele>109.0</ele><time>2026-03-29T09:52:36.395Z</time></trkpt><trkpt lat="45.41848" lon="10.541155"><ele>109.0</ele><time>2026-03-29T09:52:37.395Z</time></trkpt><trkpt lat="45.41861" lon="10.5410417"><ele>110.33333333333334</ele><time>2026-03-29T09:52:38.395Z</time></trkpt><trkpt lat="45.4187467" lon="10.54091"><ele>111.66666666666666</ele><time>2026-03-29T09:52:39.395Z</time></trkpt><trkpt lat="45.4188867" lon="10.54077"><ele>113.0</ele><time>2026-03-29T09:52:40.395Z</time></trkpt><trkpt lat="45.4190383" lon="10.5406233"><ele>113.0</ele><time>2026-03-29T09:52:41.395Z</time></trkpt><trkpt lat="45.4192" lon="10.540495"><ele>113.0</ele><time>2026-03-29T09:52:42.396Z</time></trkpt><trkpt lat="45.4193767" lon="10.5403983"><ele>113.0</ele><time>2026-03-29T09:52:43.396Z</time></trkpt><trkpt lat="45.4195433" lon="10.5403183"><ele>114.0</ele><time>2026-03-29T09:52:44.396Z</time></trkpt><trkpt lat="45.4196967" lon="10.5402367"><ele>115.0</ele><time>2026-03-29T09:52:45.395Z</time></trkpt><trkpt lat="45.4198433" lon="10.5401417"><ele>116.0</ele><time>2026-03-29T09:52:46.395Z</time></trkpt><trkpt lat="45.4199967" lon="10.5400383"><ele>116.0</ele><time>2026-03-29T09:52:47.395Z</time></trkpt><trkpt lat="45.4201367" lon="10.5399233"><ele>116.0</ele><time>2026-03-29T09:52:48.395Z</time></trkpt><trkpt lat="45.420265" lon="10.5397833"><ele>116.0</ele><time>2026-03-29T09:52:49.396Z</time></trkpt><trkpt lat="45.4203733" lon="10.5396567"><ele>117.25</ele><time>2026-03-29T09:52:50.395Z</time></trkpt><trkpt lat="45.42048" lon="10.5395383"><ele>118.5</ele><time>2026-03-29T09:52:51.395Z</time></trkpt><trkpt lat="45.4205783" lon="10.5394317"><ele>119.75</ele><time>2026-03-29T09:52:52.395Z</time></trkpt><trkpt lat="45.42069" lon="10.5393433"><ele>121.0</ele><time>2026-03-29T09:52:53.395Z</time></trkpt><trkpt lat="45.42082" lon="10.5392883"><ele>121.0</ele><time>2026-03-29T09:52:54.396Z</time></trkpt><trkpt lat="45.4209633" lon="10.5392283"><ele>121.0</ele><time>2026-03-29T09:52:55.395Z</time></trkpt><trkpt lat="45.4211183" lon="10.5391683"><ele>121.0</ele><time>2026-03-29T09:52:56.395Z</time></trkpt><trkpt lat="45.4212883" lon="10.5391067"><ele>120.33333333333334</ele><time>2026-03-29T09:52:57.395Z</time></trkpt><trkpt lat="45.4214633" lon="10.5390333"><ele>119.66666666666666</ele><time>2026-03-29T09:52:58.396Z</time></trkpt><trkpt lat="45.4216317" lon="10.53896"><ele>119.0</ele><time>2026-03-29T09:52:59.395Z</time></trkpt><trkpt lat="45.4217817" lon="10.5388933"><ele>119.0</ele><time>2026-03-29T09:53:00.395Z</time></trkpt><trkpt lat="45.4218967" lon="10.5388283"><ele>119.0</ele><time>2026-03-29T09:53:01.396Z</time></trkpt><trkpt lat="45.42199" lon="10.5387717"><ele>119.0</ele><time>2026-03-29T09:53:02.396Z</time></trkpt><trkpt lat="45.4220883" lon="10.5387033"><ele>119.0</ele><time>2026-03-29T09:53:03.395Z</time></trkpt><trkpt lat="45.4221933" lon="10.5386333"><ele>120.66666666666666</ele><time>2026-03-29T09:53:04.395Z</time></trkpt><trkpt lat="45.4223183" lon="10.5385583"><ele>122.33333333333334</ele><time>2026-03-29T09:53:05.395Z</time></trkpt><trkpt lat="45.422465" lon="10.5384733"><ele>124.0</ele><time>2026-03-29T09:53:06.396Z</time></trkpt><trkpt lat="45.4226233" lon="10.5383967"><ele>124.0</ele><time>2026-03-29T09:53:07.395Z</time></trkpt><trkpt lat="45.4228167" lon="10.5383283"><ele>124.0</ele><time>2026-03-29T09:53:08.395Z</time></trkpt><trkpt lat="45.4230033" lon="10.5382533"><ele>124.0</ele><time>2026-03-29T09:53:09.395Z</time></trkpt><trkpt lat="45.423195" lon="10.5381883"><ele>124.66666666666667</ele><time>2026-03-29T09:53:10.395Z</time></trkpt><trkpt lat="45.42339" lon="10.538115"><ele>125.33333333333334</ele><time>2026-03-29T09:53:11.395Z</time></trkpt><trkpt lat="45.42356" lon="10.5380533"><ele>126.0</ele><time>2026-03-29T09:53:12.395Z</time></trkpt><trkpt lat="45.4237117" lon="10.5379967"><ele>125.5</ele><time>2026-03-29T09:53:13.395Z</time></trkpt><trkpt lat="45.4238583" lon="10.5379517"><ele>125.0</ele><time>2026-03-29T09:53:14.395Z</time></trkpt><trkpt lat="45.42399" lon="10.537925"><ele>124.5</ele><time>2026-03-29T09:53:15.395Z</time></trkpt><trkpt lat="45.4241133" lon="10.5379167"><ele>124.0</ele><time>2026-03-29T09:53:16.395Z</time></trkpt><trkpt lat="45.424235" lon="10.5379217"><ele>124.0</ele><time>2026-03-29T09:53:17.395Z</time></trkpt><trkpt lat="45.4243317" lon="10.5379233"><ele>124.0</ele><time>2026-03-29T09:53:18.395Z</time></trkpt><trkpt lat="45.4244067" lon="10.5379367"><ele>124.0</ele><time>2026-03-29T09:53:19.396Z</time></trkpt><trkpt lat="45.4244867" lon="10.5379667"><ele>124.0</ele><time>2026-03-29T09:53:20.396Z</time></trkpt><trkpt lat="45.4245967" lon="10.5380033"><ele>124.0</ele><time>2026-03-29T09:53:21.396Z</time></trkpt><trkpt lat="45.4247083" lon="10.5380817"><ele>122.66666666666667</ele><time>2026-03-29T09:53:22.395Z</time></trkpt><trkpt lat="45.42483" lon="10.53821"><ele>121.33333333333334</ele><time>2026-03-29T09:53:23.395Z</time></trkpt><trkpt lat="45.4249667" lon="10.5383483"><ele>120.0</ele><time>2026-03-29T09:53:24.395Z</time></trkpt><trkpt lat="45.4251133" lon="10.538485"><ele>120.0</ele><time>2026-03-29T09:53:25.396Z</time></trkpt><trkpt lat="45.42526" lon="10.5385983"><ele>120.0</ele><time>2026-03-29T09:53:26.395Z</time></trkpt><trkpt lat="45.4254117" lon="10.53869"><ele>120.0</ele><time>2026-03-29T09:53:27.396Z</time></trkpt><trkpt lat="45.4255683" lon="10.5387483"><ele>117.66666666666666</ele><time>2026-03-29T09:53:28.395Z</time></trkpt><trkpt lat="45.4257267" lon="10.5387833"><ele>115.33333333333333</ele><time>2026-03-29T09:53:29.395Z</time></trkpt><trkpt lat="45.425885" lon="10.538815"><ele>113.0</ele><time>2026-03-29T09:53:30.396Z</time></trkpt><trkpt lat="45.426035" lon="10.5388417"><ele>113.0</ele><time>2026-03-29T09:53:31.395Z</time></trkpt><trkpt lat="45.4261933" lon="10.53883"><ele>113.0</ele><time>2026-03-29T09:53:32.395Z</time></trkpt><trkpt lat="45.4263533" lon="10.5388067"><ele>113.0</ele><time>2026-03-29T09:53:33.395Z</time></trkpt><trkpt lat="45.4265167" lon="10.5387733"><ele>113.0</ele><time>2026-03-29T09:53:34.396Z</time></trkpt><trkpt lat="45.426685" lon="10.538755"><ele>113.0</ele><time>2026-03-29T09:53:35.395Z</time></trkpt><trkpt lat="45.4268333" lon="10.538745"><ele>113.0</ele><time>2026-03-29T09:53:36.395Z</time></trkpt><trkpt lat="45.4269683" lon="10.5387333"><ele>113.0</ele><time>2026-03-29T09:53:37.396Z</time></trkpt><trkpt lat="45.427085" lon="10.5387333"><ele>113.00000000000001</ele><time>2026-03-29T09:53:38.395Z</time></trkpt><trkpt lat="45.427195" lon="10.5387367"><ele>113.00000000000001</ele><time>2026-03-29T09:53:39.395Z</time></trkpt><trkpt lat="45.4272883" lon="10.5387317"><ele>113.0</ele><time>2026-03-29T09:53:40.395Z</time></trkpt><trkpt lat="45.4273517" lon="10.5387383"><ele>113.0</ele><time>2026-03-29T09:53:41.395Z</time></trkpt><trkpt lat="45.4274433" lon="10.5387417"><ele>112.80000000000001</ele><time>2026-03-29T09:53:43.396Z</time></trkpt><trkpt lat="45.42751" lon="10.5388183"><ele>112.60000000000001</ele><time>2026-03-29T09:53:45.396Z</time></trkpt><trkpt lat="45.427555" lon="10.5389017"><ele>112.39999999999999</ele><time>2026-03-29T09:53:46.396Z</time></trkpt><trkpt lat="45.427615" lon="10.5390167"><ele>112.19999999999999</ele><time>2026-03-29T09:53:47.395Z</time></trkpt><trkpt lat="45.427695" lon="10.539155"><ele>112.0</ele><time>2026-03-29T09:53:48.396Z</time></trkpt><trkpt lat="45.427785" lon="10.539315"><ele>112.0</ele><time>2026-03-29T09:53:49.395Z</time></trkpt><trkpt lat="45.4278817" lon="10.5394817"><ele>112.0</ele><time>2026-03-29T09:53:50.396Z</time></trkpt><trkpt lat="45.427985" lon="10.5396667"><ele>112.0</ele><time>2026-03-29T09:53:51.396Z</time></trkpt><trkpt lat="45.4280933" lon="10.5398383"><ele>110.66666666666667</ele><time>2026-03-29T09:53:52.395Z</time></trkpt><trkpt lat="45.4281983" lon="10.5400117"><ele>109.33333333333334</ele><time>2026-03-29T09:53:53.395Z</time></trkpt><trkpt lat="45.4283" lon="10.540185"><ele>108.0</ele><time>2026-03-29T09:53:54.395Z</time></trkpt><trkpt lat="45.4283983" lon="10.5403667"><ele>106.66666666666666</ele><time>2026-03-29T09:53:55.395Z</time></trkpt><trkpt lat="45.428495" lon="10.5405433"><ele>105.33333333333333</ele><time>2026-03-29T09:53:56.395Z</time></trkpt><trkpt lat="45.42859" lon="10.54072"><ele>104.0</ele><time>2026-03-29T09:53:57.396Z</time></trkpt><trkpt lat="45.428695" lon="10.5409067"><ele>104.0</ele><time>2026-03-29T09:53:58.395Z</time></trkpt><trkpt lat="45.4288017" lon="10.5410917"><ele>104.0</ele><time>2026-03-29T09:53:59.395Z</time></trkpt><trkpt lat="45.428895" lon="10.5412867"><ele>104.0</ele><time>2026-03-29T09:54:00.396Z</time></trkpt><trkpt lat="45.4289967" lon="10.54147"><ele>105.0</ele><time>2026-03-29T09:54:01.395Z</time></trkpt><trkpt lat="45.4291083" lon="10.5416667"><ele>106.0</ele><time>2026-03-29T09:54:02.396Z</time></trkpt><trkpt lat="45.4292233" lon="10.5418533"><ele>107.0</ele><time>2026-03-29T09:54:03.396Z</time></trkpt><trkpt lat="45.4293317" lon="10.5420283"><ele>106.75</ele><time>2026-03-29T09:54:04.395Z</time></trkpt><trkpt lat="45.4294417" lon="10.5421983"><ele>106.5</ele><time>2026-03-29T09:54:05.395Z</time></trkpt><trkpt lat="45.4295417" lon="10.5423517"><ele>106.25</ele><time>2026-03-29T09:54:06.396Z</time></trkpt><trkpt lat="45.4296267" lon="10.5424867"><ele>106.0</ele><time>2026-03-29T09:54:07.396Z</time></trkpt><trkpt lat="45.4296917" lon="10.5426167"><ele>106.00000000000001</ele><time>2026-03-29T09:54:08.396Z</time></trkpt><trkpt lat="45.42975" lon="10.5427217"><ele>106.0</ele><time>2026-03-29T09:54:09.395Z</time></trkpt><trkpt lat="45.429805" lon="10.5428183"><ele>106.0</ele><time>2026-03-29T09:54:10.395Z</time></trkpt><trkpt lat="45.4298617" lon="10.5429117"><ele>106.0</ele><time>2026-03-29T09:54:11.395Z</time></trkpt><trkpt lat="45.4299133" lon="10.54301"><ele>106.00000000000001</ele><time>2026-03-29T09:54:12.395Z</time></trkpt><trkpt lat="45.429965" lon="10.5430983"><ele>106.0</ele><time>2026-03-29T09:54:13.396Z</time></trkpt><trkpt lat="45.4300083" lon="10.5431817"><ele>105.75</ele><time>2026-03-29T09:54:14.395Z</time></trkpt><trkpt lat="45.4300667" lon="10.5433233"><ele>105.5</ele><time>2026-03-29T09:54:16.395Z</time></trkpt><trkpt lat="45.4301217" lon="10.543415"><ele>105.25</ele><time>2026-03-29T09:54:18.395Z</time></trkpt><trkpt lat="45.4302117" lon="10.5435267"><ele>105.0</ele><time>2026-03-29T09:54:26.395Z</time></trkpt><trkpt lat="45.43029" lon="10.54369"><ele>105.0</ele><time>2026-03-29T09:54:28.395Z</time></trkpt><trkpt lat="45.43034" lon="10.543805"><ele>105.0</ele><time>2026-03-29T09:54:29.395Z</time></trkpt><trkpt lat="45.4304067" lon="10.54394"><ele>105.0</ele><time>2026-03-29T09:54:30.395Z</time></trkpt><trkpt lat="45.43048" lon="10.544085"><ele>105.0</ele><time>2026-03-29T09:54:31.395Z</time></trkpt><trkpt lat="45.4305667" lon="10.544265"><ele>105.0</ele><time>2026-03-29T09:54:32.395Z</time></trkpt><trkpt lat="45.4306683" lon="10.5444683"><ele>105.0</ele><time>2026-03-29T09:54:33.395Z</time></trkpt><trkpt lat="45.43077" lon="10.5446683"><ele>105.0</ele><time>2026-03-29T09:54:34.395Z</time></trkpt><trkpt lat="45.4308667" lon="10.5448783"><ele>105.0</ele><time>2026-03-29T09:54:35.395Z</time></trkpt><trkpt lat="45.4309383" lon="10.54508"><ele>105.0</ele><time>2026-03-29T09:54:36.395Z</time></trkpt><trkpt lat="45.4310033" lon="10.5452667"><ele>105.0</ele><time>2026-03-29T09:54:37.396Z</time></trkpt><trkpt lat="45.4310667" lon="10.5454467"><ele>105.0</ele><time>2026-03-29T09:54:38.395Z</time></trkpt><trkpt lat="45.4311217" lon="10.54561"><ele>105.0</ele><time>2026-03-29T09:54:39.395Z</time></trkpt><trkpt lat="45.4311683" lon="10.54576"><ele>105.0</ele><time>2026-03-29T09:54:40.396Z</time></trkpt><trkpt lat="45.43123" lon="10.5459"><ele>105.0</ele><time>2026-03-29T09:54:41.395Z</time></trkpt><trkpt lat="45.4312767" lon="10.54603"><ele>105.0</ele><time>2026-03-29T09:54:42.396Z</time></trkpt><trkpt lat="45.431315" lon="10.5461467"><ele>105.0</ele><time>2026-03-29T09:54:43.395Z</time></trkpt><trkpt lat="45.4313333" lon="10.54625"><ele>105.2</ele><time>2026-03-29T09:54:44.395Z</time></trkpt><trkpt lat="45.4313517" lon="10.5463467"><ele>105.4</ele><time>2026-03-29T09:54:45.395Z</time></trkpt><trkpt lat="45.4313117" lon="10.5465"><ele>105.6</ele><time>2026-03-29T09:54:47.396Z</time></trkpt><trkpt lat="45.4313" lon="10.5466883"><ele>105.8</ele><time>2026-03-29T09:54:49.396Z</time></trkpt><trkpt lat="45.4313433" lon="10.5467783"><ele>106.0</ele><time>2026-03-29T09:54:50.396Z</time></trkpt><trkpt lat="45.43141" lon="10.5468683"><ele>106.0</ele><time>2026-03-29T09:54:51.395Z</time></trkpt><trkpt lat="45.4314867" lon="10.546995"><ele>106.0</ele><time>2026-03-29T09:54:52.395Z</time></trkpt><trkpt lat="45.4315833" lon="10.54713"><ele>106.0</ele><time>2026-03-29T09:54:53.395Z</time></trkpt><trkpt lat="45.4316883" lon="10.5472783"><ele>106.0</ele><time>2026-03-29T09:54:54.395Z</time></trkpt><trkpt lat="45.4318017" lon="10.5474383"><ele>106.66666666666667</ele><time>2026-03-29T09:54:55.395Z</time></trkpt><trkpt lat="45.4319217" lon="10.5476133"><ele>107.33333333333334</ele><time>2026-03-29T09:54:56.395Z</time></trkpt><trkpt lat="45.43204" lon="10.5477783"><ele>108.0</ele><time>2026-03-29T09:54:57.395Z</time></trkpt><trkpt lat="45.432155" lon="10.547935"><ele>108.25</ele><time>2026-03-29T09:54:58.395Z</time></trkpt><trkpt lat="45.4322683" lon="10.5480767"><ele>108.5</ele><time>2026-03-29T09:54:59.395Z</time></trkpt><trkpt lat="45.4323767" lon="10.5482183"><ele>108.75</ele><time>2026-03-29T09:55:00.395Z</time></trkpt><trkpt lat="45.432485" lon="10.5483583"><ele>109.0</ele><time>2026-03-29T09:55:01.396Z</time></trkpt><trkpt lat="45.4325883" lon="10.54851"><ele>109.0</ele><time>2026-03-29T09:55:02.395Z</time></trkpt><trkpt lat="45.43269" lon="10.5486767"><ele>109.0</ele><time>2026-03-29T09:55:03.396Z</time></trkpt><trkpt lat="45.432805" lon="10.5487983"><ele>109.0</ele><time>2026-03-29T09:55:04.395Z</time></trkpt><trkpt lat="45.432915" lon="10.5488933"><ele>109.0</ele><time>2026-03-29T09:55:05.395Z</time></trkpt><trkpt lat="45.4330217" lon="10.5489667"><ele>109.16666666666667</ele><time>2026-03-29T09:55:06.395Z</time></trkpt><trkpt lat="45.433115" lon="10.54903"><ele>109.33333333333334</ele><time>2026-03-29T09:55:07.395Z</time></trkpt><trkpt lat="45.4331867" lon="10.5490917"><ele>109.5</ele><time>2026-03-29T09:55:08.395Z</time></trkpt><trkpt lat="45.433235" lon="10.5491833"><ele>109.66666666666666</ele><time>2026-03-29T09:55:09.395Z</time></trkpt><trkpt lat="45.4332517" lon="10.5492733"><ele>109.83333333333333</ele><time>2026-03-29T09:55:10.396Z</time></trkpt><trkpt lat="45.433275" lon="10.5493567"><ele>110.0</ele><time>2026-03-29T09:55:11.395Z</time></trkpt><trkpt lat="45.43337" lon="10.549405"><ele>110.0</ele><time>2026-03-29T09:55:13.396Z</time></trkpt><trkpt lat="45.433455" lon="10.549345"><ele>110.0</ele><time>2026-03-29T09:55:14.396Z</time></trkpt><trkpt lat="45.433555" lon="10.5492667"><ele>110.0</ele><time>2026-03-29T09:55:15.395Z</time></trkpt><trkpt lat="45.4336733" lon="10.5491833"><ele>110.0</ele><time>2026-03-29T09:55:16.395Z</time></trkpt><trkpt lat="45.4338233" lon="10.5490917"><ele>111.0</ele><time>2026-03-29T09:55:17.395Z</time></trkpt><trkpt lat="45.4339683" lon="10.5489967"><ele>112.0</ele><time>2026-03-29T09:55:18.395Z</time></trkpt><trkpt lat="45.4341083" lon="10.54888"><ele>113.0</ele><time>2026-03-29T09:55:19.396Z</time></trkpt><trkpt lat="45.4342583" lon="10.5487533"><ele>112.33333333333333</ele><time>2026-03-29T09:55:20.395Z</time></trkpt><trkpt lat="45.4344133" lon="10.5485883"><ele>111.66666666666666</ele><time>2026-03-29T09:55:21.395Z</time></trkpt><trkpt lat="45.4345633" lon="10.5484183"><ele>111.0</ele><time>2026-03-29T09:55:22.395Z</time></trkpt><trkpt lat="45.4346983" lon="10.5482617"><ele>111.0</ele><time>2026-03-29T09:55:23.395Z</time></trkpt><trkpt lat="45.4348133" lon="10.5481383"><ele>111.0</ele><time>2026-03-29T09:55:24.395Z</time></trkpt><trkpt lat="45.434905" lon="10.5480233"><ele>111.0</ele><time>2026-03-29T09:55:25.395Z</time></trkpt><trkpt lat="45.4349883" lon="10.5479217"><ele>111.0</ele><time>2026-03-29T09:55:26.395Z</time></trkpt><trkpt lat="45.4350467" lon="10.5478083"><ele>110.5</ele><time>2026-03-29T09:55:27.395Z</time></trkpt><trkpt lat="45.4350967" lon="10.5476767"><ele>110.0</ele><time>2026-03-29T09:55:28.396Z</time></trkpt><trkpt lat="45.4351467" lon="10.5475017"><ele>109.5</ele><time>2026-03-29T09:55:29.396Z</time></trkpt><trkpt lat="45.4352033" lon="10.5473017"><ele>109.0</ele><time>2026-03-29T09:55:30.396Z</time></trkpt><trkpt lat="45.4352683" lon="10.5470967"><ele>109.33333333333334</ele><time>2026-03-29T09:55:31.395Z</time></trkpt><trkpt lat="45.43534" lon="10.5468983"><ele>109.66666666666666</ele><time>2026-03-29T09:55:32.395Z</time></trkpt><trkpt lat="45.435425" lon="10.54672"><ele>110.0</ele><time>2026-03-29T09:55:33.395Z</time></trkpt><trkpt lat="45.43554" lon="10.5465433"><ele>109.0</ele><time>2026-03-29T09:55:34.395Z</time></trkpt><trkpt lat="45.4356617" lon="10.5463683"><ele>108.0</ele><time>2026-03-29T09:55:35.395Z</time></trkpt><trkpt lat="45.4357983" lon="10.5462017"><ele>107.0</ele><time>2026-03-29T09:55:36.395Z</time></trkpt><trkpt lat="45.4359283" lon="10.546025"><ele>107.0</ele><time>2026-03-29T09:55:37.395Z</time></trkpt><trkpt lat="45.436065" lon="10.5458483"><ele>107.0</ele><time>2026-03-29T09:55:38.395Z</time></trkpt><trkpt lat="45.4361983" lon="10.5456683"><ele>107.0</ele><time>2026-03-29T09:55:39.395Z</time></trkpt><trkpt lat="45.436325" lon="10.5454767"><ele>107.0</ele><time>2026-03-29T09:55:40.395Z</time></trkpt><trkpt lat="45.4364533" lon="10.5452717"><ele>107.0</ele><time>2026-03-29T09:55:41.396Z</time></trkpt><trkpt lat="45.4365867" lon="10.5450817"><ele>107.0</ele><time>2026-03-29T09:55:42.395Z</time></trkpt><trkpt lat="45.4367283" lon="10.54489"><ele>107.0</ele><time>2026-03-29T09:55:43.395Z</time></trkpt><trkpt lat="45.4368683" lon="10.544695"><ele>107.0</ele><time>2026-03-29T09:55:44.395Z</time></trkpt><trkpt lat="45.4370117" lon="10.54449"><ele>107.0</ele><time>2026-03-29T09:55:45.395Z</time></trkpt><trkpt lat="45.4371467" lon="10.5442883"><ele>107.0</ele><time>2026-03-29T09:55:46.395Z</time></trkpt><trkpt lat="45.43727" lon="10.5440983"><ele>107.0</ele><time>2026-03-29T09:55:47.395Z</time></trkpt><trkpt lat="45.4373867" lon="10.5438917"><ele>107.0</ele><time>2026-03-29T09:55:48.395Z</time></trkpt><trkpt lat="45.4375033" lon="10.543685"><ele>107.0</ele><time>2026-03-29T09:55:49.395Z</time></trkpt><trkpt lat="45.4376117" lon="10.543465"><ele>107.0</ele><time>2026-03-29T09:55:50.395Z</time></trkpt><trkpt lat="45.4377233" lon="10.543235"><ele>107.0</ele><time>2026-03-29T09:55:51.395Z</time></trkpt><trkpt lat="45.437845" lon="10.5430033"><ele>107.0</ele><time>2026-03-29T09:55:52.395Z</time></trkpt><trkpt lat="45.43797" lon="10.54276"><ele>107.0</ele><time>2026-03-29T09:55:53.396Z</time></trkpt><trkpt lat="45.4380883" lon="10.54251"><ele>107.0</ele><time>2026-03-29T09:55:54.395Z</time></trkpt><trkpt lat="45.4382133" lon="10.5422583"><ele>106.66666666666666</ele><time>2026-03-29T09:55:55.396Z</time></trkpt><trkpt lat="45.4383417" lon="10.5420083"><ele>106.33333333333334</ele><time>2026-03-29T09:55:56.396Z</time></trkpt><trkpt lat="45.438475" lon="10.5417617"><ele>106.0</ele><time>2026-03-29T09:55:57.395Z</time></trkpt><trkpt lat="45.4386067" lon="10.5415167"><ele>106.0</ele><time>2026-03-29T09:55:58.395Z</time></trkpt><trkpt lat="45.4387417" lon="10.5412783"><ele>106.0</ele><time>2026-03-29T09:55:59.395Z</time></trkpt><trkpt lat="45.438885" lon="10.5410467"><ele>106.0</ele><time>2026-03-29T09:56:00.395Z</time></trkpt><trkpt lat="45.4390183" lon="10.54083"><ele>106.33333333333334</ele><time>2026-03-29T09:56:01.395Z</time></trkpt><trkpt lat="45.43915" lon="10.5406283"><ele>106.66666666666666</ele><time>2026-03-29T09:56:02.396Z</time></trkpt><trkpt lat="45.4392783" lon="10.5404233"><ele>107.0</ele><time>2026-03-29T09:56:03.396Z</time></trkpt><trkpt lat="45.4393867" lon="10.5401983"><ele>107.0</ele><time>2026-03-29T09:56:04.395Z</time></trkpt><trkpt lat="45.439495" lon="10.5399483"><ele>107.0</ele><time>2026-03-29T09:56:05.396Z</time></trkpt><trkpt lat="45.4395767" lon="10.53972"><ele>107.0</ele><time>2026-03-29T09:56:06.396Z</time></trkpt><trkpt lat="45.43965" lon="10.5394883"><ele>106.66666666666666</ele><time>2026-03-29T09:56:07.395Z</time></trkpt><trkpt lat="45.4397133" lon="10.539265"><ele>106.33333333333334</ele><time>2026-03-29T09:56:08.394Z</time></trkpt><trkpt lat="45.4397833" lon="10.53904"><ele>106.0</ele><time>2026-03-29T09:56:09.394Z</time></trkpt><trkpt lat="45.4398517" lon="10.538805"><ele>106.0</ele><time>2026-03-29T09:56:10.395Z</time></trkpt><trkpt lat="45.43994" lon="10.53857"><ele>106.0</ele><time>2026-03-29T09:56:11.395Z</time></trkpt><trkpt lat="45.440025" lon="10.5383367"><ele>106.0</ele><time>2026-03-29T09:56:12.395Z</time></trkpt><trkpt lat="45.44012" lon="10.5380933"><ele>106.0</ele><time>2026-03-29T09:56:13.394Z</time></trkpt><trkpt lat="45.44022" lon="10.5378333"><ele>106.0</ele><time>2026-03-29T09:56:14.394Z</time></trkpt><trkpt lat="45.4403217" lon="10.537585"><ele>106.0</ele><time>2026-03-29T09:56:15.394Z</time></trkpt><trkpt lat="45.4404383" lon="10.5373283"><ele>106.5</ele><time>2026-03-29T09:56:16.394Z</time></trkpt><trkpt lat="45.44056" lon="10.537075"><ele>107.0</ele><time>2026-03-29T09:56:17.394Z</time></trkpt><trkpt lat="45.4406983" lon="10.536805"><ele>107.5</ele><time>2026-03-29T09:56:18.394Z</time></trkpt><trkpt lat="45.4408333" lon="10.5365217"><ele>108.0</ele><time>2026-03-29T09:56:19.394Z</time></trkpt><trkpt lat="45.4409683" lon="10.536265"><ele>108.5</ele><time>2026-03-29T09:56:20.394Z</time></trkpt><trkpt lat="45.4411017" lon="10.536"><ele>109.0</ele><time>2026-03-29T09:56:21.394Z</time></trkpt><trkpt lat="45.4412367" lon="10.5357383"><ele>109.0</ele><time>2026-03-29T09:56:22.394Z</time></trkpt><trkpt lat="45.4413683" lon="10.535495"><ele>109.0</ele><time>2026-03-29T09:56:23.395Z</time></trkpt><trkpt lat="45.4414967" lon="10.5352717"><ele>109.0</ele><time>2026-03-29T09:56:24.394Z</time></trkpt><trkpt lat="45.4416133" lon="10.5350483"><ele>109.0</ele><time>2026-03-29T09:56:25.394Z</time></trkpt><trkpt lat="45.441715" lon="10.5348467"><ele>109.0</ele><time>2026-03-29T09:56:26.394Z</time></trkpt><trkpt lat="45.4418117" lon="10.5346667"><ele>109.0</ele><time>2026-03-29T09:56:27.394Z</time></trkpt><trkpt lat="45.4418967" lon="10.5345167"><ele>109.0</ele><time>2026-03-29T09:56:28.394Z</time></trkpt><trkpt lat="45.441955" lon="10.5343917"><ele>109.0</ele><time>2026-03-29T09:56:29.394Z</time></trkpt><trkpt lat="45.44198" lon="10.5342883"><ele>109.0</ele><time>2026-03-29T09:56:30.394Z</time></trkpt><trkpt lat="45.44198" lon="10.5341983"><ele>109.0</ele><time>2026-03-29T09:56:31.395Z</time></trkpt><trkpt lat="45.4418983" lon="10.53404"><ele>109.0</ele><time>2026-03-29T09:56:33.394Z</time></trkpt><trkpt lat="45.4418217" lon="10.53395"><ele>109.0</ele><time>2026-03-29T09:56:34.394Z</time></trkpt><trkpt lat="45.4417233" lon="10.533835"><ele>109.0</ele><time>2026-03-29T09:56:35.394Z</time></trkpt><trkpt lat="45.4416" lon="10.5336967"><ele>109.0</ele><time>2026-03-29T09:56:36.395Z</time></trkpt><trkpt lat="45.4414683" lon="10.5335533"><ele>109.66666666666667</ele><time>2026-03-29T09:56:37.394Z</time></trkpt><trkpt lat="45.4413217" lon="10.5334017"><ele>110.33333333333334</ele><time>2026-03-29T09:56:38.394Z</time></trkpt><trkpt lat="45.4411617" lon="10.53323"><ele>111.0</ele><time>2026-03-29T09:56:39.394Z</time></trkpt><trkpt lat="45.441" lon="10.53307"><ele>110.33333333333334</ele><time>2026-03-29T09:56:40.395Z</time></trkpt><trkpt lat="45.440845" lon="10.5329017"><ele>109.66666666666667</ele><time>2026-03-29T09:56:41.394Z</time></trkpt><trkpt lat="45.4407067" lon="10.53274"><ele>109.0</ele><time>2026-03-29T09:56:42.394Z</time></trkpt><trkpt lat="45.4405733" lon="10.532595"><ele>109.0</ele><time>2026-03-29T09:56:43.394Z</time></trkpt><trkpt lat="45.4404667" lon="10.5324783"><ele>109.0</ele><time>2026-03-29T09:56:44.394Z</time></trkpt><trkpt lat="45.4403733" lon="10.53238"><ele>109.0</ele><time>2026-03-29T09:56:45.394Z</time></trkpt><trkpt lat="45.4402967" lon="10.5323083"><ele>109.0</ele><time>2026-03-29T09:56:46.394Z</time></trkpt><trkpt lat="45.440215" lon="10.5322683"><ele>109.0</ele><time>2026-03-29T09:56:47.394Z</time></trkpt><trkpt lat="45.440125" lon="10.5322533"><ele>108.75</ele><time>2026-03-29T09:56:48.394Z</time></trkpt><trkpt lat="45.4400033" lon="10.5322567"><ele>108.5</ele><time>2026-03-29T09:56:49.394Z</time></trkpt><trkpt lat="45.4398583" lon="10.5322883"><ele>108.25</ele><time>2026-03-29T09:56:50.394Z</time></trkpt><trkpt lat="45.4396883" lon="10.5323333"><ele>108.0</ele><time>2026-03-29T09:56:51.394Z</time></trkpt><trkpt lat="45.4395" lon="10.5323833"><ele>108.66666666666666</ele><time>2026-03-29T09:56:52.394Z</time></trkpt><trkpt lat="45.4393033" lon="10.532425"><ele>109.33333333333333</ele><time>2026-03-29T09:56:53.394Z</time></trkpt><trkpt lat="45.4390883" lon="10.532475"><ele>110.0</ele><time>2026-03-29T09:56:54.394Z</time></trkpt><trkpt lat="45.43887" lon="10.5325267"><ele>110.0</ele><time>2026-03-29T09:56:55.394Z</time></trkpt><trkpt lat="45.4386467" lon="10.5325767"><ele>110.0</ele><time>2026-03-29T09:56:56.394Z</time></trkpt><trkpt lat="45.43843" lon="10.5326333"><ele>110.0</ele><time>2026-03-29T09:56:57.395Z</time></trkpt><trkpt lat="45.4382133" lon="10.5326783"><ele>110.0</ele><time>2026-03-29T09:56:58.394Z</time></trkpt><trkpt lat="45.4379983" lon="10.532735"><ele>110.0</ele><time>2026-03-29T09:56:59.394Z</time></trkpt><trkpt lat="45.4377967" lon="10.53279"><ele>110.0</ele><time>2026-03-29T09:57:00.394Z</time></trkpt><trkpt lat="45.4375967" lon="10.5328433"><ele>109.0</ele><time>2026-03-29T09:57:01.394Z</time></trkpt><trkpt lat="45.4373917" lon="10.5328967"><ele>108.0</ele><time>2026-03-29T09:57:02.395Z</time></trkpt><trkpt lat="45.437195" lon="10.5329433"><ele>107.0</ele><time>2026-03-29T09:57:03.395Z</time></trkpt><trkpt lat="45.4370017" lon="10.5329917"><ele>107.0</ele><time>2026-03-29T09:57:04.395Z</time></trkpt><trkpt lat="45.4368217" lon="10.5330317"><ele>107.0</ele><time>2026-03-29T09:57:05.394Z</time></trkpt><trkpt lat="45.4366483" lon="10.5330767"><ele>107.0</ele><time>2026-03-29T09:57:06.395Z</time></trkpt><trkpt lat="45.436495" lon="10.5331183"><ele>107.0</ele><time>2026-03-29T09:57:07.394Z</time></trkpt><trkpt lat="45.4363583" lon="10.53314"><ele>106.99999999999999</ele><time>2026-03-29T09:57:08.394Z</time></trkpt><trkpt lat="45.4362383" lon="10.5331667"><ele>106.99999999999999</ele><time>2026-03-29T09:57:09.394Z</time></trkpt><trkpt lat="45.4361433" lon="10.5331867"><ele>107.0</ele><time>2026-03-29T09:57:10.394Z</time></trkpt><trkpt lat="45.4360517" lon="10.5332017"><ele>107.0</ele><time>2026-03-29T09:57:11.394Z</time></trkpt><trkpt lat="45.4359767" lon="10.5332117"><ele>107.0</ele><time>2026-03-29T09:57:12.394Z</time></trkpt><trkpt lat="45.4359017" lon="10.5332083"><ele>106.99999999999999</ele><time>2026-03-29T09:57:14.395Z</time></trkpt><trkpt lat="45.435925" lon="10.5330467"><ele>106.99999999999999</ele><time>2026-03-29T09:57:17.394Z</time></trkpt><trkpt lat="45.435975" lon="10.5329333"><ele>107.0</ele><time>2026-03-29T09:57:18.394Z</time></trkpt><trkpt lat="45.4360317" lon="10.5327833"><ele>107.0</ele><time>2026-03-29T09:57:19.394Z</time></trkpt><trkpt lat="45.4361033" lon="10.5325967"><ele>107.0</ele><time>2026-03-29T09:57:20.394Z</time></trkpt><trkpt lat="45.436175" lon="10.53239"><ele>107.0</ele><time>2026-03-29T09:57:21.394Z</time></trkpt><trkpt lat="45.4362517" lon="10.532175"><ele>107.0</ele><time>2026-03-29T09:57:22.394Z</time></trkpt><trkpt lat="45.43633" lon="10.531955"><ele>106.33333333333333</ele><time>2026-03-29T09:57:23.394Z</time></trkpt><trkpt lat="45.43641" lon="10.5317117"><ele>105.66666666666666</ele><time>2026-03-29T09:57:24.395Z</time></trkpt><trkpt lat="45.4365017" lon="10.5314533"><ele>105.0</ele><time>2026-03-29T09:57:25.395Z</time></trkpt><trkpt lat="45.4365983" lon="10.53118"><ele>107.33333333333334</ele><time>2026-03-29T09:57:26.394Z</time></trkpt><trkpt lat="45.4366933" lon="10.5309033"><ele>109.66666666666667</ele><time>2026-03-29T09:57:27.395Z</time></trkpt><trkpt lat="45.4367867" lon="10.5306367"><ele>112.0</ele><time>2026-03-29T09:57:28.394Z</time></trkpt><trkpt lat="45.436865" lon="10.530405"><ele>113.0</ele><time>2026-03-29T09:57:29.394Z</time></trkpt><trkpt lat="45.4369383" lon="10.5301967"><ele>114.0</ele><time>2026-03-29T09:57:30.394Z</time></trkpt><trkpt lat="45.4369967" lon="10.5299933"><ele>115.0</ele><time>2026-03-29T09:57:31.394Z</time></trkpt><trkpt lat="45.4370483" lon="10.5298017"><ele>115.0</ele><time>2026-03-29T09:57:32.394Z</time></trkpt><trkpt lat="45.43706" lon="10.529615"><ele>115.0</ele><time>2026-03-29T09:57:33.394Z</time></trkpt><trkpt lat="45.4370333" lon="10.529425"><ele>115.0</ele><time>2026-03-29T09:57:34.394Z</time></trkpt><trkpt lat="45.437005" lon="10.5292317"><ele>115.0</ele><time>2026-03-29T09:57:35.394Z</time></trkpt><trkpt lat="45.4369483" lon="10.5290467"><ele>118.33333333333334</ele><time>2026-03-29T09:57:36.394Z</time></trkpt><trkpt lat="45.4368833" lon="10.52887"><ele>121.66666666666666</ele><time>2026-03-29T09:57:37.395Z</time></trkpt><trkpt lat="45.4368183" lon="10.52867"><ele>125.0</ele><time>2026-03-29T09:57:38.394Z</time></trkpt><trkpt lat="45.436755" lon="10.528465"><ele>127.0</ele><time>2026-03-29T09:57:39.394Z</time></trkpt><trkpt lat="45.436705" lon="10.52826"><ele>129.0</ele><time>2026-03-29T09:57:40.394Z</time></trkpt><trkpt lat="45.4366767" lon="10.52805"><ele>131.0</ele><time>2026-03-29T09:57:41.394Z</time></trkpt><trkpt lat="45.43667" lon="10.5278683"><ele>133.0</ele><time>2026-03-29T09:57:42.394Z</time></trkpt><trkpt lat="45.4366817" lon="10.5277083"><ele>134.0</ele><time>2026-03-29T09:57:43.394Z</time></trkpt><trkpt lat="45.4367233" lon="10.52755"><ele>135.0</ele><time>2026-03-29T09:57:44.395Z</time></trkpt><trkpt lat="45.436765" lon="10.52737"><ele>136.0</ele><time>2026-03-29T09:57:45.394Z</time></trkpt><trkpt lat="45.4367967" lon="10.52716"><ele>137.0</ele><time>2026-03-29T09:57:46.395Z</time></trkpt><trkpt lat="45.43682" lon="10.5269367"><ele>137.33333333333331</ele><time>2026-03-29T09:57:47.394Z</time></trkpt><trkpt lat="45.43686" lon="10.5266767"><ele>137.66666666666666</ele><time>2026-03-29T09:57:48.394Z</time></trkpt><trkpt lat="45.4369117" lon="10.526385"><ele>138.0</ele><time>2026-03-29T09:57:49.395Z</time></trkpt><trkpt lat="45.436955" lon="10.5260883"><ele>138.33333333333334</ele><time>2026-03-29T09:57:50.394Z</time></trkpt><trkpt lat="45.4370033" lon="10.525805"><ele>138.66666666666669</ele><time>2026-03-29T09:57:51.394Z</time></trkpt><trkpt lat="45.4370517" lon="10.525545"><ele>139.0</ele><time>2026-03-29T09:57:52.394Z</time></trkpt><trkpt lat="45.4370967" lon="10.5252933"><ele>139.0</ele><time>2026-03-29T09:57:53.394Z</time></trkpt><trkpt lat="45.4371383" lon="10.5250383"><ele>139.0</ele><time>2026-03-29T09:57:54.395Z</time></trkpt><trkpt lat="45.437175" lon="10.5247783"><ele>139.0</ele><time>2026-03-29T09:57:55.395Z</time></trkpt><trkpt lat="45.437205" lon="10.5245"><ele>138.66666666666669</ele><time>2026-03-29T09:57:56.395Z</time></trkpt><trkpt lat="45.4372183" lon="10.5242067"><ele>138.33333333333334</ele><time>2026-03-29T09:57:57.394Z</time></trkpt><trkpt lat="45.4372383" lon="10.523925"><ele>138.0</ele><time>2026-03-29T09:57:58.394Z</time></trkpt><trkpt lat="45.43725" lon="10.5236517"><ele>134.66666666666666</ele><time>2026-03-29T09:57:59.395Z</time></trkpt><trkpt lat="45.43726" lon="10.5233683"><ele>131.33333333333331</ele><time>2026-03-29T09:58:00.394Z</time></trkpt><trkpt lat="45.43727" lon="10.5230783"><ele>128.0</ele><time>2026-03-29T09:58:01.394Z</time></trkpt><trkpt lat="45.437275" lon="10.52279"><ele>126.66666666666666</ele><time>2026-03-29T09:58:02.394Z</time></trkpt><trkpt lat="45.43728" lon="10.5224933"><ele>125.33333333333334</ele><time>2026-03-29T09:58:03.394Z</time></trkpt><trkpt lat="45.4372867" lon="10.5221833"><ele>124.0</ele><time>2026-03-29T09:58:04.394Z</time></trkpt><trkpt lat="45.4372833" lon="10.5218517"><ele>124.0</ele><time>2026-03-29T09:58:05.394Z</time></trkpt><trkpt lat="45.4372867" lon="10.5215083"><ele>124.0</ele><time>2026-03-29T09:58:06.394Z</time></trkpt><trkpt lat="45.43729" lon="10.5211767"><ele>122.0</ele><time>2026-03-29T09:58:07.395Z</time></trkpt><trkpt lat="45.4373" lon="10.52084"><ele>120.0</ele><time>2026-03-29T09:58:08.395Z</time></trkpt><trkpt lat="45.43731" lon="10.52048"><ele>120.0</ele><time>2026-03-29T09:58:09.394Z</time></trkpt><trkpt lat="45.43732" lon="10.52013"><ele>120.0</ele><time>2026-03-29T09:58:10.394Z</time></trkpt><trkpt lat="45.4373267" lon="10.51982"><ele>121.0</ele><time>2026-03-29T09:58:11.394Z</time></trkpt><trkpt lat="45.437335" lon="10.51954"><ele>122.0</ele><time>2026-03-29T09:58:12.394Z</time></trkpt><trkpt lat="45.43734" lon="10.5192933"><ele>123.0</ele><time>2026-03-29T09:58:13.395Z</time></trkpt><trkpt lat="45.4373467" lon="10.51905"><ele>123.0</ele><time>2026-03-29T09:58:14.394Z</time></trkpt><trkpt lat="45.4373533" lon="10.5188417"><ele>123.0</ele><time>2026-03-29T09:58:15.394Z</time></trkpt><trkpt lat="45.437355" lon="10.5186817"><ele>123.0</ele><time>2026-03-29T09:58:16.394Z</time></trkpt><trkpt lat="45.4373883" lon="10.5185567"><ele>123.0</ele><time>2026-03-29T09:58:17.394Z</time></trkpt><trkpt lat="45.4374817" lon="10.5184517"><ele>123.25</ele><time>2026-03-29T09:58:19.394Z</time></trkpt><trkpt lat="45.437575" lon="10.518435"><ele>123.5</ele><time>2026-03-29T09:58:20.394Z</time></trkpt><trkpt lat="45.4376967" lon="10.518435"><ele>123.75</ele><time>2026-03-29T09:58:21.394Z</time></trkpt><trkpt lat="45.4378417" lon="10.51844"><ele>124.0</ele><time>2026-03-29T09:58:22.395Z</time></trkpt><trkpt lat="45.437995" lon="10.51844"><ele>124.0</ele><time>2026-03-29T09:58:23.394Z</time></trkpt><trkpt lat="45.43816" lon="10.5184467"><ele>124.0</ele><time>2026-03-29T09:58:24.395Z</time></trkpt><trkpt lat="45.4383395" lon="10.5184587"><ele>124.0</ele><time>2026-03-29T09:58:25.394Z</time></trkpt><trkpt lat="45.4385318" lon="10.5184852"><ele>124.0</ele><time>2026-03-29T09:58:26.394Z</time></trkpt><trkpt lat="45.43873" lon="10.5185162"><ele>124.0</ele><time>2026-03-29T09:58:27.395Z</time></trkpt><trkpt lat="45.4389199" lon="10.5185476"><ele>124.0</ele><time>2026-03-29T09:58:28.394Z</time></trkpt><trkpt lat="45.4390975" lon="10.5185793"><ele>123.66666666666667</ele><time>2026-03-29T09:58:29.394Z</time></trkpt><trkpt lat="45.4392663" lon="10.518625"><ele>123.33333333333334</ele><time>2026-03-29T09:58:30.394Z</time></trkpt><trkpt lat="45.4394353" lon="10.5186823"><ele>123.0</ele><time>2026-03-29T09:58:31.395Z</time></trkpt><trkpt lat="45.4395947" lon="10.5187642"><ele>125.33333333333334</ele><time>2026-03-29T09:58:32.394Z</time></trkpt><trkpt lat="45.4397393" lon="10.5188619"><ele>127.66666666666667</ele><time>2026-03-29T09:58:33.395Z</time></trkpt><trkpt lat="45.4398752" lon="10.5189797"><ele>130.0</ele><time>2026-03-29T09:58:34.394Z</time></trkpt><trkpt lat="45.4400026" lon="10.5191122"><ele>130.0</ele><time>2026-03-29T09:58:35.394Z</time></trkpt><trkpt lat="45.4401103" lon="10.5192625"><ele>130.0</ele><time>2026-03-29T09:58:36.394Z</time></trkpt><trkpt lat="45.4402083" lon="10.5194267"><ele>130.0</ele><time>2026-03-29T09:58:37.394Z</time></trkpt><trkpt lat="45.4402896" lon="10.5195867"><ele>130.0</ele><time>2026-03-29T09:58:38.394Z</time></trkpt><trkpt lat="45.4403635" lon="10.5197335"><ele>129.8</ele><time>2026-03-29T09:58:39.394Z</time></trkpt><trkpt lat="45.4404317" lon="10.5198635"><ele>129.6</ele><time>2026-03-29T09:58:40.394Z</time></trkpt><trkpt lat="45.4405047" lon="10.5199767"><ele>129.4</ele><time>2026-03-29T09:58:41.394Z</time></trkpt><trkpt lat="45.4405762" lon="10.5200655"><ele>129.2</ele><time>2026-03-29T09:58:42.394Z</time></trkpt><trkpt lat="45.4406594" lon="10.5201582"><ele>129.0</ele><time>2026-03-29T09:58:43.394Z</time></trkpt><trkpt lat="45.4407613" lon="10.5202401"><ele>129.5</ele><time>2026-03-29T09:58:44.394Z</time></trkpt><trkpt lat="45.4408811" lon="10.5202878"><ele>130.0</ele><time>2026-03-29T09:58:45.394Z</time></trkpt><trkpt lat="45.4410206" lon="10.5203086"><ele>130.5</ele><time>2026-03-29T09:58:46.394Z</time></trkpt><trkpt lat="45.4411778" lon="10.5203187"><ele>131.0</ele><time>2026-03-29T09:58:47.394Z</time></trkpt><trkpt lat="45.4413546" lon="10.5203154"><ele>131.0</ele><time>2026-03-29T09:58:48.394Z</time></trkpt><trkpt lat="45.441543" lon="10.5203083"><ele>131.0</ele><time>2026-03-29T09:58:49.394Z</time></trkpt><trkpt lat="45.4417434" lon="10.5203025"><ele>131.0</ele><time>2026-03-29T09:58:50.395Z</time></trkpt><trkpt lat="45.4419494" lon="10.5203018"><ele>130.66666666666666</ele><time>2026-03-29T09:58:51.394Z</time></trkpt><trkpt lat="45.4421612" lon="10.5203052"><ele>130.33333333333334</ele><time>2026-03-29T09:58:52.395Z</time></trkpt><trkpt lat="45.442375" lon="10.5203029"><ele>130.0</ele><time>2026-03-29T09:58:53.395Z</time></trkpt><trkpt lat="45.4425948" lon="10.5203058"><ele>130.0</ele><time>2026-03-29T09:58:54.394Z</time></trkpt><trkpt lat="45.4428235" lon="10.5203055"><ele>130.0</ele><time>2026-03-29T09:58:55.394Z</time></trkpt><trkpt lat="45.4430541" lon="10.5203157"><ele>130.66666666666669</ele><time>2026-03-29T09:58:56.394Z</time></trkpt><trkpt lat="45.4432826" lon="10.5203257"><ele>131.33333333333334</ele><time>2026-03-29T09:58:57.394Z</time></trkpt><trkpt lat="45.443489" lon="10.5203404"><ele>132.0</ele><time>2026-03-29T09:58:58.394Z</time></trkpt><trkpt lat="45.4436523" lon="10.5203403"><ele>132.0</ele><time>2026-03-29T09:58:59.394Z</time></trkpt><trkpt lat="45.443777" lon="10.520347"><ele>132.0</ele><time>2026-03-29T09:59:00.394Z</time></trkpt><trkpt lat="45.4438773" lon="10.5203537"><ele>132.0</ele><time>2026-03-29T09:59:01.394Z</time></trkpt><trkpt lat="45.4439723" lon="10.5203627"><ele>132.0</ele><time>2026-03-29T09:59:02.394Z</time></trkpt><trkpt lat="45.4440536" lon="10.5203723"><ele>132.0</ele><time>2026-03-29T09:59:03.394Z</time></trkpt><trkpt lat="45.4441257" lon="10.5203854"><ele>132.2</ele><time>2026-03-29T09:59:04.395Z</time></trkpt><trkpt lat="45.4442155" lon="10.5204065"><ele>132.39999999999998</ele><time>2026-03-29T09:59:06.395Z</time></trkpt><trkpt lat="45.4442879" lon="10.5204382"><ele>132.60000000000002</ele><time>2026-03-29T09:59:09.394Z</time></trkpt><trkpt lat="45.4442429" lon="10.5203481"><ele>132.8</ele><time>2026-03-29T09:59:13.394Z</time></trkpt><trkpt lat="45.4441453" lon="10.5203334"><ele>133.0</ele><time>2026-03-29T09:59:14.395Z</time></trkpt><trkpt lat="45.4439998" lon="10.5203273"><ele>133.0</ele><time>2026-03-29T09:59:15.395Z</time></trkpt><trkpt lat="45.4438319" lon="10.5203206"><ele>133.0</ele><time>2026-03-29T09:59:16.394Z</time></trkpt><trkpt lat="45.4437247" lon="10.5203076"><ele>133.0</ele><time>2026-03-29T09:59:17.453Z</time></trkpt><trkpt lat="45.4435372" lon="10.5202937"><ele>132.8</ele><time>2026-03-29T09:59:18.394Z</time></trkpt><trkpt lat="45.4434387" lon="10.5202666"><ele>132.60000000000002</ele><time>2026-03-29T09:59:19.394Z</time></trkpt><trkpt lat="45.4433556" lon="10.5201699"><ele>132.39999999999998</ele><time>2026-03-29T09:59:21.395Z</time></trkpt><trkpt lat="45.4433872" lon="10.5200877"><ele>132.2</ele><time>2026-03-29T09:59:22.394Z</time></trkpt><trkpt lat="45.4434433" lon="10.5199992"><ele>132.0</ele><time>2026-03-29T09:59:23.394Z</time></trkpt><trkpt lat="45.4435441" lon="10.5199389"><ele>132.0</ele><time>2026-03-29T09:59:24.394Z</time></trkpt><trkpt lat="45.4436708" lon="10.5199093"><ele>132.0</ele><time>2026-03-29T09:59:25.394Z</time></trkpt><trkpt lat="45.443819" lon="10.5198934"><ele>132.0</ele><time>2026-03-29T09:59:26.395Z</time></trkpt><trkpt lat="45.4439677" lon="10.5198728"><ele>132.0</ele><time>2026-03-29T09:59:27.395Z</time></trkpt><trkpt lat="45.4441089" lon="10.5198412"><ele>132.25</ele><time>2026-03-29T09:59:28.394Z</time></trkpt><trkpt lat="45.4442192" lon="10.5197719"><ele>132.5</ele><time>2026-03-29T09:59:29.394Z</time></trkpt><trkpt lat="45.4442802" lon="10.5196529"><ele>132.75</ele><time>2026-03-29T09:59:30.394Z</time></trkpt><trkpt lat="45.4443174" lon="10.5194861"><ele>133.0</ele><time>2026-03-29T09:59:31.394Z</time></trkpt><trkpt lat="45.4443454" lon="10.5193209"><ele>133.20000000000002</ele><time>2026-03-29T09:59:32.395Z</time></trkpt><trkpt lat="45.444379" lon="10.5191892"><ele>133.4</ele><time>2026-03-29T09:59:33.394Z</time></trkpt><trkpt lat="45.4444353" lon="10.5191074"><ele>133.60000000000002</ele><time>2026-03-29T09:59:34.394Z</time></trkpt><trkpt lat="45.4445181" lon="10.5190914"><ele>133.8</ele><time>2026-03-29T09:59:35.394Z</time></trkpt><trkpt lat="45.4446227" lon="10.5191257"><ele>134.0</ele><time>2026-03-29T09:59:36.394Z</time></trkpt><trkpt lat="45.4447456" lon="10.5191994"><ele>134.0</ele><time>2026-03-29T09:59:37.394Z</time></trkpt><trkpt lat="45.444882" lon="10.5192884"><ele>134.0</ele><time>2026-03-29T09:59:38.395Z</time></trkpt><trkpt lat="45.4450366" lon="10.5193784"><ele>134.0</ele><time>2026-03-29T09:59:39.394Z</time></trkpt><trkpt lat="45.4451831" lon="10.5194512"><ele>134.0</ele><time>2026-03-29T09:59:40.394Z</time></trkpt><trkpt lat="45.4453135" lon="10.5195168"><ele>134.0</ele><time>2026-03-29T09:59:41.394Z</time></trkpt><trkpt lat="45.4454262" lon="10.5195711"><ele>134.0</ele><time>2026-03-29T09:59:42.394Z</time></trkpt><trkpt lat="45.4455319" lon="10.5196209"><ele>134.0</ele><time>2026-03-29T09:59:43.394Z</time></trkpt><trkpt lat="45.4456242" lon="10.5196625"><ele>133.8</ele><time>2026-03-29T09:59:44.394Z</time></trkpt><trkpt lat="45.4457113" lon="10.5196936"><ele>133.60000000000002</ele><time>2026-03-29T09:59:45.394Z</time></trkpt><trkpt lat="45.4457953" lon="10.5197071"><ele>133.4</ele><time>2026-03-29T09:59:46.394Z</time></trkpt><trkpt lat="45.4458706" lon="10.5197141"><ele>133.20000000000002</ele><time>2026-03-29T09:59:47.394Z</time></trkpt><trkpt lat="45.4459953" lon="10.519743"><ele>133.0</ele><time>2026-03-29T09:59:49.394Z</time></trkpt><trkpt lat="45.4460704" lon="10.5197939"><ele>133.0</ele><time>2026-03-29T09:59:50.394Z</time></trkpt><trkpt lat="45.4461609" lon="10.5198743"><ele>133.0</ele><time>2026-03-29T09:59:51.394Z</time></trkpt><trkpt lat="45.446271" lon="10.5199428"><ele>133.0</ele><time>2026-03-29T09:59:52.394Z</time></trkpt><trkpt lat="45.4464045" lon="10.5199968"><ele>133.0</ele><time>2026-03-29T09:59:53.395Z</time></trkpt><trkpt lat="45.4465567" lon="10.5200489"><ele>133.33333333333334</ele><time>2026-03-29T09:59:54.394Z</time></trkpt><trkpt lat="45.446715" lon="10.520103"><ele>133.66666666666666</ele><time>2026-03-29T09:59:55.395Z</time></trkpt><trkpt lat="45.4468799" lon="10.5201652"><ele>134.0</ele><time>2026-03-29T09:59:56.395Z</time></trkpt><trkpt lat="45.4470534" lon="10.52022"><ele>134.0</ele><time>2026-03-29T09:59:57.394Z</time></trkpt><trkpt lat="45.44724" lon="10.5202701"><ele>134.0</ele><time>2026-03-29T09:59:58.394Z</time></trkpt><trkpt lat="45.4474289" lon="10.5203141"><ele>134.0</ele><time>2026-03-29T09:59:59.394Z</time></trkpt><trkpt lat="45.4475988" lon="10.5203613"><ele>134.0</ele><time>2026-03-29T10:00:00.394Z</time></trkpt><trkpt lat="45.4477443" lon="10.520405"><ele>134.0</ele><time>2026-03-29T10:00:01.394Z</time></trkpt><trkpt lat="45.4478545" lon="10.5204128"><ele>134.0</ele><time>2026-03-29T10:00:02.394Z</time></trkpt><trkpt lat="45.447952" lon="10.5203432"><ele>134.0</ele><time>2026-03-29T10:00:03.394Z</time></trkpt><trkpt lat="45.4480373" lon="10.5202354"><ele>134.25</ele><time>2026-03-29T10:00:04.395Z</time></trkpt><trkpt lat="45.4481221" lon="10.5200815"><ele>134.5</ele><time>2026-03-29T10:00:05.394Z</time></trkpt><trkpt lat="45.4482073" lon="10.5199068"><ele>134.75</ele><time>2026-03-29T10:00:06.394Z</time></trkpt><trkpt lat="45.4483015" lon="10.5197238"><ele>135.0</ele><time>2026-03-29T10:00:07.394Z</time></trkpt><trkpt lat="45.4483992" lon="10.5195415"><ele>135.0</ele><time>2026-03-29T10:00:08.394Z</time></trkpt><trkpt lat="45.4484841" lon="10.5193769"><ele>135.0</ele><time>2026-03-29T10:00:09.395Z</time></trkpt><trkpt lat="45.4485405" lon="10.5192293"><ele>135.0</ele><time>2026-03-29T10:00:10.394Z</time></trkpt><trkpt lat="45.4485792" lon="10.5190815"><ele>135.0</ele><time>2026-03-29T10:00:11.395Z</time></trkpt><trkpt lat="45.4485659" lon="10.5189345"><ele>135.0</ele><time>2026-03-29T10:00:12.394Z</time></trkpt><trkpt lat="45.4485255" lon="10.5187713"><ele>135.0</ele><time>2026-03-29T10:00:13.394Z</time></trkpt><trkpt lat="45.4484728" lon="10.5185963"><ele>135.0</ele><time>2026-03-29T10:00:14.394Z</time></trkpt><trkpt lat="45.4484359" lon="10.5184067"><ele>135.0</ele><time>2026-03-29T10:00:15.394Z</time></trkpt><trkpt lat="45.4484253" lon="10.5182096"><ele>134.75</ele><time>2026-03-29T10:00:16.394Z</time></trkpt><trkpt lat="45.4484486" lon="10.5180118"><ele>134.5</ele><time>2026-03-29T10:00:17.394Z</time></trkpt><trkpt lat="45.4485094" lon="10.5178133"><ele>134.25</ele><time>2026-03-29T10:00:18.394Z</time></trkpt><trkpt lat="45.4485947" lon="10.5176421"><ele>134.0</ele><time>2026-03-29T10:00:19.395Z</time></trkpt><trkpt lat="45.4486963" lon="10.5174976"><ele>134.0</ele><time>2026-03-29T10:00:20.395Z</time></trkpt><trkpt lat="45.4488206" lon="10.5173789"><ele>134.0</ele><time>2026-03-29T10:00:21.395Z</time></trkpt><trkpt lat="45.4489474" lon="10.5172565"><ele>134.0</ele><time>2026-03-29T10:00:22.395Z</time></trkpt><trkpt lat="45.449095" lon="10.517105"><ele>134.0</ele><time>2026-03-29T10:00:23.394Z</time></trkpt><trkpt lat="45.4492133" lon="10.5169267"><ele>134.0</ele><time>2026-03-29T10:00:24.395Z</time></trkpt><trkpt lat="45.4492983" lon="10.51673"><ele>134.0</ele><time>2026-03-29T10:00:25.394Z</time></trkpt><trkpt lat="45.4493533" lon="10.51655"><ele>134.0</ele><time>2026-03-29T10:00:26.394Z</time></trkpt><trkpt lat="45.4494" lon="10.516385"><ele>134.0</ele><time>2026-03-29T10:00:27.395Z</time></trkpt><trkpt lat="45.4494433" lon="10.5161967"><ele>134.0</ele><time>2026-03-29T10:00:28.394Z</time></trkpt><trkpt lat="45.449485" lon="10.5159967"><ele>134.0</ele><time>2026-03-29T10:00:29.394Z</time></trkpt><trkpt lat="45.4495383" lon="10.51579"><ele>133.66666666666666</ele><time>2026-03-29T10:00:30.395Z</time></trkpt><trkpt lat="45.4496083" lon="10.5155783"><ele>133.33333333333334</ele><time>2026-03-29T10:00:31.395Z</time></trkpt><trkpt lat="45.4497017" lon="10.51537"><ele>133.0</ele><time>2026-03-29T10:00:32.394Z</time></trkpt><trkpt lat="45.4497833" lon="10.5151567"><ele>133.66666666666669</ele><time>2026-03-29T10:00:33.394Z</time></trkpt><trkpt lat="45.4498467" lon="10.5149067"><ele>134.33333333333334</ele><time>2026-03-29T10:00:34.394Z</time></trkpt><trkpt lat="45.449875" lon="10.5146233"><ele>135.0</ele><time>2026-03-29T10:00:35.395Z</time></trkpt><trkpt lat="45.4498933" lon="10.51433"><ele>135.33333333333334</ele><time>2026-03-29T10:00:36.394Z</time></trkpt><trkpt lat="45.44991" lon="10.514035"><ele>135.66666666666669</ele><time>2026-03-29T10:00:37.394Z</time></trkpt><trkpt lat="45.44993" lon="10.5137217"><ele>136.0</ele><time>2026-03-29T10:00:38.394Z</time></trkpt><trkpt lat="45.449955" lon="10.5134083"><ele>137.0</ele><time>2026-03-29T10:00:39.394Z</time></trkpt><trkpt lat="45.4499767" lon="10.5130967"><ele>138.0</ele><time>2026-03-29T10:00:40.394Z</time></trkpt><trkpt lat="45.4500067" lon="10.5128033"><ele>139.0</ele><time>2026-03-29T10:00:41.394Z</time></trkpt><trkpt lat="45.450045" lon="10.5125317"><ele>139.33333333333334</ele><time>2026-03-29T10:00:42.394Z</time></trkpt><trkpt lat="45.4500917" lon="10.512285"><ele>139.66666666666666</ele><time>2026-03-29T10:00:43.394Z</time></trkpt><trkpt lat="45.4501433" lon="10.5120733"><ele>140.0</ele><time>2026-03-29T10:00:44.394Z</time></trkpt><trkpt lat="45.4501883" lon="10.5118683"><ele>141.0</ele><time>2026-03-29T10:00:45.394Z</time></trkpt><trkpt lat="45.4502233" lon="10.5116917"><ele>142.0</ele><time>2026-03-29T10:00:46.393Z</time></trkpt><trkpt lat="45.4502317" lon="10.5115433"><ele>143.0</ele><time>2026-03-29T10:00:47.393Z</time></trkpt><trkpt lat="45.4502433" lon="10.5114217"><ele>144.0</ele><time>2026-03-29T10:00:48.394Z</time></trkpt><trkpt lat="45.4503067" lon="10.5113017"><ele>145.0</ele><time>2026-03-29T10:00:50.393Z</time></trkpt><trkpt lat="45.4503733" lon="10.51125"><ele>145.0</ele><time>2026-03-29T10:00:52.393Z</time></trkpt><trkpt lat="45.4504667" lon="10.511205"><ele>145.0</ele><time>2026-03-29T10:00:54.394Z</time></trkpt><trkpt lat="45.45057" lon="10.5112683"><ele>145.0</ele><time>2026-03-29T10:00:55.393Z</time></trkpt><trkpt lat="45.450665" lon="10.5113067"><ele>145.0</ele><time>2026-03-29T10:00:56.393Z</time></trkpt><trkpt lat="45.4507717" lon="10.5114317"><ele>145.0</ele><time>2026-03-29T10:00:57.393Z</time></trkpt><trkpt lat="45.4508417" lon="10.5114683"><ele>145.0</ele><time>2026-03-29T10:00:59.393Z</time></trkpt><trkpt lat="45.4508617" lon="10.51133"><ele>145.0</ele><time>2026-03-29T10:01:01.393Z</time></trkpt><trkpt lat="45.450835" lon="10.5112483"><ele>145.0</ele><time>2026-03-29T10:01:02.393Z</time></trkpt><trkpt lat="45.4508083" lon="10.51115"><ele>145.0</ele><time>2026-03-29T10:01:03.393Z</time></trkpt><trkpt lat="45.450785" lon="10.5110183"><ele>145.0</ele><time>2026-03-29T10:01:04.394Z</time></trkpt><trkpt lat="45.450775" lon="10.5108667"><ele>145.0</ele><time>2026-03-29T10:01:05.394Z</time></trkpt><trkpt lat="45.4507783" lon="10.5106867"><ele>146.66666666666669</ele><time>2026-03-29T10:01:06.393Z</time></trkpt><trkpt lat="45.4507817" lon="10.5104767"><ele>148.33333333333334</ele><time>2026-03-29T10:01:07.393Z</time></trkpt><trkpt lat="45.4507983" lon="10.5102517"><ele>150.0</ele><time>2026-03-29T10:01:08.393Z</time></trkpt><trkpt lat="45.450825" lon="10.51002"><ele>152.33333333333334</ele><time>2026-03-29T10:01:09.393Z</time></trkpt><trkpt lat="45.4508567" lon="10.5097717"><ele>154.66666666666669</ele><time>2026-03-29T10:01:10.393Z</time></trkpt><trkpt lat="45.4508883" lon="10.5095067"><ele>157.0</ele><time>2026-03-29T10:01:11.393Z</time></trkpt><trkpt lat="45.4509117" lon="10.5092333"><ele>158.33333333333334</ele><time>2026-03-29T10:01:12.394Z</time></trkpt><trkpt lat="45.45093" lon="10.50896"><ele>159.66666666666666</ele><time>2026-03-29T10:01:13.394Z</time></trkpt><trkpt lat="45.4509433" lon="10.5087217"><ele>161.0</ele><time>2026-03-29T10:01:14.394Z</time></trkpt><trkpt lat="45.45095" lon="10.5085117"><ele>161.5</ele><time>2026-03-29T10:01:15.393Z</time></trkpt><trkpt lat="45.4509583" lon="10.5083183"><ele>162.0</ele><time>2026-03-29T10:01:16.393Z</time></trkpt><trkpt lat="45.45097" lon="10.50815"><ele>162.5</ele><time>2026-03-29T10:01:17.393Z</time></trkpt><trkpt lat="45.4510067" lon="10.5079933"><ele>163.0</ele><time>2026-03-29T10:01:18.394Z</time></trkpt><trkpt lat="45.4510667" lon="10.5078417"><ele>163.25</ele><time>2026-03-29T10:01:19.394Z</time></trkpt><trkpt lat="45.45114" lon="10.5076783"><ele>163.5</ele><time>2026-03-29T10:01:20.394Z</time></trkpt><trkpt lat="45.4512117" lon="10.5075067"><ele>163.75</ele><time>2026-03-29T10:01:21.393Z</time></trkpt><trkpt lat="45.4512967" lon="10.5073183"><ele>164.0</ele><time>2026-03-29T10:01:22.393Z</time></trkpt><trkpt lat="45.4513567" lon="10.507095"><ele>169.33333333333331</ele><time>2026-03-29T10:01:23.394Z</time></trkpt><trkpt lat="45.4514117" lon="10.5068633"><ele>174.66666666666666</ele><time>2026-03-29T10:01:24.393Z</time></trkpt><trkpt lat="45.4514633" lon="10.506645"><ele>180.0</ele><time>2026-03-29T10:01:25.393Z</time></trkpt><trkpt lat="45.4515167" lon="10.5064283"><ele>181.0</ele><time>2026-03-29T10:01:26.393Z</time></trkpt><trkpt lat="45.4515867" lon="10.5061967"><ele>182.0</ele><time>2026-03-29T10:01:27.394Z</time></trkpt><trkpt lat="45.451625" lon="10.5060033"><ele>183.0</ele><time>2026-03-29T10:01:28.393Z</time></trkpt><trkpt lat="45.451675" lon="10.5058033"><ele>183.0</ele><time>2026-03-29T10:01:29.393Z</time></trkpt><trkpt lat="45.4517433" lon="10.5056267"><ele>183.0</ele><time>2026-03-29T10:01:30.393Z</time></trkpt><trkpt lat="45.4517883" lon="10.5054767"><ele>183.0</ele><time>2026-03-29T10:01:31.393Z</time></trkpt><trkpt lat="45.4518633" lon="10.5053133"><ele>183.0</ele><time>2026-03-29T10:01:32.393Z</time></trkpt><trkpt lat="45.4519433" lon="10.5051317"><ele>184.0</ele><time>2026-03-29T10:01:33.393Z</time></trkpt><trkpt lat="45.4520167" lon="10.5049517"><ele>185.0</ele><time>2026-03-29T10:01:34.393Z</time></trkpt><trkpt lat="45.4520883" lon="10.5047483"><ele>186.0</ele><time>2026-03-29T10:01:35.393Z</time></trkpt><trkpt lat="45.4521533" lon="10.5045283"><ele>186.0</ele><time>2026-03-29T10:01:36.393Z</time></trkpt><trkpt lat="45.4522" lon="10.5043033"><ele>186.0</ele><time>2026-03-29T10:01:37.393Z</time></trkpt><trkpt lat="45.4522283" lon="10.5040767"><ele>186.0</ele><time>2026-03-29T10:01:38.393Z</time></trkpt><trkpt lat="45.4522483" lon="10.503865"><ele>186.0</ele><time>2026-03-29T10:01:39.393Z</time></trkpt><trkpt lat="45.4522517" lon="10.503685"><ele>186.0</ele><time>2026-03-29T10:01:40.393Z</time></trkpt><trkpt lat="45.452255" lon="10.5035133"><ele>186.0</ele><time>2026-03-29T10:01:41.393Z</time></trkpt><trkpt lat="45.4522717" lon="10.503345"><ele>186.0</ele><time>2026-03-29T10:01:42.393Z</time></trkpt><trkpt lat="45.45228" lon="10.5031717"><ele>186.0</ele><time>2026-03-29T10:01:43.393Z</time></trkpt><trkpt lat="45.452305" lon="10.502995"><ele>186.0</ele><time>2026-03-29T10:01:44.393Z</time></trkpt><trkpt lat="45.4523333" lon="10.5028183"><ele>186.0</ele><time>2026-03-29T10:01:45.394Z</time></trkpt><trkpt lat="45.4523933" lon="10.5026517"><ele>186.0</ele><time>2026-03-29T10:01:46.393Z</time></trkpt><trkpt lat="45.4524667" lon="10.502485"><ele>185.75</ele><time>2026-03-29T10:01:47.393Z</time></trkpt><trkpt lat="45.4525517" lon="10.5023283"><ele>185.5</ele><time>2026-03-29T10:01:48.394Z</time></trkpt><trkpt lat="45.4526367" lon="10.5021683"><ele>185.25</ele><time>2026-03-29T10:01:49.393Z</time></trkpt><trkpt lat="45.45276" lon="10.5020117"><ele>185.0</ele><time>2026-03-29T10:01:50.393Z</time></trkpt><trkpt lat="45.4528833" lon="10.501845"><ele>183.66666666666666</ele><time>2026-03-29T10:01:51.394Z</time></trkpt><trkpt lat="45.453" lon="10.5016533"><ele>182.33333333333334</ele><time>2026-03-29T10:01:52.394Z</time></trkpt><trkpt lat="45.4531233" lon="10.50144"><ele>181.0</ele><time>2026-03-29T10:01:53.393Z</time></trkpt><trkpt lat="45.4532367" lon="10.5012133"><ele>181.0</ele><time>2026-03-29T10:01:54.393Z</time></trkpt><trkpt lat="45.453335" lon="10.5009733"><ele>181.0</ele><time>2026-03-29T10:01:55.394Z</time></trkpt><trkpt lat="45.4534367" lon="10.5007117"><ele>181.0</ele><time>2026-03-29T10:01:56.393Z</time></trkpt><trkpt lat="45.45354" lon="10.5004633"><ele>182.0</ele><time>2026-03-29T10:01:57.394Z</time></trkpt><trkpt lat="45.4536283" lon="10.5002117"><ele>183.0</ele><time>2026-03-29T10:01:58.393Z</time></trkpt><trkpt lat="45.4536967" lon="10.49997"><ele>184.0</ele><time>2026-03-29T10:01:59.394Z</time></trkpt><trkpt lat="45.4537617" lon="10.4997567"><ele>184.66666666666669</ele><time>2026-03-29T10:02:00.393Z</time></trkpt><trkpt lat="45.4538467" lon="10.4995583"><ele>185.33333333333334</ele><time>2026-03-29T10:02:01.393Z</time></trkpt><trkpt lat="45.4539467" lon="10.49936"><ele>186.0</ele><time>2026-03-29T10:02:02.393Z</time></trkpt><trkpt lat="45.4540617" lon="10.49916"><ele>186.0</ele><time>2026-03-29T10:02:03.393Z</time></trkpt><trkpt lat="45.4541883" lon="10.4989767"><ele>186.0</ele><time>2026-03-29T10:02:04.394Z</time></trkpt><trkpt lat="45.4542983" lon="10.4988233"><ele>186.0</ele><time>2026-03-29T10:02:05.394Z</time></trkpt><trkpt lat="45.45444" lon="10.4986867"><ele>186.0</ele><time>2026-03-29T10:02:06.393Z</time></trkpt><trkpt lat="45.454595" lon="10.4985533"><ele>186.0</ele><time>2026-03-29T10:02:07.393Z</time></trkpt><trkpt lat="45.4547533" lon="10.4983967"><ele>186.0</ele><time>2026-03-29T10:02:08.393Z</time></trkpt><trkpt lat="45.4548867" lon="10.4982167"><ele>185.66666666666666</ele><time>2026-03-29T10:02:09.393Z</time></trkpt><trkpt lat="45.4549917" lon="10.4980233"><ele>185.33333333333331</ele><time>2026-03-29T10:02:10.393Z</time></trkpt><trkpt lat="45.4550667" lon="10.4978283"><ele>185.0</ele><time>2026-03-29T10:02:11.393Z</time></trkpt><trkpt lat="45.455105" lon="10.497615"><ele>183.66666666666666</ele><time>2026-03-29T10:02:12.393Z</time></trkpt><trkpt lat="45.4551433" lon="10.49738"><ele>182.33333333333334</ele><time>2026-03-29T10:02:13.393Z</time></trkpt><trkpt lat="45.4551733" lon="10.4971367"><ele>181.0</ele><time>2026-03-29T10:02:14.394Z</time></trkpt><trkpt lat="45.4552133" lon="10.49688"><ele>179.66666666666669</ele><time>2026-03-29T10:02:15.393Z</time></trkpt><trkpt lat="45.4552633" lon="10.4966267"><ele>178.33333333333334</ele><time>2026-03-29T10:02:16.393Z</time></trkpt><trkpt lat="45.45531" lon="10.4963683"><ele>177.0</ele><time>2026-03-29T10:02:17.393Z</time></trkpt><trkpt lat="45.4553667" lon="10.4961083"><ele>177.0</ele><time>2026-03-29T10:02:18.393Z</time></trkpt><trkpt lat="45.4554183" lon="10.49583"><ele>177.0</ele><time>2026-03-29T10:02:19.393Z</time></trkpt><trkpt lat="45.455455" lon="10.49556"><ele>177.0</ele><time>2026-03-29T10:02:20.393Z</time></trkpt><trkpt lat="45.4554783" lon="10.4952767"><ele>176.33333333333334</ele><time>2026-03-29T10:02:21.393Z</time></trkpt><trkpt lat="45.4555017" lon="10.4950033"><ele>175.66666666666669</ele><time>2026-03-29T10:02:22.393Z</time></trkpt><trkpt lat="45.4555217" lon="10.4947467"><ele>175.0</ele><time>2026-03-29T10:02:23.393Z</time></trkpt><trkpt lat="45.455545" lon="10.494505"><ele>174.66666666666669</ele><time>2026-03-29T10:02:24.394Z</time></trkpt><trkpt lat="45.4555767" lon="10.4942867"><ele>174.33333333333334</ele><time>2026-03-29T10:02:25.393Z</time></trkpt><trkpt lat="45.4556133" lon="10.49406"><ele>174.0</ele><time>2026-03-29T10:02:26.393Z</time></trkpt><trkpt lat="45.4556567" lon="10.493845"><ele>173.0</ele><time>2026-03-29T10:02:27.394Z</time></trkpt><trkpt lat="45.455705" lon="10.4936383"><ele>172.0</ele><time>2026-03-29T10:02:28.393Z</time></trkpt><trkpt lat="45.4557583" lon="10.493435"><ele>171.0</ele><time>2026-03-29T10:02:29.394Z</time></trkpt><trkpt lat="45.45582" lon="10.4932533"><ele>170.0</ele><time>2026-03-29T10:02:30.393Z</time></trkpt><trkpt lat="45.4558867" lon="10.4930817"><ele>169.25</ele><time>2026-03-29T10:02:31.393Z</time></trkpt><trkpt lat="45.4559633" lon="10.4929167"><ele>168.5</ele><time>2026-03-29T10:02:32.393Z</time></trkpt><trkpt lat="45.456045" lon="10.4927467"><ele>167.75</ele><time>2026-03-29T10:02:33.393Z</time></trkpt><trkpt lat="45.4561267" lon="10.49258"><ele>167.0</ele><time>2026-03-29T10:02:34.393Z</time></trkpt><trkpt lat="45.4561833" lon="10.4924183"><ele>167.0</ele><time>2026-03-29T10:02:35.393Z</time></trkpt><trkpt lat="45.4562133" lon="10.4922617"><ele>167.0</ele><time>2026-03-29T10:02:36.394Z</time></trkpt><trkpt lat="45.4562133" lon="10.4921067"><ele>167.0</ele><time>2026-03-29T10:02:37.393Z</time></trkpt><trkpt lat="45.4562033" lon="10.4919533"><ele>167.0</ele><time>2026-03-29T10:02:38.393Z</time></trkpt><trkpt lat="45.4561967" lon="10.4918117"><ele>167.0</ele><time>2026-03-29T10:02:39.393Z</time></trkpt><trkpt lat="45.4561933" lon="10.491665"><ele>166.0</ele><time>2026-03-29T10:02:40.393Z</time></trkpt><trkpt lat="45.4561883" lon="10.491515"><ele>165.0</ele><time>2026-03-29T10:02:41.393Z</time></trkpt><trkpt lat="45.4562033" lon="10.4913733"><ele>164.0</ele><time>2026-03-29T10:02:42.393Z</time></trkpt><trkpt lat="45.4562433" lon="10.4912067"><ele>163.0</ele><time>2026-03-29T10:02:43.393Z</time></trkpt><trkpt lat="45.456305" lon="10.49108"><ele>162.0</ele><time>2026-03-29T10:02:44.393Z</time></trkpt><trkpt lat="45.4563667" lon="10.4909633"><ele>161.83333333333334</ele><time>2026-03-29T10:02:45.393Z</time></trkpt><trkpt lat="45.456435" lon="10.490875"><ele>161.66666666666666</ele><time>2026-03-29T10:02:46.393Z</time></trkpt><trkpt lat="45.4565067" lon="10.4908"><ele>161.5</ele><time>2026-03-29T10:02:47.393Z</time></trkpt><trkpt lat="45.45656" lon="10.490725"><ele>161.33333333333331</ele><time>2026-03-29T10:02:48.393Z</time></trkpt><trkpt lat="45.4566167" lon="10.490655"><ele>161.16666666666666</ele><time>2026-03-29T10:02:49.393Z</time></trkpt><trkpt lat="45.4566717" lon="10.490585"><ele>161.0</ele><time>2026-03-29T10:02:50.393Z</time></trkpt><trkpt lat="45.4567333" lon="10.4905267"><ele>161.0</ele><time>2026-03-29T10:02:51.393Z</time></trkpt><trkpt lat="45.4567967" lon="10.4904567"><ele>161.0</ele><time>2026-03-29T10:02:52.393Z</time></trkpt><trkpt lat="45.45686" lon="10.4903883"><ele>161.0</ele><time>2026-03-29T10:02:53.394Z</time></trkpt><trkpt lat="45.4569233" lon="10.4903233"><ele>161.0</ele><time>2026-03-29T10:02:54.393Z</time></trkpt><trkpt lat="45.456985" lon="10.49025"><ele>161.0</ele><time>2026-03-29T10:02:55.393Z</time></trkpt><trkpt lat="45.4570567" lon="10.4901867"><ele>161.0</ele><time>2026-03-29T10:02:56.393Z</time></trkpt><trkpt lat="45.4571167" lon="10.490125"><ele>161.5</ele><time>2026-03-29T10:02:57.393Z</time></trkpt><trkpt lat="45.4571983" lon="10.49003"><ele>162.0</ele><time>2026-03-29T10:02:59.394Z</time></trkpt><trkpt lat="45.4572617" lon="10.4899683"><ele>162.5</ele><time>2026-03-29T10:03:01.393Z</time></trkpt><trkpt lat="45.4573433" lon="10.4899217"><ele>163.0</ele><time>2026-03-29T10:03:03.393Z</time></trkpt><trkpt lat="45.45743" lon="10.4898717"><ele>163.5</ele><time>2026-03-29T10:03:05.393Z</time></trkpt><trkpt lat="45.4575067" lon="10.48982"><ele>164.0</ele><time>2026-03-29T10:03:07.393Z</time></trkpt><trkpt lat="45.4575983" lon="10.4897567"><ele>164.0</ele><time>2026-03-29T10:03:09.394Z</time></trkpt><trkpt lat="45.45769" lon="10.489695"><ele>164.0</ele><time>2026-03-29T10:03:11.393Z</time></trkpt><trkpt lat="45.457775" lon="10.4896283"><ele>164.0</ele><time>2026-03-29T10:03:13.393Z</time></trkpt><trkpt lat="45.4578517" lon="10.489565"><ele>164.0</ele><time>2026-03-29T10:03:15.393Z</time></trkpt><trkpt lat="45.45791" lon="10.48953"><ele>164.0</ele><time>2026-03-29T10:03:18.393Z</time></trkpt><trkpt lat="45.457975" lon="10.489485"><ele>164.0</ele><time>2026-03-29T10:03:21.393Z</time></trkpt><trkpt lat="45.4580383" lon="10.48944"><ele>163.79999999999998</ele><time>2026-03-29T10:03:23.393Z</time></trkpt><trkpt lat="45.45815" lon="10.4893767"><ele>163.6</ele><time>2026-03-29T10:03:25.393Z</time></trkpt><trkpt lat="45.4582217" lon="10.4893333"><ele>163.4</ele><time>2026-03-29T10:03:26.393Z</time></trkpt><trkpt lat="45.4583017" lon="10.4892817"><ele>163.2</ele><time>2026-03-29T10:03:27.393Z</time></trkpt><trkpt lat="45.4583933" lon="10.4892283"><ele>163.0</ele><time>2026-03-29T10:03:28.393Z</time></trkpt><trkpt lat="45.4584917" lon="10.4891733"><ele>163.0</ele><time>2026-03-29T10:03:29.393Z</time></trkpt><trkpt lat="45.4585867" lon="10.4891183"><ele>163.0</ele><time>2026-03-29T10:03:30.393Z</time></trkpt><trkpt lat="45.4586967" lon="10.4890783"><ele>163.0</ele><time>2026-03-29T10:03:31.394Z</time></trkpt><trkpt lat="45.4588083" lon="10.48905"><ele>163.0</ele><time>2026-03-29T10:03:32.393Z</time></trkpt><trkpt lat="45.458925" lon="10.489035"><ele>163.0</ele><time>2026-03-29T10:03:33.394Z</time></trkpt><trkpt lat="45.4590383" lon="10.48903"><ele>163.5</ele><time>2026-03-29T10:03:34.393Z</time></trkpt><trkpt lat="45.4591533" lon="10.48904"><ele>164.0</ele><time>2026-03-29T10:03:35.393Z</time></trkpt><trkpt lat="45.4592667" lon="10.4890617"><ele>164.5</ele><time>2026-03-29T10:03:36.393Z</time></trkpt><trkpt lat="45.459375" lon="10.4890967"><ele>165.0</ele><time>2026-03-29T10:03:37.394Z</time></trkpt><trkpt lat="45.4594867" lon="10.4891467"><ele>165.0</ele><time>2026-03-29T10:03:38.394Z</time></trkpt><trkpt lat="45.4596067" lon="10.48921"><ele>165.0</ele><time>2026-03-29T10:03:39.393Z</time></trkpt><trkpt lat="45.4597167" lon="10.4892717"><ele>165.0</ele><time>2026-03-29T10:03:40.393Z</time></trkpt><trkpt lat="45.4598267" lon="10.4893267"><ele>165.0</ele><time>2026-03-29T10:03:41.393Z</time></trkpt><trkpt lat="45.4599333" lon="10.4893933"><ele>165.0</ele><time>2026-03-29T10:03:42.393Z</time></trkpt><trkpt lat="45.46003" lon="10.489465"><ele>165.0</ele><time>2026-03-29T10:03:43.393Z</time></trkpt><trkpt lat="45.4601267" lon="10.4895533"><ele>165.0</ele><time>2026-03-29T10:03:44.393Z</time></trkpt><trkpt lat="45.4602167" lon="10.4896483"><ele>165.0</ele><time>2026-03-29T10:03:45.393Z</time></trkpt><trkpt lat="45.4602983" lon="10.4897567"><ele>165.0</ele><time>2026-03-29T10:03:46.394Z</time></trkpt><trkpt lat="45.460365" lon="10.4898683"><ele>165.0</ele><time>2026-03-29T10:03:47.393Z</time></trkpt><trkpt lat="45.4604217" lon="10.4899733"><ele>165.0</ele><time>2026-03-29T10:03:48.394Z</time></trkpt><trkpt lat="45.460475" lon="10.4900767"><ele>165.0</ele><time>2026-03-29T10:03:49.393Z</time></trkpt><trkpt lat="45.4605267" lon="10.4901717"><ele>165.0</ele><time>2026-03-29T10:03:50.393Z</time></trkpt><trkpt lat="45.4605733" lon="10.490255"><ele>165.0</ele><time>2026-03-29T10:03:51.394Z</time></trkpt><trkpt lat="45.460615" lon="10.49033"><ele>165.0</ele><time>2026-03-29T10:03:52.393Z</time></trkpt><trkpt lat="45.4606617" lon="10.4904733"><ele>164.83333333333334</ele><time>2026-03-29T10:03:54.393Z</time></trkpt><trkpt lat="45.460675" lon="10.4905783"><ele>164.66666666666666</ele><time>2026-03-29T10:03:57.394Z</time></trkpt><trkpt lat="45.4606633" lon="10.490735"><ele>164.5</ele><time>2026-03-29T10:04:00.393Z</time></trkpt><trkpt lat="45.4606583" lon="10.4908583"><ele>164.33333333333331</ele><time>2026-03-29T10:04:01.393Z</time></trkpt><trkpt lat="45.4606817" lon="10.4909817"><ele>164.16666666666666</ele><time>2026-03-29T10:04:02.393Z</time></trkpt><trkpt lat="45.460725" lon="10.4910883"><ele>164.0</ele><time>2026-03-29T10:04:03.393Z</time></trkpt><trkpt lat="45.4608083" lon="10.4911333"><ele>164.0</ele><time>2026-03-29T10:04:04.393Z</time></trkpt><trkpt lat="45.4608967" lon="10.4911317"><ele>164.0</ele><time>2026-03-29T10:04:05.393Z</time></trkpt><trkpt lat="45.4609867" lon="10.4910867"><ele>164.0</ele><time>2026-03-29T10:04:06.394Z</time></trkpt><trkpt lat="45.461065" lon="10.49101"><ele>164.0</ele><time>2026-03-29T10:04:07.393Z</time></trkpt><trkpt lat="45.4611117" lon="10.4909"><ele>164.0</ele><time>2026-03-29T10:04:08.393Z</time></trkpt><trkpt lat="45.46113" lon="10.4907767"><ele>164.0</ele><time>2026-03-29T10:04:09.393Z</time></trkpt><trkpt lat="45.46115" lon="10.4906483"><ele>164.0</ele><time>2026-03-29T10:04:10.393Z</time></trkpt><trkpt lat="45.46118" lon="10.490525"><ele>164.0</ele><time>2026-03-29T10:04:11.394Z</time></trkpt><trkpt lat="45.4612217" lon="10.490415"><ele>164.0</ele><time>2026-03-29T10:04:12.393Z</time></trkpt><trkpt lat="45.4612783" lon="10.490315"><ele>164.0</ele><time>2026-03-29T10:04:13.393Z</time></trkpt><trkpt lat="45.4613283" lon="10.4902167"><ele>164.0</ele><time>2026-03-29T10:04:14.393Z</time></trkpt><trkpt lat="45.4613733" lon="10.4901267"><ele>164.39999999999998</ele><time>2026-03-29T10:04:15.393Z</time></trkpt><trkpt lat="45.46141" lon="10.4900467"><ele>164.8</ele><time>2026-03-29T10:04:16.393Z</time></trkpt><trkpt lat="45.4614733" lon="10.4899217"><ele>165.2</ele><time>2026-03-29T10:04:18.394Z</time></trkpt><trkpt lat="45.461585" lon="10.48984"><ele>165.60000000000002</ele><time>2026-03-29T10:04:20.393Z</time></trkpt><trkpt lat="45.4616617" lon="10.4898167"><ele>166.0</ele><time>2026-03-29T10:04:21.393Z</time></trkpt><trkpt lat="45.461755" lon="10.4898017"><ele>166.0</ele><time>2026-03-29T10:04:22.393Z</time></trkpt><trkpt lat="45.4618633" lon="10.4898083"><ele>166.0</ele><time>2026-03-29T10:04:23.393Z</time></trkpt><trkpt lat="45.46198" lon="10.4898533"><ele>166.0</ele><time>2026-03-29T10:04:24.393Z</time></trkpt><trkpt lat="45.462115" lon="10.4899383"><ele>166.0</ele><time>2026-03-29T10:04:25.394Z</time></trkpt><trkpt lat="45.4622467" lon="10.4900367"><ele>166.75</ele><time>2026-03-29T10:04:26.393Z</time></trkpt><trkpt lat="45.4623717" lon="10.4901267"><ele>167.5</ele><time>2026-03-29T10:04:27.393Z</time></trkpt><trkpt lat="45.4625" lon="10.4901867"><ele>168.25</ele><time>2026-03-29T10:04:28.393Z</time></trkpt><trkpt lat="45.4626417" lon="10.490215"><ele>169.0</ele><time>2026-03-29T10:04:29.393Z</time></trkpt><trkpt lat="45.4627767" lon="10.4901983"><ele>169.0</ele><time>2026-03-29T10:04:30.393Z</time></trkpt><trkpt lat="45.4629083" lon="10.490135"><ele>169.0</ele><time>2026-03-29T10:04:31.393Z</time></trkpt><trkpt lat="45.4630483" lon="10.4900433"><ele>169.0</ele><time>2026-03-29T10:04:32.394Z</time></trkpt><trkpt lat="45.4632017" lon="10.4899067"><ele>168.66666666666669</ele><time>2026-03-29T10:04:33.393Z</time></trkpt><trkpt lat="45.463365" lon="10.4897583"><ele>168.33333333333334</ele><time>2026-03-29T10:04:34.393Z</time></trkpt><trkpt lat="45.4635417" lon="10.4896283"><ele>168.0</ele><time>2026-03-29T10:04:35.393Z</time></trkpt><trkpt lat="45.4637283" lon="10.4894933"><ele>168.0</ele><time>2026-03-29T10:04:36.393Z</time></trkpt><trkpt lat="45.4639217" lon="10.4893333"><ele>168.0</ele><time>2026-03-29T10:04:37.394Z</time></trkpt><trkpt lat="45.464125" lon="10.4891833"><ele>168.0</ele><time>2026-03-29T10:04:38.393Z</time></trkpt><trkpt lat="45.4643433" lon="10.48904"><ele>168.0</ele><time>2026-03-29T10:04:39.393Z</time></trkpt><trkpt lat="45.4645767" lon="10.4889217"><ele>166.5</ele><time>2026-03-29T10:04:40.393Z</time></trkpt><trkpt lat="45.4648167" lon="10.4888567"><ele>165.0</ele><time>2026-03-29T10:04:41.393Z</time></trkpt><trkpt lat="45.4650733" lon="10.4888217"><ele>165.0</ele><time>2026-03-29T10:04:42.393Z</time></trkpt><trkpt lat="45.4653217" lon="10.4888067"><ele>165.0</ele><time>2026-03-29T10:04:43.394Z</time></trkpt><trkpt lat="45.46557" lon="10.48885"><ele>163.0</ele><time>2026-03-29T10:04:44.393Z</time></trkpt><trkpt lat="45.4657917" lon="10.4888983"><ele>161.0</ele><time>2026-03-29T10:04:45.394Z</time></trkpt><trkpt lat="45.466005" lon="10.4889533"><ele>159.0</ele><time>2026-03-29T10:04:46.393Z</time></trkpt><trkpt lat="45.4662117" lon="10.4890067"><ele>161.33333333333334</ele><time>2026-03-29T10:04:47.394Z</time></trkpt><trkpt lat="45.4664133" lon="10.4890567"><ele>163.66666666666669</ele><time>2026-03-29T10:04:48.393Z</time></trkpt><trkpt lat="45.466625" lon="10.489105"><ele>166.0</ele><time>2026-03-29T10:04:49.393Z</time></trkpt><trkpt lat="45.466845" lon="10.4891467"><ele>166.0</ele><time>2026-03-29T10:04:50.394Z</time></trkpt><trkpt lat="45.4670683" lon="10.48921"><ele>166.0</ele><time>2026-03-29T10:04:51.394Z</time></trkpt><trkpt lat="45.4672817" lon="10.489285"><ele>166.0</ele><time>2026-03-29T10:04:52.393Z</time></trkpt><trkpt lat="45.4675083" lon="10.4893767"><ele>167.0</ele><time>2026-03-29T10:04:53.393Z</time></trkpt><trkpt lat="45.4677267" lon="10.4894733"><ele>168.0</ele><time>2026-03-29T10:04:54.393Z</time></trkpt><trkpt lat="45.4679433" lon="10.4895733"><ele>167.0</ele><time>2026-03-29T10:04:55.394Z</time></trkpt><trkpt lat="45.4681517" lon="10.48966"><ele>166.0</ele><time>2026-03-29T10:04:56.394Z</time></trkpt><trkpt lat="45.4683433" lon="10.48976"><ele>165.0</ele><time>2026-03-29T10:04:57.393Z</time></trkpt><trkpt lat="45.4685433" lon="10.4898417"><ele>165.0</ele><time>2026-03-29T10:04:58.393Z</time></trkpt><trkpt lat="45.46873" lon="10.4899383"><ele>165.0</ele><time>2026-03-29T10:04:59.394Z</time></trkpt><trkpt lat="45.4689217" lon="10.4900217"><ele>165.0</ele><time>2026-03-29T10:05:00.392Z</time></trkpt><trkpt lat="45.4691267" lon="10.4900983"><ele>163.66666666666666</ele><time>2026-03-29T10:05:01.393Z</time></trkpt><trkpt lat="45.469335" lon="10.4901883"><ele>162.33333333333331</ele><time>2026-03-29T10:05:02.392Z</time></trkpt><trkpt lat="45.4695517" lon="10.490285"><ele>161.0</ele><time>2026-03-29T10:05:03.392Z</time></trkpt><trkpt lat="45.46977" lon="10.490385"><ele>159.5</ele><time>2026-03-29T10:05:04.392Z</time></trkpt><trkpt lat="45.46999" lon="10.49048"><ele>158.0</ele><time>2026-03-29T10:05:05.393Z</time></trkpt><trkpt lat="45.4702167" lon="10.490575"><ele>158.0</ele><time>2026-03-29T10:05:06.392Z</time></trkpt><trkpt lat="45.470435" lon="10.490665"><ele>158.0</ele><time>2026-03-29T10:05:07.392Z</time></trkpt><trkpt lat="45.4706583" lon="10.49076"><ele>157.0</ele><time>2026-03-29T10:05:08.392Z</time></trkpt><trkpt lat="45.4708783" lon="10.4908617"><ele>156.0</ele><time>2026-03-29T10:05:09.392Z</time></trkpt><trkpt lat="45.4710883" lon="10.4909533"><ele>155.33333333333334</ele><time>2026-03-29T10:05:10.392Z</time></trkpt><trkpt lat="45.47129" lon="10.4910483"><ele>154.66666666666669</ele><time>2026-03-29T10:05:11.392Z</time></trkpt><trkpt lat="45.471485" lon="10.49113"><ele>154.0</ele><time>2026-03-29T10:05:12.392Z</time></trkpt><trkpt lat="45.4716617" lon="10.4912017"><ele>153.33333333333334</ele><time>2026-03-29T10:05:13.392Z</time></trkpt><trkpt lat="45.4718317" lon="10.491275"><ele>152.66666666666666</ele><time>2026-03-29T10:05:14.393Z</time></trkpt><trkpt lat="45.4719967" lon="10.4913533"><ele>152.0</ele><time>2026-03-29T10:05:15.392Z</time></trkpt><trkpt lat="45.47215" lon="10.491415"><ele>152.0</ele><time>2026-03-29T10:05:16.392Z</time></trkpt><trkpt lat="45.4723" lon="10.4914683"><ele>152.0</ele><time>2026-03-29T10:05:17.393Z</time></trkpt><trkpt lat="45.4724317" lon="10.4915283"><ele>152.0</ele><time>2026-03-29T10:05:18.392Z</time></trkpt><trkpt lat="45.4725483" lon="10.4915817"><ele>152.0</ele><time>2026-03-29T10:05:19.392Z</time></trkpt><trkpt lat="45.4726533" lon="10.4916317"><ele>152.0</ele><time>2026-03-29T10:05:20.392Z</time></trkpt><trkpt lat="45.47274" lon="10.49166"><ele>152.0</ele><time>2026-03-29T10:05:21.392Z</time></trkpt><trkpt lat="45.4728117" lon="10.4916567"><ele>152.0</ele><time>2026-03-29T10:05:22.392Z</time></trkpt><trkpt lat="45.4728533" lon="10.4915633"><ele>152.0</ele><time>2026-03-29T10:05:24.393Z</time></trkpt><trkpt lat="45.4728633" lon="10.49145"><ele>152.0</ele><time>2026-03-29T10:05:25.392Z</time></trkpt><trkpt lat="45.4728767" lon="10.4913133"><ele>152.0</ele><time>2026-03-29T10:05:26.392Z</time></trkpt><trkpt lat="45.4728933" lon="10.4911533"><ele>152.79999999999998</ele><time>2026-03-29T10:05:27.392Z</time></trkpt><trkpt lat="45.4729133" lon="10.4910217"><ele>153.6</ele><time>2026-03-29T10:05:28.392Z</time></trkpt><trkpt lat="45.4729433" lon="10.4909067"><ele>154.39999999999998</ele><time>2026-03-29T10:05:29.392Z</time></trkpt><trkpt lat="45.4729733" lon="10.4908183"><ele>155.2</ele><time>2026-03-29T10:05:30.393Z</time></trkpt><trkpt lat="45.47309" lon="10.4907883"><ele>156.0</ele><time>2026-03-29T10:05:32.392Z</time></trkpt><trkpt lat="45.4731917" lon="10.4908217"><ele>156.2</ele><time>2026-03-29T10:05:33.393Z</time></trkpt><trkpt lat="45.4733017" lon="10.4908517"><ele>156.39999999999998</ele><time>2026-03-29T10:05:34.392Z</time></trkpt><trkpt lat="45.4734183" lon="10.4908717"><ele>156.6</ele><time>2026-03-29T10:05:35.392Z</time></trkpt><trkpt lat="45.4735233" lon="10.490845"><ele>156.79999999999998</ele><time>2026-03-29T10:05:36.392Z</time></trkpt><trkpt lat="45.4736017" lon="10.49077"><ele>157.0</ele><time>2026-03-29T10:05:37.392Z</time></trkpt><trkpt lat="45.473665" lon="10.4906833"><ele>157.0</ele><time>2026-03-29T10:05:38.392Z</time></trkpt><trkpt lat="45.4737317" lon="10.49062"><ele>157.0</ele><time>2026-03-29T10:05:39.392Z</time></trkpt><trkpt lat="45.47381" lon="10.49059"><ele>157.0</ele><time>2026-03-29T10:05:40.392Z</time></trkpt><trkpt lat="45.4739067" lon="10.4906033"><ele>157.0</ele><time>2026-03-29T10:05:41.392Z</time></trkpt><trkpt lat="45.4740217" lon="10.4906267"><ele>157.0</ele><time>2026-03-29T10:05:42.392Z</time></trkpt><trkpt lat="45.4741483" lon="10.4906583"><ele>158.0</ele><time>2026-03-29T10:05:43.392Z</time></trkpt><trkpt lat="45.4743" lon="10.490685"><ele>159.0</ele><time>2026-03-29T10:05:44.393Z</time></trkpt><trkpt lat="45.4744567" lon="10.4907117"><ele>160.0</ele><time>2026-03-29T10:05:45.392Z</time></trkpt><trkpt lat="45.47461" lon="10.4907233"><ele>160.75</ele><time>2026-03-29T10:05:46.392Z</time></trkpt><trkpt lat="45.4747367" lon="10.4907317"><ele>161.5</ele><time>2026-03-29T10:05:47.392Z</time></trkpt><trkpt lat="45.474855" lon="10.4907033"><ele>162.25</ele><time>2026-03-29T10:05:48.393Z</time></trkpt><trkpt lat="45.47498" lon="10.4906167"><ele>163.0</ele><time>2026-03-29T10:05:49.392Z</time></trkpt><trkpt lat="45.4750917" lon="10.4905267"><ele>163.0</ele><time>2026-03-29T10:05:50.392Z</time></trkpt><trkpt lat="45.475195" lon="10.4904517"><ele>163.0</ele><time>2026-03-29T10:05:51.392Z</time></trkpt><trkpt lat="45.4752867" lon="10.4904167"><ele>163.0</ele><time>2026-03-29T10:05:52.393Z</time></trkpt><trkpt lat="45.47538" lon="10.4904083"><ele>163.0</ele><time>2026-03-29T10:05:53.393Z</time></trkpt><trkpt lat="45.4754767" lon="10.4904467"><ele>163.0</ele><time>2026-03-29T10:05:54.393Z</time></trkpt><trkpt lat="45.4755817" lon="10.4905017"><ele>164.0</ele><time>2026-03-29T10:05:55.392Z</time></trkpt><trkpt lat="45.4757067" lon="10.49056"><ele>165.0</ele><time>2026-03-29T10:05:56.393Z</time></trkpt><trkpt lat="45.4758317" lon="10.4906017"><ele>166.0</ele><time>2026-03-29T10:05:57.393Z</time></trkpt><trkpt lat="45.4759417" lon="10.4906617"><ele>167.0</ele><time>2026-03-29T10:05:58.392Z</time></trkpt><trkpt lat="45.4760467" lon="10.4907483"><ele>167.0</ele><time>2026-03-29T10:05:59.392Z</time></trkpt><trkpt lat="45.4761467" lon="10.49086"><ele>167.0</ele><time>2026-03-29T10:06:00.392Z</time></trkpt><trkpt lat="45.4762483" lon="10.4909567"><ele>167.0</ele><time>2026-03-29T10:06:01.392Z</time></trkpt><trkpt lat="45.47636" lon="10.49104"><ele>167.0</ele><time>2026-03-29T10:06:02.392Z</time></trkpt><trkpt lat="45.4764683" lon="10.4911217"><ele>167.0</ele><time>2026-03-29T10:06:03.392Z</time></trkpt><trkpt lat="45.4765867" lon="10.4912083"><ele>167.0</ele><time>2026-03-29T10:06:04.393Z</time></trkpt><trkpt lat="45.4767117" lon="10.4912933"><ele>167.0</ele><time>2026-03-29T10:06:05.392Z</time></trkpt><trkpt lat="45.4768367" lon="10.491385"><ele>167.0</ele><time>2026-03-29T10:06:06.392Z</time></trkpt><trkpt lat="45.4769633" lon="10.49149"><ele>167.0</ele><time>2026-03-29T10:06:07.393Z</time></trkpt><trkpt lat="45.4770783" lon="10.4916217"><ele>167.0</ele><time>2026-03-29T10:06:08.392Z</time></trkpt><trkpt lat="45.4771917" lon="10.4917633"><ele>167.0</ele><time>2026-03-29T10:06:09.392Z</time></trkpt><trkpt lat="45.4773067" lon="10.4919233"><ele>168.33333333333331</ele><time>2026-03-29T10:06:10.392Z</time></trkpt><trkpt lat="45.47743" lon="10.4920983"><ele>169.66666666666666</ele><time>2026-03-29T10:06:11.392Z</time></trkpt><trkpt lat="45.4775733" lon="10.4922667"><ele>171.0</ele><time>2026-03-29T10:06:12.392Z</time></trkpt><trkpt lat="45.477715" lon="10.4924517"><ele>171.0</ele><time>2026-03-29T10:06:13.392Z</time></trkpt><trkpt lat="45.4778517" lon="10.4925983"><ele>171.0</ele><time>2026-03-29T10:06:14.392Z</time></trkpt><trkpt lat="45.47797" lon="10.4927317"><ele>171.0</ele><time>2026-03-29T10:06:15.392Z</time></trkpt><trkpt lat="45.4780783" lon="10.492855"><ele>170.5</ele><time>2026-03-29T10:06:16.392Z</time></trkpt><trkpt lat="45.4781817" lon="10.49298"><ele>170.0</ele><time>2026-03-29T10:06:17.393Z</time></trkpt><trkpt lat="45.478285" lon="10.493095"><ele>169.5</ele><time>2026-03-29T10:06:18.393Z</time></trkpt><trkpt lat="45.4783783" lon="10.4931917"><ele>169.0</ele><time>2026-03-29T10:06:19.392Z</time></trkpt><trkpt lat="45.47846" lon="10.4932717"><ele>169.0</ele><time>2026-03-29T10:06:20.393Z</time></trkpt><trkpt lat="45.4785383" lon="10.4933217"><ele>169.0</ele><time>2026-03-29T10:06:21.392Z</time></trkpt><trkpt lat="45.4786533" lon="10.4932967"><ele>169.0</ele><time>2026-03-29T10:06:23.392Z</time></trkpt><trkpt lat="45.4787033" lon="10.4932217"><ele>169.0</ele><time>2026-03-29T10:06:24.392Z</time></trkpt><trkpt lat="45.47874" lon="10.4931167"><ele>169.0</ele><time>2026-03-29T10:06:25.392Z</time></trkpt><trkpt lat="45.4787667" lon="10.4929783"><ele>170.25</ele><time>2026-03-29T10:06:26.392Z</time></trkpt><trkpt lat="45.47879" lon="10.4928117"><ele>171.5</ele><time>2026-03-29T10:06:27.392Z</time></trkpt><trkpt lat="45.4788167" lon="10.49262"><ele>172.75</ele><time>2026-03-29T10:06:28.392Z</time></trkpt><trkpt lat="45.47885" lon="10.4924233"><ele>174.0</ele><time>2026-03-29T10:06:29.392Z</time></trkpt><trkpt lat="45.4788833" lon="10.4922383"><ele>174.75</ele><time>2026-03-29T10:06:30.392Z</time></trkpt><trkpt lat="45.47892" lon="10.4920633"><ele>175.5</ele><time>2026-03-29T10:06:31.392Z</time></trkpt><trkpt lat="45.4789567" lon="10.4918967"><ele>176.25</ele><time>2026-03-29T10:06:32.392Z</time></trkpt><trkpt lat="45.4789867" lon="10.4917617"><ele>177.0</ele><time>2026-03-29T10:06:33.392Z</time></trkpt><trkpt lat="45.4790483" lon="10.4916367"><ele>177.0</ele><time>2026-03-29T10:06:34.392Z</time></trkpt><trkpt lat="45.4791183" lon="10.4915567"><ele>177.0</ele><time>2026-03-29T10:06:35.392Z</time></trkpt><trkpt lat="45.4792" lon="10.4915167"><ele>177.0</ele><time>2026-03-29T10:06:36.393Z</time></trkpt><trkpt lat="45.4792917" lon="10.49152"><ele>177.0</ele><time>2026-03-29T10:06:37.393Z</time></trkpt><trkpt lat="45.4793867" lon="10.4915267"><ele>177.0</ele><time>2026-03-29T10:06:38.393Z</time></trkpt><trkpt lat="45.4794983" lon="10.4915533"><ele>177.5</ele><time>2026-03-29T10:06:39.392Z</time></trkpt><trkpt lat="45.47962" lon="10.4915817"><ele>178.0</ele><time>2026-03-29T10:06:40.392Z</time></trkpt><trkpt lat="45.47974" lon="10.4916133"><ele>178.5</ele><time>2026-03-29T10:06:41.392Z</time></trkpt><trkpt lat="45.4798733" lon="10.4916383"><ele>179.0</ele><time>2026-03-29T10:06:42.393Z</time></trkpt><trkpt lat="45.4800133" lon="10.4916617"><ele>179.0</ele><time>2026-03-29T10:06:43.392Z</time></trkpt><trkpt lat="45.48016" lon="10.4916683"><ele>179.0</ele><time>2026-03-29T10:06:44.393Z</time></trkpt><trkpt lat="45.4802983" lon="10.4916717"><ele>179.0</ele><time>2026-03-29T10:06:45.392Z</time></trkpt><trkpt lat="45.48043" lon="10.491665"><ele>179.0</ele><time>2026-03-29T10:06:46.392Z</time></trkpt><trkpt lat="45.48056" lon="10.491675"><ele>179.5</ele><time>2026-03-29T10:06:47.392Z</time></trkpt><trkpt lat="45.4806967" lon="10.491715"><ele>180.0</ele><time>2026-03-29T10:06:48.392Z</time></trkpt><trkpt lat="45.48084" lon="10.4917733"><ele>180.5</ele><time>2026-03-29T10:06:49.392Z</time></trkpt><trkpt lat="45.4809717" lon="10.4918417"><ele>181.0</ele><time>2026-03-29T10:06:50.392Z</time></trkpt><trkpt lat="45.4810883" lon="10.4919033"><ele>181.0</ele><time>2026-03-29T10:06:51.392Z</time></trkpt><trkpt lat="45.4811917" lon="10.4919417"><ele>181.0</ele><time>2026-03-29T10:06:52.392Z</time></trkpt><trkpt lat="45.481295" lon="10.4919583"><ele>181.0</ele><time>2026-03-29T10:06:53.392Z</time></trkpt><trkpt lat="45.481395" lon="10.491965"><ele>181.0</ele><time>2026-03-29T10:06:54.393Z</time></trkpt><trkpt lat="45.48148" lon="10.4919717"><ele>181.0</ele><time>2026-03-29T10:06:55.393Z</time></trkpt><trkpt lat="45.4815567" lon="10.4919867"><ele>180.66666666666669</ele><time>2026-03-29T10:06:56.392Z</time></trkpt><trkpt lat="45.4816283" lon="10.4920067"><ele>180.33333333333334</ele><time>2026-03-29T10:06:57.393Z</time></trkpt><trkpt lat="45.4817067" lon="10.49203"><ele>180.0</ele><time>2026-03-29T10:06:58.392Z</time></trkpt><trkpt lat="45.4817917" lon="10.4920617"><ele>179.66666666666666</ele><time>2026-03-29T10:06:59.392Z</time></trkpt><trkpt lat="45.4818733" lon="10.4920883"><ele>179.33333333333331</ele><time>2026-03-29T10:07:00.392Z</time></trkpt><trkpt lat="45.48196" lon="10.4921083"><ele>179.0</ele><time>2026-03-29T10:07:01.392Z</time></trkpt><trkpt lat="45.4820417" lon="10.492125"><ele>179.33333333333331</ele><time>2026-03-29T10:07:02.392Z</time></trkpt><trkpt lat="45.4821233" lon="10.4921517"><ele>179.66666666666666</ele><time>2026-03-29T10:07:03.392Z</time></trkpt><trkpt lat="45.4821967" lon="10.4921567"><ele>180.0</ele><time>2026-03-29T10:07:04.392Z</time></trkpt><trkpt lat="45.48226" lon="10.4921567"><ele>180.33333333333334</ele><time>2026-03-29T10:07:05.392Z</time></trkpt><trkpt lat="45.4823633" lon="10.4921217"><ele>180.66666666666669</ele><time>2026-03-29T10:07:07.392Z</time></trkpt><trkpt lat="45.4824" lon="10.49204"><ele>181.0</ele><time>2026-03-29T10:07:09.392Z</time></trkpt><trkpt lat="45.482335" lon="10.491885"><ele>182.25</ele><time>2026-03-29T10:07:11.393Z</time></trkpt><trkpt lat="45.4822783" lon="10.491785"><ele>183.5</ele><time>2026-03-29T10:07:12.392Z</time></trkpt><trkpt lat="45.48221" lon="10.491675"><ele>184.75</ele><time>2026-03-29T10:07:13.392Z</time></trkpt><trkpt lat="45.4821217" lon="10.4915483"><ele>186.0</ele><time>2026-03-29T10:07:14.392Z</time></trkpt><trkpt lat="45.4820267" lon="10.4914033"><ele>186.0</ele><time>2026-03-29T10:07:15.392Z</time></trkpt><trkpt lat="45.48193" lon="10.49126"><ele>186.0</ele><time>2026-03-29T10:07:16.392Z</time></trkpt><trkpt lat="45.4818217" lon="10.4911033"><ele>186.0</ele><time>2026-03-29T10:07:17.392Z</time></trkpt><trkpt lat="45.4817083" lon="10.49094"><ele>187.75</ele><time>2026-03-29T10:07:18.392Z</time></trkpt><trkpt lat="45.481605" lon="10.4907867"><ele>189.5</ele><time>2026-03-29T10:07:19.393Z</time></trkpt><trkpt lat="45.4815183" lon="10.4906467"><ele>191.25</ele><time>2026-03-29T10:07:20.392Z</time></trkpt><trkpt lat="45.48144" lon="10.4905117"><ele>193.0</ele><time>2026-03-29T10:07:21.393Z</time></trkpt><trkpt lat="45.481365" lon="10.490375"><ele>192.0</ele><time>2026-03-29T10:07:22.392Z</time></trkpt><trkpt lat="45.4812817" lon="10.490235"><ele>191.0</ele><time>2026-03-29T10:07:23.392Z</time></trkpt><trkpt lat="45.4811917" lon="10.490095"><ele>190.0</ele><time>2026-03-29T10:07:24.392Z</time></trkpt><trkpt lat="45.4811033" lon="10.4899667"><ele>189.0</ele><time>2026-03-29T10:07:25.392Z</time></trkpt><trkpt lat="45.4810267" lon="10.489825"><ele>189.0</ele><time>2026-03-29T10:07:26.393Z</time></trkpt><trkpt lat="45.48094" lon="10.4897033"><ele>189.0</ele><time>2026-03-29T10:07:27.392Z</time></trkpt><trkpt lat="45.4808417" lon="10.4896317"><ele>189.0</ele><time>2026-03-29T10:07:28.392Z</time></trkpt><trkpt lat="45.4807383" lon="10.4895967"><ele>189.0</ele><time>2026-03-29T10:07:29.392Z</time></trkpt><trkpt lat="45.480615" lon="10.4895883"><ele>190.39999999999998</ele><time>2026-03-29T10:07:30.392Z</time></trkpt><trkpt lat="45.4805017" lon="10.4895783"><ele>191.8</ele><time>2026-03-29T10:07:31.392Z</time></trkpt><trkpt lat="45.4803933" lon="10.489555"><ele>193.2</ele><time>2026-03-29T10:07:32.392Z</time></trkpt><trkpt lat="45.480295" lon="10.489515"><ele>194.60000000000002</ele><time>2026-03-29T10:07:33.392Z</time></trkpt><trkpt lat="45.4802033" lon="10.4894417"><ele>196.0</ele><time>2026-03-29T10:07:34.392Z</time></trkpt><trkpt lat="45.4801233" lon="10.4893567"><ele>196.5</ele><time>2026-03-29T10:07:35.392Z</time></trkpt><trkpt lat="45.48005" lon="10.48925"><ele>197.0</ele><time>2026-03-29T10:07:36.392Z</time></trkpt><trkpt lat="45.4799717" lon="10.48914"><ele>197.5</ele><time>2026-03-29T10:07:37.392Z</time></trkpt><trkpt lat="45.47989" lon="10.4890033"><ele>198.0</ele><time>2026-03-29T10:07:38.392Z</time></trkpt><trkpt lat="45.4798167" lon="10.4888583"><ele>197.5</ele><time>2026-03-29T10:07:39.392Z</time></trkpt><trkpt lat="45.479755" lon="10.48871"><ele>197.0</ele><time>2026-03-29T10:07:40.393Z</time></trkpt><trkpt lat="45.4796917" lon="10.4885433"><ele>196.5</ele><time>2026-03-29T10:07:41.392Z</time></trkpt><trkpt lat="45.4796283" lon="10.4883683"><ele>196.0</ele><time>2026-03-29T10:07:42.392Z</time></trkpt><trkpt lat="45.4795667" lon="10.4881817"><ele>196.0</ele><time>2026-03-29T10:07:43.392Z</time></trkpt><trkpt lat="45.4795117" lon="10.48799"><ele>196.0</ele><time>2026-03-29T10:07:44.392Z</time></trkpt><trkpt lat="45.4794533" lon="10.4878167"><ele>196.0</ele><time>2026-03-29T10:07:45.392Z</time></trkpt><trkpt lat="45.4793817" lon="10.4876783"><ele>196.0</ele><time>2026-03-29T10:07:46.392Z</time></trkpt><trkpt lat="45.479295" lon="10.4875717"><ele>197.16666666666666</ele><time>2026-03-29T10:07:47.392Z</time></trkpt><trkpt lat="45.479215" lon="10.487485"><ele>198.33333333333331</ele><time>2026-03-29T10:07:48.392Z</time></trkpt><trkpt lat="45.4791633" lon="10.4874217"><ele>199.5</ele><time>2026-03-29T10:07:49.392Z</time></trkpt><trkpt lat="45.4791817" lon="10.48728"><ele>200.66666666666669</ele><time>2026-03-29T10:07:52.392Z</time></trkpt><trkpt lat="45.4792283" lon="10.4872117"><ele>201.83333333333334</ele><time>2026-03-29T10:07:53.393Z</time></trkpt><trkpt lat="45.4792783" lon="10.4870983"><ele>203.0</ele><time>2026-03-29T10:07:54.392Z</time></trkpt><trkpt lat="45.4793333" lon="10.48695"><ele>204.0</ele><time>2026-03-29T10:07:55.393Z</time></trkpt><trkpt lat="45.47941" lon="10.486755"><ele>205.0</ele><time>2026-03-29T10:07:56.393Z</time></trkpt><trkpt lat="45.4794817" lon="10.4865633"><ele>206.0</ele><time>2026-03-29T10:07:57.392Z</time></trkpt><trkpt lat="45.4795683" lon="10.4863467"><ele>207.33333333333334</ele><time>2026-03-29T10:07:58.392Z</time></trkpt><trkpt lat="45.47966" lon="10.4861217"><ele>208.66666666666669</ele><time>2026-03-29T10:07:59.393Z</time></trkpt><trkpt lat="45.47975" lon="10.4859067"><ele>210.0</ele><time>2026-03-29T10:08:00.392Z</time></trkpt><trkpt lat="45.4798333" lon="10.4856867"><ele>210.0</ele><time>2026-03-29T10:08:01.392Z</time></trkpt><trkpt lat="45.479925" lon="10.48549"><ele>210.0</ele><time>2026-03-29T10:08:02.392Z</time></trkpt><trkpt lat="45.480005" lon="10.4853233"><ele>210.0</ele><time>2026-03-29T10:08:03.393Z</time></trkpt><trkpt lat="45.4800583" lon="10.4851817"><ele>210.0</ele><time>2026-03-29T10:08:04.393Z</time></trkpt><trkpt lat="45.4800967" lon="10.4850517"><ele>210.8</ele><time>2026-03-29T10:08:05.392Z</time></trkpt><trkpt lat="45.4801333" lon="10.4849183"><ele>211.6</ele><time>2026-03-29T10:08:06.393Z</time></trkpt><trkpt lat="45.48017" lon="10.4847817"><ele>212.39999999999998</ele><time>2026-03-29T10:08:07.392Z</time></trkpt><trkpt lat="45.4802083" lon="10.4846367"><ele>213.2</ele><time>2026-03-29T10:08:08.392Z</time></trkpt><trkpt lat="45.4802317" lon="10.4844983"><ele>214.0</ele><time>2026-03-29T10:08:09.393Z</time></trkpt><trkpt lat="45.4802417" lon="10.4843517"><ele>215.0</ele><time>2026-03-29T10:08:10.392Z</time></trkpt><trkpt lat="45.4802317" lon="10.4842083"><ele>216.0</ele><time>2026-03-29T10:08:11.393Z</time></trkpt><trkpt lat="45.4802067" lon="10.4840733"><ele>217.0</ele><time>2026-03-29T10:08:12.393Z</time></trkpt><trkpt lat="45.480165" lon="10.483905"><ele>218.0</ele><time>2026-03-29T10:08:13.392Z</time></trkpt><trkpt lat="45.4800967" lon="10.48373"><ele>219.0</ele><time>2026-03-29T10:08:14.392Z</time></trkpt><trkpt lat="45.4800183" lon="10.48358"><ele>220.0</ele><time>2026-03-29T10:08:15.392Z</time></trkpt><trkpt lat="45.4799283" lon="10.4834633"><ele>221.0</ele><time>2026-03-29T10:08:16.392Z</time></trkpt><trkpt lat="45.479855" lon="10.4833617"><ele>222.0</ele><time>2026-03-29T10:08:17.393Z</time></trkpt><trkpt lat="45.479805" lon="10.483275"><ele>223.0</ele><time>2026-03-29T10:08:18.392Z</time></trkpt><trkpt lat="45.479765" lon="10.4831817"><ele>222.99999999999997</ele><time>2026-03-29T10:08:19.392Z</time></trkpt><trkpt lat="45.4797433" lon="10.4830833"><ele>223.0</ele><time>2026-03-29T10:08:20.392Z</time></trkpt><trkpt lat="45.4797317" lon="10.4829683"><ele>223.0</ele><time>2026-03-29T10:08:21.392Z</time></trkpt><trkpt lat="45.4797283" lon="10.482845"><ele>223.0</ele><time>2026-03-29T10:08:22.392Z</time></trkpt><trkpt lat="45.4797183" lon="10.482725"><ele>222.99999999999997</ele><time>2026-03-29T10:08:23.392Z</time></trkpt><trkpt lat="45.4796933" lon="10.4826083"><ele>223.0</ele><time>2026-03-29T10:08:24.392Z</time></trkpt><trkpt lat="45.4796733" lon="10.4825017"><ele>223.16666666666666</ele><time>2026-03-29T10:08:25.392Z</time></trkpt><trkpt lat="45.4796583" lon="10.482405"><ele>223.33333333333331</ele><time>2026-03-29T10:08:26.392Z</time></trkpt><trkpt lat="45.4796517" lon="10.48223"><ele>223.5</ele><time>2026-03-29T10:08:28.392Z</time></trkpt><trkpt lat="45.4796483" lon="10.482135"><ele>223.66666666666669</ele><time>2026-03-29T10:08:29.392Z</time></trkpt><trkpt lat="45.4796417" lon="10.48203"><ele>223.83333333333334</ele><time>2026-03-29T10:08:30.392Z</time></trkpt><trkpt lat="45.4796133" lon="10.4819033"><ele>224.0</ele><time>2026-03-29T10:08:31.392Z</time></trkpt><trkpt lat="45.47955" lon="10.4817467"><ele>224.0</ele><time>2026-03-29T10:08:32.392Z</time></trkpt><trkpt lat="45.47946" lon="10.4815767"><ele>224.0</ele><time>2026-03-29T10:08:33.392Z</time></trkpt><trkpt lat="45.4793717" lon="10.48138"><ele>224.0</ele><time>2026-03-29T10:08:34.392Z</time></trkpt><trkpt lat="45.479295" lon="10.4811783"><ele>222.39999999999998</ele><time>2026-03-29T10:08:35.392Z</time></trkpt><trkpt lat="45.47924" lon="10.48098"><ele>220.79999999999998</ele><time>2026-03-29T10:08:36.392Z</time></trkpt><trkpt lat="45.479205" lon="10.48081"><ele>219.20000000000002</ele><time>2026-03-29T10:08:37.393Z</time></trkpt><trkpt lat="45.47918" lon="10.4806883"><ele>217.60000000000002</ele><time>2026-03-29T10:08:38.392Z</time></trkpt><trkpt lat="45.4791583" lon="10.480595"><ele>216.0</ele><time>2026-03-29T10:08:39.392Z</time></trkpt><trkpt lat="45.4790833" lon="10.480565"><ele>216.0</ele><time>2026-03-29T10:09:03.391Z</time></trkpt><trkpt lat="45.47897" lon="10.4805567"><ele>216.00000000000003</ele><time>2026-03-29T10:09:05.391Z</time></trkpt><trkpt lat="45.47889" lon="10.48055"><ele>216.00000000000003</ele><time>2026-03-29T10:09:06.392Z</time></trkpt><trkpt lat="45.4787917" lon="10.4805333"><ele>216.0</ele><time>2026-03-29T10:09:07.391Z</time></trkpt><trkpt lat="45.478685" lon="10.4805033"><ele>216.0</ele><time>2026-03-29T10:09:08.391Z</time></trkpt><trkpt lat="45.478595" lon="10.4804817"><ele>216.16666666666666</ele><time>2026-03-29T10:09:09.391Z</time></trkpt><trkpt lat="45.4785333" lon="10.4804533"><ele>216.33333333333331</ele><time>2026-03-29T10:09:10.391Z</time></trkpt><trkpt lat="45.4784683" lon="10.48043"><ele>216.5</ele><time>2026-03-29T10:09:11.392Z</time></trkpt><trkpt lat="45.4784183" lon="10.4803717"><ele>216.66666666666666</ele><time>2026-03-29T10:09:12.392Z</time></trkpt><trkpt lat="45.4783833" lon="10.480195"><ele>216.83333333333331</ele><time>2026-03-29T10:09:14.391Z</time></trkpt><trkpt lat="45.4783767" lon="10.4800783"><ele>217.0</ele><time>2026-03-29T10:09:15.392Z</time></trkpt><trkpt lat="45.47836" lon="10.4799583"><ele>216.49999999999997</ele><time>2026-03-29T10:09:16.392Z</time></trkpt><trkpt lat="45.47834" lon="10.479855"><ele>216.0</ele><time>2026-03-29T10:09:17.391Z</time></trkpt><trkpt lat="45.478295" lon="10.479775"><ele>215.5</ele><time>2026-03-29T10:09:18.391Z</time></trkpt><trkpt lat="45.4782233" lon="10.479745"><ele>215.0</ele><time>2026-03-29T10:09:19.391Z</time></trkpt><trkpt lat="45.4781333" lon="10.4797333"><ele>214.49999999999997</ele><time>2026-03-29T10:09:20.391Z</time></trkpt><trkpt lat="45.4780283" lon="10.4797233"><ele>214.0</ele><time>2026-03-29T10:09:21.391Z</time></trkpt><trkpt lat="45.4779183" lon="10.4797133"><ele>213.6</ele><time>2026-03-29T10:09:22.391Z</time></trkpt><trkpt lat="45.4778167" lon="10.4797083"><ele>213.2</ele><time>2026-03-29T10:09:23.391Z</time></trkpt><trkpt lat="45.4777233" lon="10.4797"><ele>212.79999999999998</ele><time>2026-03-29T10:09:24.391Z</time></trkpt><trkpt lat="45.47763" lon="10.479685"><ele>212.39999999999998</ele><time>2026-03-29T10:09:25.392Z</time></trkpt><trkpt lat="45.4775367" lon="10.4796383"><ele>212.0</ele><time>2026-03-29T10:09:26.392Z</time></trkpt><trkpt lat="45.4774383" lon="10.47957"><ele>211.39999999999998</ele><time>2026-03-29T10:09:27.391Z</time></trkpt><trkpt lat="45.477335" lon="10.47949"><ele>210.79999999999998</ele><time>2026-03-29T10:09:28.392Z</time></trkpt><trkpt lat="45.4772333" lon="10.479415"><ele>210.2</ele><time>2026-03-29T10:09:29.391Z</time></trkpt><trkpt lat="45.47716" lon="10.479345"><ele>209.6</ele><time>2026-03-29T10:09:30.391Z</time></trkpt><trkpt lat="45.477105" lon="10.47928"><ele>209.0</ele><time>2026-03-29T10:09:31.392Z</time></trkpt><trkpt lat="45.4770733" lon="10.4791883"><ele>208.79999999999998</ele><time>2026-03-29T10:09:32.391Z</time></trkpt><trkpt lat="45.47705" lon="10.4790617"><ele>208.6</ele><time>2026-03-29T10:09:33.391Z</time></trkpt><trkpt lat="45.4770233" lon="10.4789267"><ele>208.4</ele><time>2026-03-29T10:09:34.391Z</time></trkpt><trkpt lat="45.4769883" lon="10.4788"><ele>208.2</ele><time>2026-03-29T10:09:35.391Z</time></trkpt><trkpt lat="45.4769183" lon="10.4786917"><ele>208.0</ele><time>2026-03-29T10:09:36.391Z</time></trkpt><trkpt lat="45.4768233" lon="10.4786017"><ele>207.75</ele><time>2026-03-29T10:09:37.391Z</time></trkpt><trkpt lat="45.4767117" lon="10.4785183"><ele>207.5</ele><time>2026-03-29T10:09:38.391Z</time></trkpt><trkpt lat="45.4765983" lon="10.47843"><ele>207.25</ele><time>2026-03-29T10:09:39.391Z</time></trkpt><trkpt lat="45.476505" lon="10.478335"><ele>207.0</ele><time>2026-03-29T10:09:40.391Z</time></trkpt><trkpt lat="45.4764183" lon="10.4782433"><ele>207.0</ele><time>2026-03-29T10:09:41.392Z</time></trkpt><trkpt lat="45.4763583" lon="10.4781783"><ele>207.0</ele><time>2026-03-29T10:09:42.391Z</time></trkpt><trkpt lat="45.4763067" lon="10.4781167"><ele>207.0</ele><time>2026-03-29T10:09:43.391Z</time></trkpt><trkpt lat="45.4762667" lon="10.4780333"><ele>207.0</ele><time>2026-03-29T10:09:44.391Z</time></trkpt><trkpt lat="45.4762333" lon="10.47793"><ele>207.0</ele><time>2026-03-29T10:09:45.391Z</time></trkpt><trkpt lat="45.4761967" lon="10.4778267"><ele>207.0</ele><time>2026-03-29T10:09:46.391Z</time></trkpt><trkpt lat="45.4761617" lon="10.4777217"><ele>205.8</ele><time>2026-03-29T10:09:47.391Z</time></trkpt><trkpt lat="45.4761333" lon="10.4776333"><ele>204.6</ele><time>2026-03-29T10:09:48.391Z</time></trkpt><trkpt lat="45.47609" lon="10.4775117"><ele>203.4</ele><time>2026-03-29T10:09:50.392Z</time></trkpt><trkpt lat="45.475955" lon="10.47756"><ele>202.20000000000002</ele><time>2026-03-29T10:10:02.391Z</time></trkpt><trkpt lat="45.4758833" lon="10.4776117"><ele>201.0</ele><time>2026-03-29T10:10:03.391Z</time></trkpt><trkpt lat="45.4757833" lon="10.477705"><ele>201.0</ele><time>2026-03-29T10:10:04.391Z</time></trkpt><trkpt lat="45.4756783" lon="10.4777917"><ele>201.0</ele><time>2026-03-29T10:10:05.391Z</time></trkpt><trkpt lat="45.4755583" lon="10.4778983"><ele>201.0</ele><time>2026-03-29T10:10:06.391Z</time></trkpt><trkpt lat="45.475435" lon="10.4779917"><ele>201.0</ele><time>2026-03-29T10:10:07.391Z</time></trkpt><trkpt lat="45.475295" lon="10.478085"><ele>200.25</ele><time>2026-03-29T10:10:08.391Z</time></trkpt><trkpt lat="45.47516" lon="10.4781633"><ele>199.5</ele><time>2026-03-29T10:10:09.391Z</time></trkpt><trkpt lat="45.4750217" lon="10.4781917"><ele>198.75</ele><time>2026-03-29T10:10:10.391Z</time></trkpt><trkpt lat="45.4749" lon="10.47817"><ele>198.0</ele><time>2026-03-29T10:10:11.391Z</time></trkpt><trkpt lat="45.4747867" lon="10.4781183"><ele>198.0</ele><time>2026-03-29T10:10:12.391Z</time></trkpt><trkpt lat="45.4746933" lon="10.478025"><ele>198.0</ele><time>2026-03-29T10:10:13.391Z</time></trkpt><trkpt lat="45.4746283" lon="10.4778783"><ele>198.0</ele><time>2026-03-29T10:10:14.391Z</time></trkpt><trkpt lat="45.4745967" lon="10.4777017"><ele>198.0</ele><time>2026-03-29T10:10:15.391Z</time></trkpt><trkpt lat="45.474605" lon="10.4774867"><ele>197.66666666666669</ele><time>2026-03-29T10:10:16.392Z</time></trkpt><trkpt lat="45.4746383" lon="10.4772583"><ele>197.33333333333334</ele><time>2026-03-29T10:10:17.391Z</time></trkpt><trkpt lat="45.4746683" lon="10.477005"><ele>197.0</ele><time>2026-03-29T10:10:18.391Z</time></trkpt><trkpt lat="45.4747017" lon="10.4767217"><ele>196.33333333333334</ele><time>2026-03-29T10:10:19.391Z</time></trkpt><trkpt lat="45.4747267" lon="10.4764217"><ele>195.66666666666669</ele><time>2026-03-29T10:10:20.391Z</time></trkpt><trkpt lat="45.4747567" lon="10.476105"><ele>195.0</ele><time>2026-03-29T10:10:21.391Z</time></trkpt><trkpt lat="45.474755" lon="10.4757633"><ele>192.5</ele><time>2026-03-29T10:10:22.392Z</time></trkpt><trkpt lat="45.474725" lon="10.4754183"><ele>190.0</ele><time>2026-03-29T10:10:23.391Z</time></trkpt><trkpt lat="45.4746783" lon="10.4750617"><ele>190.0</ele><time>2026-03-29T10:10:24.392Z</time></trkpt><trkpt lat="45.4746183" lon="10.47471"><ele>190.0</ele><time>2026-03-29T10:10:25.391Z</time></trkpt><trkpt lat="45.4745417" lon="10.4743617"><ele>187.5</ele><time>2026-03-29T10:10:26.391Z</time></trkpt><trkpt lat="45.4744683" lon="10.474025"><ele>185.0</ele><time>2026-03-29T10:10:27.391Z</time></trkpt><trkpt lat="45.4743883" lon="10.4737217"><ele>184.0</ele><time>2026-03-29T10:10:28.391Z</time></trkpt><trkpt lat="45.4743017" lon="10.4734433"><ele>183.0</ele><time>2026-03-29T10:10:29.391Z</time></trkpt><trkpt lat="45.4742217" lon="10.4731683"><ele>182.0</ele><time>2026-03-29T10:10:30.391Z</time></trkpt><trkpt lat="45.4741467" lon="10.47291"><ele>181.66666666666666</ele><time>2026-03-29T10:10:31.391Z</time></trkpt><trkpt lat="45.47408" lon="10.4726717"><ele>181.33333333333334</ele><time>2026-03-29T10:10:32.391Z</time></trkpt><trkpt lat="45.47405" lon="10.47245"><ele>181.0</ele><time>2026-03-29T10:10:33.391Z</time></trkpt><trkpt lat="45.4740483" lon="10.4722867"><ele>181.0</ele><time>2026-03-29T10:10:34.392Z</time></trkpt><trkpt lat="45.474075" lon="10.472145"><ele>181.0</ele><time>2026-03-29T10:10:35.391Z</time></trkpt><trkpt lat="45.4741283" lon="10.4720133"><ele>181.0</ele><time>2026-03-29T10:10:36.391Z</time></trkpt><trkpt lat="45.4742017" lon="10.4718967"><ele>181.0</ele><time>2026-03-29T10:10:37.392Z</time></trkpt><trkpt lat="45.4742933" lon="10.471805"><ele>181.0</ele><time>2026-03-29T10:10:38.391Z</time></trkpt><trkpt lat="45.474405" lon="10.47174"><ele>180.25</ele><time>2026-03-29T10:10:39.392Z</time></trkpt><trkpt lat="45.4745333" lon="10.4716717"><ele>179.5</ele><time>2026-03-29T10:10:40.391Z</time></trkpt><trkpt lat="45.47466" lon="10.4715967"><ele>178.75</ele><time>2026-03-29T10:10:41.392Z</time></trkpt><trkpt lat="45.4747767" lon="10.471495"><ele>178.0</ele><time>2026-03-29T10:10:42.392Z</time></trkpt><trkpt lat="45.4748783" lon="10.47138"><ele>176.0</ele><time>2026-03-29T10:10:43.391Z</time></trkpt><trkpt lat="45.47496" lon="10.471245"><ele>174.0</ele><time>2026-03-29T10:10:44.392Z</time></trkpt><trkpt lat="45.47502" lon="10.4710867"><ele>172.0</ele><time>2026-03-29T10:10:45.391Z</time></trkpt><trkpt lat="45.4750517" lon="10.4709067"><ele>170.0</ele><time>2026-03-29T10:10:46.391Z</time></trkpt><trkpt lat="45.4750683" lon="10.4706883"><ele>170.0</ele><time>2026-03-29T10:10:47.391Z</time></trkpt><trkpt lat="45.4750817" lon="10.470445"><ele>170.0</ele><time>2026-03-29T10:10:48.391Z</time></trkpt><trkpt lat="45.4750933" lon="10.4701883"><ele>170.0</ele><time>2026-03-29T10:10:49.391Z</time></trkpt><trkpt lat="45.475105" lon="10.46991"><ele>168.66666666666666</ele><time>2026-03-29T10:10:50.392Z</time></trkpt><trkpt lat="45.4751183" lon="10.4696233"><ele>167.33333333333334</ele><time>2026-03-29T10:10:51.391Z</time></trkpt><trkpt lat="45.475125" lon="10.46932"><ele>166.0</ele><time>2026-03-29T10:10:52.392Z</time></trkpt><trkpt lat="45.4751317" lon="10.4690133"><ele>165.33333333333334</ele><time>2026-03-29T10:10:53.391Z</time></trkpt><trkpt lat="45.4751433" lon="10.4686983"><ele>164.66666666666666</ele><time>2026-03-29T10:10:54.391Z</time></trkpt><trkpt lat="45.4751483" lon="10.4683867"><ele>164.0</ele><time>2026-03-29T10:10:55.391Z</time></trkpt><trkpt lat="45.4751617" lon="10.4680683"><ele>163.0</ele><time>2026-03-29T10:10:56.391Z</time></trkpt><trkpt lat="45.47517" lon="10.4677483"><ele>162.0</ele><time>2026-03-29T10:10:57.391Z</time></trkpt><trkpt lat="45.4751867" lon="10.4674167"><ele>161.5</ele><time>2026-03-29T10:10:58.392Z</time></trkpt><trkpt lat="45.4752067" lon="10.46709"><ele>161.0</ele><time>2026-03-29T10:10:59.392Z</time></trkpt><trkpt lat="45.4752317" lon="10.4667467"><ele>161.0</ele><time>2026-03-29T10:11:00.391Z</time></trkpt><trkpt lat="45.4752633" lon="10.4664233"><ele>161.0</ele><time>2026-03-29T10:11:01.391Z</time></trkpt><trkpt lat="45.4752933" lon="10.4660917"><ele>160.33333333333331</ele><time>2026-03-29T10:11:02.391Z</time></trkpt><trkpt lat="45.4753217" lon="10.465775"><ele>159.66666666666666</ele><time>2026-03-29T10:11:03.391Z</time></trkpt><trkpt lat="45.4753417" lon="10.46546"><ele>159.0</ele><time>2026-03-29T10:11:04.391Z</time></trkpt><trkpt lat="45.4753667" lon="10.4651467"><ele>158.5</ele><time>2026-03-29T10:11:05.391Z</time></trkpt><trkpt lat="45.4753833" lon="10.46483"><ele>158.0</ele><time>2026-03-29T10:11:06.392Z</time></trkpt><trkpt lat="45.47539" lon="10.464505"><ele>157.5</ele><time>2026-03-29T10:11:07.391Z</time></trkpt><trkpt lat="45.47539" lon="10.464185"><ele>157.0</ele><time>2026-03-29T10:11:08.392Z</time></trkpt><trkpt lat="45.475375" lon="10.4638617"><ele>156.66666666666669</ele><time>2026-03-29T10:11:09.392Z</time></trkpt><trkpt lat="45.4753583" lon="10.46355"><ele>156.33333333333334</ele><time>2026-03-29T10:11:10.391Z</time></trkpt><trkpt lat="45.4753417" lon="10.4632483"><ele>156.0</ele><time>2026-03-29T10:11:11.391Z</time></trkpt><trkpt lat="45.475355" lon="10.4629933"><ele>156.0</ele><time>2026-03-29T10:11:12.392Z</time></trkpt><trkpt lat="45.4754033" lon="10.46276"><ele>156.0</ele><time>2026-03-29T10:11:13.391Z</time></trkpt><trkpt lat="45.4754933" lon="10.4625917"><ele>156.0</ele><time>2026-03-29T10:11:14.391Z</time></trkpt><trkpt lat="45.47559" lon="10.462455"><ele>155.33333333333334</ele><time>2026-03-29T10:11:15.391Z</time></trkpt><trkpt lat="45.4756933" lon="10.4623067"><ele>154.66666666666669</ele><time>2026-03-29T10:11:16.391Z</time></trkpt><trkpt lat="45.4758133" lon="10.4621433"><ele>154.0</ele><time>2026-03-29T10:11:17.392Z</time></trkpt><trkpt lat="45.4759217" lon="10.4619733"><ele>154.0</ele><time>2026-03-29T10:11:18.391Z</time></trkpt><trkpt lat="45.4760183" lon="10.4617983"><ele>154.0</ele><time>2026-03-29T10:11:19.391Z</time></trkpt><trkpt lat="45.4761033" lon="10.4616217"><ele>154.0</ele><time>2026-03-29T10:11:20.391Z</time></trkpt><trkpt lat="45.4761683" lon="10.46145"><ele>154.0</ele><time>2026-03-29T10:11:21.391Z</time></trkpt><trkpt lat="45.4762183" lon="10.4612733"><ele>154.0</ele><time>2026-03-29T10:11:22.391Z</time></trkpt><trkpt lat="45.4762633" lon="10.4610867"><ele>154.0</ele><time>2026-03-29T10:11:23.392Z</time></trkpt><trkpt lat="45.4763167" lon="10.46089"><ele>154.0</ele><time>2026-03-29T10:11:24.392Z</time></trkpt><trkpt lat="45.476375" lon="10.4606867"><ele>154.0</ele><time>2026-03-29T10:11:25.391Z</time></trkpt><trkpt lat="45.4764283" lon="10.4604633"><ele>154.33333333333334</ele><time>2026-03-29T10:11:26.391Z</time></trkpt><trkpt lat="45.4764933" lon="10.4602467"><ele>154.66666666666666</ele><time>2026-03-29T10:11:27.391Z</time></trkpt><trkpt lat="45.4765433" lon="10.460015"><ele>155.0</ele><time>2026-03-29T10:11:28.391Z</time></trkpt><trkpt lat="45.47659" lon="10.4598033"><ele>155.0</ele><time>2026-03-29T10:11:29.391Z</time></trkpt><trkpt lat="45.4766517" lon="10.459605"><ele>155.0</ele><time>2026-03-29T10:11:30.391Z</time></trkpt><trkpt lat="45.4767" lon="10.4593933"><ele>155.0</ele><time>2026-03-29T10:11:31.392Z</time></trkpt><trkpt lat="45.4767633" lon="10.459185"><ele>155.0</ele><time>2026-03-29T10:11:32.391Z</time></trkpt><trkpt lat="45.4768167" lon="10.4589633"><ele>155.0</ele><time>2026-03-29T10:11:33.391Z</time></trkpt><trkpt lat="45.4768683" lon="10.4587483"><ele>155.0</ele><time>2026-03-29T10:11:34.391Z</time></trkpt><trkpt lat="45.4769217" lon="10.4585267"><ele>155.0</ele><time>2026-03-29T10:11:35.391Z</time></trkpt><trkpt lat="45.476965" lon="10.4582933"><ele>155.0</ele><time>2026-03-29T10:11:36.391Z</time></trkpt><trkpt lat="45.47701" lon="10.4580667"><ele>155.0</ele><time>2026-03-29T10:11:37.391Z</time></trkpt><trkpt lat="45.4770383" lon="10.4578533"><ele>155.0</ele><time>2026-03-29T10:11:38.392Z</time></trkpt><trkpt lat="45.4770633" lon="10.4576317"><ele>155.0</ele><time>2026-03-29T10:11:39.391Z</time></trkpt><trkpt lat="45.4770933" lon="10.4574017"><ele>155.0</ele><time>2026-03-29T10:11:40.391Z</time></trkpt><trkpt lat="45.4771283" lon="10.457175"><ele>154.33333333333331</ele><time>2026-03-29T10:11:41.391Z</time></trkpt><trkpt lat="45.47719" lon="10.4569667"><ele>153.66666666666666</ele><time>2026-03-29T10:11:42.391Z</time></trkpt><trkpt lat="45.47724" lon="10.45676"><ele>153.0</ele><time>2026-03-29T10:11:43.391Z</time></trkpt><trkpt lat="45.4772967" lon="10.45657"><ele>153.0</ele><time>2026-03-29T10:11:44.391Z</time></trkpt><trkpt lat="45.47735" lon="10.4564083"><ele>153.0</ele><time>2026-03-29T10:11:45.391Z</time></trkpt><trkpt lat="45.477395" lon="10.45626"><ele>153.0</ele><time>2026-03-29T10:11:46.392Z</time></trkpt><trkpt lat="45.47744" lon="10.4561267"><ele>153.0</ele><time>2026-03-29T10:11:47.392Z</time></trkpt><trkpt lat="45.4774967" lon="10.4560233"><ele>153.0</ele><time>2026-03-29T10:11:48.391Z</time></trkpt><trkpt lat="45.4775867" lon="10.4559283"><ele>153.25</ele><time>2026-03-29T10:11:49.391Z</time></trkpt><trkpt lat="45.4776883" lon="10.45582"><ele>153.5</ele><time>2026-03-29T10:11:50.391Z</time></trkpt><trkpt lat="45.4777967" lon="10.455705"><ele>153.75</ele><time>2026-03-29T10:11:51.391Z</time></trkpt><trkpt lat="45.47791" lon="10.4555783"><ele>154.0</ele><time>2026-03-29T10:11:52.391Z</time></trkpt><trkpt lat="45.4780217" lon="10.4554433"><ele>153.0</ele><time>2026-03-29T10:11:53.391Z</time></trkpt><trkpt lat="45.478145" lon="10.45528"><ele>152.0</ele><time>2026-03-29T10:11:54.391Z</time></trkpt><trkpt lat="45.47827" lon="10.4551233"><ele>151.0</ele><time>2026-03-29T10:11:55.391Z</time></trkpt><trkpt lat="45.4783983" lon="10.4549567"><ele>151.0</ele><time>2026-03-29T10:11:56.392Z</time></trkpt><trkpt lat="45.4785367" lon="10.4547833"><ele>151.0</ele><time>2026-03-29T10:11:57.392Z</time></trkpt><trkpt lat="45.4786733" lon="10.454615"><ele>151.0</ele><time>2026-03-29T10:11:58.392Z</time></trkpt><trkpt lat="45.478825" lon="10.45444"><ele>151.0</ele><time>2026-03-29T10:11:59.391Z</time></trkpt><trkpt lat="45.4789717" lon="10.4542533"><ele>151.0</ele><time>2026-03-29T10:12:00.392Z</time></trkpt><trkpt lat="45.4791067" lon="10.4540833"><ele>151.0</ele><time>2026-03-29T10:12:01.391Z</time></trkpt><trkpt lat="45.479235" lon="10.4539233"><ele>151.0</ele><time>2026-03-29T10:12:02.391Z</time></trkpt><trkpt lat="45.479355" lon="10.4537967"><ele>151.0</ele><time>2026-03-29T10:12:03.391Z</time></trkpt><trkpt lat="45.4794733" lon="10.453685"><ele>151.0</ele><time>2026-03-29T10:12:04.391Z</time></trkpt><trkpt lat="45.4796083" lon="10.4535617"><ele>151.2</ele><time>2026-03-29T10:12:05.392Z</time></trkpt><trkpt lat="45.4797417" lon="10.4534517"><ele>151.39999999999998</ele><time>2026-03-29T10:12:06.391Z</time></trkpt><trkpt lat="45.47986" lon="10.4533667"><ele>151.6</ele><time>2026-03-29T10:12:07.391Z</time></trkpt><trkpt lat="45.47994" lon="10.4533217"><ele>151.79999999999998</ele><time>2026-03-29T10:12:08.392Z</time></trkpt><trkpt lat="45.48001" lon="10.453305"><ele>152.0</ele><time>2026-03-29T10:12:09.392Z</time></trkpt><trkpt lat="45.4800933" lon="10.45331"><ele>152.0</ele><time>2026-03-29T10:12:10.391Z</time></trkpt><trkpt lat="45.4801883" lon="10.4533117"><ele>152.0</ele><time>2026-03-29T10:12:11.391Z</time></trkpt><trkpt lat="45.4802983" lon="10.4533167"><ele>152.0</ele><time>2026-03-29T10:12:12.391Z</time></trkpt><trkpt lat="45.4804217" lon="10.4533333"><ele>152.0</ele><time>2026-03-29T10:12:13.391Z</time></trkpt><trkpt lat="45.4805583" lon="10.45335"><ele>151.66666666666666</ele><time>2026-03-29T10:12:14.391Z</time></trkpt><trkpt lat="45.480715" lon="10.453365"><ele>151.33333333333334</ele><time>2026-03-29T10:12:15.391Z</time></trkpt><trkpt lat="45.4808783" lon="10.4533783"><ele>151.0</ele><time>2026-03-29T10:12:16.391Z</time></trkpt><trkpt lat="45.4810417" lon="10.4534"><ele>151.0</ele><time>2026-03-29T10:12:17.391Z</time></trkpt><trkpt lat="45.481205" lon="10.4534333"><ele>151.0</ele><time>2026-03-29T10:12:18.392Z</time></trkpt><trkpt lat="45.4813533" lon="10.4534617"><ele>151.0</ele><time>2026-03-29T10:12:19.391Z</time></trkpt><trkpt lat="45.48149" lon="10.4534833"><ele>151.25</ele><time>2026-03-29T10:12:20.391Z</time></trkpt><trkpt lat="45.4816283" lon="10.45351"><ele>151.5</ele><time>2026-03-29T10:12:21.392Z</time></trkpt><trkpt lat="45.48177" lon="10.4535283"><ele>151.75</ele><time>2026-03-29T10:12:22.391Z</time></trkpt><trkpt lat="45.4819167" lon="10.453555"><ele>152.0</ele><time>2026-03-29T10:12:23.392Z</time></trkpt><trkpt lat="45.4820533" lon="10.453575"><ele>152.0</ele><time>2026-03-29T10:12:24.392Z</time></trkpt><trkpt lat="45.4822033" lon="10.4535967"><ele>152.0</ele><time>2026-03-29T10:12:25.392Z</time></trkpt><trkpt lat="45.4823483" lon="10.4536267"><ele>152.0</ele><time>2026-03-29T10:12:26.391Z</time></trkpt><trkpt lat="45.48251" lon="10.4536433"><ele>152.0</ele><time>2026-03-29T10:12:27.392Z</time></trkpt><trkpt lat="45.482675" lon="10.4536683"><ele>152.0</ele><time>2026-03-29T10:12:28.392Z</time></trkpt><trkpt lat="45.482845" lon="10.45369"><ele>152.0</ele><time>2026-03-29T10:12:29.391Z</time></trkpt><trkpt lat="45.4830217" lon="10.453715"><ele>152.33333333333331</ele><time>2026-03-29T10:12:30.391Z</time></trkpt><trkpt lat="45.4831933" lon="10.4537417"><ele>152.66666666666666</ele><time>2026-03-29T10:12:31.391Z</time></trkpt><trkpt lat="45.4833617" lon="10.4537667"><ele>153.0</ele><time>2026-03-29T10:12:32.392Z</time></trkpt><trkpt lat="45.48353" lon="10.4537917"><ele>153.33333333333334</ele><time>2026-03-29T10:12:33.391Z</time></trkpt><trkpt lat="45.4836967" lon="10.45381"><ele>153.66666666666669</ele><time>2026-03-29T10:12:34.391Z</time></trkpt><trkpt lat="45.4838583" lon="10.4538367"><ele>154.0</ele><time>2026-03-29T10:12:35.391Z</time></trkpt><trkpt lat="45.4840117" lon="10.453865"><ele>154.2</ele><time>2026-03-29T10:12:36.391Z</time></trkpt><trkpt lat="45.48414" lon="10.453885"><ele>154.4</ele><time>2026-03-29T10:12:37.391Z</time></trkpt><trkpt lat="45.48425" lon="10.45391"><ele>154.6</ele><time>2026-03-29T10:12:38.392Z</time></trkpt><trkpt lat="45.4843533" lon="10.4539317"><ele>154.8</ele><time>2026-03-29T10:12:39.391Z</time></trkpt><trkpt lat="45.4844417" lon="10.45395"><ele>155.0</ele><time>2026-03-29T10:12:40.391Z</time></trkpt><trkpt lat="45.4845067" lon="10.4539617"><ele>155.0</ele><time>2026-03-29T10:12:41.392Z</time></trkpt><trkpt lat="45.4845933" lon="10.454015"><ele>155.0</ele><time>2026-03-29T10:12:43.391Z</time></trkpt><trkpt lat="45.4846217" lon="10.4541567"><ele>155.0</ele><time>2026-03-29T10:12:45.391Z</time></trkpt><trkpt lat="45.4846217" lon="10.454275"><ele>155.0</ele><time>2026-03-29T10:12:46.391Z</time></trkpt><trkpt lat="45.4846133" lon="10.4544233"><ele>155.0</ele><time>2026-03-29T10:12:47.391Z</time></trkpt><trkpt lat="45.48461" lon="10.4546083"><ele>155.25</ele><time>2026-03-29T10:12:48.391Z</time></trkpt><trkpt lat="45.4846" lon="10.4548033"><ele>155.5</ele><time>2026-03-29T10:12:49.391Z</time></trkpt><trkpt lat="45.484585" lon="10.4550117"><ele>155.75</ele><time>2026-03-29T10:12:50.391Z</time></trkpt><trkpt lat="45.484575" lon="10.45522"><ele>156.0</ele><time>2026-03-29T10:12:51.391Z</time></trkpt><trkpt lat="45.48457" lon="10.4554367"><ele>156.33333333333334</ele><time>2026-03-29T10:12:52.391Z</time></trkpt><trkpt lat="45.4845683" lon="10.4556517"><ele>156.66666666666669</ele><time>2026-03-29T10:12:53.391Z</time></trkpt><trkpt lat="45.4845633" lon="10.4558833"><ele>157.0</ele><time>2026-03-29T10:12:54.39Z</time></trkpt><trkpt lat="45.48457" lon="10.4560983"><ele>157.33333333333334</ele><time>2026-03-29T10:12:55.39Z</time></trkpt><trkpt lat="45.4845733" lon="10.45633"><ele>157.66666666666666</ele><time>2026-03-29T10:12:56.39Z</time></trkpt><trkpt lat="45.4845733" lon="10.4565633"><ele>158.0</ele><time>2026-03-29T10:12:57.391Z</time></trkpt><trkpt lat="45.48457" lon="10.45681"><ele>158.0</ele><time>2026-03-29T10:12:58.39Z</time></trkpt><trkpt lat="45.484565" lon="10.4570517"><ele>158.0</ele><time>2026-03-29T10:12:59.39Z</time></trkpt><trkpt lat="45.4845733" lon="10.457305"><ele>158.0</ele><time>2026-03-29T10:13:00.39Z</time></trkpt><trkpt lat="45.4845683" lon="10.457535"><ele>158.0</ele><time>2026-03-29T10:13:01.39Z</time></trkpt><trkpt lat="45.4845667" lon="10.4577517"><ele>158.0</ele><time>2026-03-29T10:13:02.39Z</time></trkpt><trkpt lat="45.484555" lon="10.45793"><ele>158.0</ele><time>2026-03-29T10:13:03.39Z</time></trkpt><trkpt lat="45.4845417" lon="10.45806"><ele>158.0</ele><time>2026-03-29T10:13:04.391Z</time></trkpt><trkpt lat="45.484505" lon="10.458165"><ele>158.0</ele><time>2026-03-29T10:13:05.39Z</time></trkpt><trkpt lat="45.484455" lon="10.458285"><ele>158.0</ele><time>2026-03-29T10:13:06.391Z</time></trkpt><trkpt lat="45.484385" lon="10.458415"><ele>158.0</ele><time>2026-03-29T10:13:07.391Z</time></trkpt><trkpt lat="45.484305" lon="10.4585417"><ele>158.0</ele><time>2026-03-29T10:13:08.39Z</time></trkpt><trkpt lat="45.4842167" lon="10.4586617"><ele>158.75</ele><time>2026-03-29T10:13:09.39Z</time></trkpt><trkpt lat="45.4841283" lon="10.458785"><ele>159.5</ele><time>2026-03-29T10:13:10.39Z</time></trkpt><trkpt lat="45.4840417" lon="10.458905"><ele>160.25</ele><time>2026-03-29T10:13:11.39Z</time></trkpt><trkpt lat="45.483955" lon="10.45903"><ele>161.0</ele><time>2026-03-29T10:13:12.39Z</time></trkpt><trkpt lat="45.48388" lon="10.4591517"><ele>161.0</ele><time>2026-03-29T10:13:13.391Z</time></trkpt><trkpt lat="45.4838233" lon="10.4592483"><ele>161.0</ele><time>2026-03-29T10:13:14.391Z</time></trkpt><trkpt lat="45.48379" lon="10.45934"><ele>161.0</ele><time>2026-03-29T10:13:15.39Z</time></trkpt><trkpt lat="45.4837733" lon="10.4594433"><ele>161.0</ele><time>2026-03-29T10:13:16.39Z</time></trkpt><trkpt lat="45.4837933" lon="10.4595717"><ele>161.0</ele><time>2026-03-29T10:13:17.39Z</time></trkpt><trkpt lat="45.4838333" lon="10.4597317"><ele>161.0</ele><time>2026-03-29T10:13:18.39Z</time></trkpt><trkpt lat="45.483865" lon="10.4599167"><ele>161.33333333333331</ele><time>2026-03-29T10:13:19.39Z</time></trkpt><trkpt lat="45.483895" lon="10.460125"><ele>161.66666666666666</ele><time>2026-03-29T10:13:20.39Z</time></trkpt><trkpt lat="45.483915" lon="10.4603383"><ele>162.0</ele><time>2026-03-29T10:13:21.39Z</time></trkpt><trkpt lat="45.483935" lon="10.460565"><ele>162.0</ele><time>2026-03-29T10:13:22.391Z</time></trkpt><trkpt lat="45.4839567" lon="10.4608117"><ele>162.0</ele><time>2026-03-29T10:13:23.39Z</time></trkpt><trkpt lat="45.4839667" lon="10.4610667"><ele>162.0</ele><time>2026-03-29T10:13:24.391Z</time></trkpt><trkpt lat="45.483955" lon="10.46131"><ele>162.0</ele><time>2026-03-29T10:13:25.391Z</time></trkpt><trkpt lat="45.4839467" lon="10.461505"><ele>162.0</ele><time>2026-03-29T10:13:26.39Z</time></trkpt><trkpt lat="45.4839383" lon="10.4616633"><ele>162.0</ele><time>2026-03-29T10:13:27.391Z</time></trkpt><trkpt lat="45.4839433" lon="10.46178"><ele>162.0</ele><time>2026-03-29T10:13:28.391Z</time></trkpt><trkpt lat="45.4839733" lon="10.46187"><ele>162.0</ele><time>2026-03-29T10:13:29.391Z</time></trkpt><trkpt lat="45.4840183" lon="10.4619583"><ele>162.0</ele><time>2026-03-29T10:13:30.391Z</time></trkpt><trkpt lat="45.484075" lon="10.4620567"><ele>162.0</ele><time>2026-03-29T10:13:31.391Z</time></trkpt><trkpt lat="45.4841433" lon="10.462185"><ele>162.0</ele><time>2026-03-29T10:13:32.39Z</time></trkpt><trkpt lat="45.4842167" lon="10.4623383"><ele>162.0</ele><time>2026-03-29T10:13:33.39Z</time></trkpt><trkpt lat="45.4842767" lon="10.4625117"><ele>162.25</ele><time>2026-03-29T10:13:34.39Z</time></trkpt><trkpt lat="45.4843283" lon="10.4626933"><ele>162.5</ele><time>2026-03-29T10:13:35.39Z</time></trkpt><trkpt lat="45.484375" lon="10.4628583"><ele>162.75</ele><time>2026-03-29T10:13:36.39Z</time></trkpt><trkpt lat="45.484425" lon="10.4629883"><ele>163.0</ele><time>2026-03-29T10:13:37.39Z</time></trkpt><trkpt lat="45.4844833" lon="10.463085"><ele>163.16666666666669</ele><time>2026-03-29T10:13:38.39Z</time></trkpt><trkpt lat="45.4845417" lon="10.4631683"><ele>163.33333333333334</ele><time>2026-03-29T10:13:39.39Z</time></trkpt><trkpt lat="45.4845883" lon="10.4632567"><ele>163.5</ele><time>2026-03-29T10:13:40.39Z</time></trkpt><trkpt lat="45.4846167" lon="10.4633617"><ele>163.66666666666666</ele><time>2026-03-29T10:13:41.39Z</time></trkpt><trkpt lat="45.48462" lon="10.4634817"><ele>163.83333333333331</ele><time>2026-03-29T10:13:42.39Z</time></trkpt><trkpt lat="45.48462" lon="10.46363"><ele>164.0</ele><time>2026-03-29T10:13:43.39Z</time></trkpt><trkpt lat="45.4846167" lon="10.4638217"><ele>164.33333333333331</ele><time>2026-03-29T10:13:44.391Z</time></trkpt><trkpt lat="45.4846267" lon="10.4640317"><ele>164.66666666666666</ele><time>2026-03-29T10:13:45.39Z</time></trkpt><trkpt lat="45.4846417" lon="10.46426"><ele>165.0</ele><time>2026-03-29T10:13:46.391Z</time></trkpt><trkpt lat="45.484665" lon="10.464495"><ele>165.33333333333334</ele><time>2026-03-29T10:13:47.39Z</time></trkpt><trkpt lat="45.4846967" lon="10.4647167"><ele>165.66666666666669</ele><time>2026-03-29T10:13:48.391Z</time></trkpt><trkpt lat="45.4847183" lon="10.4649367"><ele>166.0</ele><time>2026-03-29T10:13:49.39Z</time></trkpt><trkpt lat="45.4847367" lon="10.4651417"><ele>166.0</ele><time>2026-03-29T10:13:50.391Z</time></trkpt><trkpt lat="45.4847617" lon="10.4653483"><ele>166.0</ele><time>2026-03-29T10:13:51.39Z</time></trkpt><trkpt lat="45.48479" lon="10.4655617"><ele>166.0</ele><time>2026-03-29T10:13:52.39Z</time></trkpt><trkpt lat="45.4848217" lon="10.4657717"><ele>166.33333333333334</ele><time>2026-03-29T10:13:53.39Z</time></trkpt><trkpt lat="45.4848467" lon="10.46601"><ele>166.66666666666666</ele><time>2026-03-29T10:13:54.39Z</time></trkpt><trkpt lat="45.4848633" lon="10.46623"><ele>167.0</ele><time>2026-03-29T10:13:55.39Z</time></trkpt><trkpt lat="45.48488" lon="10.466475"><ele>167.66666666666666</ele><time>2026-03-29T10:13:56.39Z</time></trkpt><trkpt lat="45.4849067" lon="10.4667217"><ele>168.33333333333334</ele><time>2026-03-29T10:13:57.391Z</time></trkpt><trkpt lat="45.4849383" lon="10.466945"><ele>169.0</ele><time>2026-03-29T10:13:58.391Z</time></trkpt><trkpt lat="45.4849783" lon="10.4671833"><ele>169.0</ele><time>2026-03-29T10:13:59.39Z</time></trkpt><trkpt lat="45.4850033" lon="10.4674133"><ele>169.0</ele><time>2026-03-29T10:14:00.39Z</time></trkpt><trkpt lat="45.48503" lon="10.4676383"><ele>169.0</ele><time>2026-03-29T10:14:01.39Z</time></trkpt><trkpt lat="45.4850533" lon="10.4678367"><ele>169.2</ele><time>2026-03-29T10:14:02.39Z</time></trkpt><trkpt lat="45.4850667" lon="10.4680067"><ele>169.39999999999998</ele><time>2026-03-29T10:14:03.39Z</time></trkpt><trkpt lat="45.4850783" lon="10.468165"><ele>169.6</ele><time>2026-03-29T10:14:04.39Z</time></trkpt><trkpt lat="45.4850883" lon="10.46831"><ele>169.8</ele><time>2026-03-29T10:14:05.39Z</time></trkpt><trkpt lat="45.4850967" lon="10.4684467"><ele>170.0</ele><time>2026-03-29T10:14:06.39Z</time></trkpt><trkpt lat="45.4851067" lon="10.46859"><ele>170.0</ele><time>2026-03-29T10:14:07.39Z</time></trkpt><trkpt lat="45.4851083" lon="10.4687333"><ele>170.0</ele><time>2026-03-29T10:14:08.39Z</time></trkpt><trkpt lat="45.485115" lon="10.4688733"><ele>170.0</ele><time>2026-03-29T10:14:09.39Z</time></trkpt><trkpt lat="45.4851217" lon="10.4690183"><ele>170.0</ele><time>2026-03-29T10:14:10.391Z</time></trkpt><trkpt lat="45.485125" lon="10.469175"><ele>170.0</ele><time>2026-03-29T10:14:11.391Z</time></trkpt><trkpt lat="45.4851267" lon="10.46933"><ele>170.2</ele><time>2026-03-29T10:14:12.39Z</time></trkpt><trkpt lat="45.48512" lon="10.469475"><ele>170.4</ele><time>2026-03-29T10:14:13.39Z</time></trkpt><trkpt lat="45.4851283" lon="10.4696083"><ele>170.60000000000002</ele><time>2026-03-29T10:14:14.39Z</time></trkpt><trkpt lat="45.48515" lon="10.46975"><ele>170.8</ele><time>2026-03-29T10:14:15.39Z</time></trkpt><trkpt lat="45.48516" lon="10.4699"><ele>171.0</ele><time>2026-03-29T10:14:16.391Z</time></trkpt><trkpt lat="45.485175" lon="10.4700633"><ele>171.25</ele><time>2026-03-29T10:14:17.39Z</time></trkpt><trkpt lat="45.4852017" lon="10.47026"><ele>171.5</ele><time>2026-03-29T10:14:18.39Z</time></trkpt><trkpt lat="45.4852233" lon="10.4704583"><ele>171.75</ele><time>2026-03-29T10:14:19.39Z</time></trkpt><trkpt lat="45.48525" lon="10.4706633"><ele>172.0</ele><time>2026-03-29T10:14:20.391Z</time></trkpt><trkpt lat="45.4852717" lon="10.4708667"><ele>172.75</ele><time>2026-03-29T10:14:21.39Z</time></trkpt><trkpt lat="45.48531" lon="10.4710617"><ele>173.5</ele><time>2026-03-29T10:14:22.39Z</time></trkpt><trkpt lat="45.4853433" lon="10.47124"><ele>174.25</ele><time>2026-03-29T10:14:23.39Z</time></trkpt><trkpt lat="45.485375" lon="10.47141"><ele>175.0</ele><time>2026-03-29T10:14:24.39Z</time></trkpt><trkpt lat="45.4854183" lon="10.4715783"><ele>176.0</ele><time>2026-03-29T10:14:25.391Z</time></trkpt><trkpt lat="45.485455" lon="10.4717333"><ele>177.0</ele><time>2026-03-29T10:14:26.39Z</time></trkpt><trkpt lat="45.4854933" lon="10.47189"><ele>178.0</ele><time>2026-03-29T10:14:27.39Z</time></trkpt><trkpt lat="45.4855233" lon="10.472035"><ele>179.0</ele><time>2026-03-29T10:14:28.39Z</time></trkpt><trkpt lat="45.48555" lon="10.4721783"><ele>180.0</ele><time>2026-03-29T10:14:29.39Z</time></trkpt><trkpt lat="45.48558" lon="10.4723083"><ele>180.6</ele><time>2026-03-29T10:14:30.39Z</time></trkpt><trkpt lat="45.4855967" lon="10.4724133"><ele>181.2</ele><time>2026-03-29T10:14:31.39Z</time></trkpt><trkpt lat="45.4856767" lon="10.4724533"><ele>181.8</ele><time>2026-03-29T10:14:33.391Z</time></trkpt><trkpt lat="45.485775" lon="10.4724183"><ele>182.4</ele><time>2026-03-29T10:14:35.391Z</time></trkpt><trkpt lat="45.48589" lon="10.472385"><ele>183.0</ele><time>2026-03-29T10:14:37.39Z</time></trkpt><trkpt lat="45.4859617" lon="10.47242"><ele>183.0</ele><time>2026-03-29T10:14:38.39Z</time></trkpt><trkpt lat="45.4860183" lon="10.4724867"><ele>183.0</ele><time>2026-03-29T10:14:39.391Z</time></trkpt><trkpt lat="45.4860717" lon="10.4725783"><ele>183.0</ele><time>2026-03-29T10:14:40.39Z</time></trkpt><trkpt lat="45.4861333" lon="10.4726583"><ele>183.0</ele><time>2026-03-29T10:14:41.39Z</time></trkpt><trkpt lat="45.4861883" lon="10.4727367"><ele>183.0</ele><time>2026-03-29T10:14:42.39Z</time></trkpt><trkpt lat="45.4862517" lon="10.47284"><ele>183.0</ele><time>2026-03-29T10:14:44.391Z</time></trkpt><trkpt lat="45.4862733" lon="10.4729417"><ele>183.5</ele><time>2026-03-29T10:14:52.39Z</time></trkpt><trkpt lat="45.48636" lon="10.4729817"><ele>184.0</ele><time>2026-03-29T10:14:54.39Z</time></trkpt><trkpt lat="45.486445" lon="10.4729283"><ele>184.5</ele><time>2026-03-29T10:14:55.39Z</time></trkpt><trkpt lat="45.4866083" lon="10.4727083"><ele>185.0</ele><time>2026-03-29T10:14:57.39Z</time></trkpt><trkpt lat="45.4867033" lon="10.4725517"><ele>183.33333333333331</ele><time>2026-03-29T10:14:58.39Z</time></trkpt><trkpt lat="45.4868083" lon="10.4723767"><ele>181.66666666666666</ele><time>2026-03-29T10:14:59.39Z</time></trkpt><trkpt lat="45.4869217" lon="10.4722117"><ele>180.0</ele><time>2026-03-29T10:15:00.39Z</time></trkpt><trkpt lat="45.4870383" lon="10.4720367"><ele>179.0</ele><time>2026-03-29T10:15:01.39Z</time></trkpt><trkpt lat="45.4871683" lon="10.471855"><ele>178.0</ele><time>2026-03-29T10:15:02.39Z</time></trkpt><trkpt lat="45.4873017" lon="10.4716633"><ele>177.0</ele><time>2026-03-29T10:15:03.39Z</time></trkpt><trkpt lat="45.48741" lon="10.4714683"><ele>176.66666666666666</ele><time>2026-03-29T10:15:04.391Z</time></trkpt><trkpt lat="45.4875167" lon="10.4712567"><ele>176.33333333333331</ele><time>2026-03-29T10:15:05.39Z</time></trkpt><trkpt lat="45.4876167" lon="10.47105"><ele>176.0</ele><time>2026-03-29T10:15:06.39Z</time></trkpt><trkpt lat="45.4877183" lon="10.470855"><ele>176.0</ele><time>2026-03-29T10:15:07.39Z</time></trkpt><trkpt lat="45.48781" lon="10.4706717"><ele>176.0</ele><time>2026-03-29T10:15:08.391Z</time></trkpt><trkpt lat="45.487895" lon="10.4705083"><ele>176.0</ele><time>2026-03-29T10:15:09.39Z</time></trkpt><trkpt lat="45.487965" lon="10.4703683"><ele>176.0</ele><time>2026-03-29T10:15:10.39Z</time></trkpt><trkpt lat="45.4880367" lon="10.470245"><ele>176.0</ele><time>2026-03-29T10:15:11.39Z</time></trkpt><trkpt lat="45.4880933" lon="10.4701317"><ele>176.0</ele><time>2026-03-29T10:15:12.39Z</time></trkpt><trkpt lat="45.4881317" lon="10.47004"><ele>176.0</ele><time>2026-03-29T10:15:13.39Z</time></trkpt><trkpt lat="45.4881183" lon="10.4699433"><ele>176.0</ele><time>2026-03-29T10:15:14.39Z</time></trkpt><trkpt lat="45.488085" lon="10.46983"><ele>176.0</ele><time>2026-03-29T10:15:15.39Z</time></trkpt><trkpt lat="45.4880567" lon="10.4696983"><ele>176.0</ele><time>2026-03-29T10:15:16.39Z</time></trkpt><trkpt lat="45.48804" lon="10.4695433"><ele>175.5</ele><time>2026-03-29T10:15:17.39Z</time></trkpt><trkpt lat="45.4880233" lon="10.4693633"><ele>175.0</ele><time>2026-03-29T10:15:18.39Z</time></trkpt><trkpt lat="45.4880167" lon="10.4691583"><ele>174.5</ele><time>2026-03-29T10:15:19.39Z</time></trkpt><trkpt lat="45.4880133" lon="10.4689267"><ele>174.0</ele><time>2026-03-29T10:15:20.39Z</time></trkpt><trkpt lat="45.4879967" lon="10.4686867"><ele>173.33333333333334</ele><time>2026-03-29T10:15:21.391Z</time></trkpt><trkpt lat="45.487985" lon="10.4684317"><ele>172.66666666666669</ele><time>2026-03-29T10:15:22.39Z</time></trkpt><trkpt lat="45.487975" lon="10.468165"><ele>172.0</ele><time>2026-03-29T10:15:23.39Z</time></trkpt><trkpt lat="45.4879617" lon="10.467885"><ele>172.0</ele><time>2026-03-29T10:15:24.39Z</time></trkpt><trkpt lat="45.487945" lon="10.4675917"><ele>172.0</ele><time>2026-03-29T10:15:25.39Z</time></trkpt><trkpt lat="45.487935" lon="10.4672883"><ele>172.0</ele><time>2026-03-29T10:15:26.391Z</time></trkpt><trkpt lat="45.4879183" lon="10.4669883"><ele>172.0</ele><time>2026-03-29T10:15:27.391Z</time></trkpt><trkpt lat="45.4879017" lon="10.4666817"><ele>172.0</ele><time>2026-03-29T10:15:28.39Z</time></trkpt><trkpt lat="45.48789" lon="10.4663867"><ele>172.0</ele><time>2026-03-29T10:15:29.39Z</time></trkpt></trkseg><trkseg><trkpt lat="45.4959967" lon="10.4481517"><ele>164.0</ele><time>2026-03-29T10:25:55.996Z</time></trkpt><trkpt lat="45.4959083" lon="10.448125"><ele>164.0</ele><time>2026-03-29T10:25:58.996Z</time></trkpt><trkpt lat="45.4958317" lon="10.44816"><ele>164.0</ele><time>2026-03-29T10:26:00.996Z</time></trkpt><trkpt lat="45.4957617" lon="10.4482117"><ele>164.0</ele><time>2026-03-29T10:26:02.996Z</time></trkpt><trkpt lat="45.4956533" lon="10.4482133"><ele>164.0</ele><time>2026-03-29T10:26:04.996Z</time></trkpt><trkpt lat="45.4955883" lon="10.44819"><ele>164.0</ele><time>2026-03-29T10:26:05.996Z</time></trkpt><trkpt lat="45.495525" lon="10.448165"><ele>163.79999999999998</ele><time>2026-03-29T10:26:06.997Z</time></trkpt><trkpt lat="45.4954183" lon="10.448125"><ele>163.6</ele><time>2026-03-29T10:26:08.996Z</time></trkpt><trkpt lat="45.4953533" lon="10.4480017"><ele>163.4</ele><time>2026-03-29T10:26:11.996Z</time></trkpt><trkpt lat="45.4953617" lon="10.4479"><ele>163.2</ele><time>2026-03-29T10:26:13.996Z</time></trkpt><trkpt lat="45.495395" lon="10.4477867"><ele>163.0</ele><time>2026-03-29T10:26:15.996Z</time></trkpt><trkpt lat="45.4954333" lon="10.4476667"><ele>163.0</ele><time>2026-03-29T10:26:17.997Z</time></trkpt><trkpt lat="45.49546" lon="10.4475583"><ele>163.0</ele><time>2026-03-29T10:26:19.996Z</time></trkpt><trkpt lat="45.4954983" lon="10.4474267"><ele>163.0</ele><time>2026-03-29T10:26:28.996Z</time></trkpt><trkpt lat="45.4955167" lon="10.4473333"><ele>163.0</ele><time>2026-03-29T10:26:29.996Z</time></trkpt><trkpt lat="45.4955367" lon="10.447235"><ele>163.0</ele><time>2026-03-29T10:26:30.996Z</time></trkpt><trkpt lat="45.4955567" lon="10.4471367"><ele>163.0</ele><time>2026-03-29T10:26:31.996Z</time></trkpt><trkpt lat="45.4955783" lon="10.4470333"><ele>163.33333333333334</ele><time>2026-03-29T10:26:32.996Z</time></trkpt><trkpt lat="45.4956033" lon="10.4469483"><ele>163.66666666666669</ele><time>2026-03-29T10:26:33.996Z</time></trkpt><trkpt lat="45.4956567" lon="10.44684"><ele>164.0</ele><time>2026-03-29T10:26:35.997Z</time></trkpt><trkpt lat="45.4957183" lon="10.4467983"><ele>164.33333333333334</ele><time>2026-03-29T10:26:37.996Z</time></trkpt><trkpt lat="45.4957917" lon="10.4468067"><ele>164.66666666666666</ele><time>2026-03-29T10:26:39.996Z</time></trkpt><trkpt lat="45.495865" lon="10.4468017"><ele>165.0</ele><time>2026-03-29T10:26:41.996Z</time></trkpt><trkpt lat="45.495975" lon="10.4467433"><ele>165.0</ele><time>2026-03-29T10:26:43.996Z</time></trkpt><trkpt lat="45.49603" lon="10.446675"><ele>165.0</ele><time>2026-03-29T10:26:44.996Z</time></trkpt><trkpt lat="45.4960983" lon="10.446595"><ele>165.0</ele><time>2026-03-29T10:26:45.996Z</time></trkpt><trkpt lat="45.49616" lon="10.4464783"><ele>165.0</ele><time>2026-03-29T10:26:46.996Z</time></trkpt><trkpt lat="45.4962417" lon="10.44636"><ele>165.0</ele><time>2026-03-29T10:26:47.996Z</time></trkpt><trkpt lat="45.4963333" lon="10.44624"><ele>164.5</ele><time>2026-03-29T10:26:48.996Z</time></trkpt><trkpt lat="45.4964167" lon="10.4461283"><ele>164.0</ele><time>2026-03-29T10:26:49.996Z</time></trkpt><trkpt lat="45.4965" lon="10.4460067"><ele>163.5</ele><time>2026-03-29T10:26:50.997Z</time></trkpt><trkpt lat="45.4965833" lon="10.4458983"><ele>163.0</ele><time>2026-03-29T10:26:51.995Z</time></trkpt><trkpt lat="45.496655" lon="10.4457917"><ele>163.0</ele><time>2026-03-29T10:26:52.995Z</time></trkpt><trkpt lat="45.49672" lon="10.4456833"><ele>163.0</ele><time>2026-03-29T10:26:53.995Z</time></trkpt><trkpt lat="45.496785" lon="10.445565"><ele>163.0</ele><time>2026-03-29T10:26:54.995Z</time></trkpt><trkpt lat="45.4968483" lon="10.445445"><ele>163.0</ele><time>2026-03-29T10:26:55.995Z</time></trkpt><trkpt lat="45.4969183" lon="10.4453267"><ele>163.0</ele><time>2026-03-29T10:26:56.995Z</time></trkpt><trkpt lat="45.4970033" lon="10.4452167"><ele>162.75</ele><time>2026-03-29T10:26:57.995Z</time></trkpt><trkpt lat="45.4970817" lon="10.4451017"><ele>162.5</ele><time>2026-03-29T10:26:58.995Z</time></trkpt><trkpt lat="45.497165" lon="10.4449867"><ele>162.25</ele><time>2026-03-29T10:26:59.995Z</time></trkpt><trkpt lat="45.497255" lon="10.444865"><ele>162.0</ele><time>2026-03-29T10:27:00.995Z</time></trkpt><trkpt lat="45.4973467" lon="10.4447367"><ele>161.75</ele><time>2026-03-29T10:27:01.995Z</time></trkpt><trkpt lat="45.4974483" lon="10.4446167"><ele>161.5</ele><time>2026-03-29T10:27:02.995Z</time></trkpt><trkpt lat="45.4975433" lon="10.4445"><ele>161.25</ele><time>2026-03-29T10:27:03.995Z</time></trkpt><trkpt lat="45.4976567" lon="10.4443933"><ele>161.0</ele><time>2026-03-29T10:27:04.995Z</time></trkpt><trkpt lat="45.4977683" lon="10.4442917"><ele>161.0</ele><time>2026-03-29T10:27:05.996Z</time></trkpt><trkpt lat="45.4978817" lon="10.4441983"><ele>161.0</ele><time>2026-03-29T10:27:06.995Z</time></trkpt><trkpt lat="45.4979867" lon="10.4441233"><ele>161.0</ele><time>2026-03-29T10:27:07.995Z</time></trkpt><trkpt lat="45.4980983" lon="10.4440417"><ele>161.0</ele><time>2026-03-29T10:27:08.995Z</time></trkpt><trkpt lat="45.4982067" lon="10.4439617"><ele>162.0</ele><time>2026-03-29T10:27:09.995Z</time></trkpt><trkpt lat="45.4983117" lon="10.4438817"><ele>163.0</ele><time>2026-03-29T10:27:10.995Z</time></trkpt><trkpt lat="45.4984183" lon="10.4437833"><ele>164.0</ele><time>2026-03-29T10:27:11.995Z</time></trkpt><trkpt lat="45.498505" lon="10.4436867"><ele>165.0</ele><time>2026-03-29T10:27:12.995Z</time></trkpt><trkpt lat="45.4985883" lon="10.4435867"><ele>165.0</ele><time>2026-03-29T10:27:13.995Z</time></trkpt><trkpt lat="45.4986567" lon="10.4434633"><ele>165.0</ele><time>2026-03-29T10:27:14.995Z</time></trkpt><trkpt lat="45.4987283" lon="10.44334"><ele>165.0</ele><time>2026-03-29T10:27:15.995Z</time></trkpt><trkpt lat="45.4988" lon="10.4432033"><ele>165.0</ele><time>2026-03-29T10:27:16.995Z</time></trkpt><trkpt lat="45.49888" lon="10.4430683"><ele>165.5</ele><time>2026-03-29T10:27:17.995Z</time></trkpt><trkpt lat="45.4989633" lon="10.4429417"><ele>166.0</ele><time>2026-03-29T10:27:18.995Z</time></trkpt><trkpt lat="45.4990583" lon="10.44281"><ele>166.5</ele><time>2026-03-29T10:27:19.995Z</time></trkpt><trkpt lat="45.4991467" lon="10.44269"><ele>167.0</ele><time>2026-03-29T10:27:20.995Z</time></trkpt><trkpt lat="45.4992417" lon="10.4425417"><ele>167.0</ele><time>2026-03-29T10:27:21.995Z</time></trkpt><trkpt lat="45.4993267" lon="10.4424267"><ele>167.0</ele><time>2026-03-29T10:27:22.995Z</time></trkpt><trkpt lat="45.4994083" lon="10.4423183"><ele>167.0</ele><time>2026-03-29T10:27:23.995Z</time></trkpt><trkpt lat="45.49948" lon="10.44223"><ele>167.0</ele><time>2026-03-29T10:27:24.995Z</time></trkpt><trkpt lat="45.4995417" lon="10.4421583"><ele>167.0</ele><time>2026-03-29T10:27:25.995Z</time></trkpt><trkpt lat="45.4995967" lon="10.44209"><ele>166.8</ele><time>2026-03-29T10:27:26.995Z</time></trkpt><trkpt lat="45.4996433" lon="10.4420233"><ele>166.6</ele><time>2026-03-29T10:27:27.995Z</time></trkpt><trkpt lat="45.4997283" lon="10.4419217"><ele>166.4</ele><time>2026-03-29T10:27:29.995Z</time></trkpt><trkpt lat="45.4997933" lon="10.44186"><ele>166.20000000000002</ele><time>2026-03-29T10:27:33.995Z</time></trkpt><trkpt lat="45.4998867" lon="10.4417983"><ele>166.0</ele><time>2026-03-29T10:27:35.995Z</time></trkpt><trkpt lat="45.4999667" lon="10.4417333"><ele>166.0</ele><time>2026-03-29T10:27:36.995Z</time></trkpt><trkpt lat="45.5000533" lon="10.4416433"><ele>166.0</ele><time>2026-03-29T10:27:37.995Z</time></trkpt><trkpt lat="45.5001317" lon="10.4415267"><ele>166.0</ele><time>2026-03-29T10:27:38.995Z</time></trkpt><trkpt lat="45.5002033" lon="10.4413817"><ele>166.0</ele><time>2026-03-29T10:27:39.995Z</time></trkpt><trkpt lat="45.5002583" lon="10.4412333"><ele>165.8</ele><time>2026-03-29T10:27:40.995Z</time></trkpt><trkpt lat="45.500305" lon="10.44111"><ele>165.60000000000002</ele><time>2026-03-29T10:27:41.995Z</time></trkpt><trkpt lat="45.5003483" lon="10.4410133"><ele>165.4</ele><time>2026-03-29T10:27:42.995Z</time></trkpt><trkpt lat="45.5003983" lon="10.4409467"><ele>165.2</ele><time>2026-03-29T10:27:43.995Z</time></trkpt><trkpt lat="45.5005267" lon="10.440965"><ele>165.0</ele><time>2026-03-29T10:27:45.996Z</time></trkpt><trkpt lat="45.5006033" lon="10.441005"><ele>165.0</ele><time>2026-03-29T10:27:46.995Z</time></trkpt><trkpt lat="45.5007017" lon="10.441055"><ele>165.0</ele><time>2026-03-29T10:27:47.995Z</time></trkpt><trkpt lat="45.5008067" lon="10.4410833"><ele>165.0</ele><time>2026-03-29T10:27:48.995Z</time></trkpt><trkpt lat="45.5009217" lon="10.4411067"><ele>165.0</ele><time>2026-03-29T10:27:49.995Z</time></trkpt><trkpt lat="45.5010467" lon="10.4411067"><ele>165.0</ele><time>2026-03-29T10:27:50.995Z</time></trkpt><trkpt lat="45.5011717" lon="10.441105"><ele>165.0</ele><time>2026-03-29T10:27:51.995Z</time></trkpt><trkpt lat="45.5012867" lon="10.4410967"><ele>165.0</ele><time>2026-03-29T10:27:52.995Z</time></trkpt><trkpt lat="45.501395" lon="10.4410883"><ele>165.0</ele><time>2026-03-29T10:27:53.995Z</time></trkpt><trkpt lat="45.5014983" lon="10.4410783"><ele>164.8</ele><time>2026-03-29T10:27:54.995Z</time></trkpt><trkpt lat="45.501595" lon="10.44107"><ele>164.6</ele><time>2026-03-29T10:27:55.996Z</time></trkpt><trkpt lat="45.50168" lon="10.4410633"><ele>164.39999999999998</ele><time>2026-03-29T10:27:56.995Z</time></trkpt><trkpt lat="45.5017583" lon="10.4410667"><ele>164.2</ele><time>2026-03-29T10:27:57.995Z</time></trkpt><trkpt lat="45.501835" lon="10.4410783"><ele>164.0</ele><time>2026-03-29T10:27:58.996Z</time></trkpt><trkpt lat="45.5019133" lon="10.4412033"><ele>164.0</ele><time>2026-03-29T10:28:00.995Z</time></trkpt><trkpt lat="45.5019267" lon="10.441295"><ele>164.0</ele><time>2026-03-29T10:28:01.995Z</time></trkpt><trkpt lat="45.5019367" lon="10.4414017"><ele>164.0</ele><time>2026-03-29T10:28:02.995Z</time></trkpt><trkpt lat="45.5019333" lon="10.4415183"><ele>164.0</ele><time>2026-03-29T10:28:03.995Z</time></trkpt><trkpt lat="45.50193" lon="10.44165"><ele>164.0</ele><time>2026-03-29T10:28:04.995Z</time></trkpt><trkpt lat="45.5019283" lon="10.441795"><ele>164.0</ele><time>2026-03-29T10:28:05.995Z</time></trkpt><trkpt lat="45.5019317" lon="10.441935"><ele>164.16666666666666</ele><time>2026-03-29T10:28:06.995Z</time></trkpt><trkpt lat="45.5019367" lon="10.44207"><ele>164.33333333333331</ele><time>2026-03-29T10:28:07.995Z</time></trkpt><trkpt lat="45.5019433" lon="10.44219"><ele>164.5</ele><time>2026-03-29T10:28:08.995Z</time></trkpt><trkpt lat="45.5019433" lon="10.4422983"><ele>164.66666666666666</ele><time>2026-03-29T10:28:09.995Z</time></trkpt><trkpt lat="45.5019383" lon="10.4424533"><ele>164.83333333333334</ele><time>2026-03-29T10:28:11.995Z</time></trkpt><trkpt lat="45.5019617" lon="10.4425583"><ele>165.0</ele><time>2026-03-29T10:28:14.995Z</time></trkpt><trkpt lat="45.50203" lon="10.4425767"><ele>165.4</ele><time>2026-03-29T10:28:16.995Z</time></trkpt><trkpt lat="45.5021683" lon="10.4425517"><ele>165.8</ele><time>2026-03-29T10:28:18.995Z</time></trkpt><trkpt lat="45.5022617" lon="10.4425333"><ele>166.2</ele><time>2026-03-29T10:28:19.995Z</time></trkpt><trkpt lat="45.50235" lon="10.4425283"><ele>166.6</ele><time>2026-03-29T10:28:20.995Z</time></trkpt><trkpt lat="45.50245" lon="10.4425233"><ele>167.0</ele><time>2026-03-29T10:28:21.995Z</time></trkpt><trkpt lat="45.5025517" lon="10.4425183"><ele>167.0</ele><time>2026-03-29T10:28:22.995Z</time></trkpt><trkpt lat="45.5026433" lon="10.442525"><ele>167.0</ele><time>2026-03-29T10:28:23.995Z</time></trkpt><trkpt lat="45.50272" lon="10.44253"><ele>167.0</ele><time>2026-03-29T10:28:24.995Z</time></trkpt><trkpt lat="45.5028333" lon="10.4425483"><ele>167.0</ele><time>2026-03-29T10:28:26.995Z</time></trkpt><trkpt lat="45.5028683" lon="10.4426583"><ele>167.0</ele><time>2026-03-29T10:28:28.995Z</time></trkpt><trkpt lat="45.50281" lon="10.442835"><ele>167.0</ele><time>2026-03-29T10:28:30.995Z</time></trkpt><trkpt lat="45.5027633" lon="10.4429533"><ele>167.0</ele><time>2026-03-29T10:28:31.995Z</time></trkpt><trkpt lat="45.5027083" lon="10.443095"><ele>167.0</ele><time>2026-03-29T10:28:32.995Z</time></trkpt><trkpt lat="45.5026517" lon="10.4432683"><ele>167.0</ele><time>2026-03-29T10:28:33.995Z</time></trkpt><trkpt lat="45.5025983" lon="10.4434533"><ele>167.0</ele><time>2026-03-29T10:28:34.995Z</time></trkpt><trkpt lat="45.5025333" lon="10.4436267"><ele>167.0</ele><time>2026-03-29T10:28:35.995Z</time></trkpt><trkpt lat="45.5024667" lon="10.4438133"><ele>167.0</ele><time>2026-03-29T10:28:36.996Z</time></trkpt><trkpt lat="45.5024017" lon="10.4439883"><ele>167.0</ele><time>2026-03-29T10:28:37.995Z</time></trkpt><trkpt lat="45.5023267" lon="10.444155"><ele>167.0</ele><time>2026-03-29T10:28:38.996Z</time></trkpt><trkpt lat="45.5022467" lon="10.4443117"><ele>167.0</ele><time>2026-03-29T10:28:39.995Z</time></trkpt><trkpt lat="45.5021767" lon="10.4444817"><ele>167.0</ele><time>2026-03-29T10:28:40.995Z</time></trkpt><trkpt lat="45.5021033" lon="10.444655"><ele>167.0</ele><time>2026-03-29T10:28:41.995Z</time></trkpt><trkpt lat="45.5020283" lon="10.44482"><ele>167.0</ele><time>2026-03-29T10:28:42.995Z</time></trkpt><trkpt lat="45.5019533" lon="10.4449883"><ele>167.0</ele><time>2026-03-29T10:28:43.995Z</time></trkpt><trkpt lat="45.5018767" lon="10.4451467"><ele>167.0</ele><time>2026-03-29T10:28:44.995Z</time></trkpt><trkpt lat="45.5018083" lon="10.4453017"><ele>167.0</ele><time>2026-03-29T10:28:45.995Z</time></trkpt><trkpt lat="45.5017317" lon="10.44545"><ele>167.5</ele><time>2026-03-29T10:28:46.995Z</time></trkpt><trkpt lat="45.5016567" lon="10.4456083"><ele>168.0</ele><time>2026-03-29T10:28:47.995Z</time></trkpt><trkpt lat="45.5015833" lon="10.4457617"><ele>168.5</ele><time>2026-03-29T10:28:48.995Z</time></trkpt><trkpt lat="45.501515" lon="10.4459067"><ele>169.0</ele><time>2026-03-29T10:28:49.995Z</time></trkpt><trkpt lat="45.5014483" lon="10.44605"><ele>169.0</ele><time>2026-03-29T10:28:50.996Z</time></trkpt><trkpt lat="45.5013967" lon="10.44619"><ele>169.0</ele><time>2026-03-29T10:28:51.995Z</time></trkpt><trkpt lat="45.501355" lon="10.4463333"><ele>169.0</ele><time>2026-03-29T10:28:52.995Z</time></trkpt><trkpt lat="45.50134" lon="10.446475"><ele>169.0</ele><time>2026-03-29T10:28:53.995Z</time></trkpt><trkpt lat="45.50133" lon="10.4466233"><ele>169.0</ele><time>2026-03-29T10:28:54.995Z</time></trkpt><trkpt lat="45.5013467" lon="10.4467867"><ele>169.0</ele><time>2026-03-29T10:28:55.995Z</time></trkpt><trkpt lat="45.5013467" lon="10.4469217"><ele>169.0</ele><time>2026-03-29T10:28:56.995Z</time></trkpt><trkpt lat="45.5013267" lon="10.4470483"><ele>169.0</ele><time>2026-03-29T10:28:57.995Z</time></trkpt><trkpt lat="45.5012817" lon="10.4471683"><ele>169.0</ele><time>2026-03-29T10:28:58.995Z</time></trkpt><trkpt lat="45.50122" lon="10.447285"><ele>169.0</ele><time>2026-03-29T10:28:59.995Z</time></trkpt><trkpt lat="45.5011483" lon="10.4474183"><ele>168.75</ele><time>2026-03-29T10:29:00.995Z</time></trkpt><trkpt lat="45.5010717" lon="10.4475717"><ele>168.5</ele><time>2026-03-29T10:29:01.995Z</time></trkpt><trkpt lat="45.5009817" lon="10.4477433"><ele>168.25</ele><time>2026-03-29T10:29:02.995Z</time></trkpt><trkpt lat="45.5008883" lon="10.447915"><ele>168.0</ele><time>2026-03-29T10:29:03.995Z</time></trkpt><trkpt lat="45.500805" lon="10.4481033"><ele>168.0</ele><time>2026-03-29T10:29:04.995Z</time></trkpt><trkpt lat="45.5007267" lon="10.44828"><ele>168.0</ele><time>2026-03-29T10:29:05.995Z</time></trkpt><trkpt lat="45.5006583" lon="10.4484517"><ele>168.0</ele><time>2026-03-29T10:29:06.995Z</time></trkpt><trkpt lat="45.500595" lon="10.44862"><ele>168.0</ele><time>2026-03-29T10:29:07.995Z</time></trkpt><trkpt lat="45.5005333" lon="10.4487817"><ele>168.0</ele><time>2026-03-29T10:29:08.995Z</time></trkpt><trkpt lat="45.5004733" lon="10.448935"><ele>168.0</ele><time>2026-03-29T10:29:09.995Z</time></trkpt><trkpt lat="45.50042" lon="10.44906"><ele>168.0</ele><time>2026-03-29T10:29:10.995Z</time></trkpt><trkpt lat="45.50039" lon="10.4491833"><ele>168.0</ele><time>2026-03-29T10:29:11.995Z</time></trkpt><trkpt lat="45.500375" lon="10.4492833"><ele>168.0</ele><time>2026-03-29T10:29:12.995Z</time></trkpt><trkpt lat="45.500425" lon="10.4494183"><ele>168.0</ele><time>2026-03-29T10:29:14.995Z</time></trkpt><trkpt lat="45.5004933" lon="10.449475"><ele>168.0</ele><time>2026-03-29T10:29:15.995Z</time></trkpt><trkpt lat="45.5005867" lon="10.44955"><ele>168.0</ele><time>2026-03-29T10:29:16.995Z</time></trkpt><trkpt lat="45.5006883" lon="10.44964"><ele>168.0</ele><time>2026-03-29T10:29:17.996Z</time></trkpt><trkpt lat="45.50079" lon="10.4497283"><ele>168.0</ele><time>2026-03-29T10:29:18.995Z</time></trkpt><trkpt lat="45.5008617" lon="10.4497867"><ele>168.0</ele><time>2026-03-29T10:29:19.995Z</time></trkpt><trkpt lat="45.50097" lon="10.4497617"><ele>168.0</ele><time>2026-03-29T10:29:21.995Z</time></trkpt><trkpt lat="45.501015" lon="10.449685"><ele>168.0</ele><time>2026-03-29T10:29:22.996Z</time></trkpt><trkpt lat="45.5010583" lon="10.4495867"><ele>168.0</ele><time>2026-03-29T10:29:23.995Z</time></trkpt><trkpt lat="45.5011033" lon="10.44947"><ele>168.0</ele><time>2026-03-29T10:29:24.995Z</time></trkpt><trkpt lat="45.5011483" lon="10.4493767"><ele>168.0</ele><time>2026-03-29T10:29:25.995Z</time></trkpt><trkpt lat="45.5012" lon="10.4493083"><ele>168.2</ele><time>2026-03-29T10:29:26.996Z</time></trkpt><trkpt lat="45.5012667" lon="10.4493067"><ele>168.4</ele><time>2026-03-29T10:29:27.995Z</time></trkpt><trkpt lat="45.501355" lon="10.44935"><ele>168.6</ele><time>2026-03-29T10:29:28.995Z</time></trkpt><trkpt lat="45.5014667" lon="10.4494083"><ele>168.79999999999998</ele><time>2026-03-29T10:29:29.995Z</time></trkpt><trkpt lat="45.50158" lon="10.4494733"><ele>169.0</ele><time>2026-03-29T10:29:30.995Z</time></trkpt><trkpt lat="45.50171" lon="10.4495433"><ele>169.0</ele><time>2026-03-29T10:29:31.995Z</time></trkpt><trkpt lat="45.501845" lon="10.4496067"><ele>169.0</ele><time>2026-03-29T10:29:32.995Z</time></trkpt><trkpt lat="45.5019867" lon="10.4496817"><ele>169.0</ele><time>2026-03-29T10:29:33.996Z</time></trkpt><trkpt lat="45.5021267" lon="10.4497433"><ele>169.0</ele><time>2026-03-29T10:29:34.995Z</time></trkpt><trkpt lat="45.5022633" lon="10.4497883"><ele>169.33333333333334</ele><time>2026-03-29T10:29:35.995Z</time></trkpt><trkpt lat="45.5024083" lon="10.4498317"><ele>169.66666666666666</ele><time>2026-03-29T10:29:36.995Z</time></trkpt><trkpt lat="45.502575" lon="10.4498517"><ele>170.0</ele><time>2026-03-29T10:29:37.995Z</time></trkpt><trkpt lat="45.502725" lon="10.4498583"><ele>170.0</ele><time>2026-03-29T10:29:38.995Z</time></trkpt><trkpt lat="45.5028617" lon="10.4498667"><ele>170.0</ele><time>2026-03-29T10:29:39.995Z</time></trkpt><trkpt lat="45.5029933" lon="10.449875"><ele>170.0</ele><time>2026-03-29T10:29:40.995Z</time></trkpt><trkpt lat="45.5031267" lon="10.4498567"><ele>170.0</ele><time>2026-03-29T10:29:41.995Z</time></trkpt><trkpt lat="45.5032517" lon="10.4498233"><ele>170.0</ele><time>2026-03-29T10:29:42.995Z</time></trkpt><trkpt lat="45.503365" lon="10.4497617"><ele>170.0</ele><time>2026-03-29T10:29:43.995Z</time></trkpt><trkpt lat="45.5034817" lon="10.44967"><ele>170.0</ele><time>2026-03-29T10:29:44.995Z</time></trkpt><trkpt lat="45.5036117" lon="10.4495733"><ele>170.0</ele><time>2026-03-29T10:29:45.995Z</time></trkpt><trkpt lat="45.5037367" lon="10.44948"><ele>170.25</ele><time>2026-03-29T10:29:46.995Z</time></trkpt><trkpt lat="45.5038617" lon="10.4493967"><ele>170.5</ele><time>2026-03-29T10:29:47.995Z</time></trkpt><trkpt lat="45.5039867" lon="10.4493183"><ele>170.75</ele><time>2026-03-29T10:29:48.995Z</time></trkpt><trkpt lat="45.5041133" lon="10.4492433"><ele>171.0</ele><time>2026-03-29T10:29:49.995Z</time></trkpt><trkpt lat="45.5042383" lon="10.4491817"><ele>171.0</ele><time>2026-03-29T10:29:50.995Z</time></trkpt><trkpt lat="45.5043617" lon="10.4491217"><ele>171.0</ele><time>2026-03-29T10:29:51.995Z</time></trkpt><trkpt lat="45.5044883" lon="10.4490617"><ele>171.0</ele><time>2026-03-29T10:29:52.995Z</time></trkpt><trkpt lat="45.50462" lon="10.4490067"><ele>171.0</ele><time>2026-03-29T10:29:53.995Z</time></trkpt><trkpt lat="45.504755" lon="10.448955"><ele>171.5</ele><time>2026-03-29T10:29:54.995Z</time></trkpt><trkpt lat="45.5048883" lon="10.4489017"><ele>172.0</ele><time>2026-03-29T10:29:55.995Z</time></trkpt><trkpt lat="45.5050183" lon="10.44886"><ele>172.5</ele><time>2026-03-29T10:29:56.995Z</time></trkpt><trkpt lat="45.5051483" lon="10.44881"><ele>173.0</ele><time>2026-03-29T10:29:57.995Z</time></trkpt><trkpt lat="45.5052733" lon="10.44876"><ele>173.0</ele><time>2026-03-29T10:29:58.995Z</time></trkpt><trkpt lat="45.5053867" lon="10.448715"><ele>173.0</ele><time>2026-03-29T10:29:59.995Z</time></trkpt><trkpt lat="45.5054883" lon="10.4486717"><ele>173.0</ele><time>2026-03-29T10:30:00.995Z</time></trkpt><trkpt lat="45.5055683" lon="10.4486233"><ele>173.0</ele><time>2026-03-29T10:30:01.995Z</time></trkpt><trkpt lat="45.50564" lon="10.4485833"><ele>173.0</ele><time>2026-03-29T10:30:02.995Z</time></trkpt><trkpt lat="45.5057017" lon="10.448555"><ele>173.16666666666666</ele><time>2026-03-29T10:30:03.995Z</time></trkpt><trkpt lat="45.5058" lon="10.4485217"><ele>173.33333333333331</ele><time>2026-03-29T10:30:05.995Z</time></trkpt><trkpt lat="45.5058667" lon="10.4485033"><ele>173.5</ele><time>2026-03-29T10:30:08.995Z</time></trkpt><trkpt lat="45.5059317" lon="10.44847"><ele>173.66666666666666</ele><time>2026-03-29T10:30:10.995Z</time></trkpt><trkpt lat="45.5059933" lon="10.4484317"><ele>173.83333333333334</ele><time>2026-03-29T10:30:11.995Z</time></trkpt><trkpt lat="45.5060683" lon="10.4483833"><ele>174.0</ele><time>2026-03-29T10:30:12.996Z</time></trkpt><trkpt lat="45.5061633" lon="10.44831"><ele>174.25</ele><time>2026-03-29T10:30:13.995Z</time></trkpt><trkpt lat="45.5062717" lon="10.4482317"><ele>174.5</ele><time>2026-03-29T10:30:14.995Z</time></trkpt><trkpt lat="45.5063883" lon="10.4481333"><ele>174.75</ele><time>2026-03-29T10:30:15.995Z</time></trkpt><trkpt lat="45.5065133" lon="10.44803"><ele>175.0</ele><time>2026-03-29T10:30:16.995Z</time></trkpt><trkpt lat="45.506635" lon="10.4479133"><ele>175.0</ele><time>2026-03-29T10:30:17.995Z</time></trkpt><trkpt lat="45.5067667" lon="10.4477917"><ele>175.0</ele><time>2026-03-29T10:30:18.995Z</time></trkpt><trkpt lat="45.50691" lon="10.4476633"><ele>175.0</ele><time>2026-03-29T10:30:19.995Z</time></trkpt><trkpt lat="45.5070517" lon="10.4475283"><ele>174.66666666666669</ele><time>2026-03-29T10:30:20.995Z</time></trkpt><trkpt lat="45.5071967" lon="10.4473867"><ele>174.33333333333334</ele><time>2026-03-29T10:30:21.995Z</time></trkpt><trkpt lat="45.50735" lon="10.44723"><ele>174.0</ele><time>2026-03-29T10:30:22.995Z</time></trkpt><trkpt lat="45.5075183" lon="10.447065"><ele>174.33333333333334</ele><time>2026-03-29T10:30:23.995Z</time></trkpt><trkpt lat="45.50767" lon="10.44688"><ele>174.66666666666669</ele><time>2026-03-29T10:30:24.995Z</time></trkpt><trkpt lat="45.5078217" lon="10.446695"><ele>175.0</ele><time>2026-03-29T10:30:25.995Z</time></trkpt><trkpt lat="45.5079917" lon="10.4465167"><ele>175.0</ele><time>2026-03-29T10:30:26.995Z</time></trkpt><trkpt lat="45.5081467" lon="10.4463417"><ele>175.0</ele><time>2026-03-29T10:30:27.995Z</time></trkpt><trkpt lat="45.508295" lon="10.4461667"><ele>175.0</ele><time>2026-03-29T10:30:28.995Z</time></trkpt><trkpt lat="45.5084467" lon="10.4459967"><ele>175.0</ele><time>2026-03-29T10:30:29.996Z</time></trkpt><trkpt lat="45.508585" lon="10.4458283"><ele>175.0</ele><time>2026-03-29T10:30:30.995Z</time></trkpt><trkpt lat="45.5087333" lon="10.4456683"><ele>175.0</ele><time>2026-03-29T10:30:31.995Z</time></trkpt><trkpt lat="45.5088583" lon="10.445505"><ele>175.66666666666669</ele><time>2026-03-29T10:30:32.995Z</time></trkpt><trkpt lat="45.5089767" lon="10.4453617"><ele>176.33333333333334</ele><time>2026-03-29T10:30:33.995Z</time></trkpt><trkpt lat="45.5090933" lon="10.4452183"><ele>177.0</ele><time>2026-03-29T10:30:34.995Z</time></trkpt><trkpt lat="45.5092183" lon="10.4450717"><ele>177.0</ele><time>2026-03-29T10:30:35.995Z</time></trkpt><trkpt lat="45.509335" lon="10.44492"><ele>177.0</ele><time>2026-03-29T10:30:36.995Z</time></trkpt><trkpt lat="45.5094233" lon="10.444755"><ele>177.0</ele><time>2026-03-29T10:30:37.995Z</time></trkpt><trkpt lat="45.5095233" lon="10.444565"><ele>176.66666666666666</ele><time>2026-03-29T10:30:38.995Z</time></trkpt><trkpt lat="45.5096117" lon="10.44436"><ele>176.33333333333331</ele><time>2026-03-29T10:30:39.996Z</time></trkpt><trkpt lat="45.509695" lon="10.4441683"><ele>176.0</ele><time>2026-03-29T10:30:40.995Z</time></trkpt><trkpt lat="45.5097733" lon="10.4439967"><ele>176.0</ele><time>2026-03-29T10:30:41.995Z</time></trkpt><trkpt lat="45.5098617" lon="10.4438333"><ele>176.0</ele><time>2026-03-29T10:30:42.995Z</time></trkpt><trkpt lat="45.5099367" lon="10.4436833"><ele>176.0</ele><time>2026-03-29T10:30:43.996Z</time></trkpt><trkpt lat="45.5100117" lon="10.4435433"><ele>176.0</ele><time>2026-03-29T10:30:44.995Z</time></trkpt><trkpt lat="45.5100767" lon="10.4434"><ele>176.0</ele><time>2026-03-29T10:30:45.995Z</time></trkpt><trkpt lat="45.510145" lon="10.44326"><ele>176.0</ele><time>2026-03-29T10:30:46.996Z</time></trkpt><trkpt lat="45.5102133" lon="10.4431267"><ele>176.0</ele><time>2026-03-29T10:30:47.995Z</time></trkpt><trkpt lat="45.5102767" lon="10.4429933"><ele>176.0</ele><time>2026-03-29T10:30:48.995Z</time></trkpt><trkpt lat="45.51033" lon="10.442875"><ele>176.0</ele><time>2026-03-29T10:30:49.995Z</time></trkpt><trkpt lat="45.5103833" lon="10.4427817"><ele>176.60000000000002</ele><time>2026-03-29T10:30:50.996Z</time></trkpt><trkpt lat="45.5104567" lon="10.4427033"><ele>177.2</ele><time>2026-03-29T10:30:51.995Z</time></trkpt><trkpt lat="45.51055" lon="10.4426633"><ele>177.8</ele><time>2026-03-29T10:30:52.996Z</time></trkpt><trkpt lat="45.5106717" lon="10.4426683"><ele>178.39999999999998</ele><time>2026-03-29T10:30:53.995Z</time></trkpt><trkpt lat="45.510795" lon="10.4426967"><ele>179.0</ele><time>2026-03-29T10:30:54.995Z</time></trkpt><trkpt lat="45.51092" lon="10.4427217"><ele>179.0</ele><time>2026-03-29T10:30:55.995Z</time></trkpt><trkpt lat="45.5110333" lon="10.4427467"><ele>179.0</ele><time>2026-03-29T10:30:56.995Z</time></trkpt><trkpt lat="45.51115" lon="10.44276"><ele>179.0</ele><time>2026-03-29T10:30:57.995Z</time></trkpt><trkpt lat="45.5112533" lon="10.4428017"><ele>179.0</ele><time>2026-03-29T10:30:58.994Z</time></trkpt><trkpt lat="45.5113333" lon="10.4428583"><ele>179.0</ele><time>2026-03-29T10:30:59.995Z</time></trkpt><trkpt lat="45.5113983" lon="10.4429333"><ele>178.66666666666666</ele><time>2026-03-29T10:31:00.996Z</time></trkpt><trkpt lat="45.5114383" lon="10.4430317"><ele>178.33333333333331</ele><time>2026-03-29T10:31:01.995Z</time></trkpt><trkpt lat="45.5114667" lon="10.443145"><ele>178.0</ele><time>2026-03-29T10:31:02.995Z</time></trkpt><trkpt lat="45.5115117" lon="10.443275"><ele>177.66666666666666</ele><time>2026-03-29T10:31:03.995Z</time></trkpt><trkpt lat="45.5115833" lon="10.44336"><ele>177.33333333333334</ele><time>2026-03-29T10:31:04.995Z</time></trkpt><trkpt lat="45.511665" lon="10.44341"><ele>177.0</ele><time>2026-03-29T10:31:05.995Z</time></trkpt><trkpt lat="45.51175" lon="10.4433817"><ele>177.0</ele><time>2026-03-29T10:31:06.995Z</time></trkpt><trkpt lat="45.5118267" lon="10.4432783"><ele>177.0</ele><time>2026-03-29T10:31:07.995Z</time></trkpt><trkpt lat="45.5118767" lon="10.44315"><ele>177.0</ele><time>2026-03-29T10:31:08.995Z</time></trkpt><trkpt lat="45.5119083" lon="10.4430017"><ele>177.0</ele><time>2026-03-29T10:31:09.995Z</time></trkpt><trkpt lat="45.51195" lon="10.44284"><ele>177.0</ele><time>2026-03-29T10:31:10.995Z</time></trkpt><trkpt lat="45.5120017" lon="10.4426717"><ele>177.25</ele><time>2026-03-29T10:31:11.995Z</time></trkpt><trkpt lat="45.512085" lon="10.442515"><ele>177.5</ele><time>2026-03-29T10:31:12.996Z</time></trkpt><trkpt lat="45.51218" lon="10.4423683"><ele>177.75</ele><time>2026-03-29T10:31:13.995Z</time></trkpt><trkpt lat="45.5122883" lon="10.4422183"><ele>178.0</ele><time>2026-03-29T10:31:14.995Z</time></trkpt><trkpt lat="45.5124033" lon="10.4420667"><ele>178.0</ele><time>2026-03-29T10:31:15.995Z</time></trkpt><trkpt lat="45.5125317" lon="10.4419033"><ele>178.0</ele><time>2026-03-29T10:31:16.995Z</time></trkpt><trkpt lat="45.51266" lon="10.4417333"><ele>178.0</ele><time>2026-03-29T10:31:17.996Z</time></trkpt><trkpt lat="45.5127883" lon="10.4415517"><ele>178.33333333333334</ele><time>2026-03-29T10:31:18.995Z</time></trkpt><trkpt lat="45.5129133" lon="10.4413567"><ele>178.66666666666666</ele><time>2026-03-29T10:31:19.995Z</time></trkpt><trkpt lat="45.513035" lon="10.4411533"><ele>179.0</ele><time>2026-03-29T10:31:20.995Z</time></trkpt><trkpt lat="45.5131533" lon="10.4409467"><ele>179.0</ele><time>2026-03-29T10:31:21.995Z</time></trkpt><trkpt lat="45.5132683" lon="10.4407483"><ele>179.0</ele><time>2026-03-29T10:31:22.995Z</time></trkpt><trkpt lat="45.5133767" lon="10.4405467"><ele>179.0</ele><time>2026-03-29T10:31:23.995Z</time></trkpt><trkpt lat="45.5134883" lon="10.44034"><ele>179.0</ele><time>2026-03-29T10:31:24.995Z</time></trkpt><trkpt lat="45.5135833" lon="10.44014"><ele>179.0</ele><time>2026-03-29T10:31:25.995Z</time></trkpt><trkpt lat="45.513675" lon="10.439925"><ele>179.0</ele><time>2026-03-29T10:31:26.995Z</time></trkpt><trkpt lat="45.5137567" lon="10.4397133"><ele>179.33333333333331</ele><time>2026-03-29T10:31:27.995Z</time></trkpt><trkpt lat="45.51383" lon="10.4395033"><ele>179.66666666666666</ele><time>2026-03-29T10:31:28.995Z</time></trkpt><trkpt lat="45.5138983" lon="10.439295"><ele>180.0</ele><time>2026-03-29T10:31:29.995Z</time></trkpt><trkpt lat="45.5139667" lon="10.4390883"><ele>180.0</ele><time>2026-03-29T10:31:30.996Z</time></trkpt><trkpt lat="45.5140283" lon="10.438875"><ele>180.0</ele><time>2026-03-29T10:31:31.995Z</time></trkpt><trkpt lat="45.514095" lon="10.438655"><ele>180.0</ele><time>2026-03-29T10:31:32.994Z</time></trkpt><trkpt lat="45.5141567" lon="10.4384267"><ele>180.0</ele><time>2026-03-29T10:31:33.994Z</time></trkpt><trkpt lat="45.5142117" lon="10.4382017"><ele>180.0</ele><time>2026-03-29T10:31:34.994Z</time></trkpt><trkpt lat="45.5142733" lon="10.437975"><ele>180.0</ele><time>2026-03-29T10:31:35.994Z</time></trkpt><trkpt lat="45.5143333" lon="10.4377483"><ele>180.25</ele><time>2026-03-29T10:31:36.994Z</time></trkpt><trkpt lat="45.5143933" lon="10.4375267"><ele>180.5</ele><time>2026-03-29T10:31:37.994Z</time></trkpt><trkpt lat="45.51447" lon="10.4373417"><ele>180.75</ele><time>2026-03-29T10:31:38.994Z</time></trkpt><trkpt lat="45.5145483" lon="10.43719"><ele>181.0</ele><time>2026-03-29T10:31:39.995Z</time></trkpt><trkpt lat="45.5146417" lon="10.437065"><ele>181.5</ele><time>2026-03-29T10:31:40.994Z</time></trkpt><trkpt lat="45.5147417" lon="10.4369317"><ele>182.0</ele><time>2026-03-29T10:31:41.994Z</time></trkpt><trkpt lat="45.5148017" lon="10.4367783"><ele>182.5</ele><time>2026-03-29T10:31:42.994Z</time></trkpt><trkpt lat="45.51482" lon="10.4366233"><ele>183.0</ele><time>2026-03-29T10:31:43.994Z</time></trkpt><trkpt lat="45.5147817" lon="10.4364667"><ele>183.0</ele><time>2026-03-29T10:31:44.994Z</time></trkpt><trkpt lat="45.5147267" lon="10.4363083"><ele>183.0</ele><time>2026-03-29T10:31:45.994Z</time></trkpt><trkpt lat="45.514665" lon="10.43613"><ele>183.0</ele><time>2026-03-29T10:31:46.994Z</time></trkpt><trkpt lat="45.5146333" lon="10.435925"><ele>183.0</ele><time>2026-03-29T10:31:47.995Z</time></trkpt><trkpt lat="45.5146183" lon="10.4357017"><ele>182.0</ele><time>2026-03-29T10:31:48.994Z</time></trkpt><trkpt lat="45.5146133" lon="10.4354583"><ele>181.0</ele><time>2026-03-29T10:31:49.994Z</time></trkpt><trkpt lat="45.5146067" lon="10.4351967"><ele>180.0</ele><time>2026-03-29T10:31:50.994Z</time></trkpt><trkpt lat="45.5145917" lon="10.4349217"><ele>180.0</ele><time>2026-03-29T10:31:51.994Z</time></trkpt><trkpt lat="45.514575" lon="10.434645"><ele>180.0</ele><time>2026-03-29T10:31:52.994Z</time></trkpt><trkpt lat="45.5145683" lon="10.4343383"><ele>180.0</ele><time>2026-03-29T10:31:53.994Z</time></trkpt><trkpt lat="45.51456" lon="10.43402"><ele>182.0</ele><time>2026-03-29T10:31:54.994Z</time></trkpt><trkpt lat="45.51454" lon="10.4336933"><ele>184.0</ele><time>2026-03-29T10:31:55.994Z</time></trkpt><trkpt lat="45.5145217" lon="10.4333733"><ele>184.0</ele><time>2026-03-29T10:31:56.994Z</time></trkpt><trkpt lat="45.5145067" lon="10.4330533"><ele>184.0</ele><time>2026-03-29T10:31:57.994Z</time></trkpt><trkpt lat="45.5144967" lon="10.4327433"><ele>184.0</ele><time>2026-03-29T10:31:58.994Z</time></trkpt><trkpt lat="45.5144917" lon="10.4324467"><ele>184.0</ele><time>2026-03-29T10:31:59.995Z</time></trkpt><trkpt lat="45.5144883" lon="10.4321633"><ele>184.0</ele><time>2026-03-29T10:32:00.994Z</time></trkpt><trkpt lat="45.5144883" lon="10.43188"><ele>184.0</ele><time>2026-03-29T10:32:01.994Z</time></trkpt><trkpt lat="45.5144883" lon="10.4315983"><ele>183.66666666666669</ele><time>2026-03-29T10:32:02.994Z</time></trkpt><trkpt lat="45.5145033" lon="10.4313167"><ele>183.33333333333334</ele><time>2026-03-29T10:32:03.994Z</time></trkpt><trkpt lat="45.51452" lon="10.4310367"><ele>183.0</ele><time>2026-03-29T10:32:04.994Z</time></trkpt><trkpt lat="45.5145417" lon="10.4307667"><ele>182.66666666666666</ele><time>2026-03-29T10:32:05.994Z</time></trkpt><trkpt lat="45.51457" lon="10.4305017"><ele>182.33333333333331</ele><time>2026-03-29T10:32:06.994Z</time></trkpt><trkpt lat="45.51459" lon="10.4302433"><ele>182.0</ele><time>2026-03-29T10:32:07.994Z</time></trkpt><trkpt lat="45.5146133" lon="10.4300067"><ele>182.5</ele><time>2026-03-29T10:32:08.994Z</time></trkpt><trkpt lat="45.514635" lon="10.42979"><ele>183.0</ele><time>2026-03-29T10:32:09.994Z</time></trkpt><trkpt lat="45.5146533" lon="10.4295833"><ele>183.5</ele><time>2026-03-29T10:32:10.995Z</time></trkpt><trkpt lat="45.5146783" lon="10.4294017"><ele>184.0</ele><time>2026-03-29T10:32:11.994Z</time></trkpt><trkpt lat="45.51469" lon="10.429215"><ele>184.0</ele><time>2026-03-29T10:32:12.994Z</time></trkpt><trkpt lat="45.514705" lon="10.4290167"><ele>184.0</ele><time>2026-03-29T10:32:13.994Z</time></trkpt><trkpt lat="45.5147217" lon="10.4288017"><ele>184.0</ele><time>2026-03-29T10:32:14.994Z</time></trkpt><trkpt lat="45.5147417" lon="10.4285683"><ele>184.0</ele><time>2026-03-29T10:32:15.994Z</time></trkpt><trkpt lat="45.5147583" lon="10.4283233"><ele>184.0</ele><time>2026-03-29T10:32:16.994Z</time></trkpt><trkpt lat="45.5147833" lon="10.4280667"><ele>184.0</ele><time>2026-03-29T10:32:17.995Z</time></trkpt><trkpt lat="45.5148117" lon="10.42779"><ele>184.0</ele><time>2026-03-29T10:32:18.994Z</time></trkpt><trkpt lat="45.5148383" lon="10.4275033"><ele>184.0</ele><time>2026-03-29T10:32:19.994Z</time></trkpt><trkpt lat="45.5148633" lon="10.427225"><ele>184.0</ele><time>2026-03-29T10:32:20.994Z</time></trkpt><trkpt lat="45.51488" lon="10.4269433"><ele>183.66666666666669</ele><time>2026-03-29T10:32:21.994Z</time></trkpt><trkpt lat="45.5149033" lon="10.4266617"><ele>183.33333333333334</ele><time>2026-03-29T10:32:22.994Z</time></trkpt><trkpt lat="45.5149233" lon="10.426385"><ele>183.0</ele><time>2026-03-29T10:32:23.994Z</time></trkpt><trkpt lat="45.5149467" lon="10.4261033"><ele>183.0</ele><time>2026-03-29T10:32:24.994Z</time></trkpt><trkpt lat="45.5149733" lon="10.4258233"><ele>183.0</ele><time>2026-03-29T10:32:25.994Z</time></trkpt><trkpt lat="45.514995" lon="10.425545"><ele>183.0</ele><time>2026-03-29T10:32:26.994Z</time></trkpt><trkpt lat="45.5152667" lon="10.4220633"><ele>183.0</ele><time>2026-03-29T10:32:47.994Z</time></trkpt><trkpt lat="45.5152667" lon="10.4218617"><ele>183.0</ele><time>2026-03-29T10:32:48.994Z</time></trkpt><trkpt lat="45.5152717" lon="10.4216367"><ele>183.0</ele><time>2026-03-29T10:32:49.994Z</time></trkpt><trkpt lat="45.5152817" lon="10.4211417"><ele>183.0</ele><time>2026-03-29T10:32:51.994Z</time></trkpt><trkpt lat="45.515295" lon="10.4208617"><ele>183.0</ele><time>2026-03-29T10:32:52.994Z</time></trkpt><trkpt lat="45.51531" lon="10.4205783"><ele>183.0</ele><time>2026-03-29T10:32:53.995Z</time></trkpt><trkpt lat="45.5153283" lon="10.4202833"><ele>183.0</ele><time>2026-03-29T10:32:54.994Z</time></trkpt><trkpt lat="45.515345" lon="10.419985"><ele>183.0</ele><time>2026-03-29T10:32:55.994Z</time></trkpt><trkpt lat="45.51537" lon="10.4196717"><ele>183.0</ele><time>2026-03-29T10:32:56.994Z</time></trkpt><trkpt lat="45.5153817" lon="10.4193667"><ele>183.0</ele><time>2026-03-29T10:32:57.994Z</time></trkpt><trkpt lat="45.5153867" lon="10.4190633"><ele>183.0</ele><time>2026-03-29T10:32:58.994Z</time></trkpt><trkpt lat="45.515385" lon="10.418775"><ele>183.0</ele><time>2026-03-29T10:32:59.994Z</time></trkpt><trkpt lat="45.5153683" lon="10.418495"><ele>183.0</ele><time>2026-03-29T10:33:00.994Z</time></trkpt><trkpt lat="45.5153333" lon="10.418225"><ele>183.0</ele><time>2026-03-29T10:33:01.994Z</time></trkpt><trkpt lat="45.5152783" lon="10.41797"><ele>183.0</ele><time>2026-03-29T10:33:02.994Z</time></trkpt><trkpt lat="45.5152117" lon="10.4177117"><ele>182.33333333333334</ele><time>2026-03-29T10:33:03.994Z</time></trkpt><trkpt lat="45.515125" lon="10.4174783"><ele>181.66666666666669</ele><time>2026-03-29T10:33:04.994Z</time></trkpt><trkpt lat="45.5150283" lon="10.41725"><ele>181.0</ele><time>2026-03-29T10:33:05.994Z</time></trkpt><trkpt lat="45.51492" lon="10.4170417"><ele>180.0</ele><time>2026-03-29T10:33:06.994Z</time></trkpt><trkpt lat="45.514795" lon="10.4168367"><ele>179.0</ele><time>2026-03-29T10:33:07.994Z</time></trkpt><trkpt lat="45.514655" lon="10.4166367"><ele>178.0</ele><time>2026-03-29T10:33:08.994Z</time></trkpt><trkpt lat="45.5145117" lon="10.4164533"><ele>178.0</ele><time>2026-03-29T10:33:09.994Z</time></trkpt><trkpt lat="45.5143517" lon="10.4163067"><ele>178.0</ele><time>2026-03-29T10:33:10.994Z</time></trkpt><trkpt lat="45.513985" lon="10.41603"><ele>178.0</ele><time>2026-03-29T10:33:12.995Z</time></trkpt><trkpt lat="45.5137867" lon="10.415895"><ele>178.0</ele><time>2026-03-29T10:33:13.994Z</time></trkpt><trkpt lat="45.5135967" lon="10.4157767"><ele>178.0</ele><time>2026-03-29T10:33:14.994Z</time></trkpt><trkpt lat="45.51342" lon="10.4156783"><ele>178.25</ele><time>2026-03-29T10:33:15.994Z</time></trkpt><trkpt lat="45.5132683" lon="10.4155817"><ele>178.5</ele><time>2026-03-29T10:33:16.994Z</time></trkpt><trkpt lat="45.513135" lon="10.4154867"><ele>178.75</ele><time>2026-03-29T10:33:17.994Z</time></trkpt><trkpt lat="45.5130233" lon="10.4154117"><ele>179.0</ele><time>2026-03-29T10:33:18.994Z</time></trkpt><trkpt lat="45.5129417" lon="10.4153467"><ele>179.0</ele><time>2026-03-29T10:33:19.994Z</time></trkpt><trkpt lat="45.512875" lon="10.41523"><ele>179.0</ele><time>2026-03-29T10:33:21.994Z</time></trkpt><trkpt lat="45.5129" lon="10.4151167"><ele>179.0</ele><time>2026-03-29T10:33:23.994Z</time></trkpt><trkpt lat="45.512955" lon="10.4150433"><ele>179.0</ele><time>2026-03-29T10:33:24.995Z</time></trkpt><trkpt lat="45.5130183" lon="10.4149633"><ele>179.0</ele><time>2026-03-29T10:33:25.994Z</time></trkpt><trkpt lat="45.5130867" lon="10.4148883"><ele>179.0</ele><time>2026-03-29T10:33:26.994Z</time></trkpt><trkpt lat="45.5131617" lon="10.414835"><ele>179.0</ele><time>2026-03-29T10:33:27.994Z</time></trkpt><trkpt lat="45.513255" lon="10.41481"><ele>179.0</ele><time>2026-03-29T10:33:28.994Z</time></trkpt><trkpt lat="45.5133583" lon="10.4148"><ele>179.0</ele><time>2026-03-29T10:33:29.994Z</time></trkpt><trkpt lat="45.5134633" lon="10.414785"><ele>179.0</ele><time>2026-03-29T10:33:30.994Z</time></trkpt><trkpt lat="45.5135683" lon="10.4147633"><ele>179.0</ele><time>2026-03-29T10:33:31.994Z</time></trkpt><trkpt lat="45.5137483" lon="10.4146867"><ele>180.16666666666666</ele><time>2026-03-29T10:33:33.995Z</time></trkpt><trkpt lat="45.5138183" lon="10.41464"><ele>181.33333333333331</ele><time>2026-03-29T10:33:34.994Z</time></trkpt><trkpt lat="45.5138817" lon="10.4146117"><ele>182.5</ele><time>2026-03-29T10:33:35.994Z</time></trkpt><trkpt lat="45.5139467" lon="10.4146033"><ele>183.66666666666666</ele><time>2026-03-29T10:33:36.994Z</time></trkpt><trkpt lat="45.5140083" lon="10.414625"><ele>184.83333333333334</ele><time>2026-03-29T10:33:37.994Z</time></trkpt><trkpt lat="45.5140883" lon="10.4146717"><ele>186.0</ele><time>2026-03-29T10:33:38.994Z</time></trkpt><trkpt lat="45.5142217" lon="10.4147667"><ele>186.0</ele><time>2026-03-29T10:33:39.994Z</time></trkpt><trkpt lat="45.5143417" lon="10.4148583"><ele>186.0</ele><time>2026-03-29T10:33:40.994Z</time></trkpt><trkpt lat="45.514455" lon="10.4149383"><ele>186.0</ele><time>2026-03-29T10:33:41.994Z</time></trkpt><trkpt lat="45.51457" lon="10.4150167"><ele>186.0</ele><time>2026-03-29T10:33:42.994Z</time></trkpt><trkpt lat="45.5146817" lon="10.4150983"><ele>186.5</ele><time>2026-03-29T10:33:43.994Z</time></trkpt><trkpt lat="45.5148133" lon="10.4151683"><ele>187.0</ele><time>2026-03-29T10:33:44.994Z</time></trkpt><trkpt lat="45.5149533" lon="10.4152283"><ele>187.5</ele><time>2026-03-29T10:33:45.994Z</time></trkpt><trkpt lat="45.5151033" lon="10.4152617"><ele>188.0</ele><time>2026-03-29T10:33:46.994Z</time></trkpt><trkpt lat="45.5152583" lon="10.41527"><ele>189.66666666666666</ele><time>2026-03-29T10:33:47.994Z</time></trkpt><trkpt lat="45.5154283" lon="10.41528"><ele>191.33333333333331</ele><time>2026-03-29T10:33:48.994Z</time></trkpt><trkpt lat="45.5155867" lon="10.415255"><ele>193.0</ele><time>2026-03-29T10:33:49.994Z</time></trkpt><trkpt lat="45.5157367" lon="10.4152083"><ele>193.0</ele><time>2026-03-29T10:33:50.994Z</time></trkpt><trkpt lat="45.5158883" lon="10.41514"><ele>193.0</ele><time>2026-03-29T10:33:51.994Z</time></trkpt><trkpt lat="45.51603" lon="10.4150767"><ele>193.0</ele><time>2026-03-29T10:33:52.995Z</time></trkpt><trkpt lat="45.516285" lon="10.41496"><ele>193.0</ele><time>2026-03-29T10:33:54.994Z</time></trkpt><trkpt lat="45.516395" lon="10.414915"><ele>193.0</ele><time>2026-03-29T10:33:55.995Z</time></trkpt><trkpt lat="45.516495" lon="10.414875"><ele>193.0</ele><time>2026-03-29T10:33:56.994Z</time></trkpt><trkpt lat="45.5165867" lon="10.414835"><ele>193.0</ele><time>2026-03-29T10:33:57.995Z</time></trkpt><trkpt lat="45.51668" lon="10.414805"><ele>193.0</ele><time>2026-03-29T10:33:58.994Z</time></trkpt><trkpt lat="45.51675" lon="10.4147867"><ele>193.0</ele><time>2026-03-29T10:33:59.994Z</time></trkpt><trkpt lat="45.51686" lon="10.4147333"><ele>193.0</ele><time>2026-03-29T10:34:01.994Z</time></trkpt><trkpt lat="45.51697" lon="10.4146883"><ele>193.0</ele><time>2026-03-29T10:34:03.994Z</time></trkpt><trkpt lat="45.5170333" lon="10.4146717"><ele>193.0</ele><time>2026-03-29T10:34:04.994Z</time></trkpt><trkpt lat="45.5171333" lon="10.414665"><ele>193.0</ele><time>2026-03-29T10:34:06.994Z</time></trkpt><trkpt lat="45.5172" lon="10.4146417"><ele>193.8</ele><time>2026-03-29T10:34:08.994Z</time></trkpt><trkpt lat="45.5172517" lon="10.4145717"><ele>194.60000000000002</ele><time>2026-03-29T10:34:10.994Z</time></trkpt><trkpt lat="45.5172667" lon="10.4144117"><ele>195.39999999999998</ele><time>2026-03-29T10:34:12.994Z</time></trkpt><trkpt lat="45.5172583" lon="10.41429"><ele>196.2</ele><time>2026-03-29T10:34:13.994Z</time></trkpt><trkpt lat="45.5172383" lon="10.41404"><ele>197.0</ele><time>2026-03-29T10:34:15.994Z</time></trkpt><trkpt lat="45.5172217" lon="10.4139183"><ele>197.00000000000003</ele><time>2026-03-29T10:34:16.994Z</time></trkpt><trkpt lat="45.5172183" lon="10.41381"><ele>197.0</ele><time>2026-03-29T10:34:17.994Z</time></trkpt><trkpt lat="45.5172267" lon="10.41369"><ele>197.0</ele><time>2026-03-29T10:34:19.994Z</time></trkpt><trkpt lat="45.5173033" lon="10.41364"><ele>197.0</ele><time>2026-03-29T10:34:23.995Z</time></trkpt><trkpt lat="45.5173767" lon="10.413655"><ele>197.00000000000003</ele><time>2026-03-29T10:34:25.995Z</time></trkpt><trkpt lat="45.51744" lon="10.4136783"><ele>197.0</ele><time>2026-03-29T10:34:27.994Z</time></trkpt><trkpt lat="45.517515" lon="10.4136983"><ele>197.0</ele><time>2026-03-29T10:34:30.994Z</time></trkpt><trkpt lat="45.5175467" lon="10.41378"><ele>197.0</ele><time>2026-03-29T10:34:35.994Z</time></trkpt></trkseg><trkseg><trkpt lat="45.51763" lon="10.4140233"><ele>197.00000000000003</ele><time>2026-03-29T11:28:23.995Z</time></trkpt><trkpt lat="45.517695" lon="10.4140183"><ele>197.0</ele><time>2026-03-29T11:28:25.995Z</time></trkpt><trkpt lat="45.5177317" lon="10.41391"><ele>197.0</ele><time>2026-03-29T11:29:00.995Z</time></trkpt><trkpt lat="45.5176817" lon="10.4138517"><ele>197.0</ele><time>2026-03-29T11:29:03.995Z</time></trkpt><trkpt lat="45.5176267" lon="10.4138017"><ele>197.00000000000003</ele><time>2026-03-29T11:29:05.995Z</time></trkpt><trkpt lat="45.51756" lon="10.4137083"><ele>197.0</ele><time>2026-03-29T11:29:08.995Z</time></trkpt><trkpt lat="45.5174733" lon="10.4136767"><ele>197.0</ele><time>2026-03-29T11:29:10.995Z</time></trkpt><trkpt lat="45.51737" lon="10.4136567"><ele>197.0</ele><time>2026-03-29T11:29:12.995Z</time></trkpt><trkpt lat="45.51729" lon="10.4136833"><ele>197.0</ele><time>2026-03-29T11:29:14.995Z</time></trkpt><trkpt lat="45.5172483" lon="10.4137783"><ele>197.0</ele><time>2026-03-29T11:29:16.996Z</time></trkpt><trkpt lat="45.5172483" lon="10.4139983"><ele>197.0</ele><time>2026-03-29T11:29:18.996Z</time></trkpt><trkpt lat="45.5172633" lon="10.4141483"><ele>197.0</ele><time>2026-03-29T11:29:19.995Z</time></trkpt><trkpt lat="45.5172817" lon="10.4143067"><ele>197.0</ele><time>2026-03-29T11:29:20.995Z</time></trkpt><trkpt lat="45.5172867" lon="10.4144533"><ele>197.0</ele><time>2026-03-29T11:29:21.995Z</time></trkpt><trkpt lat="45.51728" lon="10.4145683"><ele>197.0</ele><time>2026-03-29T11:29:22.995Z</time></trkpt><trkpt lat="45.5172567" lon="10.4146733"><ele>197.0</ele><time>2026-03-29T11:29:24.995Z</time></trkpt><trkpt lat="45.5171567" lon="10.4147117"><ele>196.0</ele><time>2026-03-29T11:29:26.996Z</time></trkpt><trkpt lat="45.5170633" lon="10.4147233"><ele>195.0</ele><time>2026-03-29T11:29:27.995Z</time></trkpt><trkpt lat="45.5169367" lon="10.414745"><ele>194.0</ele><time>2026-03-29T11:29:28.995Z</time></trkpt><trkpt lat="45.5168033" lon="10.4147867"><ele>193.0</ele><time>2026-03-29T11:29:29.995Z</time></trkpt><trkpt lat="45.5166567" lon="10.4148383"><ele>193.0</ele><time>2026-03-29T11:29:30.995Z</time></trkpt><trkpt lat="45.516525" lon="10.4148917"><ele>193.0</ele><time>2026-03-29T11:29:31.995Z</time></trkpt><trkpt lat="45.5163683" lon="10.4149483"><ele>193.0</ele><time>2026-03-29T11:29:32.995Z</time></trkpt><trkpt lat="45.5162117" lon="10.4150183"><ele>193.0</ele><time>2026-03-29T11:29:33.995Z</time></trkpt><trkpt lat="45.51605" lon="10.4150717"><ele>193.0</ele><time>2026-03-29T11:29:34.995Z</time></trkpt><trkpt lat="45.5159033" lon="10.415135"><ele>193.0</ele><time>2026-03-29T11:29:35.995Z</time></trkpt><trkpt lat="45.5157633" lon="10.4151833"><ele>193.0</ele><time>2026-03-29T11:29:36.995Z</time></trkpt><trkpt lat="45.5156183" lon="10.4152267"><ele>193.0</ele><time>2026-03-29T11:29:37.995Z</time></trkpt><trkpt lat="45.5154717" lon="10.41526"><ele>193.0</ele><time>2026-03-29T11:29:38.995Z</time></trkpt><trkpt lat="45.51533" lon="10.41529"><ele>193.0</ele><time>2026-03-29T11:29:39.995Z</time></trkpt><trkpt lat="45.5151917" lon="10.4152833"><ele>191.75</ele><time>2026-03-29T11:29:40.996Z</time></trkpt><trkpt lat="45.51504" lon="10.4152733"><ele>190.5</ele><time>2026-03-29T11:29:41.995Z</time></trkpt><trkpt lat="45.51489" lon="10.41523"><ele>189.25</ele><time>2026-03-29T11:29:42.995Z</time></trkpt><trkpt lat="45.5147633" lon="10.415185"><ele>188.0</ele><time>2026-03-29T11:29:43.995Z</time></trkpt><trkpt lat="45.5146517" lon="10.4151367"><ele>187.60000000000002</ele><time>2026-03-29T11:29:44.995Z</time></trkpt><trkpt lat="45.5145517" lon="10.41508"><ele>187.20000000000002</ele><time>2026-03-29T11:29:45.995Z</time></trkpt><trkpt lat="45.514465" lon="10.4150167"><ele>186.8</ele><time>2026-03-29T11:29:46.995Z</time></trkpt><trkpt lat="45.514375" lon="10.4149617"><ele>186.4</ele><time>2026-03-29T11:29:47.995Z</time></trkpt><trkpt lat="45.5142833" lon="10.4149"><ele>186.0</ele><time>2026-03-29T11:29:48.995Z</time></trkpt><trkpt lat="45.5141833" lon="10.414835"><ele>186.0</ele><time>2026-03-29T11:29:49.995Z</time></trkpt><trkpt lat="45.5140833" lon="10.41478"><ele>186.0</ele><time>2026-03-29T11:29:50.996Z</time></trkpt><trkpt lat="45.5139883" lon="10.4147383"><ele>186.0</ele><time>2026-03-29T11:29:51.996Z</time></trkpt><trkpt lat="45.513925" lon="10.4146933"><ele>186.0</ele><time>2026-03-29T11:29:52.995Z</time></trkpt><trkpt lat="45.5138417" lon="10.4146217"><ele>186.0</ele><time>2026-03-29T11:29:54.995Z</time></trkpt><trkpt lat="45.5137767" lon="10.4146367"><ele>186.0</ele><time>2026-03-29T11:29:57.995Z</time></trkpt><trkpt lat="45.5136483" lon="10.4146833"><ele>184.25</ele><time>2026-03-29T11:29:59.995Z</time></trkpt><trkpt lat="45.513545" lon="10.4147067"><ele>182.5</ele><time>2026-03-29T11:30:00.995Z</time></trkpt><trkpt lat="45.5134233" lon="10.4147417"><ele>180.75</ele><time>2026-03-29T11:30:01.995Z</time></trkpt><trkpt lat="45.5132933" lon="10.414765"><ele>179.0</ele><time>2026-03-29T11:30:02.995Z</time></trkpt><trkpt lat="45.5131833" lon="10.4148317"><ele>179.0</ele><time>2026-03-29T11:30:03.995Z</time></trkpt><trkpt lat="45.513095" lon="10.41492"><ele>179.0</ele><time>2026-03-29T11:30:04.995Z</time></trkpt><trkpt lat="45.5130583" lon="10.4150317"><ele>179.0</ele><time>2026-03-29T11:30:05.996Z</time></trkpt><trkpt lat="45.5130117" lon="10.4151267"><ele>179.0</ele><time>2026-03-29T11:30:06.996Z</time></trkpt><trkpt lat="45.5129733" lon="10.4152067"><ele>179.0</ele><time>2026-03-29T11:30:07.996Z</time></trkpt><trkpt lat="45.5129333" lon="10.4153133"><ele>179.0</ele><time>2026-03-29T11:30:09.995Z</time></trkpt><trkpt lat="45.5129683" lon="10.4154017"><ele>179.0</ele><time>2026-03-29T11:30:11.995Z</time></trkpt><trkpt lat="45.5130167" lon="10.4154667"><ele>179.0</ele><time>2026-03-29T11:30:12.995Z</time></trkpt><trkpt lat="45.5130917" lon="10.4155267"><ele>179.0</ele><time>2026-03-29T11:30:13.996Z</time></trkpt><trkpt lat="45.5131817" lon="10.4155883"><ele>179.0</ele><time>2026-03-29T11:30:14.995Z</time></trkpt><trkpt lat="45.5132867" lon="10.415655"><ele>179.0</ele><time>2026-03-29T11:30:15.995Z</time></trkpt><trkpt lat="45.5133967" lon="10.41573"><ele>178.75</ele><time>2026-03-29T11:30:16.995Z</time></trkpt><trkpt lat="45.5135117" lon="10.415805"><ele>178.5</ele><time>2026-03-29T11:30:17.995Z</time></trkpt><trkpt lat="45.5136467" lon="10.4158867"><ele>178.25</ele><time>2026-03-29T11:30:18.995Z</time></trkpt><trkpt lat="45.5137717" lon="10.415965"><ele>178.0</ele><time>2026-03-29T11:30:19.995Z</time></trkpt><trkpt lat="45.51391" lon="10.41605"><ele>178.0</ele><time>2026-03-29T11:30:20.995Z</time></trkpt><trkpt lat="45.5140567" lon="10.4161383"><ele>178.0</ele><time>2026-03-29T11:30:21.996Z</time></trkpt><trkpt lat="45.5142117" lon="10.41624"><ele>178.0</ele><time>2026-03-29T11:30:22.995Z</time></trkpt><trkpt lat="45.514355" lon="10.4163617"><ele>178.0</ele><time>2026-03-29T11:30:23.995Z</time></trkpt><trkpt lat="45.514505" lon="10.4165"><ele>178.0</ele><time>2026-03-29T11:30:24.995Z</time></trkpt><trkpt lat="45.5146533" lon="10.4166517"><ele>178.0</ele><time>2026-03-29T11:30:25.996Z</time></trkpt><trkpt lat="45.5147833" lon="10.416835"><ele>178.0</ele><time>2026-03-29T11:30:26.996Z</time></trkpt><trkpt lat="45.5149067" lon="10.4170333"><ele>178.0</ele><time>2026-03-29T11:30:27.995Z</time></trkpt><trkpt lat="45.5150167" lon="10.4172383"><ele>178.0</ele><time>2026-03-29T11:30:28.995Z</time></trkpt><trkpt lat="45.515115" lon="10.4174533"><ele>179.0</ele><time>2026-03-29T11:30:29.995Z</time></trkpt><trkpt lat="45.51519" lon="10.417675"><ele>180.0</ele><time>2026-03-29T11:30:30.995Z</time></trkpt><trkpt lat="45.5152667" lon="10.4179183"><ele>181.0</ele><time>2026-03-29T11:30:31.995Z</time></trkpt><trkpt lat="45.5153317" lon="10.4181817"><ele>180.66666666666669</ele><time>2026-03-29T11:30:32.995Z</time></trkpt><trkpt lat="45.5153883" lon="10.4184533"><ele>180.33333333333334</ele><time>2026-03-29T11:30:33.995Z</time></trkpt><trkpt lat="45.5154017" lon="10.4187317"><ele>180.0</ele><time>2026-03-29T11:30:34.995Z</time></trkpt><trkpt lat="45.515405" lon="10.4190183"><ele>181.0</ele><time>2026-03-29T11:30:35.995Z</time></trkpt><trkpt lat="45.51539" lon="10.419305"><ele>182.0</ele><time>2026-03-29T11:30:36.995Z</time></trkpt><trkpt lat="45.515375" lon="10.4195983"><ele>183.0</ele><time>2026-03-29T11:30:37.995Z</time></trkpt><trkpt lat="45.5153417" lon="10.4198817"><ele>183.0</ele><time>2026-03-29T11:30:38.996Z</time></trkpt><trkpt lat="45.5153367" lon="10.42017"><ele>183.0</ele><time>2026-03-29T11:30:39.995Z</time></trkpt><trkpt lat="45.515325" lon="10.4204583"><ele>183.0</ele><time>2026-03-29T11:30:40.995Z</time></trkpt><trkpt lat="45.515315" lon="10.4207517"><ele>183.0</ele><time>2026-03-29T11:30:41.995Z</time></trkpt><trkpt lat="45.5153017" lon="10.4210367"><ele>183.0</ele><time>2026-03-29T11:30:42.995Z</time></trkpt><trkpt lat="45.5152967" lon="10.4213217"><ele>183.0</ele><time>2026-03-29T11:30:43.996Z</time></trkpt><trkpt lat="45.5152833" lon="10.4215717"><ele>183.0</ele><time>2026-03-29T11:30:44.995Z</time></trkpt><trkpt lat="45.5152783" lon="10.4218033"><ele>183.0</ele><time>2026-03-29T11:30:45.995Z</time></trkpt><trkpt lat="45.515265" lon="10.4220067"><ele>183.0</ele><time>2026-03-29T11:30:46.996Z</time></trkpt><trkpt lat="45.51525" lon="10.4221967"><ele>183.0</ele><time>2026-03-29T11:30:47.995Z</time></trkpt><trkpt lat="45.5152167" lon="10.422375"><ele>183.0</ele><time>2026-03-29T11:30:48.996Z</time></trkpt><trkpt lat="45.5151567" lon="10.4225433"><ele>183.0</ele><time>2026-03-29T11:30:49.995Z</time></trkpt><trkpt lat="45.5150917" lon="10.4227117"><ele>183.0</ele><time>2026-03-29T11:30:50.995Z</time></trkpt><trkpt lat="45.5150633" lon="10.4228917"><ele>183.0</ele><time>2026-03-29T11:30:51.995Z</time></trkpt><trkpt lat="45.5150733" lon="10.4230767"><ele>182.5</ele><time>2026-03-29T11:30:52.995Z</time></trkpt><trkpt lat="45.5151183" lon="10.4232633"><ele>182.0</ele><time>2026-03-29T11:30:53.995Z</time></trkpt><trkpt lat="45.515155" lon="10.4234683"><ele>181.5</ele><time>2026-03-29T11:30:54.995Z</time></trkpt><trkpt lat="45.5151683" lon="10.4236783"><ele>181.0</ele><time>2026-03-29T11:30:55.995Z</time></trkpt><trkpt lat="45.515145" lon="10.423915"><ele>181.0</ele><time>2026-03-29T11:30:56.995Z</time></trkpt><trkpt lat="45.5151267" lon="10.42416"><ele>181.0</ele><time>2026-03-29T11:30:57.995Z</time></trkpt><trkpt lat="45.515105" lon="10.4244133"><ele>181.0</ele><time>2026-03-29T11:30:58.995Z</time></trkpt><trkpt lat="45.5150817" lon="10.424675"><ele>181.0</ele><time>2026-03-29T11:30:59.995Z</time></trkpt><trkpt lat="45.51505" lon="10.4249317"><ele>181.0</ele><time>2026-03-29T11:31:00.995Z</time></trkpt><trkpt lat="45.515025" lon="10.4251983"><ele>181.0</ele><time>2026-03-29T11:31:01.995Z</time></trkpt><trkpt lat="45.514995" lon="10.4254667"><ele>181.33333333333334</ele><time>2026-03-29T11:31:02.995Z</time></trkpt><trkpt lat="45.5149617" lon="10.4257417"><ele>181.66666666666666</ele><time>2026-03-29T11:31:03.995Z</time></trkpt><trkpt lat="45.5149383" lon="10.4260283"><ele>182.0</ele><time>2026-03-29T11:31:04.995Z</time></trkpt><trkpt lat="45.5149083" lon="10.4263133"><ele>182.0</ele><time>2026-03-29T11:31:05.996Z</time></trkpt><trkpt lat="45.5148883" lon="10.4265967"><ele>182.0</ele><time>2026-03-29T11:31:06.995Z</time></trkpt><trkpt lat="45.5148617" lon="10.4268833"><ele>182.0</ele><time>2026-03-29T11:31:07.995Z</time></trkpt><trkpt lat="45.5148433" lon="10.4271783"><ele>182.66666666666666</ele><time>2026-03-29T11:31:08.995Z</time></trkpt><trkpt lat="45.51482" lon="10.4274783"><ele>183.33333333333334</ele><time>2026-03-29T11:31:09.995Z</time></trkpt><trkpt lat="45.5147983" lon="10.4277717"><ele>184.0</ele><time>2026-03-29T11:31:10.995Z</time></trkpt><trkpt lat="45.5147817" lon="10.4280567"><ele>184.0</ele><time>2026-03-29T11:31:11.996Z</time></trkpt><trkpt lat="45.5147583" lon="10.42835"><ele>184.0</ele><time>2026-03-29T11:31:12.995Z</time></trkpt><trkpt lat="45.514725" lon="10.4286467"><ele>184.0</ele><time>2026-03-29T11:31:13.995Z</time></trkpt><trkpt lat="45.5146967" lon="10.4289383"><ele>184.0</ele><time>2026-03-29T11:31:14.995Z</time></trkpt><trkpt lat="45.51467" lon="10.4292283"><ele>184.0</ele><time>2026-03-29T11:31:15.995Z</time></trkpt><trkpt lat="45.5146533" lon="10.42953"><ele>184.0</ele><time>2026-03-29T11:31:16.995Z</time></trkpt><trkpt lat="45.5146317" lon="10.42984"><ele>184.0</ele><time>2026-03-29T11:31:17.995Z</time></trkpt><trkpt lat="45.5146067" lon="10.430145"><ele>184.0</ele><time>2026-03-29T11:31:18.995Z</time></trkpt><trkpt lat="45.51458" lon="10.4304567"><ele>184.0</ele><time>2026-03-29T11:31:19.995Z</time></trkpt><trkpt lat="45.514555" lon="10.4307733"><ele>183.66666666666669</ele><time>2026-03-29T11:31:20.995Z</time></trkpt><trkpt lat="45.51453" lon="10.4310867"><ele>183.33333333333334</ele><time>2026-03-29T11:31:21.995Z</time></trkpt><trkpt lat="45.514515" lon="10.4313917"><ele>183.0</ele><time>2026-03-29T11:31:22.995Z</time></trkpt><trkpt lat="45.514505" lon="10.431705"><ele>183.0</ele><time>2026-03-29T11:31:23.995Z</time></trkpt><trkpt lat="45.5144983" lon="10.4320233"><ele>183.0</ele><time>2026-03-29T11:31:24.995Z</time></trkpt><trkpt lat="45.5145017" lon="10.4323383"><ele>183.0</ele><time>2026-03-29T11:31:25.995Z</time></trkpt><trkpt lat="45.514505" lon="10.4326417"><ele>183.33333333333334</ele><time>2026-03-29T11:31:26.995Z</time></trkpt><trkpt lat="45.514515" lon="10.43296"><ele>183.66666666666669</ele><time>2026-03-29T11:31:27.995Z</time></trkpt><trkpt lat="45.5145283" lon="10.4332817"><ele>184.0</ele><time>2026-03-29T11:31:28.995Z</time></trkpt><trkpt lat="45.5145417" lon="10.4335983"><ele>182.5</ele><time>2026-03-29T11:31:29.995Z</time></trkpt><trkpt lat="45.51456" lon="10.4339183"><ele>181.0</ele><time>2026-03-29T11:31:30.995Z</time></trkpt><trkpt lat="45.51458" lon="10.4342417"><ele>181.0</ele><time>2026-03-29T11:31:31.995Z</time></trkpt><trkpt lat="45.5145933" lon="10.434575"><ele>181.0</ele><time>2026-03-29T11:31:32.995Z</time></trkpt><trkpt lat="45.5146017" lon="10.4348983"><ele>180.66666666666669</ele><time>2026-03-29T11:31:33.995Z</time></trkpt><trkpt lat="45.5146133" lon="10.4352067"><ele>180.33333333333334</ele><time>2026-03-29T11:31:34.995Z</time></trkpt><trkpt lat="45.514635" lon="10.4354883"><ele>180.0</ele><time>2026-03-29T11:31:35.995Z</time></trkpt><trkpt lat="45.5146383" lon="10.4357617"><ele>180.5</ele><time>2026-03-29T11:31:36.995Z</time></trkpt><trkpt lat="45.5146333" lon="10.4359817"><ele>181.0</ele><time>2026-03-29T11:31:37.995Z</time></trkpt><trkpt lat="45.5146117" lon="10.436165"><ele>181.5</ele><time>2026-03-29T11:31:38.995Z</time></trkpt><trkpt lat="45.5145767" lon="10.4363367"><ele>182.0</ele><time>2026-03-29T11:31:39.995Z</time></trkpt><trkpt lat="45.5145233" lon="10.4364967"><ele>182.0</ele><time>2026-03-29T11:31:40.995Z</time></trkpt><trkpt lat="45.5144783" lon="10.4366633"><ele>182.0</ele><time>2026-03-29T11:31:41.995Z</time></trkpt><trkpt lat="45.5144567" lon="10.4368417"><ele>182.0</ele><time>2026-03-29T11:31:42.995Z</time></trkpt><trkpt lat="45.51446" lon="10.4370333"><ele>182.0</ele><time>2026-03-29T11:31:43.995Z</time></trkpt><trkpt lat="45.5144567" lon="10.437225"><ele>181.66666666666666</ele><time>2026-03-29T11:31:44.995Z</time></trkpt><trkpt lat="45.5144367" lon="10.4374333"><ele>181.33333333333334</ele><time>2026-03-29T11:31:45.995Z</time></trkpt><trkpt lat="45.5143983" lon="10.4376483"><ele>181.0</ele><time>2026-03-29T11:31:46.995Z</time></trkpt><trkpt lat="45.5143417" lon="10.437875"><ele>180.66666666666669</ele><time>2026-03-29T11:31:47.995Z</time></trkpt><trkpt lat="45.514275" lon="10.4381067"><ele>180.33333333333334</ele><time>2026-03-29T11:31:48.995Z</time></trkpt><trkpt lat="45.514215" lon="10.43834"><ele>180.0</ele><time>2026-03-29T11:31:49.995Z</time></trkpt><trkpt lat="45.51415" lon="10.4385783"><ele>180.0</ele><time>2026-03-29T11:31:50.995Z</time></trkpt><trkpt lat="45.5140783" lon="10.4388217"><ele>180.0</ele><time>2026-03-29T11:31:51.995Z</time></trkpt><trkpt lat="45.5139983" lon="10.43907"><ele>180.0</ele><time>2026-03-29T11:31:52.995Z</time></trkpt><trkpt lat="45.5139083" lon="10.43932"><ele>180.0</ele><time>2026-03-29T11:31:53.995Z</time></trkpt><trkpt lat="45.5138233" lon="10.4395683"><ele>180.0</ele><time>2026-03-29T11:31:54.995Z</time></trkpt><trkpt lat="45.5137317" lon="10.4398217"><ele>180.0</ele><time>2026-03-29T11:31:55.995Z</time></trkpt><trkpt lat="45.5136367" lon="10.4400733"><ele>179.66666666666666</ele><time>2026-03-29T11:31:56.995Z</time></trkpt><trkpt lat="45.5135267" lon="10.4403183"><ele>179.33333333333331</ele><time>2026-03-29T11:31:57.995Z</time></trkpt><trkpt lat="45.5134067" lon="10.44056"><ele>179.0</ele><time>2026-03-29T11:31:58.995Z</time></trkpt><trkpt lat="45.51328" lon="10.4408033"><ele>179.0</ele><time>2026-03-29T11:31:59.995Z</time></trkpt><trkpt lat="45.5131533" lon="10.44104"><ele>179.0</ele><time>2026-03-29T11:32:00.995Z</time></trkpt><trkpt lat="45.5130183" lon="10.4412683"><ele>179.0</ele><time>2026-03-29T11:32:01.995Z</time></trkpt><trkpt lat="45.5128767" lon="10.4414883"><ele>178.66666666666666</ele><time>2026-03-29T11:32:02.995Z</time></trkpt><trkpt lat="45.5127233" lon="10.4417067"><ele>178.33333333333334</ele><time>2026-03-29T11:32:03.995Z</time></trkpt><trkpt lat="45.51257" lon="10.44192"><ele>178.0</ele><time>2026-03-29T11:32:04.995Z</time></trkpt><trkpt lat="45.512425" lon="10.4421233"><ele>178.33333333333334</ele><time>2026-03-29T11:32:05.995Z</time></trkpt><trkpt lat="45.5122967" lon="10.442305"><ele>178.66666666666666</ele><time>2026-03-29T11:32:06.995Z</time></trkpt><trkpt lat="45.5121717" lon="10.4424733"><ele>179.0</ele><time>2026-03-29T11:32:07.995Z</time></trkpt><trkpt lat="45.5120533" lon="10.4426083"><ele>178.6</ele><time>2026-03-29T11:32:08.995Z</time></trkpt><trkpt lat="45.5119433" lon="10.4426933"><ele>178.2</ele><time>2026-03-29T11:32:09.996Z</time></trkpt><trkpt lat="45.5118383" lon="10.4427467"><ele>177.79999999999998</ele><time>2026-03-29T11:32:10.995Z</time></trkpt><trkpt lat="45.5117417" lon="10.4427867"><ele>177.39999999999998</ele><time>2026-03-29T11:32:11.995Z</time></trkpt><trkpt lat="45.5116433" lon="10.442845"><ele>177.0</ele><time>2026-03-29T11:32:12.995Z</time></trkpt><trkpt lat="45.5115517" lon="10.4429567"><ele>177.0</ele><time>2026-03-29T11:32:13.995Z</time></trkpt><trkpt lat="45.5114733" lon="10.4430967"><ele>177.0</ele><time>2026-03-29T11:32:14.995Z</time></trkpt><trkpt lat="45.5114117" lon="10.4432683"><ele>177.0</ele><time>2026-03-29T11:32:15.996Z</time></trkpt><trkpt lat="45.511355" lon="10.4434617"><ele>177.0</ele><time>2026-03-29T11:32:16.996Z</time></trkpt><trkpt lat="45.5112783" lon="10.443645"><ele>177.0</ele><time>2026-03-29T11:32:17.996Z</time></trkpt><trkpt lat="45.5111783" lon="10.443815"><ele>177.0</ele><time>2026-03-29T11:32:18.995Z</time></trkpt><trkpt lat="45.5110667" lon="10.4439833"><ele>177.0</ele><time>2026-03-29T11:32:19.995Z</time></trkpt><trkpt lat="45.51095" lon="10.4441633"><ele>177.0</ele><time>2026-03-29T11:32:20.995Z</time></trkpt><trkpt lat="45.5108333" lon="10.4443517"><ele>177.0</ele><time>2026-03-29T11:32:21.995Z</time></trkpt><trkpt lat="45.510715" lon="10.44456"><ele>177.0</ele><time>2026-03-29T11:32:22.995Z</time></trkpt><trkpt lat="45.510605" lon="10.44477"><ele>177.33333333333334</ele><time>2026-03-29T11:32:23.996Z</time></trkpt><trkpt lat="45.5104933" lon="10.444985"><ele>177.66666666666669</ele><time>2026-03-29T11:32:24.996Z</time></trkpt><trkpt lat="45.5103733" lon="10.4452133"><ele>178.0</ele><time>2026-03-29T11:32:25.995Z</time></trkpt><trkpt lat="45.5102467" lon="10.44545"><ele>178.0</ele><time>2026-03-29T11:32:26.995Z</time></trkpt><trkpt lat="45.5101333" lon="10.4456967"><ele>178.0</ele><time>2026-03-29T11:32:27.995Z</time></trkpt><trkpt lat="45.5100167" lon="10.445955"><ele>178.0</ele><time>2026-03-29T11:32:28.996Z</time></trkpt><trkpt lat="45.5099033" lon="10.4462217"><ele>178.0</ele><time>2026-03-29T11:32:29.995Z</time></trkpt><trkpt lat="45.5097817" lon="10.4464967"><ele>178.0</ele><time>2026-03-29T11:32:30.995Z</time></trkpt><trkpt lat="45.50967" lon="10.4467583"><ele>178.0</ele><time>2026-03-29T11:32:31.995Z</time></trkpt><trkpt lat="45.5095633" lon="10.447025"><ele>177.33333333333334</ele><time>2026-03-29T11:32:32.995Z</time></trkpt><trkpt lat="45.5094467" lon="10.447295"><ele>176.66666666666666</ele><time>2026-03-29T11:32:33.995Z</time></trkpt><trkpt lat="45.5093267" lon="10.4475567"><ele>176.0</ele><time>2026-03-29T11:32:34.995Z</time></trkpt><trkpt lat="45.5092033" lon="10.4478233"><ele>176.33333333333331</ele><time>2026-03-29T11:32:35.995Z</time></trkpt><trkpt lat="45.50909" lon="10.4480883"><ele>176.66666666666666</ele><time>2026-03-29T11:32:36.995Z</time></trkpt><trkpt lat="45.5089617" lon="10.44836"><ele>177.0</ele><time>2026-03-29T11:32:37.995Z</time></trkpt><trkpt lat="45.5088283" lon="10.4486333"><ele>177.0</ele><time>2026-03-29T11:32:38.995Z</time></trkpt><trkpt lat="45.5087183" lon="10.44891"><ele>177.0</ele><time>2026-03-29T11:32:39.995Z</time></trkpt><trkpt lat="45.5086117" lon="10.4491767"><ele>177.0</ele><time>2026-03-29T11:32:40.995Z</time></trkpt><trkpt lat="45.50849" lon="10.4494567"><ele>176.66666666666666</ele><time>2026-03-29T11:32:41.995Z</time></trkpt><trkpt lat="45.5083733" lon="10.449725"><ele>176.33333333333331</ele><time>2026-03-29T11:32:42.995Z</time></trkpt><trkpt lat="45.50826" lon="10.4499967"><ele>176.0</ele><time>2026-03-29T11:32:43.995Z</time></trkpt><trkpt lat="45.508135" lon="10.4502633"><ele>176.0</ele><time>2026-03-29T11:32:44.996Z</time></trkpt><trkpt lat="45.5080117" lon="10.45054"><ele>176.0</ele><time>2026-03-29T11:32:45.995Z</time></trkpt><trkpt lat="45.507895" lon="10.45082"><ele>175.5</ele><time>2026-03-29T11:32:46.995Z</time></trkpt><trkpt lat="45.5077767" lon="10.4511"><ele>175.0</ele><time>2026-03-29T11:32:47.995Z</time></trkpt><trkpt lat="45.5076517" lon="10.451385"><ele>176.0</ele><time>2026-03-29T11:32:48.995Z</time></trkpt><trkpt lat="45.50752" lon="10.4516533"><ele>177.0</ele><time>2026-03-29T11:32:49.995Z</time></trkpt><trkpt lat="45.5073867" lon="10.4519233"><ele>177.0</ele><time>2026-03-29T11:32:50.995Z</time></trkpt><trkpt lat="45.5072317" lon="10.4521867"><ele>177.0</ele><time>2026-03-29T11:32:51.995Z</time></trkpt><trkpt lat="45.5070767" lon="10.45242"><ele>177.0</ele><time>2026-03-29T11:32:52.995Z</time></trkpt><trkpt lat="45.5069217" lon="10.4526417"><ele>177.0</ele><time>2026-03-29T11:32:53.996Z</time></trkpt><trkpt lat="45.5067567" lon="10.4528433"><ele>177.0</ele><time>2026-03-29T11:32:54.995Z</time></trkpt><trkpt lat="45.5065867" lon="10.4530267"><ele>176.66666666666666</ele><time>2026-03-29T11:32:55.995Z</time></trkpt><trkpt lat="45.5064217" lon="10.4531817"><ele>176.33333333333331</ele><time>2026-03-29T11:32:56.995Z</time></trkpt><trkpt lat="45.5062667" lon="10.4533083"><ele>176.0</ele><time>2026-03-29T11:32:57.995Z</time></trkpt><trkpt lat="45.5061317" lon="10.453385"><ele>176.0</ele><time>2026-03-29T11:32:58.995Z</time></trkpt><trkpt lat="45.506" lon="10.4534067"><ele>176.0</ele><time>2026-03-29T11:32:59.995Z</time></trkpt><trkpt lat="45.5058783" lon="10.4534117"><ele>176.0</ele><time>2026-03-29T11:33:00.995Z</time></trkpt><trkpt lat="45.50578" lon="10.45341"><ele>176.0</ele><time>2026-03-29T11:33:01.995Z</time></trkpt><trkpt lat="45.5056917" lon="10.4534533"><ele>176.0</ele><time>2026-03-29T11:33:02.995Z</time></trkpt><trkpt lat="45.5056233" lon="10.45355"><ele>176.0</ele><time>2026-03-29T11:33:03.995Z</time></trkpt><trkpt lat="45.5055917" lon="10.4536833"><ele>176.0</ele><time>2026-03-29T11:33:04.995Z</time></trkpt><trkpt lat="45.5056017" lon="10.453835"><ele>176.0</ele><time>2026-03-29T11:33:05.996Z</time></trkpt><trkpt lat="45.505625" lon="10.4539967"><ele>176.0</ele><time>2026-03-29T11:33:06.995Z</time></trkpt><trkpt lat="45.5056467" lon="10.4541817"><ele>176.25</ele><time>2026-03-29T11:33:07.995Z</time></trkpt><trkpt lat="45.5056483" lon="10.454375"><ele>176.5</ele><time>2026-03-29T11:33:08.995Z</time></trkpt><trkpt lat="45.505645" lon="10.4545917"><ele>176.75</ele><time>2026-03-29T11:33:09.995Z</time></trkpt><trkpt lat="45.5056467" lon="10.4548133"><ele>177.0</ele><time>2026-03-29T11:33:10.995Z</time></trkpt><trkpt lat="45.5056533" lon="10.455055"><ele>177.33333333333334</ele><time>2026-03-29T11:33:11.995Z</time></trkpt><trkpt lat="45.5056533" lon="10.45529"><ele>177.66666666666669</ele><time>2026-03-29T11:33:12.995Z</time></trkpt><trkpt lat="45.5056717" lon="10.4555433"><ele>178.0</ele><time>2026-03-29T11:33:13.995Z</time></trkpt><trkpt lat="45.5056867" lon="10.4558"><ele>178.0</ele><time>2026-03-29T11:33:14.995Z</time></trkpt><trkpt lat="45.505695" lon="10.456055"><ele>178.0</ele><time>2026-03-29T11:33:15.995Z</time></trkpt><trkpt lat="45.5057117" lon="10.4563283"><ele>178.0</ele><time>2026-03-29T11:33:16.996Z</time></trkpt><trkpt lat="45.5057367" lon="10.4566"><ele>178.0</ele><time>2026-03-29T11:33:17.995Z</time></trkpt><trkpt lat="45.50575" lon="10.45687"><ele>178.0</ele><time>2026-03-29T11:33:18.995Z</time></trkpt><trkpt lat="45.5057767" lon="10.4571317"><ele>178.0</ele><time>2026-03-29T11:33:19.995Z</time></trkpt><trkpt lat="45.5058167" lon="10.4574167"><ele>178.0</ele><time>2026-03-29T11:33:20.995Z</time></trkpt><trkpt lat="45.50585" lon="10.4577017"><ele>178.0</ele><time>2026-03-29T11:33:21.996Z</time></trkpt><trkpt lat="45.5058733" lon="10.4579867"><ele>178.0</ele><time>2026-03-29T11:33:22.995Z</time></trkpt><trkpt lat="45.505905" lon="10.45828"><ele>178.33333333333334</ele><time>2026-03-29T11:33:23.995Z</time></trkpt><trkpt lat="45.5059417" lon="10.458585"><ele>178.66666666666666</ele><time>2026-03-29T11:33:24.995Z</time></trkpt><trkpt lat="45.5059933" lon="10.458885"><ele>179.0</ele><time>2026-03-29T11:33:25.995Z</time></trkpt><trkpt lat="45.5060217" lon="10.459175"><ele>179.33333333333331</ele><time>2026-03-29T11:33:26.995Z</time></trkpt><trkpt lat="45.5060667" lon="10.459465"><ele>179.66666666666666</ele><time>2026-03-29T11:33:27.995Z</time></trkpt><trkpt lat="45.5061083" lon="10.4597517"><ele>180.0</ele><time>2026-03-29T11:33:28.995Z</time></trkpt><trkpt lat="45.5061383" lon="10.4600417"><ele>180.33333333333334</ele><time>2026-03-29T11:33:29.995Z</time></trkpt><trkpt lat="45.5061833" lon="10.4603367"><ele>180.66666666666669</ele><time>2026-03-29T11:33:30.996Z</time></trkpt><trkpt lat="45.506245" lon="10.4606433"><ele>181.0</ele><time>2026-03-29T11:33:31.995Z</time></trkpt><trkpt lat="45.5062917" lon="10.4609417"><ele>181.0</ele><time>2026-03-29T11:33:32.995Z</time></trkpt><trkpt lat="45.5063433" lon="10.4612383"><ele>181.0</ele><time>2026-03-29T11:33:33.995Z</time></trkpt><trkpt lat="45.50641" lon="10.4615367"><ele>181.0</ele><time>2026-03-29T11:33:34.996Z</time></trkpt><trkpt lat="45.5064783" lon="10.461835"><ele>181.33333333333334</ele><time>2026-03-29T11:33:35.995Z</time></trkpt><trkpt lat="45.506525" lon="10.4621283"><ele>181.66666666666666</ele><time>2026-03-29T11:33:36.996Z</time></trkpt><trkpt lat="45.5065733" lon="10.46241"><ele>182.0</ele><time>2026-03-29T11:33:37.995Z</time></trkpt><trkpt lat="45.506615" lon="10.4626633"><ele>182.0</ele><time>2026-03-29T11:33:38.996Z</time></trkpt><trkpt lat="45.5066667" lon="10.4628917"><ele>182.0</ele><time>2026-03-29T11:33:39.995Z</time></trkpt><trkpt lat="45.5067117" lon="10.463085"><ele>182.0</ele><time>2026-03-29T11:33:40.995Z</time></trkpt><trkpt lat="45.506745" lon="10.463265"><ele>182.0</ele><time>2026-03-29T11:33:41.995Z</time></trkpt><trkpt lat="45.5067683" lon="10.4634267"><ele>182.0</ele><time>2026-03-29T11:33:42.995Z</time></trkpt><trkpt lat="45.506765" lon="10.463585"><ele>182.0</ele><time>2026-03-29T11:33:43.995Z</time></trkpt><trkpt lat="45.5067467" lon="10.4637167"><ele>182.0</ele><time>2026-03-29T11:33:44.995Z</time></trkpt><trkpt lat="45.5067283" lon="10.463855"><ele>182.0</ele><time>2026-03-29T11:33:45.995Z</time></trkpt><trkpt lat="45.5067217" lon="10.4639633"><ele>182.0</ele><time>2026-03-29T11:33:46.995Z</time></trkpt><trkpt lat="45.5067517" lon="10.4640467"><ele>182.0</ele><time>2026-03-29T11:33:47.995Z</time></trkpt><trkpt lat="45.5068217" lon="10.4640767"><ele>182.0</ele><time>2026-03-29T11:33:48.995Z</time></trkpt><trkpt lat="45.506905" lon="10.46406"><ele>182.0</ele><time>2026-03-29T11:33:49.995Z</time></trkpt><trkpt lat="45.5069883" lon="10.4639983"><ele>182.0</ele><time>2026-03-29T11:33:50.995Z</time></trkpt><trkpt lat="45.5070767" lon="10.46392"><ele>182.0</ele><time>2026-03-29T11:33:51.995Z</time></trkpt><trkpt lat="45.5071883" lon="10.46387"><ele>182.0</ele><time>2026-03-29T11:33:52.995Z</time></trkpt><trkpt lat="45.50731" lon="10.4638367"><ele>182.5</ele><time>2026-03-29T11:33:53.995Z</time></trkpt><trkpt lat="45.5074433" lon="10.4638217"><ele>183.0</ele><time>2026-03-29T11:33:54.995Z</time></trkpt><trkpt lat="45.507585" lon="10.4638083"><ele>183.5</ele><time>2026-03-29T11:33:55.995Z</time></trkpt><trkpt lat="45.507735" lon="10.4638033"><ele>184.0</ele><time>2026-03-29T11:33:56.995Z</time></trkpt><trkpt lat="45.507875" lon="10.4637867"><ele>184.79999999999998</ele><time>2026-03-29T11:33:57.995Z</time></trkpt><trkpt lat="45.5080033" lon="10.4637717"><ele>185.6</ele><time>2026-03-29T11:33:58.995Z</time></trkpt><trkpt lat="45.508115" lon="10.4637567"><ele>186.4</ele><time>2026-03-29T11:33:59.995Z</time></trkpt><trkpt lat="45.50821" lon="10.46375"><ele>187.2</ele><time>2026-03-29T11:34:00.996Z</time></trkpt><trkpt lat="45.50828" lon="10.46374"><ele>188.0</ele><time>2026-03-29T11:34:01.996Z</time></trkpt><trkpt lat="45.5083633" lon="10.46372"><ele>188.0</ele><time>2026-03-29T11:34:03.995Z</time></trkpt><trkpt lat="45.5083817" lon="10.4636133"><ele>188.0</ele><time>2026-03-29T11:34:06.995Z</time></trkpt><trkpt lat="45.5083233" lon="10.4635"><ele>188.0</ele><time>2026-03-29T11:34:08.995Z</time></trkpt><trkpt lat="45.5082717" lon="10.46337"><ele>188.0</ele><time>2026-03-29T11:34:10.995Z</time></trkpt><trkpt lat="45.5082417" lon="10.463285"><ele>188.0</ele><time>2026-03-29T11:34:11.995Z</time></trkpt><trkpt lat="45.5082167" lon="10.4631883"><ele>188.0</ele><time>2026-03-29T11:34:12.995Z</time></trkpt><trkpt lat="45.5081967" lon="10.4630433"><ele>188.0</ele><time>2026-03-29T11:34:14.995Z</time></trkpt></trkseg></trk></gpx>